<?xml version='1.0' encoding='UTF-8'?><gpx version="1.1" creator="JPX - https://github.com/jenetics/jpx" xmlns="http://www.topografix.com/GPX/1/1"><trk><trkseg><trkpt lat="43.58115214986489" lon="10.622136808117432"><ele>65.0</ele><time>2026-04-16T10:08:46.062Z</time></trkpt><trkpt lat="43.58160343509027" lon="10.621658202901827"><ele>65.0</ele><time>2026-04-16T10:08:49.064Z</time></trkpt><trkpt lat="43.58146691038788" lon="10.621705985408418"><ele>65.0</ele><time>2026-04-16T10:08:58.065Z</time></trkpt><trkpt lat="43.581320219892035" lon="10.62204117774411"><ele>65.0</ele><time>2026-04-16T10:09:06.866Z</time></trkpt><trkpt lat="43.58128669114325" lon="10.622122482132891"><ele>65.0</ele><time>2026-04-16T10:09:18.868Z</time></trkpt><trkpt lat="43.58118446532167" lon="10.622263563935807"><ele>65.0</ele><time>2026-04-16T10:50:07.261Z</time></trkpt><trkpt lat="43.58123452859503" lon="10.622137712029604"><ele>65.0</ele><time>2026-04-16T10:50:48.799Z</time></trkpt><trkpt lat="43.58125016310254" lon="10.622046918629074"><ele>65.0</ele><time>2026-04-16T10:50:50.784Z</time></trkpt><trkpt lat="43.581216665361005" lon="10.621906244751376"><ele>65.0</ele><time>2026-04-16T10:50:55.043Z</time></trkpt><trkpt lat="43.581193183961425" lon="10.621780503702624"><ele>66.33333333333334</ele><time>2026-04-16T10:50:57.04Z</time></trkpt><trkpt lat="43.58117983014712" lon="10.621660155785825"><ele>67.66666666666667</ele><time>2026-04-16T10:50:59.035Z</time></trkpt><trkpt lat="43.581179865804785" lon="10.621538437297673"><ele>69.0</ele><time>2026-04-16T10:51:02.028Z</time></trkpt><trkpt lat="43.58117239386742" lon="10.621446186244702"><ele>70.33333333333333</ele><time>2026-04-16T10:51:03.026Z</time></trkpt><trkpt lat="43.58117187693357" lon="10.621333894083822"><ele>71.66666666666666</ele><time>2026-04-16T10:51:05.023Z</time></trkpt><trkpt lat="43.58117590797196" lon="10.621184116171825"><ele>73.0</ele><time>2026-04-16T10:51:07.02Z</time></trkpt><trkpt lat="43.58118673021123" lon="10.621071513629019"><ele>72.0</ele><time>2026-04-16T10:51:10.016Z</time></trkpt><trkpt lat="43.58118748649997" lon="10.620976051354985"><ele>71.0</ele><time>2026-04-16T10:51:11.015Z</time></trkpt><trkpt lat="43.581239880367086" lon="10.62202062305662"><ele>71.5</ele><time>2026-04-16T10:51:12.014Z</time></trkpt><trkpt lat="43.581194780141786" lon="10.62192023485175"><ele>72.0</ele><time>2026-04-16T10:51:15.011Z</time></trkpt><trkpt lat="43.581160420642796" lon="10.62178161107765"><ele>72.5</ele><time>2026-04-16T10:51:27.066Z</time></trkpt><trkpt lat="43.58113555363523" lon="10.62143130506279"><ele>73.0</ele><time>2026-04-16T10:51:32.063Z</time></trkpt><trkpt lat="43.581180029039594" lon="10.621699041603168"><ele>72.6</ele><time>2026-04-16T10:51:36.067Z</time></trkpt><trkpt lat="43.58121859957026" lon="10.621880102888415"><ele>72.19999999999999</ele><time>2026-04-16T10:51:38.614Z</time></trkpt><trkpt lat="43.58124501327657" lon="10.622014658161895"><ele>71.8</ele><time>2026-04-16T10:51:44.066Z</time></trkpt><trkpt lat="43.58127204207451" lon="10.622157929608559"><ele>71.39999999999999</ele><time>2026-04-16T11:05:01.234Z</time></trkpt><trkpt lat="43.58120624811719" lon="10.622047991967571"><ele>71.0</ele><time>2026-04-16T11:06:00.014Z</time></trkpt><trkpt lat="43.581220076231" lon="10.621923782451328"><ele>71.28571428571428</ele><time>2026-04-16T11:06:06.011Z</time></trkpt><trkpt lat="43.581151680458674" lon="10.621857032311535"><ele>71.57142857142857</ele><time>2026-04-16T11:06:29.011Z</time></trkpt><trkpt lat="43.58116970939125" lon="10.621766878300189"><ele>71.85714285714286</ele><time>2026-04-16T11:06:49.011Z</time></trkpt><trkpt lat="43.58108945176282" lon="10.62178694340563"><ele>72.14285714285714</ele><time>2026-04-16T11:06:56.011Z</time></trkpt><trkpt lat="43.58103185129814" lon="10.621837566856966"><ele>72.42857142857143</ele><time>2026-04-16T11:06:59.011Z</time></trkpt><trkpt lat="43.580975294306526" lon="10.62188086655688"><ele>72.71428571428571</ele><time>2026-04-16T11:07:03.01Z</time></trkpt><trkpt lat="43.58101991670805" lon="10.621956245532353"><ele>73.0</ele><time>2026-04-16T11:07:26.014Z</time></trkpt><trkpt lat="43.581070524334464" lon="10.621901398943475"><ele>73.0</ele><time>2026-04-16T11:07:39.013Z</time></trkpt><trkpt lat="43.58115705614439" lon="10.621958263442522"><ele>73.0</ele><time>2026-04-16T11:07:48.011Z</time></trkpt><trkpt lat="43.581228867130775" lon="10.621990892207863"><ele>73.0</ele><time>2026-04-16T11:08:02.007Z</time></trkpt><trkpt lat="43.5813070737906" lon="10.622578355574662"><ele>72.5</ele><time>2026-04-16T11:34:04.058Z</time></trkpt><trkpt lat="43.58122812576845" lon="10.622213167536893"><ele>72.0</ele><time>2026-04-16T11:34:14.431Z</time></trkpt><trkpt lat="43.581254784770486" lon="10.622344620863663"><ele>71.5</ele><time>2026-04-16T11:41:25.987Z</time></trkpt><trkpt lat="43.58121423688076" lon="10.622421457080277"><ele>71.0</ele><time>2026-04-16T11:41:27.986Z</time></trkpt><trkpt lat="43.58124234209274" lon="10.622332267649275"><ele>71.0</ele><time>2026-04-16T11:41:28.986Z</time></trkpt><trkpt lat="43.58115177580177" lon="10.62228915716574"><ele>71.0</ele><time>2026-04-16T11:41:30.984Z</time></trkpt><trkpt lat="43.58108044780204" lon="10.622260463223432"><ele>71.0</ele><time>2026-04-16T11:41:33.986Z</time></trkpt><trkpt lat="43.581018867077475" lon="10.622308049257345"><ele>71.0</ele><time>2026-04-16T11:41:36.989Z</time></trkpt><trkpt lat="43.581050944231876" lon="10.622213568856061"><ele>71.0</ele><time>2026-04-16T11:42:35.001Z</time></trkpt><trkpt lat="43.581225187286314" lon="10.62209281558599"><ele>71.0</ele><time>2026-04-16T11:42:49.001Z</time></trkpt><trkpt lat="43.58128459877726" lon="10.62212186381872"><ele>71.0</ele><time>2026-04-16T11:43:58.028Z</time></trkpt><trkpt lat="43.58134068463302" lon="10.622171195109079"><ele>71.0</ele><time>2026-04-16T11:44:07.027Z</time></trkpt><trkpt lat="43.581267151444905" lon="10.62215425137754"><ele>71.0</ele><time>2026-04-16T11:44:16.025Z</time></trkpt><trkpt lat="43.581202472223175" lon="10.622150645276202"><ele>71.0</ele><time>2026-04-16T11:44:32.011Z</time></trkpt><trkpt lat="43.58127348353616" lon="10.622158820194235"><ele>71.0</ele><time>2026-04-16T11:45:33.017Z</time></trkpt><trkpt lat="43.581236071514404" lon="10.622243707172553"><ele>71.0</ele><time>2026-04-16T11:45:35Z</time></trkpt><trkpt lat="43.58121366637141" lon="10.622393598846928"><ele>71.0</ele><time>2026-04-16T11:45:38Z</time></trkpt><trkpt lat="43.58116059881751" lon="10.622450702999345"><ele>71.0</ele><time>2026-04-16T11:45:59Z</time></trkpt><trkpt lat="43.58111057552222" lon="10.622372987471586"><ele>71.0</ele><time>2026-04-16T11:46:13Z</time></trkpt><trkpt lat="43.58098856514153" lon="10.622312046609244"><ele>71.0</ele><time>2026-04-16T11:46:40Z</time></trkpt><trkpt lat="43.58112244763896" lon="10.622318361323366"><ele>71.0</ele><time>2026-04-16T11:46:48Z</time></trkpt><trkpt lat="43.58118688204716" lon="10.622325627772128"><ele>71.0</ele><time>2026-04-16T11:46:52Z</time></trkpt><trkpt lat="43.58125057639522" lon="10.622207612273082"><ele>71.0</ele><time>2026-04-16T11:46:59Z</time></trkpt><trkpt lat="43.58121073013009" lon="10.622139836897327"><ele>71.0</ele><time>2026-04-16T11:47:14Z</time></trkpt><trkpt lat="43.58128213965109" lon="10.622098827818043"><ele>71.0</ele><time>2026-04-16T11:47:28Z</time></trkpt><trkpt lat="43.58126072349503" lon="10.622206316626693"><ele>71.0</ele><time>2026-04-16T12:31:31.001Z</time></trkpt><trkpt lat="43.58125357217476" lon="10.622117447591247"><ele>71.0</ele><time>2026-04-16T12:34:55Z</time></trkpt><trkpt lat="43.581275795675246" lon="10.622205141617167"><ele>71.0</ele><time>2026-04-16T12:50:12Z</time></trkpt><trkpt lat="43.58127456155851" lon="10.62211675327345"><ele>71.0</ele><time>2026-04-16T12:50:29Z</time></trkpt><trkpt lat="43.58120258347217" lon="10.622167533440305"><ele>71.0</ele><time>2026-04-16T12:54:36Z</time></trkpt><trkpt lat="43.58124181386353" lon="10.622253937475968"><ele>71.0</ele><time>2026-04-16T12:54:45Z</time></trkpt><trkpt lat="43.581249230464664" lon="10.622407276678208"><ele>71.0</ele><time>2026-04-16T12:54:50Z</time></trkpt><trkpt lat="43.58117135493919" lon="10.622279821894157"><ele>71.0</ele><time>2026-04-16T12:54:53Z</time></trkpt><trkpt lat="43.5812479633616" lon="10.6221875811005"><ele>71.0</ele><time>2026-04-16T12:55:05Z</time></trkpt><trkpt lat="43.58114806427072" lon="10.622232770429768"><ele>71.0</ele><time>2026-04-16T12:55:35Z</time></trkpt><trkpt lat="43.581218851074176" lon="10.622142529070333"><ele>71.0</ele><time>2026-04-16T12:55:44Z</time></trkpt><trkpt lat="43.581238517826385" lon="10.62223831576718"><ele>71.0</ele><time>2026-04-16T12:56:00Z</time></trkpt><trkpt lat="43.581187323513376" lon="10.622356728758016"><ele>71.0</ele><time>2026-04-16T12:56:03Z</time></trkpt><trkpt lat="43.5811589087055" lon="10.622455082201045"><ele>71.0</ele><time>2026-04-16T12:56:05Z</time></trkpt><trkpt lat="43.581160089622756" lon="10.622543893724902"><ele>71.0</ele><time>2026-04-16T12:56:07Z</time></trkpt><trkpt lat="43.581144402438525" lon="10.622329786078451"><ele>71.0</ele><time>2026-04-16T12:56:38.065Z</time></trkpt><trkpt lat="43.58127967031972" lon="10.622277487675342"><ele>71.0</ele><time>2026-04-16T12:56:53.04Z</time></trkpt><trkpt lat="43.58127945311255" lon="10.622174530831767"><ele>71.0</ele><time>2026-04-16T12:58:39.012Z</time></trkpt><trkpt lat="43.581223901957486" lon="10.622121583156442"><ele>71.0</ele><time>2026-04-16T12:58:56.015Z</time></trkpt><trkpt lat="43.581151944686965" lon="10.62208957966102"><ele>71.0</ele><time>2026-04-16T12:59:02.015Z</time></trkpt><trkpt lat="43.58106890223694" lon="10.62211126997112"><ele>71.0</ele><time>2026-04-16T12:59:06.016Z</time></trkpt><trkpt lat="43.58114862546793" lon="10.622115758184199"><ele>71.0</ele><time>2026-04-16T12:59:08.014Z</time></trkpt><trkpt lat="43.58120754536278" lon="10.622050456362784"><ele>71.0</ele><time>2026-04-16T12:59:13.015Z</time></trkpt><trkpt lat="43.58126972614609" lon="10.62201072489658"><ele>71.0</ele><time>2026-04-16T12:59:16.015Z</time></trkpt><trkpt lat="43.58132273893184" lon="10.622068060722066"><ele>71.0</ele><time>2026-04-16T12:59:25.015Z</time></trkpt><trkpt lat="43.581384900744915" lon="10.62210322155303"><ele>71.0</ele><time>2026-04-16T12:59:50.014Z</time></trkpt><trkpt lat="43.58132280775785" lon="10.62208721153506"><ele>71.0</ele><time>2026-04-16T13:00:17.014Z</time></trkpt><trkpt lat="43.581147802200334" lon="10.622061208095747"><ele>71.0</ele><time>2026-04-16T13:00:45.012Z</time></trkpt><trkpt lat="43.58122800150854" lon="10.622073076617403"><ele>71.0</ele><time>2026-04-16T13:00:58Z</time></trkpt><trkpt lat="43.58127647603729" lon="10.622156780353023"><ele>71.0</ele><time>2026-04-16T13:01:21.055Z</time></trkpt><trkpt lat="43.581351418517684" lon="10.62215138148149"><ele>71.0</ele><time>2026-04-16T13:06:35.011Z</time></trkpt><trkpt lat="43.58140978886264" lon="10.622110861564396"><ele>71.0</ele><time>2026-04-16T13:06:42.014Z</time></trkpt><trkpt lat="43.58135227598696" lon="10.622068266583668"><ele>71.0</ele><time>2026-04-16T13:06:56.017Z</time></trkpt><trkpt lat="43.58131621927946" lon="10.621996098736266"><ele>71.0</ele><time>2026-04-16T13:07:37.999Z</time></trkpt><trkpt lat="43.58127867591132" lon="10.622070141362743"><ele>71.0</ele><time>2026-04-16T13:08:51Z</time></trkpt><trkpt lat="43.581253820101495" lon="10.622180453038695"><ele>71.0</ele><time>2026-04-16T13:08:53Z</time></trkpt><trkpt lat="43.58118628581502" lon="10.622226831881413"><ele>71.0</ele><time>2026-04-16T13:09:12Z</time></trkpt><trkpt lat="43.58111503539046" lon="10.622296836389108"><ele>71.0</ele><time>2026-04-16T13:09:16Z</time></trkpt><trkpt lat="43.58121404234447" lon="10.62218431693782"><ele>71.0</ele><time>2026-04-16T13:09:35Z</time></trkpt><trkpt lat="43.58117558761616" lon="10.622085355257022"><ele>71.0</ele><time>2026-04-16T13:09:42Z</time></trkpt><trkpt lat="43.58118774153612" lon="10.622188584837371"><ele>71.0</ele><time>2026-04-16T13:09:50Z</time></trkpt><trkpt lat="43.581222665240446" lon="10.622276588578332"><ele>71.0</ele><time>2026-04-16T13:09:55Z</time></trkpt><trkpt lat="43.581211117749774" lon="10.622390044462183"><ele>71.0</ele><time>2026-04-16T13:09:59Z</time></trkpt><trkpt lat="43.58132088559506" lon="10.622393930057235"><ele>71.0</ele><time>2026-04-16T13:10:03Z</time></trkpt><trkpt lat="43.58144855231535" lon="10.622444696990362"><ele>71.0</ele><time>2026-04-16T13:10:05Z</time></trkpt><trkpt lat="43.58142919317675" lon="10.622605384314642"><ele>71.0</ele><time>2026-04-16T13:10:14Z</time></trkpt><trkpt lat="43.58132988842785" lon="10.622616548649916"><ele>71.0</ele><time>2026-04-16T13:10:17Z</time></trkpt><trkpt lat="43.581277896853784" lon="10.622521764552857"><ele>71.0</ele><time>2026-04-16T13:10:20Z</time></trkpt><trkpt lat="43.58124065824075" lon="10.622305662070502"><ele>71.0</ele><time>2026-04-16T13:10:26Z</time></trkpt><trkpt lat="43.5813235323412" lon="10.62244835675527"><ele>71.0</ele><time>2026-04-16T13:10:29.06Z</time></trkpt><trkpt lat="43.58122415281119" lon="10.622329062578938"><ele>71.33333333333334</ele><time>2026-04-16T13:10:37.06Z</time></trkpt><trkpt lat="43.581167391692745" lon="10.622210870757401"><ele>71.66666666666667</ele><time>2026-04-16T13:10:39.064Z</time></trkpt><trkpt lat="43.58114434512812" lon="10.622097168943915"><ele>72.0</ele><time>2026-04-16T13:10:40.061Z</time></trkpt><trkpt lat="43.581092371865985" lon="10.62202630640946"><ele>72.33333333333333</ele><time>2026-04-16T13:10:41.06Z</time></trkpt><trkpt lat="43.58103033928461" lon="10.621933270069048"><ele>72.66666666666666</ele><time>2026-04-16T13:10:42.065Z</time></trkpt><trkpt lat="43.58095643081387" lon="10.62186375547729"><ele>73.0</ele><time>2026-04-16T13:10:45.065Z</time></trkpt><trkpt lat="43.58088915516917" lon="10.621855453612232"><ele>73.0</ele><time>2026-04-16T13:10:47.064Z</time></trkpt><trkpt lat="43.58084107493363" lon="10.621786450657085"><ele>73.0</ele><time>2026-04-16T13:10:50.065Z</time></trkpt><trkpt lat="43.58083678914981" lon="10.62166287780294"><ele>73.0</ele><time>2026-04-16T13:10:53.053Z</time></trkpt><trkpt lat="43.58080325688199" lon="10.62156676007065"><ele>73.0</ele><time>2026-04-16T13:10:56.042Z</time></trkpt><trkpt lat="43.58120568030813" lon="10.62213101872336"><ele>72.6</ele><time>2026-04-16T13:11:01.039Z</time></trkpt><trkpt lat="43.5812625262717" lon="10.622178753826164"><ele>72.19999999999999</ele><time>2026-04-16T13:11:03.037Z</time></trkpt><trkpt lat="43.58132339222739" lon="10.622204174399165"><ele>71.8</ele><time>2026-04-16T13:11:05.036Z</time></trkpt><trkpt lat="43.58113276990558" lon="10.622295180290875"><ele>71.39999999999999</ele><time>2026-04-16T13:11:27.011Z</time></trkpt><trkpt lat="43.58106595463916" lon="10.62229040084488"><ele>71.0</ele><time>2026-04-16T13:11:29.012Z</time></trkpt><trkpt lat="43.5811864546444" lon="10.622194572760195"><ele>71.0</ele><time>2026-04-16T13:11:31.012Z</time></trkpt><trkpt lat="43.581253487418735" lon="10.622189768518433"><ele>71.0</ele><time>2026-04-16T13:13:10.015Z</time></trkpt><trkpt lat="43.58130699550086" lon="10.622079801518465"><ele>71.0</ele><time>2026-04-16T13:14:19.011Z</time></trkpt><trkpt lat="43.58124030494112" lon="10.622108166850346"><ele>71.0</ele><time>2026-04-16T13:14:52.013Z</time></trkpt><trkpt lat="43.581236889900055" lon="10.622199490826084"><ele>71.0</ele><time>2026-04-16T13:14:55.016Z</time></trkpt><trkpt lat="43.58128383439163" lon="10.622134255637135"><ele>71.0</ele><time>2026-04-16T13:16:32.013Z</time></trkpt><trkpt lat="43.58129033458815" lon="10.622021485039662"><ele>71.0</ele><time>2026-04-16T13:16:36.014Z</time></trkpt><trkpt lat="43.58131564104259" lon="10.621937378709442"><ele>71.0</ele><time>2026-04-16T13:16:41.014Z</time></trkpt><trkpt lat="43.58127684088536" lon="10.622019080353567"><ele>71.0</ele><time>2026-04-16T13:17:15.011Z</time></trkpt><trkpt lat="43.5812697094155" lon="10.62211009080464"><ele>71.0</ele><time>2026-04-16T13:18:05.013Z</time></trkpt><trkpt lat="43.58123346761805" lon="10.622201635126602"><ele>71.0</ele><time>2026-04-16T13:18:11.014Z</time></trkpt><trkpt lat="43.58115258237713" lon="10.622254757272596"><ele>71.0</ele><time>2026-04-16T13:18:14.012Z</time></trkpt><trkpt lat="43.581196728123224" lon="10.622165514982003"><ele>71.0</ele><time>2026-04-16T13:18:34.016Z</time></trkpt><trkpt lat="43.5812657534857" lon="10.622111957463908"><ele>71.0</ele><time>2026-04-16T13:18:54.015Z</time></trkpt><trkpt lat="43.58123977625228" lon="10.622026493885876"><ele>71.0</ele><time>2026-04-16T13:19:04.017Z</time></trkpt><trkpt lat="43.58129391896058" lon="10.622092307561928"><ele>71.0</ele><time>2026-04-16T13:19:11.016Z</time></trkpt><trkpt lat="43.58128508618719" lon="10.622208860782429"><ele>71.0</ele><time>2026-04-16T13:22:35.015Z</time></trkpt><trkpt lat="43.5812736388857" lon="10.62231792561877"><ele>71.0</ele><time>2026-04-16T13:22:37.016Z</time></trkpt><trkpt lat="43.5812710342329" lon="10.622407818821173"><ele>71.0</ele><time>2026-04-16T13:22:45.016Z</time></trkpt><trkpt lat="43.581269183165766" lon="10.622298373687588"><ele>71.0</ele><time>2026-04-16T13:23:05.013Z</time></trkpt><trkpt lat="43.58125757311744" lon="10.622210692768505"><ele>71.0</ele><time>2026-04-16T13:23:23.016Z</time></trkpt><trkpt lat="43.58128938742331" lon="10.622118073977614"><ele>71.0</ele><time>2026-04-16T13:24:07.012Z</time></trkpt><trkpt lat="43.581222347938045" lon="10.622083576140213"><ele>71.0</ele><time>2026-04-16T13:24:13.016Z</time></trkpt><trkpt lat="43.581269263167684" lon="10.622152761452307"><ele>71.0</ele><time>2026-04-16T13:28:01.006Z</time></trkpt><trkpt lat="43.58122972942627" lon="10.6219910212298"><ele>71.0</ele><time>2026-04-16T14:05:55.004Z</time></trkpt><trkpt lat="43.581284624898046" lon="10.622206301664015"><ele>71.0</ele><time>2026-04-16T14:12:09.997Z</time></trkpt><trkpt lat="43.58125672881386" lon="10.622125636395724"><ele>71.0</ele><time>2026-04-16T14:24:49Z</time></trkpt><trkpt lat="43.581267629070055" lon="10.622226718680299"><ele>71.0</ele><time>2026-04-16T14:28:07.001Z</time></trkpt><trkpt lat="43.581255325117326" lon="10.622138856674384"><ele>71.0</ele><time>2026-04-16T14:31:47Z</time></trkpt><trkpt lat="43.58124437158928" lon="10.622228245940978"><ele>71.0</ele><time>2026-04-16T14:40:04Z</time></trkpt><trkpt lat="43.58133662387901" lon="10.622258540394808"><ele>71.0</ele><time>2026-04-16T14:40:26Z</time></trkpt><trkpt lat="43.58143687537993" lon="10.622313170124835"><ele>71.0</ele><time>2026-04-16T14:40:29Z</time></trkpt><trkpt lat="43.581352224023746" lon="10.622305455053313"><ele>71.0</ele><time>2026-04-16T14:40:38.061Z</time></trkpt><trkpt lat="43.58128416101416" lon="10.622268458386962"><ele>71.0</ele><time>2026-04-16T14:40:40Z</time></trkpt><trkpt lat="43.58130153518152" lon="10.622040240914414"><ele>71.0</ele><time>2026-04-16T14:41:08Z</time></trkpt><trkpt lat="43.581269379488575" lon="10.621959258807294"><ele>71.0</ele><time>2026-04-16T14:41:16Z</time></trkpt><trkpt lat="43.58123159347179" lon="10.621818653867754"><ele>73.25</ele><time>2026-04-16T14:41:20.024Z</time></trkpt><trkpt lat="43.58106060322583" lon="10.621990348807092"><ele>75.5</ele><time>2026-04-16T14:41:24Z</time></trkpt><trkpt lat="43.58097668626749" lon="10.622014252397292"><ele>77.75</ele><time>2026-04-16T14:41:25Z</time></trkpt><trkpt lat="43.580913893686144" lon="10.622113288044757"><ele>80.0</ele><time>2026-04-16T14:41:28Z</time></trkpt><trkpt lat="43.580986531673844" lon="10.622118313938632"><ele>80.0</ele><time>2026-04-16T14:41:30Z</time></trkpt><trkpt lat="43.58115325056178" lon="10.622047061617522"><ele>80.0</ele><time>2026-04-16T14:42:00.056Z</time></trkpt><trkpt lat="43.581261494458985" lon="10.622135679719092"><ele>80.0</ele><time>2026-04-16T14:42:53.215Z</time></trkpt><trkpt lat="43.581289237087304" lon="10.622229517272649"><ele>80.0</ele><time>2026-04-16T14:43:13.014Z</time></trkpt><trkpt lat="43.58131084954129" lon="10.622311437115759"><ele>80.0</ele><time>2026-04-16T14:43:16.013Z</time></trkpt><trkpt lat="43.58128169099325" lon="10.62220415941681"><ele>78.5</ele><time>2026-04-16T14:43:46.009Z</time></trkpt><trkpt lat="43.58133588110957" lon="10.622148553468872"><ele>77.0</ele><time>2026-04-16T14:56:24.013Z</time></trkpt><trkpt lat="43.58128772254109" lon="10.622083358489284"><ele>75.5</ele><time>2026-04-16T14:56:41.016Z</time></trkpt><trkpt lat="43.5812307929242" lon="10.622009198825294"><ele>74.0</ele><time>2026-04-16T14:58:25Z</time></trkpt><trkpt lat="43.58131027279307" lon="10.622055249940184"><ele>72.5</ele><time>2026-04-16T14:59:12Z</time></trkpt><trkpt lat="43.58138010015909" lon="10.622066905640398"><ele>71.0</ele><time>2026-04-16T14:59:29Z</time></trkpt><trkpt lat="43.58142275198783" lon="10.621968409773515"><ele>71.0</ele><time>2026-04-16T14:59:31Z</time></trkpt><trkpt lat="43.58146922416925" lon="10.62186371800953"><ele>71.0</ele><time>2026-04-16T14:59:33.061Z</time></trkpt><trkpt lat="43.58156510983951" lon="10.621796260216673"><ele>71.0</ele><time>2026-04-16T14:59:35.04Z</time></trkpt><trkpt lat="43.581489240502364" lon="10.621909987738638"><ele>71.0</ele><time>2026-04-16T14:59:43.055Z</time></trkpt><trkpt lat="43.58129930509893" lon="10.622148003137097"><ele>71.0</ele><time>2026-04-16T14:59:55.029Z</time></trkpt><trkpt lat="43.58122373571899" lon="10.62212593621302"><ele>71.0</ele><time>2026-04-16T15:08:30.015Z</time></trkpt><trkpt lat="43.581177316050535" lon="10.622047500618272"><ele>71.0</ele><time>2026-04-16T15:08:54Z</time></trkpt><trkpt lat="43.58121538740147" lon="10.621977143184738"><ele>71.0</ele><time>2026-04-16T15:09:01Z</time></trkpt><trkpt lat="43.58126894922607" lon="10.621929056277452"><ele>71.0</ele><time>2026-04-16T15:09:07Z</time></trkpt><trkpt lat="43.58134759066077" lon="10.621859055004782"><ele>71.0</ele><time>2026-04-16T15:09:12Z</time></trkpt><trkpt lat="43.58134640719704" lon="10.621959191223478"><ele>71.0</ele><time>2026-04-16T15:09:19Z</time></trkpt><trkpt lat="43.58108141194426" lon="10.622017693840949"><ele>71.33333333333334</ele><time>2026-04-16T15:10:23.037Z</time></trkpt><trkpt lat="43.58114379106434" lon="10.621980692350014"><ele>71.66666666666667</ele><time>2026-04-16T15:10:26.037Z</time></trkpt><trkpt lat="43.581110080931666" lon="10.621906020840234"><ele>72.0</ele><time>2026-04-16T15:10:29.028Z</time></trkpt><trkpt lat="43.58108299497892" lon="10.621817728589061"><ele>72.33333333333333</ele><time>2026-04-16T15:10:32.055Z</time></trkpt><trkpt lat="43.5812063016803" lon="10.621807240050746"><ele>72.66666666666666</ele><time>2026-04-16T15:10:44.059Z</time></trkpt><trkpt lat="43.58125072875174" lon="10.621714033509887"><ele>73.0</ele><time>2026-04-16T15:10:45.058Z</time></trkpt><trkpt lat="43.58128711485099" lon="10.621622044539706"><ele>72.0</ele><time>2026-04-16T15:10:47Z</time></trkpt><trkpt lat="43.58119178618189" lon="10.62218453977665"><ele>71.0</ele><time>2026-04-16T15:10:51Z</time></trkpt><trkpt lat="43.58122091617412" lon="10.622064922173546"><ele>71.0</ele><time>2026-04-16T15:10:52Z</time></trkpt><trkpt lat="43.5811970079774" lon="10.622159591346284"><ele>71.0</ele><time>2026-04-16T15:11:06Z</time></trkpt><trkpt lat="43.58126040276761" lon="10.622140032515347"><ele>71.0</ele><time>2026-04-16T15:11:31Z</time></trkpt><trkpt lat="43.58126937013175" lon="10.622045062351232"><ele>71.0</ele><time>2026-04-16T15:14:35Z</time></trkpt><trkpt lat="43.58127311751556" lon="10.622185381085405"><ele>71.0</ele><time>2026-04-16T15:14:39Z</time></trkpt><trkpt lat="43.58120953059162" lon="10.622202313586188"><ele>71.0</ele><time>2026-04-16T15:16:33.019Z</time></trkpt><trkpt lat="43.58113261234385" lon="10.622210475731402"><ele>71.0</ele><time>2026-04-16T15:18:03.02Z</time></trkpt><trkpt lat="43.58121793540015" lon="10.622201049074977"><ele>71.0</ele><time>2026-04-16T15:18:22.02Z</time></trkpt><trkpt lat="43.58128912296126" lon="10.62221049413257"><ele>71.0</ele><time>2026-04-16T15:18:45.017Z</time></trkpt><trkpt lat="43.58139174896118" lon="10.622169461987523"><ele>71.0</ele><time>2026-04-16T15:19:06.017Z</time></trkpt><trkpt lat="43.581308078329464" lon="10.622149907093263"><ele>71.0</ele><time>2026-04-16T15:19:40.014Z</time></trkpt><trkpt lat="43.581230251473876" lon="10.622176948344382"><ele>71.0</ele><time>2026-04-16T15:19:59.016Z</time></trkpt><trkpt lat="43.581294665490475" lon="10.622255772008373"><ele>71.0</ele><time>2026-04-16T15:22:36Z</time></trkpt><trkpt lat="43.58127776005028" lon="10.622168633391583"><ele>71.0</ele><time>2026-04-16T15:22:44Z</time></trkpt><trkpt lat="43.58122741224192" lon="10.622083779833188"><ele>71.0</ele><time>2026-04-16T15:23:24Z</time></trkpt><trkpt lat="43.58127423248572" lon="10.622142204496361"><ele>71.0</ele><time>2026-04-16T15:23:42Z</time></trkpt><trkpt lat="43.58122534986847" lon="10.622205662310996"><ele>71.0</ele><time>2026-04-16T15:31:20Z</time></trkpt><trkpt lat="43.58124324406332" lon="10.622109171639561"><ele>71.0</ele><time>2026-04-16T15:33:57.071Z</time></trkpt><trkpt lat="43.58130326826872" lon="10.622173523695436"><ele>71.0</ele><time>2026-04-16T15:41:33.013Z</time></trkpt><trkpt lat="43.58136762053161" lon="10.622175689093583"><ele>71.0</ele><time>2026-04-16T15:41:36.012Z</time></trkpt><trkpt lat="43.581456707526634" lon="10.622189016228543"><ele>71.0</ele><time>2026-04-16T15:41:39.012Z</time></trkpt><trkpt lat="43.58152871417587" lon="10.62218437662634"><ele>71.0</ele><time>2026-04-16T15:41:42.012Z</time></trkpt><trkpt lat="43.5814279236301" lon="10.622149021620338"><ele>71.0</ele><time>2026-04-16T15:42:00.011Z</time></trkpt><trkpt lat="43.58136119688979" lon="10.622152467570455"><ele>71.0</ele><time>2026-04-16T15:42:06.01Z</time></trkpt><trkpt lat="43.58127439162995" lon="10.622156783987162"><ele>71.0</ele><time>2026-04-16T15:42:20.008Z</time></trkpt><trkpt lat="43.5813390883933" lon="10.622171146884812"><ele>71.0</ele><time>2026-04-16T15:46:05.012Z</time></trkpt><trkpt lat="43.581306295117585" lon="10.622069563497197"><ele>71.0</ele><time>2026-04-16T15:47:51.01Z</time></trkpt><trkpt lat="43.581356758407956" lon="10.622006804835049"><ele>71.0</ele><time>2026-04-16T15:47:57.011Z</time></trkpt><trkpt lat="43.58127520020376" lon="10.622152891563285"><ele>71.0</ele><time>2026-04-16T15:48:11.01Z</time></trkpt><trkpt lat="43.581218467593146" lon="10.622201113649965"><ele>71.0</ele><time>2026-04-16T15:52:04Z</time></trkpt><trkpt lat="43.58128677721966" lon="10.622250710402668"><ele>71.0</ele><time>2026-04-16T15:52:28Z</time></trkpt><trkpt lat="43.5813593154366" lon="10.62223893108336"><ele>71.0</ele><time>2026-04-16T15:53:14.001Z</time></trkpt><trkpt lat="43.58143567452259" lon="10.622329417764663"><ele>71.0</ele><time>2026-04-16T15:53:19.001Z</time></trkpt><trkpt lat="43.58157018946055" lon="10.622367468767505"><ele>71.0</ele><time>2026-04-16T15:53:20.001Z</time></trkpt><trkpt lat="43.581760138669644" lon="10.622401909108182"><ele>71.0</ele><time>2026-04-16T15:53:26.059Z</time></trkpt><trkpt lat="43.58187358463157" lon="10.622437945013823"><ele>71.0</ele><time>2026-04-16T15:53:27.061Z</time></trkpt><trkpt lat="43.58199488791449" lon="10.62244586174153"><ele>71.0</ele><time>2026-04-16T15:53:31.064Z</time></trkpt><trkpt lat="43.5820655726223" lon="10.622476137730079"><ele>71.0</ele><time>2026-04-16T15:53:33.062Z</time></trkpt><trkpt lat="43.582123867107704" lon="10.62267298550905"><ele>71.0</ele><time>2026-04-16T15:53:35.064Z</time></trkpt><trkpt lat="43.58218711433167" lon="10.622760613482576"><ele>71.0</ele><time>2026-04-16T15:53:37.061Z</time></trkpt><trkpt lat="43.58224940635939" lon="10.622857321613642"><ele>71.0</ele><time>2026-04-16T15:53:39.064Z</time></trkpt><trkpt lat="43.58127941379421" lon="10.622165748825449"><ele>71.0</ele><time>2026-04-16T15:53:53.048Z</time></trkpt><trkpt lat="43.581446541994495" lon="10.622427369160764"><ele>71.0</ele><time>2026-04-16T15:54:09.018Z</time></trkpt><trkpt lat="43.58139789999347" lon="10.62226540193493"><ele>71.0</ele><time>2026-04-16T15:54:21.015Z</time></trkpt><trkpt lat="43.58121234657659" lon="10.622010501288974"><ele>71.0</ele><time>2026-04-16T15:55:07.012Z</time></trkpt><trkpt lat="43.581255726035366" lon="10.62212714529526"><ele>71.0</ele><time>2026-04-16T15:56:11.009Z</time></trkpt><trkpt lat="43.581406604369676" lon="10.622116129306956"><ele>71.0</ele><time>2026-04-16T16:04:41.015Z</time></trkpt><trkpt lat="43.58125487446566" lon="10.622196282706264"><ele>71.0</ele><time>2026-04-16T16:04:51Z</time></trkpt><trkpt lat="43.5811912922323" lon="10.62225219747005"><ele>72.5</ele><time>2026-04-16T16:04:54Z</time></trkpt><trkpt lat="43.58109597284508" lon="10.622260467469363"><ele>74.0</ele><time>2026-04-16T16:04:57Z</time></trkpt><trkpt lat="43.581028845308815" lon="10.622242586197652"><ele>75.5</ele><time>2026-04-16T16:05:05Z</time></trkpt><trkpt lat="43.580954565431774" lon="10.62220221542694"><ele>77.0</ele><time>2026-04-16T16:05:12Z</time></trkpt><trkpt lat="43.58089828548477" lon="10.622155432968341"><ele>78.5</ele><time>2026-04-16T16:05:17Z</time></trkpt><trkpt lat="43.580817788177335" lon="10.622117471586112"><ele>80.0</ele><time>2026-04-16T16:11:43Z</time></trkpt><trkpt lat="43.58088908857543" lon="10.622136581058959"><ele>80.0</ele><time>2026-04-16T16:13:44Z</time></trkpt><trkpt lat="43.580811886822126" lon="10.622109942379822"><ele>80.0</ele><time>2026-04-16T16:15:55Z</time></trkpt><trkpt lat="43.580873194723885" lon="10.622156744822561"><ele>80.0</ele><time>2026-04-16T16:16:14Z</time></trkpt><trkpt lat="43.58094636607036" lon="10.622171757157052"><ele>80.0</ele><time>2026-04-16T16:16:19Z</time></trkpt><trkpt lat="43.5808686545692" lon="10.62216679893286"><ele>80.0</ele><time>2026-04-16T16:16:28Z</time></trkpt><trkpt lat="43.58095627090692" lon="10.622198120686985"><ele>80.0</ele><time>2026-04-16T16:17:52Z</time></trkpt><trkpt lat="43.58089476646631" lon="10.622145533982174"><ele>80.0</ele><time>2026-04-16T16:17:57Z</time></trkpt><trkpt lat="43.58081993463843" lon="10.622158095381463"><ele>80.0</ele><time>2026-04-16T16:22:06Z</time></trkpt><trkpt lat="43.5807899966894" lon="10.62223530717817"><ele>80.0</ele><time>2026-04-16T16:22:09Z</time></trkpt><trkpt lat="43.58083521082023" lon="10.622160076914076"><ele>80.0</ele><time>2026-04-16T16:22:16Z</time></trkpt><trkpt lat="43.58076825916972" lon="10.622131759395645"><ele>80.0</ele><time>2026-04-16T16:25:50.001Z</time></trkpt><trkpt lat="43.58083175502072" lon="10.622161186246467"><ele>80.0</ele><time>2026-04-16T16:27:07Z</time></trkpt><trkpt lat="43.58091115377805" lon="10.622174638223026"><ele>80.0</ele><time>2026-04-16T16:27:30Z</time></trkpt><trkpt lat="43.58097582631238" lon="10.62221257645994"><ele>80.0</ele><time>2026-04-16T16:27:35Z</time></trkpt><trkpt lat="43.58104984937269" lon="10.62224073326231"><ele>80.0</ele><time>2026-04-16T16:27:42Z</time></trkpt><trkpt lat="43.58111838460959" lon="10.622245099882372"><ele>80.0</ele><time>2026-04-16T16:27:47Z</time></trkpt><trkpt lat="43.58118022971134" lon="10.622196228015808"><ele>80.0</ele><time>2026-04-16T16:27:56Z</time></trkpt><trkpt lat="43.581249489049334" lon="10.622221865897943"><ele>80.0</ele><time>2026-04-16T16:28:04Z</time></trkpt><trkpt lat="43.5812542933837" lon="10.622100852198871"><ele>80.0</ele><time>2026-04-16T16:28:13.07Z</time></trkpt><trkpt lat="43.58121135373538" lon="10.622012294388526"><ele>80.0</ele><time>2026-04-16T16:28:16.068Z</time></trkpt><trkpt lat="43.58116540862915" lon="10.622102351223838"><ele>80.0</ele><time>2026-04-16T16:28:23.073Z</time></trkpt><trkpt lat="43.581521835935675" lon="10.621905103013695"><ele>76.25</ele><time>2026-04-16T16:28:25.068Z</time></trkpt><trkpt lat="43.58137461774248" lon="10.621790777573644"><ele>72.5</ele><time>2026-04-16T16:28:36Z</time></trkpt><trkpt lat="43.58132379689644" lon="10.62169105547246"><ele>68.75</ele><time>2026-04-16T16:28:37Z</time></trkpt><trkpt lat="43.58128148818408" lon="10.62184011661128"><ele>65.0</ele><time>2026-04-16T16:28:38Z</time></trkpt><trkpt lat="43.58124333593536" lon="10.621975214529686"><ele>68.0</ele><time>2026-04-16T16:28:39Z</time></trkpt><trkpt lat="43.581126944732176" lon="10.622144103343718"><ele>71.0</ele><time>2026-04-16T16:29:39Z</time></trkpt><trkpt lat="43.58108590270968" lon="10.622242142545458"><ele>74.0</ele><time>2026-04-16T16:29:46Z</time></trkpt><trkpt lat="43.58101528538837" lon="10.622214136429253"><ele>77.0</ele><time>2026-04-16T16:29:54Z</time></trkpt><trkpt lat="43.58095130600565" lon="10.622188890388417"><ele>80.0</ele><time>2026-04-16T16:29:59Z</time></trkpt><trkpt lat="43.580890324780576" lon="10.622160434805627"><ele>80.0</ele><time>2026-04-16T16:30:06Z</time></trkpt><trkpt lat="43.58081829311088" lon="10.62212697603292"><ele>80.0</ele><time>2026-04-16T16:30:59Z</time></trkpt><trkpt lat="43.580883028556634" lon="10.62212575505881"><ele>80.0</ele><time>2026-04-16T16:43:11Z</time></trkpt><trkpt lat="43.580912533709295" lon="10.622209389716218"><ele>80.0</ele><time>2026-04-16T16:44:50Z</time></trkpt><trkpt lat="43.58098546427658" lon="10.622205003968395"><ele>80.0</ele><time>2026-04-16T16:44:58Z</time></trkpt><trkpt lat="43.58104784749327" lon="10.622238328534323"><ele>80.0</ele><time>2026-04-16T16:45:07Z</time></trkpt><trkpt lat="43.581114383404426" lon="10.622239807120522"><ele>80.0</ele><time>2026-04-16T16:45:19Z</time></trkpt><trkpt lat="43.5811637274177" lon="10.622301046681576"><ele>80.0</ele><time>2026-04-16T16:45:30Z</time></trkpt><trkpt lat="43.58122921630494" lon="10.622287059484906"><ele>80.0</ele><time>2026-04-16T16:45:36Z</time></trkpt><trkpt lat="43.581284477829584" lon="10.622331238350403"><ele>80.0</ele><time>2026-04-16T16:45:42Z</time></trkpt><trkpt lat="43.58131254627321" lon="10.62223936930865"><ele>80.0</ele><time>2026-04-16T16:45:48Z</time></trkpt><trkpt lat="43.58128810098164" lon="10.622146154525202"><ele>80.0</ele><time>2026-04-16T16:45:58Z</time></trkpt><trkpt lat="43.58124623500242" lon="10.622067206118484"><ele>80.0</ele><time>2026-04-16T16:46:27Z</time></trkpt><trkpt lat="43.58121626878261" lon="10.621988679937486"><ele>80.0</ele><time>2026-04-16T16:46:34Z</time></trkpt><trkpt lat="43.58116494788553" lon="10.62206699420889"><ele>80.0</ele><time>2026-04-16T16:46:43Z</time></trkpt><trkpt lat="43.58113782378717" lon="10.622162487795363"><ele>80.0</ele><time>2026-04-16T16:46:53Z</time></trkpt><trkpt lat="43.58104546066932" lon="10.622248830245312"><ele>80.0</ele><time>2026-04-16T16:46:54Z</time></trkpt><trkpt lat="43.581108505645396" lon="10.622220384685713"><ele>80.0</ele><time>2026-04-16T16:46:58Z</time></trkpt><trkpt lat="43.58126924701484" lon="10.62205073212786"><ele>80.0</ele><time>2026-04-16T16:48:07Z</time></trkpt><trkpt lat="43.58127164002253" lon="10.622163886371062"><ele>80.0</ele><time>2026-04-16T17:02:58.014Z</time></trkpt><trkpt lat="43.58124738632718" lon="10.622080518158134"><ele>80.0</ele><time>2026-04-16T17:03:00.015Z</time></trkpt><trkpt lat="43.5811841910902" lon="10.62207975076583"><ele>80.0</ele><time>2026-04-16T17:03:04.014Z</time></trkpt><trkpt lat="43.58111817383293" lon="10.622084834936727"><ele>80.0</ele><time>2026-04-16T17:03:07.015Z</time></trkpt><trkpt lat="43.58120507515325" lon="10.622146445885146"><ele>80.0</ele><time>2026-04-16T17:03:19.001Z</time></trkpt><trkpt lat="43.581301593231686" lon="10.622060107447586"><ele>77.0</ele><time>2026-04-16T17:03:30.001Z</time></trkpt><trkpt lat="43.58147739627152" lon="10.622074027273005"><ele>74.0</ele><time>2026-04-16T17:05:22.071Z</time></trkpt><trkpt lat="43.58137113707467" lon="10.622254032118535"><ele>71.0</ele><time>2026-04-16T17:05:23.066Z</time></trkpt><trkpt lat="43.58123842048524" lon="10.6221080727079"><ele>71.0</ele><time>2026-04-16T17:05:29Z</time></trkpt><trkpt lat="43.58118627982016" lon="10.622193277601065"><ele>71.0</ele><time>2026-04-16T17:05:31Z</time></trkpt><trkpt lat="43.58118747276504" lon="10.62230124471119"><ele>71.0</ele><time>2026-04-16T17:05:34Z</time></trkpt><trkpt lat="43.58137543835999" lon="10.622072382818505"><ele>71.0</ele><time>2026-04-16T17:05:36Z</time></trkpt><trkpt lat="43.58126709322419" lon="10.622093009105264"><ele>71.0</ele><time>2026-04-16T17:05:41Z</time></trkpt><trkpt lat="43.581190031265386" lon="10.622164042701797"><ele>71.0</ele><time>2026-04-16T17:05:44Z</time></trkpt><trkpt lat="43.58129321559016" lon="10.622158816303891"><ele>71.0</ele><time>2026-04-16T17:06:51Z</time></trkpt><trkpt lat="43.58126516049519" lon="10.622243457351164"><ele>71.0</ele><time>2026-04-16T17:10:34Z</time></trkpt><trkpt lat="43.58122954159147" lon="10.622166310698754"><ele>71.0</ele><time>2026-04-16T17:11:03Z</time></trkpt><trkpt lat="43.581171598072025" lon="10.62220911255644"><ele>71.0</ele><time>2026-04-16T17:11:15Z</time></trkpt><trkpt lat="43.581259736779714" lon="10.62207684913329"><ele>71.0</ele><time>2026-04-16T17:11:16Z</time></trkpt><trkpt lat="43.581251062841496" lon="10.62219734503015"><ele>71.0</ele><time>2026-04-16T17:11:24Z</time></trkpt><trkpt lat="43.58125944044753" lon="10.62206896033092"><ele>71.0</ele><time>2026-04-16T17:21:06Z</time></trkpt><trkpt lat="43.58127103640478" lon="10.622177625523955"><ele>71.0</ele><time>2026-04-16T17:21:13Z</time></trkpt><trkpt lat="43.581273544495545" lon="10.622282232657591"><ele>71.0</ele><time>2026-04-16T17:21:15Z</time></trkpt><trkpt lat="43.581332327896874" lon="10.622360066944884"><ele>71.0</ele><time>2026-04-16T17:21:18Z</time></trkpt><trkpt lat="43.58147473765636" lon="10.622574773746893"><ele>71.0</ele><time>2026-04-16T17:21:21Z</time></trkpt><trkpt lat="43.58134478511037" lon="10.622319961241097"><ele>71.0</ele><time>2026-04-16T17:21:52Z</time></trkpt><trkpt lat="43.58128926415474" lon="10.622219473686002"><ele>71.0</ele><time>2026-04-16T17:24:24.015Z</time></trkpt><trkpt lat="43.581238882202996" lon="10.622159369478752"><ele>71.0</ele><time>2026-04-16T17:39:28.995Z</time></trkpt><trkpt lat="43.58117510680915" lon="10.622180616997127"><ele>71.0</ele><time>2026-04-16T17:39:44.998Z</time></trkpt><trkpt lat="43.58113022559675" lon="10.622084875044484"><ele>71.0</ele><time>2026-04-16T17:40:08Z</time></trkpt><trkpt lat="43.58129188190093" lon="10.622181497985288"><ele>71.0</ele><time>2026-04-16T17:40:24Z</time></trkpt><trkpt lat="43.581361283628354" lon="10.622181139889758"><ele>71.0</ele><time>2026-04-16T17:41:41Z</time></trkpt><trkpt lat="43.58149802774176" lon="10.622180714601543"><ele>71.0</ele><time>2026-04-16T17:41:45Z</time></trkpt><trkpt lat="43.58140219308488" lon="10.622150511951897"><ele>71.0</ele><time>2026-04-16T17:42:31Z</time></trkpt><trkpt lat="43.58133911882427" lon="10.622292075476084"><ele>71.0</ele><time>2026-04-16T17:42:52Z</time></trkpt><trkpt lat="43.58124763346452" lon="10.622348333444291"><ele>71.0</ele><time>2026-04-16T17:42:58Z</time></trkpt><trkpt lat="43.581235949265356" lon="10.622255691518227"><ele>71.0</ele><time>2026-04-16T17:44:16.426Z</time></trkpt><trkpt lat="43.5812938455439" lon="10.622216319806196"><ele>71.0</ele><time>2026-04-16T17:44:46.001Z</time></trkpt><trkpt lat="43.581227436209225" lon="10.622255395948349"><ele>71.0</ele><time>2026-04-16T17:44:53.016Z</time></trkpt><trkpt lat="43.58130872111533" lon="10.622194888077406"><ele>71.0</ele><time>2026-04-16T17:45:24.011Z</time></trkpt><trkpt lat="43.58134181434665" lon="10.622291840020067"><ele>71.0</ele><time>2026-04-16T17:45:26.012Z</time></trkpt><trkpt lat="43.58137872549188" lon="10.622373951269818"><ele>71.0</ele><time>2026-04-16T17:45:28.015Z</time></trkpt><trkpt lat="43.58141748129776" lon="10.622470969834849"><ele>71.0</ele><time>2026-04-16T17:45:31.011Z</time></trkpt><trkpt lat="43.58146971682607" lon="10.622574174117382"><ele>71.0</ele><time>2026-04-16T17:45:34.011Z</time></trkpt><trkpt lat="43.58138128719103" lon="10.622434632631961"><ele>71.0</ele><time>2026-04-16T17:45:35.011Z</time></trkpt><trkpt lat="43.58122491766287" lon="10.622172718499202"><ele>71.0</ele><time>2026-04-16T17:45:46.672Z</time></trkpt><trkpt lat="43.581249248711075" lon="10.622063078288964"><ele>71.0</ele><time>2026-04-16T17:51:34.012Z</time></trkpt><trkpt lat="43.581427175932085" lon="10.621849849796787"><ele>71.0</ele><time>2026-04-16T17:55:07.059Z</time></trkpt><trkpt lat="43.581283076327686" lon="10.622089217638958"><ele>71.0</ele><time>2026-04-16T17:55:27.059Z</time></trkpt><trkpt lat="43.58126874569361" lon="10.622001502411452"><ele>71.0</ele><time>2026-04-16T17:58:52.015Z</time></trkpt><trkpt lat="43.58126352985727" lon="10.622119354017352"><ele>71.0</ele><time>2026-04-16T18:45:24.015Z</time></trkpt><trkpt lat="43.58144730789435" lon="10.622831857632976"><ele>71.0</ele><time>2026-04-16T19:00:07.018Z</time></trkpt><trkpt lat="43.58127084259625" lon="10.622148283630356"><ele>71.0</ele><time>2026-04-16T19:00:21.248Z</time></trkpt><trkpt lat="43.58123010054541" lon="10.621990462197061"><ele>71.0</ele><time>2026-04-16T19:12:46.7Z</time></trkpt><trkpt lat="43.58123903173101" lon="10.622198422741977"><ele>71.0</ele><time>2026-04-16T19:15:36.017Z</time></trkpt><trkpt lat="43.58113627067124" lon="10.622254017395083"><ele>71.0</ele><time>2026-04-16T19:16:32.011Z</time></trkpt><trkpt lat="43.580850599507215" lon="10.622434788566961"><ele>74.0</ele><time>2026-04-16T19:16:33.014Z</time></trkpt><trkpt lat="43.58066797984607" lon="10.622474449194687"><ele>77.0</ele><time>2026-04-16T19:16:34.014Z</time></trkpt><trkpt lat="43.58073691833226" lon="10.622423253735407"><ele>80.0</ele><time>2026-04-16T19:16:35.014Z</time></trkpt><trkpt lat="43.580554055089394" lon="10.622571973523739"><ele>76.66666666666667</ele><time>2026-04-16T19:16:37.005Z</time></trkpt><trkpt lat="43.58030827362158" lon="10.622818133864396"><ele>73.33333333333333</ele><time>2026-04-16T19:16:38.005Z</time></trkpt><trkpt lat="43.58017922538262" lon="10.622904907595354"><ele>70.0</ele><time>2026-04-16T19:16:39.005Z</time></trkpt><trkpt lat="43.58007451141021" lon="10.623008353071588"><ele>70.0</ele><time>2026-04-16T19:16:40.005Z</time></trkpt><trkpt lat="43.57996561311186" lon="10.623128358538855"><ele>70.0</ele><time>2026-04-16T19:16:42.004Z</time></trkpt><trkpt lat="43.58001807391638" lon="10.62307113911149"><ele>70.0</ele><time>2026-04-16T19:16:43.004Z</time></trkpt><trkpt lat="43.58019996875841" lon="10.622886990450901"><ele>70.0</ele><time>2026-04-16T19:16:45.004Z</time></trkpt><trkpt lat="43.58036131316765" lon="10.622767270941356"><ele>72.5</ele><time>2026-04-16T19:16:46.003Z</time></trkpt><trkpt lat="43.58047821039183" lon="10.62271964110717"><ele>75.0</ele><time>2026-04-16T19:16:49.003Z</time></trkpt><trkpt lat="43.58059202475129" lon="10.62265367600499"><ele>77.5</ele><time>2026-04-16T19:16:51.002Z</time></trkpt><trkpt lat="43.58067955093071" lon="10.622602947136096"><ele>80.0</ele><time>2026-04-16T19:16:53.002Z</time></trkpt><trkpt lat="43.58080443008695" lon="10.622530569045143"><ele>80.0</ele><time>2026-04-16T19:16:55.002Z</time></trkpt><trkpt lat="43.58099628054681" lon="10.622412676479723"><ele>80.0</ele><time>2026-04-16T19:16:58.002Z</time></trkpt><trkpt lat="43.581101340022" lon="10.622337068629703"><ele>80.0</ele><time>2026-04-16T19:17:01.001Z</time></trkpt><trkpt lat="43.581276630166755" lon="10.622185580245505"><ele>78.5</ele><time>2026-04-16T19:17:02.001Z</time></trkpt><trkpt lat="43.5813366195367" lon="10.622151810514953"><ele>77.0</ele><time>2026-04-16T19:25:52Z</time></trkpt><trkpt lat="43.581271233011556" lon="10.622161276875183"><ele>75.5</ele><time>2026-04-16T19:27:33.372Z</time></trkpt><trkpt lat="43.581366846088955" lon="10.622279950046009"><ele>74.0</ele><time>2026-04-16T19:35:16.015Z</time></trkpt><trkpt lat="43.58127053210911" lon="10.622310668411865"><ele>72.5</ele><time>2026-04-16T19:35:40.012Z</time></trkpt><trkpt lat="43.58127295521693" lon="10.622219240440781"><ele>71.0</ele><time>2026-04-16T19:36:23.015Z</time></trkpt><trkpt lat="43.58119281499034" lon="10.622268455564416"><ele>71.0</ele><time>2026-04-16T19:36:52.015Z</time></trkpt><trkpt lat="43.581266891332895" lon="10.622270575696115"><ele>71.0</ele><time>2026-04-16T19:37:40Z</time></trkpt><trkpt lat="43.581353890070325" lon="10.622396804993441"><ele>71.0</ele><time>2026-04-16T19:37:42Z</time></trkpt><trkpt lat="43.581370714412955" lon="10.622237202732585"><ele>71.0</ele><time>2026-04-16T19:37:54.999Z</time></trkpt><trkpt lat="43.581249793897754" lon="10.622252593220642"><ele>71.0</ele><time>2026-04-16T19:37:55.999Z</time></trkpt><trkpt lat="43.58123742446767" lon="10.622141052734923"><ele>72.5</ele><time>2026-04-16T19:38:05.999Z</time></trkpt><trkpt lat="43.58117057877406" lon="10.622171184359175"><ele>74.0</ele><time>2026-04-16T19:38:14.999Z</time></trkpt><trkpt lat="43.581015418020385" lon="10.62213321847205"><ele>75.5</ele><time>2026-04-16T19:38:17.999Z</time></trkpt><trkpt lat="43.58094340925002" lon="10.622102065877906"><ele>77.0</ele><time>2026-04-16T19:38:21.999Z</time></trkpt><trkpt lat="43.580981295874935" lon="10.62202132371717"><ele>78.5</ele><time>2026-04-16T19:38:26.063Z</time></trkpt><trkpt lat="43.581023024041805" lon="10.622094415594564"><ele>80.0</ele><time>2026-04-16T19:38:34.065Z</time></trkpt><trkpt lat="43.58102350631095" lon="10.622254614924415"><ele>80.0</ele><time>2026-04-16T19:38:37.067Z</time></trkpt><trkpt lat="43.58114370184042" lon="10.622256665269578"><ele>80.0</ele><time>2026-04-16T19:38:38.999Z</time></trkpt><trkpt lat="43.58118836144239" lon="10.622193374698261"><ele>80.0</ele><time>2026-04-16T19:38:40.999Z</time></trkpt><trkpt lat="43.58118038236129" lon="10.62209009088633"><ele>80.0</ele><time>2026-04-16T19:38:45.999Z</time></trkpt><trkpt lat="43.58120155222787" lon="10.622001115054767"><ele>80.0</ele><time>2026-04-16T19:38:49.999Z</time></trkpt><trkpt lat="43.58119943856707" lon="10.621911481974273"><ele>80.0</ele><time>2026-04-16T19:38:51.999Z</time></trkpt><trkpt lat="43.581181508131245" lon="10.621809128191764"><ele>78.2</ele><time>2026-04-16T19:38:52.999Z</time></trkpt><trkpt lat="43.581205468890666" lon="10.621989673087938"><ele>76.4</ele><time>2026-04-16T19:38:53.999Z</time></trkpt><trkpt lat="43.581232954998754" lon="10.622095473544453"><ele>74.6</ele><time>2026-04-16T19:38:56.999Z</time></trkpt><trkpt lat="43.581262875598604" lon="10.622182322481457"><ele>72.8</ele><time>2026-04-16T19:38:59.999Z</time></trkpt><trkpt lat="43.581238563197" lon="10.622069838914026"><ele>71.0</ele><time>2026-04-16T19:47:45.025Z</time></trkpt><trkpt lat="43.58137793507485" lon="10.622108403950921"><ele>71.0</ele><time>2026-04-16T19:50:49.012Z</time></trkpt><trkpt lat="43.58130322269225" lon="10.62211003884133"><ele>71.0</ele><time>2026-04-16T19:50:59.015Z</time></trkpt><trkpt lat="43.58123989480995" lon="10.622138169462906"><ele>71.0</ele><time>2026-04-16T19:51:14.015Z</time></trkpt><trkpt lat="43.58119050764134" lon="10.622205353404729"><ele>71.0</ele><time>2026-04-16T19:52:55.001Z</time></trkpt><trkpt lat="43.5812546557633" lon="10.622175344270268"><ele>71.0</ele><time>2026-04-16T19:54:06Z</time></trkpt><trkpt lat="43.58113521040069" lon="10.622284372626277"><ele>71.0</ele><time>2026-04-16T19:55:57Z</time></trkpt><trkpt lat="43.581261149189466" lon="10.622168757466719"><ele>71.0</ele><time>2026-04-16T19:56:27.013Z</time></trkpt><trkpt lat="43.581326826689455" lon="10.622091014949048"><ele>71.0</ele><time>2026-04-16T20:07:05Z</time></trkpt><trkpt lat="43.58123357098671" lon="10.622026965744908"><ele>71.0</ele><time>2026-04-16T20:09:13.976Z</time></trkpt><trkpt lat="43.581200623652606" lon="10.622105110158854"><ele>71.0</ele><time>2026-04-16T20:12:54.807Z</time></trkpt><trkpt lat="43.581118332189305" lon="10.622103741108408"><ele>71.0</ele><time>2026-04-16T20:13:05.012Z</time></trkpt><trkpt lat="43.581146900715204" lon="10.622224224782139"><ele>71.0</ele><time>2026-04-16T20:13:07Z</time></trkpt><trkpt lat="43.58122878229774" lon="10.622221572896203"><ele>71.0</ele><time>2026-04-16T20:13:11.001Z</time></trkpt><trkpt lat="43.58128703700089" lon="10.622337282173477"><ele>71.0</ele><time>2026-04-16T20:13:16Z</time></trkpt><trkpt lat="43.58124645538348" lon="10.62225864731284"><ele>71.0</ele><time>2026-04-16T20:13:29Z</time></trkpt><trkpt lat="43.581278889653056" lon="10.622155305485261"><ele>71.0</ele><time>2026-04-16T20:30:06Z</time></trkpt><trkpt lat="43.581342414768976" lon="10.62200973536305"><ele>71.0</ele><time>2026-04-17T01:31:32Z</time></trkpt><trkpt lat="43.58127309940506" lon="10.622104838789566"><ele>71.0</ele><time>2026-04-17T02:46:27Z</time></trkpt><trkpt lat="43.58125015413198" lon="10.622198175804785"><ele>71.0</ele><time>2026-04-17T02:46:50Z</time></trkpt><trkpt lat="43.58128110010895" lon="10.622283873768607"><ele>71.0</ele><time>2026-04-17T02:47:18Z</time></trkpt><trkpt lat="43.58122495931896" lon="10.622217405200939"><ele>71.0</ele><time>2026-04-17T02:47:32Z</time></trkpt><trkpt lat="43.58127694580579" lon="10.622305740623466"><ele>71.0</ele><time>2026-04-17T02:47:45Z</time></trkpt><trkpt lat="43.581224228825995" lon="10.622248078657913"><ele>71.0</ele><time>2026-04-17T02:48:00Z</time></trkpt><trkpt lat="43.58127645683772" lon="10.622198847895412"><ele>71.0</ele><time>2026-04-17T02:48:03Z</time></trkpt><trkpt lat="43.58120339345659" lon="10.6221414465238"><ele>71.0</ele><time>2026-04-17T02:48:18Z</time></trkpt><trkpt lat="43.58113803249435" lon="10.62211296015917"><ele>71.0</ele><time>2026-04-17T02:48:21Z</time></trkpt><trkpt lat="43.581291226944764" lon="10.622145110605691"><ele>71.0</ele><time>2026-04-17T02:48:30Z</time></trkpt><trkpt lat="43.581280205513806" lon="10.622361671271465"><ele>71.0</ele><time>2026-04-17T02:48:45Z</time></trkpt><trkpt lat="43.581271161333945" lon="10.622211612693183"><ele>71.0</ele><time>2026-04-17T02:48:49.063Z</time></trkpt><trkpt lat="43.58126826228104" lon="10.622112778920128"><ele>71.0</ele><time>2026-04-17T02:48:51.064Z</time></trkpt><trkpt lat="43.58122854081588" lon="10.62221417948799"><ele>71.0</ele><time>2026-04-17T03:13:24.002Z</time></trkpt><trkpt lat="43.58126361617403" lon="10.622136058874219"><ele>71.0</ele><time>2026-04-17T03:13:54Z</time></trkpt><trkpt lat="43.581289914695674" lon="10.622244470172227"><ele>71.0</ele><time>2026-04-17T03:35:50Z</time></trkpt><trkpt lat="43.58122718455909" lon="10.62219387526055"><ele>71.0</ele><time>2026-04-17T03:35:52Z</time></trkpt><trkpt lat="43.58127849573808" lon="10.622092920076524"><ele>71.0</ele><time>2026-04-17T03:35:56.063Z</time></trkpt><trkpt lat="43.58117626933612" lon="10.622025177023508"><ele>71.0</ele><time>2026-04-17T03:36:05.064Z</time></trkpt><trkpt lat="43.581115579197316" lon="10.622127291945592"><ele>71.0</ele><time>2026-04-17T03:36:25.049Z</time></trkpt><trkpt lat="43.58129614064874" lon="10.622218778552899"><ele>71.0</ele><time>2026-04-17T03:36:35Z</time></trkpt><trkpt lat="43.58121046095306" lon="10.622111008133844"><ele>71.0</ele><time>2026-04-17T03:36:39Z</time></trkpt><trkpt lat="43.581269995739596" lon="10.6221611431882"><ele>71.0</ele><time>2026-04-17T04:21:01.001Z</time></trkpt><trkpt lat="43.58133583838336" lon="10.622150430670672"><ele>71.0</ele><time>2026-04-17T04:21:05.001Z</time></trkpt><trkpt lat="43.581419286619905" lon="10.622123567959212"><ele>71.0</ele><time>2026-04-17T04:21:07.002Z</time></trkpt><trkpt lat="43.58128591145219" lon="10.621836206551825"><ele>71.0</ele><time>2026-04-17T04:30:34Z</time></trkpt><trkpt lat="43.58119751848305" lon="10.622384673388442"><ele>71.0</ele><time>2026-04-17T04:30:40Z</time></trkpt><trkpt lat="43.581222142214244" lon="10.622283774472772"><ele>71.0</ele><time>2026-04-17T04:30:42Z</time></trkpt><trkpt lat="43.58136754070996" lon="10.622277429280658"><ele>71.0</ele><time>2026-04-17T04:30:44.054Z</time></trkpt><trkpt lat="43.5812181165386" lon="10.622308029346824"><ele>71.0</ele><time>2026-04-17T04:31:01Z</time></trkpt><trkpt lat="43.581133086456326" lon="10.622244961025789"><ele>71.0</ele><time>2026-04-17T04:31:13Z</time></trkpt><trkpt lat="43.581198257818144" lon="10.622195273298852"><ele>71.0</ele><time>2026-04-17T04:31:14Z</time></trkpt><trkpt lat="43.58131698960997" lon="10.62221944488572"><ele>71.0</ele><time>2026-04-17T04:31:16Z</time></trkpt><trkpt lat="43.5812613814486" lon="10.62217868689008"><ele>71.0</ele><time>2026-04-17T04:31:26Z</time></trkpt><trkpt lat="43.58132646185692" lon="10.62220177165964"><ele>71.0</ele><time>2026-04-17T04:31:30Z</time></trkpt><trkpt lat="43.58119526246335" lon="10.622167327781522"><ele>71.0</ele><time>2026-04-17T04:31:38Z</time></trkpt><trkpt lat="43.580900076095936" lon="10.622088470773763"><ele>71.0</ele><time>2026-04-17T04:31:52Z</time></trkpt><trkpt lat="43.5812470316325" lon="10.622214146403115"><ele>71.0</ele><time>2026-04-17T04:31:57Z</time></trkpt><trkpt lat="43.58116917733987" lon="10.622199633603747"><ele>71.0</ele><time>2026-04-17T04:32:06Z</time></trkpt><trkpt lat="43.58109527998417" lon="10.622164693572397"><ele>71.0</ele><time>2026-04-17T04:32:10Z</time></trkpt><trkpt lat="43.58102893147412" lon="10.622141169218805"><ele>71.0</ele><time>2026-04-17T04:32:13Z</time></trkpt><trkpt lat="43.58112977335291" lon="10.622175427597455"><ele>71.0</ele><time>2026-04-17T04:32:17Z</time></trkpt><trkpt lat="43.58122524722612" lon="10.62214130426762"><ele>71.0</ele><time>2026-04-17T04:32:23Z</time></trkpt><trkpt lat="43.58134347849592" lon="10.622186954138993"><ele>71.0</ele><time>2026-04-17T04:32:31Z</time></trkpt><trkpt lat="43.581320604724006" lon="10.622042482827197"><ele>71.0</ele><time>2026-04-17T04:32:35Z</time></trkpt><trkpt lat="43.58125795684156" lon="10.62208837334116"><ele>71.0</ele><time>2026-04-17T04:32:43Z</time></trkpt><trkpt lat="43.581206131021375" lon="10.622221622537127"><ele>71.0</ele><time>2026-04-17T04:32:45.055Z</time></trkpt><trkpt lat="43.581193516359214" lon="10.62239345914613"><ele>71.0</ele><time>2026-04-17T04:32:46.054Z</time></trkpt><trkpt lat="43.581250962163594" lon="10.622329828723428"><ele>71.0</ele><time>2026-04-17T04:32:53.058Z</time></trkpt><trkpt lat="43.581715338533684" lon="10.622751223909257"><ele>71.0</ele><time>2026-04-17T04:33:05.053Z</time></trkpt><trkpt lat="43.58187456872591" lon="10.622921643622822"><ele>71.0</ele><time>2026-04-17T04:33:06.057Z</time></trkpt><trkpt lat="43.58122901165142" lon="10.622191468675743"><ele>71.0</ele><time>2026-04-17T04:33:11.57Z</time></trkpt><trkpt lat="43.58150128985803" lon="10.622437986354358"><ele>71.0</ele><time>2026-04-17T04:33:27.016Z</time></trkpt><trkpt lat="43.58127542104415" lon="10.622220512963159"><ele>71.0</ele><time>2026-04-17T04:33:42.008Z</time></trkpt><trkpt lat="43.58121821310567" lon="10.622159969963645"><ele>71.0</ele><time>2026-04-17T04:33:48.006Z</time></trkpt><trkpt lat="43.58127643905967" lon="10.622112662300037"><ele>71.0</ele><time>2026-04-17T07:25:07Z</time></trkpt><trkpt lat="43.581221482156266" lon="10.622165837210108"><ele>71.0</ele><time>2026-04-17T08:02:45Z</time></trkpt><trkpt lat="43.58128414000429" lon="10.622180065942358"><ele>71.0</ele><time>2026-04-17T08:19:26Z</time></trkpt><trkpt lat="43.58127287765312" lon="10.62208784845834"><ele>71.0</ele><time>2026-04-17T08:25:33Z</time></trkpt><trkpt lat="43.5812910274261" lon="10.622198681958904"><ele>71.0</ele><time>2026-04-17T08:27:29Z</time></trkpt><trkpt lat="43.58124799253874" lon="10.622068471653348"><ele>71.0</ele><time>2026-04-17T08:38:37Z</time></trkpt><trkpt lat="43.58127946136283" lon="10.622144754328248"><ele>71.0</ele><time>2026-04-17T08:40:35.001Z</time></trkpt><trkpt lat="43.58124856342296" lon="10.622226826097503"><ele>71.0</ele><time>2026-04-17T08:45:58Z</time></trkpt><trkpt lat="43.58130267656467" lon="10.622272638982889"><ele>71.0</ele><time>2026-04-17T08:46:11Z</time></trkpt><trkpt lat="43.58124935230627" lon="10.622401308622191"><ele>71.0</ele><time>2026-04-17T08:46:18Z</time></trkpt><trkpt lat="43.58120478637341" lon="10.622313954499088"><ele>71.0</ele><time>2026-04-17T08:46:20Z</time></trkpt><trkpt lat="43.581298325923996" lon="10.622315229256445"><ele>71.0</ele><time>2026-04-17T08:46:29Z</time></trkpt><trkpt lat="43.58130955403241" lon="10.622223063778964"><ele>71.0</ele><time>2026-04-17T08:46:33Z</time></trkpt><trkpt lat="43.581300336690255" lon="10.622132164992221"><ele>71.0</ele><time>2026-04-17T08:46:40Z</time></trkpt><trkpt lat="43.58126804029181" lon="10.622035057407835"><ele>71.0</ele><time>2026-04-17T08:46:53Z</time></trkpt><trkpt lat="43.58124872078043" lon="10.621944451417235"><ele>71.0</ele><time>2026-04-17T08:47:01Z</time></trkpt><trkpt lat="43.58131016612567" lon="10.622046388149272"><ele>71.0</ele><time>2026-04-17T08:47:06Z</time></trkpt><trkpt lat="43.58122599619373" lon="10.622025712570357"><ele>71.5</ele><time>2026-04-17T08:48:23Z</time></trkpt><trkpt lat="43.58114878499205" lon="10.622038397911277"><ele>72.0</ele><time>2026-04-17T08:48:36Z</time></trkpt><trkpt lat="43.58107348359907" lon="10.622034237581284"><ele>72.5</ele><time>2026-04-17T08:50:04Z</time></trkpt><trkpt lat="43.58093462759577" lon="10.621774159141134"><ele>73.0</ele><time>2026-04-17T08:50:19Z</time></trkpt><trkpt lat="43.58100164926747" lon="10.62208107598895"><ele>74.4</ele><time>2026-04-17T08:51:06Z</time></trkpt><trkpt lat="43.58112753089111" lon="10.62205952711925"><ele>75.8</ele><time>2026-04-17T08:52:31Z</time></trkpt><trkpt lat="43.58101843671878" lon="10.622042612098099"><ele>77.2</ele><time>2026-04-17T08:52:40.055Z</time></trkpt><trkpt lat="43.58101136879338" lon="10.622183106996346"><ele>78.6</ele><time>2026-04-17T08:52:47Z</time></trkpt><trkpt lat="43.581070670349526" lon="10.622144788166004"><ele>80.0</ele><time>2026-04-17T08:52:59Z</time></trkpt><trkpt lat="43.58101127690597" lon="10.622181817289835"><ele>80.0</ele><time>2026-04-17T08:54:43.053Z</time></trkpt><trkpt lat="43.581181298974414" lon="10.62210683656252"><ele>80.0</ele><time>2026-04-17T08:56:12.026Z</time></trkpt><trkpt lat="43.58121397843617" lon="10.622009555668857"><ele>80.0</ele><time>2026-04-17T08:57:01.025Z</time></trkpt><trkpt lat="43.581213322638035" lon="10.621919631348502"><ele>80.0</ele><time>2026-04-17T08:57:08.024Z</time></trkpt><trkpt lat="43.58121584763654" lon="10.622110223764722"><ele>80.0</ele><time>2026-04-17T08:57:32.01Z</time></trkpt><trkpt lat="43.58116862858667" lon="10.6222247092237"><ele>80.0</ele><time>2026-04-17T08:57:35.012Z</time></trkpt><trkpt lat="43.5811553328676" lon="10.622318691203779"><ele>80.0</ele><time>2026-04-17T08:57:39.015Z</time></trkpt><trkpt lat="43.58122744677459" lon="10.622223221856988"><ele>80.0</ele><time>2026-04-17T08:57:50Z</time></trkpt><trkpt lat="43.58126545052068" lon="10.622144764864325"><ele>80.0</ele><time>2026-04-17T08:58:27Z</time></trkpt><trkpt lat="43.581227149646054" lon="10.622215582527495"><ele>80.0</ele><time>2026-04-17T09:03:04Z</time></trkpt><trkpt lat="43.58116541192654" lon="10.622169531211197"><ele>80.0</ele><time>2026-04-17T09:03:19Z</time></trkpt><trkpt lat="43.58116736087164" lon="10.622054660033458"><ele>80.0</ele><time>2026-04-17T09:03:26Z</time></trkpt><trkpt lat="43.58112239640005" lon="10.622127519037164"><ele>80.0</ele><time>2026-04-17T09:03:38Z</time></trkpt><trkpt lat="43.58108024258353" lon="10.622206798848525"><ele>80.0</ele><time>2026-04-17T09:03:40Z</time></trkpt><trkpt lat="43.58114805276418" lon="10.622194368522413"><ele>80.0</ele><time>2026-04-17T09:03:44Z</time></trkpt><trkpt lat="43.5812215795083" lon="10.622162869537677"><ele>80.0</ele><time>2026-04-17T09:04:05Z</time></trkpt><trkpt lat="43.58130791995973" lon="10.622158472742145"><ele>78.5</ele><time>2026-04-17T09:04:07Z</time></trkpt><trkpt lat="43.58138749582502" lon="10.622118126102874"><ele>77.0</ele><time>2026-04-17T09:04:14Z</time></trkpt><trkpt lat="43.58148083420833" lon="10.622090239578824"><ele>75.5</ele><time>2026-04-17T09:04:17Z</time></trkpt><trkpt lat="43.58151751097378" lon="10.622003011939666"><ele>74.0</ele><time>2026-04-17T09:04:20Z</time></trkpt><trkpt lat="43.5815773019677" lon="10.62203598088404"><ele>72.5</ele><time>2026-04-17T09:04:21.999Z</time></trkpt><trkpt lat="43.5816747958665" lon="10.622057960505344"><ele>71.0</ele><time>2026-04-17T09:04:25Z</time></trkpt><trkpt lat="43.58203432297011" lon="10.62212092474956"><ele>71.0</ele><time>2026-04-17T09:04:30Z</time></trkpt><trkpt lat="43.58209766876953" lon="10.622212170977775"><ele>71.0</ele><time>2026-04-17T09:04:32Z</time></trkpt><trkpt lat="43.582224884324816" lon="10.622453699735381"><ele>71.0</ele><time>2026-04-17T09:04:35Z</time></trkpt><trkpt lat="43.58224160784499" lon="10.622593551620039"><ele>71.0</ele><time>2026-04-17T09:04:36Z</time></trkpt><trkpt lat="43.581974600345376" lon="10.622517009097296"><ele>71.0</ele><time>2026-04-17T09:04:40Z</time></trkpt><trkpt lat="43.58190389459001" lon="10.622456839655692"><ele>71.0</ele><time>2026-04-17T09:04:44Z</time></trkpt><trkpt lat="43.58183788278758" lon="10.622445644635096"><ele>71.0</ele><time>2026-04-17T09:04:47Z</time></trkpt><trkpt lat="43.58171796314758" lon="10.622350964708199"><ele>71.0</ele><time>2026-04-17T09:04:49Z</time></trkpt><trkpt lat="43.58171801153635" lon="10.622223640291358"><ele>71.0</ele><time>2026-04-17T09:04:51Z</time></trkpt><trkpt lat="43.58178557186394" lon="10.6221919816042"><ele>71.0</ele><time>2026-04-17T09:04:52Z</time></trkpt><trkpt lat="43.581682522819825" lon="10.622221973778158"><ele>71.0</ele><time>2026-04-17T09:04:53Z</time></trkpt><trkpt lat="43.58154678951268" lon="10.622153015228621"><ele>71.0</ele><time>2026-04-17T09:04:54Z</time></trkpt><trkpt lat="43.581414882547186" lon="10.622147361423984"><ele>71.0</ele><time>2026-04-17T09:04:59Z</time></trkpt><trkpt lat="43.5813288436437" lon="10.622149498632165"><ele>71.0</ele><time>2026-04-17T09:05:01Z</time></trkpt><trkpt lat="43.581243752501486" lon="10.622153127080116"><ele>71.0</ele><time>2026-04-17T09:05:03Z</time></trkpt><trkpt lat="43.5811337408808" lon="10.62218735966743"><ele>71.0</ele><time>2026-04-17T09:09:53.057Z</time></trkpt><trkpt lat="43.58127286370102" lon="10.622158084093698"><ele>71.0</ele><time>2026-04-17T09:22:48.011Z</time></trkpt><trkpt lat="43.58123878421945" lon="10.621987424798604"><ele>71.0</ele><time>2026-04-17T09:43:51.523Z</time></trkpt><trkpt lat="43.581255715478946" lon="10.622071274536632"><ele>71.0</ele><time>2026-04-17T09:51:10.991Z</time></trkpt><trkpt lat="43.58127410615603" lon="10.622162161691714"><ele>71.0</ele><time>2026-04-17T09:51:19.007Z</time></trkpt><trkpt lat="43.58123728093027" lon="10.621980142467226"><ele>71.0</ele><time>2026-04-17T10:16:14.985Z</time></trkpt><trkpt lat="43.58122788142809" lon="10.622085052419663"><ele>71.0</ele><time>2026-04-17T10:19:42.985Z</time></trkpt><trkpt lat="43.581219269366116" lon="10.62218117359123"><ele>71.0</ele><time>2026-04-17T10:19:47.085Z</time></trkpt><trkpt lat="43.58123076595033" lon="10.622053021367904"><ele>71.0</ele><time>2026-04-17T10:20:59.984Z</time></trkpt><trkpt lat="43.58121944235539" lon="10.622179070017616"><ele>71.0</ele><time>2026-04-17T10:27:15.618Z</time></trkpt><trkpt lat="43.58122804183714" lon="10.622083260584184"><ele>71.0</ele><time>2026-04-17T10:28:25.994Z</time></trkpt><trkpt lat="43.581237184180715" lon="10.621981222277656"><ele>71.0</ele><time>2026-04-17T10:28:31.983Z</time></trkpt><trkpt lat="43.58123995356944" lon="10.622173067713065"><ele>71.0</ele><time>2026-04-17T10:30:12.511Z</time></trkpt><trkpt lat="43.58102420012503" lon="10.622180307168692"><ele>71.0</ele><time>2026-04-17T10:30:13.968Z</time></trkpt><trkpt lat="43.58131301839113" lon="10.62216365893129"><ele>71.0</ele><time>2026-04-17T10:30:22.033Z</time></trkpt><trkpt lat="43.58125140439532" lon="10.622197409155756"><ele>71.0</ele><time>2026-04-17T10:30:37.98Z</time></trkpt><trkpt lat="43.58105360816098" lon="10.622186216684382"><ele>71.0</ele><time>2026-04-17T10:30:39.96Z</time></trkpt><trkpt lat="43.58126820017485" lon="10.622171465430059"><ele>71.0</ele><time>2026-04-17T10:30:46.658Z</time></trkpt><trkpt lat="43.5812092299844" lon="10.622207320816138"><ele>71.0</ele><time>2026-04-17T10:47:10Z</time></trkpt><trkpt lat="43.581277540006916" lon="10.622151707979695"><ele>71.0</ele><time>2026-04-17T11:09:02.562Z</time></trkpt><trkpt lat="43.58134978803725" lon="10.622060085711714"><ele>71.0</ele><time>2026-04-17T11:09:06.013Z</time></trkpt><trkpt lat="43.58127343050623" lon="10.622136913207589"><ele>71.0</ele><time>2026-04-17T11:13:59Z</time></trkpt><trkpt lat="43.58118875983887" lon="10.622184969852844"><ele>71.0</ele><time>2026-04-17T11:14:43Z</time></trkpt><trkpt lat="43.58119769862619" lon="10.622077612042764"><ele>71.0</ele><time>2026-04-17T11:15:28Z</time></trkpt><trkpt lat="43.5812665960282" lon="10.62201437196914"><ele>71.0</ele><time>2026-04-17T11:15:35Z</time></trkpt><trkpt lat="43.581369582048474" lon="10.622051349414885"><ele>71.0</ele><time>2026-04-17T11:15:44Z</time></trkpt><trkpt lat="43.58146229763418" lon="10.621985358993689"><ele>71.0</ele><time>2026-04-17T11:15:51Z</time></trkpt><trkpt lat="43.581500783194386" lon="10.621902177895127"><ele>71.0</ele><time>2026-04-17T11:15:54Z</time></trkpt><trkpt lat="43.58154722701008" lon="10.621833863083527"><ele>71.0</ele><time>2026-04-17T11:15:56Z</time></trkpt><trkpt lat="43.58162543738523" lon="10.622175319166937"><ele>71.0</ele><time>2026-04-17T11:16:07Z</time></trkpt><trkpt lat="43.581525402372854" lon="10.622073824592164"><ele>71.0</ele><time>2026-04-17T11:16:46.065Z</time></trkpt><trkpt lat="43.5813232237661" lon="10.62208042455296"><ele>71.0</ele><time>2026-04-17T11:16:55.061Z</time></trkpt><trkpt lat="43.58126741553562" lon="10.622172576058846"><ele>71.0</ele><time>2026-04-17T11:33:12Z</time></trkpt><trkpt lat="43.58115955180561" lon="10.62210021080475"><ele>71.0</ele><time>2026-04-17T11:36:28.015Z</time></trkpt><trkpt lat="43.581254834097834" lon="10.622075913837895"><ele>71.0</ele><time>2026-04-17T11:36:49Z</time></trkpt><trkpt lat="43.58123373332156" lon="10.62216389518824"><ele>71.0</ele><time>2026-04-17T11:37:02Z</time></trkpt><trkpt lat="43.58125489344936" lon="10.62228027940338"><ele>71.0</ele><time>2026-04-17T11:37:07Z</time></trkpt><trkpt lat="43.58119705536133" lon="10.622318650390959"><ele>71.0</ele><time>2026-04-17T11:37:11Z</time></trkpt><trkpt lat="43.5811433875755" lon="10.62237824545864"><ele>71.0</ele><time>2026-04-17T11:37:18Z</time></trkpt><trkpt lat="43.58116610019688" lon="10.622472420153462"><ele>71.0</ele><time>2026-04-17T11:37:21Z</time></trkpt><trkpt lat="43.581170671716976" lon="10.622579619286732"><ele>71.0</ele><time>2026-04-17T11:37:26Z</time></trkpt><trkpt lat="43.58121059589386" lon="10.622651228052662"><ele>71.0</ele><time>2026-04-17T11:37:30Z</time></trkpt><trkpt lat="43.581268121549606" lon="10.622695568504819"><ele>71.0</ele><time>2026-04-17T11:37:44Z</time></trkpt><trkpt lat="43.581331198900465" lon="10.622703593600423"><ele>71.0</ele><time>2026-04-17T11:39:17Z</time></trkpt><trkpt lat="43.58126546747239" lon="10.62273772617582"><ele>71.0</ele><time>2026-04-17T11:39:26Z</time></trkpt><trkpt lat="43.581256004239904" lon="10.622646595316821"><ele>71.0</ele><time>2026-04-17T11:39:32Z</time></trkpt><trkpt lat="43.58121780723762" lon="10.622725589506642"><ele>70.83333333333334</ele><time>2026-04-17T11:40:15Z</time></trkpt><trkpt lat="43.581149500656466" lon="10.622770407050895"><ele>70.66666666666667</ele><time>2026-04-17T11:40:20Z</time></trkpt><trkpt lat="43.58108345288934" lon="10.622796156608718"><ele>70.5</ele><time>2026-04-17T11:40:24Z</time></trkpt><trkpt lat="43.58101428544461" lon="10.622840394056636"><ele>70.33333333333333</ele><time>2026-04-17T11:40:29Z</time></trkpt><trkpt lat="43.58093889131795" lon="10.622851632637701"><ele>70.16666666666666</ele><time>2026-04-17T11:40:33Z</time></trkpt><trkpt lat="43.58087249734872" lon="10.62281284204185"><ele>70.0</ele><time>2026-04-17T11:40:36Z</time></trkpt><trkpt lat="43.58079316216378" lon="10.622778891894136"><ele>70.0</ele><time>2026-04-17T11:40:39Z</time></trkpt><trkpt lat="43.58073163700885" lon="10.622741368708704"><ele>70.0</ele><time>2026-04-17T11:40:41Z</time></trkpt><trkpt lat="43.580656608670054" lon="10.62271001756948"><ele>70.0</ele><time>2026-04-17T11:40:44Z</time></trkpt><trkpt lat="43.58057570017281" lon="10.622714360352056"><ele>70.0</ele><time>2026-04-17T11:40:48Z</time></trkpt><trkpt lat="43.5805026677496" lon="10.622735279723202"><ele>70.0</ele><time>2026-04-17T11:40:51Z</time></trkpt><trkpt lat="43.5804115072661" lon="10.62277860930219"><ele>70.0</ele><time>2026-04-17T11:40:54Z</time></trkpt><trkpt lat="43.580331804662364" lon="10.622817439954062"><ele>70.0</ele><time>2026-04-17T11:40:56Z</time></trkpt><trkpt lat="43.58026345745993" lon="10.62287033339012"><ele>70.0</ele><time>2026-04-17T11:40:58Z</time></trkpt><trkpt lat="43.580192637144755" lon="10.622923966622235"><ele>70.0</ele><time>2026-04-17T11:41:00Z</time></trkpt><trkpt lat="43.58012683827539" lon="10.622978990224631"><ele>70.0</ele><time>2026-04-17T11:41:02Z</time></trkpt><trkpt lat="43.58007063327672" lon="10.62303612121425"><ele>70.0</ele><time>2026-04-17T11:41:04Z</time></trkpt><trkpt lat="43.58001501765446" lon="10.623096520259224"><ele>70.0</ele><time>2026-04-17T11:41:06Z</time></trkpt><trkpt lat="43.579955428398414" lon="10.623153349010114"><ele>70.0</ele><time>2026-04-17T11:41:08Z</time></trkpt><trkpt lat="43.57989938606589" lon="10.623211903096058"><ele>70.0</ele><time>2026-04-17T11:41:11Z</time></trkpt><trkpt lat="43.579817065072454" lon="10.623271269258336"><ele>70.0</ele><time>2026-04-17T11:41:14Z</time></trkpt><trkpt lat="43.57975251312588" lon="10.623292690618223"><ele>70.0</ele><time>2026-04-17T11:41:16Z</time></trkpt><trkpt lat="43.57969222548189" lon="10.623319563885094"><ele>70.0</ele><time>2026-04-17T11:41:18Z</time></trkpt><trkpt lat="43.57961298456888" lon="10.6233628071877"><ele>70.0</ele><time>2026-04-17T11:41:21Z</time></trkpt><trkpt lat="43.579534745803194" lon="10.623367531502149"><ele>70.0</ele><time>2026-04-17T11:41:24Z</time></trkpt><trkpt lat="43.57947147879627" lon="10.623368316245626"><ele>70.0</ele><time>2026-04-17T11:41:26Z</time></trkpt><trkpt lat="43.579384426939484" lon="10.62336384251597"><ele>71.0</ele><time>2026-04-17T11:41:29Z</time></trkpt><trkpt lat="43.579292388467955" lon="10.62334763762935"><ele>72.0</ele><time>2026-04-17T11:41:31Z</time></trkpt><trkpt lat="43.57916684081851" lon="10.623323341722179"><ele>73.0</ele><time>2026-04-17T11:41:32Z</time></trkpt><trkpt lat="43.57909256875889" lon="10.623368841430649"><ele>74.0</ele><time>2026-04-17T11:41:36Z</time></trkpt><trkpt lat="43.57905759132983" lon="10.623504681872415"><ele>75.0</ele><time>2026-04-17T11:41:38Z</time></trkpt><trkpt lat="43.579034349031296" lon="10.623631531294858"><ele>73.8</ele><time>2026-04-17T11:41:39Z</time></trkpt><trkpt lat="43.578989983244746" lon="10.623798123506175"><ele>72.6</ele><time>2026-04-17T11:41:40Z</time></trkpt><trkpt lat="43.57896194361291" lon="10.62394155296917"><ele>71.4</ele><time>2026-04-17T11:41:41Z</time></trkpt><trkpt lat="43.578925027987765" lon="10.62406393135279"><ele>70.2</ele><time>2026-04-17T11:41:42Z</time></trkpt><trkpt lat="43.57889191066012" lon="10.624169725646308"><ele>69.0</ele><time>2026-04-17T11:41:43Z</time></trkpt><trkpt lat="43.57886615231481" lon="10.624300242819219"><ele>69.0</ele><time>2026-04-17T11:41:59Z</time></trkpt><trkpt lat="43.57884117874234" lon="10.624459810575464"><ele>69.0</ele><time>2026-04-17T11:42:01Z</time></trkpt><trkpt lat="43.57883427223913" lon="10.624549495262757"><ele>69.0</ele><time>2026-04-17T11:42:02Z</time></trkpt><trkpt lat="43.57882739664719" lon="10.624651945370896"><ele>69.0</ele><time>2026-04-17T11:42:04Z</time></trkpt><trkpt lat="43.578832862749145" lon="10.62475127758473"><ele>69.0</ele><time>2026-04-17T11:42:06Z</time></trkpt><trkpt lat="43.578854296573624" lon="10.624893964967363"><ele>69.0</ele><time>2026-04-17T11:42:08Z</time></trkpt><trkpt lat="43.57887793997545" lon="10.624974700415388"><ele>67.83333333333333</ele><time>2026-04-17T11:42:09Z</time></trkpt><trkpt lat="43.57890615746745" lon="10.62505809733167"><ele>66.66666666666667</ele><time>2026-04-17T11:42:10Z</time></trkpt><trkpt lat="43.57892268463752" lon="10.625162886462652"><ele>65.5</ele><time>2026-04-17T11:42:11Z</time></trkpt><trkpt lat="43.57895284617279" lon="10.625261392759274"><ele>64.33333333333334</ele><time>2026-04-17T11:42:12Z</time></trkpt><trkpt lat="43.57899715392959" lon="10.625359491804979"><ele>63.16666666666667</ele><time>2026-04-17T11:42:13Z</time></trkpt><trkpt lat="43.57901799204107" lon="10.625480940192826"><ele>62.0</ele><time>2026-04-17T11:42:14Z</time></trkpt><trkpt lat="43.579024056223986" lon="10.625594884575106"><ele>60.6</ele><time>2026-04-17T11:42:15Z</time></trkpt><trkpt lat="43.5790322949716" lon="10.625727409291706"><ele>59.2</ele><time>2026-04-17T11:42:16Z</time></trkpt><trkpt lat="43.579035171907115" lon="10.62586016512774"><ele>57.8</ele><time>2026-04-17T11:42:17Z</time></trkpt><trkpt lat="43.57903430102856" lon="10.6260116312904"><ele>56.4</ele><time>2026-04-17T11:42:18Z</time></trkpt><trkpt lat="43.57904355944737" lon="10.626144181335858"><ele>55.0</ele><time>2026-04-17T11:42:19Z</time></trkpt><trkpt lat="43.57903062308985" lon="10.626273115556312"><ele>53.99999999999999</ele><time>2026-04-17T11:42:20Z</time></trkpt><trkpt lat="43.57901677968558" lon="10.626405048932636"><ele>53.0</ele><time>2026-04-17T11:42:21Z</time></trkpt><trkpt lat="43.579003931594386" lon="10.62651530754904"><ele>52.0</ele><time>2026-04-17T11:42:23Z</time></trkpt><trkpt lat="43.5790243956486" lon="10.626667159335373"><ele>51.0</ele><time>2026-04-17T11:42:25Z</time></trkpt><trkpt lat="43.57904969378472" lon="10.62676084555083"><ele>49.99999999999999</ele><time>2026-04-17T11:42:26Z</time></trkpt><trkpt lat="43.579087048103" lon="10.626858425675682"><ele>49.0</ele><time>2026-04-17T11:42:27Z</time></trkpt><trkpt lat="43.579123499478236" lon="10.626968766855645"><ele>47.400000000000006</ele><time>2026-04-17T11:42:28Z</time></trkpt><trkpt lat="43.57915766582436" lon="10.627088547763625"><ele>45.8</ele><time>2026-04-17T11:42:29Z</time></trkpt><trkpt lat="43.579191935601415" lon="10.627219184163435"><ele>44.2</ele><time>2026-04-17T11:42:30Z</time></trkpt><trkpt lat="43.57922970544936" lon="10.627357595637434"><ele>42.599999999999994</ele><time>2026-04-17T11:42:31Z</time></trkpt><trkpt lat="43.57926799867515" lon="10.627493112243938"><ele>41.0</ele><time>2026-04-17T11:42:32Z</time></trkpt><trkpt lat="43.57930654931183" lon="10.62762726710007"><ele>41.0</ele><time>2026-04-17T11:42:33Z</time></trkpt><trkpt lat="43.579345663337705" lon="10.627763193649814"><ele>41.0</ele><time>2026-04-17T11:42:34Z</time></trkpt><trkpt lat="43.57938731141217" lon="10.627904238763607"><ele>41.0</ele><time>2026-04-17T11:42:35Z</time></trkpt><trkpt lat="43.57942982941012" lon="10.628048919221326"><ele>41.0</ele><time>2026-04-17T11:42:36Z</time></trkpt><trkpt lat="43.57947068374351" lon="10.628191151787012"><ele>41.0</ele><time>2026-04-17T11:42:37Z</time></trkpt><trkpt lat="43.57950825884034" lon="10.628322249272447"><ele>40.0</ele><time>2026-04-17T11:42:38Z</time></trkpt><trkpt lat="43.579542846236265" lon="10.628442708144753"><ele>39.0</ele><time>2026-04-17T11:42:39Z</time></trkpt><trkpt lat="43.579571552869915" lon="10.628574746610337"><ele>38.0</ele><time>2026-04-17T11:42:40Z</time></trkpt><trkpt lat="43.57958937144694" lon="10.628710110496328"><ele>37.0</ele><time>2026-04-17T11:42:41Z</time></trkpt><trkpt lat="43.57959473246051" lon="10.628842850381124"><ele>36.0</ele><time>2026-04-17T11:42:42Z</time></trkpt><trkpt lat="43.57959424237286" lon="10.628955889411792"><ele>35.6</ele><time>2026-04-17T11:42:43Z</time></trkpt><trkpt lat="43.57959957694763" lon="10.629090887034035"><ele>35.2</ele><time>2026-04-17T11:42:45Z</time></trkpt><trkpt lat="43.579592270829934" lon="10.629188373148574"><ele>34.8</ele><time>2026-04-17T11:43:00Z</time></trkpt><trkpt lat="43.57970500427472" lon="10.62921070155711"><ele>34.4</ele><time>2026-04-17T11:43:01Z</time></trkpt><trkpt lat="43.57980342301174" lon="10.629237631088731"><ele>34.0</ele><time>2026-04-17T11:43:02Z</time></trkpt><trkpt lat="43.57993914239998" lon="10.629267761705384"><ele>34.0</ele><time>2026-04-17T11:43:03Z</time></trkpt><trkpt lat="43.58006616076739" lon="10.629295960642466"><ele>34.0</ele><time>2026-04-17T11:43:04Z</time></trkpt><trkpt lat="43.580194374884634" lon="10.629324425038867"><ele>34.0</ele><time>2026-04-17T11:43:05Z</time></trkpt><trkpt lat="43.58031018306809" lon="10.629350135234453"><ele>34.0</ele><time>2026-04-17T11:43:06Z</time></trkpt><trkpt lat="43.580410088655896" lon="10.629350070559635"><ele>34.16666666666667</ele><time>2026-04-17T11:43:07Z</time></trkpt><trkpt lat="43.58048448497515" lon="10.629373710412445"><ele>34.333333333333336</ele><time>2026-04-17T11:43:08Z</time></trkpt><trkpt lat="43.58055063283322" lon="10.629384450070328"><ele>34.5</ele><time>2026-04-17T11:43:09Z</time></trkpt><trkpt lat="43.580613146197265" lon="10.629401156380064"><ele>34.666666666666664</ele><time>2026-04-17T11:43:10Z</time></trkpt><trkpt lat="43.58068819563225" lon="10.629416132698656"><ele>34.83333333333333</ele><time>2026-04-17T11:43:11Z</time></trkpt><trkpt lat="43.58077345963948" lon="10.629434341991027"><ele>35.0</ele><time>2026-04-17T11:43:12Z</time></trkpt><trkpt lat="43.58086320805244" lon="10.629455220246678"><ele>35.0</ele><time>2026-04-17T11:43:13Z</time></trkpt><trkpt lat="43.58095174256697" lon="10.629475426047584"><ele>35.0</ele><time>2026-04-17T11:43:14Z</time></trkpt><trkpt lat="43.5810349122039" lon="10.629494828651442"><ele>35.0</ele><time>2026-04-17T11:43:15Z</time></trkpt><trkpt lat="43.58111451298967" lon="10.629510827783296"><ele>35.0</ele><time>2026-04-17T11:43:16Z</time></trkpt><trkpt lat="43.58117928096911" lon="10.62952544656694"><ele>35.0</ele><time>2026-04-17T11:43:17Z</time></trkpt><trkpt lat="43.58129840938403" lon="10.629550716273396"><ele>35.0</ele><time>2026-04-17T11:43:19Z</time></trkpt><trkpt lat="43.581362205040996" lon="10.62956442724994"><ele>34.666666666666664</ele><time>2026-04-17T11:43:20Z</time></trkpt><trkpt lat="43.58143536523918" lon="10.629581514238016"><ele>34.33333333333333</ele><time>2026-04-17T11:43:21Z</time></trkpt><trkpt lat="43.58151599925219" lon="10.629599624805085"><ele>34.0</ele><time>2026-04-17T11:43:22Z</time></trkpt><trkpt lat="43.58159881140392" lon="10.629616817707763"><ele>33.666666666666664</ele><time>2026-04-17T11:43:23Z</time></trkpt><trkpt lat="43.58167770148455" lon="10.629635372046938"><ele>33.333333333333336</ele><time>2026-04-17T11:43:24Z</time></trkpt><trkpt lat="43.58175023007566" lon="10.62965154951048"><ele>33.0</ele><time>2026-04-17T11:43:25Z</time></trkpt><trkpt lat="43.58181883645366" lon="10.629666407206237"><ele>33.0</ele><time>2026-04-17T11:43:26Z</time></trkpt><trkpt lat="43.58193039211105" lon="10.62969125258229"><ele>33.0</ele><time>2026-04-17T11:43:28Z</time></trkpt><trkpt lat="43.582009799235124" lon="10.62970780698728"><ele>33.0</ele><time>2026-04-17T11:43:30Z</time></trkpt><trkpt lat="43.58207501900084" lon="10.629725689939585"><ele>33.0</ele><time>2026-04-17T11:44:27Z</time></trkpt><trkpt lat="43.582163763861715" lon="10.629740949719338"><ele>33.0</ele><time>2026-04-17T11:44:43Z</time></trkpt><trkpt lat="43.582263257907265" lon="10.629757132104288"><ele>33.0</ele><time>2026-04-17T11:44:45Z</time></trkpt><trkpt lat="43.58239766609157" lon="10.629784864276978"><ele>32.833333333333336</ele><time>2026-04-17T11:44:47Z</time></trkpt><trkpt lat="43.58247876390548" lon="10.629803009715769"><ele>32.666666666666664</ele><time>2026-04-17T11:44:48Z</time></trkpt><trkpt lat="43.58256318128859" lon="10.629821896348307"><ele>32.5</ele><time>2026-04-17T11:44:49Z</time></trkpt><trkpt lat="43.582644712971366" lon="10.629837949075107"><ele>32.33333333333333</ele><time>2026-04-17T11:44:50Z</time></trkpt><trkpt lat="43.582725205501944" lon="10.629849076207545"><ele>32.166666666666664</ele><time>2026-04-17T11:44:51Z</time></trkpt><trkpt lat="43.58281155698855" lon="10.629860433020626"><ele>32.0</ele><time>2026-04-17T11:44:52Z</time></trkpt><trkpt lat="43.5828927457947" lon="10.629873441780708"><ele>31.857142857142854</ele><time>2026-04-17T11:44:53Z</time></trkpt><trkpt lat="43.58296354663944" lon="10.629887295206347"><ele>31.71428571428571</ele><time>2026-04-17T11:44:54Z</time></trkpt><trkpt lat="43.58302923188199" lon="10.629899297524194"><ele>31.57142857142857</ele><time>2026-04-17T11:44:55Z</time></trkpt><trkpt lat="43.583088289694615" lon="10.629953564121942"><ele>31.42857142857143</ele><time>2026-04-17T11:44:56Z</time></trkpt><trkpt lat="43.583151755783405" lon="10.629967044386731"><ele>31.28571428571429</ele><time>2026-04-17T11:44:57Z</time></trkpt><trkpt lat="43.58322384657142" lon="10.629977252044394"><ele>31.142857142857146</ele><time>2026-04-17T11:44:58Z</time></trkpt><trkpt lat="43.583301517942466" lon="10.630006327000974"><ele>31.0</ele><time>2026-04-17T11:44:59Z</time></trkpt><trkpt lat="43.583389458147664" lon="10.6300178895064"><ele>31.0</ele><time>2026-04-17T11:45:00Z</time></trkpt><trkpt lat="43.583479296116835" lon="10.630035592317961"><ele>31.0</ele><time>2026-04-17T11:45:01Z</time></trkpt><trkpt lat="43.58357465987585" lon="10.630059212340147"><ele>31.0</ele><time>2026-04-17T11:45:02Z</time></trkpt><trkpt lat="43.58367194315142" lon="10.630079453155616"><ele>31.0</ele><time>2026-04-17T11:45:03Z</time></trkpt><trkpt lat="43.58376792871084" lon="10.630099060592087"><ele>31.0</ele><time>2026-04-17T11:45:04Z</time></trkpt><trkpt lat="43.58386758994982" lon="10.630121290101286"><ele>31.0</ele><time>2026-04-17T11:45:05Z</time></trkpt><trkpt lat="43.58397138148287" lon="10.630144809590673"><ele>31.0</ele><time>2026-04-17T11:45:06Z</time></trkpt><trkpt lat="43.58407694724158" lon="10.63016973905135"><ele>31.0</ele><time>2026-04-17T11:45:07Z</time></trkpt><trkpt lat="43.58418319555519" lon="10.630192679873545"><ele>31.0</ele><time>2026-04-17T11:45:08Z</time></trkpt><trkpt lat="43.58429065837229" lon="10.630216446396"><ele>31.0</ele><time>2026-04-17T11:45:09Z</time></trkpt><trkpt lat="43.584400301348786" lon="10.630241204471954"><ele>31.0</ele><time>2026-04-17T11:45:10Z</time></trkpt><trkpt lat="43.58451838161861" lon="10.630265140175533"><ele>31.0</ele><time>2026-04-17T11:45:11Z</time></trkpt><trkpt lat="43.584647842688646" lon="10.630291682838521"><ele>31.0</ele><time>2026-04-17T11:45:12Z</time></trkpt><trkpt lat="43.584781226440015" lon="10.630322275964794"><ele>31.0</ele><time>2026-04-17T11:45:13Z</time></trkpt><trkpt lat="43.58491963384361" lon="10.630351796456731"><ele>31.0</ele><time>2026-04-17T11:45:14Z</time></trkpt><trkpt lat="43.58506033570797" lon="10.630380738619866"><ele>31.0</ele><time>2026-04-17T11:45:15Z</time></trkpt><trkpt lat="43.58520202687291" lon="10.630410224240586"><ele>31.0</ele><time>2026-04-17T11:45:16Z</time></trkpt><trkpt lat="43.58534468837867" lon="10.630440564324246"><ele>31.0</ele><time>2026-04-17T11:45:17Z</time></trkpt><trkpt lat="43.5854871177937" lon="10.630472022956033"><ele>30.75</ele><time>2026-04-17T11:45:18Z</time></trkpt><trkpt lat="43.58562863615015" lon="10.630502447854125"><ele>30.5</ele><time>2026-04-17T11:45:19Z</time></trkpt><trkpt lat="43.58577124890226" lon="10.630532558151467"><ele>30.25</ele><time>2026-04-17T11:45:20Z</time></trkpt><trkpt lat="43.585916380118064" lon="10.630563357672317"><ele>30.0</ele><time>2026-04-17T11:45:21Z</time></trkpt><trkpt lat="43.58606165499719" lon="10.630594597016458"><ele>30.25</ele><time>2026-04-17T11:45:22Z</time></trkpt><trkpt lat="43.58620782470446" lon="10.630627051328112"><ele>30.5</ele><time>2026-04-17T11:45:23Z</time></trkpt><trkpt lat="43.586351792409516" lon="10.630658769571578"><ele>30.75</ele><time>2026-04-17T11:45:24Z</time></trkpt><trkpt lat="43.586492721608245" lon="10.63068955078104"><ele>31.0</ele><time>2026-04-17T11:45:25Z</time></trkpt><trkpt lat="43.586636387943486" lon="10.630721505046845"><ele>31.0</ele><time>2026-04-17T11:45:26Z</time></trkpt><trkpt lat="43.58677839288448" lon="10.630754412974953"><ele>31.0</ele><time>2026-04-17T11:45:27Z</time></trkpt><trkpt lat="43.58692247337029" lon="10.630786518633242"><ele>31.0</ele><time>2026-04-17T11:45:28Z</time></trkpt><trkpt lat="43.58706673795432" lon="10.630818014431858"><ele>31.0</ele><time>2026-04-17T11:45:29Z</time></trkpt><trkpt lat="43.587212027993864" lon="10.630846316650604"><ele>30.666666666666668</ele><time>2026-04-17T11:45:30Z</time></trkpt><trkpt lat="43.58736168831179" lon="10.630871155377445"><ele>30.333333333333336</ele><time>2026-04-17T11:45:31Z</time></trkpt><trkpt lat="43.58751380829546" lon="10.630896304629736"><ele>30.0</ele><time>2026-04-17T11:45:32Z</time></trkpt><trkpt lat="43.5876653359439" lon="10.63091442313989"><ele>30.0</ele><time>2026-04-17T11:45:33Z</time></trkpt><trkpt lat="43.58781564397108" lon="10.630930666585874"><ele>30.0</ele><time>2026-04-17T11:45:34Z</time></trkpt><trkpt lat="43.58796492634921" lon="10.630945715390567"><ele>30.0</ele><time>2026-04-17T11:45:35Z</time></trkpt><trkpt lat="43.58811336346933" lon="10.630959843437207"><ele>30.0</ele><time>2026-04-17T11:45:36Z</time></trkpt><trkpt lat="43.5882594751534" lon="10.630973437806581"><ele>30.25</ele><time>2026-04-17T11:45:37Z</time></trkpt><trkpt lat="43.5884055130441" lon="10.630987269131115"><ele>30.5</ele><time>2026-04-17T11:45:38Z</time></trkpt><trkpt lat="43.58854127743492" lon="10.631001263331118"><ele>30.75</ele><time>2026-04-17T11:45:39Z</time></trkpt><trkpt lat="43.588658213957636" lon="10.631012249340465"><ele>31.0</ele><time>2026-04-17T11:45:40Z</time></trkpt><trkpt lat="43.58876416706124" lon="10.631022677957885"><ele>30.6</ele><time>2026-04-17T11:45:41Z</time></trkpt><trkpt lat="43.58885861330344" lon="10.631032279291928"><ele>30.200000000000003</ele><time>2026-04-17T11:45:42Z</time></trkpt><trkpt lat="43.58894684188978" lon="10.631040615626352"><ele>29.799999999999997</ele><time>2026-04-17T11:45:43Z</time></trkpt><trkpt lat="43.58903089567936" lon="10.631048558063982"><ele>29.4</ele><time>2026-04-17T11:45:44Z</time></trkpt><trkpt lat="43.589120264392335" lon="10.631056166544363"><ele>29.0</ele><time>2026-04-17T11:45:45Z</time></trkpt><trkpt lat="43.5892179643651" lon="10.631064218821903"><ele>29.0</ele><time>2026-04-17T11:45:46Z</time></trkpt><trkpt lat="43.5893227154409" lon="10.631074952667525"><ele>29.0</ele><time>2026-04-17T11:45:47Z</time></trkpt><trkpt lat="43.589427484546896" lon="10.631084267470726"><ele>29.0</ele><time>2026-04-17T11:45:48Z</time></trkpt><trkpt lat="43.589535710766434" lon="10.631093740815666"><ele>29.0</ele><time>2026-04-17T11:45:49Z</time></trkpt><trkpt lat="43.5896519154227" lon="10.631105748484638"><ele>29.0</ele><time>2026-04-17T11:45:50Z</time></trkpt><trkpt lat="43.5897716452842" lon="10.63112071116186"><ele>29.0</ele><time>2026-04-17T11:45:51Z</time></trkpt><trkpt lat="43.589892988023" lon="10.631132104670936"><ele>29.0</ele><time>2026-04-17T11:45:52Z</time></trkpt><trkpt lat="43.590015651890155" lon="10.631141730401383"><ele>29.0</ele><time>2026-04-17T11:45:53Z</time></trkpt><trkpt lat="43.590143278405215" lon="10.63115510410505"><ele>29.0</ele><time>2026-04-17T11:45:54Z</time></trkpt><trkpt lat="43.59027665696351" lon="10.631167147278779"><ele>28.75</ele><time>2026-04-17T11:45:55Z</time></trkpt><trkpt lat="43.5904160349714" lon="10.631181141123193"><ele>28.5</ele><time>2026-04-17T11:45:56Z</time></trkpt><trkpt lat="43.590561570504136" lon="10.631195495076591"><ele>28.25</ele><time>2026-04-17T11:45:57Z</time></trkpt><trkpt lat="43.59071290142226" lon="10.631210621996306"><ele>28.0</ele><time>2026-04-17T11:45:58Z</time></trkpt><trkpt lat="43.59086815213695" lon="10.631227110242166"><ele>28.0</ele><time>2026-04-17T11:45:59Z</time></trkpt><trkpt lat="43.59102570231895" lon="10.631243821257145"><ele>28.0</ele><time>2026-04-17T11:46:00Z</time></trkpt><trkpt lat="43.59118292567486" lon="10.631258594321512"><ele>28.0</ele><time>2026-04-17T11:46:01Z</time></trkpt><trkpt lat="43.59133893502554" lon="10.631272561632588"><ele>28.333333333333336</ele><time>2026-04-17T11:46:02Z</time></trkpt><trkpt lat="43.59149795851331" lon="10.63128814470364"><ele>28.666666666666664</ele><time>2026-04-17T11:46:03Z</time></trkpt><trkpt lat="43.591657146106854" lon="10.631304677817266"><ele>29.0</ele><time>2026-04-17T11:46:04Z</time></trkpt><trkpt lat="43.591813917887805" lon="10.631320654835292"><ele>29.0</ele><time>2026-04-17T11:46:05Z</time></trkpt><trkpt lat="43.59196773762102" lon="10.631336084737546"><ele>29.0</ele><time>2026-04-17T11:46:06Z</time></trkpt><trkpt lat="43.592119533013744" lon="10.631349960095479"><ele>29.0</ele><time>2026-04-17T11:46:07Z</time></trkpt><trkpt lat="43.5922714144881" lon="10.631364774387567"><ele>28.333333333333332</ele><time>2026-04-17T11:46:08Z</time></trkpt><trkpt lat="43.59242452404525" lon="10.631381215302255"><ele>27.666666666666664</ele><time>2026-04-17T11:46:09Z</time></trkpt><trkpt lat="43.59257939600999" lon="10.631399217035813"><ele>27.0</ele><time>2026-04-17T11:46:10Z</time></trkpt><trkpt lat="43.59273456137689" lon="10.631415503191134"><ele>26.666666666666664</ele><time>2026-04-17T11:46:11Z</time></trkpt><trkpt lat="43.592889526266234" lon="10.631430912761848"><ele>26.333333333333332</ele><time>2026-04-17T11:46:12Z</time></trkpt><trkpt lat="43.59304768493379" lon="10.631446839418997"><ele>26.0</ele><time>2026-04-17T11:46:13Z</time></trkpt><trkpt lat="43.59320634315975" lon="10.631464675832008"><ele>26.0</ele><time>2026-04-17T11:46:14Z</time></trkpt><trkpt lat="43.593369454523845" lon="10.63147998741871"><ele>26.0</ele><time>2026-04-17T11:46:15Z</time></trkpt><trkpt lat="43.593536207643936" lon="10.631495378238267"><ele>26.0</ele><time>2026-04-17T11:46:16Z</time></trkpt><trkpt lat="43.59370452304339" lon="10.631511917294365"><ele>25.666666666666664</ele><time>2026-04-17T11:46:17Z</time></trkpt><trkpt lat="43.59387511599164" lon="10.631527789981796"><ele>25.333333333333336</ele><time>2026-04-17T11:46:18Z</time></trkpt><trkpt lat="43.594047802976014" lon="10.631546886273423"><ele>25.0</ele><time>2026-04-17T11:46:19Z</time></trkpt><trkpt lat="43.59422075780006" lon="10.631565596027269"><ele>25.0</ele><time>2026-04-17T11:46:20Z</time></trkpt><trkpt lat="43.594395353624904" lon="10.631583574391382"><ele>25.0</ele><time>2026-04-17T11:46:21Z</time></trkpt><trkpt lat="43.59457235840131" lon="10.631601425481591"><ele>25.0</ele><time>2026-04-17T11:46:22Z</time></trkpt><trkpt lat="43.59474958903213" lon="10.631620769797854"><ele>25.666666666666668</ele><time>2026-04-17T11:46:23Z</time></trkpt><trkpt lat="43.5949271895588" lon="10.631638826736044"><ele>26.333333333333336</ele><time>2026-04-17T11:46:24Z</time></trkpt><trkpt lat="43.59510581327664" lon="10.63165710066899"><ele>27.0</ele><time>2026-04-17T11:46:25Z</time></trkpt><trkpt lat="43.595282198678674" lon="10.63167437621711"><ele>27.0</ele><time>2026-04-17T11:46:26Z</time></trkpt><trkpt lat="43.59545970096797" lon="10.631690745247932"><ele>27.0</ele><time>2026-04-17T11:46:27Z</time></trkpt><trkpt lat="43.59563874755569" lon="10.631710808018425"><ele>27.0</ele><time>2026-04-17T11:46:28Z</time></trkpt><trkpt lat="43.595815152099455" lon="10.631730218440127"><ele>27.0</ele><time>2026-04-17T11:46:29Z</time></trkpt><trkpt lat="43.59598914943001" lon="10.631751277269368"><ele>27.0</ele><time>2026-04-17T11:46:30Z</time></trkpt><trkpt lat="43.59616126126404" lon="10.631773503432806"><ele>27.0</ele><time>2026-04-17T11:46:31Z</time></trkpt><trkpt lat="43.59633254149798" lon="10.631796215524833"><ele>27.0</ele><time>2026-04-17T11:46:32Z</time></trkpt><trkpt lat="43.59650569647039" lon="10.631820726747875"><ele>27.0</ele><time>2026-04-17T11:46:33Z</time></trkpt><trkpt lat="43.59667687296256" lon="10.631843662933385"><ele>27.0</ele><time>2026-04-17T11:46:34Z</time></trkpt><trkpt lat="43.596847208328974" lon="10.631862135150715"><ele>27.0</ele><time>2026-04-17T11:46:35Z</time></trkpt><trkpt lat="43.59701849466919" lon="10.63188328342709"><ele>27.0</ele><time>2026-04-17T11:46:36Z</time></trkpt><trkpt lat="43.59719033813944" lon="10.631907365366752"><ele>27.0</ele><time>2026-04-17T11:46:37Z</time></trkpt><trkpt lat="43.59736317323408" lon="10.631927957147697"><ele>27.0</ele><time>2026-04-17T11:46:38Z</time></trkpt><trkpt lat="43.597534576559" lon="10.631950304143619"><ele>27.0</ele><time>2026-04-17T11:46:39Z</time></trkpt><trkpt lat="43.59770336961717" lon="10.631971459945145"><ele>27.0</ele><time>2026-04-17T11:46:40Z</time></trkpt><trkpt lat="43.597872135779184" lon="10.631992485932772"><ele>27.0</ele><time>2026-04-17T11:46:41Z</time></trkpt><trkpt lat="43.59804078065372" lon="10.632026572649274"><ele>27.0</ele><time>2026-04-17T11:46:42Z</time></trkpt><trkpt lat="43.5982063754757" lon="10.632041572816279"><ele>27.0</ele><time>2026-04-17T11:46:43Z</time></trkpt><trkpt lat="43.59836787974363" lon="10.632056470726988"><ele>27.0</ele><time>2026-04-17T11:46:44Z</time></trkpt><trkpt lat="43.598530433802516" lon="10.632078100099912"><ele>27.0</ele><time>2026-04-17T11:46:45Z</time></trkpt><trkpt lat="43.59869459912964" lon="10.632102114846548"><ele>27.0</ele><time>2026-04-17T11:46:46Z</time></trkpt><trkpt lat="43.59886386541221" lon="10.632127772239297"><ele>26.333333333333336</ele><time>2026-04-17T11:46:47Z</time></trkpt><trkpt lat="43.59903788125811" lon="10.632150904450853"><ele>25.666666666666668</ele><time>2026-04-17T11:46:48Z</time></trkpt><trkpt lat="43.59920908539844" lon="10.63217414550685"><ele>25.0</ele><time>2026-04-17T11:46:49Z</time></trkpt><trkpt lat="43.59938532639834" lon="10.632194647621422"><ele>25.333333333333336</ele><time>2026-04-17T11:46:50Z</time></trkpt><trkpt lat="43.599566709857946" lon="10.632217196945357"><ele>25.666666666666664</ele><time>2026-04-17T11:46:51Z</time></trkpt><trkpt lat="43.59974657514353" lon="10.63224289947204"><ele>26.0</ele><time>2026-04-17T11:46:52Z</time></trkpt><trkpt lat="43.59992524402956" lon="10.632265170294257"><ele>26.0</ele><time>2026-04-17T11:46:53Z</time></trkpt><trkpt lat="43.60009906116427" lon="10.63228477259034"><ele>26.0</ele><time>2026-04-17T11:46:54Z</time></trkpt><trkpt lat="43.60027491239506" lon="10.632300004214938"><ele>26.0</ele><time>2026-04-17T11:46:55Z</time></trkpt><trkpt lat="43.60044186512683" lon="10.632331611262709"><ele>26.0</ele><time>2026-04-17T11:46:56Z</time></trkpt><trkpt lat="43.60061491775607" lon="10.632344334685799"><ele>26.0</ele><time>2026-04-17T11:46:57Z</time></trkpt><trkpt lat="43.60077978163065" lon="10.632370133999705"><ele>26.0</ele><time>2026-04-17T11:46:58Z</time></trkpt><trkpt lat="43.60093574279971" lon="10.632399072179432"><ele>26.0</ele><time>2026-04-17T11:46:59Z</time></trkpt><trkpt lat="43.60108515543579" lon="10.632445033117502"><ele>26.0</ele><time>2026-04-17T11:47:00Z</time></trkpt><trkpt lat="43.601233696047764" lon="10.632507137248508"><ele>26.0</ele><time>2026-04-17T11:47:01Z</time></trkpt><trkpt lat="43.60138029882693" lon="10.632591738167596"><ele>25.666666666666664</ele><time>2026-04-17T11:47:02Z</time></trkpt><trkpt lat="43.601526363529246" lon="10.632682132907668"><ele>25.333333333333336</ele><time>2026-04-17T11:47:03Z</time></trkpt><trkpt lat="43.60167492636413" lon="10.632766625024336"><ele>25.0</ele><time>2026-04-17T11:47:04Z</time></trkpt><trkpt lat="43.60182881158326" lon="10.632836450336919"><ele>24.666666666666668</ele><time>2026-04-17T11:47:05Z</time></trkpt><trkpt lat="43.60197805910178" lon="10.632903203798206"><ele>24.333333333333336</ele><time>2026-04-17T11:47:06Z</time></trkpt><trkpt lat="43.60212778967642" lon="10.632962193818546"><ele>24.0</ele><time>2026-04-17T11:47:07Z</time></trkpt><trkpt lat="43.60228449079653" lon="10.633002370189715"><ele>23.333333333333332</ele><time>2026-04-17T11:47:08Z</time></trkpt><trkpt lat="43.60244844710787" lon="10.633026079334256"><ele>22.666666666666664</ele><time>2026-04-17T11:47:09Z</time></trkpt><trkpt lat="43.602618392070795" lon="10.633030386062668"><ele>22.0</ele><time>2026-04-17T11:47:10Z</time></trkpt><trkpt lat="43.60278751711075" lon="10.633023377488815"><ele>23.0</ele><time>2026-04-17T11:47:11Z</time></trkpt><trkpt lat="43.60295791484312" lon="10.633003101821005"><ele>24.0</ele><time>2026-04-17T11:47:12Z</time></trkpt><trkpt lat="43.603131292160874" lon="10.63296695989923"><ele>25.0</ele><time>2026-04-17T11:47:13Z</time></trkpt><trkpt lat="43.60330057828361" lon="10.632928967834305"><ele>25.0</ele><time>2026-04-17T11:47:14Z</time></trkpt><trkpt lat="43.60346866744954" lon="10.632895546560851"><ele>25.0</ele><time>2026-04-17T11:47:15Z</time></trkpt><trkpt lat="43.60363522364095" lon="10.63286502839988"><ele>25.0</ele><time>2026-04-17T11:47:16Z</time></trkpt><trkpt lat="43.603804076935425" lon="10.63283647289085"><ele>25.0</ele><time>2026-04-17T11:47:17Z</time></trkpt><trkpt lat="43.603976051110934" lon="10.63281327778016"><ele>25.0</ele><time>2026-04-17T11:47:18Z</time></trkpt><trkpt lat="43.6041434116408" lon="10.632797256574596"><ele>25.0</ele><time>2026-04-17T11:47:19Z</time></trkpt><trkpt lat="43.60431094863735" lon="10.632783724488226"><ele>25.0</ele><time>2026-04-17T11:47:20Z</time></trkpt><trkpt lat="43.60447862496992" lon="10.632765611727713"><ele>25.0</ele><time>2026-04-17T11:47:21Z</time></trkpt><trkpt lat="43.6046425259908" lon="10.632752659218813"><ele>25.0</ele><time>2026-04-17T11:47:22Z</time></trkpt><trkpt lat="43.6048045964682" lon="10.632741036763298"><ele>25.0</ele><time>2026-04-17T11:47:23Z</time></trkpt><trkpt lat="43.6049701979111" lon="10.632726092678482"><ele>25.0</ele><time>2026-04-17T11:47:24Z</time></trkpt><trkpt lat="43.60513370676593" lon="10.632713244946524"><ele>25.0</ele><time>2026-04-17T11:47:25Z</time></trkpt><trkpt lat="43.60529573588719" lon="10.632706477535738"><ele>23.666666666666668</ele><time>2026-04-17T11:47:26Z</time></trkpt><trkpt lat="43.60545488031983" lon="10.632698233403211"><ele>22.333333333333336</ele><time>2026-04-17T11:47:27Z</time></trkpt><trkpt lat="43.60561219776678" lon="10.632691371142156"><ele>21.0</ele><time>2026-04-17T11:47:28Z</time></trkpt><trkpt lat="43.605767221537775" lon="10.632690634231835"><ele>21.0</ele><time>2026-04-17T11:47:29Z</time></trkpt><trkpt lat="43.60592095619361" lon="10.632689431096994"><ele>21.0</ele><time>2026-04-17T11:47:30Z</time></trkpt><trkpt lat="43.60607496363859" lon="10.632683868013668"><ele>21.0</ele><time>2026-04-17T11:47:31Z</time></trkpt><trkpt lat="43.60622643851489" lon="10.632670178052079"><ele>21.75</ele><time>2026-04-17T11:47:32Z</time></trkpt><trkpt lat="43.60637692402966" lon="10.632649804457524"><ele>22.5</ele><time>2026-04-17T11:47:33Z</time></trkpt><trkpt lat="43.60652603768659" lon="10.632625076291896"><ele>23.25</ele><time>2026-04-17T11:47:34Z</time></trkpt><trkpt lat="43.60667134318421" lon="10.632599399080771"><ele>24.0</ele><time>2026-04-17T11:47:35Z</time></trkpt><trkpt lat="43.60681334539616" lon="10.632575856031577"><ele>24.0</ele><time>2026-04-17T11:47:36Z</time></trkpt><trkpt lat="43.60695131945126" lon="10.632553054954391"><ele>24.0</ele><time>2026-04-17T11:47:37Z</time></trkpt><trkpt lat="43.60709036071984" lon="10.632528479610237"><ele>24.0</ele><time>2026-04-17T11:47:38Z</time></trkpt><trkpt lat="43.607235402107705" lon="10.632502372750935"><ele>24.0</ele><time>2026-04-17T11:47:39Z</time></trkpt><trkpt lat="43.6073898806943" lon="10.632471735036487"><ele>23.75</ele><time>2026-04-17T11:47:40Z</time></trkpt><trkpt lat="43.607540329529556" lon="10.632447538594933"><ele>23.5</ele><time>2026-04-17T11:47:41Z</time></trkpt><trkpt lat="43.607685286873505" lon="10.632422476634286"><ele>23.25</ele><time>2026-04-17T11:47:42Z</time></trkpt><trkpt lat="43.60782025640929" lon="10.6324080398296"><ele>23.0</ele><time>2026-04-17T11:47:43Z</time></trkpt><trkpt lat="43.607955245235026" lon="10.632416139154795"><ele>23.0</ele><time>2026-04-17T11:47:44Z</time></trkpt><trkpt lat="43.6080846409245" lon="10.632456017087168"><ele>23.0</ele><time>2026-04-17T11:47:45Z</time></trkpt><trkpt lat="43.60821176107713" lon="10.63250701691056"><ele>23.0</ele><time>2026-04-17T11:47:46Z</time></trkpt><trkpt lat="43.60834000318724" lon="10.632550058528716"><ele>23.0</ele><time>2026-04-17T11:47:47Z</time></trkpt><trkpt lat="43.60847739212125" lon="10.632577880629732"><ele>23.0</ele><time>2026-04-17T11:47:48Z</time></trkpt><trkpt lat="43.6086188388609" lon="10.632590137927453"><ele>23.0</ele><time>2026-04-17T11:47:49Z</time></trkpt><trkpt lat="43.608762471611755" lon="10.63259131733497"><ele>23.0</ele><time>2026-04-17T11:47:50Z</time></trkpt><trkpt lat="43.60890250745226" lon="10.632585695194408"><ele>23.0</ele><time>2026-04-17T11:47:51Z</time></trkpt><trkpt lat="43.60904352290689" lon="10.63258092579579"><ele>23.25</ele><time>2026-04-17T11:47:52Z</time></trkpt><trkpt lat="43.609184793085895" lon="10.632579411524784"><ele>23.5</ele><time>2026-04-17T11:47:53Z</time></trkpt><trkpt lat="43.609321303573324" lon="10.632577001953234"><ele>23.75</ele><time>2026-04-17T11:47:54Z</time></trkpt><trkpt lat="43.60945664153523" lon="10.632573362229197"><ele>24.0</ele><time>2026-04-17T11:47:55Z</time></trkpt><trkpt lat="43.60959558220262" lon="10.632574208520321"><ele>24.0</ele><time>2026-04-17T11:47:56Z</time></trkpt><trkpt lat="43.60973747850003" lon="10.632569574161382"><ele>24.0</ele><time>2026-04-17T11:47:57Z</time></trkpt><trkpt lat="43.60987720347376" lon="10.632563420484935"><ele>24.0</ele><time>2026-04-17T11:47:58Z</time></trkpt><trkpt lat="43.61001722069529" lon="10.63256051462389"><ele>24.0</ele><time>2026-04-17T11:47:59Z</time></trkpt><trkpt lat="43.61015630226242" lon="10.63255667629272"><ele>24.0</ele><time>2026-04-17T11:48:00Z</time></trkpt><trkpt lat="43.61029609652731" lon="10.632549508254057"><ele>24.0</ele><time>2026-04-17T11:48:01Z</time></trkpt><trkpt lat="43.61043258730357" lon="10.632544966191578"><ele>24.0</ele><time>2026-04-17T11:48:02Z</time></trkpt><trkpt lat="43.61057187915522" lon="10.632542409848261"><ele>24.0</ele><time>2026-04-17T11:48:03Z</time></trkpt><trkpt lat="43.61071213916991" lon="10.632542431527229"><ele>24.0</ele><time>2026-04-17T11:48:04Z</time></trkpt><trkpt lat="43.610852414039506" lon="10.632542224282348"><ele>24.0</ele><time>2026-04-17T11:48:05Z</time></trkpt><trkpt lat="43.610992069238" lon="10.63254173886874"><ele>24.0</ele><time>2026-04-17T11:48:06Z</time></trkpt><trkpt lat="43.61113134394642" lon="10.632544078052524"><ele>24.0</ele><time>2026-04-17T11:48:07Z</time></trkpt><trkpt lat="43.611272161207715" lon="10.632548588537675"><ele>24.0</ele><time>2026-04-17T11:48:08Z</time></trkpt><trkpt lat="43.611415239486405" lon="10.632555633583195"><ele>24.0</ele><time>2026-04-17T11:48:09Z</time></trkpt><trkpt lat="43.611555131320124" lon="10.632563083302"><ele>24.0</ele><time>2026-04-17T11:48:10Z</time></trkpt><trkpt lat="43.611693701581714" lon="10.632569545127316"><ele>24.0</ele><time>2026-04-17T11:48:11Z</time></trkpt><trkpt lat="43.611829727484675" lon="10.632579416056652"><ele>24.0</ele><time>2026-04-17T11:48:12Z</time></trkpt><trkpt lat="43.61196161139596" lon="10.632588450225443"><ele>24.0</ele><time>2026-04-17T11:48:13Z</time></trkpt><trkpt lat="43.6120918365865" lon="10.632592700251683"><ele>24.0</ele><time>2026-04-17T11:48:14Z</time></trkpt><trkpt lat="43.61221908552689" lon="10.632598229797761"><ele>24.0</ele><time>2026-04-17T11:48:15Z</time></trkpt><trkpt lat="43.612342459951364" lon="10.632606863769647"><ele>24.0</ele><time>2026-04-17T11:48:16Z</time></trkpt><trkpt lat="43.61246233708746" lon="10.632623928456585"><ele>24.0</ele><time>2026-04-17T11:48:17Z</time></trkpt><trkpt lat="43.61257613051259" lon="10.63264239041636"><ele>24.0</ele><time>2026-04-17T11:48:18Z</time></trkpt><trkpt lat="43.612676218078335" lon="10.6326582436438"><ele>24.0</ele><time>2026-04-17T11:48:19Z</time></trkpt><trkpt lat="43.612763373770264" lon="10.632674524749039"><ele>24.0</ele><time>2026-04-17T11:48:20Z</time></trkpt><trkpt lat="43.61284840354681" lon="10.632693610079425"><ele>24.2</ele><time>2026-04-17T11:48:21Z</time></trkpt><trkpt lat="43.612942074067234" lon="10.632718813119563"><ele>24.4</ele><time>2026-04-17T11:48:22Z</time></trkpt><trkpt lat="43.61303772227104" lon="10.632744807421421"><ele>24.6</ele><time>2026-04-17T11:48:23Z</time></trkpt><trkpt lat="43.61313969580955" lon="10.632771413054943"><ele>24.8</ele><time>2026-04-17T11:48:24Z</time></trkpt><trkpt lat="43.61324556489295" lon="10.632795022184041"><ele>25.0</ele><time>2026-04-17T11:48:25Z</time></trkpt><trkpt lat="43.613353813336104" lon="10.632819906787665"><ele>24.75</ele><time>2026-04-17T11:48:26Z</time></trkpt><trkpt lat="43.61346302592531" lon="10.632840492690233"><ele>24.5</ele><time>2026-04-17T11:48:27Z</time></trkpt><trkpt lat="43.61357592052301" lon="10.632859027337485"><ele>24.25</ele><time>2026-04-17T11:48:28Z</time></trkpt><trkpt lat="43.61369222117262" lon="10.632872293612513"><ele>24.0</ele><time>2026-04-17T11:48:29Z</time></trkpt><trkpt lat="43.613807126761266" lon="10.632879216103353"><ele>24.0</ele><time>2026-04-17T11:48:30Z</time></trkpt><trkpt lat="43.613918373225054" lon="10.632882543278235"><ele>24.0</ele><time>2026-04-17T11:48:31Z</time></trkpt><trkpt lat="43.61402696992146" lon="10.632883531107057"><ele>24.0</ele><time>2026-04-17T11:48:32Z</time></trkpt><trkpt lat="43.61413304455956" lon="10.63288408907604"><ele>24.0</ele><time>2026-04-17T11:48:33Z</time></trkpt><trkpt lat="43.61423958746524" lon="10.632880320861164"><ele>24.0</ele><time>2026-04-17T11:48:34Z</time></trkpt><trkpt lat="43.61434074866097" lon="10.632878470647961"><ele>24.0</ele><time>2026-04-17T11:48:35Z</time></trkpt><trkpt lat="43.614447940389525" lon="10.632874941660429"><ele>24.0</ele><time>2026-04-17T11:48:36Z</time></trkpt><trkpt lat="43.61456261758917" lon="10.632875372287499"><ele>24.0</ele><time>2026-04-17T11:48:37Z</time></trkpt><trkpt lat="43.614680383053994" lon="10.632874831500192"><ele>24.0</ele><time>2026-04-17T11:48:38Z</time></trkpt><trkpt lat="43.61480115726641" lon="10.63288130167383"><ele>23.75</ele><time>2026-04-17T11:48:39Z</time></trkpt><trkpt lat="43.61492749591125" lon="10.632891903288368"><ele>23.5</ele><time>2026-04-17T11:48:40Z</time></trkpt><trkpt lat="43.615058736077216" lon="10.632901939395348"><ele>23.25</ele><time>2026-04-17T11:48:41Z</time></trkpt><trkpt lat="43.61519292159382" lon="10.632913561229243"><ele>23.0</ele><time>2026-04-17T11:48:42Z</time></trkpt><trkpt lat="43.61532662710901" lon="10.632930896835607"><ele>23.0</ele><time>2026-04-17T11:48:43Z</time></trkpt><trkpt lat="43.6154622917284" lon="10.632946925498407"><ele>23.0</ele><time>2026-04-17T11:48:44Z</time></trkpt><trkpt lat="43.61559646679032" lon="10.632963303198771"><ele>23.0</ele><time>2026-04-17T11:48:45Z</time></trkpt><trkpt lat="43.61572660905163" lon="10.632984691274304"><ele>23.0</ele><time>2026-04-17T11:48:46Z</time></trkpt><trkpt lat="43.61585653200036" lon="10.63300957727952"><ele>23.0</ele><time>2026-04-17T11:48:47Z</time></trkpt><trkpt lat="43.615986117105045" lon="10.633038127370328"><ele>23.0</ele><time>2026-04-17T11:48:48Z</time></trkpt><trkpt lat="43.616112036690495" lon="10.633072672852814"><ele>23.0</ele><time>2026-04-17T11:48:49Z</time></trkpt><trkpt lat="43.616234079908956" lon="10.633115998158187"><ele>23.0</ele><time>2026-04-17T11:48:50Z</time></trkpt><trkpt lat="43.61635428257167" lon="10.63315869015089"><ele>23.25</ele><time>2026-04-17T11:48:51Z</time></trkpt><trkpt lat="43.616475691507425" lon="10.633200004766831"><ele>23.5</ele><time>2026-04-17T11:48:52Z</time></trkpt><trkpt lat="43.616597723143194" lon="10.633243183986673"><ele>23.75</ele><time>2026-04-17T11:48:53Z</time></trkpt><trkpt lat="43.61671979124622" lon="10.633287502708457"><ele>24.0</ele><time>2026-04-17T11:48:54Z</time></trkpt><trkpt lat="43.61683677636685" lon="10.63333033325581"><ele>24.0</ele><time>2026-04-17T11:48:55Z</time></trkpt><trkpt lat="43.61695174078811" lon="10.633365762204617"><ele>24.0</ele><time>2026-04-17T11:48:56Z</time></trkpt><trkpt lat="43.61706961858052" lon="10.633384437024816"><ele>24.0</ele><time>2026-04-17T11:48:57Z</time></trkpt><trkpt lat="43.61718475006314" lon="10.63339264670591"><ele>24.0</ele><time>2026-04-17T11:48:58Z</time></trkpt><trkpt lat="43.61729564344234" lon="10.633395061881549"><ele>24.0</ele><time>2026-04-17T11:48:59Z</time></trkpt><trkpt lat="43.617405784818146" lon="10.633390658733072"><ele>24.0</ele><time>2026-04-17T11:49:00Z</time></trkpt><trkpt lat="43.61750952896396" lon="10.633387138402915"><ele>24.0</ele><time>2026-04-17T11:49:01Z</time></trkpt><trkpt lat="43.61759308401057" lon="10.63338523255081"><ele>24.0</ele><time>2026-04-17T11:49:02Z</time></trkpt><trkpt lat="43.617671393381194" lon="10.6333833579386"><ele>24.0</ele><time>2026-04-17T11:49:03Z</time></trkpt><trkpt lat="43.61775035547668" lon="10.633382107354368"><ele>23.6</ele><time>2026-04-17T11:49:04Z</time></trkpt><trkpt lat="43.617840127972876" lon="10.63337922958983"><ele>23.2</ele><time>2026-04-17T11:49:05Z</time></trkpt><trkpt lat="43.61793645518016" lon="10.633374667932516"><ele>22.8</ele><time>2026-04-17T11:49:06Z</time></trkpt><trkpt lat="43.61803352506864" lon="10.633374335821458"><ele>22.400000000000002</ele><time>2026-04-17T11:49:07Z</time></trkpt><trkpt lat="43.61812894115445" lon="10.633373297577542"><ele>22.0</ele><time>2026-04-17T11:49:08Z</time></trkpt><trkpt lat="43.61822005567226" lon="10.633372362520696"><ele>22.0</ele><time>2026-04-17T11:49:09Z</time></trkpt><trkpt lat="43.618310047335555" lon="10.633369706371786"><ele>22.0</ele><time>2026-04-17T11:49:10Z</time></trkpt><trkpt lat="43.61840125005371" lon="10.633366610006084"><ele>22.0</ele><time>2026-04-17T11:49:11Z</time></trkpt><trkpt lat="43.61849105989295" lon="10.633364128559023"><ele>22.0</ele><time>2026-04-17T11:49:12Z</time></trkpt><trkpt lat="43.6185858161087" lon="10.633363145867305"><ele>22.0</ele><time>2026-04-17T11:49:13Z</time></trkpt><trkpt lat="43.61868673515505" lon="10.633359066168603"><ele>22.166666666666664</ele><time>2026-04-17T11:49:14Z</time></trkpt><trkpt lat="43.618780889432905" lon="10.633359648382138"><ele>22.333333333333332</ele><time>2026-04-17T11:49:15Z</time></trkpt><trkpt lat="43.618870780145386" lon="10.63335824185106"><ele>22.5</ele><time>2026-04-17T11:49:16Z</time></trkpt><trkpt lat="43.61895921468538" lon="10.633351666274606"><ele>22.666666666666668</ele><time>2026-04-17T11:49:17Z</time></trkpt><trkpt lat="43.619040921384446" lon="10.633340957167714"><ele>22.833333333333336</ele><time>2026-04-17T11:49:18Z</time></trkpt><trkpt lat="43.619123133353746" lon="10.633322523074886"><ele>23.0</ele><time>2026-04-17T11:49:19Z</time></trkpt><trkpt lat="43.619198090631095" lon="10.633307122378254"><ele>23.0</ele><time>2026-04-17T11:49:20Z</time></trkpt><trkpt lat="43.61928036831217" lon="10.633297753113887"><ele>23.0</ele><time>2026-04-17T11:49:21Z</time></trkpt><trkpt lat="43.6193670210112" lon="10.633312664967448"><ele>23.0</ele><time>2026-04-17T11:49:22Z</time></trkpt><trkpt lat="43.61945186048091" lon="10.633334637260571"><ele>23.0</ele><time>2026-04-17T11:49:23Z</time></trkpt><trkpt lat="43.6195318164923" lon="10.633357218138018"><ele>23.0</ele><time>2026-04-17T11:49:24Z</time></trkpt><trkpt lat="43.619605764247495" lon="10.633379819693886"><ele>23.0</ele><time>2026-04-17T11:49:25Z</time></trkpt><trkpt lat="43.619670126425184" lon="10.633398517076945"><ele>23.5</ele><time>2026-04-17T11:49:26Z</time></trkpt><trkpt lat="43.61977220433343" lon="10.63342295867192"><ele>24.0</ele><time>2026-04-17T11:49:28Z</time></trkpt><trkpt lat="43.619835616253305" lon="10.633429598255093"><ele>24.5</ele><time>2026-04-17T11:49:30Z</time></trkpt><trkpt lat="43.619949576318476" lon="10.633468501638175"><ele>25.0</ele><time>2026-04-17T11:49:32Z</time></trkpt><trkpt lat="43.62001659301605" lon="10.633484865360197"><ele>25.499999999999996</ele><time>2026-04-17T11:49:33Z</time></trkpt><trkpt lat="43.62009366861931" lon="10.633509562583296"><ele>26.0</ele><time>2026-04-17T11:49:34Z</time></trkpt><trkpt lat="43.62017210305106" lon="10.633536990402238"><ele>25.999999999999996</ele><time>2026-04-17T11:49:35Z</time></trkpt><trkpt lat="43.62024811061988" lon="10.633564290921619"><ele>26.0</ele><time>2026-04-17T11:49:36Z</time></trkpt><trkpt lat="43.6203120073038" lon="10.63359029930954"><ele>26.0</ele><time>2026-04-17T11:49:37Z</time></trkpt><trkpt lat="43.620400148804535" lon="10.633618653157413"><ele>26.0</ele><time>2026-04-17T11:49:39Z</time></trkpt><trkpt lat="43.620488702042785" lon="10.633634730733252"><ele>25.999999999999996</ele><time>2026-04-17T11:49:41Z</time></trkpt><trkpt lat="43.62058495106553" lon="10.633662619689584"><ele>26.0</ele><time>2026-04-17T11:49:43Z</time></trkpt><trkpt lat="43.62066380924486" lon="10.63368930212241"><ele>25.833333333333332</ele><time>2026-04-17T11:49:45Z</time></trkpt><trkpt lat="43.62070782969349" lon="10.633568148598895"><ele>25.666666666666664</ele><time>2026-04-17T11:49:46Z</time></trkpt><trkpt lat="43.62072995430233" lon="10.633479430028624"><ele>25.5</ele><time>2026-04-17T11:49:47Z</time></trkpt><trkpt lat="43.620761880142474" lon="10.633367827806692"><ele>25.333333333333336</ele><time>2026-04-17T11:49:48Z</time></trkpt><trkpt lat="43.62079377622842" lon="10.633260961506396"><ele>25.166666666666668</ele><time>2026-04-17T11:49:49Z</time></trkpt><trkpt lat="43.62082372746667" lon="10.633152321309588"><ele>25.0</ele><time>2026-04-17T11:49:50Z</time></trkpt><trkpt lat="43.620852291020874" lon="10.633046358177918"><ele>25.000000000000004</ele><time>2026-04-17T11:49:51Z</time></trkpt><trkpt lat="43.620883030866715" lon="10.632947305370939"><ele>25.0</ele><time>2026-04-17T11:49:52Z</time></trkpt><trkpt lat="43.620915676547575" lon="10.632836227238398"><ele>25.0</ele><time>2026-04-17T11:49:53Z</time></trkpt><trkpt lat="43.620946504602905" lon="10.632736589798338"><ele>25.0</ele><time>2026-04-17T11:49:54Z</time></trkpt><trkpt lat="43.62097879958085" lon="10.63263503984575"><ele>25.000000000000004</ele><time>2026-04-17T11:49:55Z</time></trkpt><trkpt lat="43.6210139384176" lon="10.632538273491516"><ele>25.0</ele><time>2026-04-17T11:49:56Z</time></trkpt><trkpt lat="43.621049863027274" lon="10.632432488741296"><ele>25.000000000000004</ele><time>2026-04-17T11:49:57Z</time></trkpt><trkpt lat="43.6210846100438" lon="10.632331046837255"><ele>25.0</ele><time>2026-04-17T11:49:58Z</time></trkpt><trkpt lat="43.621116584746034" lon="10.632229410885783"><ele>25.0</ele><time>2026-04-17T11:49:59Z</time></trkpt><trkpt lat="43.621147942092136" lon="10.632130180218343"><ele>25.0</ele><time>2026-04-17T11:50:00Z</time></trkpt><trkpt lat="43.62117596632864" lon="10.632036916029982"><ele>25.000000000000004</ele><time>2026-04-17T11:50:01Z</time></trkpt><trkpt lat="43.62120472962546" lon="10.631945229212848"><ele>25.0</ele><time>2026-04-17T11:50:02Z</time></trkpt><trkpt lat="43.621233156666364" lon="10.631859574305695"><ele>24.8</ele><time>2026-04-17T11:50:03Z</time></trkpt><trkpt lat="43.621259710225466" lon="10.631774934960733"><ele>24.6</ele><time>2026-04-17T11:50:04Z</time></trkpt><trkpt lat="43.62128352804647" lon="10.631692034453307"><ele>24.4</ele><time>2026-04-17T11:50:05Z</time></trkpt><trkpt lat="43.621326971979975" lon="10.631530445979456"><ele>24.2</ele><time>2026-04-17T11:50:07Z</time></trkpt><trkpt lat="43.62135395585388" lon="10.6313660015651"><ele>24.0</ele><time>2026-04-17T11:50:09Z</time></trkpt><trkpt lat="43.62132232896453" lon="10.631206624705474"><ele>24.0</ele><time>2026-04-17T11:50:11Z</time></trkpt><trkpt lat="43.621236871881706" lon="10.631080805265897"><ele>24.0</ele><time>2026-04-17T11:50:13Z</time></trkpt><trkpt lat="43.62117406122398" lon="10.631030035041826"><ele>24.0</ele><time>2026-04-17T11:50:14Z</time></trkpt><trkpt lat="43.62110598831757" lon="10.63097936166917"><ele>24.0</ele><time>2026-04-17T11:50:15Z</time></trkpt><trkpt lat="43.62103683891912" lon="10.630926931230146"><ele>24.0</ele><time>2026-04-17T11:50:16Z</time></trkpt><trkpt lat="43.62096789028767" lon="10.63087866717725"><ele>24.0</ele><time>2026-04-17T11:50:17Z</time></trkpt><trkpt lat="43.620913024589996" lon="10.630832955569183"><ele>24.2</ele><time>2026-04-17T11:50:18Z</time></trkpt><trkpt lat="43.62082456703383" lon="10.630779431971742"><ele>24.4</ele><time>2026-04-17T11:50:20Z</time></trkpt><trkpt lat="43.62084317640508" lon="10.630591705598452"><ele>24.6</ele><time>2026-04-17T11:50:22Z</time></trkpt><trkpt lat="43.62091430621472" lon="10.630439693255548"><ele>24.8</ele><time>2026-04-17T11:50:24Z</time></trkpt><trkpt lat="43.62096505718961" lon="10.630365076636787"><ele>25.0</ele><time>2026-04-17T11:50:25Z</time></trkpt><trkpt lat="43.62102181548099" lon="10.630306826660329"><ele>25.000000000000004</ele><time>2026-04-17T11:50:26Z</time></trkpt><trkpt lat="43.621084677646586" lon="10.630254555113865"><ele>25.0</ele><time>2026-04-17T11:50:27Z</time></trkpt><trkpt lat="43.621159529922366" lon="10.630199844489749"><ele>25.0</ele><time>2026-04-17T11:50:28Z</time></trkpt><trkpt lat="43.621244096301126" lon="10.630136866961054"><ele>25.0</ele><time>2026-04-17T11:50:29Z</time></trkpt><trkpt lat="43.62133481124804" lon="10.630095667366275"><ele>25.000000000000004</ele><time>2026-04-17T11:50:30Z</time></trkpt><trkpt lat="43.62142911746732" lon="10.630054950920272"><ele>25.0</ele><time>2026-04-17T11:50:31Z</time></trkpt><trkpt lat="43.6215160764681" lon="10.630030142031469"><ele>24.8</ele><time>2026-04-17T11:50:32Z</time></trkpt><trkpt lat="43.621604771110334" lon="10.630012494832371"><ele>24.6</ele><time>2026-04-17T11:50:33Z</time></trkpt><trkpt lat="43.621698094233814" lon="10.629996674109547"><ele>24.4</ele><time>2026-04-17T11:50:34Z</time></trkpt><trkpt lat="43.62179150076176" lon="10.629987143933388"><ele>24.2</ele><time>2026-04-17T11:50:35Z</time></trkpt><trkpt lat="43.621883467377614" lon="10.629983672346537"><ele>24.0</ele><time>2026-04-17T11:50:36Z</time></trkpt><trkpt lat="43.62197001627586" lon="10.629983350901226"><ele>24.0</ele><time>2026-04-17T11:50:37Z</time></trkpt><trkpt lat="43.62205499587212" lon="10.62997974294474"><ele>24.0</ele><time>2026-04-17T11:50:38Z</time></trkpt><trkpt lat="43.62213730857108" lon="10.629968842748557"><ele>24.0</ele><time>2026-04-17T11:50:39Z</time></trkpt><trkpt lat="43.62221426879568" lon="10.629954576968501"><ele>24.0</ele><time>2026-04-17T11:50:40Z</time></trkpt><trkpt lat="43.622292936124985" lon="10.629940167555372"><ele>24.0</ele><time>2026-04-17T11:50:41Z</time></trkpt><trkpt lat="43.62237208874144" lon="10.629935340004213"><ele>24.0</ele><time>2026-04-17T11:50:42Z</time></trkpt><trkpt lat="43.622474890228794" lon="10.629915279331305"><ele>24.0</ele><time>2026-04-17T11:50:43Z</time></trkpt><trkpt lat="43.62257201535998" lon="10.629903446777766"><ele>24.0</ele><time>2026-04-17T11:50:44Z</time></trkpt><trkpt lat="43.62268061089444" lon="10.629894846465858"><ele>24.0</ele><time>2026-04-17T11:50:45Z</time></trkpt><trkpt lat="43.62278839006118" lon="10.629890030221848"><ele>24.0</ele><time>2026-04-17T11:50:46Z</time></trkpt><trkpt lat="43.622887167190086" lon="10.629881883070357"><ele>24.0</ele><time>2026-04-17T11:50:47Z</time></trkpt><trkpt lat="43.6229840816986" lon="10.629869925607228"><ele>24.0</ele><time>2026-04-17T11:50:48Z</time></trkpt><trkpt lat="43.62308683082546" lon="10.629864109237209"><ele>24.0</ele><time>2026-04-17T11:50:49Z</time></trkpt><trkpt lat="43.62319892214536" lon="10.629852265678455"><ele>24.0</ele><time>2026-04-17T11:50:50Z</time></trkpt><trkpt lat="43.62331799096101" lon="10.629849968297336"><ele>24.0</ele><time>2026-04-17T11:50:51Z</time></trkpt><trkpt lat="43.623424996591055" lon="10.629849920902322"><ele>24.0</ele><time>2026-04-17T11:50:52Z</time></trkpt><trkpt lat="43.62353628997136" lon="10.629836487198938"><ele>24.0</ele><time>2026-04-17T11:50:53Z</time></trkpt><trkpt lat="43.6236468299506" lon="10.629825615499088"><ele>24.0</ele><time>2026-04-17T11:50:54Z</time></trkpt><trkpt lat="43.62375979863835" lon="10.629809961540008"><ele>24.0</ele><time>2026-04-17T11:50:55Z</time></trkpt><trkpt lat="43.623869464142956" lon="10.62980025299466"><ele>24.0</ele><time>2026-04-17T11:50:56Z</time></trkpt><trkpt lat="43.62397922079841" lon="10.629788583167286"><ele>24.0</ele><time>2026-04-17T11:50:57Z</time></trkpt><trkpt lat="43.62408664886986" lon="10.629776866298636"><ele>24.0</ele><time>2026-04-17T11:50:58Z</time></trkpt><trkpt lat="43.624192608192665" lon="10.629764668050777"><ele>24.0</ele><time>2026-04-17T11:50:59Z</time></trkpt><trkpt lat="43.62430440286066" lon="10.629755608979806"><ele>24.0</ele><time>2026-04-17T11:51:00Z</time></trkpt><trkpt lat="43.62442622049518" lon="10.629747271081515"><ele>24.0</ele><time>2026-04-17T11:51:01Z</time></trkpt><trkpt lat="43.62455435540618" lon="10.62973008662607"><ele>24.0</ele><time>2026-04-17T11:51:02Z</time></trkpt><trkpt lat="43.62468960769142" lon="10.629710690300175"><ele>24.0</ele><time>2026-04-17T11:51:03Z</time></trkpt><trkpt lat="43.62483245270139" lon="10.629692123940474"><ele>24.0</ele><time>2026-04-17T11:51:04Z</time></trkpt><trkpt lat="43.624977031613284" lon="10.629674798036042"><ele>24.0</ele><time>2026-04-17T11:51:05Z</time></trkpt><trkpt lat="43.625122044523195" lon="10.62966398940899"><ele>24.0</ele><time>2026-04-17T11:51:06Z</time></trkpt><trkpt lat="43.625264624826784" lon="10.629650779046491"><ele>24.0</ele><time>2026-04-17T11:51:07Z</time></trkpt><trkpt lat="43.62540569371426" lon="10.629634450375173"><ele>24.0</ele><time>2026-04-17T11:51:08Z</time></trkpt><trkpt lat="43.62554557216786" lon="10.629618666944335"><ele>24.0</ele><time>2026-04-17T11:51:09Z</time></trkpt><trkpt lat="43.625683751632174" lon="10.62960186245812"><ele>24.0</ele><time>2026-04-17T11:51:10Z</time></trkpt><trkpt lat="43.62582231468208" lon="10.629591783792517"><ele>24.0</ele><time>2026-04-17T11:51:11Z</time></trkpt><trkpt lat="43.625964318971" lon="10.629577338898429"><ele>24.0</ele><time>2026-04-17T11:51:12Z</time></trkpt><trkpt lat="43.626109333303646" lon="10.629560772203186"><ele>24.0</ele><time>2026-04-17T11:51:13Z</time></trkpt><trkpt lat="43.6262569278885" lon="10.629543476639878"><ele>23.5</ele><time>2026-04-17T11:51:14Z</time></trkpt><trkpt lat="43.62640560607604" lon="10.629527488990158"><ele>23.0</ele><time>2026-04-17T11:51:15Z</time></trkpt><trkpt lat="43.62654718148372" lon="10.629509896443778"><ele>22.5</ele><time>2026-04-17T11:51:16Z</time></trkpt><trkpt lat="43.62669097916378" lon="10.629497434679633"><ele>22.0</ele><time>2026-04-17T11:51:17Z</time></trkpt><trkpt lat="43.62683320020116" lon="10.629480361761749"><ele>22.0</ele><time>2026-04-17T11:51:18Z</time></trkpt><trkpt lat="43.626977216397506" lon="10.629467826899226"><ele>22.0</ele><time>2026-04-17T11:51:19Z</time></trkpt><trkpt lat="43.627121797118605" lon="10.629458356078386"><ele>22.0</ele><time>2026-04-17T11:51:20Z</time></trkpt><trkpt lat="43.627259567173695" lon="10.629441467978856"><ele>22.0</ele><time>2026-04-17T11:51:21Z</time></trkpt><trkpt lat="43.6274020464208" lon="10.629425850729397"><ele>22.0</ele><time>2026-04-17T11:51:22Z</time></trkpt><trkpt lat="43.6275468548753" lon="10.629416990678074"><ele>22.0</ele><time>2026-04-17T11:51:23Z</time></trkpt><trkpt lat="43.627695118733776" lon="10.629409512292238"><ele>22.0</ele><time>2026-04-17T11:51:24Z</time></trkpt><trkpt lat="43.62784584707222" lon="10.629394610868719"><ele>22.0</ele><time>2026-04-17T11:51:25Z</time></trkpt><trkpt lat="43.62799310622242" lon="10.629379567299011"><ele>22.0</ele><time>2026-04-17T11:51:26Z</time></trkpt><trkpt lat="43.628139992817225" lon="10.62936300251835"><ele>22.0</ele><time>2026-04-17T11:51:27Z</time></trkpt><trkpt lat="43.628283574934265" lon="10.629348631469838"><ele>22.0</ele><time>2026-04-17T11:51:28Z</time></trkpt><trkpt lat="43.62842563624831" lon="10.629334881494543"><ele>22.0</ele><time>2026-04-17T11:51:29Z</time></trkpt><trkpt lat="43.62856652631653" lon="10.629324383461002"><ele>22.0</ele><time>2026-04-17T11:51:30Z</time></trkpt><trkpt lat="43.62870347497011" lon="10.629311458676083"><ele>22.0</ele><time>2026-04-17T11:51:31Z</time></trkpt><trkpt lat="43.62883716036416" lon="10.629297241087905"><ele>22.0</ele><time>2026-04-17T11:51:32Z</time></trkpt><trkpt lat="43.62896955725374" lon="10.629282519302212"><ele>22.0</ele><time>2026-04-17T11:51:33Z</time></trkpt><trkpt lat="43.62909756871846" lon="10.629270938963641"><ele>22.0</ele><time>2026-04-17T11:51:34Z</time></trkpt><trkpt lat="43.62919651933945" lon="10.62926663549051"><ele>22.0</ele><time>2026-04-17T11:51:35Z</time></trkpt><trkpt lat="43.629266861509926" lon="10.62926361417841"><ele>22.0</ele><time>2026-04-17T11:51:36Z</time></trkpt><trkpt lat="43.629352231480965" lon="10.629250720007798"><ele>22.0</ele><time>2026-04-17T11:51:38Z</time></trkpt><trkpt lat="43.62941547249543" lon="10.629240375076535"><ele>22.0</ele><time>2026-04-17T11:51:44Z</time></trkpt><trkpt lat="43.629492375360876" lon="10.629231709668378"><ele>22.0</ele><time>2026-04-17T11:51:49Z</time></trkpt><trkpt lat="43.6295668938918" lon="10.629228887180773"><ele>21.6</ele><time>2026-04-17T11:52:07Z</time></trkpt><trkpt lat="43.629639480440474" lon="10.629224540969297"><ele>21.200000000000003</ele><time>2026-04-17T11:52:08.999Z</time></trkpt><trkpt lat="43.62974120489985" lon="10.629216322971917"><ele>20.8</ele><time>2026-04-17T11:52:10.999Z</time></trkpt><trkpt lat="43.629856004016496" lon="10.629204741455146"><ele>20.4</ele><time>2026-04-17T11:52:12.999Z</time></trkpt><trkpt lat="43.6299871098041" lon="10.629190903580357"><ele>20.0</ele><time>2026-04-17T11:52:14.999Z</time></trkpt><trkpt lat="43.63006075458378" lon="10.629183010553804"><ele>20.0</ele><time>2026-04-17T11:52:15.999Z</time></trkpt><trkpt lat="43.630135984848444" lon="10.629175694431169"><ele>20.0</ele><time>2026-04-17T11:52:16.999Z</time></trkpt><trkpt lat="43.63021814217867" lon="10.629167866854111"><ele>20.0</ele><time>2026-04-17T11:52:17.999Z</time></trkpt><trkpt lat="43.63030690788427" lon="10.629161400121719"><ele>20.0</ele><time>2026-04-17T11:52:18.999Z</time></trkpt><trkpt lat="43.63040224462154" lon="10.629149214250903"><ele>20.0</ele><time>2026-04-17T11:52:19.999Z</time></trkpt><trkpt lat="43.630499422454896" lon="10.629136236777535"><ele>20.0</ele><time>2026-04-17T11:52:20.999Z</time></trkpt><trkpt lat="43.63059704014603" lon="10.629121913643294"><ele>20.0</ele><time>2026-04-17T11:52:21.999Z</time></trkpt><trkpt lat="43.63070063631182" lon="10.629112217284092"><ele>20.0</ele><time>2026-04-17T11:52:22.999Z</time></trkpt><trkpt lat="43.63080661062715" lon="10.629104902257314"><ele>20.0</ele><time>2026-04-17T11:52:23.999Z</time></trkpt><trkpt lat="43.63091338715029" lon="10.629092331708815"><ele>20.0</ele><time>2026-04-17T11:52:24.999Z</time></trkpt><trkpt lat="43.63102000180908" lon="10.62908258368055"><ele>20.0</ele><time>2026-04-17T11:52:25.999Z</time></trkpt><trkpt lat="43.63112622390219" lon="10.629070837356721"><ele>20.2</ele><time>2026-04-17T11:52:26.999Z</time></trkpt><trkpt lat="43.631229187580814" lon="10.629060099271083"><ele>20.4</ele><time>2026-04-17T11:52:27.999Z</time></trkpt><trkpt lat="43.631329775189116" lon="10.629050060173444"><ele>20.6</ele><time>2026-04-17T11:52:29Z</time></trkpt><trkpt lat="43.63142774755854" lon="10.62903869861768"><ele>20.8</ele><time>2026-04-17T11:52:30Z</time></trkpt><trkpt lat="43.63152039157361" lon="10.629034010375388"><ele>21.0</ele><time>2026-04-17T11:52:31Z</time></trkpt><trkpt lat="43.631616301006325" lon="10.629024120921663"><ele>21.0</ele><time>2026-04-17T11:52:32Z</time></trkpt><trkpt lat="43.63171815698188" lon="10.629013256222057"><ele>21.0</ele><time>2026-04-17T11:52:33Z</time></trkpt><trkpt lat="43.631823850355765" lon="10.629001340171325"><ele>21.0</ele><time>2026-04-17T11:52:34Z</time></trkpt><trkpt lat="43.63193333867578" lon="10.62899013567276"><ele>21.0</ele><time>2026-04-17T11:52:35Z</time></trkpt><trkpt lat="43.63204590048354" lon="10.628977511170609"><ele>21.0</ele><time>2026-04-17T11:52:36Z</time></trkpt><trkpt lat="43.63216409849229" lon="10.628966355063326"><ele>20.75</ele><time>2026-04-17T11:52:37Z</time></trkpt><trkpt lat="43.632286661304114" lon="10.628954792854898"><ele>20.5</ele><time>2026-04-17T11:52:38Z</time></trkpt><trkpt lat="43.63241030319797" lon="10.628942123606988"><ele>20.25</ele><time>2026-04-17T11:52:39Z</time></trkpt><trkpt lat="43.63253810015732" lon="10.628927417726846"><ele>20.0</ele><time>2026-04-17T11:52:40Z</time></trkpt><trkpt lat="43.632670124996814" lon="10.62891439426532"><ele>20.0</ele><time>2026-04-17T11:52:41Z</time></trkpt><trkpt lat="43.63280282000259" lon="10.62890019942843"><ele>20.0</ele><time>2026-04-17T11:52:42Z</time></trkpt><trkpt lat="43.63293805868513" lon="10.628886036743559"><ele>20.0</ele><time>2026-04-17T11:52:43Z</time></trkpt><trkpt lat="43.63307640999713" lon="10.628870585406014"><ele>20.0</ele><time>2026-04-17T11:52:44Z</time></trkpt><trkpt lat="43.63321381066917" lon="10.628853977781194"><ele>19.75</ele><time>2026-04-17T11:52:45Z</time></trkpt><trkpt lat="43.63335114009563" lon="10.628841469710915"><ele>19.5</ele><time>2026-04-17T11:52:46Z</time></trkpt><trkpt lat="43.63349125383024" lon="10.628827946080445"><ele>19.25</ele><time>2026-04-17T11:52:47Z</time></trkpt><trkpt lat="43.63363399565119" lon="10.628811605132588"><ele>19.0</ele><time>2026-04-17T11:52:48Z</time></trkpt><trkpt lat="43.633772766222684" lon="10.628798568017402"><ele>19.5</ele><time>2026-04-17T11:52:49Z</time></trkpt><trkpt lat="43.633909624869446" lon="10.628786468519092"><ele>20.0</ele><time>2026-04-17T11:52:50Z</time></trkpt><trkpt lat="43.63404356052499" lon="10.628773570076548"><ele>20.5</ele><time>2026-04-17T11:52:51Z</time></trkpt><trkpt lat="43.63417258800461" lon="10.628762896406101"><ele>21.0</ele><time>2026-04-17T11:52:52Z</time></trkpt><trkpt lat="43.63429136751307" lon="10.62875331265087"><ele>21.0</ele><time>2026-04-17T11:52:53Z</time></trkpt><trkpt lat="43.63440523962984" lon="10.628741588575169"><ele>21.0</ele><time>2026-04-17T11:52:54Z</time></trkpt><trkpt lat="43.63451306653739" lon="10.628729205334086"><ele>21.0</ele><time>2026-04-17T11:52:55Z</time></trkpt><trkpt lat="43.634613089212024" lon="10.628721058830884"><ele>21.0</ele><time>2026-04-17T11:52:56Z</time></trkpt><trkpt lat="43.634683216280685" lon="10.628714845411874"><ele>21.0</ele><time>2026-04-17T11:52:57Z</time></trkpt><trkpt lat="43.634787002748226" lon="10.628700560697078"><ele>20.8</ele><time>2026-04-17T11:52:59Z</time></trkpt><trkpt lat="43.634857178800225" lon="10.628694107474717"><ele>20.6</ele><time>2026-04-17T11:53:00Z</time></trkpt><trkpt lat="43.63494263439628" lon="10.628689536989807"><ele>20.4</ele><time>2026-04-17T11:53:01Z</time></trkpt><trkpt lat="43.63504424443789" lon="10.62868304535037"><ele>20.2</ele><time>2026-04-17T11:53:02Z</time></trkpt><trkpt lat="43.63515377096135" lon="10.628669648435421"><ele>20.0</ele><time>2026-04-17T11:53:03Z</time></trkpt><trkpt lat="43.63527368018925" lon="10.628656121465326"><ele>19.75</ele><time>2026-04-17T11:53:04Z</time></trkpt><trkpt lat="43.63540094114335" lon="10.628644148663277"><ele>19.5</ele><time>2026-04-17T11:53:05Z</time></trkpt><trkpt lat="43.635538110232375" lon="10.628631501603525"><ele>19.25</ele><time>2026-04-17T11:53:06Z</time></trkpt><trkpt lat="43.63568422842431" lon="10.628615217228685"><ele>19.0</ele><time>2026-04-17T11:53:07Z</time></trkpt><trkpt lat="43.63584130198855" lon="10.628601443142065"><ele>19.0</ele><time>2026-04-17T11:53:08Z</time></trkpt><trkpt lat="43.63600426977793" lon="10.62858692659951"><ele>19.0</ele><time>2026-04-17T11:53:09Z</time></trkpt><trkpt lat="43.636173216300946" lon="10.628569096805453"><ele>19.0</ele><time>2026-04-17T11:53:10Z</time></trkpt><trkpt lat="43.63634615231103" lon="10.628550878722312"><ele>18.666666666666664</ele><time>2026-04-17T11:53:11Z</time></trkpt><trkpt lat="43.63652501599281" lon="10.62853169614127"><ele>18.333333333333332</ele><time>2026-04-17T11:53:12Z</time></trkpt><trkpt lat="43.636703357405494" lon="10.628512588054365"><ele>18.0</ele><time>2026-04-17T11:53:13Z</time></trkpt><trkpt lat="43.636880873714574" lon="10.628493693409332"><ele>18.666666666666668</ele><time>2026-04-17T11:53:14Z</time></trkpt><trkpt lat="43.63705717653835" lon="10.62847646896443"><ele>19.333333333333336</ele><time>2026-04-17T11:53:15Z</time></trkpt><trkpt lat="43.63723174168966" lon="10.628459236183378"><ele>20.0</ele><time>2026-04-17T11:53:16Z</time></trkpt><trkpt lat="43.637405462662926" lon="10.628444044102901"><ele>20.0</ele><time>2026-04-17T11:53:17Z</time></trkpt><trkpt lat="43.63757999429984" lon="10.628426652442133"><ele>20.0</ele><time>2026-04-17T11:53:18Z</time></trkpt><trkpt lat="43.63775695488691" lon="10.628407866848999"><ele>20.0</ele><time>2026-04-17T11:53:19Z</time></trkpt><trkpt lat="43.63793476949353" lon="10.628392289150366"><ele>19.333333333333336</ele><time>2026-04-17T11:53:20Z</time></trkpt><trkpt lat="43.63811489884748" lon="10.628375354424646"><ele>18.666666666666668</ele><time>2026-04-17T11:53:21Z</time></trkpt><trkpt lat="43.63829960455553" lon="10.628354961299102"><ele>18.0</ele><time>2026-04-17T11:53:22Z</time></trkpt><trkpt lat="43.63848571700231" lon="10.628336946498928"><ele>17.666666666666668</ele><time>2026-04-17T11:53:23Z</time></trkpt><trkpt lat="43.63866953536119" lon="10.62831960982109"><ele>17.333333333333336</ele><time>2026-04-17T11:53:24Z</time></trkpt><trkpt lat="43.638855217454534" lon="10.628300891926894"><ele>17.0</ele><time>2026-04-17T11:53:25Z</time></trkpt><trkpt lat="43.63903991029596" lon="10.628282458163149"><ele>17.0</ele><time>2026-04-17T11:53:26Z</time></trkpt><trkpt lat="43.63922189978333" lon="10.62826422010653"><ele>17.0</ele><time>2026-04-17T11:53:27Z</time></trkpt><trkpt lat="43.63940384677683" lon="10.628248404794244"><ele>17.0</ele><time>2026-04-17T11:53:28Z</time></trkpt><trkpt lat="43.63958474850699" lon="10.628232593011486"><ele>17.333333333333336</ele><time>2026-04-17T11:53:29Z</time></trkpt><trkpt lat="43.639761066794115" lon="10.628222715463684"><ele>17.666666666666668</ele><time>2026-04-17T11:53:30Z</time></trkpt><trkpt lat="43.63993309949038" lon="10.628211264518288"><ele>18.0</ele><time>2026-04-17T11:53:31Z</time></trkpt><trkpt lat="43.64009509148915" lon="10.628187337557966"><ele>18.0</ele><time>2026-04-17T11:53:32Z</time></trkpt><trkpt lat="43.64025072648815" lon="10.628173319265859"><ele>18.0</ele><time>2026-04-17T11:53:33Z</time></trkpt><trkpt lat="43.64040070118522" lon="10.628159874408897"><ele>18.0</ele><time>2026-04-17T11:53:34Z</time></trkpt><trkpt lat="43.640548979149344" lon="10.628140781561832"><ele>18.5</ele><time>2026-04-17T11:53:35Z</time></trkpt><trkpt lat="43.64069650261402" lon="10.628123530195186"><ele>19.0</ele><time>2026-04-17T11:53:36Z</time></trkpt><trkpt lat="43.64083852553288" lon="10.628112617811174"><ele>19.5</ele><time>2026-04-17T11:53:37Z</time></trkpt><trkpt lat="43.640962855246606" lon="10.628101584325483"><ele>20.0</ele><time>2026-04-17T11:53:38Z</time></trkpt><trkpt lat="43.641079616500235" lon="10.628091491524756"><ele>20.0</ele><time>2026-04-17T11:53:39Z</time></trkpt><trkpt lat="43.64119185898877" lon="10.628076898255696"><ele>20.0</ele><time>2026-04-17T11:53:40Z</time></trkpt><trkpt lat="43.64130167449386" lon="10.628065842267874"><ele>20.0</ele><time>2026-04-17T11:53:41Z</time></trkpt><trkpt lat="43.64140944186454" lon="10.628059693796148"><ele>20.0</ele><time>2026-04-17T11:53:42Z</time></trkpt><trkpt lat="43.64151674684338" lon="10.628051439024837"><ele>20.0</ele><time>2026-04-17T11:53:43Z</time></trkpt><trkpt lat="43.64162611465628" lon="10.62804549810196"><ele>20.0</ele><time>2026-04-17T11:53:44Z</time></trkpt><trkpt lat="43.64173043458934" lon="10.628032916682749"><ele>20.0</ele><time>2026-04-17T11:53:45Z</time></trkpt><trkpt lat="43.64183417134154" lon="10.628020310216336"><ele>20.0</ele><time>2026-04-17T11:53:46Z</time></trkpt><trkpt lat="43.64193999115002" lon="10.628014414617422"><ele>20.0</ele><time>2026-04-17T11:53:47Z</time></trkpt><trkpt lat="43.64204198680713" lon="10.62801007243338"><ele>20.0</ele><time>2026-04-17T11:53:48Z</time></trkpt><trkpt lat="43.64214172795009" lon="10.628006747942575"><ele>19.8</ele><time>2026-04-17T11:53:49Z</time></trkpt><trkpt lat="43.64224012155234" lon="10.62800326874138"><ele>19.6</ele><time>2026-04-17T11:53:50Z</time></trkpt><trkpt lat="43.642337628856005" lon="10.628001712337717"><ele>19.4</ele><time>2026-04-17T11:53:51Z</time></trkpt><trkpt lat="43.64243876741131" lon="10.62800715126073"><ele>19.2</ele><time>2026-04-17T11:53:52Z</time></trkpt><trkpt lat="43.642548196949605" lon="10.62801503928543"><ele>19.0</ele><time>2026-04-17T11:53:53Z</time></trkpt><trkpt lat="43.64266299843732" lon="10.62802725332139"><ele>19.0</ele><time>2026-04-17T11:53:54Z</time></trkpt><trkpt lat="43.64278604815181" lon="10.628044724599903"><ele>19.0</ele><time>2026-04-17T11:53:55Z</time></trkpt><trkpt lat="43.64291146233885" lon="10.628064460202"><ele>19.0</ele><time>2026-04-17T11:53:56Z</time></trkpt><trkpt lat="43.64303805907521" lon="10.628085908524499"><ele>19.0</ele><time>2026-04-17T11:53:57Z</time></trkpt><trkpt lat="43.643168157224736" lon="10.62811602756412"><ele>18.75</ele><time>2026-04-17T11:53:58Z</time></trkpt><trkpt lat="43.64330092217629" lon="10.628152148182966"><ele>18.5</ele><time>2026-04-17T11:53:59Z</time></trkpt><trkpt lat="43.64342809751321" lon="10.628185664185832"><ele>18.25</ele><time>2026-04-17T11:54:00Z</time></trkpt><trkpt lat="43.643565460088794" lon="10.62822768466076"><ele>18.0</ele><time>2026-04-17T11:54:01Z</time></trkpt><trkpt lat="43.643707097045656" lon="10.6282669464447"><ele>17.75</ele><time>2026-04-17T11:54:02Z</time></trkpt><trkpt lat="43.6438457507474" lon="10.628309224259885"><ele>17.5</ele><time>2026-04-17T11:54:03Z</time></trkpt><trkpt lat="43.64398488643193" lon="10.628350044687606"><ele>17.25</ele><time>2026-04-17T11:54:04Z</time></trkpt><trkpt lat="43.64412105999264" lon="10.628391171448063"><ele>17.0</ele><time>2026-04-17T11:54:05Z</time></trkpt><trkpt lat="43.644263009485286" lon="10.62843320156573"><ele>17.0</ele><time>2026-04-17T11:54:06Z</time></trkpt><trkpt lat="43.64440472560549" lon="10.628471845322546"><ele>17.0</ele><time>2026-04-17T11:54:07Z</time></trkpt><trkpt lat="43.64454403821395" lon="10.62850445181821"><ele>17.0</ele><time>2026-04-17T11:54:08Z</time></trkpt><trkpt lat="43.64468024073163" lon="10.628549355182752"><ele>17.0</ele><time>2026-04-17T11:54:09Z</time></trkpt><trkpt lat="43.64481768804952" lon="10.628590462285677"><ele>16.75</ele><time>2026-04-17T11:54:10Z</time></trkpt><trkpt lat="43.64495689520908" lon="10.628629795883805"><ele>16.5</ele><time>2026-04-17T11:54:11Z</time></trkpt><trkpt lat="43.645099617283186" lon="10.628670524465667"><ele>16.25</ele><time>2026-04-17T11:54:12Z</time></trkpt><trkpt lat="43.64524131790244" lon="10.628709267349112"><ele>16.0</ele><time>2026-04-17T11:54:13Z</time></trkpt><trkpt lat="43.6453816971994" lon="10.628749420608424"><ele>16.0</ele><time>2026-04-17T11:54:13.999Z</time></trkpt><trkpt lat="43.645520394036566" lon="10.628789799177941"><ele>16.0</ele><time>2026-04-17T11:54:14.999Z</time></trkpt><trkpt lat="43.64565812312831" lon="10.6288316537296"><ele>16.0</ele><time>2026-04-17T11:54:15.999Z</time></trkpt><trkpt lat="43.645797358026606" lon="10.628873443061629"><ele>16.0</ele><time>2026-04-17T11:54:16.999Z</time></trkpt><trkpt lat="43.645938574378796" lon="10.628915662630462"><ele>16.0</ele><time>2026-04-17T11:54:17.999Z</time></trkpt><trkpt lat="43.64608371748088" lon="10.628958550700844"><ele>16.0</ele><time>2026-04-17T11:54:18.999Z</time></trkpt><trkpt lat="43.64622499188647" lon="10.62899736461189"><ele>16.0</ele><time>2026-04-17T11:54:19.999Z</time></trkpt><trkpt lat="43.646363832081654" lon="10.629037918483567"><ele>16.0</ele><time>2026-04-17T11:54:20.999Z</time></trkpt><trkpt lat="43.64649989783619" lon="10.629077630389656"><ele>16.0</ele><time>2026-04-17T11:54:21.999Z</time></trkpt><trkpt lat="43.64663697586357" lon="10.629118295774203"><ele>16.0</ele><time>2026-04-17T11:54:22.999Z</time></trkpt><trkpt lat="43.646776312637925" lon="10.629160000899263"><ele>16.0</ele><time>2026-04-17T11:54:23.999Z</time></trkpt><trkpt lat="43.64692136036582" lon="10.629212721877897"><ele>16.0</ele><time>2026-04-17T11:54:24.999Z</time></trkpt><trkpt lat="43.64706355108687" lon="10.629251961765087"><ele>16.25</ele><time>2026-04-17T11:54:25.999Z</time></trkpt><trkpt lat="43.6472053774578" lon="10.62929302410312"><ele>16.5</ele><time>2026-04-17T11:54:26.999Z</time></trkpt><trkpt lat="43.64734495279442" lon="10.62933441407596"><ele>16.75</ele><time>2026-04-17T11:54:27.999Z</time></trkpt><trkpt lat="43.64748398929448" lon="10.629373503425066"><ele>17.0</ele><time>2026-04-17T11:54:28.999Z</time></trkpt><trkpt lat="43.647628141391266" lon="10.629415514396143"><ele>17.0</ele><time>2026-04-17T11:54:29.999Z</time></trkpt><trkpt lat="43.64776199373872" lon="10.629454009565533"><ele>17.0</ele><time>2026-04-17T11:54:30.999Z</time></trkpt><trkpt lat="43.647895289286105" lon="10.629492214093132"><ele>17.0</ele><time>2026-04-17T11:54:31.999Z</time></trkpt><trkpt lat="43.648027098349864" lon="10.629528943144157"><ele>17.0</ele><time>2026-04-17T11:54:32.999Z</time></trkpt><trkpt lat="43.648157651369274" lon="10.629566083101476"><ele>17.0</ele><time>2026-04-17T11:54:33.999Z</time></trkpt><trkpt lat="43.648284842971364" lon="10.62960137227786"><ele>17.0</ele><time>2026-04-17T11:54:34.999Z</time></trkpt><trkpt lat="43.64841077751944" lon="10.629638191575838"><ele>17.0</ele><time>2026-04-17T11:54:35.999Z</time></trkpt><trkpt lat="43.64853647768659" lon="10.629673042344882"><ele>17.0</ele><time>2026-04-17T11:54:36.999Z</time></trkpt><trkpt lat="43.648662036982124" lon="10.629710927714084"><ele>17.0</ele><time>2026-04-17T11:54:37.999Z</time></trkpt><trkpt lat="43.64878968109389" lon="10.62974753964833"><ele>17.0</ele><time>2026-04-17T11:54:38.999Z</time></trkpt><trkpt lat="43.648917693355244" lon="10.629784905037232"><ele>17.0</ele><time>2026-04-17T11:54:40Z</time></trkpt><trkpt lat="43.649042316930036" lon="10.629823144749992"><ele>17.0</ele><time>2026-04-17T11:54:41Z</time></trkpt><trkpt lat="43.649167788875005" lon="10.629858766480769"><ele>17.0</ele><time>2026-04-17T11:54:42Z</time></trkpt><trkpt lat="43.64929058885341" lon="10.629893183253149"><ele>17.0</ele><time>2026-04-17T11:54:43Z</time></trkpt><trkpt lat="43.64941319667345" lon="10.629925148999671"><ele>17.0</ele><time>2026-04-17T11:54:44Z</time></trkpt><trkpt lat="43.649537271321734" lon="10.629958033662792"><ele>17.0</ele><time>2026-04-17T11:54:45Z</time></trkpt><trkpt lat="43.64966018856441" lon="10.629993312193719"><ele>16.75</ele><time>2026-04-17T11:54:46Z</time></trkpt><trkpt lat="43.649780932649364" lon="10.6300296283373"><ele>16.5</ele><time>2026-04-17T11:54:47Z</time></trkpt><trkpt lat="43.64989673110065" lon="10.630062704174748"><ele>16.25</ele><time>2026-04-17T11:54:48Z</time></trkpt><trkpt lat="43.6500041318744" lon="10.630093909245552"><ele>16.0</ele><time>2026-04-17T11:54:49Z</time></trkpt><trkpt lat="43.650109181076246" lon="10.630122313446634"><ele>16.0</ele><time>2026-04-17T11:54:50Z</time></trkpt><trkpt lat="43.650206288738104" lon="10.630145205232438"><ele>16.0</ele><time>2026-04-17T11:54:51Z</time></trkpt><trkpt lat="43.65029704161738" lon="10.630165231641838"><ele>16.0</ele><time>2026-04-17T11:54:52Z</time></trkpt><trkpt lat="43.65038795302116" lon="10.6301889285974"><ele>16.0</ele><time>2026-04-17T11:54:53Z</time></trkpt><trkpt lat="43.65048722415717" lon="10.630187228577178"><ele>16.0</ele><time>2026-04-17T11:54:54Z</time></trkpt><trkpt lat="43.65058901603117" lon="10.630224554381815"><ele>16.0</ele><time>2026-04-17T11:54:55Z</time></trkpt><trkpt lat="43.6506973187455" lon="10.630199303517124"><ele>16.0</ele><time>2026-04-17T11:54:56Z</time></trkpt><trkpt lat="43.650805766143044" lon="10.630143650273311"><ele>16.0</ele><time>2026-04-17T11:54:57Z</time></trkpt><trkpt lat="43.65091456786308" lon="10.63006200582092"><ele>16.0</ele><time>2026-04-17T11:54:58Z</time></trkpt><trkpt lat="43.651027744573895" lon="10.629978384157466"><ele>15.75</ele><time>2026-04-17T11:54:59Z</time></trkpt><trkpt lat="43.651127901106776" lon="10.629862760797327"><ele>15.5</ele><time>2026-04-17T11:55:00Z</time></trkpt><trkpt lat="43.651262822463366" lon="10.629786769504326"><ele>15.25</ele><time>2026-04-17T11:55:01Z</time></trkpt><trkpt lat="43.651378957445274" lon="10.629677560442525"><ele>15.0</ele><time>2026-04-17T11:55:02Z</time></trkpt><trkpt lat="43.651485767320224" lon="10.629562625216007"><ele>14.75</ele><time>2026-04-17T11:55:03Z</time></trkpt><trkpt lat="43.651586996887204" lon="10.629446944180163"><ele>14.5</ele><time>2026-04-17T11:55:04Z</time></trkpt><trkpt lat="43.651688174057035" lon="10.629336977985064"><ele>14.25</ele><time>2026-04-17T11:55:05Z</time></trkpt><trkpt lat="43.651787591860874" lon="10.629230863437185"><ele>14.0</ele><time>2026-04-17T11:55:06Z</time></trkpt><trkpt lat="43.65188737411874" lon="10.629126303977825"><ele>14.0</ele><time>2026-04-17T11:55:07Z</time></trkpt><trkpt lat="43.65198404128138" lon="10.62902363993371"><ele>14.0</ele><time>2026-04-17T11:55:08Z</time></trkpt><trkpt lat="43.65208077353187" lon="10.628923894001145"><ele>14.0</ele><time>2026-04-17T11:55:09Z</time></trkpt><trkpt lat="43.65217694192177" lon="10.628821205845183"><ele>14.0</ele><time>2026-04-17T11:55:10Z</time></trkpt><trkpt lat="43.65226988888273" lon="10.62872071215064"><ele>13.75</ele><time>2026-04-17T11:55:11Z</time></trkpt><trkpt lat="43.65236139405077" lon="10.628621244362716"><ele>13.5</ele><time>2026-04-17T11:55:12Z</time></trkpt><trkpt lat="43.652449534748406" lon="10.628520981478353"><ele>13.25</ele><time>2026-04-17T11:55:13Z</time></trkpt><trkpt lat="43.652536160820304" lon="10.628421604149725"><ele>13.0</ele><time>2026-04-17T11:55:14Z</time></trkpt><trkpt lat="43.65262300080318" lon="10.628329157764192"><ele>13.0</ele><time>2026-04-17T11:55:15Z</time></trkpt><trkpt lat="43.65270329189483" lon="10.62825150677202"><ele>13.0</ele><time>2026-04-17T11:55:16.001Z</time></trkpt><trkpt lat="43.65276632659908" lon="10.628199568607165"><ele>13.0</ele><time>2026-04-17T11:55:17.001Z</time></trkpt><trkpt lat="43.65287240447992" lon="10.628128263409186"><ele>13.0</ele><time>2026-04-17T11:55:19.001Z</time></trkpt><trkpt lat="43.65298228778181" lon="10.628083972208964"><ele>13.0</ele><time>2026-04-17T11:55:21.001Z</time></trkpt><trkpt lat="43.65309717293742" lon="10.628043979805136"><ele>12.999999999999998</ele><time>2026-04-17T11:55:23.001Z</time></trkpt><trkpt lat="43.653173746887575" lon="10.628062078458369"><ele>13.0</ele><time>2026-04-17T11:55:24.001Z</time></trkpt><trkpt lat="43.653255505128506" lon="10.628052469294975"><ele>13.0</ele><time>2026-04-17T11:55:25.001Z</time></trkpt><trkpt lat="43.65333313964199" lon="10.628026088490113"><ele>13.0</ele><time>2026-04-17T11:55:26.001Z</time></trkpt><trkpt lat="43.65340273375258" lon="10.627969406162368"><ele>12.999999999999998</ele><time>2026-04-17T11:55:27.001Z</time></trkpt><trkpt lat="43.65345962894017" lon="10.627878381806646"><ele>13.0</ele><time>2026-04-17T11:55:28.001Z</time></trkpt><trkpt lat="43.6534954359367" lon="10.627764236495196"><ele>13.0</ele><time>2026-04-17T11:55:29.001Z</time></trkpt><trkpt lat="43.653519205491875" lon="10.627634205161334"><ele>13.0</ele><time>2026-04-17T11:55:30.001Z</time></trkpt><trkpt lat="43.653539440079605" lon="10.62749196213713"><ele>13.0</ele><time>2026-04-17T11:55:31.001Z</time></trkpt><trkpt lat="43.653576933531255" lon="10.62735471006359"><ele>13.0</ele><time>2026-04-17T11:55:32.001Z</time></trkpt><trkpt lat="43.65364367867826" lon="10.62723727504716"><ele>13.0</ele><time>2026-04-17T11:55:33.001Z</time></trkpt><trkpt lat="43.653727356126964" lon="10.627140531735742"><ele>13.0</ele><time>2026-04-17T11:55:34.001Z</time></trkpt><trkpt lat="43.65381454793016" lon="10.627045584102104"><ele>13.0</ele><time>2026-04-17T11:55:35.001Z</time></trkpt><trkpt lat="43.65390414242344" lon="10.626952859082678"><ele>13.0</ele><time>2026-04-17T11:55:36.001Z</time></trkpt><trkpt lat="43.65399574115413" lon="10.626864107221115"><ele>13.0</ele><time>2026-04-17T11:55:37.001Z</time></trkpt><trkpt lat="43.654098645826" lon="10.626788282475877"><ele>13.2</ele><time>2026-04-17T11:55:38.001Z</time></trkpt><trkpt lat="43.65420300730683" lon="10.626729698635529"><ele>13.4</ele><time>2026-04-17T11:55:39.001Z</time></trkpt><trkpt lat="43.65430958769439" lon="10.626684433178852"><ele>13.599999999999998</ele><time>2026-04-17T11:55:40.001Z</time></trkpt><trkpt lat="43.65441619065357" lon="10.62665380150936"><ele>13.799999999999999</ele><time>2026-04-17T11:55:41.001Z</time></trkpt><trkpt lat="43.65451937331505" lon="10.62663127499396"><ele>14.0</ele><time>2026-04-17T11:55:42.001Z</time></trkpt><trkpt lat="43.65460894041254" lon="10.626615972175538"><ele>14.166666666666668</ele><time>2026-04-17T11:55:43.001Z</time></trkpt><trkpt lat="43.65468855510123" lon="10.626603853141662"><ele>14.333333333333334</ele><time>2026-04-17T11:55:44.001Z</time></trkpt><trkpt lat="43.65476178827628" lon="10.626615906923032"><ele>14.5</ele><time>2026-04-17T11:55:45.001Z</time></trkpt><trkpt lat="43.65483065311631" lon="10.62665884478733"><ele>14.666666666666668</ele><time>2026-04-17T11:55:46.001Z</time></trkpt><trkpt lat="43.65489423725309" lon="10.626721133491653"><ele>14.833333333333334</ele><time>2026-04-17T11:55:47.001Z</time></trkpt><trkpt lat="43.65496042031725" lon="10.626773501655695"><ele>15.0</ele><time>2026-04-17T11:55:48.001Z</time></trkpt><trkpt lat="43.65503964122093" lon="10.626790525387927"><ele>15.0</ele><time>2026-04-17T11:55:49.001Z</time></trkpt><trkpt lat="43.65512103837921" lon="10.626775638350116"><ele>15.0</ele><time>2026-04-17T11:55:50.001Z</time></trkpt><trkpt lat="43.65519785401219" lon="10.626718834552094"><ele>15.0</ele><time>2026-04-17T11:55:51.001Z</time></trkpt><trkpt lat="43.65524179871085" lon="10.626626739760283"><ele>15.0</ele><time>2026-04-17T11:55:52.001Z</time></trkpt><trkpt lat="43.655265062835305" lon="10.626527108978898"><ele>15.0</ele><time>2026-04-17T11:55:53.001Z</time></trkpt><trkpt lat="43.65527071192788" lon="10.626404037244182"><ele>15.0</ele><time>2026-04-17T11:55:55.001Z</time></trkpt><trkpt lat="43.65523917084192" lon="10.626267582681423"><ele>15.0</ele><time>2026-04-17T11:55:57.001Z</time></trkpt><trkpt lat="43.65526530504979" lon="10.62610955558933"><ele>15.0</ele><time>2026-04-17T11:55:59.001Z</time></trkpt><trkpt lat="43.65530666883259" lon="10.626019330859638"><ele>15.0</ele><time>2026-04-17T11:56:00.001Z</time></trkpt><trkpt lat="43.65534276990696" lon="10.625919215182481"><ele>15.0</ele><time>2026-04-17T11:56:01.001Z</time></trkpt><trkpt lat="43.65537110554719" lon="10.625798805542939"><ele>15.0</ele><time>2026-04-17T11:56:02.001Z</time></trkpt><trkpt lat="43.65539716755909" lon="10.62566544134653"><ele>15.0</ele><time>2026-04-17T11:56:03.001Z</time></trkpt><trkpt lat="43.655421831366226" lon="10.62552410100968"><ele>15.0</ele><time>2026-04-17T11:56:04.001Z</time></trkpt><trkpt lat="43.65544765793907" lon="10.625379229739476"><ele>15.0</ele><time>2026-04-17T11:56:05.001Z</time></trkpt><trkpt lat="43.655472454460444" lon="10.625230281924072"><ele>15.0</ele><time>2026-04-17T11:56:06.001Z</time></trkpt><trkpt lat="43.6554934950394" lon="10.625075481877586"><ele>15.0</ele><time>2026-04-17T11:56:07.001Z</time></trkpt><trkpt lat="43.65551157684269" lon="10.62491545734778"><ele>14.8</ele><time>2026-04-17T11:56:08.001Z</time></trkpt><trkpt lat="43.655531773286256" lon="10.62475752394622"><ele>14.6</ele><time>2026-04-17T11:56:09.001Z</time></trkpt><trkpt lat="43.655552149606976" lon="10.624604481336709"><ele>14.399999999999999</ele><time>2026-04-17T11:56:10.001Z</time></trkpt><trkpt lat="43.65556740838137" lon="10.624466196261382"><ele>14.2</ele><time>2026-04-17T11:56:11.001Z</time></trkpt><trkpt lat="43.65558217272659" lon="10.624334884484737"><ele>14.0</ele><time>2026-04-17T11:56:12.001Z</time></trkpt><trkpt lat="43.65559815734403" lon="10.624207406444397"><ele>13.6</ele><time>2026-04-17T11:56:13.001Z</time></trkpt><trkpt lat="43.65561552786591" lon="10.624085914502402"><ele>13.2</ele><time>2026-04-17T11:56:14.001Z</time></trkpt><trkpt lat="43.65564073388608" lon="10.623974375307556"><ele>12.799999999999999</ele><time>2026-04-17T11:56:15.001Z</time></trkpt><trkpt lat="43.65565709359858" lon="10.623875421584941"><ele>12.399999999999999</ele><time>2026-04-17T11:56:16.001Z</time></trkpt><trkpt lat="43.655668419715475" lon="10.62378317387055"><ele>12.0</ele><time>2026-04-17T11:56:17.001Z</time></trkpt><trkpt lat="43.655811388643436" lon="10.623738438306615"><ele>12.0</ele><time>2026-04-17T11:56:18.001Z</time></trkpt><trkpt lat="43.655876913032245" lon="10.623660485986852"><ele>12.0</ele><time>2026-04-17T11:56:19.001Z</time></trkpt><trkpt lat="43.655923715212566" lon="10.62355185552948"><ele>12.0</ele><time>2026-04-17T11:56:20Z</time></trkpt><trkpt lat="43.65593879531375" lon="10.623419316851708"><ele>12.0</ele><time>2026-04-17T11:56:21Z</time></trkpt><trkpt lat="43.65592032318848" lon="10.62327897063055"><ele>12.0</ele><time>2026-04-17T11:56:22Z</time></trkpt><trkpt lat="43.65586824700128" lon="10.62315658939714"><ele>12.0</ele><time>2026-04-17T11:56:23Z</time></trkpt><trkpt lat="43.65580311851686" lon="10.623067560676795"><ele>12.0</ele><time>2026-04-17T11:56:24Z</time></trkpt><trkpt lat="43.65580422755221" lon="10.622913501154319"><ele>12.0</ele><time>2026-04-17T11:56:25Z</time></trkpt><trkpt lat="43.655815024411766" lon="10.62277189186161"><ele>12.0</ele><time>2026-04-17T11:56:26Z</time></trkpt><trkpt lat="43.65584134095739" lon="10.622626991657002"><ele>12.0</ele><time>2026-04-17T11:56:27Z</time></trkpt><trkpt lat="43.655869638470485" lon="10.62247556939906"><ele>12.0</ele><time>2026-04-17T11:56:28Z</time></trkpt><trkpt lat="43.655894469998664" lon="10.622319895290037"><ele>12.0</ele><time>2026-04-17T11:56:29Z</time></trkpt><trkpt lat="43.65592159520391" lon="10.622158447307807"><ele>12.0</ele><time>2026-04-17T11:56:30Z</time></trkpt><trkpt lat="43.655948398949" lon="10.62199026223957"><ele>12.0</ele><time>2026-04-17T11:56:31Z</time></trkpt><trkpt lat="43.65597632929909" lon="10.621818338588982"><ele>12.0</ele><time>2026-04-17T11:56:32Z</time></trkpt><trkpt lat="43.65600424507932" lon="10.621652009173474"><ele>12.0</ele><time>2026-04-17T11:56:33Z</time></trkpt><trkpt lat="43.656031090777134" lon="10.621488571436608"><ele>12.0</ele><time>2026-04-17T11:56:34Z</time></trkpt><trkpt lat="43.65605890411227" lon="10.621330263208957"><ele>12.0</ele><time>2026-04-17T11:56:35Z</time></trkpt><trkpt lat="43.65608372720248" lon="10.621174871271418"><ele>11.8</ele><time>2026-04-17T11:56:36Z</time></trkpt><trkpt lat="43.65610690075318" lon="10.621023285646567"><ele>11.6</ele><time>2026-04-17T11:56:37Z</time></trkpt><trkpt lat="43.656128668759116" lon="10.620875024666917"><ele>11.4</ele><time>2026-04-17T11:56:38Z</time></trkpt><trkpt lat="43.65614626690265" lon="10.620740335782875"><ele>11.200000000000001</ele><time>2026-04-17T11:56:39Z</time></trkpt><trkpt lat="43.65616106242822" lon="10.620617747541122"><ele>11.0</ele><time>2026-04-17T11:56:40Z</time></trkpt><trkpt lat="43.65617720084631" lon="10.620482818569073"><ele>11.0</ele><time>2026-04-17T11:56:41Z</time></trkpt><trkpt lat="43.65620741602049" lon="10.620343213398558"><ele>11.0</ele><time>2026-04-17T11:56:42Z</time></trkpt><trkpt lat="43.65623811981582" lon="10.620206777165853"><ele>11.0</ele><time>2026-04-17T11:56:43Z</time></trkpt><trkpt lat="43.656265600904206" lon="10.620069686517663"><ele>11.0</ele><time>2026-04-17T11:56:44Z</time></trkpt><trkpt lat="43.65628946726322" lon="10.619916887064887"><ele>11.0</ele><time>2026-04-17T11:56:45Z</time></trkpt><trkpt lat="43.65631472589232" lon="10.619756644455357"><ele>11.0</ele><time>2026-04-17T11:56:46Z</time></trkpt><trkpt lat="43.65633997032478" lon="10.619587218274935"><ele>11.0</ele><time>2026-04-17T11:56:47Z</time></trkpt><trkpt lat="43.65636906410331" lon="10.619410614161112"><ele>11.0</ele><time>2026-04-17T11:56:48Z</time></trkpt><trkpt lat="43.65640032413429" lon="10.619232637756516"><ele>11.0</ele><time>2026-04-17T11:56:49Z</time></trkpt><trkpt lat="43.656430018158154" lon="10.6190616131882"><ele>11.0</ele><time>2026-04-17T11:56:50Z</time></trkpt><trkpt lat="43.65645675584578" lon="10.618893362003094"><ele>11.0</ele><time>2026-04-17T11:56:51Z</time></trkpt><trkpt lat="43.65648083361569" lon="10.61873534362176"><ele>11.0</ele><time>2026-04-17T11:56:52Z</time></trkpt><trkpt lat="43.65650154174604" lon="10.618605172349545"><ele>11.0</ele><time>2026-04-17T11:56:53Z</time></trkpt><trkpt lat="43.65652996157974" lon="10.618497065715664"><ele>11.0</ele><time>2026-04-17T11:56:54Z</time></trkpt><trkpt lat="43.65654754013345" lon="10.61840571995363"><ele>11.0</ele><time>2026-04-17T11:56:55Z</time></trkpt><trkpt lat="43.6566388784647" lon="10.618353246510067"><ele>11.0</ele><time>2026-04-17T11:56:56Z</time></trkpt><trkpt lat="43.65671499251175" lon="10.618301742869148"><ele>11.0</ele><time>2026-04-17T11:56:57Z</time></trkpt><trkpt lat="43.65679350641566" lon="10.618240240627783"><ele>11.0</ele><time>2026-04-17T11:56:58Z</time></trkpt><trkpt lat="43.65686232254099" lon="10.61815863074663"><ele>11.0</ele><time>2026-04-17T11:56:59Z</time></trkpt><trkpt lat="43.65690704546618" lon="10.618053830598582"><ele>11.0</ele><time>2026-04-17T11:57:00Z</time></trkpt><trkpt lat="43.65692328171554" lon="10.61792663626408"><ele>11.0</ele><time>2026-04-17T11:57:01Z</time></trkpt><trkpt lat="43.65691942833318" lon="10.617796093004689"><ele>11.0</ele><time>2026-04-17T11:57:02Z</time></trkpt><trkpt lat="43.6568865297224" lon="10.617671255114594"><ele>11.0</ele><time>2026-04-17T11:57:03Z</time></trkpt><trkpt lat="43.65683373128594" lon="10.617557284417451"><ele>11.0</ele><time>2026-04-17T11:57:04Z</time></trkpt><trkpt lat="43.6567815129738" lon="10.617449432083385"><ele>11.200000000000001</ele><time>2026-04-17T11:57:05Z</time></trkpt><trkpt lat="43.6567134410059" lon="10.617382032682604"><ele>11.4</ele><time>2026-04-17T11:57:06Z</time></trkpt><trkpt lat="43.65672926493349" lon="10.617204424259551"><ele>11.6</ele><time>2026-04-17T11:57:07Z</time></trkpt><trkpt lat="43.6567398215771" lon="10.617066494581431"><ele>11.8</ele><time>2026-04-17T11:57:08Z</time></trkpt><trkpt lat="43.65676125336925" lon="10.616924492856251"><ele>12.0</ele><time>2026-04-17T11:57:09Z</time></trkpt><trkpt lat="43.65678648335998" lon="10.616771695474865"><ele>12.0</ele><time>2026-04-17T11:57:10Z</time></trkpt><trkpt lat="43.65681280986762" lon="10.616608512703337"><ele>12.0</ele><time>2026-04-17T11:57:11Z</time></trkpt><trkpt lat="43.656840874272746" lon="10.616436893943698"><ele>12.0</ele><time>2026-04-17T11:57:12Z</time></trkpt><trkpt lat="43.65686985689378" lon="10.616257381762152"><ele>12.0</ele><time>2026-04-17T11:57:13Z</time></trkpt><trkpt lat="43.65689895611333" lon="10.61606993430521"><ele>11.75</ele><time>2026-04-17T11:57:14Z</time></trkpt><trkpt lat="43.65692871895305" lon="10.615874472478021"><ele>11.5</ele><time>2026-04-17T11:57:15Z</time></trkpt><trkpt lat="43.656958615548604" lon="10.615674852197092"><ele>11.25</ele><time>2026-04-17T11:57:16Z</time></trkpt><trkpt lat="43.65698798566279" lon="10.615474457672171"><ele>11.0</ele><time>2026-04-17T11:57:17Z</time></trkpt><trkpt lat="43.657019691973744" lon="10.615275424035337"><ele>11.75</ele><time>2026-04-17T11:57:18Z</time></trkpt><trkpt lat="43.657053930455305" lon="10.615081164006806"><ele>12.5</ele><time>2026-04-17T11:57:19Z</time></trkpt><trkpt lat="43.65708511433573" lon="10.614890938494579"><ele>13.25</ele><time>2026-04-17T11:57:20Z</time></trkpt><trkpt lat="43.6571141150928" lon="10.614702748812133"><ele>14.0</ele><time>2026-04-17T11:57:21.001Z</time></trkpt><trkpt lat="43.65714329015552" lon="10.614519798002174"><ele>13.799999999999999</ele><time>2026-04-17T11:57:22.001Z</time></trkpt><trkpt lat="43.657171363598025" lon="10.614345194308628"><ele>13.599999999999998</ele><time>2026-04-17T11:57:23.001Z</time></trkpt><trkpt lat="43.65719799750834" lon="10.614194810760313"><ele>13.4</ele><time>2026-04-17T11:57:24.001Z</time></trkpt><trkpt lat="43.65722509648141" lon="10.614072485291432"><ele>13.2</ele><time>2026-04-17T11:57:25.001Z</time></trkpt><trkpt lat="43.65725680450483" lon="10.613976060908294"><ele>13.0</ele><time>2026-04-17T11:57:26.001Z</time></trkpt><trkpt lat="43.65736481192618" lon="10.613833816797612"><ele>12.999999999999998</ele><time>2026-04-17T11:57:28.001Z</time></trkpt><trkpt lat="43.65742922637727" lon="10.613764016253363"><ele>13.0</ele><time>2026-04-17T11:57:29.001Z</time></trkpt><trkpt lat="43.65749578549864" lon="10.613694380304057"><ele>13.0</ele><time>2026-04-17T11:57:30.001Z</time></trkpt><trkpt lat="43.65753146821766" lon="10.613588443832725"><ele>13.0</ele><time>2026-04-17T11:57:31.001Z</time></trkpt><trkpt lat="43.65751530476967" lon="10.613456812172261"><ele>12.999999999999998</ele><time>2026-04-17T11:57:32.001Z</time></trkpt><trkpt lat="43.65750068341917" lon="10.613339112122198"><ele>13.0</ele><time>2026-04-17T11:57:33.001Z</time></trkpt><trkpt lat="43.65745401195281" lon="10.613222755474153"><ele>13.0</ele><time>2026-04-17T11:57:34.001Z</time></trkpt><trkpt lat="43.65741589491446" lon="10.613104782959265"><ele>13.0</ele><time>2026-04-17T11:57:35.001Z</time></trkpt><trkpt lat="43.657415752839846" lon="10.612972193393984"><ele>13.0</ele><time>2026-04-17T11:57:36.001Z</time></trkpt><trkpt lat="43.65744555610469" lon="10.6128358996783"><ele>13.0</ele><time>2026-04-17T11:57:37.001Z</time></trkpt><trkpt lat="43.65749927031523" lon="10.612697720257632"><ele>13.0</ele><time>2026-04-17T11:57:38.001Z</time></trkpt><trkpt lat="43.657554536652775" lon="10.612553879768672"><ele>13.0</ele><time>2026-04-17T11:57:39.001Z</time></trkpt><trkpt lat="43.657619320270776" lon="10.61240698814029"><ele>13.0</ele><time>2026-04-17T11:57:40.001Z</time></trkpt><trkpt lat="43.657692107785856" lon="10.612258071603739"><ele>13.0</ele><time>2026-04-17T11:57:41.001Z</time></trkpt><trkpt lat="43.65776716321527" lon="10.612101904934166"><ele>13.0</ele><time>2026-04-17T11:57:42.001Z</time></trkpt><trkpt lat="43.65784256705061" lon="10.611939057111899"><ele>14.0</ele><time>2026-04-17T11:57:43.001Z</time></trkpt><trkpt lat="43.65792483989783" lon="10.611771750711666"><ele>15.0</ele><time>2026-04-17T11:57:44.001Z</time></trkpt><trkpt lat="43.65800778039733" lon="10.611598680712213"><ele>16.0</ele><time>2026-04-17T11:57:45.001Z</time></trkpt><trkpt lat="43.658092035529606" lon="10.611418960039964"><ele>16.0</ele><time>2026-04-17T11:57:46.001Z</time></trkpt><trkpt lat="43.658178060043205" lon="10.611236405660664"><ele>16.0</ele><time>2026-04-17T11:57:47.001Z</time></trkpt><trkpt lat="43.65826616968143" lon="10.611051600449574"><ele>16.0</ele><time>2026-04-17T11:57:48.001Z</time></trkpt><trkpt lat="43.65835421779724" lon="10.610862648939289"><ele>16.0</ele><time>2026-04-17T11:57:49.001Z</time></trkpt><trkpt lat="43.6584424209527" lon="10.6106721971775"><ele>16.0</ele><time>2026-04-17T11:57:50.001Z</time></trkpt><trkpt lat="43.65853182000993" lon="10.610482663836443"><ele>16.0</ele><time>2026-04-17T11:57:51.001Z</time></trkpt><trkpt lat="43.65862283023618" lon="10.610293078642957"><ele>15.666666666666666</ele><time>2026-04-17T11:57:52.001Z</time></trkpt><trkpt lat="43.65871720472411" lon="10.61010397033191"><ele>15.333333333333332</ele><time>2026-04-17T11:57:53.001Z</time></trkpt><trkpt lat="43.658809778738714" lon="10.609912467507067"><ele>15.0</ele><time>2026-04-17T11:57:54.001Z</time></trkpt><trkpt lat="43.658898511463505" lon="10.60971904600195"><ele>15.0</ele><time>2026-04-17T11:57:55.001Z</time></trkpt><trkpt lat="43.65898630240221" lon="10.609531614987953"><ele>15.0</ele><time>2026-04-17T11:57:56.001Z</time></trkpt><trkpt lat="43.65906955046515" lon="10.609347959522664"><ele>15.0</ele><time>2026-04-17T11:57:57.001Z</time></trkpt><trkpt lat="43.6591521561651" lon="10.609168916283332"><ele>16.0</ele><time>2026-04-17T11:57:58.001Z</time></trkpt><trkpt lat="43.659235804297964" lon="10.608992736218063"><ele>17.0</ele><time>2026-04-17T11:57:59.001Z</time></trkpt><trkpt lat="43.65931945127946" lon="10.608818426847762"><ele>18.0</ele><time>2026-04-17T11:58:00.001Z</time></trkpt><trkpt lat="43.65940216834296" lon="10.608644703090846"><ele>16.25</ele><time>2026-04-17T11:58:01.001Z</time></trkpt><trkpt lat="43.65948437881538" lon="10.60847239252596"><ele>14.5</ele><time>2026-04-17T11:58:02.001Z</time></trkpt><trkpt lat="43.65956203095191" lon="10.60831067037899"><ele>12.75</ele><time>2026-04-17T11:58:03.001Z</time></trkpt><trkpt lat="43.659632421469325" lon="10.608175876877683"><ele>11.0</ele><time>2026-04-17T11:58:04.001Z</time></trkpt><trkpt lat="43.65969129979297" lon="10.608069215468547"><ele>11.0</ele><time>2026-04-17T11:58:05.001Z</time></trkpt><trkpt lat="43.65974868666389" lon="10.607978168616311"><ele>11.0</ele><time>2026-04-17T11:58:06.001Z</time></trkpt><trkpt lat="43.65987059262577" lon="10.608041106698417"><ele>11.0</ele><time>2026-04-17T11:58:07.001Z</time></trkpt><trkpt lat="43.65994288226985" lon="10.608069295942915"><ele>11.0</ele><time>2026-04-17T11:58:08.001Z</time></trkpt><trkpt lat="43.660007512399424" lon="10.608138438853706"><ele>11.0</ele><time>2026-04-17T11:58:09.001Z</time></trkpt><trkpt lat="43.660056629371034" lon="10.608236653751957"><ele>11.0</ele><time>2026-04-17T11:58:10.001Z</time></trkpt><trkpt lat="43.66011577437489" lon="10.6083524795865"><ele>11.0</ele><time>2026-04-17T11:58:11.001Z</time></trkpt><trkpt lat="43.660187466365635" lon="10.60848347910502"><ele>11.0</ele><time>2026-04-17T11:58:12.001Z</time></trkpt><trkpt lat="43.660262332637195" lon="10.60862032967715"><ele>11.0</ele><time>2026-04-17T11:58:13.001Z</time></trkpt><trkpt lat="43.660343612714534" lon="10.60876453886172"><ele>10.5</ele><time>2026-04-17T11:58:14.001Z</time></trkpt><trkpt lat="43.660425984165656" lon="10.608916081779794"><ele>10.0</ele><time>2026-04-17T11:58:15.001Z</time></trkpt><trkpt lat="43.66051235840958" lon="10.609073264587977"><ele>9.5</ele><time>2026-04-17T11:58:16.001Z</time></trkpt><trkpt lat="43.660601795161824" lon="10.60923298669315"><ele>9.0</ele><time>2026-04-17T11:58:17.001Z</time></trkpt><trkpt lat="43.660693368831204" lon="10.60939856333224"><ele>10.0</ele><time>2026-04-17T11:58:18.001Z</time></trkpt><trkpt lat="43.660787005654726" lon="10.609568550366266"><ele>11.0</ele><time>2026-04-17T11:58:19.001Z</time></trkpt><trkpt lat="43.660882395558815" lon="10.609742689635784"><ele>12.0</ele><time>2026-04-17T11:58:20.001Z</time></trkpt><trkpt lat="43.660978590834645" lon="10.609919489004973"><ele>12.0</ele><time>2026-04-17T11:58:21.001Z</time></trkpt><trkpt lat="43.661076713100464" lon="10.610102212274631"><ele>12.0</ele><time>2026-04-17T11:58:22.001Z</time></trkpt><trkpt lat="43.66117721218056" lon="10.610286651700575"><ele>12.0</ele><time>2026-04-17T11:58:23.001Z</time></trkpt><trkpt lat="43.66127782874062" lon="10.610471587351627"><ele>11.333333333333334</ele><time>2026-04-17T11:58:24.001Z</time></trkpt><trkpt lat="43.66137891607766" lon="10.610655672318627"><ele>10.666666666666668</ele><time>2026-04-17T11:58:25.001Z</time></trkpt><trkpt lat="43.66147944848108" lon="10.6108423061521"><ele>10.0</ele><time>2026-04-17T11:58:26Z</time></trkpt><trkpt lat="43.661584974746205" lon="10.611031230918735"><ele>11.666666666666668</ele><time>2026-04-17T11:58:27Z</time></trkpt><trkpt lat="43.66169187393032" lon="10.6112217744426"><ele>13.333333333333334</ele><time>2026-04-17T11:58:28Z</time></trkpt><trkpt lat="43.66179768359616" lon="10.611413483540353"><ele>15.0</ele><time>2026-04-17T11:58:29Z</time></trkpt><trkpt lat="43.661902659394286" lon="10.611607643158674"><ele>13.666666666666666</ele><time>2026-04-17T11:58:30Z</time></trkpt><trkpt lat="43.66200847233732" lon="10.611799050772227"><ele>12.333333333333332</ele><time>2026-04-17T11:58:31Z</time></trkpt><trkpt lat="43.662112599182834" lon="10.611987932687912"><ele>11.0</ele><time>2026-04-17T11:58:32Z</time></trkpt><trkpt lat="43.662214541190835" lon="10.612173046497965"><ele>11.0</ele><time>2026-04-17T11:58:33Z</time></trkpt><trkpt lat="43.662314380405206" lon="10.612356424010015"><ele>11.0</ele><time>2026-04-17T11:58:34Z</time></trkpt><trkpt lat="43.66241090156201" lon="10.612539362676157"><ele>11.0</ele><time>2026-04-17T11:58:35Z</time></trkpt><trkpt lat="43.66250932112294" lon="10.612722316424472"><ele>11.333333333333332</ele><time>2026-04-17T11:58:36Z</time></trkpt><trkpt lat="43.662607437076815" lon="10.612903244650717"><ele>11.666666666666666</ele><time>2026-04-17T11:58:37Z</time></trkpt><trkpt lat="43.662704390385386" lon="10.61308037484642"><ele>12.0</ele><time>2026-04-17T11:58:38Z</time></trkpt><trkpt lat="43.66279401475639" lon="10.613258718694658"><ele>11.5</ele><time>2026-04-17T11:58:39Z</time></trkpt><trkpt lat="43.662867672054176" lon="10.613441342102007"><ele>11.0</ele><time>2026-04-17T11:58:40Z</time></trkpt><trkpt lat="43.66292627909065" lon="10.613623045128042"><ele>10.5</ele><time>2026-04-17T11:58:41Z</time></trkpt><trkpt lat="43.66296682911317" lon="10.61378916216842"><ele>10.0</ele><time>2026-04-17T11:58:42Z</time></trkpt><trkpt lat="43.662989389040796" lon="10.613905322412734"><ele>10.0</ele><time>2026-04-17T11:58:43Z</time></trkpt><trkpt lat="43.663010095729504" lon="10.61401767048608"><ele>10.0</ele><time>2026-04-17T11:58:45Z</time></trkpt><trkpt lat="43.66305219026861" lon="10.614109922777983"><ele>10.0</ele><time>2026-04-17T11:58:47Z</time></trkpt><trkpt lat="43.66306004265286" lon="10.614197265110608"><ele>10.0</ele><time>2026-04-17T11:58:48Z</time></trkpt><trkpt lat="43.66310543303141" lon="10.614262092143983"><ele>10.0</ele><time>2026-04-17T11:58:49Z</time></trkpt><trkpt lat="43.663165502950605" lon="10.614296162631144"><ele>10.0</ele><time>2026-04-17T11:58:50Z</time></trkpt><trkpt lat="43.66324157105972" lon="10.614302288738912"><ele>10.0</ele><time>2026-04-17T11:58:51Z</time></trkpt><trkpt lat="43.663314750934774" lon="10.614303174911198"><ele>10.0</ele><time>2026-04-17T11:58:52Z</time></trkpt><trkpt lat="43.66337315127904" lon="10.614346642789117"><ele>10.0</ele><time>2026-04-17T11:58:53Z</time></trkpt><trkpt lat="43.66341636828994" lon="10.614421634962133"><ele>10.0</ele><time>2026-04-17T11:58:54Z</time></trkpt><trkpt lat="43.663461193397914" lon="10.614498492102143"><ele>10.0</ele><time>2026-04-17T11:58:55Z</time></trkpt><trkpt lat="43.66351309558955" lon="10.614582279551838"><ele>10.0</ele><time>2026-04-17T11:58:56Z</time></trkpt><trkpt lat="43.66357047461237" lon="10.614682211357902"><ele>10.0</ele><time>2026-04-17T11:58:57Z</time></trkpt><trkpt lat="43.66363250931769" lon="10.614789911367302"><ele>9.5</ele><time>2026-04-17T11:58:58Z</time></trkpt><trkpt lat="43.66370114672793" lon="10.614903333524738"><ele>9.0</ele><time>2026-04-17T11:58:59Z</time></trkpt><trkpt lat="43.663778414847336" lon="10.61502179602825"><ele>8.5</ele><time>2026-04-17T11:59:00Z</time></trkpt><trkpt lat="43.66385797642193" lon="10.615148953716009"><ele>8.0</ele><time>2026-04-17T11:59:01Z</time></trkpt><trkpt lat="43.66394066727084" lon="10.615283035959754"><ele>8.75</ele><time>2026-04-17T11:59:02Z</time></trkpt><trkpt lat="43.6640268655628" lon="10.615420233686157"><ele>9.5</ele><time>2026-04-17T11:59:03Z</time></trkpt><trkpt lat="43.664115121332195" lon="10.615562285740312"><ele>10.25</ele><time>2026-04-17T11:59:04Z</time></trkpt><trkpt lat="43.664208128540565" lon="10.615708205972005"><ele>11.0</ele><time>2026-04-17T11:59:05Z</time></trkpt><trkpt lat="43.6642995842681" lon="10.615860418428555"><ele>11.0</ele><time>2026-04-17T11:59:06Z</time></trkpt><trkpt lat="43.66439663993457" lon="10.616005490698967"><ele>11.0</ele><time>2026-04-17T11:59:07Z</time></trkpt><trkpt lat="43.664494256590494" lon="10.616158906609783"><ele>11.0</ele><time>2026-04-17T11:59:08Z</time></trkpt><trkpt lat="43.66459446020695" lon="10.616317105425788"><ele>11.0</ele><time>2026-04-17T11:59:09Z</time></trkpt><trkpt lat="43.66469788573817" lon="10.616481102381579"><ele>10.0</ele><time>2026-04-17T11:59:10Z</time></trkpt><trkpt lat="43.664804634603" lon="10.61664676732239"><ele>9.0</ele><time>2026-04-17T11:59:11Z</time></trkpt><trkpt lat="43.66491331980554" lon="10.616815606093683"><ele>8.0</ele><time>2026-04-17T11:59:12Z</time></trkpt><trkpt lat="43.66502211405298" lon="10.616985885767493"><ele>8.0</ele><time>2026-04-17T11:59:13Z</time></trkpt><trkpt lat="43.665127317105416" lon="10.61715005513383"><ele>8.0</ele><time>2026-04-17T11:59:14Z</time></trkpt><trkpt lat="43.6652267576074" lon="10.617303426225376"><ele>8.0</ele><time>2026-04-17T11:59:15Z</time></trkpt><trkpt lat="43.6653150673039" lon="10.617439743232215"><ele>8.0</ele><time>2026-04-17T11:59:16Z</time></trkpt><trkpt lat="43.66539619321322" lon="10.61756188241218"><ele>7.999999999999999</ele><time>2026-04-17T11:59:17Z</time></trkpt><trkpt lat="43.665461703847015" lon="10.617666949905553"><ele>8.0</ele><time>2026-04-17T11:59:18Z</time></trkpt><trkpt lat="43.66551798072539" lon="10.617758345240857"><ele>8.0</ele><time>2026-04-17T11:59:19Z</time></trkpt><trkpt lat="43.665565802554624" lon="10.617837257547219"><ele>8.0</ele><time>2026-04-17T11:59:20Z</time></trkpt><trkpt lat="43.665602648475264" lon="10.617936302904079"><ele>7.999999999999999</ele><time>2026-04-17T11:59:22Z</time></trkpt><trkpt lat="43.66557198787531" lon="10.618069741271535"><ele>8.0</ele><time>2026-04-17T11:59:44Z</time></trkpt><trkpt lat="43.66551033791936" lon="10.618185426993005"><ele>8.833333333333332</ele><time>2026-04-17T11:59:46Z</time></trkpt><trkpt lat="43.6654916024188" lon="10.618364164875997"><ele>9.666666666666666</ele><time>2026-04-17T11:59:48.001Z</time></trkpt><trkpt lat="43.6655216928228" lon="10.618455419128848"><ele>10.5</ele><time>2026-04-17T11:59:49.001Z</time></trkpt><trkpt lat="43.66557891390574" lon="10.618531222169072"><ele>11.333333333333332</ele><time>2026-04-17T11:59:50.001Z</time></trkpt><trkpt lat="43.66565388853939" lon="10.618571914787989"><ele>12.166666666666666</ele><time>2026-04-17T11:59:51.001Z</time></trkpt><trkpt lat="43.66573383343855" lon="10.618572552170013"><ele>13.0</ele><time>2026-04-17T11:59:52.001Z</time></trkpt><trkpt lat="43.66580764746355" lon="10.618532438496544"><ele>13.0</ele><time>2026-04-17T11:59:53.001Z</time></trkpt><trkpt lat="43.6658646545064" lon="10.61844265500143"><ele>13.0</ele><time>2026-04-17T11:59:54.001Z</time></trkpt><trkpt lat="43.66590422320241" lon="10.618333686119557"><ele>13.0</ele><time>2026-04-17T11:59:55.001Z</time></trkpt><trkpt lat="43.665925878679616" lon="10.618206040548467"><ele>13.0</ele><time>2026-04-17T11:59:56.001Z</time></trkpt><trkpt lat="43.66594360853504" lon="10.61805688966221"><ele>13.0</ele><time>2026-04-17T11:59:57.001Z</time></trkpt><trkpt lat="43.665960658778985" lon="10.617897621278766"><ele>11.75</ele><time>2026-04-17T11:59:58.001Z</time></trkpt><trkpt lat="43.66601224374266" lon="10.61771846947127"><ele>10.5</ele><time>2026-04-17T11:59:59.001Z</time></trkpt><trkpt lat="43.6660374255992" lon="10.617518648559924"><ele>9.25</ele><time>2026-04-17T12:00:00.001Z</time></trkpt><trkpt lat="43.666065316116885" lon="10.61730964005798"><ele>8.0</ele><time>2026-04-17T12:00:01.001Z</time></trkpt><trkpt lat="43.66609380080454" lon="10.617097844699908"><ele>8.333333333333332</ele><time>2026-04-17T12:00:02.001Z</time></trkpt><trkpt lat="43.66612350170477" lon="10.616876599751077"><ele>8.666666666666666</ele><time>2026-04-17T12:00:03.001Z</time></trkpt><trkpt lat="43.66615409385335" lon="10.61664824151208"><ele>9.0</ele><time>2026-04-17T12:00:04.001Z</time></trkpt><trkpt lat="43.666183645550845" lon="10.616427650225564"><ele>9.0</ele><time>2026-04-17T12:00:05.001Z</time></trkpt><trkpt lat="43.66621253314278" lon="10.616211095175721"><ele>9.0</ele><time>2026-04-17T12:00:06.001Z</time></trkpt><trkpt lat="43.666222910591515" lon="10.615993239817616"><ele>9.0</ele><time>2026-04-17T12:00:07.001Z</time></trkpt><trkpt lat="43.66624814697397" lon="10.615783307716418"><ele>10.0</ele><time>2026-04-17T12:00:08.001Z</time></trkpt><trkpt lat="43.66629013417025" lon="10.615580214190727"><ele>11.0</ele><time>2026-04-17T12:00:09.001Z</time></trkpt><trkpt lat="43.66631530907609" lon="10.61537327545626"><ele>12.0</ele><time>2026-04-17T12:00:10.001Z</time></trkpt><trkpt lat="43.66634056593046" lon="10.615171783047586"><ele>12.0</ele><time>2026-04-17T12:00:11.001Z</time></trkpt><trkpt lat="43.666364673009085" lon="10.614979242408785"><ele>12.0</ele><time>2026-04-17T12:00:12.001Z</time></trkpt><trkpt lat="43.66638672337964" lon="10.614805505261975"><ele>12.0</ele><time>2026-04-17T12:00:13.001Z</time></trkpt><trkpt lat="43.66640606613239" lon="10.614647655799363"><ele>12.0</ele><time>2026-04-17T12:00:14.001Z</time></trkpt><trkpt lat="43.666426186506314" lon="10.614491602685812"><ele>12.0</ele><time>2026-04-17T12:00:15.001Z</time></trkpt><trkpt lat="43.666445235816724" lon="10.614336953652412"><ele>12.0</ele><time>2026-04-17T12:00:16.001Z</time></trkpt><trkpt lat="43.66644356276615" lon="10.614187440655204"><ele>12.0</ele><time>2026-04-17T12:00:17.001Z</time></trkpt><trkpt lat="43.66645999526999" lon="10.614065636479843"><ele>12.0</ele><time>2026-04-17T12:00:18.001Z</time></trkpt><trkpt lat="43.66647851785935" lon="10.613968850622012"><ele>12.0</ele><time>2026-04-17T12:00:19.001Z</time></trkpt><trkpt lat="43.666512772164175" lon="10.613884025096997"><ele>12.0</ele><time>2026-04-17T12:00:20.001Z</time></trkpt><trkpt lat="43.66656359170003" lon="10.613811573947741"><ele>12.0</ele><time>2026-04-17T12:00:21.001Z</time></trkpt><trkpt lat="43.66661788089278" lon="10.613745469626615"><ele>12.0</ele><time>2026-04-17T12:00:22.001Z</time></trkpt><trkpt lat="43.66671579811303" lon="10.613755519150716"><ele>12.0</ele><time>2026-04-17T12:00:23.001Z</time></trkpt><trkpt lat="43.66680411035708" lon="10.613780997347058"><ele>12.0</ele><time>2026-04-17T12:00:24.001Z</time></trkpt><trkpt lat="43.666901691807084" lon="10.613807424515588"><ele>12.0</ele><time>2026-04-17T12:00:25.001Z</time></trkpt><trkpt lat="43.667007511156996" lon="10.613840730895632"><ele>12.0</ele><time>2026-04-17T12:00:26.001Z</time></trkpt><trkpt lat="43.66712106226921" lon="10.613881504992971"><ele>12.0</ele><time>2026-04-17T12:00:27.001Z</time></trkpt><trkpt lat="43.66724770077423" lon="10.613914990869288"><ele>12.0</ele><time>2026-04-17T12:00:28.001Z</time></trkpt><trkpt lat="43.6673709899672" lon="10.613948930268165"><ele>12.0</ele><time>2026-04-17T12:00:29.001Z</time></trkpt><trkpt lat="43.66750034728439" lon="10.613977896963593"><ele>12.0</ele><time>2026-04-17T12:00:30.001Z</time></trkpt><trkpt lat="43.66763230968472" lon="10.614021024631421"><ele>12.0</ele><time>2026-04-17T12:00:31.001Z</time></trkpt><trkpt lat="43.66776159995155" lon="10.61406341091702"><ele>12.0</ele><time>2026-04-17T12:00:32Z</time></trkpt><trkpt lat="43.667889096050935" lon="10.614100302937944"><ele>12.0</ele><time>2026-04-17T12:00:33Z</time></trkpt><trkpt lat="43.668015355912544" lon="10.614139246775034"><ele>12.25</ele><time>2026-04-17T12:00:34Z</time></trkpt><trkpt lat="43.66814654174643" lon="10.614179302269127"><ele>12.5</ele><time>2026-04-17T12:00:35Z</time></trkpt><trkpt lat="43.66828259543914" lon="10.614222789932752"><ele>12.75</ele><time>2026-04-17T12:00:36Z</time></trkpt><trkpt lat="43.66841477808993" lon="10.614263516345977"><ele>13.0</ele><time>2026-04-17T12:00:37Z</time></trkpt><trkpt lat="43.66854120591637" lon="10.614301402048934"><ele>13.0</ele><time>2026-04-17T12:00:38Z</time></trkpt><trkpt lat="43.66866318797015" lon="10.614333492042629"><ele>13.0</ele><time>2026-04-17T12:00:39Z</time></trkpt><trkpt lat="43.66877159152713" lon="10.614366757536255"><ele>13.0</ele><time>2026-04-17T12:00:40Z</time></trkpt><trkpt lat="43.668879481149304" lon="10.614400728890415"><ele>13.0</ele><time>2026-04-17T12:00:41Z</time></trkpt><trkpt lat="43.66899166787848" lon="10.614433829210764"><ele>13.0</ele><time>2026-04-17T12:00:42Z</time></trkpt><trkpt lat="43.66909142548244" lon="10.614462536690631"><ele>13.0</ele><time>2026-04-17T12:00:43Z</time></trkpt><trkpt lat="43.66917063052516" lon="10.614483482989646"><ele>13.0</ele><time>2026-04-17T12:00:44Z</time></trkpt><trkpt lat="43.66925387042305" lon="10.614510954757144"><ele>13.0</ele><time>2026-04-17T12:00:46Z</time></trkpt><trkpt lat="43.66935664657426" lon="10.614541653369137"><ele>13.0</ele><time>2026-04-17T12:00:54Z</time></trkpt><trkpt lat="43.66948533054075" lon="10.614577909683783"><ele>12.600000000000001</ele><time>2026-04-17T12:00:56Z</time></trkpt><trkpt lat="43.669568241305555" lon="10.614595745485094"><ele>12.200000000000001</ele><time>2026-04-17T12:00:57Z</time></trkpt><trkpt lat="43.66965938229638" lon="10.61461808024217"><ele>11.8</ele><time>2026-04-17T12:00:58Z</time></trkpt><trkpt lat="43.669757269381165" lon="10.614648710597793"><ele>11.4</ele><time>2026-04-17T12:00:59Z</time></trkpt><trkpt lat="43.66986252805133" lon="10.614681856169351"><ele>11.0</ele><time>2026-04-17T12:01:00Z</time></trkpt><trkpt lat="43.66997537153432" lon="10.61471301747449"><ele>11.0</ele><time>2026-04-17T12:01:01Z</time></trkpt><trkpt lat="43.67009217655394" lon="10.614742824888571"><ele>11.0</ele><time>2026-04-17T12:01:02Z</time></trkpt><trkpt lat="43.6702157950276" lon="10.61477417563903"><ele>11.0</ele><time>2026-04-17T12:01:03Z</time></trkpt><trkpt lat="43.67034658226976" lon="10.614809323607911"><ele>11.0</ele><time>2026-04-17T12:01:04Z</time></trkpt><trkpt lat="43.670481336434634" lon="10.614848006152746"><ele>11.5</ele><time>2026-04-17T12:01:05Z</time></trkpt><trkpt lat="43.67061992539884" lon="10.61488855559177"><ele>12.0</ele><time>2026-04-17T12:01:06Z</time></trkpt><trkpt lat="43.67076347463018" lon="10.61492977139112"><ele>12.5</ele><time>2026-04-17T12:01:07Z</time></trkpt><trkpt lat="43.670911192230605" lon="10.614973640820812"><ele>13.0</ele><time>2026-04-17T12:01:08Z</time></trkpt><trkpt lat="43.6710603306379" lon="10.615018352916193"><ele>13.0</ele><time>2026-04-17T12:01:09Z</time></trkpt><trkpt lat="43.67121243936813" lon="10.615061737798635"><ele>13.0</ele><time>2026-04-17T12:01:10Z</time></trkpt><trkpt lat="43.671366425766415" lon="10.615108344353795"><ele>13.0</ele><time>2026-04-17T12:01:11Z</time></trkpt><trkpt lat="43.67151976535849" lon="10.615152202193059"><ele>13.0</ele><time>2026-04-17T12:01:12Z</time></trkpt><trkpt lat="43.67167295244561" lon="10.615195705381275"><ele>13.0</ele><time>2026-04-17T12:01:13Z</time></trkpt><trkpt lat="43.67182317987129" lon="10.615239130052547"><ele>13.0</ele><time>2026-04-17T12:01:14Z</time></trkpt><trkpt lat="43.67197055048964" lon="10.615282027139015"><ele>12.5</ele><time>2026-04-17T12:01:15Z</time></trkpt><trkpt lat="43.67211557207182" lon="10.615322818785238"><ele>12.0</ele><time>2026-04-17T12:01:16Z</time></trkpt><trkpt lat="43.67225758672197" lon="10.615359884951113"><ele>11.5</ele><time>2026-04-17T12:01:17Z</time></trkpt><trkpt lat="43.67239831064551" lon="10.61539024865441"><ele>11.0</ele><time>2026-04-17T12:01:18Z</time></trkpt><trkpt lat="43.67253795667937" lon="10.615408675522199"><ele>11.0</ele><time>2026-04-17T12:01:19Z</time></trkpt><trkpt lat="43.67267988952823" lon="10.61541713108436"><ele>11.0</ele><time>2026-04-17T12:01:20Z</time></trkpt><trkpt lat="43.67281997525316" lon="10.615415039478206"><ele>11.0</ele><time>2026-04-17T12:01:21Z</time></trkpt><trkpt lat="43.672959849340295" lon="10.615410057639407"><ele>11.0</ele><time>2026-04-17T12:01:22Z</time></trkpt><trkpt lat="43.673096953972006" lon="10.615402672938671"><ele>11.0</ele><time>2026-04-17T12:01:23Z</time></trkpt><trkpt lat="43.67323147411489" lon="10.615394187592416"><ele>11.0</ele><time>2026-04-17T12:01:24Z</time></trkpt><trkpt lat="43.67336129678643" lon="10.615384623801246"><ele>11.0</ele><time>2026-04-17T12:01:25Z</time></trkpt><trkpt lat="43.673487321295305" lon="10.615374775903163"><ele>11.0</ele><time>2026-04-17T12:01:26Z</time></trkpt><trkpt lat="43.673609410576326" lon="10.615366975075856"><ele>11.0</ele><time>2026-04-17T12:01:27Z</time></trkpt><trkpt lat="43.6737301609503" lon="10.615364619817385"><ele>11.0</ele><time>2026-04-17T12:01:28Z</time></trkpt><trkpt lat="43.673854353785465" lon="10.61536290483724"><ele>11.0</ele><time>2026-04-17T12:01:29Z</time></trkpt><trkpt lat="43.673980579453556" lon="10.615356987100975"><ele>11.0</ele><time>2026-04-17T12:01:30Z</time></trkpt><trkpt lat="43.67410936097998" lon="10.615354076281994"><ele>11.0</ele><time>2026-04-17T12:01:31Z</time></trkpt><trkpt lat="43.674238649289784" lon="10.615351137901296"><ele>11.0</ele><time>2026-04-17T12:01:32Z</time></trkpt><trkpt lat="43.674370840807704" lon="10.615349613369837"><ele>11.0</ele><time>2026-04-17T12:01:33Z</time></trkpt><trkpt lat="43.67450361256417" lon="10.615347956217974"><ele>11.0</ele><time>2026-04-17T12:01:34Z</time></trkpt><trkpt lat="43.674635055592645" lon="10.615346404378222"><ele>11.25</ele><time>2026-04-17T12:01:35Z</time></trkpt><trkpt lat="43.674767198185506" lon="10.615343056479531"><ele>11.5</ele><time>2026-04-17T12:01:36Z</time></trkpt><trkpt lat="43.67489601278401" lon="10.615337334028908"><ele>11.75</ele><time>2026-04-17T12:01:37Z</time></trkpt><trkpt lat="43.6750217777536" lon="10.615331222016463"><ele>12.0</ele><time>2026-04-17T12:01:38Z</time></trkpt><trkpt lat="43.67514602695172" lon="10.615325260791833"><ele>12.25</ele><time>2026-04-17T12:01:39Z</time></trkpt><trkpt lat="43.67527026232421" lon="10.615318985419293"><ele>12.5</ele><time>2026-04-17T12:01:40Z</time></trkpt><trkpt lat="43.67539635788216" lon="10.615312740924175"><ele>12.75</ele><time>2026-04-17T12:01:41Z</time></trkpt><trkpt lat="43.67552136835203" lon="10.615307589241805"><ele>13.0</ele><time>2026-04-17T12:01:42Z</time></trkpt><trkpt lat="43.675643658182224" lon="10.615306171339478"><ele>13.25</ele><time>2026-04-17T12:01:43Z</time></trkpt><trkpt lat="43.67576534223202" lon="10.615304219115073"><ele>13.5</ele><time>2026-04-17T12:01:44Z</time></trkpt><trkpt lat="43.67588486644771" lon="10.615299871427792"><ele>13.75</ele><time>2026-04-17T12:01:45Z</time></trkpt><trkpt lat="43.67600221512173" lon="10.615295999336029"><ele>14.0</ele><time>2026-04-17T12:01:46Z</time></trkpt><trkpt lat="43.676118919997236" lon="10.615292206189189"><ele>14.0</ele><time>2026-04-17T12:01:47Z</time></trkpt><trkpt lat="43.67623583631263" lon="10.61528491832818"><ele>14.0</ele><time>2026-04-17T12:01:48Z</time></trkpt><trkpt lat="43.6763516945006" lon="10.615275046225838"><ele>14.0</ele><time>2026-04-17T12:01:49Z</time></trkpt><trkpt lat="43.67646865136856" lon="10.61526833021223"><ele>14.0</ele><time>2026-04-17T12:01:50Z</time></trkpt><trkpt lat="43.67658796392889" lon="10.615269616417049"><ele>14.0</ele><time>2026-04-17T12:01:51Z</time></trkpt><trkpt lat="43.67670808765104" lon="10.615271930111822"><ele>14.0</ele><time>2026-04-17T12:01:52Z</time></trkpt><trkpt lat="43.676829707084565" lon="10.615272048272079"><ele>14.0</ele><time>2026-04-17T12:01:53Z</time></trkpt><trkpt lat="43.67694951517904" lon="10.615271555831887"><ele>14.0</ele><time>2026-04-17T12:01:54Z</time></trkpt><trkpt lat="43.677074901402136" lon="10.615265809596355"><ele>13.75</ele><time>2026-04-17T12:01:55Z</time></trkpt><trkpt lat="43.677205994319785" lon="10.615259980598529"><ele>13.5</ele><time>2026-04-17T12:01:56Z</time></trkpt><trkpt lat="43.67733492400778" lon="10.615257287478535"><ele>13.25</ele><time>2026-04-17T12:01:57Z</time></trkpt><trkpt lat="43.677462007000706" lon="10.61525305971349"><ele>13.0</ele><time>2026-04-17T12:01:58Z</time></trkpt><trkpt lat="43.67758560431741" lon="10.615248153138966"><ele>13.0</ele><time>2026-04-17T12:01:59Z</time></trkpt><trkpt lat="43.677705163014686" lon="10.615242485490578"><ele>13.0</ele><time>2026-04-17T12:02:00Z</time></trkpt><trkpt lat="43.677822179906514" lon="10.61523831449429"><ele>13.0</ele><time>2026-04-17T12:02:01Z</time></trkpt><trkpt lat="43.67794321464692" lon="10.615235407268573"><ele>13.0</ele><time>2026-04-17T12:02:02Z</time></trkpt><trkpt lat="43.678063368730925" lon="10.615234180536824"><ele>13.75</ele><time>2026-04-17T12:02:03Z</time></trkpt><trkpt lat="43.678181650381546" lon="10.615232938157517"><ele>14.5</ele><time>2026-04-17T12:02:04Z</time></trkpt><trkpt lat="43.67829484006733" lon="10.615231176120119"><ele>15.25</ele><time>2026-04-17T12:02:05Z</time></trkpt><trkpt lat="43.678404882199146" lon="10.615229510276206"><ele>16.0</ele><time>2026-04-17T12:02:06Z</time></trkpt><trkpt lat="43.678517134097966" lon="10.615226576111203"><ele>15.75</ele><time>2026-04-17T12:02:07Z</time></trkpt><trkpt lat="43.67863533623194" lon="10.61522078881172"><ele>15.5</ele><time>2026-04-17T12:02:08.001Z</time></trkpt><trkpt lat="43.67876030148602" lon="10.615212817699767"><ele>15.25</ele><time>2026-04-17T12:02:09.001Z</time></trkpt><trkpt lat="43.678890598852554" lon="10.615192345999514"><ele>15.0</ele><time>2026-04-17T12:02:10.001Z</time></trkpt><trkpt lat="43.67902067664717" lon="10.615143366689026"><ele>15.0</ele><time>2026-04-17T12:02:11.001Z</time></trkpt><trkpt lat="43.67914426688937" lon="10.615058499681496"><ele>15.0</ele><time>2026-04-17T12:02:12.001Z</time></trkpt><trkpt lat="43.67925706984513" lon="10.614936616770906"><ele>15.0</ele><time>2026-04-17T12:02:13.001Z</time></trkpt><trkpt lat="43.679365317861865" lon="10.61479643096305"><ele>15.0</ele><time>2026-04-17T12:02:14.001Z</time></trkpt><trkpt lat="43.67947653755954" lon="10.614659082873066"><ele>14.75</ele><time>2026-04-17T12:02:15.001Z</time></trkpt><trkpt lat="43.67959385109382" lon="10.61453784913879"><ele>14.5</ele><time>2026-04-17T12:02:16.001Z</time></trkpt><trkpt lat="43.679722238418876" lon="10.614448817276472"><ele>14.25</ele><time>2026-04-17T12:02:17.001Z</time></trkpt><trkpt lat="43.67985598800622" lon="10.614385820795283"><ele>14.0</ele><time>2026-04-17T12:02:18.001Z</time></trkpt><trkpt lat="43.68000057018818" lon="10.61435315720469"><ele>14.0</ele><time>2026-04-17T12:02:19.001Z</time></trkpt><trkpt lat="43.68014989653344" lon="10.614343670533362"><ele>14.0</ele><time>2026-04-17T12:02:20.001Z</time></trkpt><trkpt lat="43.68030210077406" lon="10.61436650516175"><ele>14.0</ele><time>2026-04-17T12:02:21.001Z</time></trkpt><trkpt lat="43.68045066976524" lon="10.61442064555658"><ele>14.0</ele><time>2026-04-17T12:02:22.001Z</time></trkpt><trkpt lat="43.680591263906486" lon="10.614512426933654"><ele>14.0</ele><time>2026-04-17T12:02:23.001Z</time></trkpt><trkpt lat="43.680716211087685" lon="10.614634369020367"><ele>14.0</ele><time>2026-04-17T12:02:24.001Z</time></trkpt><trkpt lat="43.6808199006064" lon="10.614774616968964"><ele>14.0</ele><time>2026-04-17T12:02:25.001Z</time></trkpt><trkpt lat="43.68091748257222" lon="10.614938771891367"><ele>14.0</ele><time>2026-04-17T12:02:26.001Z</time></trkpt><trkpt lat="43.68102177315379" lon="10.615105662758005"><ele>14.0</ele><time>2026-04-17T12:02:27.001Z</time></trkpt><trkpt lat="43.68112719944499" lon="10.615275492941239"><ele>13.333333333333334</ele><time>2026-04-17T12:02:28.001Z</time></trkpt><trkpt lat="43.68122716072788" lon="10.615445516920683"><ele>12.666666666666668</ele><time>2026-04-17T12:02:29.001Z</time></trkpt><trkpt lat="43.681328009838346" lon="10.615611389601828"><ele>12.0</ele><time>2026-04-17T12:02:30.001Z</time></trkpt><trkpt lat="43.68142972449809" lon="10.615779426788457"><ele>12.0</ele><time>2026-04-17T12:02:31.001Z</time></trkpt><trkpt lat="43.681531066231564" lon="10.615945006093384"><ele>12.0</ele><time>2026-04-17T12:02:32.001Z</time></trkpt><trkpt lat="43.68162993404372" lon="10.61610756453464"><ele>12.0</ele><time>2026-04-17T12:02:33.001Z</time></trkpt><trkpt lat="43.68172582382817" lon="10.616264597146538"><ele>12.5</ele><time>2026-04-17T12:02:34.001Z</time></trkpt><trkpt lat="43.68181799310776" lon="10.616419433613865"><ele>13.0</ele><time>2026-04-17T12:02:35.001Z</time></trkpt><trkpt lat="43.6819039164444" lon="10.616562666031394"><ele>13.5</ele><time>2026-04-17T12:02:36.001Z</time></trkpt><trkpt lat="43.681978715762725" lon="10.616687769735513"><ele>14.0</ele><time>2026-04-17T12:02:37.001Z</time></trkpt><trkpt lat="43.68204681215726" lon="10.616801362226548"><ele>14.333333333333334</ele><time>2026-04-17T12:02:38Z</time></trkpt><trkpt lat="43.68210858990939" lon="10.616897508309103"><ele>14.666666666666668</ele><time>2026-04-17T12:02:39Z</time></trkpt><trkpt lat="43.68217214505359" lon="10.616983944965314"><ele>15.0</ele><time>2026-04-17T12:02:40Z</time></trkpt><trkpt lat="43.68224152922568" lon="10.617056517455953"><ele>15.333333333333332</ele><time>2026-04-17T12:02:41Z</time></trkpt><trkpt lat="43.682316977431945" lon="10.617116052378606"><ele>15.666666666666666</ele><time>2026-04-17T12:02:42Z</time></trkpt><trkpt lat="43.68239850001859" lon="10.61717394214051"><ele>16.0</ele><time>2026-04-17T12:02:43Z</time></trkpt><trkpt lat="43.68248390337261" lon="10.617222692352142"><ele>16.0</ele><time>2026-04-17T12:02:44Z</time></trkpt><trkpt lat="43.68257728097036" lon="10.617260497358297"><ele>16.0</ele><time>2026-04-17T12:02:45Z</time></trkpt><trkpt lat="43.682676383216275" lon="10.617280636741434"><ele>16.0</ele><time>2026-04-17T12:02:46Z</time></trkpt><trkpt lat="43.68277337861228" lon="10.617291211751766"><ele>16.0</ele><time>2026-04-17T12:02:47Z</time></trkpt><trkpt lat="43.68285653278575" lon="10.617297299282482"><ele>16.0</ele><time>2026-04-17T12:02:48Z</time></trkpt><trkpt lat="43.682929068502155" lon="10.617302751853499"><ele>16.0</ele><time>2026-04-17T12:02:49Z</time></trkpt><trkpt lat="43.683030409357265" lon="10.617345406840533"><ele>16.0</ele><time>2026-04-17T12:02:51Z</time></trkpt><trkpt lat="43.68312215823614" lon="10.617351944193082"><ele>16.0</ele><time>2026-04-17T12:02:53Z</time></trkpt><trkpt lat="43.68314631846454" lon="10.617237100146053"><ele>16.0</ele><time>2026-04-17T12:02:55Z</time></trkpt><trkpt lat="43.68305846981764" lon="10.617138994093924"><ele>16.0</ele><time>2026-04-17T12:02:57Z</time></trkpt><trkpt lat="43.683001774222" lon="10.617242389307274"><ele>15.999999999999998</ele><time>2026-04-17T12:02:58Z</time></trkpt><trkpt lat="43.68306181626154" lon="10.6173929360728"><ele>16.0</ele><time>2026-04-17T12:03:00Z</time></trkpt><trkpt lat="43.68311512730382" lon="10.617460761612772"><ele>16.0</ele><time>2026-04-17T12:03:01Z</time></trkpt><trkpt lat="43.68313599487178" lon="10.617558078626807"><ele>16.0</ele><time>2026-04-17T12:03:02Z</time></trkpt><trkpt lat="43.68313919103829" lon="10.6176784484155"><ele>15.999999999999998</ele><time>2026-04-17T12:03:03Z</time></trkpt><trkpt lat="43.68314489481116" lon="10.61779939683799"><ele>16.0</ele><time>2026-04-17T12:03:04Z</time></trkpt><trkpt lat="43.683149347492744" lon="10.617936742561252"><ele>16.0</ele><time>2026-04-17T12:03:05Z</time></trkpt><trkpt lat="43.68314919809739" lon="10.61808518856144"><ele>16.0</ele><time>2026-04-17T12:03:06Z</time></trkpt><trkpt lat="43.68315198182669" lon="10.618240996591679"><ele>16.0</ele><time>2026-04-17T12:03:07Z</time></trkpt><trkpt lat="43.683153117628635" lon="10.618404947590964"><ele>16.0</ele><time>2026-04-17T12:03:08Z</time></trkpt><trkpt lat="43.6831543899246" lon="10.618574492168753"><ele>16.25</ele><time>2026-04-17T12:03:09Z</time></trkpt><trkpt lat="43.68315763722565" lon="10.618754037514321"><ele>16.5</ele><time>2026-04-17T12:03:10Z</time></trkpt><trkpt lat="43.683161594372216" lon="10.618940795370673"><ele>16.75</ele><time>2026-04-17T12:03:11Z</time></trkpt><trkpt lat="43.68316548879768" lon="10.61913421210573"><ele>17.0</ele><time>2026-04-17T12:03:12Z</time></trkpt><trkpt lat="43.683167650627155" lon="10.619337776060254"><ele>17.0</ele><time>2026-04-17T12:03:13Z</time></trkpt><trkpt lat="43.68317290218073" lon="10.619535581992414"><ele>17.0</ele><time>2026-04-17T12:03:14Z</time></trkpt><trkpt lat="43.683177203470976" lon="10.619730315406699"><ele>17.0</ele><time>2026-04-17T12:03:15Z</time></trkpt><trkpt lat="43.68318260713723" lon="10.619922937407942"><ele>17.0</ele><time>2026-04-17T12:03:16Z</time></trkpt><trkpt lat="43.683183907131955" lon="10.620112747502336"><ele>17.0</ele><time>2026-04-17T12:03:17Z</time></trkpt><trkpt lat="43.683185355891545" lon="10.620307261764177"><ele>17.0</ele><time>2026-04-17T12:03:18Z</time></trkpt><trkpt lat="43.68318900750345" lon="10.620505380967776"><ele>17.0</ele><time>2026-04-17T12:03:19Z</time></trkpt><trkpt lat="43.683192044257915" lon="10.620709221599402"><ele>17.0</ele><time>2026-04-17T12:03:20Z</time></trkpt><trkpt lat="43.683195135891744" lon="10.6209177580084"><ele>17.0</ele><time>2026-04-17T12:03:21Z</time></trkpt><trkpt lat="43.68319866421969" lon="10.621129974986129"><ele>17.0</ele><time>2026-04-17T12:03:22Z</time></trkpt><trkpt lat="43.683201646563994" lon="10.621346149795981"><ele>17.0</ele><time>2026-04-17T12:03:23Z</time></trkpt><trkpt lat="43.68320302775542" lon="10.621562728170655"><ele>17.0</ele><time>2026-04-17T12:03:24Z</time></trkpt><trkpt lat="43.68320695692224" lon="10.62178278708596"><ele>17.0</ele><time>2026-04-17T12:03:25Z</time></trkpt><trkpt lat="43.68321200535657" lon="10.622000359205433"><ele>17.0</ele><time>2026-04-17T12:03:26Z</time></trkpt><trkpt lat="43.6832162193881" lon="10.622213412976535"><ele>17.0</ele><time>2026-04-17T12:03:27Z</time></trkpt><trkpt lat="43.68321810506214" lon="10.62242198667361"><ele>17.0</ele><time>2026-04-17T12:03:28Z</time></trkpt><trkpt lat="43.68321965970652" lon="10.622626905169192"><ele>17.0</ele><time>2026-04-17T12:03:29Z</time></trkpt><trkpt lat="43.6832236282611" lon="10.622828361411049"><ele>17.0</ele><time>2026-04-17T12:03:30Z</time></trkpt><trkpt lat="43.68322843364303" lon="10.623027062900103"><ele>17.0</ele><time>2026-04-17T12:03:31Z</time></trkpt><trkpt lat="43.68323140396396" lon="10.6232265603947"><ele>17.0</ele><time>2026-04-17T12:03:32Z</time></trkpt><trkpt lat="43.683232538014074" lon="10.623426372208822"><ele>17.0</ele><time>2026-04-17T12:03:33Z</time></trkpt><trkpt lat="43.68323590104297" lon="10.6236261582147"><ele>17.0</ele><time>2026-04-17T12:03:34Z</time></trkpt><trkpt lat="43.6832409955973" lon="10.62381866393305"><ele>17.0</ele><time>2026-04-17T12:03:35Z</time></trkpt><trkpt lat="43.68324483771397" lon="10.624000567290434"><ele>17.0</ele><time>2026-04-17T12:03:36Z</time></trkpt><trkpt lat="43.683250171498024" lon="10.624174755919402"><ele>17.0</ele><time>2026-04-17T12:03:37Z</time></trkpt><trkpt lat="43.68325892633192" lon="10.624315270746083"><ele>17.0</ele><time>2026-04-17T12:03:38Z</time></trkpt><trkpt lat="43.68326793376211" lon="10.624421246633759"><ele>17.0</ele><time>2026-04-17T12:03:39Z</time></trkpt><trkpt lat="43.683278288125436" lon="10.624517336499261"><ele>18.166666666666668</ele><time>2026-04-17T12:03:41Z</time></trkpt><trkpt lat="43.68328747635979" lon="10.624608921130756"><ele>19.333333333333336</ele><time>2026-04-17T12:03:48Z</time></trkpt><trkpt lat="43.683301390175984" lon="10.624741113266952"><ele>20.5</ele><time>2026-04-17T12:03:51Z</time></trkpt><trkpt lat="43.6833109038403" lon="10.624893659525194"><ele>21.666666666666668</ele><time>2026-04-17T12:03:53Z</time></trkpt><trkpt lat="43.683317377388384" lon="10.624981638262955"><ele>22.833333333333332</ele><time>2026-04-17T12:03:54Z</time></trkpt><trkpt lat="43.68333343275623" lon="10.625075048678998"><ele>24.0</ele><time>2026-04-17T12:03:55Z</time></trkpt><trkpt lat="43.683367894471175" lon="10.62515763335501"><ele>24.0</ele><time>2026-04-17T12:03:56Z</time></trkpt><trkpt lat="43.68341970934126" lon="10.625226721747437"><ele>24.0</ele><time>2026-04-17T12:03:57Z</time></trkpt><trkpt lat="43.68348729997536" lon="10.62527041678934"><ele>24.0</ele><time>2026-04-17T12:03:58Z</time></trkpt><trkpt lat="43.6835627205548" lon="10.625280729741831"><ele>24.0</ele><time>2026-04-17T12:03:59Z</time></trkpt><trkpt lat="43.683662346535584" lon="10.625259294544882"><ele>24.0</ele><time>2026-04-17T12:04:00Z</time></trkpt><trkpt lat="43.68376244544402" lon="10.625217390766526"><ele>24.0</ele><time>2026-04-17T12:04:01Z</time></trkpt><trkpt lat="43.68387287295776" lon="10.625194879155213"><ele>22.75</ele><time>2026-04-17T12:04:02Z</time></trkpt><trkpt lat="43.6839915260083" lon="10.62520678570962"><ele>21.5</ele><time>2026-04-17T12:04:03Z</time></trkpt><trkpt lat="43.684112924596384" lon="10.625215240391489"><ele>20.25</ele><time>2026-04-17T12:04:04Z</time></trkpt><trkpt lat="43.68424764859802" lon="10.625199728897439"><ele>19.0</ele><time>2026-04-17T12:04:05Z</time></trkpt><trkpt lat="43.684393274755735" lon="10.62518019694136"><ele>17.666666666666664</ele><time>2026-04-17T12:04:06Z</time></trkpt><trkpt lat="43.684545846692764" lon="10.625155042631816"><ele>16.333333333333332</ele><time>2026-04-17T12:04:07Z</time></trkpt><trkpt lat="43.684708544423984" lon="10.625132694706894"><ele>15.0</ele><time>2026-04-17T12:04:08Z</time></trkpt><trkpt lat="43.68487403433855" lon="10.625107696771044"><ele>15.0</ele><time>2026-04-17T12:04:09Z</time></trkpt><trkpt lat="43.68503875493257" lon="10.62508167625554"><ele>15.0</ele><time>2026-04-17T12:04:10Z</time></trkpt><trkpt lat="43.68520382116178" lon="10.625056536481843"><ele>15.0</ele><time>2026-04-17T12:04:11Z</time></trkpt><trkpt lat="43.685365451938495" lon="10.625029294254952"><ele>14.333333333333332</ele><time>2026-04-17T12:04:12Z</time></trkpt><trkpt lat="43.685518771430196" lon="10.625008774487277"><ele>13.666666666666666</ele><time>2026-04-17T12:04:13Z</time></trkpt><trkpt lat="43.68567344472349" lon="10.624980659838183"><ele>13.0</ele><time>2026-04-17T12:04:14.001Z</time></trkpt><trkpt lat="43.6858318875132" lon="10.624951848748157"><ele>13.0</ele><time>2026-04-17T12:04:15.001Z</time></trkpt><trkpt lat="43.68599492796522" lon="10.624923945369547"><ele>13.0</ele><time>2026-04-17T12:04:16.001Z</time></trkpt><trkpt lat="43.68615967651275" lon="10.624898480296935"><ele>13.0</ele><time>2026-04-17T12:04:17.001Z</time></trkpt><trkpt lat="43.68632325669015" lon="10.624869815071502"><ele>13.333333333333332</ele><time>2026-04-17T12:04:18.001Z</time></trkpt><trkpt lat="43.68648516661991" lon="10.624842830572497"><ele>13.666666666666668</ele><time>2026-04-17T12:04:19.001Z</time></trkpt><trkpt lat="43.68665083119974" lon="10.624816359043438"><ele>14.0</ele><time>2026-04-17T12:04:20.001Z</time></trkpt><trkpt lat="43.68681636123076" lon="10.624787562525672"><ele>13.333333333333334</ele><time>2026-04-17T12:04:21.001Z</time></trkpt><trkpt lat="43.686980040944796" lon="10.624759436119874"><ele>12.666666666666668</ele><time>2026-04-17T12:04:22.001Z</time></trkpt><trkpt lat="43.687144777724306" lon="10.624728367100179"><ele>12.0</ele><time>2026-04-17T12:04:23.001Z</time></trkpt><trkpt lat="43.68731155631397" lon="10.624699865111722"><ele>12.0</ele><time>2026-04-17T12:04:24.001Z</time></trkpt><trkpt lat="43.68747784211198" lon="10.624673875995786"><ele>12.0</ele><time>2026-04-17T12:04:25.001Z</time></trkpt><trkpt lat="43.687644880319255" lon="10.624650939095277"><ele>12.0</ele><time>2026-04-17T12:04:26.001Z</time></trkpt><trkpt lat="43.687811301116156" lon="10.624621530083232"><ele>11.333333333333334</ele><time>2026-04-17T12:04:27.001Z</time></trkpt><trkpt lat="43.68797856763212" lon="10.624591888204344"><ele>10.666666666666668</ele><time>2026-04-17T12:04:28.001Z</time></trkpt><trkpt lat="43.688149888938476" lon="10.624559923480177"><ele>10.0</ele><time>2026-04-17T12:04:29.001Z</time></trkpt><trkpt lat="43.68832368426285" lon="10.624533306207054"><ele>10.0</ele><time>2026-04-17T12:04:30.001Z</time></trkpt><trkpt lat="43.688500460926484" lon="10.624507809331693"><ele>10.0</ele><time>2026-04-17T12:04:31.001Z</time></trkpt><trkpt lat="43.688680723090506" lon="10.624475122129958"><ele>10.0</ele><time>2026-04-17T12:04:32.001Z</time></trkpt><trkpt lat="43.688862809193694" lon="10.62442836498516"><ele>10.666666666666668</ele><time>2026-04-17T12:04:33.001Z</time></trkpt><trkpt lat="43.68904102771294" lon="10.624375788287715"><ele>11.333333333333334</ele><time>2026-04-17T12:04:34.001Z</time></trkpt><trkpt lat="43.689215350508874" lon="10.62431868239904"><ele>12.0</ele><time>2026-04-17T12:04:35.001Z</time></trkpt><trkpt lat="43.68938808982541" lon="10.624254627836084"><ele>12.0</ele><time>2026-04-17T12:04:36.001Z</time></trkpt><trkpt lat="43.689562741445386" lon="10.624194301195475"><ele>12.0</ele><time>2026-04-17T12:04:37.001Z</time></trkpt><trkpt lat="43.68973679583262" lon="10.624131786086362"><ele>12.0</ele><time>2026-04-17T12:04:38.001Z</time></trkpt><trkpt lat="43.68991082395617" lon="10.62406971577055"><ele>12.0</ele><time>2026-04-17T12:04:39.001Z</time></trkpt><trkpt lat="43.69008283663216" lon="10.624006518428475"><ele>12.0</ele><time>2026-04-17T12:04:40.001Z</time></trkpt><trkpt lat="43.69025398444179" lon="10.623945936299805"><ele>12.0</ele><time>2026-04-17T12:04:41.001Z</time></trkpt><trkpt lat="43.69042672380582" lon="10.623884011099664"><ele>12.333333333333332</ele><time>2026-04-17T12:04:42.001Z</time></trkpt><trkpt lat="43.69060137637744" lon="10.623821462977066"><ele>12.666666666666666</ele><time>2026-04-17T12:04:43.001Z</time></trkpt><trkpt lat="43.690777301169234" lon="10.623759474035875"><ele>13.0</ele><time>2026-04-17T12:04:44Z</time></trkpt><trkpt lat="43.69095616972787" lon="10.62369560762159"><ele>13.0</ele><time>2026-04-17T12:04:45Z</time></trkpt><trkpt lat="43.69113698472913" lon="10.62362904193785"><ele>13.0</ele><time>2026-04-17T12:04:46Z</time></trkpt><trkpt lat="43.69131604707938" lon="10.623566275182135"><ele>13.0</ele><time>2026-04-17T12:04:47Z</time></trkpt><trkpt lat="43.691493705217546" lon="10.623504279380715"><ele>13.0</ele><time>2026-04-17T12:04:48Z</time></trkpt><trkpt lat="43.691669680841784" lon="10.623444718103205"><ele>13.0</ele><time>2026-04-17T12:04:49Z</time></trkpt><trkpt lat="43.69184400603697" lon="10.623385839769494"><ele>13.0</ele><time>2026-04-17T12:04:50Z</time></trkpt><trkpt lat="43.692014971066506" lon="10.623325633588454"><ele>12.666666666666666</ele><time>2026-04-17T12:04:51Z</time></trkpt><trkpt lat="43.69218313664963" lon="10.623264437250135"><ele>12.333333333333332</ele><time>2026-04-17T12:04:52Z</time></trkpt><trkpt lat="43.692353216472924" lon="10.623202940745696"><ele>12.0</ele><time>2026-04-17T12:04:53Z</time></trkpt><trkpt lat="43.69252736108619" lon="10.623141340202809"><ele>12.0</ele><time>2026-04-17T12:04:54Z</time></trkpt><trkpt lat="43.69270373372349" lon="10.623075798786536"><ele>12.0</ele><time>2026-04-17T12:04:55Z</time></trkpt><trkpt lat="43.69288145546602" lon="10.623008585279486"><ele>12.0</ele><time>2026-04-17T12:04:56Z</time></trkpt><trkpt lat="43.69305633425217" lon="10.62294813865143"><ele>12.333333333333332</ele><time>2026-04-17T12:04:57Z</time></trkpt><trkpt lat="43.69321119229941" lon="10.622894985497359"><ele>12.666666666666666</ele><time>2026-04-17T12:04:58Z</time></trkpt><trkpt lat="43.693358094213565" lon="10.6228392349162"><ele>13.0</ele><time>2026-04-17T12:04:59Z</time></trkpt><trkpt lat="43.693503068972895" lon="10.622784115526184"><ele>12.5</ele><time>2026-04-17T12:05:00Z</time></trkpt><trkpt lat="43.69364577876359" lon="10.622731578242272"><ele>12.0</ele><time>2026-04-17T12:05:01Z</time></trkpt><trkpt lat="43.69378582062694" lon="10.622680231729435"><ele>11.5</ele><time>2026-04-17T12:05:02Z</time></trkpt><trkpt lat="43.69391711477575" lon="10.62263434325348"><ele>11.0</ele><time>2026-04-17T12:05:03Z</time></trkpt><trkpt lat="43.694042448165334" lon="10.622591371251087"><ele>11.0</ele><time>2026-04-17T12:05:04Z</time></trkpt><trkpt lat="43.694165361952486" lon="10.622549807935751"><ele>11.0</ele><time>2026-04-17T12:05:05Z</time></trkpt><trkpt lat="43.69428540056206" lon="10.622506511135056"><ele>11.0</ele><time>2026-04-17T12:05:06Z</time></trkpt><trkpt lat="43.69440552361628" lon="10.622463630067777"><ele>11.0</ele><time>2026-04-17T12:05:07Z</time></trkpt><trkpt lat="43.69453052343731" lon="10.622419425415298"><ele>11.5</ele><time>2026-04-17T12:05:08Z</time></trkpt><trkpt lat="43.69465618577974" lon="10.62237442643866"><ele>12.0</ele><time>2026-04-17T12:05:09Z</time></trkpt><trkpt lat="43.69478263357922" lon="10.622330445399198"><ele>12.5</ele><time>2026-04-17T12:05:10Z</time></trkpt><trkpt lat="43.6949132541252" lon="10.622284586954787"><ele>13.0</ele><time>2026-04-17T12:05:11Z</time></trkpt><trkpt lat="43.695049263790224" lon="10.622237746919868"><ele>13.0</ele><time>2026-04-17T12:05:12Z</time></trkpt><trkpt lat="43.69518803049477" lon="10.622188695629413"><ele>13.0</ele><time>2026-04-17T12:05:13Z</time></trkpt><trkpt lat="43.69532558982735" lon="10.622135616072976"><ele>13.0</ele><time>2026-04-17T12:05:14Z</time></trkpt><trkpt lat="43.69546225290159" lon="10.62208908723237"><ele>13.0</ele><time>2026-04-17T12:05:15Z</time></trkpt><trkpt lat="43.69560269529213" lon="10.62204515838533"><ele>12.666666666666666</ele><time>2026-04-17T12:05:16Z</time></trkpt><trkpt lat="43.6957468492335" lon="10.621997529444894"><ele>12.333333333333332</ele><time>2026-04-17T12:05:17Z</time></trkpt><trkpt lat="43.69589362555348" lon="10.621949126710447"><ele>12.0</ele><time>2026-04-17T12:05:18Z</time></trkpt><trkpt lat="43.69604289053783" lon="10.621905006643939"><ele>12.666666666666668</ele><time>2026-04-17T12:05:19Z</time></trkpt><trkpt lat="43.69619287090057" lon="10.62186629503554"><ele>13.333333333333334</ele><time>2026-04-17T12:05:20Z</time></trkpt><trkpt lat="43.696343872297184" lon="10.621823306478632"><ele>14.0</ele><time>2026-04-17T12:05:21Z</time></trkpt><trkpt lat="43.69649598558713" lon="10.62178231382919"><ele>14.0</ele><time>2026-04-17T12:05:22Z</time></trkpt><trkpt lat="43.69665031590173" lon="10.621742261133702"><ele>14.0</ele><time>2026-04-17T12:05:23Z</time></trkpt><trkpt lat="43.69680254051848" lon="10.621701828477494"><ele>14.0</ele><time>2026-04-17T12:05:24Z</time></trkpt><trkpt lat="43.69695622885777" lon="10.621661737103691"><ele>13.666666666666668</ele><time>2026-04-17T12:05:25Z</time></trkpt><trkpt lat="43.697112562583825" lon="10.621621725522603"><ele>13.333333333333332</ele><time>2026-04-17T12:05:26Z</time></trkpt><trkpt lat="43.69727132412236" lon="10.62157953022271"><ele>13.0</ele><time>2026-04-17T12:05:27Z</time></trkpt><trkpt lat="43.697432606825586" lon="10.621537438596553"><ele>13.0</ele><time>2026-04-17T12:05:28Z</time></trkpt><trkpt lat="43.69759626674734" lon="10.621496777547334"><ele>13.0</ele><time>2026-04-17T12:05:29Z</time></trkpt><trkpt lat="43.69775907556267" lon="10.621454380699932"><ele>13.0</ele><time>2026-04-17T12:05:30Z</time></trkpt><trkpt lat="43.697915494566494" lon="10.621414755286693"><ele>13.0</ele><time>2026-04-17T12:05:31Z</time></trkpt><trkpt lat="43.698068176322025" lon="10.62137526834981"><ele>13.0</ele><time>2026-04-17T12:05:32Z</time></trkpt><trkpt lat="43.69821783259969" lon="10.621335866421305"><ele>13.0</ele><time>2026-04-17T12:05:33Z</time></trkpt><trkpt lat="43.698368656026105" lon="10.62129289524377"><ele>13.0</ele><time>2026-04-17T12:05:34Z</time></trkpt><trkpt lat="43.69851959557162" lon="10.62124446688257"><ele>13.0</ele><time>2026-04-17T12:05:35Z</time></trkpt><trkpt lat="43.69867111988844" lon="10.621190352183865"><ele>13.0</ele><time>2026-04-17T12:05:36Z</time></trkpt><trkpt lat="43.69882329507065" lon="10.621135744171893"><ele>13.0</ele><time>2026-04-17T12:05:37Z</time></trkpt><trkpt lat="43.69897314967174" lon="10.621079487094669"><ele>13.0</ele><time>2026-04-17T12:05:38Z</time></trkpt><trkpt lat="43.69911997745995" lon="10.621023950984721"><ele>13.0</ele><time>2026-04-17T12:05:39Z</time></trkpt><trkpt lat="43.699265105465315" lon="10.620968909482366"><ele>13.0</ele><time>2026-04-17T12:05:40Z</time></trkpt><trkpt lat="43.699406882956644" lon="10.620913284345843"><ele>13.0</ele><time>2026-04-17T12:05:41Z</time></trkpt><trkpt lat="43.699543100316525" lon="10.620856732953206"><ele>13.0</ele><time>2026-04-17T12:05:42Z</time></trkpt><trkpt lat="43.69967483174013" lon="10.620801299585908"><ele>13.0</ele><time>2026-04-17T12:05:43Z</time></trkpt><trkpt lat="43.69980537016185" lon="10.620749714951366"><ele>13.0</ele><time>2026-04-17T12:05:44Z</time></trkpt><trkpt lat="43.69993498519258" lon="10.620701713434535"><ele>13.0</ele><time>2026-04-17T12:05:45Z</time></trkpt><trkpt lat="43.70006365926533" lon="10.620649548292725"><ele>13.0</ele><time>2026-04-17T12:05:46Z</time></trkpt><trkpt lat="43.7001900482126" lon="10.62059727661088"><ele>13.0</ele><time>2026-04-17T12:05:47Z</time></trkpt><trkpt lat="43.70031341138013" lon="10.620547708343906"><ele>12.5</ele><time>2026-04-17T12:05:48Z</time></trkpt><trkpt lat="43.70043548512588" lon="10.62049920218509"><ele>12.0</ele><time>2026-04-17T12:05:49Z</time></trkpt><trkpt lat="43.70055581610156" lon="10.620449217352283"><ele>11.5</ele><time>2026-04-17T12:05:50Z</time></trkpt><trkpt lat="43.70067739411419" lon="10.620398703001669"><ele>11.0</ele><time>2026-04-17T12:05:51Z</time></trkpt><trkpt lat="43.70080251627295" lon="10.62034836092222"><ele>11.25</ele><time>2026-04-17T12:05:52Z</time></trkpt><trkpt lat="43.70092702650983" lon="10.620299006061714"><ele>11.5</ele><time>2026-04-17T12:05:53Z</time></trkpt><trkpt lat="43.70105307912986" lon="10.620245428382082"><ele>11.75</ele><time>2026-04-17T12:05:54Z</time></trkpt><trkpt lat="43.70117948338283" lon="10.620188718918989"><ele>12.0</ele><time>2026-04-17T12:05:55Z</time></trkpt><trkpt lat="43.70131108319271" lon="10.6201300292488"><ele>12.0</ele><time>2026-04-17T12:05:56Z</time></trkpt><trkpt lat="43.70144542152043" lon="10.620074811188678"><ele>12.0</ele><time>2026-04-17T12:05:57Z</time></trkpt><trkpt lat="43.70157778873193" lon="10.62002271147032"><ele>12.0</ele><time>2026-04-17T12:05:58Z</time></trkpt><trkpt lat="43.701708717994265" lon="10.619965579652346"><ele>12.0</ele><time>2026-04-17T12:05:59Z</time></trkpt><trkpt lat="43.7018437174289" lon="10.619907035084735"><ele>11.5</ele><time>2026-04-17T12:06:00Z</time></trkpt><trkpt lat="43.701980928642726" lon="10.619849842810305"><ele>11.0</ele><time>2026-04-17T12:06:01Z</time></trkpt><trkpt lat="43.70212022176593" lon="10.61979269612037"><ele>10.5</ele><time>2026-04-17T12:06:02Z</time></trkpt><trkpt lat="43.702260240959724" lon="10.619732902219095"><ele>10.0</ele><time>2026-04-17T12:06:03Z</time></trkpt><trkpt lat="43.70238597918525" lon="10.61967813783125"><ele>10.0</ele><time>2026-04-17T12:06:04Z</time></trkpt><trkpt lat="43.702493171628774" lon="10.619633104547047"><ele>10.0</ele><time>2026-04-17T12:06:05Z</time></trkpt><trkpt lat="43.70258172708184" lon="10.619595710110666"><ele>10.0</ele><time>2026-04-17T12:06:06Z</time></trkpt><trkpt lat="43.70265885502792" lon="10.619561796617209"><ele>10.0</ele><time>2026-04-17T12:06:07Z</time></trkpt><trkpt lat="43.70273274185656" lon="10.619527538109931"><ele>10.0</ele><time>2026-04-17T12:06:08Z</time></trkpt><trkpt lat="43.702802082319124" lon="10.61949473629029"><ele>10.0</ele><time>2026-04-17T12:06:09Z</time></trkpt><trkpt lat="43.70286776941866" lon="10.619463415712028"><ele>10.5</ele><time>2026-04-17T12:06:10Z</time></trkpt><trkpt lat="43.70293279001184" lon="10.619431705617389"><ele>11.0</ele><time>2026-04-17T12:06:11Z</time></trkpt><trkpt lat="43.70300436293858" lon="10.619396385253625"><ele>11.5</ele><time>2026-04-17T12:06:12Z</time></trkpt><trkpt lat="43.70307925746746" lon="10.619358156428676"><ele>12.0</ele><time>2026-04-17T12:06:13Z</time></trkpt><trkpt lat="43.70316302327654" lon="10.61931583360672"><ele>12.499999999999998</ele><time>2026-04-17T12:06:14Z</time></trkpt><trkpt lat="43.70325597609148" lon="10.619268946082007"><ele>13.0</ele><time>2026-04-17T12:06:15Z</time></trkpt><trkpt lat="43.70335705517791" lon="10.61921823940342"><ele>13.0</ele><time>2026-04-17T12:06:16Z</time></trkpt><trkpt lat="43.70346549078633" lon="10.619162962118672"><ele>13.0</ele><time>2026-04-17T12:06:17Z</time></trkpt><trkpt lat="43.70357951720933" lon="10.619103953478511"><ele>13.0</ele><time>2026-04-17T12:06:18Z</time></trkpt><trkpt lat="43.70369933744009" lon="10.619039450382093"><ele>13.0</ele><time>2026-04-17T12:06:19Z</time></trkpt><trkpt lat="43.70382406538351" lon="10.618970641660747"><ele>12.75</ele><time>2026-04-17T12:06:20Z</time></trkpt><trkpt lat="43.70395344459876" lon="10.61889852594269"><ele>12.5</ele><time>2026-04-17T12:06:21Z</time></trkpt><trkpt lat="43.704088834083194" lon="10.61882652042833"><ele>12.25</ele><time>2026-04-17T12:06:22Z</time></trkpt><trkpt lat="43.70422622048623" lon="10.618751865685446"><ele>12.0</ele><time>2026-04-17T12:06:23Z</time></trkpt><trkpt lat="43.70436756204183" lon="10.618675422919917"><ele>12.0</ele><time>2026-04-17T12:06:24Z</time></trkpt><trkpt lat="43.70450999452423" lon="10.618596709560412"><ele>12.0</ele><time>2026-04-17T12:06:25Z</time></trkpt><trkpt lat="43.704649391492374" lon="10.618514696003645"><ele>12.0</ele><time>2026-04-17T12:06:26Z</time></trkpt><trkpt lat="43.704786564545664" lon="10.618434273640343"><ele>12.0</ele><time>2026-04-17T12:06:27Z</time></trkpt><trkpt lat="43.70492183661782" lon="10.618357384505025"><ele>12.0</ele><time>2026-04-17T12:06:28Z</time></trkpt><trkpt lat="43.70505566650986" lon="10.618284759640044"><ele>12.0</ele><time>2026-04-17T12:06:29Z</time></trkpt><trkpt lat="43.70518793092802" lon="10.618213109116814"><ele>12.0</ele><time>2026-04-17T12:06:30Z</time></trkpt><trkpt lat="43.70531888038809" lon="10.61815189378451"><ele>11.75</ele><time>2026-04-17T12:06:31.001Z</time></trkpt><trkpt lat="43.70545170986747" lon="10.618114683322284"><ele>11.5</ele><time>2026-04-17T12:06:32.001Z</time></trkpt><trkpt lat="43.70558692960268" lon="10.618111838279496"><ele>11.25</ele><time>2026-04-17T12:06:33.001Z</time></trkpt><trkpt lat="43.70572169841365" lon="10.618144658543956"><ele>11.0</ele><time>2026-04-17T12:06:34.001Z</time></trkpt><trkpt lat="43.705852571821104" lon="10.618201542829954"><ele>11.0</ele><time>2026-04-17T12:06:35.001Z</time></trkpt><trkpt lat="43.70598403832885" lon="10.618253397253804"><ele>11.0</ele><time>2026-04-17T12:06:36.001Z</time></trkpt><trkpt lat="43.70611232485955" lon="10.618300159975599"><ele>11.0</ele><time>2026-04-17T12:06:37.001Z</time></trkpt><trkpt lat="43.70623785566509" lon="10.618349465252166"><ele>11.0</ele><time>2026-04-17T12:06:38.001Z</time></trkpt><trkpt lat="43.70636672263903" lon="10.618398303367243"><ele>11.25</ele><time>2026-04-17T12:06:39.001Z</time></trkpt><trkpt lat="43.70649252471872" lon="10.618448121516536"><ele>11.5</ele><time>2026-04-17T12:06:40.001Z</time></trkpt><trkpt lat="43.70661529144569" lon="10.618499805760013"><ele>11.75</ele><time>2026-04-17T12:06:41.001Z</time></trkpt><trkpt lat="43.706735737425284" lon="10.618549395231026"><ele>12.0</ele><time>2026-04-17T12:06:42.001Z</time></trkpt><trkpt lat="43.70685862449653" lon="10.618595300228632"><ele>12.0</ele><time>2026-04-17T12:06:43.001Z</time></trkpt><trkpt lat="43.70698656298832" lon="10.61863790575505"><ele>12.0</ele><time>2026-04-17T12:06:44.001Z</time></trkpt><trkpt lat="43.70711572604901" lon="10.61868428242125"><ele>12.0</ele><time>2026-04-17T12:06:45.001Z</time></trkpt><trkpt lat="43.707249654348836" lon="10.618742551420345"><ele>12.0</ele><time>2026-04-17T12:06:46.001Z</time></trkpt><trkpt lat="43.707392156328076" lon="10.61879893895176"><ele>12.0</ele><time>2026-04-17T12:06:47.001Z</time></trkpt><trkpt lat="43.70753394604117" lon="10.618849993502122"><ele>12.0</ele><time>2026-04-17T12:06:48.001Z</time></trkpt><trkpt lat="43.70767093807681" lon="10.618905350005361"><ele>12.0</ele><time>2026-04-17T12:06:49.001Z</time></trkpt><trkpt lat="43.707805860104685" lon="10.618958184765031"><ele>12.0</ele><time>2026-04-17T12:06:50Z</time></trkpt><trkpt lat="43.707936796398656" lon="10.619010397554144"><ele>12.25</ele><time>2026-04-17T12:06:51Z</time></trkpt><trkpt lat="43.70806552276638" lon="10.619062786737757"><ele>12.5</ele><time>2026-04-17T12:06:52Z</time></trkpt><trkpt lat="43.70819124569026" lon="10.619115850262338"><ele>12.75</ele><time>2026-04-17T12:06:53Z</time></trkpt><trkpt lat="43.70831500835351" lon="10.619166125898472"><ele>13.0</ele><time>2026-04-17T12:06:54Z</time></trkpt><trkpt lat="43.708436182305576" lon="10.619213187223373"><ele>13.0</ele><time>2026-04-17T12:06:55Z</time></trkpt><trkpt lat="43.708552775355685" lon="10.619255392304394"><ele>13.0</ele><time>2026-04-17T12:06:56Z</time></trkpt><trkpt lat="43.708670532006174" lon="10.619297856384426"><ele>13.0</ele><time>2026-04-17T12:06:57Z</time></trkpt><trkpt lat="43.70878604637358" lon="10.619341885137294"><ele>13.0</ele><time>2026-04-17T12:06:58Z</time></trkpt><trkpt lat="43.708895071732975" lon="10.61938436944899"><ele>12.999999999999998</ele><time>2026-04-17T12:06:59Z</time></trkpt><trkpt lat="43.70899525861484" lon="10.619423646976179"><ele>13.0</ele><time>2026-04-17T12:07:00Z</time></trkpt><trkpt lat="43.70908947237429" lon="10.619461255476889"><ele>13.0</ele><time>2026-04-17T12:07:01Z</time></trkpt><trkpt lat="43.709177297650996" lon="10.61948956151058"><ele>13.0</ele><time>2026-04-17T12:07:02Z</time></trkpt><trkpt lat="43.7092550044028" lon="10.619511640511533"><ele>12.999999999999998</ele><time>2026-04-17T12:07:03Z</time></trkpt><trkpt lat="43.70932696104374" lon="10.619533209275795"><ele>13.0</ele><time>2026-04-17T12:07:04Z</time></trkpt><trkpt lat="43.70939318764253" lon="10.619565222049184"><ele>12.833333333333332</ele><time>2026-04-17T12:07:05Z</time></trkpt><trkpt lat="43.709454014096885" lon="10.619608855965936"><ele>12.666666666666666</ele><time>2026-04-17T12:07:06Z</time></trkpt><trkpt lat="43.70951197369617" lon="10.619651099902047"><ele>12.5</ele><time>2026-04-17T12:07:07Z</time></trkpt><trkpt lat="43.70963397065157" lon="10.61967390196929"><ele>12.333333333333332</ele><time>2026-04-17T12:07:09Z</time></trkpt><trkpt lat="43.70970491583648" lon="10.619656467595156"><ele>12.166666666666666</ele><time>2026-04-17T12:07:10Z</time></trkpt><trkpt lat="43.70978686732416" lon="10.6196302799327"><ele>12.0</ele><time>2026-04-17T12:07:11Z</time></trkpt><trkpt lat="43.70987053883803" lon="10.619615070842366"><ele>12.0</ele><time>2026-04-17T12:07:12Z</time></trkpt><trkpt lat="43.70996133846" lon="10.619606513492839"><ele>12.0</ele><time>2026-04-17T12:07:13Z</time></trkpt><trkpt lat="43.71005136573247" lon="10.619595281050392"><ele>12.0</ele><time>2026-04-17T12:07:14Z</time></trkpt><trkpt lat="43.71014394716874" lon="10.619584914417176"><ele>12.0</ele><time>2026-04-17T12:07:15Z</time></trkpt><trkpt lat="43.7102310466867" lon="10.619571457994653"><ele>12.0</ele><time>2026-04-17T12:07:16Z</time></trkpt><trkpt lat="43.71032289575204" lon="10.619564839092849"><ele>12.0</ele><time>2026-04-17T12:07:17Z</time></trkpt><trkpt lat="43.71041177673154" lon="10.619553415874375"><ele>12.0</ele><time>2026-04-17T12:07:18Z</time></trkpt><trkpt lat="43.710497064747706" lon="10.619541671541448"><ele>12.0</ele><time>2026-04-17T12:07:19Z</time></trkpt><trkpt lat="43.71057924587546" lon="10.619528935709749"><ele>12.0</ele><time>2026-04-17T12:07:20Z</time></trkpt><trkpt lat="43.7106424616531" lon="10.619524310963603"><ele>12.0</ele><time>2026-04-17T12:07:21Z</time></trkpt><trkpt lat="43.710756364756875" lon="10.619518891705376"><ele>12.0</ele><time>2026-04-17T12:07:23Z</time></trkpt><trkpt lat="43.71082603631791" lon="10.619580247805878"><ele>11.999999999999998</ele><time>2026-04-17T12:07:25Z</time></trkpt><trkpt lat="43.71086100720697" lon="10.619657225470354"><ele>12.0</ele><time>2026-04-17T12:07:27Z</time></trkpt><trkpt lat="43.71087621109789" lon="10.61974859003905"><ele>12.0</ele><time>2026-04-17T12:07:29Z</time></trkpt><trkpt lat="43.710892166101914" lon="10.619867485394511"><ele>12.0</ele><time>2026-04-17T12:07:31Z</time></trkpt><trkpt lat="43.71090362427217" lon="10.619954361996774"><ele>12.0</ele><time>2026-04-17T12:07:32Z</time></trkpt><trkpt lat="43.71091260935363" lon="10.62005359456056"><ele>11.999999999999998</ele><time>2026-04-17T12:07:33Z</time></trkpt><trkpt lat="43.71091539259105" lon="10.620143460023145"><ele>12.0</ele><time>2026-04-17T12:07:34Z</time></trkpt><trkpt lat="43.710913879486185" lon="10.620282220456485"><ele>12.2</ele><time>2026-04-17T12:07:36Z</time></trkpt><trkpt lat="43.710912027298995" lon="10.620387700257417"><ele>12.399999999999999</ele><time>2026-04-17T12:07:38Z</time></trkpt><trkpt lat="43.71089579257607" lon="10.620508868839256"><ele>12.600000000000001</ele><time>2026-04-17T12:07:41Z</time></trkpt><trkpt lat="43.71104149278546" lon="10.620572443002084"><ele>12.8</ele><time>2026-04-17T12:07:44Z</time></trkpt><trkpt lat="43.711144016704324" lon="10.620570686225674"><ele>13.0</ele><time>2026-04-17T12:07:46Z</time></trkpt><trkpt lat="43.711207154128644" lon="10.6205703689006"><ele>13.0</ele><time>2026-04-17T12:07:47Z</time></trkpt><trkpt lat="43.71132487385845" lon="10.620568373860815"><ele>13.0</ele><time>2026-04-17T12:07:49Z</time></trkpt><trkpt lat="43.71143243276706" lon="10.620566043760878"><ele>13.0</ele><time>2026-04-17T12:07:51Z</time></trkpt><trkpt lat="43.71153255049593" lon="10.620564428987691"><ele>13.0</ele><time>2026-04-17T12:07:53Z</time></trkpt><trkpt lat="43.71161302007825" lon="10.620562634129639"><ele>13.0</ele><time>2026-04-17T12:07:55Z</time></trkpt><trkpt lat="43.71167869252147" lon="10.620562821011292"><ele>12.999999999999998</ele><time>2026-04-17T12:07:57Z</time></trkpt><trkpt lat="43.7117555994311" lon="10.620562773777234"><ele>13.0</ele><time>2026-04-17T12:08:02Z</time></trkpt><trkpt lat="43.7118283971488" lon="10.620568447890522"><ele>13.0</ele><time>2026-04-17T12:08:05Z</time></trkpt><trkpt lat="43.71186622140549" lon="10.620643895927158"><ele>13.0</ele><time>2026-04-17T12:08:07Z</time></trkpt><trkpt lat="43.71187339315789" lon="10.620745655112765"><ele>12.999999999999998</ele><time>2026-04-17T12:08:09Z</time></trkpt><trkpt lat="43.71188594716962" lon="10.620831793437475"><ele>13.0</ele><time>2026-04-17T12:08:12Z</time></trkpt><trkpt lat="43.712010500707265" lon="10.620826857335006"><ele>12.833333333333332</ele><time>2026-04-17T12:08:14Z</time></trkpt><trkpt lat="43.71209597440732" lon="10.62080084198957"><ele>12.666666666666666</ele><time>2026-04-17T12:08:16Z</time></trkpt><trkpt lat="43.71218273699952" lon="10.620779899742859"><ele>12.5</ele><time>2026-04-17T12:08:19Z</time></trkpt><trkpt lat="43.71219044162565" lon="10.620666810306245"><ele>12.333333333333332</ele><time>2026-04-17T12:08:20Z</time></trkpt><trkpt lat="43.7121743852297" lon="10.620506081737574"><ele>12.166666666666666</ele><time>2026-04-17T12:08:22Z</time></trkpt><trkpt lat="43.71216543195059" lon="10.620412044490852"><ele>12.0</ele><time>2026-04-17T12:08:23Z</time></trkpt><trkpt lat="43.71215236391878" lon="10.620319578412502"><ele>12.428571428571427</ele><time>2026-04-17T12:08:24Z</time></trkpt><trkpt lat="43.71214609161337" lon="10.620218659833734"><ele>12.857142857142858</ele><time>2026-04-17T12:08:25Z</time></trkpt><trkpt lat="43.71214053351386" lon="10.620120100247485"><ele>13.285714285714285</ele><time>2026-04-17T12:08:26Z</time></trkpt><trkpt lat="43.712135255265935" lon="10.620025608792194"><ele>13.714285714285714</ele><time>2026-04-17T12:08:27Z</time></trkpt><trkpt lat="43.7121270633011" lon="10.619936455484511"><ele>14.142857142857142</ele><time>2026-04-17T12:08:28Z</time></trkpt><trkpt lat="43.71211471737003" lon="10.619797758635439"><ele>14.571428571428571</ele><time>2026-04-17T12:08:30Z</time></trkpt><trkpt lat="43.7121033688197" lon="10.619707386743453"><ele>15.0</ele><time>2026-04-17T12:08:34Z</time></trkpt><trkpt lat="43.71208455617775" lon="10.619613982004939"><ele>15.0</ele><time>2026-04-17T12:08:45.001Z</time></trkpt><trkpt lat="43.71206763571078" lon="10.6194952587027"><ele>15.0</ele><time>2026-04-17T12:08:48.001Z</time></trkpt><trkpt lat="43.712058814568074" lon="10.619408874961568"><ele>15.0</ele><time>2026-04-17T12:08:50.001Z</time></trkpt><trkpt lat="43.712057346134806" lon="10.619313771581757"><ele>15.0</ele><time>2026-04-17T12:09:00Z</time></trkpt><trkpt lat="43.71220007088245" lon="10.619283560879856"><ele>15.0</ele><time>2026-04-17T12:09:02Z</time></trkpt><trkpt lat="43.71227092728663" lon="10.619273304350212"><ele>15.0</ele><time>2026-04-17T12:09:03Z</time></trkpt><trkpt lat="43.71234851601445" lon="10.619259635946372"><ele>14.8</ele><time>2026-04-17T12:09:04Z</time></trkpt><trkpt lat="43.71243913990312" lon="10.619249834805279"><ele>14.6</ele><time>2026-04-17T12:09:05Z</time></trkpt><trkpt lat="43.712535206907575" lon="10.61923601275966"><ele>14.399999999999999</ele><time>2026-04-17T12:09:06Z</time></trkpt><trkpt lat="43.712643024669894" lon="10.619220608812151"><ele>14.2</ele><time>2026-04-17T12:09:07Z</time></trkpt><trkpt lat="43.71276068284316" lon="10.619203326880541"><ele>14.0</ele><time>2026-04-17T12:09:08Z</time></trkpt><trkpt lat="43.71288341812322" lon="10.619183491795015"><ele>14.0</ele><time>2026-04-17T12:09:09Z</time></trkpt><trkpt lat="43.71301002858822" lon="10.619164340791087"><ele>14.0</ele><time>2026-04-17T12:09:10Z</time></trkpt><trkpt lat="43.71313859624451" lon="10.619144528822584"><ele>14.0</ele><time>2026-04-17T12:09:11Z</time></trkpt><trkpt lat="43.7132676496032" lon="10.619124866949068"><ele>14.0</ele><time>2026-04-17T12:09:12Z</time></trkpt><trkpt lat="43.71339843184301" lon="10.61910869875683"><ele>14.0</ele><time>2026-04-17T12:09:13Z</time></trkpt><trkpt lat="43.71353706747663" lon="10.619085007734734"><ele>14.0</ele><time>2026-04-17T12:09:14Z</time></trkpt><trkpt lat="43.713671169436715" lon="10.619064400577846"><ele>14.0</ele><time>2026-04-17T12:09:15Z</time></trkpt><trkpt lat="43.71380251483025" lon="10.619044534674249"><ele>14.0</ele><time>2026-04-17T12:09:16Z</time></trkpt><trkpt lat="43.71393220280237" lon="10.619025636804045"><ele>13.25</ele><time>2026-04-17T12:09:17Z</time></trkpt><trkpt lat="43.71405900856906" lon="10.61900715841745"><ele>12.5</ele><time>2026-04-17T12:09:18Z</time></trkpt><trkpt lat="43.7141822265333" lon="10.61898842020744"><ele>11.75</ele><time>2026-04-17T12:09:19Z</time></trkpt><trkpt lat="43.71430686884089" lon="10.618967775323148"><ele>11.0</ele><time>2026-04-17T12:09:20Z</time></trkpt><trkpt lat="43.71443514482106" lon="10.618945057687707"><ele>11.0</ele><time>2026-04-17T12:09:21Z</time></trkpt><trkpt lat="43.714564991717204" lon="10.618922226998135"><ele>11.0</ele><time>2026-04-17T12:09:22Z</time></trkpt><trkpt lat="43.71469473488066" lon="10.618902339323721"><ele>11.0</ele><time>2026-04-17T12:09:23Z</time></trkpt><trkpt lat="43.71483041606017" lon="10.61888021858754"><ele>11.0</ele><time>2026-04-17T12:09:24Z</time></trkpt><trkpt lat="43.714965406643024" lon="10.618858205572925"><ele>11.0</ele><time>2026-04-17T12:09:25Z</time></trkpt><trkpt lat="43.71509716241315" lon="10.618839952842638"><ele>11.0</ele><time>2026-04-17T12:09:26Z</time></trkpt><trkpt lat="43.71522694470631" lon="10.618825772254468"><ele>11.0</ele><time>2026-04-17T12:09:27Z</time></trkpt><trkpt lat="43.71535303259673" lon="10.618809503052839"><ele>11.0</ele><time>2026-04-17T12:09:28Z</time></trkpt><trkpt lat="43.71547599297196" lon="10.618791315111661"><ele>11.0</ele><time>2026-04-17T12:09:29Z</time></trkpt><trkpt lat="43.71559632438357" lon="10.618771053790354"><ele>11.0</ele><time>2026-04-17T12:09:30Z</time></trkpt><trkpt lat="43.7157135647257" lon="10.618750757974942"><ele>11.0</ele><time>2026-04-17T12:09:31Z</time></trkpt><trkpt lat="43.71582857380336" lon="10.618729238471808"><ele>11.0</ele><time>2026-04-17T12:09:32Z</time></trkpt><trkpt lat="43.71594081464457" lon="10.618707839638452"><ele>11.0</ele><time>2026-04-17T12:09:33Z</time></trkpt><trkpt lat="43.716054886171094" lon="10.618692316941654"><ele>11.0</ele><time>2026-04-17T12:09:34Z</time></trkpt><trkpt lat="43.71617258990747" lon="10.61867594124067"><ele>11.0</ele><time>2026-04-17T12:09:35Z</time></trkpt><trkpt lat="43.7162918526938" lon="10.61865979723667"><ele>11.0</ele><time>2026-04-17T12:09:36Z</time></trkpt><trkpt lat="43.71641078720201" lon="10.618643448513176"><ele>11.0</ele><time>2026-04-17T12:09:37Z</time></trkpt><trkpt lat="43.716522905539655" lon="10.618624029498372"><ele>11.0</ele><time>2026-04-17T12:09:38Z</time></trkpt><trkpt lat="43.716630208945865" lon="10.618606113253849"><ele>11.0</ele><time>2026-04-17T12:09:39Z</time></trkpt><trkpt lat="43.716734363119656" lon="10.618588662546328"><ele>11.0</ele><time>2026-04-17T12:09:40Z</time></trkpt><trkpt lat="43.71683382665038" lon="10.618571666887016"><ele>11.0</ele><time>2026-04-17T12:09:41Z</time></trkpt><trkpt lat="43.71693172466329" lon="10.61855107355142"><ele>11.0</ele><time>2026-04-17T12:09:42Z</time></trkpt><trkpt lat="43.71702701174324" lon="10.618536768245939"><ele>11.0</ele><time>2026-04-17T12:09:43Z</time></trkpt><trkpt lat="43.71712050026761" lon="10.6185226653022"><ele>11.0</ele><time>2026-04-17T12:09:44Z</time></trkpt><trkpt lat="43.717214094302236" lon="10.61850897200088"><ele>11.0</ele><time>2026-04-17T12:09:45Z</time></trkpt><trkpt lat="43.71730593350627" lon="10.618495572432959"><ele>11.0</ele><time>2026-04-17T12:09:46Z</time></trkpt><trkpt lat="43.71739610976425" lon="10.618482539313913"><ele>11.0</ele><time>2026-04-17T12:09:47Z</time></trkpt><trkpt lat="43.717485704824156" lon="10.618469986657392"><ele>11.0</ele><time>2026-04-17T12:09:48Z</time></trkpt><trkpt lat="43.717573060013294" lon="10.618458189278027"><ele>11.0</ele><time>2026-04-17T12:09:49Z</time></trkpt><trkpt lat="43.71765782845677" lon="10.618448738751837"><ele>11.0</ele><time>2026-04-17T12:09:50Z</time></trkpt><trkpt lat="43.71774281627074" lon="10.618438787407108"><ele>11.0</ele><time>2026-04-17T12:09:51Z</time></trkpt><trkpt lat="43.71782278358138" lon="10.61842565273914"><ele>11.0</ele><time>2026-04-17T12:09:52Z</time></trkpt><trkpt lat="43.71789748307304" lon="10.61841127420207"><ele>11.166666666666666</ele><time>2026-04-17T12:09:53Z</time></trkpt><trkpt lat="43.7179725166111" lon="10.618394604487872"><ele>11.333333333333332</ele><time>2026-04-17T12:09:54Z</time></trkpt><trkpt lat="43.718040571488366" lon="10.61837810398773"><ele>11.5</ele><time>2026-04-17T12:09:55Z</time></trkpt><trkpt lat="43.71815801815739" lon="10.618343653775845"><ele>11.666666666666666</ele><time>2026-04-17T12:09:57Z</time></trkpt><trkpt lat="43.718243273759825" lon="10.618315423357359"><ele>11.833333333333334</ele><time>2026-04-17T12:09:59Z</time></trkpt><trkpt lat="43.71830626712564" lon="10.618294561830623"><ele>12.0</ele><time>2026-04-17T12:10:02Z</time></trkpt><trkpt lat="43.71836775792438" lon="10.618272693895147"><ele>12.0</ele><time>2026-04-17T12:10:32Z</time></trkpt><trkpt lat="43.718475791902094" lon="10.618231443621358"><ele>12.0</ele><time>2026-04-17T12:10:34Z</time></trkpt><trkpt lat="43.71859955768888" lon="10.618183767763538"><ele>12.0</ele><time>2026-04-17T12:10:36Z</time></trkpt><trkpt lat="43.71866592724514" lon="10.618158430866146"><ele>12.0</ele><time>2026-04-17T12:10:37Z</time></trkpt><trkpt lat="43.71873426268538" lon="10.618135726747388"><ele>12.0</ele><time>2026-04-17T12:10:38Z</time></trkpt><trkpt lat="43.71880452161302" lon="10.618116296036437"><ele>11.571428571428571</ele><time>2026-04-17T12:10:39Z</time></trkpt><trkpt lat="43.718879232502815" lon="10.618094239233312"><ele>11.142857142857142</ele><time>2026-04-17T12:10:40Z</time></trkpt><trkpt lat="43.718951120236284" lon="10.61806631529956"><ele>10.714285714285715</ele><time>2026-04-17T12:10:41Z</time></trkpt><trkpt lat="43.719016821968744" lon="10.61803525246469"><ele>10.285714285714285</ele><time>2026-04-17T12:10:42Z</time></trkpt><trkpt lat="43.71907888055507" lon="10.618000995679099"><ele>9.857142857142858</ele><time>2026-04-17T12:10:43Z</time></trkpt><trkpt lat="43.71914258935918" lon="10.61796922064938"><ele>9.428571428571429</ele><time>2026-04-17T12:10:44Z</time></trkpt><trkpt lat="43.719206640681726" lon="10.61794107778814"><ele>9.0</ele><time>2026-04-17T12:10:45Z</time></trkpt><trkpt lat="43.71932383684423" lon="10.617896154460551"><ele>8.8</ele><time>2026-04-17T12:10:47Z</time></trkpt><trkpt lat="43.719444667103154" lon="10.617851253562037"><ele>8.600000000000001</ele><time>2026-04-17T12:10:49Z</time></trkpt><trkpt lat="43.71951008147856" lon="10.61782487400737"><ele>8.4</ele><time>2026-04-17T12:10:50Z</time></trkpt><trkpt lat="43.71958343065905" lon="10.617794733292225"><ele>8.200000000000001</ele><time>2026-04-17T12:10:51Z</time></trkpt><trkpt lat="43.719668846756946" lon="10.617761102674347"><ele>8.0</ele><time>2026-04-17T12:10:52Z</time></trkpt><trkpt lat="43.71976466827732" lon="10.617722371991636"><ele>8.75</ele><time>2026-04-17T12:10:53Z</time></trkpt><trkpt lat="43.71986834040382" lon="10.617680803692567"><ele>9.5</ele><time>2026-04-17T12:10:54Z</time></trkpt><trkpt lat="43.71997997535767" lon="10.617638581451521"><ele>10.25</ele><time>2026-04-17T12:10:55Z</time></trkpt><trkpt lat="43.72009810310639" lon="10.617590893162527"><ele>11.0</ele><time>2026-04-17T12:10:56Z</time></trkpt><trkpt lat="43.720221110807" lon="10.617542218645168"><ele>10.75</ele><time>2026-04-17T12:10:57Z</time></trkpt><trkpt lat="43.720345414237" lon="10.617495425870661"><ele>10.5</ele><time>2026-04-17T12:10:58Z</time></trkpt><trkpt lat="43.72046970190004" lon="10.617446772063932"><ele>10.25</ele><time>2026-04-17T12:10:59Z</time></trkpt><trkpt lat="43.7205972344286" lon="10.617396869305828"><ele>10.0</ele><time>2026-04-17T12:11:00Z</time></trkpt><trkpt lat="43.72072433076105" lon="10.61734446016488"><ele>10.0</ele><time>2026-04-17T12:11:01Z</time></trkpt><trkpt lat="43.72085054426517" lon="10.617295807649912"><ele>10.0</ele><time>2026-04-17T12:11:02Z</time></trkpt><trkpt lat="43.72097447008467" lon="10.617248938603773"><ele>10.0</ele><time>2026-04-17T12:11:03Z</time></trkpt><trkpt lat="43.72109175397372" lon="10.617203913408865"><ele>10.0</ele><time>2026-04-17T12:11:04Z</time></trkpt><trkpt lat="43.721207542145265" lon="10.617159032118257"><ele>10.0</ele><time>2026-04-17T12:11:05Z</time></trkpt><trkpt lat="43.721317112563256" lon="10.617116874199153"><ele>10.0</ele><time>2026-04-17T12:11:06Z</time></trkpt><trkpt lat="43.72140927487992" lon="10.617080409139719"><ele>10.0</ele><time>2026-04-17T12:11:07Z</time></trkpt><trkpt lat="43.72148414193411" lon="10.617050448720418"><ele>10.0</ele><time>2026-04-17T12:11:08Z</time></trkpt><trkpt lat="43.7215485110124" lon="10.617023664076237"><ele>10.0</ele><time>2026-04-17T12:11:09Z</time></trkpt><trkpt lat="43.72166000291648" lon="10.616977491455886"><ele>10.0</ele><time>2026-04-17T12:11:11Z</time></trkpt><trkpt lat="43.72172300914791" lon="10.616972793300715"><ele>10.0</ele><time>2026-04-17T12:11:12Z</time></trkpt><trkpt lat="43.72179126761519" lon="10.616925025464447"><ele>10.0</ele><time>2026-04-17T12:11:13Z</time></trkpt><trkpt lat="43.72187836726606" lon="10.616896258631238"><ele>10.0</ele><time>2026-04-17T12:11:14Z</time></trkpt><trkpt lat="43.72197374918176" lon="10.616860732209458"><ele>10.0</ele><time>2026-04-17T12:11:15Z</time></trkpt><trkpt lat="43.72207970075911" lon="10.616820497707538"><ele>10.0</ele><time>2026-04-17T12:11:16Z</time></trkpt><trkpt lat="43.72219038379954" lon="10.616778548107927"><ele>10.5</ele><time>2026-04-17T12:11:17Z</time></trkpt><trkpt lat="43.72229292216092" lon="10.616739963699045"><ele>11.0</ele><time>2026-04-17T12:11:18Z</time></trkpt><trkpt lat="43.722385294607875" lon="10.616703637150655"><ele>11.5</ele><time>2026-04-17T12:11:19Z</time></trkpt><trkpt lat="43.72246591208071" lon="10.616675926637425"><ele>12.0</ele><time>2026-04-17T12:11:20Z</time></trkpt><trkpt lat="43.722538323378544" lon="10.616672611685125"><ele>12.499999999999998</ele><time>2026-04-17T12:11:21Z</time></trkpt><trkpt lat="43.72261116840572" lon="10.616720321355505"><ele>13.0</ele><time>2026-04-17T12:11:22Z</time></trkpt><trkpt lat="43.72265728158854" lon="10.616802719815782"><ele>13.0</ele><time>2026-04-17T12:11:23Z</time></trkpt><trkpt lat="43.72270697261404" lon="10.616899537628836"><ele>13.0</ele><time>2026-04-17T12:11:24Z</time></trkpt><trkpt lat="43.72276998065474" lon="10.61700794190042"><ele>13.0</ele><time>2026-04-17T12:11:25Z</time></trkpt><trkpt lat="43.72283652024989" lon="10.617123151173576"><ele>13.0</ele><time>2026-04-17T12:11:26Z</time></trkpt><trkpt lat="43.72290469440916" lon="10.617233741919275"><ele>13.0</ele><time>2026-04-17T12:11:27Z</time></trkpt><trkpt lat="43.72298022107259" lon="10.61733572703484"><ele>13.600000000000001</ele><time>2026-04-17T12:11:28Z</time></trkpt><trkpt lat="43.723060242628826" lon="10.617425735359518"><ele>14.200000000000001</ele><time>2026-04-17T12:11:29Z</time></trkpt><trkpt lat="43.72314562575704" lon="10.617486017282227"><ele>14.8</ele><time>2026-04-17T12:11:30Z</time></trkpt><trkpt lat="43.723245935303694" lon="10.617521103199268"><ele>15.4</ele><time>2026-04-17T12:11:31Z</time></trkpt><trkpt lat="43.72335251243089" lon="10.61753650101292"><ele>16.0</ele><time>2026-04-17T12:11:32Z</time></trkpt><trkpt lat="43.723464358828835" lon="10.617529590291975"><ele>17.5</ele><time>2026-04-17T12:11:33Z</time></trkpt><trkpt lat="43.723579609713475" lon="10.61751329150937"><ele>19.0</ele><time>2026-04-17T12:11:34Z</time></trkpt><trkpt lat="43.72369890029273" lon="10.617477519054567"><ele>20.5</ele><time>2026-04-17T12:11:35Z</time></trkpt><trkpt lat="43.7238196003478" lon="10.617430995075283"><ele>22.0</ele><time>2026-04-17T12:11:36Z</time></trkpt><trkpt lat="43.72394715958561" lon="10.617385225579016"><ele>22.0</ele><time>2026-04-17T12:11:37Z</time></trkpt><trkpt lat="43.72406947550621" lon="10.617339502563931"><ele>22.0</ele><time>2026-04-17T12:11:38Z</time></trkpt><trkpt lat="43.72418715052333" lon="10.61729254419614"><ele>22.0</ele><time>2026-04-17T12:11:39Z</time></trkpt><trkpt lat="43.72430301948062" lon="10.617241895039509"><ele>22.0</ele><time>2026-04-17T12:11:40Z</time></trkpt><trkpt lat="43.724421871069" lon="10.617195120440021"><ele>22.0</ele><time>2026-04-17T12:11:41Z</time></trkpt><trkpt lat="43.724537361339074" lon="10.617155069009165"><ele>22.0</ele><time>2026-04-17T12:11:42Z</time></trkpt><trkpt lat="43.72464842293269" lon="10.617121031786672"><ele>22.0</ele><time>2026-04-17T12:11:43Z</time></trkpt><trkpt lat="43.724761896450616" lon="10.61710325010782"><ele>22.0</ele><time>2026-04-17T12:11:44Z</time></trkpt><trkpt lat="43.72488294636765" lon="10.617094205018137"><ele>22.0</ele><time>2026-04-17T12:11:45Z</time></trkpt><trkpt lat="43.72501439676377" lon="10.617084795151795"><ele>22.0</ele><time>2026-04-17T12:11:46Z</time></trkpt><trkpt lat="43.725150915362796" lon="10.61709076572172"><ele>22.0</ele><time>2026-04-17T12:11:47Z</time></trkpt><trkpt lat="43.7252938074806" lon="10.61709213201031"><ele>22.0</ele><time>2026-04-17T12:11:48Z</time></trkpt><trkpt lat="43.72543615500738" lon="10.617100299441171"><ele>20.75</ele><time>2026-04-17T12:11:49Z</time></trkpt><trkpt lat="43.725578202157514" lon="10.617107478008535"><ele>19.5</ele><time>2026-04-17T12:11:50Z</time></trkpt><trkpt lat="43.72571680231352" lon="10.6171145763681"><ele>18.25</ele><time>2026-04-17T12:11:51Z</time></trkpt><trkpt lat="43.725856269670636" lon="10.617119598374183"><ele>17.0</ele><time>2026-04-17T12:11:52Z</time></trkpt><trkpt lat="43.725996231540755" lon="10.61712799754538"><ele>17.0</ele><time>2026-04-17T12:11:53Z</time></trkpt><trkpt lat="43.726134607702036" lon="10.617133234365449"><ele>17.0</ele><time>2026-04-17T12:11:54Z</time></trkpt><trkpt lat="43.72627049948802" lon="10.617139540429724"><ele>17.0</ele><time>2026-04-17T12:11:55Z</time></trkpt><trkpt lat="43.72640506301485" lon="10.617143013988414"><ele>17.0</ele><time>2026-04-17T12:11:56Z</time></trkpt><trkpt lat="43.72653595042525" lon="10.617146880415712"><ele>17.0</ele><time>2026-04-17T12:11:57Z</time></trkpt><trkpt lat="43.72666097091952" lon="10.617150861113995"><ele>17.0</ele><time>2026-04-17T12:11:58Z</time></trkpt><trkpt lat="43.72677047050333" lon="10.617157472753235"><ele>17.0</ele><time>2026-04-17T12:11:59Z</time></trkpt><trkpt lat="43.72687606774597" lon="10.61716367712409"><ele>17.0</ele><time>2026-04-17T12:12:00Z</time></trkpt><trkpt lat="43.7269700533694" lon="10.617165828028929"><ele>17.0</ele><time>2026-04-17T12:12:01Z</time></trkpt><trkpt lat="43.72706645160791" lon="10.617166171183438"><ele>17.5</ele><time>2026-04-17T12:12:02Z</time></trkpt><trkpt lat="43.727175353578275" lon="10.617171415334177"><ele>18.0</ele><time>2026-04-17T12:12:03Z</time></trkpt><trkpt lat="43.72729451098162" lon="10.617174027586653"><ele>18.5</ele><time>2026-04-17T12:12:04Z</time></trkpt><trkpt lat="43.72742461991647" lon="10.617178126451975"><ele>19.0</ele><time>2026-04-17T12:12:05Z</time></trkpt><trkpt lat="43.72755867712335" lon="10.61718668831354"><ele>19.0</ele><time>2026-04-17T12:12:06Z</time></trkpt><trkpt lat="43.727697291657854" lon="10.617187310358444"><ele>19.0</ele><time>2026-04-17T12:12:07Z</time></trkpt><trkpt lat="43.727840886271686" lon="10.617195643202088"><ele>19.0</ele><time>2026-04-17T12:12:08Z</time></trkpt><trkpt lat="43.72798339268819" lon="10.617202704778702"><ele>19.0</ele><time>2026-04-17T12:12:09Z</time></trkpt><trkpt lat="43.7281254038788" lon="10.617208586423185"><ele>19.0</ele><time>2026-04-17T12:12:10Z</time></trkpt><trkpt lat="43.7282698621902" lon="10.617214020674377"><ele>19.0</ele><time>2026-04-17T12:12:11Z</time></trkpt><trkpt lat="43.72841357617242" lon="10.617219815137583"><ele>19.0</ele><time>2026-04-17T12:12:12Z</time></trkpt><trkpt lat="43.72856136397692" lon="10.617224804149728"><ele>19.0</ele><time>2026-04-17T12:12:13Z</time></trkpt><trkpt lat="43.72871299341477" lon="10.617230556612334"><ele>18.333333333333332</ele><time>2026-04-17T12:12:14Z</time></trkpt><trkpt lat="43.72886436045515" lon="10.617235368254882"><ele>17.666666666666668</ele><time>2026-04-17T12:12:15Z</time></trkpt><trkpt lat="43.729015916114065" lon="10.61724163188671"><ele>17.0</ele><time>2026-04-17T12:12:16Z</time></trkpt><trkpt lat="43.72916492759316" lon="10.617246313839864"><ele>17.0</ele><time>2026-04-17T12:12:17Z</time></trkpt><trkpt lat="43.729313330918224" lon="10.617253775317689"><ele>17.0</ele><time>2026-04-17T12:12:18Z</time></trkpt><trkpt lat="43.729458996065254" lon="10.61726099394632"><ele>17.0</ele><time>2026-04-17T12:12:19Z</time></trkpt><trkpt lat="43.72960134730902" lon="10.617267656771963"><ele>17.0</ele><time>2026-04-17T12:12:20Z</time></trkpt><trkpt lat="43.729740465497905" lon="10.617274530142947"><ele>16.5</ele><time>2026-04-17T12:12:21Z</time></trkpt><trkpt lat="43.729879701332656" lon="10.617280339124033"><ele>16.0</ele><time>2026-04-17T12:12:22Z</time></trkpt><trkpt lat="43.73001610792081" lon="10.617285743858861"><ele>15.5</ele><time>2026-04-17T12:12:23Z</time></trkpt><trkpt lat="43.730149209909484" lon="10.617296165564909"><ele>15.0</ele><time>2026-04-17T12:12:24Z</time></trkpt><trkpt lat="43.73028292293834" lon="10.617312643383555"><ele>15.0</ele><time>2026-04-17T12:12:25Z</time></trkpt><trkpt lat="43.73041264074362" lon="10.617342726673643"><ele>15.0</ele><time>2026-04-17T12:12:26Z</time></trkpt><trkpt lat="43.73053732723353" lon="10.617399892765784"><ele>15.0</ele><time>2026-04-17T12:12:27Z</time></trkpt><trkpt lat="43.73065286685685" lon="10.617485254865075"><ele>15.0</ele><time>2026-04-17T12:12:28Z</time></trkpt><trkpt lat="43.7307666120378" lon="10.617594195200741"><ele>15.0</ele><time>2026-04-17T12:12:29Z</time></trkpt><trkpt lat="43.7308843413936" lon="10.617697052911778"><ele>15.0</ele><time>2026-04-17T12:12:30Z</time></trkpt><trkpt lat="43.73100713495177" lon="10.617801261590651"><ele>15.0</ele><time>2026-04-17T12:12:31Z</time></trkpt><trkpt lat="43.73113103882114" lon="10.617912062860752"><ele>15.0</ele><time>2026-04-17T12:12:32Z</time></trkpt><trkpt lat="43.731258937210804" lon="10.618024590533784"><ele>15.0</ele><time>2026-04-17T12:12:33Z</time></trkpt><trkpt lat="43.731386571129505" lon="10.618142695553695"><ele>15.0</ele><time>2026-04-17T12:12:34Z</time></trkpt><trkpt lat="43.73151302438897" lon="10.618261213666614"><ele>15.0</ele><time>2026-04-17T12:12:35Z</time></trkpt><trkpt lat="43.731637231577444" lon="10.618374947782687"><ele>15.0</ele><time>2026-04-17T12:12:36Z</time></trkpt><trkpt lat="43.731762614481156" lon="10.618484820095023"><ele>15.0</ele><time>2026-04-17T12:12:37Z</time></trkpt><trkpt lat="43.73188750976534" lon="10.618593383272767"><ele>15.0</ele><time>2026-04-17T12:12:38Z</time></trkpt><trkpt lat="43.73200694860615" lon="10.61870146742988"><ele>15.0</ele><time>2026-04-17T12:12:39Z</time></trkpt><trkpt lat="43.73212569894679" lon="10.618808961804511"><ele>15.0</ele><time>2026-04-17T12:12:40Z</time></trkpt><trkpt lat="43.732241703344734" lon="10.618911416165014"><ele>15.0</ele><time>2026-04-17T12:12:41Z</time></trkpt><trkpt lat="43.732348592448496" lon="10.6190028023179"><ele>15.0</ele><time>2026-04-17T12:12:42Z</time></trkpt><trkpt lat="43.7324500337809" lon="10.619094223649267"><ele>15.0</ele><time>2026-04-17T12:12:43Z</time></trkpt><trkpt lat="43.73254357712108" lon="10.619177824952432"><ele>15.0</ele><time>2026-04-17T12:12:44Z</time></trkpt><trkpt lat="43.73261957587003" lon="10.619274876561684"><ele>15.0</ele><time>2026-04-17T12:12:45Z</time></trkpt><trkpt lat="43.73269462329972" lon="10.619345103562827"><ele>15.0</ele><time>2026-04-17T12:12:46Z</time></trkpt><trkpt lat="43.73276382769238" lon="10.619406717277908"><ele>15.0</ele><time>2026-04-17T12:12:47Z</time></trkpt><trkpt lat="43.73282772050399" lon="10.619458665232695"><ele>15.0</ele><time>2026-04-17T12:12:48Z</time></trkpt><trkpt lat="43.73291553617898" lon="10.619540380321531"><ele>15.166666666666666</ele><time>2026-04-17T12:12:50Z</time></trkpt><trkpt lat="43.7329687435796" lon="10.619596168428993"><ele>15.333333333333332</ele><time>2026-04-17T12:12:53Z</time></trkpt><trkpt lat="43.73302383463927" lon="10.619648736003763"><ele>15.5</ele><time>2026-04-17T12:13:26Z</time></trkpt><trkpt lat="43.73311524608104" lon="10.619741915008541"><ele>15.666666666666666</ele><time>2026-04-17T12:13:28Z</time></trkpt><trkpt lat="43.73316841531053" lon="10.61979682337493"><ele>15.833333333333332</ele><time>2026-04-17T12:13:29Z</time></trkpt><trkpt lat="43.73322185909456" lon="10.619852372428719"><ele>16.0</ele><time>2026-04-17T12:13:30Z</time></trkpt><trkpt lat="43.733313995916674" lon="10.619939716468998"><ele>15.999999999999998</ele><time>2026-04-17T12:13:32Z</time></trkpt><trkpt lat="43.73341899701167" lon="10.62000701597012"><ele>16.0</ele><time>2026-04-17T12:13:34Z</time></trkpt><trkpt lat="43.73347780644884" lon="10.620056665620345"><ele>16.0</ele><time>2026-04-17T12:13:35Z</time></trkpt><trkpt lat="43.73354436661906" lon="10.620114256208314"><ele>16.0</ele><time>2026-04-17T12:13:36Z</time></trkpt><trkpt lat="43.73361633087595" lon="10.62018168695338"><ele>15.999999999999998</ele><time>2026-04-17T12:13:37Z</time></trkpt><trkpt lat="43.733699572984165" lon="10.620251283316504"><ele>16.0</ele><time>2026-04-17T12:13:38Z</time></trkpt><trkpt lat="43.733787009258876" lon="10.620327493502309"><ele>15.75</ele><time>2026-04-17T12:13:39Z</time></trkpt><trkpt lat="43.733882076503654" lon="10.620413621763264"><ele>15.5</ele><time>2026-04-17T12:13:40Z</time></trkpt><trkpt lat="43.73398475989358" lon="10.620504324430533"><ele>15.25</ele><time>2026-04-17T12:13:41Z</time></trkpt><trkpt lat="43.73408771764637" lon="10.620595498981235"><ele>15.0</ele><time>2026-04-17T12:13:42Z</time></trkpt><trkpt lat="43.734194832427974" lon="10.620688621918173"><ele>15.0</ele><time>2026-04-17T12:13:43Z</time></trkpt><trkpt lat="43.734304581495365" lon="10.620784643305617"><ele>15.0</ele><time>2026-04-17T12:13:44Z</time></trkpt><trkpt lat="43.73441590652619" lon="10.620882534963432"><ele>15.0</ele><time>2026-04-17T12:13:45Z</time></trkpt><trkpt lat="43.734525504014414" lon="10.620983801487867"><ele>15.0</ele><time>2026-04-17T12:13:46Z</time></trkpt><trkpt lat="43.73463016027211" lon="10.62108298680651"><ele>15.0</ele><time>2026-04-17T12:13:47Z</time></trkpt><trkpt lat="43.734732169170734" lon="10.621177919261534"><ele>15.0</ele><time>2026-04-17T12:13:48Z</time></trkpt><trkpt lat="43.73483129832489" lon="10.621267588506333"><ele>15.0</ele><time>2026-04-17T12:13:49Z</time></trkpt><trkpt lat="43.73492908460088" lon="10.621345337103744"><ele>15.0</ele><time>2026-04-17T12:13:50Z</time></trkpt><trkpt lat="43.7350396739059" lon="10.621408789934918"><ele>15.0</ele><time>2026-04-17T12:13:51Z</time></trkpt><trkpt lat="43.73516141156725" lon="10.621448041329383"><ele>15.0</ele><time>2026-04-17T12:13:52Z</time></trkpt><trkpt lat="43.73529352673409" lon="10.621469789128323"><ele>15.0</ele><time>2026-04-17T12:13:53Z</time></trkpt><trkpt lat="43.73543307953323" lon="10.621488484047"><ele>15.0</ele><time>2026-04-17T12:13:54Z</time></trkpt><trkpt lat="43.73557890052794" lon="10.621501881903354"><ele>17.0</ele><time>2026-04-17T12:13:55Z</time></trkpt><trkpt lat="43.735729158959096" lon="10.621512630915777"><ele>19.0</ele><time>2026-04-17T12:13:56Z</time></trkpt><trkpt lat="43.73588200150305" lon="10.621519947307958"><ele>21.0</ele><time>2026-04-17T12:13:57Z</time></trkpt><trkpt lat="43.73603925383023" lon="10.621522813269236"><ele>20.666666666666668</ele><time>2026-04-17T12:13:58Z</time></trkpt><trkpt lat="43.73619665400819" lon="10.621523314549187"><ele>20.333333333333336</ele><time>2026-04-17T12:13:59Z</time></trkpt><trkpt lat="43.73635780704205" lon="10.621515480081126"><ele>20.0</ele><time>2026-04-17T12:14:00Z</time></trkpt><trkpt lat="43.73651955331783" lon="10.621502703859193"><ele>20.0</ele><time>2026-04-17T12:14:01Z</time></trkpt><trkpt lat="43.736681339422006" lon="10.621490021635845"><ele>20.0</ele><time>2026-04-17T12:14:02Z</time></trkpt><trkpt lat="43.736842556875374" lon="10.621477557339688"><ele>20.0</ele><time>2026-04-17T12:14:03Z</time></trkpt><trkpt lat="43.73700083775817" lon="10.621465290586752"><ele>19.0</ele><time>2026-04-17T12:14:04Z</time></trkpt><trkpt lat="43.73715805039782" lon="10.621451598471674"><ele>18.0</ele><time>2026-04-17T12:14:05Z</time></trkpt><trkpt lat="43.73731712425328" lon="10.621437775341429"><ele>17.0</ele><time>2026-04-17T12:14:06Z</time></trkpt><trkpt lat="43.73747515885969" lon="10.621426530517997"><ele>17.0</ele><time>2026-04-17T12:14:07Z</time></trkpt><trkpt lat="43.73763412774904" lon="10.621410439845153"><ele>17.0</ele><time>2026-04-17T12:14:08Z</time></trkpt><trkpt lat="43.73779652342022" lon="10.621387064123205"><ele>17.0</ele><time>2026-04-17T12:14:09Z</time></trkpt><trkpt lat="43.73795544153249" lon="10.621364021292116"><ele>16.333333333333336</ele><time>2026-04-17T12:14:10Z</time></trkpt><trkpt lat="43.73811858192116" lon="10.621340361448855"><ele>15.666666666666668</ele><time>2026-04-17T12:14:11Z</time></trkpt><trkpt lat="43.73827407365343" lon="10.621311101625622"><ele>15.0</ele><time>2026-04-17T12:14:12Z</time></trkpt><trkpt lat="43.738424471170106" lon="10.621278784671338"><ele>14.0</ele><time>2026-04-17T12:14:13Z</time></trkpt><trkpt lat="43.73857308197712" lon="10.621247792117174"><ele>13.0</ele><time>2026-04-17T12:14:14Z</time></trkpt><trkpt lat="43.73871108501951" lon="10.621218267761057"><ele>12.0</ele><time>2026-04-17T12:14:15Z</time></trkpt><trkpt lat="43.73884373508226" lon="10.621181776875297"><ele>11.0</ele><time>2026-04-17T12:14:16Z</time></trkpt><trkpt lat="43.73897577265967" lon="10.62113552603322"><ele>14.75</ele><time>2026-04-17T12:14:17Z</time></trkpt><trkpt lat="43.73911098456469" lon="10.621081164836545"><ele>18.5</ele><time>2026-04-17T12:14:18Z</time></trkpt><trkpt lat="43.73924933606047" lon="10.621024420078067"><ele>22.25</ele><time>2026-04-17T12:14:19Z</time></trkpt><trkpt lat="43.73938733280433" lon="10.620991490445896"><ele>26.0</ele><time>2026-04-17T12:14:20Z</time></trkpt><trkpt lat="43.73952998524943" lon="10.62095234110928"><ele>26.0</ele><time>2026-04-17T12:14:21Z</time></trkpt><trkpt lat="43.73967326455989" lon="10.62094440919659"><ele>26.0</ele><time>2026-04-17T12:14:22Z</time></trkpt><trkpt lat="43.73981798977457" lon="10.620958552488025"><ele>26.0</ele><time>2026-04-17T12:14:23Z</time></trkpt><trkpt lat="43.73996835003455" lon="10.620983922016652"><ele>26.0</ele><time>2026-04-17T12:14:24Z</time></trkpt><trkpt lat="43.740124331263374" lon="10.621015872092661"><ele>26.333333333333332</ele><time>2026-04-17T12:14:25Z</time></trkpt><trkpt lat="43.740283303639075" lon="10.621052651248593"><ele>26.666666666666664</ele><time>2026-04-17T12:14:26Z</time></trkpt><trkpt lat="43.74044491119208" lon="10.621092560402573"><ele>27.0</ele><time>2026-04-17T12:14:27Z</time></trkpt><trkpt lat="43.74060926458858" lon="10.621132826464208"><ele>22.333333333333332</ele><time>2026-04-17T12:14:28Z</time></trkpt><trkpt lat="43.740772133156554" lon="10.621166860600763"><ele>17.666666666666664</ele><time>2026-04-17T12:14:29Z</time></trkpt><trkpt lat="43.7409345577901" lon="10.621197782744972"><ele>13.0</ele><time>2026-04-17T12:14:30Z</time></trkpt><trkpt lat="43.741099788604636" lon="10.621227785185603"><ele>13.0</ele><time>2026-04-17T12:14:31Z</time></trkpt><trkpt lat="43.741260650617484" lon="10.621264977186703"><ele>13.0</ele><time>2026-04-17T12:14:32Z</time></trkpt><trkpt lat="43.74141716607686" lon="10.621302587986012"><ele>13.0</ele><time>2026-04-17T12:14:33Z</time></trkpt><trkpt lat="43.741573358196554" lon="10.621331633145301"><ele>13.0</ele><time>2026-04-17T12:14:34Z</time></trkpt><trkpt lat="43.7417251385452" lon="10.621353111690732"><ele>13.0</ele><time>2026-04-17T12:14:35Z</time></trkpt><trkpt lat="43.74187712505715" lon="10.621336721061462"><ele>13.0</ele><time>2026-04-17T12:14:36Z</time></trkpt><trkpt lat="43.742027397668224" lon="10.621306971532338"><ele>12.75</ele><time>2026-04-17T12:14:37Z</time></trkpt><trkpt lat="43.74217639648409" lon="10.621268578458784"><ele>12.5</ele><time>2026-04-17T12:14:38Z</time></trkpt><trkpt lat="43.742322948108836" lon="10.621223879347571"><ele>12.25</ele><time>2026-04-17T12:14:39Z</time></trkpt><trkpt lat="43.742464910216" lon="10.621176448532317"><ele>12.0</ele><time>2026-04-17T12:14:40Z</time></trkpt><trkpt lat="43.742598905110384" lon="10.621121399774681"><ele>12.75</ele><time>2026-04-17T12:14:41Z</time></trkpt><trkpt lat="43.7427265240692" lon="10.621055552363554"><ele>13.5</ele><time>2026-04-17T12:14:42Z</time></trkpt><trkpt lat="43.74285046773461" lon="10.620970721697784"><ele>14.25</ele><time>2026-04-17T12:14:43Z</time></trkpt><trkpt lat="43.74297452076299" lon="10.620865124921849"><ele>15.0</ele><time>2026-04-17T12:14:44Z</time></trkpt><trkpt lat="43.74309840635787" lon="10.620738303252034"><ele>15.0</ele><time>2026-04-17T12:14:45Z</time></trkpt><trkpt lat="43.74322316539925" lon="10.620600085668068"><ele>15.0</ele><time>2026-04-17T12:14:46Z</time></trkpt><trkpt lat="43.74334322960599" lon="10.620458523585498"><ele>15.0</ele><time>2026-04-17T12:14:47Z</time></trkpt><trkpt lat="43.74346469983483" lon="10.620314934431248"><ele>15.333333333333332</ele><time>2026-04-17T12:14:48Z</time></trkpt><trkpt lat="43.7435858225545" lon="10.620175217620323"><ele>15.666666666666666</ele><time>2026-04-17T12:14:49Z</time></trkpt><trkpt lat="43.743704087493114" lon="10.620040120077013"><ele>16.0</ele><time>2026-04-17T12:14:50Z</time></trkpt><trkpt lat="43.743821725229516" lon="10.619900287391154"><ele>16.0</ele><time>2026-04-17T12:14:51Z</time></trkpt><trkpt lat="43.743935532583855" lon="10.619767553601854"><ele>16.0</ele><time>2026-04-17T12:14:52Z</time></trkpt><trkpt lat="43.74404781899026" lon="10.619635334688784"><ele>16.0</ele><time>2026-04-17T12:14:53Z</time></trkpt><trkpt lat="43.74416000875711" lon="10.619504741331934"><ele>16.0</ele><time>2026-04-17T12:14:54Z</time></trkpt><trkpt lat="43.74427264056171" lon="10.619380658113833"><ele>16.75</ele><time>2026-04-17T12:14:55Z</time></trkpt><trkpt lat="43.74438866220289" lon="10.619266428322119"><ele>17.5</ele><time>2026-04-17T12:14:56Z</time></trkpt><trkpt lat="43.74451533279197" lon="10.619166128661373"><ele>18.25</ele><time>2026-04-17T12:14:57Z</time></trkpt><trkpt lat="43.7446568274902" lon="10.619083258567208"><ele>19.0</ele><time>2026-04-17T12:14:58Z</time></trkpt><trkpt lat="43.74479916766032" lon="10.6189959689718"><ele>19.0</ele><time>2026-04-17T12:14:59Z</time></trkpt><trkpt lat="43.74494345588198" lon="10.618904827394928"><ele>19.0</ele><time>2026-04-17T12:15:00Z</time></trkpt><trkpt lat="43.745088854905816" lon="10.618817926146352"><ele>19.0</ele><time>2026-04-17T12:15:01Z</time></trkpt><trkpt lat="43.74523417677743" lon="10.618738910548213"><ele>20.0</ele><time>2026-04-17T12:15:02Z</time></trkpt><trkpt lat="43.745377065007744" lon="10.618658116977537"><ele>21.0</ele><time>2026-04-17T12:15:03Z</time></trkpt><trkpt lat="43.74552111136379" lon="10.618577047636885"><ele>22.0</ele><time>2026-04-17T12:15:04Z</time></trkpt><trkpt lat="43.74566348172336" lon="10.618496132447724"><ele>22.0</ele><time>2026-04-17T12:15:05Z</time></trkpt><trkpt lat="43.74580585053455" lon="10.618416790445204"><ele>22.0</ele><time>2026-04-17T12:15:06Z</time></trkpt><trkpt lat="43.74594536471763" lon="10.618339967567586"><ele>22.0</ele><time>2026-04-17T12:15:07Z</time></trkpt><trkpt lat="43.74608317710113" lon="10.618260259720245"><ele>21.75</ele><time>2026-04-17T12:15:08Z</time></trkpt><trkpt lat="43.746220313536824" lon="10.618183563296688"><ele>21.5</ele><time>2026-04-17T12:15:09Z</time></trkpt><trkpt lat="43.746360962498734" lon="10.618116385030614"><ele>21.25</ele><time>2026-04-17T12:15:10Z</time></trkpt><trkpt lat="43.74650502778511" lon="10.618059007501936"><ele>21.0</ele><time>2026-04-17T12:15:11Z</time></trkpt><trkpt lat="43.74665337887957" lon="10.618016303580701"><ele>21.0</ele><time>2026-04-17T12:15:12Z</time></trkpt><trkpt lat="43.74680362413748" lon="10.617994421263374"><ele>21.0</ele><time>2026-04-17T12:15:13Z</time></trkpt><trkpt lat="43.74695816950571" lon="10.617980297638264"><ele>21.0</ele><time>2026-04-17T12:15:14Z</time></trkpt><trkpt lat="43.74711273463546" lon="10.617965231081953"><ele>21.0</ele><time>2026-04-17T12:15:15Z</time></trkpt><trkpt lat="43.74727059580813" lon="10.617950098594207"><ele>21.0</ele><time>2026-04-17T12:15:16Z</time></trkpt><trkpt lat="43.74742796225479" lon="10.617942536930853"><ele>21.0</ele><time>2026-04-17T12:15:17Z</time></trkpt><trkpt lat="43.74758437710704" lon="10.617936171946866"><ele>20.0</ele><time>2026-04-17T12:15:18Z</time></trkpt><trkpt lat="43.74774116863016" lon="10.617934190354223"><ele>19.0</ele><time>2026-04-17T12:15:19Z</time></trkpt><trkpt lat="43.747897684826285" lon="10.617947228912605"><ele>18.0</ele><time>2026-04-17T12:15:20Z</time></trkpt><trkpt lat="43.74805713989297" lon="10.617971388702754"><ele>18.0</ele><time>2026-04-17T12:15:21Z</time></trkpt><trkpt lat="43.74821490038723" lon="10.618003730181943"><ele>18.0</ele><time>2026-04-17T12:15:22Z</time></trkpt><trkpt lat="43.74836925482205" lon="10.618045739036692"><ele>18.0</ele><time>2026-04-17T12:15:23Z</time></trkpt><trkpt lat="43.74852092992477" lon="10.618091680733922"><ele>17.333333333333332</ele><time>2026-04-17T12:15:24Z</time></trkpt><trkpt lat="43.748673789905936" lon="10.618140706005223"><ele>16.666666666666664</ele><time>2026-04-17T12:15:25Z</time></trkpt><trkpt lat="43.748826811650936" lon="10.618193679851819"><ele>16.0</ele><time>2026-04-17T12:15:26Z</time></trkpt><trkpt lat="43.748983367185886" lon="10.618255294845637"><ele>16.0</ele><time>2026-04-17T12:15:27Z</time></trkpt><trkpt lat="43.749141988714854" lon="10.618319015564344"><ele>16.0</ele><time>2026-04-17T12:15:28Z</time></trkpt><trkpt lat="43.74930209916487" lon="10.618385236648582"><ele>16.0</ele><time>2026-04-17T12:15:29Z</time></trkpt><trkpt lat="43.74946149801074" lon="10.61845001066386"><ele>18.333333333333332</ele><time>2026-04-17T12:15:30Z</time></trkpt><trkpt lat="43.74962012832251" lon="10.618513967569246"><ele>20.666666666666668</ele><time>2026-04-17T12:15:31Z</time></trkpt><trkpt lat="43.74978137126288" lon="10.618580417673668"><ele>23.0</ele><time>2026-04-17T12:15:32Z</time></trkpt><trkpt lat="43.74993983006942" lon="10.618646523083513"><ele>19.666666666666668</ele><time>2026-04-17T12:15:33Z</time></trkpt><trkpt lat="43.750096272454435" lon="10.61870963222328"><ele>16.333333333333332</ele><time>2026-04-17T12:15:34Z</time></trkpt><trkpt lat="43.75024936505214" lon="10.618771192787134"><ele>13.0</ele><time>2026-04-17T12:15:35Z</time></trkpt><trkpt lat="43.75040248454862" lon="10.618833693253281"><ele>13.0</ele><time>2026-04-17T12:15:36Z</time></trkpt><trkpt lat="43.75055773957029" lon="10.61889669126975"><ele>13.0</ele><time>2026-04-17T12:15:37Z</time></trkpt><trkpt lat="43.75071052637815" lon="10.61895929277645"><ele>13.0</ele><time>2026-04-17T12:15:38Z</time></trkpt><trkpt lat="43.75086011821493" lon="10.61901984422318"><ele>13.0</ele><time>2026-04-17T12:15:39Z</time></trkpt><trkpt lat="43.751007510162644" lon="10.619077377763197"><ele>13.0</ele><time>2026-04-17T12:15:40Z</time></trkpt><trkpt lat="43.75114290262877" lon="10.619129164520967"><ele>13.0</ele><time>2026-04-17T12:15:41Z</time></trkpt><trkpt lat="43.751267742748574" lon="10.61917038637712"><ele>13.0</ele><time>2026-04-17T12:15:42Z</time></trkpt><trkpt lat="43.75139362360268" lon="10.619198451149964"><ele>13.75</ele><time>2026-04-17T12:15:43Z</time></trkpt><trkpt lat="43.75152155584678" lon="10.619210314740718"><ele>14.5</ele><time>2026-04-17T12:15:44Z</time></trkpt><trkpt lat="43.75165781781683" lon="10.619203658651676"><ele>15.25</ele><time>2026-04-17T12:15:45Z</time></trkpt><trkpt lat="43.75179224007986" lon="10.619187825575485"><ele>16.0</ele><time>2026-04-17T12:15:46Z</time></trkpt><trkpt lat="43.75193998637808" lon="10.6191707229822"><ele>16.0</ele><time>2026-04-17T12:15:47Z</time></trkpt><trkpt lat="43.75208717892029" lon="10.619163512410077"><ele>16.0</ele><time>2026-04-17T12:15:48Z</time></trkpt><trkpt lat="43.75223881727847" lon="10.619150784790074"><ele>16.0</ele><time>2026-04-17T12:15:49Z</time></trkpt><trkpt lat="43.752393044187926" lon="10.619137681303236"><ele>16.0</ele><time>2026-04-17T12:15:50Z</time></trkpt><trkpt lat="43.75254787404643" lon="10.619126867860514"><ele>16.0</ele><time>2026-04-17T12:15:51Z</time></trkpt><trkpt lat="43.752700964661216" lon="10.619114334907142"><ele>16.0</ele><time>2026-04-17T12:15:52Z</time></trkpt><trkpt lat="43.75285320795227" lon="10.619104743500841"><ele>16.333333333333332</ele><time>2026-04-17T12:15:53Z</time></trkpt><trkpt lat="43.753008052152076" lon="10.619092839081771"><ele>16.666666666666668</ele><time>2026-04-17T12:15:54Z</time></trkpt><trkpt lat="43.75316391884775" lon="10.619081070037574"><ele>17.0</ele><time>2026-04-17T12:15:55Z</time></trkpt><trkpt lat="43.75332115795845" lon="10.61907011333837"><ele>17.0</ele><time>2026-04-17T12:15:56Z</time></trkpt><trkpt lat="43.75347681655724" lon="10.619069283229441"><ele>17.0</ele><time>2026-04-17T12:15:57Z</time></trkpt><trkpt lat="43.753629097000285" lon="10.61906400706321"><ele>17.0</ele><time>2026-04-17T12:15:58Z</time></trkpt><trkpt lat="43.75377855113489" lon="10.619059731616883"><ele>17.0</ele><time>2026-04-17T12:15:59Z</time></trkpt><trkpt lat="43.75392870710565" lon="10.619054522056835"><ele>17.0</ele><time>2026-04-17T12:16:00Z</time></trkpt><trkpt lat="43.75407760323487" lon="10.619046821332615"><ele>17.0</ele><time>2026-04-17T12:16:01Z</time></trkpt><trkpt lat="43.75422407879803" lon="10.619038313884827"><ele>17.0</ele><time>2026-04-17T12:16:02Z</time></trkpt><trkpt lat="43.754372880848926" lon="10.619029963066957"><ele>17.0</ele><time>2026-04-17T12:16:03Z</time></trkpt><trkpt lat="43.75452289437728" lon="10.61902214700783"><ele>17.0</ele><time>2026-04-17T12:16:04Z</time></trkpt><trkpt lat="43.75467368398408" lon="10.619010843233994"><ele>17.0</ele><time>2026-04-17T12:16:05Z</time></trkpt><trkpt lat="43.75483067171273" lon="10.6189982284371"><ele>17.0</ele><time>2026-04-17T12:16:06Z</time></trkpt><trkpt lat="43.75498697157332" lon="10.618984968181769"><ele>17.0</ele><time>2026-04-17T12:16:07Z</time></trkpt><trkpt lat="43.75514228404007" lon="10.618972488310645"><ele>17.0</ele><time>2026-04-17T12:16:08Z</time></trkpt><trkpt lat="43.75529692227387" lon="10.618958885269931"><ele>16.5</ele><time>2026-04-17T12:16:09Z</time></trkpt><trkpt lat="43.75544500555761" lon="10.618945455463079"><ele>16.0</ele><time>2026-04-17T12:16:10Z</time></trkpt><trkpt lat="43.755589669313125" lon="10.618921155831542"><ele>15.5</ele><time>2026-04-17T12:16:11Z</time></trkpt><trkpt lat="43.75572838236871" lon="10.618895954832942"><ele>15.0</ele><time>2026-04-17T12:16:12Z</time></trkpt><trkpt lat="43.75586523514438" lon="10.618875296689081"><ele>15.0</ele><time>2026-04-17T12:16:13Z</time></trkpt><trkpt lat="43.75600256795844" lon="10.618850437111991"><ele>15.0</ele><time>2026-04-17T12:16:14Z</time></trkpt><trkpt lat="43.75614156499958" lon="10.618818927672825"><ele>15.0</ele><time>2026-04-17T12:16:15Z</time></trkpt><trkpt lat="43.756285619927155" lon="10.618774474754423"><ele>15.0</ele><time>2026-04-17T12:16:16Z</time></trkpt><trkpt lat="43.75643474648412" lon="10.618721786161565"><ele>15.0</ele><time>2026-04-17T12:16:17Z</time></trkpt><trkpt lat="43.756589199868934" lon="10.618671728008522"><ele>15.0</ele><time>2026-04-17T12:16:18Z</time></trkpt><trkpt lat="43.75674849572816" lon="10.61862191391397"><ele>15.0</ele><time>2026-04-17T12:16:19Z</time></trkpt><trkpt lat="43.756913269462" lon="10.618568498044565"><ele>15.0</ele><time>2026-04-17T12:16:20Z</time></trkpt><trkpt lat="43.757076279430855" lon="10.618521879251915"><ele>15.0</ele><time>2026-04-17T12:16:21Z</time></trkpt><trkpt lat="43.75723666470907" lon="10.618473142327574"><ele>15.0</ele><time>2026-04-17T12:16:22Z</time></trkpt><trkpt lat="43.757396139641145" lon="10.618421027536098"><ele>15.0</ele><time>2026-04-17T12:16:23Z</time></trkpt><trkpt lat="43.75755587756808" lon="10.618372157294013"><ele>15.0</ele><time>2026-04-17T12:16:24Z</time></trkpt><trkpt lat="43.75770892609001" lon="10.618309735042574"><ele>15.0</ele><time>2026-04-17T12:16:25Z</time></trkpt><trkpt lat="43.75785509374784" lon="10.61823613398529"><ele>15.25</ele><time>2026-04-17T12:16:26Z</time></trkpt><trkpt lat="43.757992493236785" lon="10.618150001348267"><ele>15.5</ele><time>2026-04-17T12:16:27Z</time></trkpt><trkpt lat="43.75812059763155" lon="10.618055308464974"><ele>15.75</ele><time>2026-04-17T12:16:28Z</time></trkpt><trkpt lat="43.758246038022016" lon="10.617970614967701"><ele>16.0</ele><time>2026-04-17T12:16:29Z</time></trkpt><trkpt lat="43.75837448242508" lon="10.617898512622329"><ele>16.0</ele><time>2026-04-17T12:16:30Z</time></trkpt><trkpt lat="43.758507379132226" lon="10.617832685005274"><ele>16.0</ele><time>2026-04-17T12:16:31Z</time></trkpt><trkpt lat="43.75864697710413" lon="10.617781157257875"><ele>16.0</ele><time>2026-04-17T12:16:32Z</time></trkpt><trkpt lat="43.75879081248712" lon="10.617736564637777"><ele>16.0</ele><time>2026-04-17T12:16:33Z</time></trkpt><trkpt lat="43.75893160670602" lon="10.61769278631447"><ele>17.5</ele><time>2026-04-17T12:16:34Z</time></trkpt><trkpt lat="43.75907499343205" lon="10.617649550325511"><ele>19.0</ele><time>2026-04-17T12:16:35Z</time></trkpt><trkpt lat="43.759220866065185" lon="10.61760554105608"><ele>20.5</ele><time>2026-04-17T12:16:36Z</time></trkpt><trkpt lat="43.759362766820345" lon="10.617559307519064"><ele>22.0</ele><time>2026-04-17T12:16:37Z</time></trkpt><trkpt lat="43.759505779468526" lon="10.617510268174495"><ele>22.0</ele><time>2026-04-17T12:16:38Z</time></trkpt><trkpt lat="43.75965487197529" lon="10.617464477896704"><ele>22.0</ele><time>2026-04-17T12:16:39Z</time></trkpt><trkpt lat="43.7598035935439" lon="10.617417138365333"><ele>22.0</ele><time>2026-04-17T12:16:40Z</time></trkpt><trkpt lat="43.75994793608011" lon="10.617369279896753"><ele>22.0</ele><time>2026-04-17T12:16:41Z</time></trkpt><trkpt lat="43.760091456427276" lon="10.617317999533789"><ele>22.0</ele><time>2026-04-17T12:16:42Z</time></trkpt><trkpt lat="43.76023855335362" lon="10.617266264575719"><ele>22.0</ele><time>2026-04-17T12:16:43Z</time></trkpt><trkpt lat="43.76038341443425" lon="10.617214462488127"><ele>21.25</ele><time>2026-04-17T12:16:44Z</time></trkpt><trkpt lat="43.76052245863399" lon="10.617155042256348"><ele>20.5</ele><time>2026-04-17T12:16:45Z</time></trkpt><trkpt lat="43.760658591943084" lon="10.61709777183888"><ele>19.75</ele><time>2026-04-17T12:16:46Z</time></trkpt><trkpt lat="43.760785605240315" lon="10.617042924440304"><ele>19.0</ele><time>2026-04-17T12:16:47Z</time></trkpt><trkpt lat="43.760900797923284" lon="10.616989337315932"><ele>19.5</ele><time>2026-04-17T12:16:48Z</time></trkpt><trkpt lat="43.76100572412025" lon="10.616911457494279"><ele>20.0</ele><time>2026-04-17T12:16:49Z</time></trkpt><trkpt lat="43.76110808262956" lon="10.616801603247527"><ele>20.5</ele><time>2026-04-17T12:16:50Z</time></trkpt><trkpt lat="43.761205995421214" lon="10.616676578619206"><ele>21.0</ele><time>2026-04-17T12:16:51Z</time></trkpt><trkpt lat="43.761312621399995" lon="10.616547196483982"><ele>21.0</ele><time>2026-04-17T12:16:52Z</time></trkpt><trkpt lat="43.761423241962675" lon="10.616419309427558"><ele>21.0</ele><time>2026-04-17T12:16:53Z</time></trkpt><trkpt lat="43.76153502697879" lon="10.616291201958745"><ele>21.0</ele><time>2026-04-17T12:16:54Z</time></trkpt><trkpt lat="43.76164734425956" lon="10.61616531469824"><ele>21.0</ele><time>2026-04-17T12:16:55Z</time></trkpt><trkpt lat="43.76176217719198" lon="10.61604397855573"><ele>21.25</ele><time>2026-04-17T12:16:56Z</time></trkpt><trkpt lat="43.76188658580759" lon="10.615930715523913"><ele>21.5</ele><time>2026-04-17T12:16:57Z</time></trkpt><trkpt lat="43.762013727064286" lon="10.61582498514502"><ele>21.75</ele><time>2026-04-17T12:16:58Z</time></trkpt><trkpt lat="43.76213940878282" lon="10.61571577240264"><ele>22.0</ele><time>2026-04-17T12:16:59Z</time></trkpt><trkpt lat="43.76226825997597" lon="10.615604250615826"><ele>22.0</ele><time>2026-04-17T12:17:00Z</time></trkpt><trkpt lat="43.76239657185358" lon="10.615496986304645"><ele>22.0</ele><time>2026-04-17T12:17:01Z</time></trkpt><trkpt lat="43.7625240354551" lon="10.615388780665818"><ele>22.0</ele><time>2026-04-17T12:17:02Z</time></trkpt><trkpt lat="43.76265253341113" lon="10.615277425827394"><ele>22.666666666666664</ele><time>2026-04-17T12:17:03Z</time></trkpt><trkpt lat="43.76278251649134" lon="10.615163267274347"><ele>23.333333333333332</ele><time>2026-04-17T12:17:04Z</time></trkpt><trkpt lat="43.7629138813105" lon="10.615051995551504"><ele>24.0</ele><time>2026-04-17T12:17:05Z</time></trkpt><trkpt lat="43.763045297001185" lon="10.61495328896974"><ele>24.0</ele><time>2026-04-17T12:17:06Z</time></trkpt><trkpt lat="43.76317165056829" lon="10.614864744447475"><ele>24.0</ele><time>2026-04-17T12:17:07Z</time></trkpt><trkpt lat="43.76329396473657" lon="10.614778429418784"><ele>24.0</ele><time>2026-04-17T12:17:08Z</time></trkpt><trkpt lat="43.76340937809144" lon="10.614697139687555"><ele>24.0</ele><time>2026-04-17T12:17:09Z</time></trkpt><trkpt lat="43.76351354844986" lon="10.614606178645234"><ele>24.0</ele><time>2026-04-17T12:17:10Z</time></trkpt><trkpt lat="43.76359715069072" lon="10.614489872608951"><ele>24.0</ele><time>2026-04-17T12:17:11Z</time></trkpt><trkpt lat="43.7636690122106" lon="10.6143585044854"><ele>24.0</ele><time>2026-04-17T12:17:12Z</time></trkpt><trkpt lat="43.76375191797641" lon="10.61420909656889"><ele>24.0</ele><time>2026-04-17T12:17:13Z</time></trkpt><trkpt lat="43.763828921236346" lon="10.614129436824593"><ele>25.5</ele><time>2026-04-17T12:17:14Z</time></trkpt><trkpt lat="43.76393479634657" lon="10.614061559330693"><ele>27.0</ele><time>2026-04-17T12:17:15Z</time></trkpt><trkpt lat="43.76404837115607" lon="10.614006458223548"><ele>28.5</ele><time>2026-04-17T12:17:16Z</time></trkpt><trkpt lat="43.76415830172475" lon="10.613936283021927"><ele>30.0</ele><time>2026-04-17T12:17:17Z</time></trkpt><trkpt lat="43.76426676716574" lon="10.613863067626026"><ele>29.25</ele><time>2026-04-17T12:17:18Z</time></trkpt><trkpt lat="43.764376816801274" lon="10.613777204653342"><ele>28.5</ele><time>2026-04-17T12:17:19Z</time></trkpt><trkpt lat="43.7644895314731" lon="10.613691444032414"><ele>27.75</ele><time>2026-04-17T12:17:20Z</time></trkpt><trkpt lat="43.764603841847475" lon="10.613610626703514"><ele>27.0</ele><time>2026-04-17T12:17:21Z</time></trkpt><trkpt lat="43.76472056931547" lon="10.613526721673155"><ele>27.0</ele><time>2026-04-17T12:17:22Z</time></trkpt><trkpt lat="43.76483764545364" lon="10.613443283389177"><ele>27.0</ele><time>2026-04-17T12:17:23Z</time></trkpt><trkpt lat="43.764961086359925" lon="10.613353945746375"><ele>27.0</ele><time>2026-04-17T12:17:24Z</time></trkpt><trkpt lat="43.7650867251639" lon="10.613269118176571"><ele>27.0</ele><time>2026-04-17T12:17:25Z</time></trkpt><trkpt lat="43.76521421934882" lon="10.613177435614658"><ele>27.0</ele><time>2026-04-17T12:17:26Z</time></trkpt><trkpt lat="43.765339443044184" lon="10.61307663516578"><ele>27.0</ele><time>2026-04-17T12:17:27Z</time></trkpt><trkpt lat="43.76546193234962" lon="10.612974123421832"><ele>27.0</ele><time>2026-04-17T12:17:28Z</time></trkpt><trkpt lat="43.76558157956223" lon="10.612872965157678"><ele>27.0</ele><time>2026-04-17T12:17:29Z</time></trkpt><trkpt lat="43.765691766426876" lon="10.612772793698623"><ele>27.25</ele><time>2026-04-17T12:17:30Z</time></trkpt><trkpt lat="43.765792364954514" lon="10.612672644397202"><ele>27.5</ele><time>2026-04-17T12:17:31Z</time></trkpt><trkpt lat="43.76588822765775" lon="10.612564918343297"><ele>27.75</ele><time>2026-04-17T12:17:32Z</time></trkpt><trkpt lat="43.76597683139769" lon="10.612435875588236"><ele>28.0</ele><time>2026-04-17T12:17:33Z</time></trkpt><trkpt lat="43.766055396101144" lon="10.612286268926225"><ele>28.0</ele><time>2026-04-17T12:17:34Z</time></trkpt><trkpt lat="43.76613146217792" lon="10.612127272282056"><ele>28.0</ele><time>2026-04-17T12:17:35Z</time></trkpt><trkpt lat="43.76620692703776" lon="10.611967649533858"><ele>28.0</ele><time>2026-04-17T12:17:36Z</time></trkpt><trkpt lat="43.76627554632518" lon="10.611804093880401"><ele>28.0</ele><time>2026-04-17T12:17:37Z</time></trkpt><trkpt lat="43.766333204705006" lon="10.611629265408467"><ele>29.25</ele><time>2026-04-17T12:17:38Z</time></trkpt><trkpt lat="43.76638374019409" lon="10.611448929444565"><ele>30.5</ele><time>2026-04-17T12:17:39Z</time></trkpt><trkpt lat="43.76642591237442" lon="10.611261147160704"><ele>31.75</ele><time>2026-04-17T12:17:40Z</time></trkpt><trkpt lat="43.7664644551569" lon="10.611070878758586"><ele>33.0</ele><time>2026-04-17T12:17:41Z</time></trkpt><trkpt lat="43.76650204572531" lon="10.610889422392724"><ele>33.75</ele><time>2026-04-17T12:17:42Z</time></trkpt><trkpt lat="43.76653642157781" lon="10.610715738522057"><ele>34.5</ele><time>2026-04-17T12:17:43Z</time></trkpt><trkpt lat="43.76656187330261" lon="10.610550004243533"><ele>35.25</ele><time>2026-04-17T12:17:44Z</time></trkpt><trkpt lat="43.76658186943003" lon="10.610378944503275"><ele>36.0</ele><time>2026-04-17T12:17:45Z</time></trkpt><trkpt lat="43.766591780488234" lon="10.610204007573776"><ele>36.75</ele><time>2026-04-17T12:17:46Z</time></trkpt><trkpt lat="43.76659501310712" lon="10.61002614463895"><ele>37.5</ele><time>2026-04-17T12:17:47Z</time></trkpt><trkpt lat="43.76659343054709" lon="10.60984696786295"><ele>38.25</ele><time>2026-04-17T12:17:48Z</time></trkpt><trkpt lat="43.76659487822709" lon="10.609674521993483"><ele>39.0</ele><time>2026-04-17T12:17:49Z</time></trkpt><trkpt lat="43.76660097547422" lon="10.609511331454803"><ele>40.25</ele><time>2026-04-17T12:17:50Z</time></trkpt><trkpt lat="43.766608967234625" lon="10.609356339986533"><ele>41.5</ele><time>2026-04-17T12:17:51Z</time></trkpt><trkpt lat="43.766630678663375" lon="10.609209743820301"><ele>42.75</ele><time>2026-04-17T12:17:52Z</time></trkpt><trkpt lat="43.766676746358534" lon="10.609067644286059"><ele>44.0</ele><time>2026-04-17T12:17:53Z</time></trkpt><trkpt lat="43.76674153393522" lon="10.60892884857443"><ele>44.0</ele><time>2026-04-17T12:17:54Z</time></trkpt><trkpt lat="43.766824931643825" lon="10.60879718086128"><ele>44.0</ele><time>2026-04-17T12:17:55Z</time></trkpt><trkpt lat="43.766912478395206" lon="10.608656771298808"><ele>44.0</ele><time>2026-04-17T12:17:56Z</time></trkpt><trkpt lat="43.76699211227982" lon="10.608520225329292"><ele>44.0</ele><time>2026-04-17T12:17:57Z</time></trkpt><trkpt lat="43.767070073396084" lon="10.608389265519612"><ele>43.5</ele><time>2026-04-17T12:17:58Z</time></trkpt><trkpt lat="43.76714605246161" lon="10.608260019298658"><ele>43.0</ele><time>2026-04-17T12:17:59Z</time></trkpt><trkpt lat="43.767217990398855" lon="10.608133383363972"><ele>42.5</ele><time>2026-04-17T12:18:00Z</time></trkpt><trkpt lat="43.76729355634312" lon="10.608013047106756"><ele>42.0</ele><time>2026-04-17T12:18:01Z</time></trkpt><trkpt lat="43.767377955840516" lon="10.607901512755097"><ele>42.0</ele><time>2026-04-17T12:18:02Z</time></trkpt><trkpt lat="43.76748037126142" lon="10.607809969472699"><ele>42.0</ele><time>2026-04-17T12:18:03Z</time></trkpt><trkpt lat="43.76759835506498" lon="10.607741141194223"><ele>42.0</ele><time>2026-04-17T12:18:04Z</time></trkpt><trkpt lat="43.76772367468685" lon="10.607688449014404"><ele>42.0</ele><time>2026-04-17T12:18:05Z</time></trkpt><trkpt lat="43.76784464053405" lon="10.60763976640263"><ele>42.25</ele><time>2026-04-17T12:18:06Z</time></trkpt><trkpt lat="43.767960904724724" lon="10.607590551165618"><ele>42.5</ele><time>2026-04-17T12:18:07Z</time></trkpt><trkpt lat="43.76807411733692" lon="10.60754302852963"><ele>42.75</ele><time>2026-04-17T12:18:08Z</time></trkpt><trkpt lat="43.76818791975655" lon="10.607500030117599"><ele>43.0</ele><time>2026-04-17T12:18:09Z</time></trkpt><trkpt lat="43.76829828267201" lon="10.607458763654154"><ele>43.0</ele><time>2026-04-17T12:18:10Z</time></trkpt><trkpt lat="43.768403653286406" lon="10.6074162047673"><ele>43.0</ele><time>2026-04-17T12:18:11Z</time></trkpt><trkpt lat="43.768504494320595" lon="10.607369419810839"><ele>43.0</ele><time>2026-04-17T12:18:12Z</time></trkpt><trkpt lat="43.76860142522964" lon="10.607299635385393"><ele>43.0</ele><time>2026-04-17T12:18:13Z</time></trkpt><trkpt lat="43.768687168214974" lon="10.60719921646053"><ele>43.0</ele><time>2026-04-17T12:18:14Z</time></trkpt><trkpt lat="43.76876054286671" lon="10.607067878275695"><ele>43.5</ele><time>2026-04-17T12:18:15Z</time></trkpt><trkpt lat="43.76882146409213" lon="10.606917317640953"><ele>44.0</ele><time>2026-04-17T12:18:16Z</time></trkpt><trkpt lat="43.76887744079652" lon="10.606759089824255"><ele>44.5</ele><time>2026-04-17T12:18:17Z</time></trkpt><trkpt lat="43.76893467930659" lon="10.606598042535671"><ele>45.0</ele><time>2026-04-17T12:18:18Z</time></trkpt><trkpt lat="43.768994170052025" lon="10.6064457566955"><ele>45.0</ele><time>2026-04-17T12:18:19Z</time></trkpt><trkpt lat="43.769054966030396" lon="10.606296184978335"><ele>45.0</ele><time>2026-04-17T12:18:20Z</time></trkpt><trkpt lat="43.7691167195575" lon="10.606146953245023"><ele>45.0</ele><time>2026-04-17T12:18:21Z</time></trkpt><trkpt lat="43.76919029784346" lon="10.606004705372692"><ele>45.0</ele><time>2026-04-17T12:18:22Z</time></trkpt><trkpt lat="43.76927592069804" lon="10.605874447582478"><ele>46.25</ele><time>2026-04-17T12:18:23Z</time></trkpt><trkpt lat="43.76936884669614" lon="10.605754639121354"><ele>47.5</ele><time>2026-04-17T12:18:24Z</time></trkpt><trkpt lat="43.76945682799759" lon="10.605641162399762"><ele>48.75</ele><time>2026-04-17T12:18:25Z</time></trkpt><trkpt lat="43.769540157765476" lon="10.60553670671259"><ele>50.0</ele><time>2026-04-17T12:18:26Z</time></trkpt><trkpt lat="43.769617874509095" lon="10.605445617052148"><ele>50.00000000000001</ele><time>2026-04-17T12:18:27Z</time></trkpt><trkpt lat="43.769684226199026" lon="10.605363175890034"><ele>50.0</ele><time>2026-04-17T12:18:28Z</time></trkpt><trkpt lat="43.76973669351038" lon="10.605270603782536"><ele>50.0</ele><time>2026-04-17T12:18:29Z</time></trkpt><trkpt lat="43.76977127936407" lon="10.605153649493102"><ele>50.0</ele><time>2026-04-17T12:18:30Z</time></trkpt><trkpt lat="43.76978426828875" lon="10.60502977869411"><ele>50.00000000000001</ele><time>2026-04-17T12:18:31Z</time></trkpt><trkpt lat="43.76980113794575" lon="10.604921236675827"><ele>50.0</ele><time>2026-04-17T12:18:32Z</time></trkpt><trkpt lat="43.76983057126519" lon="10.604828419782086"><ele>50.50000000000001</ele><time>2026-04-17T12:18:33Z</time></trkpt><trkpt lat="43.769879016683284" lon="10.604749802415261"><ele>51.0</ele><time>2026-04-17T12:18:34Z</time></trkpt><trkpt lat="43.769943282791914" lon="10.604685998209147"><ele>51.5</ele><time>2026-04-17T12:18:35Z</time></trkpt><trkpt lat="43.77001789874533" lon="10.604620059664944"><ele>52.0</ele><time>2026-04-17T12:18:36Z</time></trkpt><trkpt lat="43.77010216689611" lon="10.604550659060829"><ele>52.50000000000001</ele><time>2026-04-17T12:18:37Z</time></trkpt><trkpt lat="43.77019241917723" lon="10.60447809734107"><ele>53.0</ele><time>2026-04-17T12:18:38Z</time></trkpt><trkpt lat="43.770284445787844" lon="10.604398606166502"><ele>53.25</ele><time>2026-04-17T12:18:39Z</time></trkpt><trkpt lat="43.77037272979552" lon="10.604305991165473"><ele>53.5</ele><time>2026-04-17T12:18:40Z</time></trkpt><trkpt lat="43.77046015449575" lon="10.604201197762277"><ele>53.75</ele><time>2026-04-17T12:18:41Z</time></trkpt><trkpt lat="43.77055134653227" lon="10.604089982874555"><ele>54.0</ele><time>2026-04-17T12:18:42Z</time></trkpt><trkpt lat="43.77064494689427" lon="10.603976677824384"><ele>54.0</ele><time>2026-04-17T12:18:43Z</time></trkpt><trkpt lat="43.770739179664986" lon="10.603858999069322"><ele>54.0</ele><time>2026-04-17T12:18:44Z</time></trkpt><trkpt lat="43.77083017725041" lon="10.603741159612603"><ele>54.0</ele><time>2026-04-17T12:18:45Z</time></trkpt><trkpt lat="43.77091908509233" lon="10.60363470997198"><ele>54.0</ele><time>2026-04-17T12:18:46Z</time></trkpt><trkpt lat="43.77100791706643" lon="10.603530467370879"><ele>54.800000000000004</ele><time>2026-04-17T12:18:47Z</time></trkpt><trkpt lat="43.7710946007765" lon="10.603429903514188"><ele>55.60000000000001</ele><time>2026-04-17T12:18:48Z</time></trkpt><trkpt lat="43.77118241688677" lon="10.603332153236785"><ele>56.4</ele><time>2026-04-17T12:18:49Z</time></trkpt><trkpt lat="43.77126580526559" lon="10.603239836081517"><ele>57.2</ele><time>2026-04-17T12:18:50Z</time></trkpt><trkpt lat="43.771344751610535" lon="10.603146808141135"><ele>58.0</ele><time>2026-04-17T12:18:51Z</time></trkpt><trkpt lat="43.77142085003027" lon="10.603048976350948"><ele>58.0</ele><time>2026-04-17T12:18:52Z</time></trkpt><trkpt lat="43.77149407851985" lon="10.602944977723633"><ele>58.0</ele><time>2026-04-17T12:18:53Z</time></trkpt><trkpt lat="43.771567421037275" lon="10.602839636492172"><ele>58.0</ele><time>2026-04-17T12:18:54Z</time></trkpt><trkpt lat="43.77164132717849" lon="10.602731111562507"><ele>58.0</ele><time>2026-04-17T12:18:55Z</time></trkpt><trkpt lat="43.77171923250829" lon="10.602624668778342"><ele>58.0</ele><time>2026-04-17T12:18:56Z</time></trkpt><trkpt lat="43.77180617885666" lon="10.602530859306398"><ele>56.5</ele><time>2026-04-17T12:18:57Z</time></trkpt><trkpt lat="43.77190229206402" lon="10.602452279739525"><ele>55.0</ele><time>2026-04-17T12:18:58Z</time></trkpt><trkpt lat="43.77200314166454" lon="10.602380004757"><ele>53.5</ele><time>2026-04-17T12:18:59Z</time></trkpt><trkpt lat="43.772106465344315" lon="10.602309903444718"><ele>52.0</ele><time>2026-04-17T12:19:00Z</time></trkpt><trkpt lat="43.77220450120049" lon="10.602237519493983"><ele>51.99999999999999</ele><time>2026-04-17T12:19:01Z</time></trkpt><trkpt lat="43.77229805967854" lon="10.602166361480535"><ele>52.0</ele><time>2026-04-17T12:19:02Z</time></trkpt><trkpt lat="43.772381607043144" lon="10.602098479513838"><ele>52.0</ele><time>2026-04-17T12:19:03Z</time></trkpt><trkpt lat="43.77245051626357" lon="10.602033648589844"><ele>52.0</ele><time>2026-04-17T12:19:04Z</time></trkpt><trkpt lat="43.77250625616468" lon="10.601952374784494"><ele>51.99999999999999</ele><time>2026-04-17T12:19:05Z</time></trkpt><trkpt lat="43.772545352613434" lon="10.601853307544362"><ele>52.0</ele><time>2026-04-17T12:19:06Z</time></trkpt><trkpt lat="43.77256245888851" lon="10.601742639277605"><ele>51.99999999999999</ele><time>2026-04-17T12:19:07Z</time></trkpt><trkpt lat="43.77255467847529" lon="10.601625634966403"><ele>52.0</ele><time>2026-04-17T12:19:08Z</time></trkpt><trkpt lat="43.772534769955776" lon="10.601501283170371"><ele>52.0</ele><time>2026-04-17T12:19:09Z</time></trkpt><trkpt lat="43.77251240566027" lon="10.601382934456188"><ele>52.0</ele><time>2026-04-17T12:19:10Z</time></trkpt><trkpt lat="43.77250081605301" lon="10.601269430047175"><ele>51.99999999999999</ele><time>2026-04-17T12:19:11Z</time></trkpt><trkpt lat="43.772510477884644" lon="10.601162450932723"><ele>52.0</ele><time>2026-04-17T12:19:12Z</time></trkpt><trkpt lat="43.772541013080826" lon="10.601065357179603"><ele>52.33333333333333</ele><time>2026-04-17T12:19:13Z</time></trkpt><trkpt lat="43.7725942097065" lon="10.600987801261642"><ele>52.666666666666664</ele><time>2026-04-17T12:19:14Z</time></trkpt><trkpt lat="43.77266833919237" lon="10.600937036772835"><ele>53.0</ele><time>2026-04-17T12:19:15Z</time></trkpt><trkpt lat="43.77275501628705" lon="10.600912253711813"><ele>53.33333333333333</ele><time>2026-04-17T12:19:16Z</time></trkpt><trkpt lat="43.77284947418244" lon="10.60088629541695"><ele>53.666666666666664</ele><time>2026-04-17T12:19:17Z</time></trkpt><trkpt lat="43.77294710058685" lon="10.600860018882223"><ele>54.0</ele><time>2026-04-17T12:19:18Z</time></trkpt><trkpt lat="43.7730469889891" lon="10.600836974751957"><ele>54.0</ele><time>2026-04-17T12:19:19Z</time></trkpt><trkpt lat="43.7731471650702" lon="10.600814727877012"><ele>54.00000000000001</ele><time>2026-04-17T12:19:20Z</time></trkpt><trkpt lat="43.773245921178955" lon="10.600796195330387"><ele>54.00000000000001</ele><time>2026-04-17T12:19:21Z</time></trkpt><trkpt lat="43.773344074995975" lon="10.600781092965017"><ele>54.0</ele><time>2026-04-17T12:19:22Z</time></trkpt><trkpt lat="43.77344501112794" lon="10.600766601093987"><ele>54.0</ele><time>2026-04-17T12:19:23Z</time></trkpt><trkpt lat="43.77354796677501" lon="10.600754299065507"><ele>53.5</ele><time>2026-04-17T12:19:24Z</time></trkpt><trkpt lat="43.77365570905357" lon="10.600746394959192"><ele>53.0</ele><time>2026-04-17T12:19:25Z</time></trkpt><trkpt lat="43.773769679326776" lon="10.600745887068722"><ele>52.5</ele><time>2026-04-17T12:19:26Z</time></trkpt><trkpt lat="43.77388340226621" lon="10.600760203767193"><ele>52.0</ele><time>2026-04-17T12:19:27Z</time></trkpt><trkpt lat="43.774001699351295" lon="10.600777806018648"><ele>52.0</ele><time>2026-04-17T12:19:28Z</time></trkpt><trkpt lat="43.774124375308986" lon="10.600790846641951"><ele>52.0</ele><time>2026-04-17T12:19:29Z</time></trkpt><trkpt lat="43.77424648913774" lon="10.600801093041204"><ele>52.0</ele><time>2026-04-17T12:19:30Z</time></trkpt><trkpt lat="43.77436898419597" lon="10.600811281160153"><ele>52.0</ele><time>2026-04-17T12:19:31Z</time></trkpt><trkpt lat="43.774490939668134" lon="10.600819821706427"><ele>51.6</ele><time>2026-04-17T12:19:32Z</time></trkpt><trkpt lat="43.77461086885789" lon="10.600824391519044"><ele>51.2</ele><time>2026-04-17T12:19:33Z</time></trkpt><trkpt lat="43.77472104780902" lon="10.600822568030633"><ele>50.8</ele><time>2026-04-17T12:19:34Z</time></trkpt><trkpt lat="43.774817459975715" lon="10.600812887200465"><ele>50.4</ele><time>2026-04-17T12:19:35Z</time></trkpt><trkpt lat="43.774907539598225" lon="10.600795566509072"><ele>50.0</ele><time>2026-04-17T12:19:36Z</time></trkpt><trkpt lat="43.77499343710255" lon="10.600753426049046"><ele>50.00000000000001</ele><time>2026-04-17T12:19:37Z</time></trkpt><trkpt lat="43.77505333305815" lon="10.600694982937833"><ele>50.0</ele><time>2026-04-17T12:19:38Z</time></trkpt><trkpt lat="43.77509821500029" lon="10.600618251964661"><ele>50.0</ele><time>2026-04-17T12:19:39Z</time></trkpt><trkpt lat="43.77513494827813" lon="10.600537633539641"><ele>50.0</ele><time>2026-04-17T12:19:40Z</time></trkpt><trkpt lat="43.775158806454506" lon="10.60044453695838"><ele>50.00000000000001</ele><time>2026-04-17T12:19:41Z</time></trkpt><trkpt lat="43.77519109154149" lon="10.60035396155354"><ele>50.0</ele><time>2026-04-17T12:19:42Z</time></trkpt><trkpt lat="43.77517158508055" lon="10.60022111106448"><ele>49.50000000000001</ele><time>2026-04-17T12:19:43Z</time></trkpt><trkpt lat="43.77516196100582" lon="10.60010121490472"><ele>49.0</ele><time>2026-04-17T12:19:44Z</time></trkpt><trkpt lat="43.77514078607834" lon="10.599995791503797"><ele>48.5</ele><time>2026-04-17T12:19:45Z</time></trkpt><trkpt lat="43.775082705422285" lon="10.599875676649523"><ele>48.0</ele><time>2026-04-17T12:19:47Z</time></trkpt><trkpt lat="43.77505019465912" lon="10.599794375537359"><ele>47.5</ele><time>2026-04-17T12:19:49Z</time></trkpt><trkpt lat="43.77508344949765" lon="10.599690811107887"><ele>47.0</ele><time>2026-04-17T12:19:51Z</time></trkpt><trkpt lat="43.775200905105784" lon="10.599742401938633"><ele>45.2</ele><time>2026-04-17T12:19:53Z</time></trkpt><trkpt lat="43.77525730525327" lon="10.599818143898606"><ele>43.400000000000006</ele><time>2026-04-17T12:19:54Z</time></trkpt><trkpt lat="43.77532368872136" lon="10.599886904608937"><ele>41.599999999999994</ele><time>2026-04-17T12:19:55Z</time></trkpt><trkpt lat="43.775404259359924" lon="10.599949847101263"><ele>39.8</ele><time>2026-04-17T12:19:56Z</time></trkpt><trkpt lat="43.775488815683005" lon="10.600017917154508"><ele>38.0</ele><time>2026-04-17T12:19:57Z</time></trkpt><trkpt lat="43.77558103440768" lon="10.600083373807239"><ele>38.0</ele><time>2026-04-17T12:19:58Z</time></trkpt><trkpt lat="43.77567316050407" lon="10.600155194044303"><ele>38.0</ele><time>2026-04-17T12:19:59Z</time></trkpt><trkpt lat="43.7757647330839" lon="10.600232094930158"><ele>38.0</ele><time>2026-04-17T12:20:00Z</time></trkpt><trkpt lat="43.77585056282295" lon="10.600305229043412"><ele>38.0</ele><time>2026-04-17T12:20:01Z</time></trkpt><trkpt lat="43.77593374357867" lon="10.60037363015181"><ele>38.0</ele><time>2026-04-17T12:20:02Z</time></trkpt><trkpt lat="43.77601597290813" lon="10.600442729503673"><ele>37.714285714285715</ele><time>2026-04-17T12:20:03Z</time></trkpt><trkpt lat="43.7760925955593" lon="10.600508863110015"><ele>37.42857142857143</ele><time>2026-04-17T12:20:04Z</time></trkpt><trkpt lat="43.77615783918727" lon="10.600557038558945"><ele>37.142857142857146</ele><time>2026-04-17T12:20:05Z</time></trkpt><trkpt lat="43.776222483537154" lon="10.600598352319588"><ele>36.85714285714286</ele><time>2026-04-17T12:20:06Z</time></trkpt><trkpt lat="43.77628630501335" lon="10.600619321644649"><ele>36.57142857142857</ele><time>2026-04-17T12:20:07Z</time></trkpt><trkpt lat="43.77635042994564" lon="10.600613987341593"><ele>36.28571428571429</ele><time>2026-04-17T12:20:08Z</time></trkpt><trkpt lat="43.77641583255633" lon="10.600585137258804"><ele>36.0</ele><time>2026-04-17T12:20:09Z</time></trkpt><trkpt lat="43.77647841943886" lon="10.600527332271215"><ele>36.0</ele><time>2026-04-17T12:20:10Z</time></trkpt><trkpt lat="43.77653212324856" lon="10.600446826717649"><ele>36.0</ele><time>2026-04-17T12:20:11Z</time></trkpt><trkpt lat="43.77657299950374" lon="10.600346153142988"><ele>36.0</ele><time>2026-04-17T12:20:12Z</time></trkpt><trkpt lat="43.77660210098298" lon="10.60023169060444"><ele>36.0</ele><time>2026-04-17T12:20:13Z</time></trkpt><trkpt lat="43.776625838520225" lon="10.600125861756885"><ele>36.0</ele><time>2026-04-17T12:20:14Z</time></trkpt><trkpt lat="43.77665575098207" lon="10.600035922516161"><ele>36.0</ele><time>2026-04-17T12:20:15Z</time></trkpt><trkpt lat="43.776690885583264" lon="10.599955898675015"><ele>36.0</ele><time>2026-04-17T12:20:16Z</time></trkpt><trkpt lat="43.77673734744391" lon="10.599890877045015"><ele>36.0</ele><time>2026-04-17T12:20:17Z</time></trkpt><trkpt lat="43.77680574363866" lon="10.59986591153622"><ele>36.0</ele><time>2026-04-17T12:20:18Z</time></trkpt><trkpt lat="43.77687670766904" lon="10.599811486713733"><ele>36.0</ele><time>2026-04-17T12:20:19Z</time></trkpt><trkpt lat="43.776960851690355" lon="10.599778804789462"><ele>36.0</ele><time>2026-04-17T12:20:20Z</time></trkpt><trkpt lat="43.77704443120105" lon="10.59973871248239"><ele>36.0</ele><time>2026-04-17T12:20:21Z</time></trkpt><trkpt lat="43.777117606266465" lon="10.599706253472695"><ele>35.333333333333336</ele><time>2026-04-17T12:20:22Z</time></trkpt><trkpt lat="43.777181279642626" lon="10.599673117177625"><ele>34.666666666666664</ele><time>2026-04-17T12:20:23Z</time></trkpt><trkpt lat="43.77723948431505" lon="10.599624578565416"><ele>34.0</ele><time>2026-04-17T12:20:24Z</time></trkpt><trkpt lat="43.77730231268926" lon="10.599562596137114"><ele>33.33333333333333</ele><time>2026-04-17T12:20:25Z</time></trkpt><trkpt lat="43.77737355453995" lon="10.599481918361228"><ele>32.666666666666664</ele><time>2026-04-17T12:20:26Z</time></trkpt><trkpt lat="43.777448682627174" lon="10.599387897102224"><ele>32.0</ele><time>2026-04-17T12:20:27Z</time></trkpt><trkpt lat="43.777527426003694" lon="10.599282176098406"><ele>32.0</ele><time>2026-04-17T12:20:28Z</time></trkpt><trkpt lat="43.77760718585836" lon="10.599175154083774"><ele>32.0</ele><time>2026-04-17T12:20:29Z</time></trkpt><trkpt lat="43.77768195319895" lon="10.59907087153639"><ele>32.0</ele><time>2026-04-17T12:20:30Z</time></trkpt><trkpt lat="43.777750391968574" lon="10.59897832909742"><ele>32.0</ele><time>2026-04-17T12:20:31Z</time></trkpt><trkpt lat="43.77781657789251" lon="10.598895106753975"><ele>32.0</ele><time>2026-04-17T12:20:32Z</time></trkpt><trkpt lat="43.77788625121176" lon="10.5988142407683"><ele>31.400000000000002</ele><time>2026-04-17T12:20:33Z</time></trkpt><trkpt lat="43.777972810200936" lon="10.598764634848747"><ele>30.800000000000004</ele><time>2026-04-17T12:20:34Z</time></trkpt><trkpt lat="43.778066441639616" lon="10.598726371824185"><ele>30.2</ele><time>2026-04-17T12:20:35Z</time></trkpt><trkpt lat="43.77816959957887" lon="10.59867774359862"><ele>29.6</ele><time>2026-04-17T12:20:36Z</time></trkpt><trkpt lat="43.778269663444874" lon="10.598609000379097"><ele>29.0</ele><time>2026-04-17T12:20:37Z</time></trkpt><trkpt lat="43.77836788249826" lon="10.598516781219816"><ele>29.0</ele><time>2026-04-17T12:20:38Z</time></trkpt><trkpt lat="43.77845574759188" lon="10.598408396008677"><ele>29.0</ele><time>2026-04-17T12:20:39Z</time></trkpt><trkpt lat="43.778535283009546" lon="10.598291151648258"><ele>29.0</ele><time>2026-04-17T12:20:40Z</time></trkpt><trkpt lat="43.778599821774016" lon="10.598169030726034"><ele>29.0</ele><time>2026-04-17T12:20:41Z</time></trkpt><trkpt lat="43.7786421366863" lon="10.598036160249677"><ele>29.0</ele><time>2026-04-17T12:20:42Z</time></trkpt><trkpt lat="43.77866094775411" lon="10.597897622901447"><ele>27.75</ele><time>2026-04-17T12:20:43Z</time></trkpt><trkpt lat="43.77865659520467" lon="10.597747176358748"><ele>26.5</ele><time>2026-04-17T12:20:44Z</time></trkpt><trkpt lat="43.778640682824346" lon="10.597588134787618"><ele>25.25</ele><time>2026-04-17T12:20:45Z</time></trkpt><trkpt lat="43.77861768602436" lon="10.59742482172411"><ele>24.0</ele><time>2026-04-17T12:20:46Z</time></trkpt><trkpt lat="43.778597209976994" lon="10.597255912387434"><ele>24.0</ele><time>2026-04-17T12:20:47Z</time></trkpt><trkpt lat="43.77857177098644" lon="10.597094964512609"><ele>24.0</ele><time>2026-04-17T12:20:48Z</time></trkpt><trkpt lat="43.778551033142236" lon="10.596931306260574"><ele>24.0</ele><time>2026-04-17T12:20:49Z</time></trkpt><trkpt lat="43.77853018580032" lon="10.596776878635067"><ele>24.0</ele><time>2026-04-17T12:20:50Z</time></trkpt><trkpt lat="43.77851517832014" lon="10.596618333171632"><ele>24.0</ele><time>2026-04-17T12:20:51Z</time></trkpt><trkpt lat="43.77851808211413" lon="10.59645926865441"><ele>24.0</ele><time>2026-04-17T12:20:52Z</time></trkpt><trkpt lat="43.77853491270532" lon="10.596305339877997"><ele>24.0</ele><time>2026-04-17T12:20:53Z</time></trkpt><trkpt lat="43.77855923527115" lon="10.59615182626033"><ele>24.0</ele><time>2026-04-17T12:20:54Z</time></trkpt><trkpt lat="43.77859300746526" lon="10.595998940586794"><ele>24.25</ele><time>2026-04-17T12:20:55Z</time></trkpt><trkpt lat="43.77864105100981" lon="10.595845927658024"><ele>24.5</ele><time>2026-04-17T12:20:56Z</time></trkpt><trkpt lat="43.77870297460329" lon="10.59570761072693"><ele>24.75</ele><time>2026-04-17T12:20:57Z</time></trkpt><trkpt lat="43.77879049992379" lon="10.595590945146718"><ele>25.0</ele><time>2026-04-17T12:20:58Z</time></trkpt><trkpt lat="43.7788690914576" lon="10.59545401325114"><ele>25.0</ele><time>2026-04-17T12:20:59Z</time></trkpt><trkpt lat="43.77896020913299" lon="10.59533947214563"><ele>25.0</ele><time>2026-04-17T12:21:00Z</time></trkpt><trkpt lat="43.779056992437305" lon="10.595238673137514"><ele>25.0</ele><time>2026-04-17T12:21:01Z</time></trkpt><trkpt lat="43.779165063564434" lon="10.595149557136088"><ele>25.0</ele><time>2026-04-17T12:21:02Z</time></trkpt><trkpt lat="43.77928463960551" lon="10.595074855935268"><ele>26.5</ele><time>2026-04-17T12:21:03Z</time></trkpt><trkpt lat="43.77941092606187" lon="10.595002993663444"><ele>28.0</ele><time>2026-04-17T12:21:04Z</time></trkpt><trkpt lat="43.779538002711114" lon="10.594927110117466"><ele>29.5</ele><time>2026-04-17T12:21:05Z</time></trkpt><trkpt lat="43.77966004634032" lon="10.594857321866842"><ele>31.0</ele><time>2026-04-17T12:21:06Z</time></trkpt><trkpt lat="43.77976969912878" lon="10.594791770612899"><ele>31.0</ele><time>2026-04-17T12:21:07Z</time></trkpt><trkpt lat="43.77986756511801" lon="10.594718823285614"><ele>31.0</ele><time>2026-04-17T12:21:08Z</time></trkpt><trkpt lat="43.779954812705235" lon="10.594636621502346"><ele>31.0</ele><time>2026-04-17T12:21:09Z</time></trkpt><trkpt lat="43.78003734242965" lon="10.594541559501542"><ele>31.0</ele><time>2026-04-17T12:21:10Z</time></trkpt><trkpt lat="43.7801193636185" lon="10.594431932691615"><ele>31.0</ele><time>2026-04-17T12:21:11Z</time></trkpt><trkpt lat="43.78019462570064" lon="10.594311107666893"><ele>28.75</ele><time>2026-04-17T12:21:12Z</time></trkpt><trkpt lat="43.78026373889632" lon="10.594177876100156"><ele>26.5</ele><time>2026-04-17T12:21:13Z</time></trkpt><trkpt lat="43.78031820429259" lon="10.59402392703282"><ele>24.25</ele><time>2026-04-17T12:21:14Z</time></trkpt><trkpt lat="43.780360450471626" lon="10.593860916587918"><ele>22.0</ele><time>2026-04-17T12:21:15Z</time></trkpt><trkpt lat="43.78040661343268" lon="10.593693258391088"><ele>22.25</ele><time>2026-04-17T12:21:16Z</time></trkpt><trkpt lat="43.78045491171916" lon="10.593517809877785"><ele>22.5</ele><time>2026-04-17T12:21:17Z</time></trkpt><trkpt lat="43.78050960139181" lon="10.593342219012925"><ele>22.75</ele><time>2026-04-17T12:21:18Z</time></trkpt><trkpt lat="43.78057181471219" lon="10.593171576696095"><ele>23.0</ele><time>2026-04-17T12:21:19Z</time></trkpt><trkpt lat="43.780652172204036" lon="10.593014637774836"><ele>23.0</ele><time>2026-04-17T12:21:20Z</time></trkpt><trkpt lat="43.7807480266825" lon="10.592878694865238"><ele>23.0</ele><time>2026-04-17T12:21:21Z</time></trkpt><trkpt lat="43.78085807943988" lon="10.592770495681577"><ele>23.0</ele><time>2026-04-17T12:21:22Z</time></trkpt><trkpt lat="43.78097620377461" lon="10.592664554581605"><ele>23.0</ele><time>2026-04-17T12:21:23Z</time></trkpt><trkpt lat="43.78110025957943" lon="10.592550393795179"><ele>23.0</ele><time>2026-04-17T12:21:24Z</time></trkpt><trkpt lat="43.78123098843036" lon="10.592438269288097"><ele>23.0</ele><time>2026-04-17T12:21:25Z</time></trkpt><trkpt lat="43.78136313540461" lon="10.592321356400571"><ele>23.0</ele><time>2026-04-17T12:21:26Z</time></trkpt><trkpt lat="43.78149688402024" lon="10.592201040481013"><ele>23.0</ele><time>2026-04-17T12:21:27Z</time></trkpt><trkpt lat="43.781632005466726" lon="10.592080743107886"><ele>23.0</ele><time>2026-04-17T12:21:28Z</time></trkpt><trkpt lat="43.781763456773305" lon="10.591959120518416"><ele>23.0</ele><time>2026-04-17T12:21:29Z</time></trkpt><trkpt lat="43.78189101368324" lon="10.591839583909376"><ele>23.666666666666668</ele><time>2026-04-17T12:21:30Z</time></trkpt><trkpt lat="43.78201788807115" lon="10.591724949121938"><ele>24.333333333333336</ele><time>2026-04-17T12:21:31Z</time></trkpt><trkpt lat="43.78214482332576" lon="10.591609926613724"><ele>25.0</ele><time>2026-04-17T12:21:32Z</time></trkpt><trkpt lat="43.78227113167443" lon="10.591492589158834"><ele>25.0</ele><time>2026-04-17T12:21:33Z</time></trkpt><trkpt lat="43.782398663021354" lon="10.591377642460477"><ele>25.0</ele><time>2026-04-17T12:21:34Z</time></trkpt><trkpt lat="43.782522340021366" lon="10.591260711151751"><ele>25.0</ele><time>2026-04-17T12:21:35Z</time></trkpt><trkpt lat="43.78264272907807" lon="10.591144347446274"><ele>25.0</ele><time>2026-04-17T12:21:36Z</time></trkpt><trkpt lat="43.78275726760725" lon="10.591024674695342"><ele>25.0</ele><time>2026-04-17T12:21:37Z</time></trkpt><trkpt lat="43.782864876497875" lon="10.590899576949978"><ele>25.0</ele><time>2026-04-17T12:21:38Z</time></trkpt><trkpt lat="43.782971134766356" lon="10.590777408105438"><ele>25.0</ele><time>2026-04-17T12:21:39Z</time></trkpt><trkpt lat="43.78308148053917" lon="10.590656438663743"><ele>25.0</ele><time>2026-04-17T12:21:40Z</time></trkpt><trkpt lat="43.783188545611566" lon="10.590532395634881"><ele>25.0</ele><time>2026-04-17T12:21:41Z</time></trkpt><trkpt lat="43.78329596780372" lon="10.590408779664466"><ele>25.0</ele><time>2026-04-17T12:21:42Z</time></trkpt><trkpt lat="43.78340068239969" lon="10.590287833569676"><ele>25.0</ele><time>2026-04-17T12:21:43Z</time></trkpt><trkpt lat="43.783503349345445" lon="10.59016411544805"><ele>25.0</ele><time>2026-04-17T12:21:44Z</time></trkpt><trkpt lat="43.78360621712694" lon="10.59004365063949"><ele>25.25</ele><time>2026-04-17T12:21:45Z</time></trkpt><trkpt lat="43.78371015976048" lon="10.5899246842697"><ele>25.5</ele><time>2026-04-17T12:21:46Z</time></trkpt><trkpt lat="43.7838161401657" lon="10.589801224489765"><ele>25.75</ele><time>2026-04-17T12:21:47Z</time></trkpt><trkpt lat="43.78391482596004" lon="10.589684981418225"><ele>26.0</ele><time>2026-04-17T12:21:48Z</time></trkpt><trkpt lat="43.78401671200462" lon="10.589571045974477"><ele>25.5</ele><time>2026-04-17T12:21:49Z</time></trkpt><trkpt lat="43.784110595740174" lon="10.589458521968094"><ele>25.0</ele><time>2026-04-17T12:21:50Z</time></trkpt><trkpt lat="43.78420949382356" lon="10.58934200122879"><ele>24.5</ele><time>2026-04-17T12:21:51Z</time></trkpt><trkpt lat="43.78431154148004" lon="10.589224173814994"><ele>24.0</ele><time>2026-04-17T12:21:52Z</time></trkpt><trkpt lat="43.78441635304715" lon="10.589106187347221"><ele>24.0</ele><time>2026-04-17T12:21:53Z</time></trkpt><trkpt lat="43.784520078585274" lon="10.58898780462516"><ele>24.0</ele><time>2026-04-17T12:21:54Z</time></trkpt><trkpt lat="43.78462355786455" lon="10.588866729511954"><ele>24.0</ele><time>2026-04-17T12:21:55Z</time></trkpt><trkpt lat="43.784728163571565" lon="10.588744540594275"><ele>24.0</ele><time>2026-04-17T12:21:56Z</time></trkpt><trkpt lat="43.784833722931225" lon="10.588621903051523"><ele>24.0</ele><time>2026-04-17T12:21:57Z</time></trkpt><trkpt lat="43.78493293024357" lon="10.588507587954858"><ele>24.0</ele><time>2026-04-17T12:21:58Z</time></trkpt><trkpt lat="43.78501477923513" lon="10.588414745732297"><ele>24.0</ele><time>2026-04-17T12:21:59Z</time></trkpt><trkpt lat="43.785082988587824" lon="10.588357857004404"><ele>24.0</ele><time>2026-04-17T12:22:00Z</time></trkpt><trkpt lat="43.785153031464276" lon="10.588334530525247"><ele>24.0</ele><time>2026-04-17T12:22:01Z</time></trkpt><trkpt lat="43.785230093730846" lon="10.588339465202893"><ele>24.0</ele><time>2026-04-17T12:22:02Z</time></trkpt><trkpt lat="43.7853043955503" lon="10.588369135278803"><ele>24.0</ele><time>2026-04-17T12:22:03Z</time></trkpt><trkpt lat="43.78537694798611" lon="10.588404938810749"><ele>24.0</ele><time>2026-04-17T12:22:04Z</time></trkpt><trkpt lat="43.78545633220716" lon="10.588440991000907"><ele>24.0</ele><time>2026-04-17T12:22:05Z</time></trkpt><trkpt lat="43.785537208944525" lon="10.588480391906447"><ele>24.0</ele><time>2026-04-17T12:22:06Z</time></trkpt><trkpt lat="43.785610855385045" lon="10.588516465882469"><ele>24.0</ele><time>2026-04-17T12:22:07Z</time></trkpt><trkpt lat="43.78569109560571" lon="10.588521473567328"><ele>24.0</ele><time>2026-04-17T12:22:08Z</time></trkpt><trkpt lat="43.785777063758836" lon="10.588488661715347"><ele>24.0</ele><time>2026-04-17T12:22:09Z</time></trkpt><trkpt lat="43.78585840349844" lon="10.588425898966404"><ele>24.0</ele><time>2026-04-17T12:22:10Z</time></trkpt><trkpt lat="43.785938091321675" lon="10.588321182180117"><ele>24.0</ele><time>2026-04-17T12:22:11Z</time></trkpt><trkpt lat="43.78601829846147" lon="10.58820221498399"><ele>24.0</ele><time>2026-04-17T12:22:12Z</time></trkpt><trkpt lat="43.786095680697365" lon="10.588076127017079"><ele>23.25</ele><time>2026-04-17T12:22:13Z</time></trkpt><trkpt lat="43.78617681120291" lon="10.587947672676732"><ele>22.5</ele><time>2026-04-17T12:22:14Z</time></trkpt><trkpt lat="43.78626390522214" lon="10.587812469551373"><ele>21.75</ele><time>2026-04-17T12:22:15Z</time></trkpt><trkpt lat="43.7863543932459" lon="10.587681166674916"><ele>21.0</ele><time>2026-04-17T12:22:16Z</time></trkpt><trkpt lat="43.78645116296824" lon="10.58754350109151"><ele>21.0</ele><time>2026-04-17T12:22:17Z</time></trkpt><trkpt lat="43.78655259978832" lon="10.587401943635678"><ele>21.0</ele><time>2026-04-17T12:22:18Z</time></trkpt><trkpt lat="43.786657201291455" lon="10.587259376788367"><ele>21.0</ele><time>2026-04-17T12:22:19Z</time></trkpt><trkpt lat="43.7867648322344" lon="10.587127747994739"><ele>21.0</ele><time>2026-04-17T12:22:20Z</time></trkpt><trkpt lat="43.78686990112542" lon="10.586996397154868"><ele>19.75</ele><time>2026-04-17T12:22:21Z</time></trkpt><trkpt lat="43.78697002976391" lon="10.586857218284008"><ele>18.5</ele><time>2026-04-17T12:22:22Z</time></trkpt><trkpt lat="43.78706051084885" lon="10.586700887969897"><ele>17.25</ele><time>2026-04-17T12:22:23Z</time></trkpt><trkpt lat="43.78714088517364" lon="10.586537728957685"><ele>16.0</ele><time>2026-04-17T12:22:24Z</time></trkpt><trkpt lat="43.7872196889081" lon="10.586374452972592"><ele>16.0</ele><time>2026-04-17T12:22:25Z</time></trkpt><trkpt lat="43.78730409623662" lon="10.586214586280624"><ele>16.0</ele><time>2026-04-17T12:22:26Z</time></trkpt><trkpt lat="43.787393571328316" lon="10.586064872327611"><ele>16.0</ele><time>2026-04-17T12:22:27Z</time></trkpt><trkpt lat="43.78749442888513" lon="10.58592556942776"><ele>16.0</ele><time>2026-04-17T12:22:28Z</time></trkpt><trkpt lat="43.78760425263932" lon="10.585802679537023"><ele>16.25</ele><time>2026-04-17T12:22:29Z</time></trkpt><trkpt lat="43.787720672190176" lon="10.585690445271243"><ele>16.5</ele><time>2026-04-17T12:22:30Z</time></trkpt><trkpt lat="43.78783982039811" lon="10.585578049555046"><ele>16.75</ele><time>2026-04-17T12:22:31Z</time></trkpt><trkpt lat="43.78795316334073" lon="10.585451339606724"><ele>17.0</ele><time>2026-04-17T12:22:32Z</time></trkpt><trkpt lat="43.78806134870006" lon="10.585313227787422"><ele>17.666666666666668</ele><time>2026-04-17T12:22:33Z</time></trkpt><trkpt lat="43.78815819400762" lon="10.585156472576719"><ele>18.333333333333332</ele><time>2026-04-17T12:22:34Z</time></trkpt><trkpt lat="43.78824822612467" lon="10.584987590576723"><ele>19.0</ele><time>2026-04-17T12:22:35Z</time></trkpt><trkpt lat="43.788338595390194" lon="10.584821523267621"><ele>19.0</ele><time>2026-04-17T12:22:36Z</time></trkpt><trkpt lat="43.78842724868944" lon="10.58466066608836"><ele>19.0</ele><time>2026-04-17T12:22:37Z</time></trkpt><trkpt lat="43.78851822084888" lon="10.58450039621472"><ele>19.0</ele><time>2026-04-17T12:22:38Z</time></trkpt><trkpt lat="43.78860879935622" lon="10.584333670012244"><ele>19.0</ele><time>2026-04-17T12:22:39Z</time></trkpt><trkpt lat="43.788699523121636" lon="10.584164249761448"><ele>19.333333333333332</ele><time>2026-04-17T12:22:40Z</time></trkpt><trkpt lat="43.78879251646333" lon="10.583992314114834"><ele>19.666666666666668</ele><time>2026-04-17T12:22:41Z</time></trkpt><trkpt lat="43.78888876116072" lon="10.583818730582042"><ele>20.0</ele><time>2026-04-17T12:22:42Z</time></trkpt><trkpt lat="43.78898433204778" lon="10.583650255862768"><ele>20.0</ele><time>2026-04-17T12:22:43Z</time></trkpt><trkpt lat="43.78907601339052" lon="10.583483401509534"><ele>20.0</ele><time>2026-04-17T12:22:44Z</time></trkpt><trkpt lat="43.78917672477832" lon="10.583331875033616"><ele>20.0</ele><time>2026-04-17T12:22:45Z</time></trkpt><trkpt lat="43.78928868476489" lon="10.58320058834981"><ele>20.0</ele><time>2026-04-17T12:22:46Z</time></trkpt><trkpt lat="43.789407484968976" lon="10.583086735634376"><ele>20.0</ele><time>2026-04-17T12:22:47Z</time></trkpt><trkpt lat="43.789531609177594" lon="10.582993918793008"><ele>20.0</ele><time>2026-04-17T12:22:48Z</time></trkpt><trkpt lat="43.78965615652906" lon="10.582910383107055"><ele>20.0</ele><time>2026-04-17T12:22:49Z</time></trkpt><trkpt lat="43.78977808073003" lon="10.582821502367443"><ele>20.0</ele><time>2026-04-17T12:22:50Z</time></trkpt><trkpt lat="43.78989305648382" lon="10.582724282224534"><ele>20.0</ele><time>2026-04-17T12:22:51Z</time></trkpt><trkpt lat="43.790006430060885" lon="10.58261007251476"><ele>20.0</ele><time>2026-04-17T12:22:52Z</time></trkpt><trkpt lat="43.79011224170307" lon="10.582471936248435"><ele>20.0</ele><time>2026-04-17T12:22:53Z</time></trkpt><trkpt lat="43.790217381744384" lon="10.582321284005618"><ele>20.0</ele><time>2026-04-17T12:22:54Z</time></trkpt><trkpt lat="43.79032314659819" lon="10.582167933110638"><ele>19.5</ele><time>2026-04-17T12:22:55Z</time></trkpt><trkpt lat="43.790425900037064" lon="10.58201905737778"><ele>19.0</ele><time>2026-04-17T12:22:56Z</time></trkpt><trkpt lat="43.79053166066694" lon="10.581869700077581"><ele>18.5</ele><time>2026-04-17T12:22:57Z</time></trkpt><trkpt lat="43.790639452514725" lon="10.581726603826866"><ele>18.0</ele><time>2026-04-17T12:22:58Z</time></trkpt><trkpt lat="43.79074515478857" lon="10.581587678563558"><ele>18.0</ele><time>2026-04-17T12:22:59Z</time></trkpt><trkpt lat="43.79084326031816" lon="10.581442208619574"><ele>18.0</ele><time>2026-04-17T12:23:00Z</time></trkpt><trkpt lat="43.79093542698805" lon="10.581288158803448"><ele>18.0</ele><time>2026-04-17T12:23:01Z</time></trkpt><trkpt lat="43.79102253082935" lon="10.58112704527173"><ele>18.0</ele><time>2026-04-17T12:23:02Z</time></trkpt><trkpt lat="43.7911039089348" lon="10.580964597284686"><ele>18.0</ele><time>2026-04-17T12:23:03Z</time></trkpt><trkpt lat="43.791175440511765" lon="10.58079925610327"><ele>18.0</ele><time>2026-04-17T12:23:04Z</time></trkpt><trkpt lat="43.79123260859969" lon="10.580628204562952"><ele>18.0</ele><time>2026-04-17T12:23:05Z</time></trkpt><trkpt lat="43.79127042499734" lon="10.580451790878241"><ele>18.0</ele><time>2026-04-17T12:23:06Z</time></trkpt><trkpt lat="43.791293432866496" lon="10.580277004993208"><ele>18.0</ele><time>2026-04-17T12:23:07Z</time></trkpt><trkpt lat="43.79131234838906" lon="10.580108910809507"><ele>18.0</ele><time>2026-04-17T12:23:08Z</time></trkpt><trkpt lat="43.79133870140033" lon="10.57994823212331"><ele>18.0</ele><time>2026-04-17T12:23:09Z</time></trkpt><trkpt lat="43.79137895737225" lon="10.579798773638993"><ele>18.0</ele><time>2026-04-17T12:23:10Z</time></trkpt><trkpt lat="43.79143666567962" lon="10.57965732863373"><ele>18.0</ele><time>2026-04-17T12:23:11Z</time></trkpt><trkpt lat="43.79151334956574" lon="10.579530948824223"><ele>18.0</ele><time>2026-04-17T12:23:12Z</time></trkpt><trkpt lat="43.79160757943005" lon="10.579422512260406"><ele>18.0</ele><time>2026-04-17T12:23:13Z</time></trkpt><trkpt lat="43.7917174306785" lon="10.579328862233188"><ele>18.0</ele><time>2026-04-17T12:23:14Z</time></trkpt><trkpt lat="43.791831317809674" lon="10.579239107769727"><ele>19.5</ele><time>2026-04-17T12:23:15Z</time></trkpt><trkpt lat="43.79194615198246" lon="10.57914631201912"><ele>21.0</ele><time>2026-04-17T12:23:16Z</time></trkpt><trkpt lat="43.79206272796449" lon="10.579055200460624"><ele>22.5</ele><time>2026-04-17T12:23:17Z</time></trkpt><trkpt lat="43.792183043756815" lon="10.578968637139443"><ele>24.0</ele><time>2026-04-17T12:23:18Z</time></trkpt><trkpt lat="43.79229915827182" lon="10.578880185299768"><ele>24.0</ele><time>2026-04-17T12:23:19Z</time></trkpt><trkpt lat="43.79240775226813" lon="10.578794984291065"><ele>24.0</ele><time>2026-04-17T12:23:20Z</time></trkpt><trkpt lat="43.79250732843607" lon="10.57869413953023"><ele>24.0</ele><time>2026-04-17T12:23:21Z</time></trkpt><trkpt lat="43.792595757584195" lon="10.578570534782983"><ele>24.0</ele><time>2026-04-17T12:23:22Z</time></trkpt><trkpt lat="43.79267668656299" lon="10.578423060435808"><ele>23.6</ele><time>2026-04-17T12:23:23Z</time></trkpt><trkpt lat="43.79274518454786" lon="10.578277007100194"><ele>23.2</ele><time>2026-04-17T12:23:24Z</time></trkpt><trkpt lat="43.79281137366" lon="10.578145410422929"><ele>22.8</ele><time>2026-04-17T12:23:25Z</time></trkpt><trkpt lat="43.792886907787484" lon="10.578043735911022"><ele>22.400000000000002</ele><time>2026-04-17T12:23:26Z</time></trkpt><trkpt lat="43.79296743319605" lon="10.577974099879402"><ele>22.0</ele><time>2026-04-17T12:23:27Z</time></trkpt><trkpt lat="43.79305133389356" lon="10.577928970602967"><ele>22.0</ele><time>2026-04-17T12:23:28Z</time></trkpt><trkpt lat="43.7931444284446" lon="10.577903617422312"><ele>22.0</ele><time>2026-04-17T12:23:29Z</time></trkpt><trkpt lat="43.79323092247042" lon="10.577882749644026"><ele>22.0</ele><time>2026-04-17T12:23:30Z</time></trkpt><trkpt lat="43.79332226823501" lon="10.577842104269367"><ele>22.0</ele><time>2026-04-17T12:23:31Z</time></trkpt><trkpt lat="43.79341562793024" lon="10.577768427482972"><ele>22.0</ele><time>2026-04-17T12:23:32Z</time></trkpt><trkpt lat="43.79351116237134" lon="10.577672447865925"><ele>22.0</ele><time>2026-04-17T12:23:33Z</time></trkpt><trkpt lat="43.79361510010106" lon="10.577573023050908"><ele>22.0</ele><time>2026-04-17T12:23:34Z</time></trkpt><trkpt lat="43.793724944733015" lon="10.577466754451894"><ele>22.0</ele><time>2026-04-17T12:23:35Z</time></trkpt><trkpt lat="43.793837168709324" lon="10.577354937526405"><ele>22.0</ele><time>2026-04-17T12:23:36Z</time></trkpt><trkpt lat="43.79394740689728" lon="10.577239323293444"><ele>22.0</ele><time>2026-04-17T12:23:37Z</time></trkpt><trkpt lat="43.79406360679735" lon="10.577121887766294"><ele>22.0</ele><time>2026-04-17T12:23:38Z</time></trkpt><trkpt lat="43.79417817252837" lon="10.577008396228294"><ele>22.0</ele><time>2026-04-17T12:23:39Z</time></trkpt><trkpt lat="43.794285121902206" lon="10.576886105474006"><ele>22.0</ele><time>2026-04-17T12:23:40Z</time></trkpt><trkpt lat="43.794379921905104" lon="10.576751333219454"><ele>22.25</ele><time>2026-04-17T12:23:41Z</time></trkpt><trkpt lat="43.79446154547725" lon="10.576608172275433"><ele>22.5</ele><time>2026-04-17T12:23:42Z</time></trkpt><trkpt lat="43.794530638743886" lon="10.576455924136438"><ele>22.75</ele><time>2026-04-17T12:23:43Z</time></trkpt><trkpt lat="43.794586799144106" lon="10.576296535865"><ele>23.0</ele><time>2026-04-17T12:23:44Z</time></trkpt><trkpt lat="43.79463551904688" lon="10.576133922305106"><ele>23.599999999999998</ele><time>2026-04-17T12:23:45Z</time></trkpt><trkpt lat="43.794685224644155" lon="10.575979295658739"><ele>24.2</ele><time>2026-04-17T12:23:46Z</time></trkpt><trkpt lat="43.794732790365124" lon="10.575830109463194"><ele>24.8</ele><time>2026-04-17T12:23:47Z</time></trkpt><trkpt lat="43.79477160430847" lon="10.575703714674876"><ele>25.4</ele><time>2026-04-17T12:23:48Z</time></trkpt><trkpt lat="43.794805095311595" lon="10.575589954797945"><ele>26.0</ele><time>2026-04-17T12:23:49Z</time></trkpt><trkpt lat="43.79484084803945" lon="10.575469589002875"><ele>27.4</ele><time>2026-04-17T12:23:50Z</time></trkpt><trkpt lat="43.794879384279945" lon="10.575341023417042"><ele>28.8</ele><time>2026-04-17T12:23:51Z</time></trkpt><trkpt lat="43.7949164425267" lon="10.575200946043937"><ele>30.199999999999996</ele><time>2026-04-17T12:23:52Z</time></trkpt><trkpt lat="43.79495900391076" lon="10.575059782352845"><ele>31.599999999999998</ele><time>2026-04-17T12:23:53Z</time></trkpt><trkpt lat="43.794998570104624" lon="10.574929268785725"><ele>33.0</ele><time>2026-04-17T12:23:54Z</time></trkpt><trkpt lat="43.79503690138481" lon="10.574808465055547"><ele>33.0</ele><time>2026-04-17T12:23:55Z</time></trkpt><trkpt lat="43.795074193654074" lon="10.574691141896736"><ele>33.0</ele><time>2026-04-17T12:23:56Z</time></trkpt><trkpt lat="43.79511284793975" lon="10.574573633804466"><ele>33.0</ele><time>2026-04-17T12:23:57Z</time></trkpt><trkpt lat="43.79515229580036" lon="10.57445379829185"><ele>33.0</ele><time>2026-04-17T12:23:58Z</time></trkpt><trkpt lat="43.795191352490214" lon="10.574334541887634"><ele>33.0</ele><time>2026-04-17T12:23:59Z</time></trkpt><trkpt lat="43.79523415934287" lon="10.574215004497509"><ele>33.199999999999996</ele><time>2026-04-17T12:24:00Z</time></trkpt><trkpt lat="43.795280608415304" lon="10.574091656262462"><ele>33.4</ele><time>2026-04-17T12:24:01Z</time></trkpt><trkpt lat="43.79533123354404" lon="10.573965490758127"><ele>33.599999999999994</ele><time>2026-04-17T12:24:02Z</time></trkpt><trkpt lat="43.795380736328134" lon="10.573842753067064"><ele>33.8</ele><time>2026-04-17T12:24:03Z</time></trkpt><trkpt lat="43.79543429631543" lon="10.573730807655977"><ele>34.0</ele><time>2026-04-17T12:24:04Z</time></trkpt><trkpt lat="43.795490750858015" lon="10.573619621988872"><ele>34.0</ele><time>2026-04-17T12:24:05Z</time></trkpt><trkpt lat="43.795559002025215" lon="10.573511907663157"><ele>34.0</ele><time>2026-04-17T12:24:06Z</time></trkpt><trkpt lat="43.79563691932989" lon="10.573411642986802"><ele>34.0</ele><time>2026-04-17T12:24:07Z</time></trkpt><trkpt lat="43.79572632332364" lon="10.57332204400855"><ele>34.0</ele><time>2026-04-17T12:24:08Z</time></trkpt><trkpt lat="43.79582420744532" lon="10.573236259553513"><ele>34.0</ele><time>2026-04-17T12:24:09Z</time></trkpt><trkpt lat="43.79592542308467" lon="10.573155466755386"><ele>33.25</ele><time>2026-04-17T12:24:10Z</time></trkpt><trkpt lat="43.7960347332418" lon="10.573075895705086"><ele>32.5</ele><time>2026-04-17T12:24:11Z</time></trkpt><trkpt lat="43.796152250650856" lon="10.573004230312455"><ele>31.75</ele><time>2026-04-17T12:24:12Z</time></trkpt><trkpt lat="43.7962745630886" lon="10.572940160778552"><ele>31.0</ele><time>2026-04-17T12:24:13Z</time></trkpt><trkpt lat="43.796400932240715" lon="10.57287973817531"><ele>31.0</ele><time>2026-04-17T12:24:14Z</time></trkpt><trkpt lat="43.796526417613265" lon="10.572816829365138"><ele>31.0</ele><time>2026-04-17T12:24:15Z</time></trkpt><trkpt lat="43.796648151652306" lon="10.572751756621665"><ele>31.0</ele><time>2026-04-17T12:24:16Z</time></trkpt><trkpt lat="43.79676403595766" lon="10.572681029529747"><ele>31.0</ele><time>2026-04-17T12:24:17Z</time></trkpt><trkpt lat="43.79687558704597" lon="10.572599264354011"><ele>31.0</ele><time>2026-04-17T12:24:18Z</time></trkpt><trkpt lat="43.7969822316671" lon="10.572500048531095"><ele>31.0</ele><time>2026-04-17T12:24:19Z</time></trkpt><trkpt lat="43.797085994414665" lon="10.572384536747773"><ele>31.0</ele><time>2026-04-17T12:24:20Z</time></trkpt><trkpt lat="43.79719038760235" lon="10.572256766711583"><ele>31.0</ele><time>2026-04-17T12:24:21Z</time></trkpt><trkpt lat="43.79729110309189" lon="10.57212268396246"><ele>31.5</ele><time>2026-04-17T12:24:22Z</time></trkpt><trkpt lat="43.79738877481958" lon="10.571989274080956"><ele>32.0</ele><time>2026-04-17T12:24:23Z</time></trkpt><trkpt lat="43.797481803012076" lon="10.571862084798285"><ele>32.5</ele><time>2026-04-17T12:24:24Z</time></trkpt><trkpt lat="43.79756852472813" lon="10.571742620173806"><ele>33.0</ele><time>2026-04-17T12:24:25Z</time></trkpt><trkpt lat="43.79764433501583" lon="10.57162965821917"><ele>32.4</ele><time>2026-04-17T12:24:26Z</time></trkpt><trkpt lat="43.79770976257288" lon="10.5715135616585"><ele>31.799999999999997</ele><time>2026-04-17T12:24:27Z</time></trkpt><trkpt lat="43.79775714049468" lon="10.57138364798845"><ele>31.2</ele><time>2026-04-17T12:24:28Z</time></trkpt><trkpt lat="43.797786708410705" lon="10.571238759395888"><ele>30.6</ele><time>2026-04-17T12:24:29Z</time></trkpt><trkpt lat="43.79780141166219" lon="10.571087878912257"><ele>30.0</ele><time>2026-04-17T12:24:30Z</time></trkpt><trkpt lat="43.79780410863709" lon="10.5709392285555"><ele>30.0</ele><time>2026-04-17T12:24:31Z</time></trkpt><trkpt lat="43.79780556022879" lon="10.570794267085995"><ele>30.0</ele><time>2026-04-17T12:24:32Z</time></trkpt><trkpt lat="43.79780797206675" lon="10.570653856461506"><ele>30.0</ele><time>2026-04-17T12:24:33Z</time></trkpt><trkpt lat="43.797816651566905" lon="10.57051094058018"><ele>30.0</ele><time>2026-04-17T12:24:34Z</time></trkpt><trkpt lat="43.79784243837915" lon="10.570362734387317"><ele>30.0</ele><time>2026-04-17T12:24:35Z</time></trkpt><trkpt lat="43.797881243395636" lon="10.570214351029142"><ele>30.0</ele><time>2026-04-17T12:24:36Z</time></trkpt><trkpt lat="43.79793136185559" lon="10.570061971612413"><ele>30.0</ele><time>2026-04-17T12:24:37Z</time></trkpt><trkpt lat="43.79798526726706" lon="10.569907880018965"><ele>30.0</ele><time>2026-04-17T12:24:38Z</time></trkpt><trkpt lat="43.79804044423948" lon="10.569754583980833"><ele>30.0</ele><time>2026-04-17T12:24:39Z</time></trkpt><trkpt lat="43.79809386064953" lon="10.569603972994473"><ele>30.2</ele><time>2026-04-17T12:24:40Z</time></trkpt><trkpt lat="43.798148715736396" lon="10.569468775335254"><ele>30.4</ele><time>2026-04-17T12:24:41Z</time></trkpt><trkpt lat="43.79821218108455" lon="10.569351628128642"><ele>30.6</ele><time>2026-04-17T12:24:42Z</time></trkpt><trkpt lat="43.79829833847518" lon="10.569257192114934"><ele>30.8</ele><time>2026-04-17T12:24:43Z</time></trkpt><trkpt lat="43.79839072209913" lon="10.569209300682168"><ele>31.0</ele><time>2026-04-17T12:24:44Z</time></trkpt><trkpt lat="43.79849499042691" lon="10.569175896565966"><ele>30.25</ele><time>2026-04-17T12:24:45Z</time></trkpt><trkpt lat="43.79860304086926" lon="10.569142909098861"><ele>29.5</ele><time>2026-04-17T12:24:46Z</time></trkpt><trkpt lat="43.79872003618257" lon="10.569109995963958"><ele>28.75</ele><time>2026-04-17T12:24:47Z</time></trkpt><trkpt lat="43.79883852355801" lon="10.569083292845669"><ele>28.0</ele><time>2026-04-17T12:24:48Z</time></trkpt><trkpt lat="43.79895601577534" lon="10.569061793608443"><ele>28.0</ele><time>2026-04-17T12:24:49Z</time></trkpt><trkpt lat="43.799071143160496" lon="10.569036531725072"><ele>28.0</ele><time>2026-04-17T12:24:50Z</time></trkpt><trkpt lat="43.79918831029044" lon="10.569000340704212"><ele>28.0</ele><time>2026-04-17T12:24:51Z</time></trkpt><trkpt lat="43.79930719602859" lon="10.568951573020433"><ele>28.0</ele><time>2026-04-17T12:24:52Z</time></trkpt><trkpt lat="43.79942846755062" lon="10.568884172207657"><ele>27.5</ele><time>2026-04-17T12:24:53Z</time></trkpt><trkpt lat="43.799547467263714" lon="10.568802731050505"><ele>27.0</ele><time>2026-04-17T12:24:54Z</time></trkpt><trkpt lat="43.79966186296864" lon="10.568700207350924"><ele>26.5</ele><time>2026-04-17T12:24:55Z</time></trkpt><trkpt lat="43.79976197160958" lon="10.568567825488794"><ele>26.0</ele><time>2026-04-17T12:24:56Z</time></trkpt><trkpt lat="43.79985289999059" lon="10.568424382551571"><ele>26.0</ele><time>2026-04-17T12:24:57Z</time></trkpt><trkpt lat="43.799940483328456" lon="10.5682794080291"><ele>26.0</ele><time>2026-04-17T12:24:58Z</time></trkpt><trkpt lat="43.800026067102365" lon="10.568136707901608"><ele>26.0</ele><time>2026-04-17T12:24:59Z</time></trkpt><trkpt lat="43.80010993136613" lon="10.567993242602139"><ele>26.0</ele><time>2026-04-17T12:25:00Z</time></trkpt><trkpt lat="43.80018470029334" lon="10.567846099189696"><ele>25.25</ele><time>2026-04-17T12:25:01Z</time></trkpt><trkpt lat="43.80025799973522" lon="10.567697253802717"><ele>24.5</ele><time>2026-04-17T12:25:02Z</time></trkpt><trkpt lat="43.80032218165561" lon="10.567550634842199"><ele>23.75</ele><time>2026-04-17T12:25:03Z</time></trkpt><trkpt lat="43.80037128808599" lon="10.567399575460891"><ele>23.0</ele><time>2026-04-17T12:25:04Z</time></trkpt><trkpt lat="43.80041178692925" lon="10.567249258060002"><ele>23.0</ele><time>2026-04-17T12:25:05Z</time></trkpt><trkpt lat="43.80044927732484" lon="10.56710653523208"><ele>23.0</ele><time>2026-04-17T12:25:06Z</time></trkpt><trkpt lat="43.80048789367554" lon="10.566970301716163"><ele>23.0</ele><time>2026-04-17T12:25:07Z</time></trkpt><trkpt lat="43.80052954716736" lon="10.566851931251753"><ele>23.0</ele><time>2026-04-17T12:25:08Z</time></trkpt><trkpt lat="43.80057877717312" lon="10.566741886318216"><ele>23.0</ele><time>2026-04-17T12:25:09Z</time></trkpt><trkpt lat="43.800646451225454" lon="10.566651231790031"><ele>23.0</ele><time>2026-04-17T12:25:10Z</time></trkpt><trkpt lat="43.80072476102071" lon="10.56658833877869"><ele>23.0</ele><time>2026-04-17T12:25:11Z</time></trkpt><trkpt lat="43.80081026022948" lon="10.56655053390439"><ele>23.0</ele><time>2026-04-17T12:25:12Z</time></trkpt><trkpt lat="43.80090429999615" lon="10.566529436243776"><ele>23.0</ele><time>2026-04-17T12:25:13Z</time></trkpt><trkpt lat="43.80098596516118" lon="10.566514900837863"><ele>23.0</ele><time>2026-04-17T12:25:14Z</time></trkpt><trkpt lat="43.80105621581293" lon="10.566498137366967"><ele>23.0</ele><time>2026-04-17T12:25:15Z</time></trkpt><trkpt lat="43.8011220156415" lon="10.566437114936788"><ele>22.599999999999998</ele><time>2026-04-17T12:25:16Z</time></trkpt><trkpt lat="43.8011745306989" lon="10.566349683884757"><ele>22.2</ele><time>2026-04-17T12:25:17Z</time></trkpt><trkpt lat="43.801209475229186" lon="10.566223423698244"><ele>21.8</ele><time>2026-04-17T12:25:18Z</time></trkpt><trkpt lat="43.80124508461005" lon="10.566090693960431"><ele>21.4</ele><time>2026-04-17T12:25:19Z</time></trkpt><trkpt lat="43.80128212059012" lon="10.565949793186325"><ele>21.0</ele><time>2026-04-17T12:25:20Z</time></trkpt><trkpt lat="43.80132322632643" lon="10.565805711963078"><ele>21.0</ele><time>2026-04-17T12:25:21Z</time></trkpt><trkpt lat="43.80137186370819" lon="10.565661285269915"><ele>21.0</ele><time>2026-04-17T12:25:22Z</time></trkpt><trkpt lat="43.80142041771298" lon="10.565507235546157"><ele>21.0</ele><time>2026-04-17T12:25:23Z</time></trkpt><trkpt lat="43.8014675489618" lon="10.565348394451203"><ele>21.0</ele><time>2026-04-17T12:25:24Z</time></trkpt><trkpt lat="43.80151445624044" lon="10.565184869347771"><ele>21.0</ele><time>2026-04-17T12:25:25Z</time></trkpt><trkpt lat="43.80156232365215" lon="10.565019118955577"><ele>21.0</ele><time>2026-04-17T12:25:26Z</time></trkpt><trkpt lat="43.80161063936017" lon="10.564852251483638"><ele>21.0</ele><time>2026-04-17T12:25:27Z</time></trkpt><trkpt lat="43.80165932778495" lon="10.564685024975237"><ele>21.0</ele><time>2026-04-17T12:25:28Z</time></trkpt><trkpt lat="43.801709866719385" lon="10.564516561058758"><ele>21.25</ele><time>2026-04-17T12:25:29Z</time></trkpt><trkpt lat="43.80175942737292" lon="10.564345529490582"><ele>21.5</ele><time>2026-04-17T12:25:30Z</time></trkpt><trkpt lat="43.801807724312745" lon="10.564169961446902"><ele>21.75</ele><time>2026-04-17T12:25:31Z</time></trkpt><trkpt lat="43.80185852826064" lon="10.563992213800871"><ele>22.0</ele><time>2026-04-17T12:25:32Z</time></trkpt><trkpt lat="43.8019105563152" lon="10.56381054108055"><ele>22.0</ele><time>2026-04-17T12:25:33Z</time></trkpt><trkpt lat="43.801963860778855" lon="10.563627591297534"><ele>22.0</ele><time>2026-04-17T12:25:34Z</time></trkpt><trkpt lat="43.80201598823893" lon="10.563442763988181"><ele>22.0</ele><time>2026-04-17T12:25:35Z</time></trkpt><trkpt lat="43.80206999206736" lon="10.563255643597639"><ele>22.0</ele><time>2026-04-17T12:25:36Z</time></trkpt><trkpt lat="43.802126010582775" lon="10.56306785807612"><ele>22.0</ele><time>2026-04-17T12:25:37Z</time></trkpt><trkpt lat="43.8021831129068" lon="10.56287744317589"><ele>22.0</ele><time>2026-04-17T12:25:38Z</time></trkpt><trkpt lat="43.80223879914998" lon="10.562681441059283"><ele>22.0</ele><time>2026-04-17T12:25:39Z</time></trkpt><trkpt lat="43.80229549191909" lon="10.562483346804045"><ele>22.0</ele><time>2026-04-17T12:25:40Z</time></trkpt><trkpt lat="43.802350953545236" lon="10.562282069163828"><ele>22.0</ele><time>2026-04-17T12:25:41Z</time></trkpt><trkpt lat="43.80240812399503" lon="10.56207850960369"><ele>22.0</ele><time>2026-04-17T12:25:42Z</time></trkpt><trkpt lat="43.8024698111123" lon="10.561873869018592"><ele>22.0</ele><time>2026-04-17T12:25:42.999Z</time></trkpt><trkpt lat="43.80253022048172" lon="10.561664448187267"><ele>22.0</ele><time>2026-04-17T12:25:43.999Z</time></trkpt><trkpt lat="43.80259063782945" lon="10.561457109662582"><ele>22.0</ele><time>2026-04-17T12:25:44.999Z</time></trkpt><trkpt lat="43.802651768753094" lon="10.561247767204765"><ele>21.0</ele><time>2026-04-17T12:25:45.999Z</time></trkpt><trkpt lat="43.802712990324046" lon="10.561038209607627"><ele>20.0</ele><time>2026-04-17T12:25:46.999Z</time></trkpt><trkpt lat="43.80277155563011" lon="10.560832632483628"><ele>19.0</ele><time>2026-04-17T12:25:47.999Z</time></trkpt><trkpt lat="43.802831250242164" lon="10.56062642859665"><ele>19.0</ele><time>2026-04-17T12:25:48.999Z</time></trkpt><trkpt lat="43.80289003340171" lon="10.560414872179214"><ele>19.0</ele><time>2026-04-17T12:25:49.999Z</time></trkpt><trkpt lat="43.80294901493038" lon="10.560203201913282"><ele>19.0</ele><time>2026-04-17T12:25:50.999Z</time></trkpt><trkpt lat="43.803012871860574" lon="10.559992471720014"><ele>19.666666666666664</ele><time>2026-04-17T12:25:51.999Z</time></trkpt><trkpt lat="43.80307701993014" lon="10.559781288104803"><ele>20.333333333333332</ele><time>2026-04-17T12:25:52.999Z</time></trkpt><trkpt lat="43.80314016209485" lon="10.559569026178991"><ele>21.0</ele><time>2026-04-17T12:25:53.999Z</time></trkpt><trkpt lat="43.80320248215865" lon="10.559356587616413"><ele>21.333333333333332</ele><time>2026-04-17T12:25:54.999Z</time></trkpt><trkpt lat="43.80326506006525" lon="10.559144283637002"><ele>21.666666666666664</ele><time>2026-04-17T12:25:56Z</time></trkpt><trkpt lat="43.803326822146836" lon="10.558935671895657"><ele>22.0</ele><time>2026-04-17T12:25:57Z</time></trkpt><trkpt lat="43.803385617447155" lon="10.558723024828891"><ele>22.0</ele><time>2026-04-17T12:25:58Z</time></trkpt><trkpt lat="43.803443971893024" lon="10.558513106685037"><ele>22.0</ele><time>2026-04-17T12:25:59Z</time></trkpt><trkpt lat="43.803502387557224" lon="10.558311719477643"><ele>22.0</ele><time>2026-04-17T12:26:00Z</time></trkpt><trkpt lat="43.803559259734556" lon="10.55811643089947"><ele>22.0</ele><time>2026-04-17T12:26:01Z</time></trkpt><trkpt lat="43.80361408434723" lon="10.557924864558577"><ele>22.0</ele><time>2026-04-17T12:26:02Z</time></trkpt><trkpt lat="43.80366959455066" lon="10.557738803815866"><ele>22.0</ele><time>2026-04-17T12:26:03Z</time></trkpt><trkpt lat="43.80372531095807" lon="10.557554035463728"><ele>22.0</ele><time>2026-04-17T12:26:04Z</time></trkpt><trkpt lat="43.803785017667025" lon="10.557377664657963"><ele>22.75</ele><time>2026-04-17T12:26:05Z</time></trkpt><trkpt lat="43.80385924178797" lon="10.557214740753835"><ele>23.5</ele><time>2026-04-17T12:26:06Z</time></trkpt><trkpt lat="43.80394718970321" lon="10.557069939828164"><ele>24.25</ele><time>2026-04-17T12:26:07Z</time></trkpt><trkpt lat="43.80404612131193" lon="10.556934152720132"><ele>25.0</ele><time>2026-04-17T12:26:08Z</time></trkpt><trkpt lat="43.80415898474736" lon="10.556810773739173"><ele>25.666666666666668</ele><time>2026-04-17T12:26:09Z</time></trkpt><trkpt lat="43.80428245795863" lon="10.556693333710916"><ele>26.333333333333336</ele><time>2026-04-17T12:26:10Z</time></trkpt><trkpt lat="43.80441258636188" lon="10.556577358343592"><ele>27.0</ele><time>2026-04-17T12:26:11Z</time></trkpt><trkpt lat="43.80454046148842" lon="10.556456687523468"><ele>26.0</ele><time>2026-04-17T12:26:12Z</time></trkpt><trkpt lat="43.80467566066941" lon="10.556334681152178"><ele>25.0</ele><time>2026-04-17T12:26:13Z</time></trkpt><trkpt lat="43.8048142323788" lon="10.556215461382424"><ele>24.0</ele><time>2026-04-17T12:26:14Z</time></trkpt><trkpt lat="43.80495339492398" lon="10.556093914974348"><ele>24.0</ele><time>2026-04-17T12:26:15Z</time></trkpt><trkpt lat="43.805093229627616" lon="10.555968351510097"><ele>24.0</ele><time>2026-04-17T12:26:16Z</time></trkpt><trkpt lat="43.80523523146109" lon="10.555843705855033"><ele>24.0</ele><time>2026-04-17T12:26:17Z</time></trkpt><trkpt lat="43.80537607319672" lon="10.555718047762344"><ele>23.666666666666668</ele><time>2026-04-17T12:26:18Z</time></trkpt><trkpt lat="43.805513737314094" lon="10.555593572729071"><ele>23.333333333333336</ele><time>2026-04-17T12:26:19Z</time></trkpt><trkpt lat="43.80564963672549" lon="10.555470137245576"><ele>23.0</ele><time>2026-04-17T12:26:20Z</time></trkpt><trkpt lat="43.80578517204799" lon="10.555350484055984"><ele>23.0</ele><time>2026-04-17T12:26:21Z</time></trkpt><trkpt lat="43.80591646681133" lon="10.5552329635919"><ele>23.0</ele><time>2026-04-17T12:26:22Z</time></trkpt><trkpt lat="43.806048196213084" lon="10.555131846054493"><ele>23.0</ele><time>2026-04-17T12:26:23Z</time></trkpt><trkpt lat="43.80618932385018" lon="10.555061048876913"><ele>22.0</ele><time>2026-04-17T12:26:24Z</time></trkpt><trkpt lat="43.806335607504124" lon="10.555008761221599"><ele>21.0</ele><time>2026-04-17T12:26:25Z</time></trkpt><trkpt lat="43.806481832606636" lon="10.55496395066882"><ele>20.0</ele><time>2026-04-17T12:26:26Z</time></trkpt><trkpt lat="43.806629884212136" lon="10.554921352041928"><ele>20.0</ele><time>2026-04-17T12:26:27Z</time></trkpt><trkpt lat="43.806772300845225" lon="10.554882261622922"><ele>20.0</ele><time>2026-04-17T12:26:28.001Z</time></trkpt><trkpt lat="43.80690537149492" lon="10.554843123476235"><ele>20.0</ele><time>2026-04-17T12:26:29.001Z</time></trkpt><trkpt lat="43.807023837527545" lon="10.554796434269168"><ele>20.0</ele><time>2026-04-17T12:26:30.001Z</time></trkpt><trkpt lat="43.8071306720696" lon="10.554714487105608"><ele>19.75</ele><time>2026-04-17T12:26:31.001Z</time></trkpt><trkpt lat="43.80723311991069" lon="10.554606002504265"><ele>19.5</ele><time>2026-04-17T12:26:32.001Z</time></trkpt><trkpt lat="43.80732674028268" lon="10.55446740650711"><ele>19.25</ele><time>2026-04-17T12:26:33.001Z</time></trkpt><trkpt lat="43.80741084613541" lon="10.554306249012287"><ele>19.0</ele><time>2026-04-17T12:26:34.001Z</time></trkpt><trkpt lat="43.807483201478696" lon="10.554128162869386"><ele>18.5</ele><time>2026-04-17T12:26:35.001Z</time></trkpt><trkpt lat="43.80755227405211" lon="10.553946779692106"><ele>18.0</ele><time>2026-04-17T12:26:36.001Z</time></trkpt><trkpt lat="43.80762098164049" lon="10.553765970988382"><ele>17.5</ele><time>2026-04-17T12:26:37.001Z</time></trkpt><trkpt lat="43.807686673315175" lon="10.553582902346937"><ele>17.0</ele><time>2026-04-17T12:26:38.001Z</time></trkpt><trkpt lat="43.807738391018255" lon="10.553386405675699"><ele>17.0</ele><time>2026-04-17T12:26:39.001Z</time></trkpt><trkpt lat="43.80777885574781" lon="10.553181401277216"><ele>17.0</ele><time>2026-04-17T12:26:40.001Z</time></trkpt><trkpt lat="43.80781359572969" lon="10.552969231028705"><ele>17.0</ele><time>2026-04-17T12:26:41.001Z</time></trkpt><trkpt lat="43.80784337848668" lon="10.552752391190266"><ele>17.0</ele><time>2026-04-17T12:26:42.001Z</time></trkpt><trkpt lat="43.80787130890607" lon="10.552526619501837"><ele>17.0</ele><time>2026-04-17T12:26:43.001Z</time></trkpt><trkpt lat="43.80789911008275" lon="10.552291701046292"><ele>17.0</ele><time>2026-04-17T12:26:44.001Z</time></trkpt><trkpt lat="43.80792512435363" lon="10.552047811195395"><ele>17.333333333333336</ele><time>2026-04-17T12:26:45.001Z</time></trkpt><trkpt lat="43.8079519230333" lon="10.55180212129663"><ele>17.666666666666668</ele><time>2026-04-17T12:26:46.001Z</time></trkpt><trkpt lat="43.807980406589756" lon="10.551556978814183"><ele>18.0</ele><time>2026-04-17T12:26:47.001Z</time></trkpt><trkpt lat="43.80800177432352" lon="10.551311537050722"><ele>17.333333333333332</ele><time>2026-04-17T12:26:48.001Z</time></trkpt><trkpt lat="43.80801661150004" lon="10.551057201718717"><ele>16.666666666666664</ele><time>2026-04-17T12:26:49.001Z</time></trkpt><trkpt lat="43.808023483871644" lon="10.550797097313573"><ele>16.0</ele><time>2026-04-17T12:26:50.001Z</time></trkpt><trkpt lat="43.80801936946171" lon="10.550536875579981"><ele>15.333333333333332</ele><time>2026-04-17T12:26:51.001Z</time></trkpt><trkpt lat="43.80801095953859" lon="10.55027600303604"><ele>14.666666666666668</ele><time>2026-04-17T12:26:52.001Z</time></trkpt><trkpt lat="43.808000624058494" lon="10.550015588095977"><ele>14.0</ele><time>2026-04-17T12:26:53.001Z</time></trkpt><trkpt lat="43.80799174670046" lon="10.549756499969549"><ele>13.666666666666668</ele><time>2026-04-17T12:26:54.001Z</time></trkpt><trkpt lat="43.80798332644235" lon="10.549504652969292"><ele>13.333333333333332</ele><time>2026-04-17T12:26:55.001Z</time></trkpt><trkpt lat="43.80797407854339" lon="10.549262436964563"><ele>13.0</ele><time>2026-04-17T12:26:56.001Z</time></trkpt><trkpt lat="43.80796686082881" lon="10.54902940959361"><ele>13.0</ele><time>2026-04-17T12:26:57.001Z</time></trkpt><trkpt lat="43.807959107578284" lon="10.5487996876553"><ele>13.0</ele><time>2026-04-17T12:26:58.001Z</time></trkpt><trkpt lat="43.80795160194042" lon="10.548580036882583"><ele>13.0</ele><time>2026-04-17T12:26:59.001Z</time></trkpt><trkpt lat="43.80794483594554" lon="10.54837461625648"><ele>12.75</ele><time>2026-04-17T12:27:00.001Z</time></trkpt><trkpt lat="43.80793997195565" lon="10.548175526783407"><ele>12.5</ele><time>2026-04-17T12:27:01.001Z</time></trkpt><trkpt lat="43.80793618032487" lon="10.547981818150106"><ele>12.25</ele><time>2026-04-17T12:27:02.001Z</time></trkpt><trkpt lat="43.80792947374238" lon="10.547791901981023"><ele>12.0</ele><time>2026-04-17T12:27:03.001Z</time></trkpt><trkpt lat="43.80792142761017" lon="10.547605366366122"><ele>11.75</ele><time>2026-04-17T12:27:04.001Z</time></trkpt><trkpt lat="43.80791185423604" lon="10.54742156608618"><ele>11.5</ele><time>2026-04-17T12:27:05.001Z</time></trkpt><trkpt lat="43.80789798800111" lon="10.547238266743044"><ele>11.25</ele><time>2026-04-17T12:27:06.001Z</time></trkpt><trkpt lat="43.80787770657962" lon="10.547055847903364"><ele>11.0</ele><time>2026-04-17T12:27:07.001Z</time></trkpt><trkpt lat="43.80785136290619" lon="10.546880632713089"><ele>11.5</ele><time>2026-04-17T12:27:08.001Z</time></trkpt><trkpt lat="43.80781930487149" lon="10.54671346950104"><ele>12.0</ele><time>2026-04-17T12:27:09.001Z</time></trkpt><trkpt lat="43.80778402389318" lon="10.54654894878718"><ele>12.5</ele><time>2026-04-17T12:27:10.001Z</time></trkpt><trkpt lat="43.807745845107476" lon="10.546386304492971"><ele>13.0</ele><time>2026-04-17T12:27:11.001Z</time></trkpt><trkpt lat="43.80770932063831" lon="10.546225329591861"><ele>13.5</ele><time>2026-04-17T12:27:12.001Z</time></trkpt><trkpt lat="43.8076723660684" lon="10.546067498713942"><ele>14.0</ele><time>2026-04-17T12:27:13.001Z</time></trkpt><trkpt lat="43.807634907473414" lon="10.545905397013156"><ele>14.5</ele><time>2026-04-17T12:27:14.001Z</time></trkpt><trkpt lat="43.80759675223203" lon="10.545746038272089"><ele>15.0</ele><time>2026-04-17T12:27:15.001Z</time></trkpt><trkpt lat="43.807558421858005" lon="10.545583346070833"><ele>15.0</ele><time>2026-04-17T12:27:16.001Z</time></trkpt><trkpt lat="43.807519593450515" lon="10.545420144237465"><ele>15.0</ele><time>2026-04-17T12:27:17.001Z</time></trkpt><trkpt lat="43.80748418795075" lon="10.54525948362661"><ele>15.0</ele><time>2026-04-17T12:27:18.001Z</time></trkpt><trkpt lat="43.807447437953705" lon="10.545102513966969"><ele>15.0</ele><time>2026-04-17T12:27:19.001Z</time></trkpt><trkpt lat="43.8074109197368" lon="10.54494812062336"><ele>14.0</ele><time>2026-04-17T12:27:20.001Z</time></trkpt><trkpt lat="43.8073737543502" lon="10.544790732511977"><ele>13.0</ele><time>2026-04-17T12:27:21.001Z</time></trkpt><trkpt lat="43.807336490066106" lon="10.544630391096174"><ele>12.0</ele><time>2026-04-17T12:27:22.001Z</time></trkpt><trkpt lat="43.807298473520554" lon="10.544465830145185"><ele>11.0</ele><time>2026-04-17T12:27:23.001Z</time></trkpt><trkpt lat="43.80726082927183" lon="10.544304042688282"><ele>11.0</ele><time>2026-04-17T12:27:24.001Z</time></trkpt><trkpt lat="43.80722521347935" lon="10.544153647127482"><ele>11.0</ele><time>2026-04-17T12:27:25.001Z</time></trkpt><trkpt lat="43.80719062482834" lon="10.544009091306112"><ele>11.0</ele><time>2026-04-17T12:27:26.001Z</time></trkpt><trkpt lat="43.80715778602553" lon="10.54386836032827"><ele>11.0</ele><time>2026-04-17T12:27:27.001Z</time></trkpt><trkpt lat="43.80712671070465" lon="10.543732051005952"><ele>11.0</ele><time>2026-04-17T12:27:28.001Z</time></trkpt><trkpt lat="43.80709533349754" lon="10.543599743724409"><ele>10.8</ele><time>2026-04-17T12:27:29.001Z</time></trkpt><trkpt lat="43.80706543999654" lon="10.543471303358228"><ele>10.600000000000001</ele><time>2026-04-17T12:27:30.001Z</time></trkpt><trkpt lat="43.8070358754836" lon="10.54334667386825"><ele>10.4</ele><time>2026-04-17T12:27:31.001Z</time></trkpt><trkpt lat="43.80700555847849" lon="10.543217731148792"><ele>10.2</ele><time>2026-04-17T12:27:32.001Z</time></trkpt><trkpt lat="43.80697321606239" lon="10.5430814982958"><ele>10.0</ele><time>2026-04-17T12:27:33.001Z</time></trkpt><trkpt lat="43.80694204455225" lon="10.542945839537806"><ele>10.2</ele><time>2026-04-17T12:27:34.001Z</time></trkpt><trkpt lat="43.80691099896407" lon="10.542810735308182"><ele>10.4</ele><time>2026-04-17T12:27:35.001Z</time></trkpt><trkpt lat="43.806880712731946" lon="10.542679198900533"><ele>10.600000000000001</ele><time>2026-04-17T12:27:36.001Z</time></trkpt><trkpt lat="43.80685157448764" lon="10.542550566591457"><ele>10.8</ele><time>2026-04-17T12:27:37.001Z</time></trkpt><trkpt lat="43.80682121020384" lon="10.542420251377006"><ele>11.0</ele><time>2026-04-17T12:27:38.001Z</time></trkpt><trkpt lat="43.806792076270064" lon="10.542295458572859"><ele>11.200000000000001</ele><time>2026-04-17T12:27:39.001Z</time></trkpt><trkpt lat="43.806764034117094" lon="10.542171431293966"><ele>11.4</ele><time>2026-04-17T12:27:40.001Z</time></trkpt><trkpt lat="43.80673654031471" lon="10.542048530000585"><ele>11.6</ele><time>2026-04-17T12:27:41.001Z</time></trkpt><trkpt lat="43.80671040073559" lon="10.541930385897103"><ele>11.8</ele><time>2026-04-17T12:27:42.001Z</time></trkpt><trkpt lat="43.806683336308765" lon="10.541807418539817"><ele>12.0</ele><time>2026-04-17T12:27:43.001Z</time></trkpt><trkpt lat="43.80664443500833" lon="10.54166783839021"><ele>12.25</ele><time>2026-04-17T12:27:44.001Z</time></trkpt><trkpt lat="43.80660605857406" lon="10.541503214852778"><ele>12.5</ele><time>2026-04-17T12:27:45.001Z</time></trkpt><trkpt lat="43.80656841000969" lon="10.541316283233776"><ele>12.75</ele><time>2026-04-17T12:27:46.001Z</time></trkpt><trkpt lat="43.80652062446946" lon="10.54111263852903"><ele>13.0</ele><time>2026-04-17T12:27:47.001Z</time></trkpt><trkpt lat="43.80646822909895" lon="10.54089496437066"><ele>13.0</ele><time>2026-04-17T12:27:48.001Z</time></trkpt><trkpt lat="43.80641406251423" lon="10.540665094866172"><ele>13.0</ele><time>2026-04-17T12:27:49Z</time></trkpt><trkpt lat="43.80635812475032" lon="10.540422452964538"><ele>13.0</ele><time>2026-04-17T12:27:50Z</time></trkpt><trkpt lat="43.80630088621207" lon="10.540172460584444"><ele>13.0</ele><time>2026-04-17T12:27:51Z</time></trkpt><trkpt lat="43.80624371220023" lon="10.539919740756881"><ele>13.0</ele><time>2026-04-17T12:27:52Z</time></trkpt><trkpt lat="43.806186301223356" lon="10.53966619824999"><ele>13.0</ele><time>2026-04-17T12:27:53Z</time></trkpt><trkpt lat="43.80612800874156" lon="10.539413766499708"><ele>13.333333333333332</ele><time>2026-04-17T12:27:54Z</time></trkpt><trkpt lat="43.80606912439647" lon="10.53916240287949"><ele>13.666666666666668</ele><time>2026-04-17T12:27:55Z</time></trkpt><trkpt lat="43.80600916172143" lon="10.538913053814873"><ele>14.0</ele><time>2026-04-17T12:27:56Z</time></trkpt><trkpt lat="43.80594801666226" lon="10.538663398369469"><ele>14.0</ele><time>2026-04-17T12:27:57Z</time></trkpt><trkpt lat="43.80588827678912" lon="10.538411908763486"><ele>14.0</ele><time>2026-04-17T12:27:58Z</time></trkpt><trkpt lat="43.80583005726028" lon="10.53816480511306"><ele>14.0</ele><time>2026-04-17T12:27:59Z</time></trkpt><trkpt lat="43.805771113601125" lon="10.537918556157566"><ele>14.333333333333334</ele><time>2026-04-17T12:28:00Z</time></trkpt><trkpt lat="43.805712126199026" lon="10.537670119995665"><ele>14.666666666666668</ele><time>2026-04-17T12:28:01Z</time></trkpt><trkpt lat="43.805652314179696" lon="10.537421362631012"><ele>15.0</ele><time>2026-04-17T12:28:02Z</time></trkpt><trkpt lat="43.80559587584766" lon="10.537170033376519"><ele>15.333333333333332</ele><time>2026-04-17T12:28:03Z</time></trkpt><trkpt lat="43.80554013118913" lon="10.536911539122576"><ele>15.666666666666666</ele><time>2026-04-17T12:28:04Z</time></trkpt><trkpt lat="43.805479894295445" lon="10.536650767071224"><ele>16.0</ele><time>2026-04-17T12:28:05Z</time></trkpt><trkpt lat="43.80541939930429" lon="10.53638382629957"><ele>16.0</ele><time>2026-04-17T12:28:06Z</time></trkpt><trkpt lat="43.805355864941966" lon="10.536114410513724"><ele>16.0</ele><time>2026-04-17T12:28:07Z</time></trkpt><trkpt lat="43.80529276284095" lon="10.53584236400519"><ele>16.0</ele><time>2026-04-17T12:28:08Z</time></trkpt><trkpt lat="43.805229562381996" lon="10.535567661024249"><ele>17.0</ele><time>2026-04-17T12:28:09Z</time></trkpt><trkpt lat="43.8051673928768" lon="10.535287518914005"><ele>18.0</ele><time>2026-04-17T12:28:10Z</time></trkpt><trkpt lat="43.80510356759546" lon="10.53500492087329"><ele>19.0</ele><time>2026-04-17T12:28:11Z</time></trkpt><trkpt lat="43.80504045707701" lon="10.53471853938237"><ele>19.0</ele><time>2026-04-17T12:28:12Z</time></trkpt><trkpt lat="43.8049806615309" lon="10.534427473354697"><ele>19.0</ele><time>2026-04-17T12:28:13Z</time></trkpt><trkpt lat="43.80493261254578" lon="10.534131075690134"><ele>19.0</ele><time>2026-04-17T12:28:14Z</time></trkpt><trkpt lat="43.804897819000466" lon="10.533834153896928"><ele>19.0</ele><time>2026-04-17T12:28:15Z</time></trkpt><trkpt lat="43.80487384780705" lon="10.53354044417198"><ele>19.0</ele><time>2026-04-17T12:28:16Z</time></trkpt><trkpt lat="43.8048599827118" lon="10.533250765816858"><ele>19.0</ele><time>2026-04-17T12:28:17Z</time></trkpt><trkpt lat="43.80485254232074" lon="10.532967603440687"><ele>19.333333333333332</ele><time>2026-04-17T12:28:18Z</time></trkpt><trkpt lat="43.804853934649806" lon="10.532690440812134"><ele>19.666666666666668</ele><time>2026-04-17T12:28:19Z</time></trkpt><trkpt lat="43.80486853062505" lon="10.532419934454605"><ele>20.0</ele><time>2026-04-17T12:28:20Z</time></trkpt><trkpt lat="43.804895403517314" lon="10.532152411846303"><ele>20.333333333333336</ele><time>2026-04-17T12:28:21Z</time></trkpt><trkpt lat="43.80493630703148" lon="10.531884066634506"><ele>20.666666666666668</ele><time>2026-04-17T12:28:22Z</time></trkpt><trkpt lat="43.80498558239744" lon="10.531615856626738"><ele>21.0</ele><time>2026-04-17T12:28:23Z</time></trkpt><trkpt lat="43.8050410662912" lon="10.531355440770637"><ele>21.0</ele><time>2026-04-17T12:28:24Z</time></trkpt><trkpt lat="43.80510255269342" lon="10.531102348700445"><ele>21.0</ele><time>2026-04-17T12:28:25Z</time></trkpt><trkpt lat="43.80517190733209" lon="10.53086091383966"><ele>21.0</ele><time>2026-04-17T12:28:26Z</time></trkpt><trkpt lat="43.80525091877849" lon="10.530636326013799"><ele>20.666666666666668</ele><time>2026-04-17T12:28:27Z</time></trkpt><trkpt lat="43.80534246534477" lon="10.53043108602418"><ele>20.333333333333336</ele><time>2026-04-17T12:28:28Z</time></trkpt><trkpt lat="43.80544823346829" lon="10.530241251783119"><ele>20.0</ele><time>2026-04-17T12:28:29Z</time></trkpt><trkpt lat="43.80556922212875" lon="10.530061193682078"><ele>20.0</ele><time>2026-04-17T12:28:30Z</time></trkpt><trkpt lat="43.805703806615796" lon="10.529897182164559"><ele>20.0</ele><time>2026-04-17T12:28:31Z</time></trkpt><trkpt lat="43.80584935053768" lon="10.529752937148773"><ele>20.0</ele><time>2026-04-17T12:28:32Z</time></trkpt><trkpt lat="43.80600277209207" lon="10.529619375029853"><ele>21.666666666666668</ele><time>2026-04-17T12:28:33Z</time></trkpt><trkpt lat="43.806156795201595" lon="10.529488701625285"><ele>23.333333333333336</ele><time>2026-04-17T12:28:34Z</time></trkpt><trkpt lat="43.8063143078263" lon="10.529359822107029"><ele>25.0</ele><time>2026-04-17T12:28:35Z</time></trkpt><trkpt lat="43.80646845276316" lon="10.529234686079048"><ele>25.0</ele><time>2026-04-17T12:28:36Z</time></trkpt><trkpt lat="43.80662078875206" lon="10.52911339709446"><ele>25.0</ele><time>2026-04-17T12:28:37Z</time></trkpt><trkpt lat="43.80676783581864" lon="10.528988347427509"><ele>25.0</ele><time>2026-04-17T12:28:38Z</time></trkpt><trkpt lat="43.806909013998016" lon="10.52885657154023"><ele>23.0</ele><time>2026-04-17T12:28:39Z</time></trkpt><trkpt lat="43.807041220512765" lon="10.528711701297615"><ele>21.0</ele><time>2026-04-17T12:28:40Z</time></trkpt><trkpt lat="43.80716167108909" lon="10.5285478769456"><ele>19.0</ele><time>2026-04-17T12:28:41Z</time></trkpt><trkpt lat="43.807272628738" lon="10.528361595469363"><ele>19.0</ele><time>2026-04-17T12:28:42Z</time></trkpt><trkpt lat="43.807374334968856" lon="10.528157410094144"><ele>19.0</ele><time>2026-04-17T12:28:43Z</time></trkpt><trkpt lat="43.80745969725094" lon="10.52793636881622"><ele>19.0</ele><time>2026-04-17T12:28:44Z</time></trkpt><trkpt lat="43.80753664738518" lon="10.527710387070794"><ele>19.333333333333332</ele><time>2026-04-17T12:28:45Z</time></trkpt><trkpt lat="43.80761593996271" lon="10.527486921405334"><ele>19.666666666666668</ele><time>2026-04-17T12:28:46.001Z</time></trkpt><trkpt lat="43.80769129455662" lon="10.52726746871428"><ele>20.0</ele><time>2026-04-17T12:28:47.001Z</time></trkpt><trkpt lat="43.80776306005269" lon="10.527055616963532"><ele>19.0</ele><time>2026-04-17T12:28:48.001Z</time></trkpt><trkpt lat="43.80783175821232" lon="10.526848044025376"><ele>18.0</ele><time>2026-04-17T12:28:49.001Z</time></trkpt><trkpt lat="43.80789820067414" lon="10.526641493236946"><ele>17.0</ele><time>2026-04-17T12:28:50.001Z</time></trkpt><trkpt lat="43.80796556238437" lon="10.526436811684858"><ele>17.0</ele><time>2026-04-17T12:28:51.001Z</time></trkpt><trkpt lat="43.808032929070094" lon="10.526237142299324"><ele>17.0</ele><time>2026-04-17T12:28:52.001Z</time></trkpt><trkpt lat="43.80809898609416" lon="10.526038601311116"><ele>17.0</ele><time>2026-04-17T12:28:53.001Z</time></trkpt><trkpt lat="43.80816297594997" lon="10.525841641504202"><ele>17.0</ele><time>2026-04-17T12:28:54.001Z</time></trkpt><trkpt lat="43.80822563390917" lon="10.525653963092692"><ele>17.0</ele><time>2026-04-17T12:28:55.001Z</time></trkpt><trkpt lat="43.80828448898608" lon="10.525475918710704"><ele>17.0</ele><time>2026-04-17T12:28:56.001Z</time></trkpt><trkpt lat="43.808342335340654" lon="10.525305163748811"><ele>17.0</ele><time>2026-04-17T12:28:57.001Z</time></trkpt><trkpt lat="43.808400055480995" lon="10.525136389343148"><ele>16.75</ele><time>2026-04-17T12:28:58.001Z</time></trkpt><trkpt lat="43.808456644828766" lon="10.524970903168661"><ele>16.5</ele><time>2026-04-17T12:28:59.001Z</time></trkpt><trkpt lat="43.80851125623993" lon="10.524807075136103"><ele>16.25</ele><time>2026-04-17T12:29:00.001Z</time></trkpt><trkpt lat="43.808565101078294" lon="10.524642744676054"><ele>16.0</ele><time>2026-04-17T12:29:01.001Z</time></trkpt><trkpt lat="43.80861996746278" lon="10.524475911957863"><ele>15.5</ele><time>2026-04-17T12:29:02.001Z</time></trkpt><trkpt lat="43.80867516473413" lon="10.524309251364183"><ele>15.0</ele><time>2026-04-17T12:29:03.001Z</time></trkpt><trkpt lat="43.80873177189941" lon="10.524137746550078"><ele>14.5</ele><time>2026-04-17T12:29:04.001Z</time></trkpt><trkpt lat="43.80878833954172" lon="10.523967700867523"><ele>14.0</ele><time>2026-04-17T12:29:05.001Z</time></trkpt><trkpt lat="43.80884445647265" lon="10.523799463906668"><ele>14.399999999999999</ele><time>2026-04-17T12:29:06.001Z</time></trkpt><trkpt lat="43.80889409585069" lon="10.523649001130691"><ele>14.799999999999999</ele><time>2026-04-17T12:29:07.001Z</time></trkpt><trkpt lat="43.80893942690028" lon="10.523511197827526"><ele>15.200000000000001</ele><time>2026-04-17T12:29:08.001Z</time></trkpt><trkpt lat="43.80898484824113" lon="10.523376888527975"><ele>15.600000000000001</ele><time>2026-04-17T12:29:09.001Z</time></trkpt><trkpt lat="43.8090286618554" lon="10.523246112922918"><ele>16.0</ele><time>2026-04-17T12:29:10.001Z</time></trkpt><trkpt lat="43.80907125511725" lon="10.523117394250338"><ele>16.0</ele><time>2026-04-17T12:29:11.001Z</time></trkpt><trkpt lat="43.80911418449375" lon="10.522992098075456"><ele>16.0</ele><time>2026-04-17T12:29:12.001Z</time></trkpt><trkpt lat="43.80915649253277" lon="10.522869349355169"><ele>16.0</ele><time>2026-04-17T12:29:13.001Z</time></trkpt><trkpt lat="43.809199267810506" lon="10.522744702761766"><ele>16.0</ele><time>2026-04-17T12:29:14.001Z</time></trkpt><trkpt lat="43.809242565166436" lon="10.522609243368379"><ele>16.0</ele><time>2026-04-17T12:29:15.001Z</time></trkpt><trkpt lat="43.809289469116536" lon="10.522462790405637"><ele>15.25</ele><time>2026-04-17T12:29:16.001Z</time></trkpt><trkpt lat="43.80933919911587" lon="10.522315552212934"><ele>14.5</ele><time>2026-04-17T12:29:17.001Z</time></trkpt><trkpt lat="43.80939068783019" lon="10.522162901517971"><ele>13.75</ele><time>2026-04-17T12:29:18.001Z</time></trkpt><trkpt lat="43.80944372447274" lon="10.522013440321256"><ele>13.0</ele><time>2026-04-17T12:29:19.001Z</time></trkpt><trkpt lat="43.80949824852289" lon="10.521867181948142"><ele>13.0</ele><time>2026-04-17T12:29:20.001Z</time></trkpt><trkpt lat="43.80956069713065" lon="10.5217232994281"><ele>13.0</ele><time>2026-04-17T12:29:21.001Z</time></trkpt><trkpt lat="43.8096310690699" lon="10.521581721597087"><ele>13.0</ele><time>2026-04-17T12:29:22.001Z</time></trkpt><trkpt lat="43.80970825790624" lon="10.521442211744773"><ele>13.0</ele><time>2026-04-17T12:29:23.001Z</time></trkpt><trkpt lat="43.809791535257816" lon="10.521309022396931"><ele>13.0</ele><time>2026-04-17T12:29:24.001Z</time></trkpt><trkpt lat="43.80987270288586" lon="10.521178278603188"><ele>13.0</ele><time>2026-04-17T12:29:25.001Z</time></trkpt><trkpt lat="43.80995276313881" lon="10.521050925914142"><ele>13.0</ele><time>2026-04-17T12:29:26.001Z</time></trkpt><trkpt lat="43.81003017738191" lon="10.520922756771036"><ele>13.0</ele><time>2026-04-17T12:29:27.001Z</time></trkpt><trkpt lat="43.81009734860669" lon="10.520784767362114"><ele>13.0</ele><time>2026-04-17T12:29:28.001Z</time></trkpt><trkpt lat="43.81015415043933" lon="10.520636760577592"><ele>13.0</ele><time>2026-04-17T12:29:29.001Z</time></trkpt><trkpt lat="43.81019911796802" lon="10.520483468678222"><ele>13.0</ele><time>2026-04-17T12:29:30.001Z</time></trkpt><trkpt lat="43.810232542583016" lon="10.52032692895741"><ele>13.0</ele><time>2026-04-17T12:29:31.001Z</time></trkpt><trkpt lat="43.810253903521016" lon="10.520170111732227"><ele>12.8</ele><time>2026-04-17T12:29:32.001Z</time></trkpt><trkpt lat="43.81026285837662" lon="10.52001484746006"><ele>12.600000000000001</ele><time>2026-04-17T12:29:33.001Z</time></trkpt><trkpt lat="43.81025860342793" lon="10.519862795064258"><ele>12.399999999999999</ele><time>2026-04-17T12:29:34.001Z</time></trkpt><trkpt lat="43.81024009321808" lon="10.519710975971789"><ele>12.2</ele><time>2026-04-17T12:29:35.001Z</time></trkpt><trkpt lat="43.810212181939356" lon="10.519567063795987"><ele>12.0</ele><time>2026-04-17T12:29:36.001Z</time></trkpt><trkpt lat="43.810179617132334" lon="10.519430554923801"><ele>12.0</ele><time>2026-04-17T12:29:37.001Z</time></trkpt><trkpt lat="43.810145201003685" lon="10.519296808137373"><ele>12.0</ele><time>2026-04-17T12:29:38.001Z</time></trkpt><trkpt lat="43.81011235576895" lon="10.519159053010183"><ele>12.0</ele><time>2026-04-17T12:29:39.001Z</time></trkpt><trkpt lat="43.81008392438282" lon="10.519023112159665"><ele>12.0</ele><time>2026-04-17T12:29:40.001Z</time></trkpt><trkpt lat="43.810061590721126" lon="10.518881382738847"><ele>12.0</ele><time>2026-04-17T12:29:41.001Z</time></trkpt><trkpt lat="43.810043753737396" lon="10.518737400112302"><ele>12.6</ele><time>2026-04-17T12:29:42.001Z</time></trkpt><trkpt lat="43.8100284897981" lon="10.518596619041526"><ele>13.2</ele><time>2026-04-17T12:29:43.001Z</time></trkpt><trkpt lat="43.81002137778893" lon="10.518450351693991"><ele>13.8</ele><time>2026-04-17T12:29:44.001Z</time></trkpt><trkpt lat="43.81002435557243" lon="10.518303659266852"><ele>14.4</ele><time>2026-04-17T12:29:45.001Z</time></trkpt><trkpt lat="43.81003422745481" lon="10.518158275503643"><ele>15.0</ele><time>2026-04-17T12:29:46.001Z</time></trkpt><trkpt lat="43.8100478997237" lon="10.518011844120045"><ele>15.0</ele><time>2026-04-17T12:29:47.001Z</time></trkpt><trkpt lat="43.81006718138283" lon="10.517865653967773"><ele>15.0</ele><time>2026-04-17T12:29:48.001Z</time></trkpt><trkpt lat="43.81009316736134" lon="10.517720097507208"><ele>15.0</ele><time>2026-04-17T12:29:49.001Z</time></trkpt><trkpt lat="43.810125621309105" lon="10.517577988119694"><ele>15.0</ele><time>2026-04-17T12:29:50.001Z</time></trkpt><trkpt lat="43.81016093271595" lon="10.517431706346203"><ele>15.0</ele><time>2026-04-17T12:29:51.001Z</time></trkpt><trkpt lat="43.81019950922872" lon="10.517281425816094"><ele>14.8</ele><time>2026-04-17T12:29:52.001Z</time></trkpt><trkpt lat="43.810236236818305" lon="10.517127063358854"><ele>14.6</ele><time>2026-04-17T12:29:53.001Z</time></trkpt><trkpt lat="43.81027897691451" lon="10.516976594939294"><ele>14.399999999999999</ele><time>2026-04-17T12:29:54.001Z</time></trkpt><trkpt lat="43.81031513901718" lon="10.516839903677209"><ele>14.2</ele><time>2026-04-17T12:29:55Z</time></trkpt><trkpt lat="43.81034588118612" lon="10.516725662975738"><ele>14.0</ele><time>2026-04-17T12:29:56Z</time></trkpt><trkpt lat="43.81037619621649" lon="10.51661190502057"><ele>14.000000000000002</ele><time>2026-04-17T12:29:57Z</time></trkpt><trkpt lat="43.81040638590555" lon="10.516501396154938"><ele>14.0</ele><time>2026-04-17T12:29:58Z</time></trkpt><trkpt lat="43.81043597692873" lon="10.516394127663387"><ele>14.0</ele><time>2026-04-17T12:29:59Z</time></trkpt><trkpt lat="43.81046421789106" lon="10.516291310169938"><ele>14.0</ele><time>2026-04-17T12:30:00Z</time></trkpt><trkpt lat="43.81049220031005" lon="10.51618646857328"><ele>14.000000000000002</ele><time>2026-04-17T12:30:01Z</time></trkpt><trkpt lat="43.81051733196732" lon="10.516084569629472"><ele>14.0</ele><time>2026-04-17T12:30:02Z</time></trkpt><trkpt lat="43.81054402965914" lon="10.515981269554189"><ele>14.0</ele><time>2026-04-17T12:30:03Z</time></trkpt><trkpt lat="43.81057256297078" lon="10.5158709229757"><ele>13.999999999999998</ele><time>2026-04-17T12:30:04Z</time></trkpt><trkpt lat="43.81060456972881" lon="10.515751417931734"><ele>13.999999999999998</ele><time>2026-04-17T12:30:05Z</time></trkpt><trkpt lat="43.81063773032259" lon="10.515626548346813"><ele>14.0</ele><time>2026-04-17T12:30:06Z</time></trkpt><trkpt lat="43.81067301521148" lon="10.515491548193031"><ele>14.0</ele><time>2026-04-17T12:30:07Z</time></trkpt><trkpt lat="43.810710568907055" lon="10.515349196300873"><ele>14.399999999999999</ele><time>2026-04-17T12:30:08Z</time></trkpt><trkpt lat="43.81074877751901" lon="10.515209003466289"><ele>14.799999999999999</ele><time>2026-04-17T12:30:09Z</time></trkpt><trkpt lat="43.81078592334367" lon="10.515069250930713"><ele>15.200000000000001</ele><time>2026-04-17T12:30:10Z</time></trkpt><trkpt lat="43.810823353013895" lon="10.514926778680666"><ele>15.600000000000001</ele><time>2026-04-17T12:30:11Z</time></trkpt><trkpt lat="43.81086261333675" lon="10.514780339601277"><ele>16.0</ele><time>2026-04-17T12:30:12Z</time></trkpt><trkpt lat="43.810902173805296" lon="10.51463311627042"><ele>16.25</ele><time>2026-04-17T12:30:13Z</time></trkpt><trkpt lat="43.81094165525327" lon="10.514480258399832"><ele>16.5</ele><time>2026-04-17T12:30:14Z</time></trkpt><trkpt lat="43.81098175200106" lon="10.514325504414119"><ele>16.75</ele><time>2026-04-17T12:30:15Z</time></trkpt><trkpt lat="43.811021694936514" lon="10.514171492519639"><ele>17.0</ele><time>2026-04-17T12:30:16Z</time></trkpt><trkpt lat="43.811062179459775" lon="10.514013887780225"><ele>16.5</ele><time>2026-04-17T12:30:17Z</time></trkpt><trkpt lat="43.81110482072959" lon="10.513852332066937"><ele>16.0</ele><time>2026-04-17T12:30:18Z</time></trkpt><trkpt lat="43.81114852491995" lon="10.51368765556647"><ele>15.5</ele><time>2026-04-17T12:30:19Z</time></trkpt><trkpt lat="43.81119416813339" lon="10.513521159047324"><ele>15.0</ele><time>2026-04-17T12:30:20Z</time></trkpt><trkpt lat="43.81124030201403" lon="10.513356505829616"><ele>15.0</ele><time>2026-04-17T12:30:21Z</time></trkpt><trkpt lat="43.81128901939774" lon="10.513189450762441"><ele>15.0</ele><time>2026-04-17T12:30:22Z</time></trkpt><trkpt lat="43.81133919917614" lon="10.513024723803698"><ele>15.0</ele><time>2026-04-17T12:30:23Z</time></trkpt><trkpt lat="43.811393112853196" lon="10.512858996383804"><ele>15.0</ele><time>2026-04-17T12:30:24Z</time></trkpt><trkpt lat="43.811443209769735" lon="10.512695869621945"><ele>15.0</ele><time>2026-04-17T12:30:25Z</time></trkpt><trkpt lat="43.81149139372801" lon="10.51253688676296"><ele>15.0</ele><time>2026-04-17T12:30:26Z</time></trkpt><trkpt lat="43.81154158667817" lon="10.512379087742623"><ele>15.0</ele><time>2026-04-17T12:30:27Z</time></trkpt><trkpt lat="43.81159300973098" lon="10.512223100785326"><ele>15.0</ele><time>2026-04-17T12:30:28Z</time></trkpt><trkpt lat="43.81164386515367" lon="10.512064995057013"><ele>15.5</ele><time>2026-04-17T12:30:29Z</time></trkpt><trkpt lat="43.81169455973569" lon="10.511907091115772"><ele>16.0</ele><time>2026-04-17T12:30:30Z</time></trkpt><trkpt lat="43.811744151728554" lon="10.511737636233093"><ele>16.5</ele><time>2026-04-17T12:30:31Z</time></trkpt><trkpt lat="43.811786683807185" lon="10.511566688678066"><ele>17.0</ele><time>2026-04-17T12:30:32Z</time></trkpt><trkpt lat="43.81182235238783" lon="10.51139359105"><ele>16.5</ele><time>2026-04-17T12:30:33Z</time></trkpt><trkpt lat="43.811855537725066" lon="10.511223497380874"><ele>16.0</ele><time>2026-04-17T12:30:34Z</time></trkpt><trkpt lat="43.81188561461307" lon="10.51105049179685"><ele>15.5</ele><time>2026-04-17T12:30:35Z</time></trkpt><trkpt lat="43.811911520931105" lon="10.510876054552"><ele>15.0</ele><time>2026-04-17T12:30:36Z</time></trkpt><trkpt lat="43.811941013923956" lon="10.510697467136616"><ele>15.0</ele><time>2026-04-17T12:30:37Z</time></trkpt><trkpt lat="43.81197099590706" lon="10.510522481355872"><ele>15.0</ele><time>2026-04-17T12:30:38Z</time></trkpt><trkpt lat="43.81199931071872" lon="10.510353075885385"><ele>15.0</ele><time>2026-04-17T12:30:39Z</time></trkpt><trkpt lat="43.81202849288068" lon="10.510184562062928"><ele>15.0</ele><time>2026-04-17T12:30:40Z</time></trkpt><trkpt lat="43.81205830150644" lon="10.510015564015074"><ele>15.0</ele><time>2026-04-17T12:30:41Z</time></trkpt><trkpt lat="43.81208953367151" lon="10.50984717428015"><ele>15.0</ele><time>2026-04-17T12:30:42Z</time></trkpt><trkpt lat="43.81212333414643" lon="10.509683592229155"><ele>15.0</ele><time>2026-04-17T12:30:43Z</time></trkpt><trkpt lat="43.812162979401094" lon="10.50952797919303"><ele>15.0</ele><time>2026-04-17T12:30:44Z</time></trkpt><trkpt lat="43.81221120738809" lon="10.509381480005874"><ele>15.0</ele><time>2026-04-17T12:30:45Z</time></trkpt><trkpt lat="43.812267652558546" lon="10.509245719511476"><ele>15.0</ele><time>2026-04-17T12:30:46Z</time></trkpt><trkpt lat="43.812328462025064" lon="10.509118063087833"><ele>15.0</ele><time>2026-04-17T12:30:47Z</time></trkpt><trkpt lat="43.81239442404099" lon="10.508993506953596"><ele>15.0</ele><time>2026-04-17T12:30:48Z</time></trkpt><trkpt lat="43.81246221335985" lon="10.508867883189462"><ele>15.0</ele><time>2026-04-17T12:30:49Z</time></trkpt><trkpt lat="43.812529440578714" lon="10.508735525428772"><ele>15.0</ele><time>2026-04-17T12:30:50Z</time></trkpt><trkpt lat="43.8125962758973" lon="10.508599491795124"><ele>15.0</ele><time>2026-04-17T12:30:51Z</time></trkpt><trkpt lat="43.81265249915752" lon="10.508454075463723"><ele>15.0</ele><time>2026-04-17T12:30:52Z</time></trkpt><trkpt lat="43.81269399796357" lon="10.508301413357573"><ele>15.0</ele><time>2026-04-17T12:30:53Z</time></trkpt><trkpt lat="43.81271915614805" lon="10.508146974522965"><ele>14.25</ele><time>2026-04-17T12:30:54Z</time></trkpt><trkpt lat="43.81274123137315" lon="10.507994160077034"><ele>13.5</ele><time>2026-04-17T12:30:55Z</time></trkpt><trkpt lat="43.812763166442004" lon="10.507837996322124"><ele>12.75</ele><time>2026-04-17T12:30:56Z</time></trkpt><trkpt lat="43.81278629167703" lon="10.507686204100903"><ele>12.0</ele><time>2026-04-17T12:30:57Z</time></trkpt><trkpt lat="43.81280837339306" lon="10.5075317399877"><ele>12.0</ele><time>2026-04-17T12:30:58Z</time></trkpt><trkpt lat="43.81282898353287" lon="10.507372224740866"><ele>12.0</ele><time>2026-04-17T12:30:59.001Z</time></trkpt><trkpt lat="43.81285281758801" lon="10.507213677731084"><ele>12.0</ele><time>2026-04-17T12:31:00.001Z</time></trkpt><trkpt lat="43.81287520515617" lon="10.507051485558122"><ele>12.0</ele><time>2026-04-17T12:31:01.001Z</time></trkpt><trkpt lat="43.812898354874875" lon="10.506890253971001"><ele>12.8</ele><time>2026-04-17T12:31:02.001Z</time></trkpt><trkpt lat="43.812919274859006" lon="10.506731293228752"><ele>13.6</ele><time>2026-04-17T12:31:03.001Z</time></trkpt><trkpt lat="43.81294051435207" lon="10.506578834439296"><ele>14.400000000000002</ele><time>2026-04-17T12:31:04.001Z</time></trkpt><trkpt lat="43.81296086754382" lon="10.506432362556698"><ele>15.200000000000001</ele><time>2026-04-17T12:31:05.001Z</time></trkpt><trkpt lat="43.81298050346261" lon="10.506291256477727"><ele>16.0</ele><time>2026-04-17T12:31:06.001Z</time></trkpt><trkpt lat="43.813001477750724" lon="10.506152412895759"><ele>16.400000000000002</ele><time>2026-04-17T12:31:07.001Z</time></trkpt><trkpt lat="43.813024133499965" lon="10.50600974461025"><ele>16.8</ele><time>2026-04-17T12:31:08.001Z</time></trkpt><trkpt lat="43.8130498897651" lon="10.505867661095873"><ele>17.200000000000003</ele><time>2026-04-17T12:31:09.001Z</time></trkpt><trkpt lat="43.81308347498999" lon="10.505727549119772"><ele>17.6</ele><time>2026-04-17T12:31:10.001Z</time></trkpt><trkpt lat="43.813125722380555" lon="10.505593453699284"><ele>18.0</ele><time>2026-04-17T12:31:11.001Z</time></trkpt><trkpt lat="43.81317905920656" lon="10.505465830922054"><ele>17.4</ele><time>2026-04-17T12:31:12.001Z</time></trkpt><trkpt lat="43.81324112731031" lon="10.505348156058846"><ele>16.8</ele><time>2026-04-17T12:31:13.001Z</time></trkpt><trkpt lat="43.8133073683244" lon="10.5052422316839"><ele>16.2</ele><time>2026-04-17T12:31:14.001Z</time></trkpt><trkpt lat="43.81337013469771" lon="10.505153781465479"><ele>15.6</ele><time>2026-04-17T12:31:15.001Z</time></trkpt><trkpt lat="43.813425313760156" lon="10.50508364987646"><ele>15.0</ele><time>2026-04-17T12:31:16.001Z</time></trkpt><trkpt lat="43.81350866638107" lon="10.504992471493027"><ele>14.833333333333334</ele><time>2026-04-17T12:31:18.001Z</time></trkpt><trkpt lat="43.81356859491209" lon="10.504927642196748"><ele>14.666666666666668</ele><time>2026-04-17T12:31:20.001Z</time></trkpt><trkpt lat="43.813620113855634" lon="10.504869790884445"><ele>14.5</ele><time>2026-04-17T12:31:22.001Z</time></trkpt><trkpt lat="43.813702598187106" lon="10.504778209936392"><ele>14.333333333333334</ele><time>2026-04-17T12:31:24.001Z</time></trkpt><trkpt lat="43.81376514454525" lon="10.504698927323238"><ele>14.166666666666668</ele><time>2026-04-17T12:31:25.001Z</time></trkpt><trkpt lat="43.81384516638751" lon="10.504607864689566"><ele>14.0</ele><time>2026-04-17T12:31:26.001Z</time></trkpt><trkpt lat="43.81393806992824" lon="10.504515320208048"><ele>14.0</ele><time>2026-04-17T12:31:27.001Z</time></trkpt><trkpt lat="43.8140414998615" lon="10.504418202039014"><ele>14.0</ele><time>2026-04-17T12:31:28.001Z</time></trkpt><trkpt lat="43.81415543190102" lon="10.504324669869865"><ele>14.0</ele><time>2026-04-17T12:31:29.001Z</time></trkpt><trkpt lat="43.814280342292754" lon="10.504243313930402"><ele>14.0</ele><time>2026-04-17T12:31:30.001Z</time></trkpt><trkpt lat="43.81440743136923" lon="10.504163232111095"><ele>13.333333333333334</ele><time>2026-04-17T12:31:31.001Z</time></trkpt><trkpt lat="43.8145353588095" lon="10.504065130653244"><ele>12.666666666666668</ele><time>2026-04-17T12:31:32.001Z</time></trkpt><trkpt lat="43.81465938293206" lon="10.50393922438569"><ele>12.0</ele><time>2026-04-17T12:31:33.001Z</time></trkpt><trkpt lat="43.81478117466972" lon="10.50379038232584"><ele>12.333333333333332</ele><time>2026-04-17T12:31:34.001Z</time></trkpt><trkpt lat="43.8148957830254" lon="10.50362842812856"><ele>12.666666666666666</ele><time>2026-04-17T12:31:35.001Z</time></trkpt><trkpt lat="43.81500128552802" lon="10.503457617362464"><ele>13.0</ele><time>2026-04-17T12:31:36.001Z</time></trkpt><trkpt lat="43.815099779859786" lon="10.503279604642042"><ele>13.0</ele><time>2026-04-17T12:31:37.001Z</time></trkpt><trkpt lat="43.815181219903884" lon="10.503091150822515"><ele>13.0</ele><time>2026-04-17T12:31:38.001Z</time></trkpt><trkpt lat="43.815240042709554" lon="10.502896175355142"><ele>13.0</ele><time>2026-04-17T12:31:39.001Z</time></trkpt><trkpt lat="43.81527592775491" lon="10.50267766326266"><ele>13.0</ele><time>2026-04-17T12:31:40.001Z</time></trkpt><trkpt lat="43.8152982394969" lon="10.502453622799116"><ele>13.0</ele><time>2026-04-17T12:31:41.001Z</time></trkpt><trkpt lat="43.81532240064034" lon="10.502226132805283"><ele>13.0</ele><time>2026-04-17T12:31:42.001Z</time></trkpt><trkpt lat="43.81535046956342" lon="10.501994387107866"><ele>13.0</ele><time>2026-04-17T12:31:43.001Z</time></trkpt><trkpt lat="43.81537819192971" lon="10.501763051573906"><ele>13.0</ele><time>2026-04-17T12:31:44.001Z</time></trkpt><trkpt lat="43.815408884984656" lon="10.501536944583865"><ele>13.0</ele><time>2026-04-17T12:31:45.001Z</time></trkpt><trkpt lat="43.81543491959809" lon="10.501316619835391"><ele>12.75</ele><time>2026-04-17T12:31:46.001Z</time></trkpt><trkpt lat="43.81546259090646" lon="10.501110942190502"><ele>12.5</ele><time>2026-04-17T12:31:47.001Z</time></trkpt><trkpt lat="43.815485657720956" lon="10.500926118753668"><ele>12.25</ele><time>2026-04-17T12:31:48.001Z</time></trkpt><trkpt lat="43.815505114047795" lon="10.500763890173628"><ele>12.0</ele><time>2026-04-17T12:31:49.001Z</time></trkpt><trkpt lat="43.8155217232377" lon="10.500623558277448"><ele>12.0</ele><time>2026-04-17T12:31:50.001Z</time></trkpt><trkpt lat="43.81553694830052" lon="10.500503871321214"><ele>12.0</ele><time>2026-04-17T12:31:51.001Z</time></trkpt><trkpt lat="43.81555810324042" lon="10.500341376820728"><ele>12.0</ele><time>2026-04-17T12:31:53.001Z</time></trkpt><trkpt lat="43.8155794918118" lon="10.500175284149877"><ele>12.0</ele><time>2026-04-17T12:31:55.001Z</time></trkpt><trkpt lat="43.81559272884338" lon="10.50007862907822"><ele>12.0</ele><time>2026-04-17T12:31:56.001Z</time></trkpt><trkpt lat="43.8156048233031" lon="10.499985727841212"><ele>12.0</ele><time>2026-04-17T12:31:57.001Z</time></trkpt><trkpt lat="43.81561856650665" lon="10.499885801434738"><ele>12.0</ele><time>2026-04-17T12:31:58.001Z</time></trkpt><trkpt lat="43.81563350484555" lon="10.499771896651781"><ele>12.0</ele><time>2026-04-17T12:31:59.001Z</time></trkpt><trkpt lat="43.81564778338778" lon="10.49965191331022"><ele>12.0</ele><time>2026-04-17T12:32:00.001Z</time></trkpt><trkpt lat="43.815657784345746" lon="10.499542312424525"><ele>12.0</ele><time>2026-04-17T12:32:01Z</time></trkpt><trkpt lat="43.8156664902694" lon="10.499448429953093"><ele>12.0</ele><time>2026-04-17T12:32:02Z</time></trkpt><trkpt lat="43.8156734182752" lon="10.49935761922548"><ele>12.0</ele><time>2026-04-17T12:32:03Z</time></trkpt><trkpt lat="43.81567948335037" lon="10.499270660388074"><ele>12.0</ele><time>2026-04-17T12:32:04Z</time></trkpt><trkpt lat="43.81568739843045" lon="10.49910214075959"><ele>12.0</ele><time>2026-04-17T12:32:06Z</time></trkpt><trkpt lat="43.81569090831018" lon="10.499008394724346"><ele>12.0</ele><time>2026-04-17T12:32:07Z</time></trkpt><trkpt lat="43.81569685376754" lon="10.498861601263853"><ele>12.0</ele><time>2026-04-17T12:32:09Z</time></trkpt><trkpt lat="43.815699346894576" lon="10.498756625906246"><ele>12.0</ele><time>2026-04-17T12:32:12Z</time></trkpt><trkpt lat="43.81563953983625" lon="10.49870031949393"><ele>12.0</ele><time>2026-04-17T12:32:15Z</time></trkpt><trkpt lat="43.81553028468277" lon="10.498690798653529"><ele>12.0</ele><time>2026-04-17T12:32:21Z</time></trkpt><trkpt lat="43.81546648806425" lon="10.498671055517669"><ele>12.0</ele><time>2026-04-17T12:32:24Z</time></trkpt><trkpt lat="43.81553862683919" lon="10.498560875642553"><ele>12.0</ele><time>2026-04-17T12:32:27Z</time></trkpt><trkpt lat="43.81554091614288" lon="10.498469300462931"><ele>12.0</ele><time>2026-04-17T12:32:29Z</time></trkpt><trkpt lat="43.81554299380015" lon="10.498377137783582"><ele>12.0</ele><time>2026-04-17T12:32:32Z</time></trkpt><trkpt lat="43.815545207000056" lon="10.498278960541276"><ele>11.999999999999998</ele><time>2026-04-17T12:32:36Z</time></trkpt><trkpt lat="43.81545885576674" lon="10.498299512045536"><ele>12.0</ele><time>2026-04-17T12:33:31.001Z</time></trkpt><trkpt lat="43.815505514053946" lon="10.49821908144567"><ele>12.0</ele><time>2026-04-17T12:33:50.001Z</time></trkpt><trkpt lat="43.815541793021524" lon="10.498129660716064"><ele>12.0</ele><time>2026-04-17T12:33:55.001Z</time></trkpt><trkpt lat="43.81553011413867" lon="10.498042923313122"><ele>12.0</ele><time>2026-04-17T12:34:04.001Z</time></trkpt><trkpt lat="43.81559505847619" lon="10.498005414338236"><ele>11.999999999999998</ele><time>2026-04-17T12:34:14Z</time></trkpt><trkpt lat="43.81551780781671" lon="10.498002042921613"><ele>12.0</ele><time>2026-04-17T12:34:20Z</time></trkpt><trkpt lat="43.81545359716383" lon="10.497996939175199"><ele>12.0</ele><time>2026-04-17T12:34:21Z</time></trkpt><trkpt lat="43.81552094664108" lon="10.49808660360515"><ele>12.0</ele><time>2026-04-17T12:34:40Z</time></trkpt><trkpt lat="43.81547134462207" lon="10.497786221614923"><ele>12.0</ele><time>2026-04-17T12:36:01Z</time></trkpt><trkpt lat="43.81557189303463" lon="10.498058801823603"><ele>12.0</ele><time>2026-04-17T12:37:39.015Z</time></trkpt><trkpt lat="43.81557212931441" lon="10.49816056146683"><ele>12.0</ele><time>2026-04-17T12:37:43.016Z</time></trkpt><trkpt lat="43.815396134336275" lon="10.497995945208498"><ele>12.0</ele><time>2026-04-17T12:38:12.359Z</time></trkpt><trkpt lat="43.8154709725926" lon="10.497787256767126"><ele>12.0</ele><time>2026-04-17T12:38:24.362Z</time></trkpt><trkpt lat="43.815604519989535" lon="10.498061784021978"><ele>12.0</ele><time>2026-04-17T12:38:37.013Z</time></trkpt><trkpt lat="43.815684567759206" lon="10.498087974421344"><ele>12.0</ele><time>2026-04-17T12:38:39.016Z</time></trkpt><trkpt lat="43.815765803102295" lon="10.498189073077599"><ele>12.0</ele><time>2026-04-17T12:38:53.015Z</time></trkpt><trkpt lat="43.815857091163" lon="10.498179922035744"><ele>11.999999999999998</ele><time>2026-04-17T12:38:58.018Z</time></trkpt><trkpt lat="43.81581583150049" lon="10.498112802625176"><ele>12.0</ele><time>2026-04-17T12:39:18.019Z</time></trkpt><trkpt lat="43.815767970886185" lon="10.49805484283972"><ele>12.0</ele><time>2026-04-17T12:39:36.02Z</time></trkpt><trkpt lat="43.81569912952318" lon="10.498035058674905"><ele>12.0</ele><time>2026-04-17T12:39:45.02Z</time></trkpt><trkpt lat="43.81564184627027" lon="10.498079873262315"><ele>12.0</ele><time>2026-04-17T12:39:54.018Z</time></trkpt><trkpt lat="43.815569373205754" lon="10.498089900899485"><ele>11.999999999999998</ele><time>2026-04-17T12:40:08.018Z</time></trkpt><trkpt lat="43.81550383228931" lon="10.498179335964522"><ele>12.0</ele><time>2026-04-17T12:40:13.02Z</time></trkpt><trkpt lat="43.815423297651066" lon="10.498242521663265"><ele>12.0</ele><time>2026-04-17T12:40:15.021Z</time></trkpt><trkpt lat="43.815729541485766" lon="10.498305911840122"><ele>12.0</ele><time>2026-04-17T12:40:22.02Z</time></trkpt><trkpt lat="43.81537572504769" lon="10.498267731271648"><ele>11.999999999999998</ele><time>2026-04-17T12:40:23.022Z</time></trkpt><trkpt lat="43.81543138393787" lon="10.49820174117698"><ele>12.0</ele><time>2026-04-17T12:40:58.022Z</time></trkpt><trkpt lat="43.81548215534213" lon="10.498129445306787"><ele>12.0</ele><time>2026-04-17T12:41:02.021Z</time></trkpt><trkpt lat="43.81554402231658" lon="10.498043848942078"><ele>12.0</ele><time>2026-04-17T12:41:08.021Z</time></trkpt><trkpt lat="43.81561742795943" lon="10.49802547866003"><ele>12.0</ele><time>2026-04-17T12:41:18.024Z</time></trkpt><trkpt lat="43.81554894456467" lon="10.498033385150128"><ele>11.999999999999998</ele><time>2026-04-17T12:41:31.02Z</time></trkpt><trkpt lat="43.815510521987754" lon="10.498112130164817"><ele>12.0</ele><time>2026-04-17T12:41:37.021Z</time></trkpt><trkpt lat="43.81543804734014" lon="10.49810348519399"><ele>12.0</ele><time>2026-04-17T12:41:56.017Z</time></trkpt><trkpt lat="43.81540319067604" lon="10.498021073454836"><ele>12.0</ele><time>2026-04-17T12:42:01.017Z</time></trkpt><trkpt lat="43.81540395887298" lon="10.498116738309541"><ele>12.0</ele><time>2026-04-17T12:42:09.016Z</time></trkpt><trkpt lat="43.81535954843937" lon="10.498005081087738"><ele>12.0</ele><time>2026-04-17T12:42:17.015Z</time></trkpt><trkpt lat="43.81545931112928" lon="10.49801938126503"><ele>12.0</ele><time>2026-04-17T12:42:23.022Z</time></trkpt><trkpt lat="43.81544518649007" lon="10.498110936519055"><ele>12.0</ele><time>2026-04-17T12:43:16Z</time></trkpt><trkpt lat="43.81540063732465" lon="10.498039946570701"><ele>12.0</ele><time>2026-04-17T12:43:19Z</time></trkpt><trkpt lat="43.815368916515" lon="10.497927047493805"><ele>12.0</ele><time>2026-04-17T12:43:37Z</time></trkpt><trkpt lat="43.81538123892625" lon="10.497818764220224"><ele>12.0</ele><time>2026-04-17T12:43:39Z</time></trkpt><trkpt lat="43.81536892856657" lon="10.497728689105132"><ele>12.0</ele><time>2026-04-17T12:43:45Z</time></trkpt><trkpt lat="43.815237075433195" lon="10.49779971215832"><ele>12.0</ele><time>2026-04-17T12:43:49.001Z</time></trkpt><trkpt lat="43.8152286640207" lon="10.497617365314175"><ele>12.0</ele><time>2026-04-17T12:43:51.001Z</time></trkpt><trkpt lat="43.81519078758538" lon="10.497532216743098"><ele>12.0</ele><time>2026-04-17T12:43:53.001Z</time></trkpt><trkpt lat="43.81524859711894" lon="10.497497310644762"><ele>12.0</ele><time>2026-04-17T12:43:57.053Z</time></trkpt><trkpt lat="43.81535736573244" lon="10.497605850727961"><ele>12.0</ele><time>2026-04-17T12:44:14.608Z</time></trkpt><trkpt lat="43.815401400088135" lon="10.497675712242389"><ele>12.0</ele><time>2026-04-17T12:44:17.404Z</time></trkpt><trkpt lat="43.81548901346912" lon="10.497773595619762"><ele>12.0</ele><time>2026-04-17T12:44:41.829Z</time></trkpt><trkpt lat="43.81542897334228" lon="10.497918514114774"><ele>12.0</ele><time>2026-04-17T12:44:43.4Z</time></trkpt><trkpt lat="43.815390463855245" lon="10.49806644109223"><ele>12.0</ele><time>2026-04-17T12:44:49.756Z</time></trkpt><trkpt lat="43.81545976229263" lon="10.497808671988647"><ele>12.0</ele><time>2026-04-17T12:45:10.213Z</time></trkpt><trkpt lat="43.81555894051206" lon="10.497233348899922"><ele>12.0</ele><time>2026-04-17T12:46:08.353Z</time></trkpt><trkpt lat="43.81548906355136" lon="10.497673639574467"><ele>12.0</ele><time>2026-04-17T12:46:17.022Z</time></trkpt><trkpt lat="43.815346772368386" lon="10.498004657411627"><ele>12.0</ele><time>2026-04-17T12:46:30.013Z</time></trkpt><trkpt lat="43.81542497653744" lon="10.497894874987088"><ele>12.0</ele><time>2026-04-17T12:47:32.456Z</time></trkpt><trkpt lat="43.81536221773814" lon="10.497838799908008"><ele>12.0</ele><time>2026-04-17T12:47:38.016Z</time></trkpt><trkpt lat="43.81540853277278" lon="10.49793793295705"><ele>12.0</ele><time>2026-04-17T12:48:06.014Z</time></trkpt><trkpt lat="43.81550561409938" lon="10.49781163826243"><ele>12.0</ele><time>2026-04-17T12:48:59.688Z</time></trkpt><trkpt lat="43.81552300901079" lon="10.497907191545892"><ele>12.0</ele><time>2026-04-17T12:49:33.02Z</time></trkpt><trkpt lat="43.81558923069301" lon="10.498010201901797"><ele>12.0</ele><time>2026-04-17T12:49:51.001Z</time></trkpt><trkpt lat="43.81552499400811" lon="10.497977335949722"><ele>12.0</ele><time>2026-04-17T12:49:57.001Z</time></trkpt><trkpt lat="43.81543991869163" lon="10.497956428792268"><ele>12.0</ele><time>2026-04-17T12:50:01.001Z</time></trkpt><trkpt lat="43.815483237774465" lon="10.498028935771227"><ele>12.0</ele><time>2026-04-17T12:50:30Z</time></trkpt><trkpt lat="43.815557298590626" lon="10.498066492062609"><ele>12.0</ele><time>2026-04-17T12:50:40Z</time></trkpt><trkpt lat="43.81563923769296" lon="10.498082928741367"><ele>12.0</ele><time>2026-04-17T12:50:44Z</time></trkpt><trkpt lat="43.815979848599206" lon="10.49806076146124"><ele>12.0</ele><time>2026-04-17T12:51:05Z</time></trkpt><trkpt lat="43.81605458358601" lon="10.497940762522273"><ele>11.8</ele><time>2026-04-17T12:51:09Z</time></trkpt><trkpt lat="43.816100112700845" lon="10.49786967303979"><ele>11.6</ele><time>2026-04-17T12:51:10Z</time></trkpt><trkpt lat="43.81614572455262" lon="10.497803766286342"><ele>11.4</ele><time>2026-04-17T12:51:12Z</time></trkpt><trkpt lat="43.81619664396134" lon="10.497751573210627"><ele>11.200000000000001</ele><time>2026-04-17T12:51:14Z</time></trkpt><trkpt lat="43.81627077023149" lon="10.497702955610675"><ele>11.0</ele><time>2026-04-17T12:51:16Z</time></trkpt><trkpt lat="43.816027366940524" lon="10.497850228314853"><ele>11.0</ele><time>2026-04-17T12:51:17Z</time></trkpt><trkpt lat="43.81670128072867" lon="10.497724655784964"><ele>11.0</ele><time>2026-04-17T12:51:22.052Z</time></trkpt><trkpt lat="43.81677755067757" lon="10.497848051652477"><ele>11.0</ele><time>2026-04-17T12:51:24.055Z</time></trkpt><trkpt lat="43.816725404352376" lon="10.498055338382038"><ele>11.0</ele><time>2026-04-17T12:51:29Z</time></trkpt><trkpt lat="43.81672547683002" lon="10.498146388900036"><ele>11.0</ele><time>2026-04-17T12:51:31Z</time></trkpt><trkpt lat="43.8167862423338" lon="10.498176165350104"><ele>11.0</ele><time>2026-04-17T12:51:33Z</time></trkpt><trkpt lat="43.81668506337046" lon="10.498240458043544"><ele>10.8</ele><time>2026-04-17T12:51:36Z</time></trkpt><trkpt lat="43.81664454779411" lon="10.498321996401321"><ele>10.600000000000001</ele><time>2026-04-17T12:51:40Z</time></trkpt><trkpt lat="43.81659165526845" lon="10.498417320486565"><ele>10.4</ele><time>2026-04-17T12:51:42Z</time></trkpt><trkpt lat="43.816470955086736" lon="10.498415840036056"><ele>10.2</ele><time>2026-04-17T12:51:44Z</time></trkpt><trkpt lat="43.81632615624082" lon="10.498422209019528"><ele>10.0</ele><time>2026-04-17T12:51:45Z</time></trkpt><trkpt lat="43.81622162651485" lon="10.498447243776084"><ele>10.0</ele><time>2026-04-17T12:51:46Z</time></trkpt><trkpt lat="43.81604337510091" lon="10.498408117604152"><ele>10.0</ele><time>2026-04-17T12:51:48Z</time></trkpt><trkpt lat="43.81592229790145" lon="10.498397165157309"><ele>10.0</ele><time>2026-04-17T12:51:49Z</time></trkpt><trkpt lat="43.81582914904456" lon="10.498383868634303"><ele>10.0</ele><time>2026-04-17T12:51:50Z</time></trkpt><trkpt lat="43.81570268564195" lon="10.49837557562872"><ele>10.4</ele><time>2026-04-17T12:51:51Z</time></trkpt><trkpt lat="43.81560178347103" lon="10.498369784707881"><ele>10.8</ele><time>2026-04-17T12:51:52Z</time></trkpt><trkpt lat="43.81552603992972" lon="10.498359765018424"><ele>11.2</ele><time>2026-04-17T12:51:53Z</time></trkpt><trkpt lat="43.8154771539729" lon="10.4984223066293"><ele>11.6</ele><time>2026-04-17T12:51:56Z</time></trkpt><trkpt lat="43.81540516002111" lon="10.498414327209902"><ele>12.0</ele><time>2026-04-17T12:52:06Z</time></trkpt><trkpt lat="43.81545886076493" lon="10.498169430874597"><ele>12.0</ele><time>2026-04-17T12:52:57Z</time></trkpt><trkpt lat="43.81547395754981" lon="10.497996071865046"><ele>12.0</ele><time>2026-04-17T12:53:17.056Z</time></trkpt><trkpt lat="43.81529970470509" lon="10.498015435826952"><ele>12.0</ele><time>2026-04-17T12:53:20.055Z</time></trkpt><trkpt lat="43.815280670758185" lon="10.497909599384139"><ele>12.0</ele><time>2026-04-17T12:53:22.058Z</time></trkpt><trkpt lat="43.815446889452055" lon="10.497977787288733"><ele>12.0</ele><time>2026-04-17T12:53:23.059Z</time></trkpt><trkpt lat="43.815405756526786" lon="10.497900127729006"><ele>12.0</ele><time>2026-04-17T12:53:27.059Z</time></trkpt><trkpt lat="43.81548823577234" lon="10.497808446522962"><ele>12.0</ele><time>2026-04-17T12:54:01.367Z</time></trkpt><trkpt lat="43.81552820284739" lon="10.497960116141781"><ele>12.0</ele><time>2026-04-17T12:57:24.852Z</time></trkpt><trkpt lat="43.81556339738528" lon="10.498036278827131"><ele>12.0</ele><time>2026-04-17T12:57:32.383Z</time></trkpt><trkpt lat="43.815587399330745" lon="10.49812425063565"><ele>12.0</ele><time>2026-04-17T12:58:17.013Z</time></trkpt><trkpt lat="43.81560290036071" lon="10.498216038661313"><ele>11.999999999999998</ele><time>2026-04-17T12:58:22.015Z</time></trkpt><trkpt lat="43.815620112775534" lon="10.498348149715667"><ele>12.0</ele><time>2026-04-17T12:58:48.014Z</time></trkpt><trkpt lat="43.81555957332049" lon="10.49831924970366"><ele>12.0</ele><time>2026-04-17T12:59:11.014Z</time></trkpt><trkpt lat="43.815526075097196" lon="10.498240656922254"><ele>12.0</ele><time>2026-04-17T12:59:30.016Z</time></trkpt><trkpt lat="43.81554855516994" lon="10.498152815448435"><ele>12.0</ele><time>2026-04-17T12:59:47.015Z</time></trkpt><trkpt lat="43.81548442917113" lon="10.498190884160746"><ele>11.999999999999998</ele><time>2026-04-17T13:00:26.001Z</time></trkpt><trkpt lat="43.815420398756" lon="10.498225089659696"><ele>12.0</ele><time>2026-04-17T13:01:38.001Z</time></trkpt><trkpt lat="43.815430955345654" lon="10.498390237892405"><ele>12.0</ele><time>2026-04-17T13:08:51.999Z</time></trkpt><trkpt lat="43.81542941554273" lon="10.498520483449642"><ele>12.0</ele><time>2026-04-17T13:08:54Z</time></trkpt><trkpt lat="43.81542960680314" lon="10.498619450147315"><ele>12.0</ele><time>2026-04-17T13:08:56Z</time></trkpt><trkpt lat="43.81540925964438" lon="10.498710499443865"><ele>12.0</ele><time>2026-04-17T13:08:58Z</time></trkpt><trkpt lat="43.815327464533276" lon="10.498771395947108"><ele>12.0</ele><time>2026-04-17T13:09:00Z</time></trkpt><trkpt lat="43.81524789321159" lon="10.498759107483933"><ele>12.0</ele><time>2026-04-17T13:09:02Z</time></trkpt><trkpt lat="43.81518453785769" lon="10.498734980784215"><ele>12.0</ele><time>2026-04-17T13:09:05Z</time></trkpt><trkpt lat="43.815236453610574" lon="10.498819359089284"><ele>12.0</ele><time>2026-04-17T13:09:10Z</time></trkpt><trkpt lat="43.81533037128954" lon="10.498781592790118"><ele>12.0</ele><time>2026-04-17T13:09:12Z</time></trkpt><trkpt lat="43.81539829857708" lon="10.498723425079312"><ele>12.0</ele><time>2026-04-17T13:09:14Z</time></trkpt><trkpt lat="43.815438017169754" lon="10.498639993257616"><ele>12.0</ele><time>2026-04-17T13:09:16Z</time></trkpt><trkpt lat="43.81545824062869" lon="10.498494781552873"><ele>12.0</ele><time>2026-04-17T13:09:18Z</time></trkpt><trkpt lat="43.81546434466661" lon="10.4983959370361"><ele>12.0</ele><time>2026-04-17T13:09:20Z</time></trkpt><trkpt lat="43.81542959015427" lon="10.498323177251756"><ele>12.0</ele><time>2026-04-17T13:09:23Z</time></trkpt><trkpt lat="43.81542708539117" lon="10.49845602817575"><ele>12.0</ele><time>2026-04-17T13:09:43Z</time></trkpt><trkpt lat="43.815432485576025" lon="10.498567054119526"><ele>12.0</ele><time>2026-04-17T13:09:45Z</time></trkpt><trkpt lat="43.81545321123465" lon="10.49865790594008"><ele>12.0</ele><time>2026-04-17T13:09:47Z</time></trkpt><trkpt lat="43.815547785994134" lon="10.498707788441294"><ele>12.0</ele><time>2026-04-17T13:09:49Z</time></trkpt><trkpt lat="43.81562685310944" lon="10.498714827293664"><ele>12.0</ele><time>2026-04-17T13:09:52Z</time></trkpt><trkpt lat="43.81566010738656" lon="10.498818796256476"><ele>12.0</ele><time>2026-04-17T13:09:57Z</time></trkpt><trkpt lat="43.81565224204257" lon="10.498922451374185"><ele>12.0</ele><time>2026-04-17T13:09:58Z</time></trkpt><trkpt lat="43.81564311946281" lon="10.499060010694343"><ele>12.0</ele><time>2026-04-17T13:09:59Z</time></trkpt><trkpt lat="43.81563323560365" lon="10.49920682267694"><ele>12.0</ele><time>2026-04-17T13:10:00Z</time></trkpt><trkpt lat="43.81562300230434" lon="10.499350051791502"><ele>12.0</ele><time>2026-04-17T13:10:01Z</time></trkpt><trkpt lat="43.81561149039001" lon="10.499506558152978"><ele>12.0</ele><time>2026-04-17T13:10:02Z</time></trkpt><trkpt lat="43.81559323170698" lon="10.499669288850098"><ele>12.0</ele><time>2026-04-17T13:10:03Z</time></trkpt><trkpt lat="43.81557410726599" lon="10.499837244685246"><ele>12.0</ele><time>2026-04-17T13:10:04Z</time></trkpt><trkpt lat="43.81555339503802" lon="10.500024889262187"><ele>12.0</ele><time>2026-04-17T13:10:05Z</time></trkpt><trkpt lat="43.815529365343934" lon="10.50023809859407"><ele>12.0</ele><time>2026-04-17T13:10:06Z</time></trkpt><trkpt lat="43.81550279152405" lon="10.50045280869394"><ele>12.0</ele><time>2026-04-17T13:10:07Z</time></trkpt><trkpt lat="43.81547591326257" lon="10.500655393210408"><ele>12.0</ele><time>2026-04-17T13:10:08Z</time></trkpt><trkpt lat="43.81545055119935" lon="10.500858484686571"><ele>12.0</ele><time>2026-04-17T13:10:09Z</time></trkpt><trkpt lat="43.81542351982229" lon="10.501077616214152"><ele>12.0</ele><time>2026-04-17T13:10:10Z</time></trkpt><trkpt lat="43.81539561284406" lon="10.501306475425292"><ele>12.0</ele><time>2026-04-17T13:10:11Z</time></trkpt><trkpt lat="43.81536946373463" lon="10.501523858780269"><ele>12.0</ele><time>2026-04-17T13:10:12Z</time></trkpt><trkpt lat="43.81534655427381" lon="10.501709610937784"><ele>12.0</ele><time>2026-04-17T13:10:13Z</time></trkpt><trkpt lat="43.81532059494432" lon="10.501897439611971"><ele>12.0</ele><time>2026-04-17T13:10:14Z</time></trkpt><trkpt lat="43.81529451962089" lon="10.502105054312953"><ele>12.0</ele><time>2026-04-17T13:10:15Z</time></trkpt><trkpt lat="43.81527066040586" lon="10.502314173191829"><ele>12.0</ele><time>2026-04-17T13:10:16Z</time></trkpt><trkpt lat="43.815245957539226" lon="10.502519207235935"><ele>12.0</ele><time>2026-04-17T13:10:17Z</time></trkpt><trkpt lat="43.815220617328045" lon="10.50271387108464"><ele>12.0</ele><time>2026-04-17T13:10:18Z</time></trkpt><trkpt lat="43.81519452274499" lon="10.502880065346076"><ele>12.333333333333332</ele><time>2026-04-17T13:10:19Z</time></trkpt><trkpt lat="43.8151396284747" lon="10.503045900243423"><ele>12.666666666666666</ele><time>2026-04-17T13:10:20Z</time></trkpt><trkpt lat="43.815049051462694" lon="10.503210538953468"><ele>13.0</ele><time>2026-04-17T13:10:21Z</time></trkpt><trkpt lat="43.8149715981574" lon="10.503419730773587"><ele>13.0</ele><time>2026-04-17T13:10:22Z</time></trkpt><trkpt lat="43.81486936299761" lon="10.503577278862693"><ele>13.0</ele><time>2026-04-17T13:10:23Z</time></trkpt><trkpt lat="43.814772750499145" lon="10.5037128933405"><ele>13.0</ele><time>2026-04-17T13:10:24Z</time></trkpt><trkpt lat="43.81467117608686" lon="10.50385186616965"><ele>13.0</ele><time>2026-04-17T13:10:25Z</time></trkpt><trkpt lat="43.814563112314424" lon="10.503979179392877"><ele>12.75</ele><time>2026-04-17T13:10:26Z</time></trkpt><trkpt lat="43.8144524585535" lon="10.504068532787475"><ele>12.5</ele><time>2026-04-17T13:10:27Z</time></trkpt><trkpt lat="43.81434779408839" lon="10.50413843749583"><ele>12.25</ele><time>2026-04-17T13:10:28Z</time></trkpt><trkpt lat="43.81423416186068" lon="10.504212247099806"><ele>12.0</ele><time>2026-04-17T13:10:29Z</time></trkpt><trkpt lat="43.814114112980306" lon="10.504290095134802"><ele>12.5</ele><time>2026-04-17T13:10:30Z</time></trkpt><trkpt lat="43.81399920603629" lon="10.504380289767951"><ele>13.0</ele><time>2026-04-17T13:10:31Z</time></trkpt><trkpt lat="43.81389178641543" lon="10.504489074275794"><ele>13.5</ele><time>2026-04-17T13:10:32Z</time></trkpt><trkpt lat="43.813792849349646" lon="10.50458459803867"><ele>14.0</ele><time>2026-04-17T13:10:33Z</time></trkpt><trkpt lat="43.81368698183409" lon="10.50472234649913"><ele>14.0</ele><time>2026-04-17T13:10:34Z</time></trkpt><trkpt lat="43.8135810980193" lon="10.50484319351827"><ele>14.0</ele><time>2026-04-17T13:10:35Z</time></trkpt><trkpt lat="43.813486608639046" lon="10.504952269791344"><ele>14.0</ele><time>2026-04-17T13:10:36Z</time></trkpt><trkpt lat="43.81339054527799" lon="10.505057574042954"><ele>14.0</ele><time>2026-04-17T13:10:37Z</time></trkpt><trkpt lat="43.813292419771464" lon="10.505175197855358"><ele>14.25</ele><time>2026-04-17T13:10:38Z</time></trkpt><trkpt lat="43.81320759704435" lon="10.50530775717268"><ele>14.5</ele><time>2026-04-17T13:10:39Z</time></trkpt><trkpt lat="43.813136060458895" lon="10.505463882754482"><ele>14.75</ele><time>2026-04-17T13:10:40Z</time></trkpt><trkpt lat="43.81307523555656" lon="10.505632928603015"><ele>15.0</ele><time>2026-04-17T13:10:41Z</time></trkpt><trkpt lat="43.81302139697061" lon="10.505813487496065"><ele>15.25</ele><time>2026-04-17T13:10:42Z</time></trkpt><trkpt lat="43.81298461214427" lon="10.505992269845954"><ele>15.5</ele><time>2026-04-17T13:10:43Z</time></trkpt><trkpt lat="43.81296398114649" lon="10.506162301548526"><ele>15.75</ele><time>2026-04-17T13:10:44Z</time></trkpt><trkpt lat="43.81293986757324" lon="10.506333904983784"><ele>16.0</ele><time>2026-04-17T13:10:44.999Z</time></trkpt><trkpt lat="43.812913058220225" lon="10.506529290858097"><ele>16.0</ele><time>2026-04-17T13:10:45.999Z</time></trkpt><trkpt lat="43.8128823424319" lon="10.506738186021993"><ele>16.0</ele><time>2026-04-17T13:10:46.999Z</time></trkpt><trkpt lat="43.81285211733669" lon="10.506941780536646"><ele>16.0</ele><time>2026-04-17T13:10:47.999Z</time></trkpt><trkpt lat="43.81282482539305" lon="10.507123606964674"><ele>16.0</ele><time>2026-04-17T13:10:48.999Z</time></trkpt><trkpt lat="43.81279624094181" lon="10.507292689206139"><ele>15.0</ele><time>2026-04-17T13:10:49.999Z</time></trkpt><trkpt lat="43.81277741641781" lon="10.507478153111792"><ele>14.0</ele><time>2026-04-17T13:10:50.999Z</time></trkpt><trkpt lat="43.812754823189024" lon="10.507641648232065"><ele>13.0</ele><time>2026-04-17T13:10:51.999Z</time></trkpt><trkpt lat="43.812733199263484" lon="10.507803205037193"><ele>12.0</ele><time>2026-04-17T13:10:52.999Z</time></trkpt><trkpt lat="43.81271141170739" lon="10.507974676165462"><ele>12.0</ele><time>2026-04-17T13:10:53.999Z</time></trkpt><trkpt lat="43.81269352898334" lon="10.50811836193031"><ele>12.0</ele><time>2026-04-17T13:10:54.999Z</time></trkpt><trkpt lat="43.81266896712797" lon="10.508249274030652"><ele>12.0</ele><time>2026-04-17T13:10:55.999Z</time></trkpt><trkpt lat="43.81264908054407" lon="10.508357646859867"><ele>12.0</ele><time>2026-04-17T13:10:56.999Z</time></trkpt><trkpt lat="43.812624185986415" lon="10.508455163779129"><ele>12.0</ele><time>2026-04-17T13:10:57.999Z</time></trkpt><trkpt lat="43.812598891843706" lon="10.508554665700222"><ele>12.0</ele><time>2026-04-17T13:10:58.999Z</time></trkpt><trkpt lat="43.812550996526404" lon="10.508650207836938"><ele>12.6</ele><time>2026-04-17T13:10:59.999Z</time></trkpt><trkpt lat="43.812482166259414" lon="10.508744972187616"><ele>13.2</ele><time>2026-04-17T13:11:00.999Z</time></trkpt><trkpt lat="43.8124192552233" lon="10.508840454525554"><ele>13.8</ele><time>2026-04-17T13:11:01.999Z</time></trkpt><trkpt lat="43.81236861535945" lon="10.508935270640347"><ele>14.4</ele><time>2026-04-17T13:11:02.999Z</time></trkpt><trkpt lat="43.81230840318173" lon="10.509053895815846"><ele>15.0</ele><time>2026-04-17T13:11:04Z</time></trkpt><trkpt lat="43.81224186395416" lon="10.509184162844981"><ele>15.0</ele><time>2026-04-17T13:11:05Z</time></trkpt><trkpt lat="43.81219252814652" lon="10.509283452279453"><ele>15.0</ele><time>2026-04-17T13:11:06Z</time></trkpt><trkpt lat="43.81216119867148" lon="10.509362610085097"><ele>15.0</ele><time>2026-04-17T13:11:07Z</time></trkpt><trkpt lat="43.812119658440515" lon="10.509514431769608"><ele>15.0</ele><time>2026-04-17T13:11:09Z</time></trkpt><trkpt lat="43.812080419083145" lon="10.50963856608793"><ele>15.0</ele><time>2026-04-17T13:11:10Z</time></trkpt><trkpt lat="43.81204375574801" lon="10.509793574829418"><ele>15.0</ele><time>2026-04-17T13:11:11Z</time></trkpt><trkpt lat="43.81200784275909" lon="10.510024808919018"><ele>15.0</ele><time>2026-04-17T13:11:12Z</time></trkpt><trkpt lat="43.81196756142025" lon="10.51029255063193"><ele>15.0</ele><time>2026-04-17T13:11:13Z</time></trkpt><trkpt lat="43.8119328494614" lon="10.510516335579048"><ele>15.0</ele><time>2026-04-17T13:11:14Z</time></trkpt><trkpt lat="43.81190227677369" lon="10.510702827516614"><ele>15.0</ele><time>2026-04-17T13:11:15Z</time></trkpt><trkpt lat="43.811867596413975" lon="10.510908860321008"><ele>15.0</ele><time>2026-04-17T13:11:16Z</time></trkpt><trkpt lat="43.81183366691441" lon="10.511129150993899"><ele>15.666666666666668</ele><time>2026-04-17T13:11:17Z</time></trkpt><trkpt lat="43.81179187057584" lon="10.511368306643517"><ele>16.333333333333336</ele><time>2026-04-17T13:11:18Z</time></trkpt><trkpt lat="43.81174231236647" lon="10.5116009011732"><ele>17.0</ele><time>2026-04-17T13:11:19Z</time></trkpt><trkpt lat="43.811700157994466" lon="10.511826288506299"><ele>17.0</ele><time>2026-04-17T13:11:20Z</time></trkpt><trkpt lat="43.811629998737224" lon="10.511975673724526"><ele>17.0</ele><time>2026-04-17T13:11:21Z</time></trkpt><trkpt lat="43.81157324398916" lon="10.51216332116828"><ele>17.0</ele><time>2026-04-17T13:11:22Z</time></trkpt><trkpt lat="43.81151629973352" lon="10.512343777933193"><ele>17.0</ele><time>2026-04-17T13:11:23Z</time></trkpt><trkpt lat="43.81145528245515" lon="10.512528360159969"><ele>16.5</ele><time>2026-04-17T13:11:24Z</time></trkpt><trkpt lat="43.81139440979067" lon="10.51272725306284"><ele>16.0</ele><time>2026-04-17T13:11:25Z</time></trkpt><trkpt lat="43.811342018058454" lon="10.512908579119541"><ele>15.5</ele><time>2026-04-17T13:11:26Z</time></trkpt><trkpt lat="43.811293197162165" lon="10.513071378833656"><ele>15.0</ele><time>2026-04-17T13:11:27Z</time></trkpt><trkpt lat="43.81122565001933" lon="10.51325330307456"><ele>15.0</ele><time>2026-04-17T13:11:28Z</time></trkpt><trkpt lat="43.811176516063334" lon="10.513441990401658"><ele>15.0</ele><time>2026-04-17T13:11:29Z</time></trkpt><trkpt lat="43.811130014648775" lon="10.513636855442337"><ele>15.0</ele><time>2026-04-17T13:11:30Z</time></trkpt><trkpt lat="43.81108148681614" lon="10.513814618578335"><ele>15.0</ele><time>2026-04-17T13:11:31Z</time></trkpt><trkpt lat="43.81104555456129" lon="10.513985125515454"><ele>15.0</ele><time>2026-04-17T13:11:32Z</time></trkpt><trkpt lat="43.81099955212427" lon="10.514131827635083"><ele>15.0</ele><time>2026-04-17T13:11:33Z</time></trkpt><trkpt lat="43.810961567971574" lon="10.514271607874296"><ele>15.0</ele><time>2026-04-17T13:11:34Z</time></trkpt><trkpt lat="43.81093189842991" lon="10.514402415972539"><ele>15.0</ele><time>2026-04-17T13:11:35Z</time></trkpt><trkpt lat="43.81089126711346" lon="10.514544212619017"><ele>15.0</ele><time>2026-04-17T13:11:36Z</time></trkpt><trkpt lat="43.81085437735687" lon="10.514681680884118"><ele>15.2</ele><time>2026-04-17T13:11:37Z</time></trkpt><trkpt lat="43.81081750249779" lon="10.514823410959117"><ele>15.4</ele><time>2026-04-17T13:11:38Z</time></trkpt><trkpt lat="43.81078069791251" lon="10.514963978899653"><ele>15.600000000000001</ele><time>2026-04-17T13:11:39Z</time></trkpt><trkpt lat="43.810747962775494" lon="10.51507492612767"><ele>15.8</ele><time>2026-04-17T13:11:40Z</time></trkpt><trkpt lat="43.810723676199515" lon="10.51515705754991"><ele>16.0</ele><time>2026-04-17T13:11:41Z</time></trkpt><trkpt lat="43.81068752801841" lon="10.515288159095766"><ele>15.600000000000001</ele><time>2026-04-17T13:11:43Z</time></trkpt><trkpt lat="43.81063758087899" lon="10.515450163233327"><ele>15.200000000000001</ele><time>2026-04-17T13:11:45Z</time></trkpt><trkpt lat="43.81061090258227" lon="10.515534644828374"><ele>14.799999999999999</ele><time>2026-04-17T13:11:46Z</time></trkpt><trkpt lat="43.810568258042785" lon="10.515685129501398"><ele>14.399999999999999</ele><time>2026-04-17T13:11:48Z</time></trkpt><trkpt lat="43.81054119842304" lon="10.515824949783301"><ele>14.0</ele><time>2026-04-17T13:11:50Z</time></trkpt><trkpt lat="43.81052274024209" lon="10.515914105938649"><ele>14.0</ele><time>2026-04-17T13:11:51Z</time></trkpt><trkpt lat="43.810497866192826" lon="10.51602612778728"><ele>13.999999999999998</ele><time>2026-04-17T13:11:52Z</time></trkpt><trkpt lat="43.81046932182983" lon="10.516132976626805"><ele>13.999999999999998</ele><time>2026-04-17T13:11:53Z</time></trkpt><trkpt lat="43.81043717001562" lon="10.516246743336715"><ele>14.0</ele><time>2026-04-17T13:11:54Z</time></trkpt><trkpt lat="43.81040511457878" lon="10.516384732448756"><ele>14.0</ele><time>2026-04-17T13:11:55Z</time></trkpt><trkpt lat="43.81036345677116" lon="10.516546278723531"><ele>14.0</ele><time>2026-04-17T13:11:56Z</time></trkpt><trkpt lat="43.810314906105965" lon="10.516713067786783"><ele>14.0</ele><time>2026-04-17T13:11:57Z</time></trkpt><trkpt lat="43.81027023565295" lon="10.516877145705443"><ele>14.0</ele><time>2026-04-17T13:11:58Z</time></trkpt><trkpt lat="43.81022623284624" lon="10.517034422439423"><ele>14.0</ele><time>2026-04-17T13:11:59Z</time></trkpt><trkpt lat="43.810175310560425" lon="10.517202951072475"><ele>14.25</ele><time>2026-04-17T13:12:00Z</time></trkpt><trkpt lat="43.81013128819989" lon="10.517386315479898"><ele>14.5</ele><time>2026-04-17T13:12:01Z</time></trkpt><trkpt lat="43.810086507438996" lon="10.517559916222735"><ele>14.75</ele><time>2026-04-17T13:12:02Z</time></trkpt><trkpt lat="43.81004782413278" lon="10.517743974454742"><ele>15.0</ele><time>2026-04-17T13:12:03Z</time></trkpt><trkpt lat="43.81001947347223" lon="10.517940468872398"><ele>15.0</ele><time>2026-04-17T13:12:04Z</time></trkpt><trkpt lat="43.809998568884595" lon="10.51814501309606"><ele>15.0</ele><time>2026-04-17T13:12:05Z</time></trkpt><trkpt lat="43.80998721390802" lon="10.518342153176489"><ele>15.0</ele><time>2026-04-17T13:12:06Z</time></trkpt><trkpt lat="43.809987611167664" lon="10.518549977210048"><ele>15.0</ele><time>2026-04-17T13:12:07Z</time></trkpt><trkpt lat="43.809995607177285" lon="10.518755271774383"><ele>14.25</ele><time>2026-04-17T13:12:08Z</time></trkpt><trkpt lat="43.810017543745175" lon="10.518947849125759"><ele>13.5</ele><time>2026-04-17T13:12:09Z</time></trkpt><trkpt lat="43.81005158353004" lon="10.5191410007329"><ele>12.75</ele><time>2026-04-17T13:12:10Z</time></trkpt><trkpt lat="43.81008684019027" lon="10.519318118288238"><ele>12.0</ele><time>2026-04-17T13:12:11Z</time></trkpt><trkpt lat="43.810125967058795" lon="10.519475597592427"><ele>11.75</ele><time>2026-04-17T13:12:12Z</time></trkpt><trkpt lat="43.81016324239007" lon="10.519624916714719"><ele>11.5</ele><time>2026-04-17T13:12:13Z</time></trkpt><trkpt lat="43.81019644878846" lon="10.519781921325006"><ele>11.25</ele><time>2026-04-17T13:12:14Z</time></trkpt><trkpt lat="43.81021544492874" lon="10.519950631749335"><ele>11.0</ele><time>2026-04-17T13:12:15Z</time></trkpt><trkpt lat="43.81020965196894" lon="10.520150220613088"><ele>11.0</ele><time>2026-04-17T13:12:16Z</time></trkpt><trkpt lat="43.810190362329195" lon="10.520351509390311"><ele>11.0</ele><time>2026-04-17T13:12:17Z</time></trkpt><trkpt lat="43.810150192665205" lon="10.52054341080801"><ele>11.0</ele><time>2026-04-17T13:12:18Z</time></trkpt><trkpt lat="43.81008300904434" lon="10.520738824659785"><ele>11.0</ele><time>2026-04-17T13:12:19Z</time></trkpt><trkpt lat="43.80999357397015" lon="10.520931119370166"><ele>11.666666666666666</ele><time>2026-04-17T13:12:20Z</time></trkpt><trkpt lat="43.80987381078296" lon="10.521124614602627"><ele>12.333333333333332</ele><time>2026-04-17T13:12:21Z</time></trkpt><trkpt lat="43.80975883589515" lon="10.521276735555503"><ele>13.0</ele><time>2026-04-17T13:12:22Z</time></trkpt><trkpt lat="43.8096480833525" lon="10.521429095644656"><ele>13.0</ele><time>2026-04-17T13:12:23Z</time></trkpt><trkpt lat="43.80955373835934" lon="10.521615966977791"><ele>13.0</ele><time>2026-04-17T13:12:24Z</time></trkpt><trkpt lat="43.80946272974548" lon="10.52182952101043"><ele>13.0</ele><time>2026-04-17T13:12:25Z</time></trkpt><trkpt lat="43.809379948379004" lon="10.522048900178774"><ele>14.0</ele><time>2026-04-17T13:12:26Z</time></trkpt><trkpt lat="43.80931371756271" lon="10.522252855937927"><ele>15.0</ele><time>2026-04-17T13:12:27Z</time></trkpt><trkpt lat="43.80924789470135" lon="10.522464571834963"><ele>16.0</ele><time>2026-04-17T13:12:28Z</time></trkpt><trkpt lat="43.80918159454806" lon="10.522674379823663"><ele>16.0</ele><time>2026-04-17T13:12:29Z</time></trkpt><trkpt lat="43.80910999084199" lon="10.522893117094398"><ele>16.0</ele><time>2026-04-17T13:12:30Z</time></trkpt><trkpt lat="43.80903706864592" lon="10.523113482010233"><ele>16.0</ele><time>2026-04-17T13:12:31Z</time></trkpt><trkpt lat="43.80896458781911" lon="10.523329144156765"><ele>16.0</ele><time>2026-04-17T13:12:32Z</time></trkpt><trkpt lat="43.8088906443673" lon="10.523563989656505"><ele>16.0</ele><time>2026-04-17T13:12:33Z</time></trkpt><trkpt lat="43.808799568157404" lon="10.523822266610583"><ele>16.0</ele><time>2026-04-17T13:12:34Z</time></trkpt><trkpt lat="43.80870469682131" lon="10.524104754281908"><ele>16.0</ele><time>2026-04-17T13:12:35Z</time></trkpt><trkpt lat="43.80862712007956" lon="10.524383734196123"><ele>16.0</ele><time>2026-04-17T13:12:36Z</time></trkpt><trkpt lat="43.808530096946534" lon="10.524621670359224"><ele>16.0</ele><time>2026-04-17T13:12:37Z</time></trkpt><trkpt lat="43.80844722300706" lon="10.524844988958947"><ele>16.0</ele><time>2026-04-17T13:12:38Z</time></trkpt><trkpt lat="43.808376383855524" lon="10.525072554704943"><ele>16.0</ele><time>2026-04-17T13:12:39Z</time></trkpt><trkpt lat="43.80830814598399" lon="10.525300760864365"><ele>16.0</ele><time>2026-04-17T13:12:40Z</time></trkpt><trkpt lat="43.808233059317764" lon="10.525527882887735"><ele>16.333333333333332</ele><time>2026-04-17T13:12:41Z</time></trkpt><trkpt lat="43.808156459744175" lon="10.525748921070461"><ele>16.666666666666668</ele><time>2026-04-17T13:12:42Z</time></trkpt><trkpt lat="43.80808537036932" lon="10.525958671056006"><ele>17.0</ele><time>2026-04-17T13:12:43Z</time></trkpt><trkpt lat="43.808018751447506" lon="10.526158894216653"><ele>17.0</ele><time>2026-04-17T13:12:44Z</time></trkpt><trkpt lat="43.80794540715823" lon="10.526365720201234"><ele>17.0</ele><time>2026-04-17T13:12:45Z</time></trkpt><trkpt lat="43.80787384297156" lon="10.52658414075998"><ele>17.0</ele><time>2026-04-17T13:12:46Z</time></trkpt><trkpt lat="43.80780060080837" lon="10.526802641917609"><ele>17.0</ele><time>2026-04-17T13:12:47Z</time></trkpt><trkpt lat="43.807732374631165" lon="10.527006717654238"><ele>17.0</ele><time>2026-04-17T13:12:48Z</time></trkpt><trkpt lat="43.807666331382194" lon="10.527207710776946"><ele>17.0</ele><time>2026-04-17T13:12:49Z</time></trkpt><trkpt lat="43.80760136137781" lon="10.527404685605667"><ele>17.5</ele><time>2026-04-17T13:12:50Z</time></trkpt><trkpt lat="43.80753505433864" lon="10.527600536961316"><ele>18.0</ele><time>2026-04-17T13:12:51Z</time></trkpt><trkpt lat="43.807472140551354" lon="10.527789434743603"><ele>18.5</ele><time>2026-04-17T13:12:52Z</time></trkpt><trkpt lat="43.807414381666476" lon="10.52796460554709"><ele>19.0</ele><time>2026-04-17T13:12:53Z</time></trkpt><trkpt lat="43.807356903034" lon="10.52813494027024"><ele>19.0</ele><time>2026-04-17T13:12:54Z</time></trkpt><trkpt lat="43.80727593826281" lon="10.52830776406091"><ele>19.0</ele><time>2026-04-17T13:12:55Z</time></trkpt><trkpt lat="43.807171689860525" lon="10.528482549689992"><ele>19.0</ele><time>2026-04-17T13:12:56Z</time></trkpt><trkpt lat="43.80706837491464" lon="10.528626565414159"><ele>19.0</ele><time>2026-04-17T13:12:57Z</time></trkpt><trkpt lat="43.80696619754151" lon="10.528750859763822"><ele>19.0</ele><time>2026-04-17T13:12:58Z</time></trkpt><trkpt lat="43.806847029287425" lon="10.528874273181897"><ele>19.0</ele><time>2026-04-17T13:12:59Z</time></trkpt><trkpt lat="43.806707516908745" lon="10.529000672767754"><ele>20.5</ele><time>2026-04-17T13:13:00Z</time></trkpt><trkpt lat="43.80656765730476" lon="10.529110493095688"><ele>22.0</ele><time>2026-04-17T13:13:01Z</time></trkpt><trkpt lat="43.806449107992734" lon="10.529201846452374"><ele>23.5</ele><time>2026-04-17T13:13:02Z</time></trkpt><trkpt lat="43.806330618003365" lon="10.529301591651187"><ele>25.0</ele><time>2026-04-17T13:13:03Z</time></trkpt><trkpt lat="43.80620489341691" lon="10.529408130941386"><ele>25.0</ele><time>2026-04-17T13:13:04Z</time></trkpt><trkpt lat="43.80607281956462" lon="10.52951753138975"><ele>25.0</ele><time>2026-04-17T13:13:05Z</time></trkpt><trkpt lat="43.80594368340094" lon="10.529620656531534"><ele>25.0</ele><time>2026-04-17T13:13:06Z</time></trkpt><trkpt lat="43.80582386955558" lon="10.529718462981693"><ele>25.0</ele><time>2026-04-17T13:13:07Z</time></trkpt><trkpt lat="43.80570430319113" lon="10.529829351095165"><ele>23.75</ele><time>2026-04-17T13:13:08Z</time></trkpt><trkpt lat="43.80559281620317" lon="10.529959395231165"><ele>22.5</ele><time>2026-04-17T13:13:09Z</time></trkpt><trkpt lat="43.80549334692387" lon="10.530090373829207"><ele>21.25</ele><time>2026-04-17T13:13:10Z</time></trkpt><trkpt lat="43.80539836796905" lon="10.530231195564527"><ele>20.0</ele><time>2026-04-17T13:13:11Z</time></trkpt><trkpt lat="43.805310980953706" lon="10.530394814898811"><ele>20.25</ele><time>2026-04-17T13:13:12Z</time></trkpt><trkpt lat="43.80523461219284" lon="10.530571372996741"><ele>20.5</ele><time>2026-04-17T13:13:13Z</time></trkpt><trkpt lat="43.80517683644818" lon="10.530743475165261"><ele>20.75</ele><time>2026-04-17T13:13:14Z</time></trkpt><trkpt lat="43.8051195471453" lon="10.53092314595295"><ele>21.0</ele><time>2026-04-17T13:13:15Z</time></trkpt><trkpt lat="43.80506575771583" lon="10.531115093785715"><ele>21.0</ele><time>2026-04-17T13:13:16Z</time></trkpt><trkpt lat="43.805016722895466" lon="10.531318951793017"><ele>21.0</ele><time>2026-04-17T13:13:17Z</time></trkpt><trkpt lat="43.80497197324061" lon="10.531507955104868"><ele>21.0</ele><time>2026-04-17T13:13:18Z</time></trkpt><trkpt lat="43.804931301657376" lon="10.531693734316208"><ele>21.0</ele><time>2026-04-17T13:13:19Z</time></trkpt><trkpt lat="43.80489693553497" lon="10.531882701066447"><ele>20.75</ele><time>2026-04-17T13:13:20Z</time></trkpt><trkpt lat="43.804869474042675" lon="10.53207789179708"><ele>20.5</ele><time>2026-04-17T13:13:21Z</time></trkpt><trkpt lat="43.804849378979384" lon="10.532277989904287"><ele>20.25</ele><time>2026-04-17T13:13:22Z</time></trkpt><trkpt lat="43.80483383621257" lon="10.532479678832503"><ele>20.0</ele><time>2026-04-17T13:13:23Z</time></trkpt><trkpt lat="43.80482377121382" lon="10.53267611278462"><ele>20.0</ele><time>2026-04-17T13:13:24Z</time></trkpt><trkpt lat="43.80481669719534" lon="10.532872722173842"><ele>20.0</ele><time>2026-04-17T13:13:25Z</time></trkpt><trkpt lat="43.804817492928" lon="10.533069743177027"><ele>20.0</ele><time>2026-04-17T13:13:26Z</time></trkpt><trkpt lat="43.80482646485515" lon="10.533271017648465"><ele>20.0</ele><time>2026-04-17T13:13:27Z</time></trkpt><trkpt lat="43.80483832269554" lon="10.533470750910647"><ele>19.666666666666668</ele><time>2026-04-17T13:13:28Z</time></trkpt><trkpt lat="43.804853129450876" lon="10.53367754396143"><ele>19.333333333333332</ele><time>2026-04-17T13:13:29Z</time></trkpt><trkpt lat="43.80487677263403" lon="10.53389870597793"><ele>19.0</ele><time>2026-04-17T13:13:30Z</time></trkpt><trkpt lat="43.80489738854653" lon="10.534157581657476"><ele>19.0</ele><time>2026-04-17T13:13:31Z</time></trkpt><trkpt lat="43.804944105595276" lon="10.534447451875533"><ele>19.0</ele><time>2026-04-17T13:13:32Z</time></trkpt><trkpt lat="43.80502046046255" lon="10.534749914207902"><ele>19.0</ele><time>2026-04-17T13:13:33Z</time></trkpt><trkpt lat="43.80508133451394" lon="10.535051374574554"><ele>19.0</ele><time>2026-04-17T13:13:34Z</time></trkpt><trkpt lat="43.80514754370286" lon="10.535360767288859"><ele>19.0</ele><time>2026-04-17T13:13:35Z</time></trkpt><trkpt lat="43.80522110240461" lon="10.535685241906458"><ele>17.5</ele><time>2026-04-17T13:13:36Z</time></trkpt><trkpt lat="43.8052992034919" lon="10.536007521248745"><ele>16.0</ele><time>2026-04-17T13:13:37Z</time></trkpt><trkpt lat="43.8053707418929" lon="10.536317570594171"><ele>16.0</ele><time>2026-04-17T13:13:38Z</time></trkpt><trkpt lat="43.80543956964708" lon="10.536624434525192"><ele>16.0</ele><time>2026-04-17T13:13:39Z</time></trkpt><trkpt lat="43.80550851122141" lon="10.536925013466261"><ele>15.5</ele><time>2026-04-17T13:13:40Z</time></trkpt><trkpt lat="43.8055791925758" lon="10.537239273772734"><ele>15.0</ele><time>2026-04-17T13:13:41Z</time></trkpt><trkpt lat="43.80565492007056" lon="10.53756738346366"><ele>14.5</ele><time>2026-04-17T13:13:42Z</time></trkpt><trkpt lat="43.805735014678206" lon="10.537900014817954"><ele>14.0</ele><time>2026-04-17T13:13:43Z</time></trkpt><trkpt lat="43.80581615076746" lon="10.538252380371048"><ele>14.0</ele><time>2026-04-17T13:13:44Z</time></trkpt><trkpt lat="43.80589753261371" lon="10.538610370267202"><ele>14.0</ele><time>2026-04-17T13:13:45Z</time></trkpt><trkpt lat="43.80598041596943" lon="10.538968682218897"><ele>14.0</ele><time>2026-04-17T13:13:46Z</time></trkpt><trkpt lat="43.80606072118404" lon="10.539314996845608"><ele>14.0</ele><time>2026-04-17T13:13:47Z</time></trkpt><trkpt lat="43.80613588092928" lon="10.539638656401785"><ele>13.5</ele><time>2026-04-17T13:13:48Z</time></trkpt><trkpt lat="43.806211258411494" lon="10.539956691357265"><ele>13.0</ele><time>2026-04-17T13:13:49Z</time></trkpt><trkpt lat="43.80628809158976" lon="10.540299368153585"><ele>13.0</ele><time>2026-04-17T13:13:50Z</time></trkpt><trkpt lat="43.806353641989915" lon="10.540603409768124"><ele>13.0</ele><time>2026-04-17T13:13:51Z</time></trkpt><trkpt lat="43.80643610268525" lon="10.540912436315457"><ele>13.0</ele><time>2026-04-17T13:13:52Z</time></trkpt><trkpt lat="43.80649738611794" lon="10.541157583582013"><ele>13.0</ele><time>2026-04-17T13:13:53Z</time></trkpt><trkpt lat="43.806553517943684" lon="10.54139081744731"><ele>13.0</ele><time>2026-04-17T13:13:54Z</time></trkpt><trkpt lat="43.806619050688134" lon="10.541668893764543"><ele>13.5</ele><time>2026-04-17T13:13:55Z</time></trkpt><trkpt lat="43.806683819992124" lon="10.541967875605943"><ele>14.0</ele><time>2026-04-17T13:13:56Z</time></trkpt><trkpt lat="43.806751255249985" lon="10.542272850058179"><ele>13.333333333333334</ele><time>2026-04-17T13:13:57Z</time></trkpt><trkpt lat="43.806815438023776" lon="10.542571053611235"><ele>12.666666666666668</ele><time>2026-04-17T13:13:58Z</time></trkpt><trkpt lat="43.80687954061836" lon="10.542867751542355"><ele>12.0</ele><time>2026-04-17T13:13:59Z</time></trkpt><trkpt lat="43.80694915278004" lon="10.54316459383025"><ele>11.666666666666666</ele><time>2026-04-17T13:14:00Z</time></trkpt><trkpt lat="43.8070199608173" lon="10.543456153588755"><ele>11.333333333333332</ele><time>2026-04-17T13:14:01Z</time></trkpt><trkpt lat="43.807087735777934" lon="10.54375683000954"><ele>11.0</ele><time>2026-04-17T13:14:02Z</time></trkpt><trkpt lat="43.80716275953143" lon="10.544061042941342"><ele>11.0</ele><time>2026-04-17T13:14:03Z</time></trkpt><trkpt lat="43.8072327442237" lon="10.544359886714938"><ele>11.0</ele><time>2026-04-17T13:14:04Z</time></trkpt><trkpt lat="43.80730445073752" lon="10.544667762795473"><ele>11.0</ele><time>2026-04-17T13:14:05Z</time></trkpt><trkpt lat="43.8073780229758" lon="10.544976442462824"><ele>11.0</ele><time>2026-04-17T13:14:06Z</time></trkpt><trkpt lat="43.807453901745376" lon="10.545293206597297"><ele>12.333333333333332</ele><time>2026-04-17T13:14:07Z</time></trkpt><trkpt lat="43.80752060117872" lon="10.54558330278525"><ele>13.666666666666666</ele><time>2026-04-17T13:14:08Z</time></trkpt><trkpt lat="43.80758012356435" lon="10.545835718739728"><ele>15.0</ele><time>2026-04-17T13:14:09Z</time></trkpt><trkpt lat="43.807636850464334" lon="10.54607672992311"><ele>14.333333333333332</ele><time>2026-04-17T13:14:10Z</time></trkpt><trkpt lat="43.80769055496375" lon="10.546304682141066"><ele>13.666666666666666</ele><time>2026-04-17T13:14:11Z</time></trkpt><trkpt lat="43.807743226328405" lon="10.546521217270335"><ele>13.0</ele><time>2026-04-17T13:14:12Z</time></trkpt><trkpt lat="43.80779349300665" lon="10.546739173672698"><ele>13.0</ele><time>2026-04-17T13:14:13Z</time></trkpt><trkpt lat="43.8078398158144" lon="10.546969290639298"><ele>13.0</ele><time>2026-04-17T13:14:14Z</time></trkpt><trkpt lat="43.80786828328075" lon="10.547231427510793"><ele>13.0</ele><time>2026-04-17T13:14:15Z</time></trkpt><trkpt lat="43.80788742332059" lon="10.547521531521168"><ele>12.666666666666666</ele><time>2026-04-17T13:14:16Z</time></trkpt><trkpt lat="43.80789756372194" lon="10.547826459705117"><ele>12.333333333333332</ele><time>2026-04-17T13:14:17Z</time></trkpt><trkpt lat="43.807907930697006" lon="10.548135009251036"><ele>12.0</ele><time>2026-04-17T13:14:18Z</time></trkpt><trkpt lat="43.807920290101514" lon="10.548453384997766"><ele>12.5</ele><time>2026-04-17T13:14:19Z</time></trkpt><trkpt lat="43.807934112962286" lon="10.548782023798891"><ele>13.0</ele><time>2026-04-17T13:14:20Z</time></trkpt><trkpt lat="43.807939648656514" lon="10.549121104669954"><ele>13.0</ele><time>2026-04-17T13:14:21Z</time></trkpt><trkpt lat="43.80794570266485" lon="10.549428101079261"><ele>13.0</ele><time>2026-04-17T13:14:22Z</time></trkpt><trkpt lat="43.80795571067489" lon="10.54971414526008"><ele>13.0</ele><time>2026-04-17T13:14:23Z</time></trkpt><trkpt lat="43.80796990858091" lon="10.549998094251027"><ele>13.333333333333332</ele><time>2026-04-17T13:14:24Z</time></trkpt><trkpt lat="43.80798089115939" lon="10.55026256586338"><ele>13.666666666666668</ele><time>2026-04-17T13:14:25Z</time></trkpt><trkpt lat="43.80798996539994" lon="10.550522846149798"><ele>14.0</ele><time>2026-04-17T13:14:26Z</time></trkpt><trkpt lat="43.80798574983472" lon="10.550803606628017"><ele>14.666666666666668</ele><time>2026-04-17T13:14:27Z</time></trkpt><trkpt lat="43.80797879131856" lon="10.551098898743206"><ele>15.333333333333332</ele><time>2026-04-17T13:14:28Z</time></trkpt><trkpt lat="43.80796066616993" lon="10.551403947251908"><ele>16.0</ele><time>2026-04-17T13:14:29Z</time></trkpt><trkpt lat="43.807936033518224" lon="10.551701681839992"><ele>16.333333333333332</ele><time>2026-04-17T13:14:30Z</time></trkpt><trkpt lat="43.80790388264887" lon="10.551976356622243"><ele>16.666666666666668</ele><time>2026-04-17T13:14:31Z</time></trkpt><trkpt lat="43.80786962842039" lon="10.552243830828301"><ele>17.0</ele><time>2026-04-17T13:14:32Z</time></trkpt><trkpt lat="43.80783784422258" lon="10.552505963063838"><ele>17.0</ele><time>2026-04-17T13:14:33Z</time></trkpt><trkpt lat="43.80780945499857" lon="10.552742889261749"><ele>17.0</ele><time>2026-04-17T13:14:34Z</time></trkpt><trkpt lat="43.807782486630586" lon="10.552949840510252"><ele>17.0</ele><time>2026-04-17T13:14:35Z</time></trkpt><trkpt lat="43.80776005289759" lon="10.553151914562255"><ele>17.0</ele><time>2026-04-17T13:14:36Z</time></trkpt><trkpt lat="43.8077214103426" lon="10.553355078897196"><ele>17.0</ele><time>2026-04-17T13:14:37Z</time></trkpt><trkpt lat="43.807662428016876" lon="10.553569482865578"><ele>17.0</ele><time>2026-04-17T13:14:38Z</time></trkpt><trkpt lat="43.80758956219677" lon="10.553773213364567"><ele>18.25</ele><time>2026-04-17T13:14:39Z</time></trkpt><trkpt lat="43.807518653086895" lon="10.553962206203359"><ele>19.5</ele><time>2026-04-17T13:14:40Z</time></trkpt><trkpt lat="43.80744605473688" lon="10.55413739942953"><ele>20.75</ele><time>2026-04-17T13:14:41Z</time></trkpt><trkpt lat="43.8073791068907" lon="10.554285049571995"><ele>22.0</ele><time>2026-04-17T13:14:42Z</time></trkpt><trkpt lat="43.807312514535234" lon="10.554414431317642"><ele>22.0</ele><time>2026-04-17T13:14:43Z</time></trkpt><trkpt lat="43.807240027397114" lon="10.554533369885094"><ele>22.0</ele><time>2026-04-17T13:14:44Z</time></trkpt><trkpt lat="43.80714899087211" lon="10.554648328516107"><ele>22.0</ele><time>2026-04-17T13:14:45Z</time></trkpt><trkpt lat="43.80705371737026" lon="10.55473973837438"><ele>22.0</ele><time>2026-04-17T13:14:46Z</time></trkpt><trkpt lat="43.806930538127204" lon="10.554818270480956"><ele>21.333333333333332</ele><time>2026-04-17T13:14:47Z</time></trkpt><trkpt lat="43.80677158374578" lon="10.554870961911961"><ele>20.666666666666668</ele><time>2026-04-17T13:14:48Z</time></trkpt><trkpt lat="43.806591795688014" lon="10.554904851664691"><ele>20.0</ele><time>2026-04-17T13:14:49Z</time></trkpt><trkpt lat="43.806429114523" lon="10.554935781368943"><ele>20.0</ele><time>2026-04-17T13:14:50Z</time></trkpt><trkpt lat="43.80628689444173" lon="10.554973473501027"><ele>20.0</ele><time>2026-04-17T13:14:51Z</time></trkpt><trkpt lat="43.80614951682319" lon="10.555018866758932"><ele>20.0</ele><time>2026-04-17T13:14:52Z</time></trkpt><trkpt lat="43.806002919042285" lon="10.555095332516728"><ele>20.0</ele><time>2026-04-17T13:14:53Z</time></trkpt><trkpt lat="43.80585336291289" lon="10.555215288081794"><ele>20.333333333333336</ele><time>2026-04-17T13:14:54Z</time></trkpt><trkpt lat="43.80569442261182" lon="10.555366844038806"><ele>20.666666666666668</ele><time>2026-04-17T13:14:55Z</time></trkpt><trkpt lat="43.805540137557124" lon="10.555521615792179"><ele>21.0</ele><time>2026-04-17T13:14:56Z</time></trkpt><trkpt lat="43.80539715548357" lon="10.555650700667485"><ele>21.0</ele><time>2026-04-17T13:14:57Z</time></trkpt><trkpt lat="43.80526507480029" lon="10.555761341351982"><ele>21.0</ele><time>2026-04-17T13:14:58Z</time></trkpt><trkpt lat="43.80513658617967" lon="10.555869958057087"><ele>21.0</ele><time>2026-04-17T13:14:59Z</time></trkpt><trkpt lat="43.805013274522445" lon="10.55597962527049"><ele>20.666666666666668</ele><time>2026-04-17T13:15:00Z</time></trkpt><trkpt lat="43.804888967063405" lon="10.556094014269986"><ele>20.333333333333336</ele><time>2026-04-17T13:15:01Z</time></trkpt><trkpt lat="43.80476228605353" lon="10.556210512262473"><ele>20.0</ele><time>2026-04-17T13:15:02Z</time></trkpt><trkpt lat="43.80462858582553" lon="10.556329301870488"><ele>20.0</ele><time>2026-04-17T13:15:03Z</time></trkpt><trkpt lat="43.80450231260488" lon="10.55644305714053"><ele>20.0</ele><time>2026-04-17T13:15:04Z</time></trkpt><trkpt lat="43.804404391995604" lon="10.556527875685296"><ele>20.0</ele><time>2026-04-17T13:15:05Z</time></trkpt><trkpt lat="43.80432982008535" lon="10.556587313085341"><ele>20.0</ele><time>2026-04-17T13:15:06Z</time></trkpt><trkpt lat="43.804257476309054" lon="10.556652570181528"><ele>20.0</ele><time>2026-04-17T13:15:07Z</time></trkpt><trkpt lat="43.804169397352446" lon="10.55673376682418"><ele>21.25</ele><time>2026-04-17T13:15:08Z</time></trkpt><trkpt lat="43.80406763689345" lon="10.556832217019496"><ele>22.5</ele><time>2026-04-17T13:15:09Z</time></trkpt><trkpt lat="43.80396503310131" lon="10.556952084991"><ele>23.75</ele><time>2026-04-17T13:15:10Z</time></trkpt><trkpt lat="43.80387158495698" lon="10.55710229136181"><ele>25.0</ele><time>2026-04-17T13:15:11Z</time></trkpt><trkpt lat="43.803785927855785" lon="10.557277168084417"><ele>25.0</ele><time>2026-04-17T13:15:12Z</time></trkpt><trkpt lat="43.803707855162884" lon="10.557478561944992"><ele>25.0</ele><time>2026-04-17T13:15:13Z</time></trkpt><trkpt lat="43.80363840279476" lon="10.557714396034"><ele>25.0</ele><time>2026-04-17T13:15:14Z</time></trkpt><trkpt lat="43.80356973553942" lon="10.557966270153234"><ele>25.666666666666668</ele><time>2026-04-17T13:15:15Z</time></trkpt><trkpt lat="43.80349810758061" lon="10.558226342781461"><ele>26.333333333333336</ele><time>2026-04-17T13:15:16Z</time></trkpt><trkpt lat="43.80342592401356" lon="10.558467371069032"><ele>27.0</ele><time>2026-04-17T13:15:17Z</time></trkpt><trkpt lat="43.80334477553314" lon="10.558737913000902"><ele>24.5</ele><time>2026-04-17T13:15:18Z</time></trkpt><trkpt lat="43.80326116168811" lon="10.559030867808826"><ele>22.0</ele><time>2026-04-17T13:15:19Z</time></trkpt><trkpt lat="43.80317429326151" lon="10.559339610710621"><ele>21.5</ele><time>2026-04-17T13:15:20Z</time></trkpt><trkpt lat="43.803091206914" lon="10.559637036840963"><ele>21.0</ele><time>2026-04-17T13:15:21Z</time></trkpt><trkpt lat="43.803009474768736" lon="10.55992585630268"><ele>21.0</ele><time>2026-04-17T13:15:22Z</time></trkpt><trkpt lat="43.802922124412994" lon="10.560221887768986"><ele>21.0</ele><time>2026-04-17T13:15:23Z</time></trkpt><trkpt lat="43.80283129230876" lon="10.560527400255626"><ele>21.333333333333332</ele><time>2026-04-17T13:15:24Z</time></trkpt><trkpt lat="43.80274711089714" lon="10.560814665436874"><ele>21.666666666666664</ele><time>2026-04-17T13:15:25Z</time></trkpt><trkpt lat="43.80266739945776" lon="10.561083559306374"><ele>22.0</ele><time>2026-04-17T13:15:26Z</time></trkpt><trkpt lat="43.80258381020689" lon="10.561377492829473"><ele>22.0</ele><time>2026-04-17T13:15:27Z</time></trkpt><trkpt lat="43.802495609876104" lon="10.561682871128609"><ele>22.0</ele><time>2026-04-17T13:15:28Z</time></trkpt><trkpt lat="43.80240732600179" lon="10.56198728973802"><ele>21.666666666666664</ele><time>2026-04-17T13:15:29Z</time></trkpt><trkpt lat="43.80232425838361" lon="10.562268787847607"><ele>21.333333333333332</ele><time>2026-04-17T13:15:30Z</time></trkpt><trkpt lat="43.80224651157408" lon="10.562537460949745"><ele>21.0</ele><time>2026-04-17T13:15:31Z</time></trkpt><trkpt lat="43.80217004775553" lon="10.562805804336522"><ele>21.333333333333332</ele><time>2026-04-17T13:15:32Z</time></trkpt><trkpt lat="43.80209940522221" lon="10.563050677419131"><ele>21.666666666666664</ele><time>2026-04-17T13:15:33Z</time></trkpt><trkpt lat="43.802026895096205" lon="10.563296688327489"><ele>22.0</ele><time>2026-04-17T13:15:34Z</time></trkpt><trkpt lat="43.801953732285845" lon="10.56356224623508"><ele>22.0</ele><time>2026-04-17T13:15:35Z</time></trkpt><trkpt lat="43.8018871111532" lon="10.56381080921098"><ele>22.0</ele><time>2026-04-17T13:15:36Z</time></trkpt><trkpt lat="43.80181847357024" lon="10.564031203872878"><ele>22.0</ele><time>2026-04-17T13:15:37Z</time></trkpt><trkpt lat="43.80175989653309" lon="10.564227284060491"><ele>22.0</ele><time>2026-04-17T13:15:38Z</time></trkpt><trkpt lat="43.80169722719216" lon="10.564431241199415"><ele>22.0</ele><time>2026-04-17T13:15:39Z</time></trkpt><trkpt lat="43.80164059928976" lon="10.56463736355012"><ele>22.0</ele><time>2026-04-17T13:15:40Z</time></trkpt><trkpt lat="43.80158525993725" lon="10.564830840483308"><ele>21.75</ele><time>2026-04-17T13:15:41Z</time></trkpt><trkpt lat="43.801531119892424" lon="10.565014638060457"><ele>21.5</ele><time>2026-04-17T13:15:42Z</time></trkpt><trkpt lat="43.80148087501513" lon="10.56518819421553"><ele>21.25</ele><time>2026-04-17T13:15:43Z</time></trkpt><trkpt lat="43.80143315562705" lon="10.565341885950206"><ele>21.0</ele><time>2026-04-17T13:15:44Z</time></trkpt><trkpt lat="43.80139138914991" lon="10.56548576846209"><ele>20.8</ele><time>2026-04-17T13:15:45Z</time></trkpt><trkpt lat="43.80134734265682" lon="10.565631013822049"><ele>20.6</ele><time>2026-04-17T13:15:46Z</time></trkpt><trkpt lat="43.80130675234591" lon="10.565774984097022"><ele>20.4</ele><time>2026-04-17T13:15:47Z</time></trkpt><trkpt lat="43.80126849272664" lon="10.565902576461644"><ele>20.2</ele><time>2026-04-17T13:15:48Z</time></trkpt><trkpt lat="43.80123513482297" lon="10.566012836376231"><ele>20.0</ele><time>2026-04-17T13:15:49Z</time></trkpt><trkpt lat="43.80120729343021" lon="10.56610614710614"><ele>20.2</ele><time>2026-04-17T13:15:50Z</time></trkpt><trkpt lat="43.80116036219089" lon="10.56625685680669"><ele>20.4</ele><time>2026-04-17T13:15:52Z</time></trkpt><trkpt lat="43.80109967489593" lon="10.56636856267679"><ele>20.6</ele><time>2026-04-17T13:15:54Z</time></trkpt><trkpt lat="43.80101379077179" lon="10.566442708530868"><ele>20.8</ele><time>2026-04-17T13:15:56Z</time></trkpt><trkpt lat="43.80095214452111" lon="10.566464904266267"><ele>21.0</ele><time>2026-04-17T13:15:57Z</time></trkpt><trkpt lat="43.80083369636896" lon="10.566496658965395"><ele>21.4</ele><time>2026-04-17T13:15:59Z</time></trkpt><trkpt lat="43.80070722943027" lon="10.566562931678195"><ele>21.8</ele><time>2026-04-17T13:16:01Z</time></trkpt><trkpt lat="43.80062774388099" lon="10.56660097394864"><ele>22.2</ele><time>2026-04-17T13:16:02Z</time></trkpt><trkpt lat="43.800550720025974" lon="10.566680591994125"><ele>22.599999999999998</ele><time>2026-04-17T13:16:03Z</time></trkpt><trkpt lat="43.800488174738675" lon="10.566813212064512"><ele>23.0</ele><time>2026-04-17T13:16:04Z</time></trkpt><trkpt lat="43.80044811399162" lon="10.566969301783086"><ele>23.0</ele><time>2026-04-17T13:16:05Z</time></trkpt><trkpt lat="43.800415231969325" lon="10.567140635394509"><ele>23.0</ele><time>2026-04-17T13:16:06Z</time></trkpt><trkpt lat="43.80036907892636" lon="10.567327295190008"><ele>23.0</ele><time>2026-04-17T13:16:07Z</time></trkpt><trkpt lat="43.800321793514826" lon="10.567484945007678"><ele>23.0</ele><time>2026-04-17T13:16:08Z</time></trkpt><trkpt lat="43.80027155262362" lon="10.567624880699396"><ele>23.0</ele><time>2026-04-17T13:16:09Z</time></trkpt><trkpt lat="43.80020146839851" lon="10.567773078351797"><ele>23.0</ele><time>2026-04-17T13:16:10Z</time></trkpt><trkpt lat="43.800111362210636" lon="10.567927907564853"><ele>23.0</ele><time>2026-04-17T13:16:11Z</time></trkpt><trkpt lat="43.80002041248197" lon="10.568084624872983"><ele>23.0</ele><time>2026-04-17T13:16:12Z</time></trkpt><trkpt lat="43.79992416033928" lon="10.568241825909144"><ele>23.75</ele><time>2026-04-17T13:16:13Z</time></trkpt><trkpt lat="43.79983008395587" lon="10.568390247527146"><ele>24.5</ele><time>2026-04-17T13:16:14Z</time></trkpt><trkpt lat="43.799736525249074" lon="10.568544065456217"><ele>25.25</ele><time>2026-04-17T13:16:15Z</time></trkpt><trkpt lat="43.79964868286839" lon="10.568677088472034"><ele>26.0</ele><time>2026-04-17T13:16:16Z</time></trkpt><trkpt lat="43.79955221034739" lon="10.568772442600766"><ele>26.0</ele><time>2026-04-17T13:16:17Z</time></trkpt><trkpt lat="43.799449572046115" lon="10.56884079897883"><ele>26.0</ele><time>2026-04-17T13:16:18Z</time></trkpt><trkpt lat="43.79934643302007" lon="10.568894295123227"><ele>26.0</ele><time>2026-04-17T13:16:19Z</time></trkpt><trkpt lat="43.7992425871928" lon="10.56893985357077"><ele>26.0</ele><time>2026-04-17T13:16:20Z</time></trkpt><trkpt lat="43.79913034756268" lon="10.568971440835915"><ele>26.0</ele><time>2026-04-17T13:16:21Z</time></trkpt><trkpt lat="43.7990175545289" lon="10.568995276428604"><ele>26.5</ele><time>2026-04-17T13:16:22Z</time></trkpt><trkpt lat="43.79890044807111" lon="10.569012879145843"><ele>27.0</ele><time>2026-04-17T13:16:23Z</time></trkpt><trkpt lat="43.798782079602354" lon="10.569041015001073"><ele>27.5</ele><time>2026-04-17T13:16:24Z</time></trkpt><trkpt lat="43.79865458662802" lon="10.56908031858753"><ele>28.0</ele><time>2026-04-17T13:16:25Z</time></trkpt><trkpt lat="43.798529033535814" lon="10.569112245713358"><ele>28.75</ele><time>2026-04-17T13:16:26Z</time></trkpt><trkpt lat="43.79841869074414" lon="10.56914107031017"><ele>29.5</ele><time>2026-04-17T13:16:27Z</time></trkpt><trkpt lat="43.79831747033958" lon="10.56918811475158"><ele>30.25</ele><time>2026-04-17T13:16:28Z</time></trkpt><trkpt lat="43.7982227394659" lon="10.569277406207073"><ele>31.0</ele><time>2026-04-17T13:16:29Z</time></trkpt><trkpt lat="43.798135480238145" lon="10.569395447936666"><ele>30.75</ele><time>2026-04-17T13:16:30Z</time></trkpt><trkpt lat="43.79806316538889" lon="10.569553072834506"><ele>30.5</ele><time>2026-04-17T13:16:31Z</time></trkpt><trkpt lat="43.79800382619454" lon="10.569729728733353"><ele>30.25</ele><time>2026-04-17T13:16:32Z</time></trkpt><trkpt lat="43.79794235299747" lon="10.569886811431234"><ele>30.0</ele><time>2026-04-17T13:16:33Z</time></trkpt><trkpt lat="43.79788187491189" lon="10.570038841975636"><ele>30.0</ele><time>2026-04-17T13:16:34Z</time></trkpt><trkpt lat="43.797824082259545" lon="10.570206322913346"><ele>30.0</ele><time>2026-04-17T13:16:35Z</time></trkpt><trkpt lat="43.79776728840582" lon="10.570387786525426"><ele>30.0</ele><time>2026-04-17T13:16:36Z</time></trkpt><trkpt lat="43.79775244635931" lon="10.570589806286367"><ele>30.0</ele><time>2026-04-17T13:16:37Z</time></trkpt><trkpt lat="43.797754877241275" lon="10.570787861795601"><ele>30.0</ele><time>2026-04-17T13:16:38Z</time></trkpt><trkpt lat="43.79776212005416" lon="10.570950445625904"><ele>30.0</ele><time>2026-04-17T13:16:39Z</time></trkpt><trkpt lat="43.797764281643964" lon="10.57110524153472"><ele>30.0</ele><time>2026-04-17T13:16:40Z</time></trkpt><trkpt lat="43.79775287761582" lon="10.571275771655648"><ele>30.0</ele><time>2026-04-17T13:16:41Z</time></trkpt><trkpt lat="43.79771903955828" lon="10.571447081729222"><ele>30.75</ele><time>2026-04-17T13:16:42Z</time></trkpt><trkpt lat="43.79764802537799" lon="10.571571394690277"><ele>31.5</ele><time>2026-04-17T13:16:43Z</time></trkpt><trkpt lat="43.797575557912644" lon="10.571688948132456"><ele>32.25</ele><time>2026-04-17T13:16:44Z</time></trkpt><trkpt lat="43.79749076429656" lon="10.571799191257407"><ele>33.0</ele><time>2026-04-17T13:16:45Z</time></trkpt><trkpt lat="43.79740526343487" lon="10.571912757724101"><ele>32.5</ele><time>2026-04-17T13:16:46Z</time></trkpt><trkpt lat="43.79731973842305" lon="10.57202679106086"><ele>32.0</ele><time>2026-04-17T13:16:47Z</time></trkpt><trkpt lat="43.79723341577566" lon="10.57214289282667"><ele>31.5</ele><time>2026-04-17T13:16:48Z</time></trkpt><trkpt lat="43.79714948728384" lon="10.572256285556769"><ele>31.0</ele><time>2026-04-17T13:16:49Z</time></trkpt><trkpt lat="43.797068855323616" lon="10.572379360377948"><ele>31.0</ele><time>2026-04-17T13:16:50Z</time></trkpt><trkpt lat="43.79697067873064" lon="10.572486726641474"><ele>31.0</ele><time>2026-04-17T13:16:51Z</time></trkpt><trkpt lat="43.79687251345405" lon="10.57258187487233"><ele>31.0</ele><time>2026-04-17T13:16:52.001Z</time></trkpt><trkpt lat="43.796733793057015" lon="10.572650883717005"><ele>31.0</ele><time>2026-04-17T13:16:53.001Z</time></trkpt><trkpt lat="43.796595001029246" lon="10.572736541122561"><ele>31.0</ele><time>2026-04-17T13:16:54.001Z</time></trkpt><trkpt lat="43.796457459045584" lon="10.572821947290834"><ele>31.0</ele><time>2026-04-17T13:16:55.001Z</time></trkpt><trkpt lat="43.796316693181794" lon="10.572878190043657"><ele>31.0</ele><time>2026-04-17T13:16:56.001Z</time></trkpt><trkpt lat="43.79617085610327" lon="10.572941156651746"><ele>31.0</ele><time>2026-04-17T13:16:57.001Z</time></trkpt><trkpt lat="43.796028381758696" lon="10.573016509818254"><ele>31.0</ele><time>2026-04-17T13:16:58.001Z</time></trkpt><trkpt lat="43.795905093650546" lon="10.573102095628862"><ele>31.0</ele><time>2026-04-17T13:16:59.001Z</time></trkpt><trkpt lat="43.79578339211047" lon="10.573197019056627"><ele>31.0</ele><time>2026-04-17T13:17:00.001Z</time></trkpt><trkpt lat="43.79567221322808" lon="10.573303367860285"><ele>30.75</ele><time>2026-04-17T13:17:01.001Z</time></trkpt><trkpt lat="43.79556577296196" lon="10.573425863261008"><ele>30.5</ele><time>2026-04-17T13:17:02.001Z</time></trkpt><trkpt lat="43.79546862592481" lon="10.57357277891261"><ele>30.25</ele><time>2026-04-17T13:17:03Z</time></trkpt><trkpt lat="43.795380253515866" lon="10.573757863966001"><ele>30.0</ele><time>2026-04-17T13:17:04Z</time></trkpt><trkpt lat="43.79530183410721" lon="10.573958672422785"><ele>30.0</ele><time>2026-04-17T13:17:05Z</time></trkpt><trkpt lat="43.79523633610501" lon="10.574128662908556"><ele>30.0</ele><time>2026-04-17T13:17:06Z</time></trkpt><trkpt lat="43.79518440509247" lon="10.574269552746326"><ele>30.0</ele><time>2026-04-17T13:17:07Z</time></trkpt><trkpt lat="43.795136238695484" lon="10.574410873693429"><ele>30.0</ele><time>2026-04-17T13:17:08Z</time></trkpt><trkpt lat="43.79508457830173" lon="10.574564116044638"><ele>30.75</ele><time>2026-04-17T13:17:09Z</time></trkpt><trkpt lat="43.795033870937935" lon="10.57473218571109"><ele>31.5</ele><time>2026-04-17T13:17:10Z</time></trkpt><trkpt lat="43.79497489549608" lon="10.574913414359676"><ele>32.25</ele><time>2026-04-17T13:17:11Z</time></trkpt><trkpt lat="43.79491512731399" lon="10.57511850016249"><ele>33.0</ele><time>2026-04-17T13:17:12Z</time></trkpt><trkpt lat="43.794852807545354" lon="10.57532340895262"><ele>31.25</ele><time>2026-04-17T13:17:13Z</time></trkpt><trkpt lat="43.794793451318796" lon="10.575524219272097"><ele>29.5</ele><time>2026-04-17T13:17:14Z</time></trkpt><trkpt lat="43.79474051149676" lon="10.57569829673372"><ele>27.75</ele><time>2026-04-17T13:17:15Z</time></trkpt><trkpt lat="43.79468606432424" lon="10.575873724637056"><ele>26.0</ele><time>2026-04-17T13:17:16Z</time></trkpt><trkpt lat="43.794632302833186" lon="10.576047388646439"><ele>25.4</ele><time>2026-04-17T13:17:17Z</time></trkpt><trkpt lat="43.79457918222769" lon="10.576211042543607"><ele>24.8</ele><time>2026-04-17T13:17:18Z</time></trkpt><trkpt lat="43.79453917487733" lon="10.5763504959026"><ele>24.2</ele><time>2026-04-17T13:17:19Z</time></trkpt><trkpt lat="43.79449715942012" lon="10.576464510461877"><ele>23.599999999999998</ele><time>2026-04-17T13:17:20Z</time></trkpt><trkpt lat="43.794441440195754" lon="10.576593855400825"><ele>23.0</ele><time>2026-04-17T13:17:21Z</time></trkpt><trkpt lat="43.79435126649586" lon="10.576735997992339"><ele>22.666666666666668</ele><time>2026-04-17T13:17:22Z</time></trkpt><trkpt lat="43.79424712948643" lon="10.576878662147374"><ele>22.333333333333332</ele><time>2026-04-17T13:17:23Z</time></trkpt><trkpt lat="43.794134876380944" lon="10.577010959266834"><ele>22.0</ele><time>2026-04-17T13:17:24Z</time></trkpt><trkpt lat="43.79400457164655" lon="10.577146539386977"><ele>22.0</ele><time>2026-04-17T13:17:25Z</time></trkpt><trkpt lat="43.79386425922092" lon="10.577277781179058"><ele>22.0</ele><time>2026-04-17T13:17:26Z</time></trkpt><trkpt lat="43.79374201058843" lon="10.577399840013475"><ele>22.0</ele><time>2026-04-17T13:17:27Z</time></trkpt><trkpt lat="43.79362084178218" lon="10.57752923281776"><ele>22.0</ele><time>2026-04-17T13:17:28Z</time></trkpt><trkpt lat="43.79351136252093" lon="10.577645744421009"><ele>22.0</ele><time>2026-04-17T13:17:29Z</time></trkpt><trkpt lat="43.79342498496504" lon="10.577728012898241"><ele>22.0</ele><time>2026-04-17T13:17:30Z</time></trkpt><trkpt lat="43.79334554568552" lon="10.577798057568822"><ele>22.0</ele><time>2026-04-17T13:17:31Z</time></trkpt><trkpt lat="43.793247790657055" lon="10.57785281077746"><ele>22.0</ele><time>2026-04-17T13:17:32Z</time></trkpt><trkpt lat="43.793131722192214" lon="10.577868898184358"><ele>22.0</ele><time>2026-04-17T13:17:33Z</time></trkpt><trkpt lat="43.79302472257777" lon="10.57787935908902"><ele>22.0</ele><time>2026-04-17T13:17:34Z</time></trkpt><trkpt lat="43.792925211331216" lon="10.577926645008937"><ele>22.0</ele><time>2026-04-17T13:17:35Z</time></trkpt><trkpt lat="43.79283258956604" lon="10.578023548545799"><ele>22.0</ele><time>2026-04-17T13:17:36Z</time></trkpt><trkpt lat="43.79275313158228" lon="10.578167654265338"><ele>22.0</ele><time>2026-04-17T13:17:37Z</time></trkpt><trkpt lat="43.79268422771016" lon="10.578337849492122"><ele>22.0</ele><time>2026-04-17T13:17:38Z</time></trkpt><trkpt lat="43.79262074723677" lon="10.578481618039628"><ele>22.0</ele><time>2026-04-17T13:17:39Z</time></trkpt><trkpt lat="43.792541532492805" lon="10.578615631202501"><ele>22.0</ele><time>2026-04-17T13:17:40Z</time></trkpt><trkpt lat="43.79244445056366" lon="10.578732623201226"><ele>22.666666666666664</ele><time>2026-04-17T13:17:41Z</time></trkpt><trkpt lat="43.79232659408414" lon="10.578840739373994"><ele>23.333333333333332</ele><time>2026-04-17T13:17:42Z</time></trkpt><trkpt lat="43.792185518743345" lon="10.578936164392202"><ele>24.0</ele><time>2026-04-17T13:17:43Z</time></trkpt><trkpt lat="43.792049692807964" lon="10.579031747700329"><ele>24.0</ele><time>2026-04-17T13:17:44Z</time></trkpt><trkpt lat="43.79190976859107" lon="10.579133079520735"><ele>24.0</ele><time>2026-04-17T13:17:45Z</time></trkpt><trkpt lat="43.791772818072516" lon="10.579235307976012"><ele>24.0</ele><time>2026-04-17T13:17:46Z</time></trkpt><trkpt lat="43.791654920881015" lon="10.57933008892201"><ele>25.0</ele><time>2026-04-17T13:17:47Z</time></trkpt><trkpt lat="43.791547701406174" lon="10.579420128328445"><ele>26.0</ele><time>2026-04-17T13:17:48Z</time></trkpt><trkpt lat="43.79145258786608" lon="10.579530952511771"><ele>27.0</ele><time>2026-04-17T13:17:49Z</time></trkpt><trkpt lat="43.79137501911995" lon="10.5796786457917"><ele>28.0</ele><time>2026-04-17T13:17:50Z</time></trkpt><trkpt lat="43.79131175250112" lon="10.579855286373167"><ele>25.5</ele><time>2026-04-17T13:17:51Z</time></trkpt><trkpt lat="43.791273702582075" lon="10.580058678907019"><ele>23.0</ele><time>2026-04-17T13:17:52Z</time></trkpt><trkpt lat="43.79125906775883" lon="10.58024589605195"><ele>20.5</ele><time>2026-04-17T13:17:53Z</time></trkpt><trkpt lat="43.79125252765362" lon="10.58041906394904"><ele>18.0</ele><time>2026-04-17T13:17:54Z</time></trkpt><trkpt lat="43.79122544872571" lon="10.580602664335109"><ele>18.0</ele><time>2026-04-17T13:17:55Z</time></trkpt><trkpt lat="43.791158177307565" lon="10.580802472822224"><ele>18.0</ele><time>2026-04-17T13:17:56Z</time></trkpt><trkpt lat="43.79105676077421" lon="10.58101506680562"><ele>18.0</ele><time>2026-04-17T13:17:57Z</time></trkpt><trkpt lat="43.79094330698572" lon="10.581221955967791"><ele>18.0</ele><time>2026-04-17T13:17:58Z</time></trkpt><trkpt lat="43.790820407107965" lon="10.581433952723307"><ele>18.0</ele><time>2026-04-17T13:17:59Z</time></trkpt><trkpt lat="43.79067653578878" lon="10.581646964278526"><ele>18.0</ele><time>2026-04-17T13:18:00Z</time></trkpt><trkpt lat="43.79053113662355" lon="10.58183646441914"><ele>18.0</ele><time>2026-04-17T13:18:01Z</time></trkpt><trkpt lat="43.790399567376404" lon="10.582001810193798"><ele>18.0</ele><time>2026-04-17T13:18:02Z</time></trkpt><trkpt lat="43.790274342787214" lon="10.58217290043966"><ele>18.0</ele><time>2026-04-17T13:18:03Z</time></trkpt><trkpt lat="43.790163259071946" lon="10.58234302379656"><ele>18.666666666666668</ele><time>2026-04-17T13:18:04Z</time></trkpt><trkpt lat="43.790061067603794" lon="10.5824942995626"><ele>19.333333333333336</ele><time>2026-04-17T13:18:05Z</time></trkpt><trkpt lat="43.78994866874675" lon="10.582639387139185"><ele>20.0</ele><time>2026-04-17T13:18:06Z</time></trkpt><trkpt lat="43.78980705590603" lon="10.582777609351535"><ele>19.0</ele><time>2026-04-17T13:18:07Z</time></trkpt><trkpt lat="43.78965548722691" lon="10.582885864749644"><ele>18.0</ele><time>2026-04-17T13:18:08Z</time></trkpt><trkpt lat="43.78950076111817" lon="10.582963370304444"><ele>17.0</ele><time>2026-04-17T13:18:09Z</time></trkpt><trkpt lat="43.789360169405754" lon="10.583056670404314"><ele>18.0</ele><time>2026-04-17T13:18:10Z</time></trkpt><trkpt lat="43.7892299079532" lon="10.583188029503118"><ele>19.0</ele><time>2026-04-17T13:18:11Z</time></trkpt><trkpt lat="43.789098104291156" lon="10.583351798677267"><ele>20.0</ele><time>2026-04-17T13:18:12Z</time></trkpt><trkpt lat="43.78897695417656" lon="10.583546381194768"><ele>19.0</ele><time>2026-04-17T13:18:13Z</time></trkpt><trkpt lat="43.78886969685185" lon="10.583754972833482"><ele>18.0</ele><time>2026-04-17T13:18:14Z</time></trkpt><trkpt lat="43.78876778928169" lon="10.58395636001236"><ele>17.0</ele><time>2026-04-17T13:18:15Z</time></trkpt><trkpt lat="43.78865836552577" lon="10.584153266567512"><ele>17.0</ele><time>2026-04-17T13:18:16Z</time></trkpt><trkpt lat="43.788541829206956" lon="10.58436065150678"><ele>17.0</ele><time>2026-04-17T13:18:17Z</time></trkpt><trkpt lat="43.78843291888851" lon="10.584569343431903"><ele>17.0</ele><time>2026-04-17T13:18:18Z</time></trkpt><trkpt lat="43.7883311375651" lon="10.584766239869296"><ele>17.0</ele><time>2026-04-17T13:18:19Z</time></trkpt><trkpt lat="43.78823165451071" lon="10.58495217717962"><ele>17.0</ele><time>2026-04-17T13:18:20Z</time></trkpt><trkpt lat="43.788148779100105" lon="10.585098318217309"><ele>17.0</ele><time>2026-04-17T13:18:21Z</time></trkpt><trkpt lat="43.788069102244044" lon="10.585235431804062"><ele>17.0</ele><time>2026-04-17T13:18:22Z</time></trkpt><trkpt lat="43.78797267723226" lon="10.585378699341655"><ele>17.0</ele><time>2026-04-17T13:18:23Z</time></trkpt><trkpt lat="43.787843906637356" lon="10.585523032340667"><ele>17.0</ele><time>2026-04-17T13:18:24Z</time></trkpt><trkpt lat="43.78769655864268" lon="10.585659855523755"><ele>17.0</ele><time>2026-04-17T13:18:25Z</time></trkpt><trkpt lat="43.787545100825724" lon="10.58579300494741"><ele>16.666666666666668</ele><time>2026-04-17T13:18:26Z</time></trkpt><trkpt lat="43.7874055427671" lon="10.585949722846207"><ele>16.333333333333332</ele><time>2026-04-17T13:18:27Z</time></trkpt><trkpt lat="43.78727940163886" lon="10.586148965093438"><ele>16.0</ele><time>2026-04-17T13:18:28Z</time></trkpt><trkpt lat="43.78717347758167" lon="10.58636406236849"><ele>16.0</ele><time>2026-04-17T13:18:29Z</time></trkpt><trkpt lat="43.78709406395288" lon="10.586553055299817"><ele>16.0</ele><time>2026-04-17T13:18:30Z</time></trkpt><trkpt lat="43.78701258793838" lon="10.58672445033495"><ele>16.0</ele><time>2026-04-17T13:18:31Z</time></trkpt><trkpt lat="43.78690671541751" lon="10.58689654427264"><ele>17.666666666666664</ele><time>2026-04-17T13:18:32Z</time></trkpt><trkpt lat="43.78677124505924" lon="10.587073349954787"><ele>19.333333333333332</ele><time>2026-04-17T13:18:33Z</time></trkpt><trkpt lat="43.78662034698532" lon="10.58725279833113"><ele>21.0</ele><time>2026-04-17T13:18:34Z</time></trkpt><trkpt lat="43.786489116788005" lon="10.58742238779119"><ele>21.0</ele><time>2026-04-17T13:18:35Z</time></trkpt><trkpt lat="43.78637646957636" lon="10.587579288563063"><ele>21.0</ele><time>2026-04-17T13:18:36Z</time></trkpt><trkpt lat="43.78627323643886" lon="10.587742410372607"><ele>21.0</ele><time>2026-04-17T13:18:37Z</time></trkpt><trkpt lat="43.78617564005526" lon="10.587894863183994"><ele>21.0</ele><time>2026-04-17T13:18:38Z</time></trkpt><trkpt lat="43.78608069454283" lon="10.588038157369013"><ele>21.0</ele><time>2026-04-17T13:18:39Z</time></trkpt><trkpt lat="43.785994069219136" lon="10.588167938187226"><ele>21.0</ele><time>2026-04-17T13:18:40Z</time></trkpt><trkpt lat="43.78592105573027" lon="10.588279881609097"><ele>21.0</ele><time>2026-04-17T13:18:41Z</time></trkpt><trkpt lat="43.78586389413395" lon="10.58836152181656"><ele>21.6</ele><time>2026-04-17T13:18:42Z</time></trkpt><trkpt lat="43.785797170243434" lon="10.588432432984106"><ele>22.200000000000003</ele><time>2026-04-17T13:18:43Z</time></trkpt><trkpt lat="43.785700580418954" lon="10.58847740758097"><ele>22.799999999999997</ele><time>2026-04-17T13:18:44Z</time></trkpt><trkpt lat="43.78558609869926" lon="10.588478661046041"><ele>23.4</ele><time>2026-04-17T13:18:45Z</time></trkpt><trkpt lat="43.785459356123106" lon="10.588405591386804"><ele>24.0</ele><time>2026-04-17T13:18:46Z</time></trkpt><trkpt lat="43.785333293657345" lon="10.58835821384562"><ele>24.0</ele><time>2026-04-17T13:18:47Z</time></trkpt><trkpt lat="43.78524079151465" lon="10.588303044385164"><ele>24.0</ele><time>2026-04-17T13:18:48Z</time></trkpt><trkpt lat="43.78516178623726" lon="10.588279816960858"><ele>24.0</ele><time>2026-04-17T13:18:49Z</time></trkpt><trkpt lat="43.785072470765236" lon="10.58830264290356"><ele>24.0</ele><time>2026-04-17T13:18:50Z</time></trkpt><trkpt lat="43.78498096018432" lon="10.588375063734814"><ele>24.0</ele><time>2026-04-17T13:18:51Z</time></trkpt><trkpt lat="43.78489793896965" lon="10.588473343404281"><ele>24.0</ele><time>2026-04-17T13:18:52Z</time></trkpt><trkpt lat="43.78482778733396" lon="10.588568197956546"><ele>24.0</ele><time>2026-04-17T13:18:53Z</time></trkpt><trkpt lat="43.78475481833511" lon="10.588655333544269"><ele>24.0</ele><time>2026-04-17T13:18:54Z</time></trkpt><trkpt lat="43.7846690380735" lon="10.58876232278418"><ele>24.0</ele><time>2026-04-17T13:18:55Z</time></trkpt><trkpt lat="43.78458211233766" lon="10.588871654894236"><ele>24.0</ele><time>2026-04-17T13:18:56Z</time></trkpt><trkpt lat="43.78449874873167" lon="10.58896294697932"><ele>24.0</ele><time>2026-04-17T13:18:57Z</time></trkpt><trkpt lat="43.784417385346494" lon="10.589050345916519"><ele>24.0</ele><time>2026-04-17T13:18:58Z</time></trkpt><trkpt lat="43.784334971582986" lon="10.589137511201619"><ele>24.0</ele><time>2026-04-17T13:18:59Z</time></trkpt><trkpt lat="43.78424132420896" lon="10.589243089677456"><ele>24.0</ele><time>2026-04-17T13:19:00Z</time></trkpt><trkpt lat="43.78415376377728" lon="10.589351353568734"><ele>24.0</ele><time>2026-04-17T13:19:01.001Z</time></trkpt><trkpt lat="43.78406957620391" lon="10.589449016046613"><ele>24.4</ele><time>2026-04-17T13:19:02.001Z</time></trkpt><trkpt lat="43.78399420680226" lon="10.589531781611916"><ele>24.799999999999997</ele><time>2026-04-17T13:19:03.001Z</time></trkpt><trkpt lat="43.78392065363037" lon="10.589618780166727"><ele>25.200000000000003</ele><time>2026-04-17T13:19:04.001Z</time></trkpt><trkpt lat="43.78384540043998" lon="10.58971294782665"><ele>25.6</ele><time>2026-04-17T13:19:05.001Z</time></trkpt><trkpt lat="43.78375811403007" lon="10.589812170763429"><ele>26.0</ele><time>2026-04-17T13:19:06.001Z</time></trkpt><trkpt lat="43.78366472570491" lon="10.589919598641703"><ele>26.0</ele><time>2026-04-17T13:19:07.001Z</time></trkpt><trkpt lat="43.78357565514155" lon="10.59002301050857"><ele>26.0</ele><time>2026-04-17T13:19:08.001Z</time></trkpt><trkpt lat="43.78349862749279" lon="10.590112719861628"><ele>26.0</ele><time>2026-04-17T13:19:09Z</time></trkpt><trkpt lat="43.783417385451045" lon="10.590207500199204"><ele>26.0</ele><time>2026-04-17T13:19:10Z</time></trkpt><trkpt lat="43.78333919874872" lon="10.590297156861727"><ele>26.0</ele><time>2026-04-17T13:19:11Z</time></trkpt><trkpt lat="43.78326297844815" lon="10.590385540228528"><ele>25.75</ele><time>2026-04-17T13:19:12Z</time></trkpt><trkpt lat="43.78318503892804" lon="10.59047948002922"><ele>25.5</ele><time>2026-04-17T13:19:13Z</time></trkpt><trkpt lat="43.78309879236246" lon="10.590591302394538"><ele>25.25</ele><time>2026-04-17T13:19:14Z</time></trkpt><trkpt lat="43.78298888275937" lon="10.590722760857638"><ele>25.0</ele><time>2026-04-17T13:19:15Z</time></trkpt><trkpt lat="43.78287251878939" lon="10.590832408997766"><ele>25.0</ele><time>2026-04-17T13:19:16Z</time></trkpt><trkpt lat="43.782751177714744" lon="10.59091893153889"><ele>25.0</ele><time>2026-04-17T13:19:17Z</time></trkpt><trkpt lat="43.78267425169688" lon="10.591071288556908"><ele>25.0</ele><time>2026-04-17T13:19:18Z</time></trkpt><trkpt lat="43.78254428229253" lon="10.591206768507087"><ele>25.0</ele><time>2026-04-17T13:19:19Z</time></trkpt><trkpt lat="43.78240936666661" lon="10.591334517013179"><ele>25.0</ele><time>2026-04-17T13:19:20Z</time></trkpt><trkpt lat="43.7822768938579" lon="10.59144586300799"><ele>25.0</ele><time>2026-04-17T13:19:21Z</time></trkpt><trkpt lat="43.782154264783095" lon="10.591557676400356"><ele>25.0</ele><time>2026-04-17T13:19:22Z</time></trkpt><trkpt lat="43.782029794922295" lon="10.591666806478232"><ele>25.0</ele><time>2026-04-17T13:19:23Z</time></trkpt><trkpt lat="43.78190766115645" lon="10.59177646161876"><ele>25.0</ele><time>2026-04-17T13:19:24Z</time></trkpt><trkpt lat="43.78178564096155" lon="10.591886317691062"><ele>25.0</ele><time>2026-04-17T13:19:25Z</time></trkpt><trkpt lat="43.78165729398795" lon="10.59200230700371"><ele>25.0</ele><time>2026-04-17T13:19:26Z</time></trkpt><trkpt lat="43.78152642094982" lon="10.592127181299494"><ele>24.5</ele><time>2026-04-17T13:19:27Z</time></trkpt><trkpt lat="43.781389259421374" lon="10.592254203095582"><ele>24.0</ele><time>2026-04-17T13:19:28Z</time></trkpt><trkpt lat="43.78126231246543" lon="10.592359574417113"><ele>23.5</ele><time>2026-04-17T13:19:29Z</time></trkpt><trkpt lat="43.78115906862428" lon="10.592458964666278"><ele>23.0</ele><time>2026-04-17T13:19:30Z</time></trkpt><trkpt lat="43.78104719447396" lon="10.592556185918271"><ele>23.0</ele><time>2026-04-17T13:19:31Z</time></trkpt><trkpt lat="43.78094090709767" lon="10.592657952232068"><ele>23.0</ele><time>2026-04-17T13:19:32Z</time></trkpt><trkpt lat="43.780828282543354" lon="10.592763385775612"><ele>23.0</ele><time>2026-04-17T13:19:33Z</time></trkpt><trkpt lat="43.780740997962305" lon="10.59284178823433"><ele>23.0</ele><time>2026-04-17T13:19:34Z</time></trkpt><trkpt lat="43.78064060821332" lon="10.592943085438424"><ele>23.0</ele><time>2026-04-17T13:19:35Z</time></trkpt><trkpt lat="43.78055200153448" lon="10.593087463271843"><ele>23.0</ele><time>2026-04-17T13:19:36Z</time></trkpt><trkpt lat="43.780478905038585" lon="10.593254742815416"><ele>23.0</ele><time>2026-04-17T13:19:37Z</time></trkpt><trkpt lat="43.78042389833766" lon="10.593431341215112"><ele>23.0</ele><time>2026-04-17T13:19:38Z</time></trkpt><trkpt lat="43.7803773454256" lon="10.59360973927317"><ele>22.75</ele><time>2026-04-17T13:19:39Z</time></trkpt><trkpt lat="43.78033386542755" lon="10.593777384914468"><ele>22.5</ele><time>2026-04-17T13:19:40Z</time></trkpt><trkpt lat="43.7802983084429" lon="10.59394803338844"><ele>22.25</ele><time>2026-04-17T13:19:41Z</time></trkpt><trkpt lat="43.78024989634817" lon="10.594104463889966"><ele>22.0</ele><time>2026-04-17T13:19:42Z</time></trkpt><trkpt lat="43.78018827846897" lon="10.594251541730678"><ele>24.0</ele><time>2026-04-17T13:19:43Z</time></trkpt><trkpt lat="43.780104764331064" lon="10.594387962167737"><ele>26.0</ele><time>2026-04-17T13:19:44Z</time></trkpt><trkpt lat="43.780009858972164" lon="10.594515117364049"><ele>28.0</ele><time>2026-04-17T13:19:45Z</time></trkpt><trkpt lat="43.77991687207357" lon="10.594624681258368"><ele>30.0</ele><time>2026-04-17T13:19:46Z</time></trkpt><trkpt lat="43.77983139219605" lon="10.594702476273238"><ele>30.25</ele><time>2026-04-17T13:19:47Z</time></trkpt><trkpt lat="43.77973873433467" lon="10.594776891269504"><ele>30.5</ele><time>2026-04-17T13:19:48Z</time></trkpt><trkpt lat="43.77962667877886" lon="10.594844709698142"><ele>30.75</ele><time>2026-04-17T13:19:49Z</time></trkpt><trkpt lat="43.7795046808286" lon="10.594900242139587"><ele>31.0</ele><time>2026-04-17T13:19:50Z</time></trkpt><trkpt lat="43.77939935115376" lon="10.594958541089103"><ele>30.6</ele><time>2026-04-17T13:19:51Z</time></trkpt><trkpt lat="43.77930004602162" lon="10.595016153651036"><ele>30.200000000000003</ele><time>2026-04-17T13:19:52Z</time></trkpt><trkpt lat="43.7791970833146" lon="10.595077863370125"><ele>29.799999999999997</ele><time>2026-04-17T13:19:53Z</time></trkpt><trkpt lat="43.77910210412087" lon="10.595139909837638"><ele>29.4</ele><time>2026-04-17T13:19:54Z</time></trkpt><trkpt lat="43.77900839318617" lon="10.59522195244877"><ele>29.0</ele><time>2026-04-17T13:19:55Z</time></trkpt><trkpt lat="43.77891911461752" lon="10.59533374485186"><ele>28.0</ele><time>2026-04-17T13:19:56Z</time></trkpt><trkpt lat="43.7788343062327" lon="10.595460642956333"><ele>27.0</ele><time>2026-04-17T13:19:57Z</time></trkpt><trkpt lat="43.77875246908291" lon="10.595576332747955"><ele>26.0</ele><time>2026-04-17T13:19:58Z</time></trkpt><trkpt lat="43.77866901987365" lon="10.595690521814651"><ele>25.0</ele><time>2026-04-17T13:19:59Z</time></trkpt><trkpt lat="43.77859677166561" lon="10.595824898997611"><ele>25.0</ele><time>2026-04-17T13:20:00Z</time></trkpt><trkpt lat="43.77854713099883" lon="10.595982306787095"><ele>25.0</ele><time>2026-04-17T13:20:01Z</time></trkpt><trkpt lat="43.77851864978075" lon="10.59612975558937"><ele>25.0</ele><time>2026-04-17T13:20:02Z</time></trkpt><trkpt lat="43.778499057172866" lon="10.596273694738594"><ele>25.0</ele><time>2026-04-17T13:20:03Z</time></trkpt><trkpt lat="43.778478726664886" lon="10.596432132548895"><ele>24.75</ele><time>2026-04-17T13:20:04Z</time></trkpt><trkpt lat="43.7784774328368" lon="10.596613066489947"><ele>24.5</ele><time>2026-04-17T13:20:05Z</time></trkpt><trkpt lat="43.77849280157195" lon="10.596787876344475"><ele>24.25</ele><time>2026-04-17T13:20:06Z</time></trkpt><trkpt lat="43.77851584883603" lon="10.59693497603257"><ele>24.0</ele><time>2026-04-17T13:20:07Z</time></trkpt><trkpt lat="43.77854201315664" lon="10.59709075259066"><ele>24.0</ele><time>2026-04-17T13:20:08Z</time></trkpt><trkpt lat="43.77856434811472" lon="10.597257850307862"><ele>24.0</ele><time>2026-04-17T13:20:09Z</time></trkpt><trkpt lat="43.77858268067637" lon="10.59739683819852"><ele>24.0</ele><time>2026-04-17T13:20:10Z</time></trkpt><trkpt lat="43.77859764639332" lon="10.597532502265553"><ele>24.0</ele><time>2026-04-17T13:20:11Z</time></trkpt><trkpt lat="43.77862000305022" lon="10.597660967067677"><ele>24.0</ele><time>2026-04-17T13:20:12Z</time></trkpt><trkpt lat="43.778631586726945" lon="10.597779602041022"><ele>23.4</ele><time>2026-04-17T13:20:13Z</time></trkpt><trkpt lat="43.77863326340581" lon="10.597907289510623"><ele>22.799999999999997</ele><time>2026-04-17T13:20:14Z</time></trkpt><trkpt lat="43.77860979713014" lon="10.598032663672859"><ele>22.200000000000003</ele><time>2026-04-17T13:20:15Z</time></trkpt><trkpt lat="43.778570030038075" lon="10.598149466636992"><ele>21.6</ele><time>2026-04-17T13:20:16Z</time></trkpt><trkpt lat="43.77850952781954" lon="10.598269259957737"><ele>21.0</ele><time>2026-04-17T13:20:17Z</time></trkpt><trkpt lat="43.778432258293144" lon="10.598375466133941"><ele>22.5</ele><time>2026-04-17T13:20:18Z</time></trkpt><trkpt lat="43.77834904582183" lon="10.598489345865781"><ele>24.0</ele><time>2026-04-17T13:20:19Z</time></trkpt><trkpt lat="43.77824863928364" lon="10.598581439837414"><ele>25.5</ele><time>2026-04-17T13:20:20Z</time></trkpt><trkpt lat="43.778143980270805" lon="10.598649954621683"><ele>27.0</ele><time>2026-04-17T13:20:21Z</time></trkpt><trkpt lat="43.77804828010959" lon="10.598685270746776"><ele>27.0</ele><time>2026-04-17T13:20:22Z</time></trkpt><trkpt lat="43.777949115149575" lon="10.598714090681927"><ele>27.000000000000004</ele><time>2026-04-17T13:20:23Z</time></trkpt><trkpt lat="43.7778551753687" lon="10.598761602005982"><ele>27.000000000000004</ele><time>2026-04-17T13:20:24Z</time></trkpt><trkpt lat="43.77777284835926" lon="10.598866853461596"><ele>27.0</ele><time>2026-04-17T13:20:25Z</time></trkpt><trkpt lat="43.77769027654516" lon="10.599008691587061"><ele>27.0</ele><time>2026-04-17T13:20:26Z</time></trkpt><trkpt lat="43.777606097470525" lon="10.599134432095573"><ele>27.833333333333332</ele><time>2026-04-17T13:20:27Z</time></trkpt><trkpt lat="43.77752777660484" lon="10.599239127144466"><ele>28.666666666666664</ele><time>2026-04-17T13:20:28Z</time></trkpt><trkpt lat="43.777465243010376" lon="10.599316614399424"><ele>29.5</ele><time>2026-04-17T13:20:29Z</time></trkpt><trkpt lat="43.77741204445835" lon="10.599374351475639"><ele>30.333333333333332</ele><time>2026-04-17T13:20:30Z</time></trkpt><trkpt lat="43.77735427143216" lon="10.599442595719824"><ele>31.166666666666664</ele><time>2026-04-17T13:20:31Z</time></trkpt><trkpt lat="43.77728878904356" lon="10.599520320867088"><ele>32.0</ele><time>2026-04-17T13:20:32Z</time></trkpt><trkpt lat="43.77722145673513" lon="10.599586102073035"><ele>31.999999999999996</ele><time>2026-04-17T13:20:33Z</time></trkpt><trkpt lat="43.77715219786185" lon="10.599652701504564"><ele>32.0</ele><time>2026-04-17T13:20:34Z</time></trkpt><trkpt lat="43.77708359757661" lon="10.599704014067283"><ele>32.0</ele><time>2026-04-17T13:20:35Z</time></trkpt><trkpt lat="43.77699879947403" lon="10.599733418096854"><ele>32.0</ele><time>2026-04-17T13:20:36Z</time></trkpt><trkpt lat="43.77691437664815" lon="10.59975886068786"><ele>31.999999999999996</ele><time>2026-04-17T13:20:37Z</time></trkpt><trkpt lat="43.776845120599866" lon="10.599788418642085"><ele>32.0</ele><time>2026-04-17T13:20:38Z</time></trkpt><trkpt lat="43.77677485473795" lon="10.59982228901266"><ele>32.666666666666664</ele><time>2026-04-17T13:20:39Z</time></trkpt><trkpt lat="43.776710576989245" lon="10.599862353987515"><ele>33.33333333333333</ele><time>2026-04-17T13:20:40Z</time></trkpt><trkpt lat="43.77665472428608" lon="10.599930878958078"><ele>34.0</ele><time>2026-04-17T13:20:41Z</time></trkpt><trkpt lat="43.77660158966759" lon="10.60004272000135"><ele>34.666666666666664</ele><time>2026-04-17T13:20:42Z</time></trkpt><trkpt lat="43.776568028744514" lon="10.600158883085792"><ele>35.333333333333336</ele><time>2026-04-17T13:20:43Z</time></trkpt><trkpt lat="43.776541424042314" lon="10.600249034627847"><ele>36.0</ele><time>2026-04-17T13:20:44Z</time></trkpt><trkpt lat="43.77650276231903" lon="10.600383906781456"><ele>36.0</ele><time>2026-04-17T13:20:46Z</time></trkpt><trkpt lat="43.77645021472127" lon="10.600462910433578"><ele>36.0</ele><time>2026-04-17T13:20:48Z</time></trkpt><trkpt lat="43.77634875099382" lon="10.600554688636612"><ele>36.0</ele><time>2026-04-17T13:20:50Z</time></trkpt><trkpt lat="43.77627356715082" lon="10.600568839634121"><ele>36.0</ele><time>2026-04-17T13:20:51Z</time></trkpt><trkpt lat="43.776183395344326" lon="10.600538925561647"><ele>36.0</ele><time>2026-04-17T13:20:52Z</time></trkpt><trkpt lat="43.77608921065307" lon="10.600465653419842"><ele>36.4</ele><time>2026-04-17T13:20:53Z</time></trkpt><trkpt lat="43.775994159572164" lon="10.600370348009221"><ele>36.8</ele><time>2026-04-17T13:20:54Z</time></trkpt><trkpt lat="43.77590480627531" lon="10.600288101965191"><ele>37.199999999999996</ele><time>2026-04-17T13:20:55Z</time></trkpt><trkpt lat="43.775811490988815" lon="10.60020898789213"><ele>37.6</ele><time>2026-04-17T13:20:56Z</time></trkpt><trkpt lat="43.77571594605611" lon="10.600133904411926"><ele>38.0</ele><time>2026-04-17T13:20:57Z</time></trkpt><trkpt lat="43.775618104065146" lon="10.600056961595607"><ele>38.0</ele><time>2026-04-17T13:20:58Z</time></trkpt><trkpt lat="43.77550403367539" lon="10.59997575316223"><ele>38.0</ele><time>2026-04-17T13:20:59Z</time></trkpt><trkpt lat="43.775396438566524" lon="10.599885512202247"><ele>38.0</ele><time>2026-04-17T13:21:00Z</time></trkpt><trkpt lat="43.775324446557896" lon="10.59982547179914"><ele>38.0</ele><time>2026-04-17T13:21:01Z</time></trkpt><trkpt lat="43.77526760627236" lon="10.599740030360188"><ele>38.0</ele><time>2026-04-17T13:21:02Z</time></trkpt><trkpt lat="43.77522464543948" lon="10.599660264904877"><ele>39.5</ele><time>2026-04-17T13:21:03Z</time></trkpt><trkpt lat="43.77513417356227" lon="10.599595667869274"><ele>41.0</ele><time>2026-04-17T13:21:05Z</time></trkpt><trkpt lat="43.775042668493555" lon="10.59964937510078"><ele>42.5</ele><time>2026-04-17T13:21:07Z</time></trkpt><trkpt lat="43.77501439251182" lon="10.59972905151621"><ele>44.0</ele><time>2026-04-17T13:21:08Z</time></trkpt><trkpt lat="43.775014220589604" lon="10.599824046937597"><ele>45.5</ele><time>2026-04-17T13:21:09Z</time></trkpt><trkpt lat="43.775052035147375" lon="10.599921944230521"><ele>47.0</ele><time>2026-04-17T13:21:10Z</time></trkpt><trkpt lat="43.775107735160034" lon="10.600011471305834"><ele>47.0</ele><time>2026-04-17T13:21:11Z</time></trkpt><trkpt lat="43.77514440632256" lon="10.600105112466421"><ele>47.0</ele><time>2026-04-17T13:21:12Z</time></trkpt><trkpt lat="43.775156513237874" lon="10.600216673805587"><ele>47.0</ele><time>2026-04-17T13:21:13Z</time></trkpt><trkpt lat="43.77515543255188" lon="10.600336315161753"><ele>47.0</ele><time>2026-04-17T13:21:14Z</time></trkpt><trkpt lat="43.775139563278174" lon="10.600447792561093"><ele>47.0</ele><time>2026-04-17T13:21:15Z</time></trkpt><trkpt lat="43.775116888253706" lon="10.600530545622302"><ele>47.0</ele><time>2026-04-17T13:21:16Z</time></trkpt><trkpt lat="43.7750215079766" lon="10.600675487008548"><ele>47.6</ele><time>2026-04-17T13:21:18Z</time></trkpt><trkpt lat="43.77494239345474" lon="10.600746202387555"><ele>48.2</ele><time>2026-04-17T13:21:19Z</time></trkpt><trkpt lat="43.77484834454424" lon="10.600795627707024"><ele>48.8</ele><time>2026-04-17T13:21:20Z</time></trkpt><trkpt lat="43.77474140274858" lon="10.600813029942843"><ele>49.4</ele><time>2026-04-17T13:21:21Z</time></trkpt><trkpt lat="43.77462482571028" lon="10.60080857516757"><ele>50.0</ele><time>2026-04-17T13:21:22Z</time></trkpt><trkpt lat="43.774504210493205" lon="10.600797876259545"><ele>50.66666666666667</ele><time>2026-04-17T13:21:23Z</time></trkpt><trkpt lat="43.774353684291654" lon="10.600774995592081"><ele>51.33333333333333</ele><time>2026-04-17T13:21:24Z</time></trkpt><trkpt lat="43.77418349751441" lon="10.600749456719011"><ele>52.0</ele><time>2026-04-17T13:21:25Z</time></trkpt><trkpt lat="43.7740268307276" lon="10.600728510260417"><ele>52.0</ele><time>2026-04-17T13:21:26Z</time></trkpt><trkpt lat="43.773880705254165" lon="10.600711880661333"><ele>52.0</ele><time>2026-04-17T13:21:27Z</time></trkpt><trkpt lat="43.77372502072337" lon="10.600702756770616"><ele>52.0</ele><time>2026-04-17T13:21:28Z</time></trkpt><trkpt lat="43.77357115708219" lon="10.60070426318065"><ele>52.5</ele><time>2026-04-17T13:21:29Z</time></trkpt><trkpt lat="43.7734182117625" lon="10.60072009996676"><ele>53.0</ele><time>2026-04-17T13:21:30Z</time></trkpt><trkpt lat="43.77327826487056" lon="10.600743849503841"><ele>53.5</ele><time>2026-04-17T13:21:31Z</time></trkpt><trkpt lat="43.77314468317221" lon="10.600768161693356"><ele>54.0</ele><time>2026-04-17T13:21:32Z</time></trkpt><trkpt lat="43.773016604165974" lon="10.600791038169687"><ele>54.0</ele><time>2026-04-17T13:21:33Z</time></trkpt><trkpt lat="43.77290855042361" lon="10.600810878356693"><ele>54.00000000000001</ele><time>2026-04-17T13:21:34Z</time></trkpt><trkpt lat="43.772808818713884" lon="10.60082721824618"><ele>54.00000000000001</ele><time>2026-04-17T13:21:35Z</time></trkpt><trkpt lat="43.772710484061285" lon="10.600858064242479"><ele>54.0</ele><time>2026-04-17T13:21:36Z</time></trkpt><trkpt lat="43.77262589940864" lon="10.600892304893046"><ele>54.0</ele><time>2026-04-17T13:21:37Z</time></trkpt><trkpt lat="43.77254862300303" lon="10.600946688064306"><ele>54.2</ele><time>2026-04-17T13:21:38Z</time></trkpt><trkpt lat="43.77248881341244" lon="10.601030041978326"><ele>54.400000000000006</ele><time>2026-04-17T13:21:39Z</time></trkpt><trkpt lat="43.77244751249732" lon="10.601150361207905"><ele>54.6</ele><time>2026-04-17T13:21:40Z</time></trkpt><trkpt lat="43.77243522714892" lon="10.601298831433764"><ele>54.8</ele><time>2026-04-17T13:21:41Z</time></trkpt><trkpt lat="43.77246078293644" lon="10.601452992912266"><ele>55.0</ele><time>2026-04-17T13:21:42Z</time></trkpt><trkpt lat="43.77250311095161" lon="10.601577096135182"><ele>54.4</ele><time>2026-04-17T13:21:43Z</time></trkpt><trkpt lat="43.77253191244376" lon="10.601693281714462"><ele>53.8</ele><time>2026-04-17T13:21:44Z</time></trkpt><trkpt lat="43.77252596498874" lon="10.601816841138508"><ele>53.2</ele><time>2026-04-17T13:21:45Z</time></trkpt><trkpt lat="43.772479242298296" lon="10.601946445701271"><ele>52.6</ele><time>2026-04-17T13:21:46Z</time></trkpt><trkpt lat="43.77239559199311" lon="10.60206401636269"><ele>52.0</ele><time>2026-04-17T13:21:47Z</time></trkpt><trkpt lat="43.77228816778855" lon="10.602138283277112"><ele>52.0</ele><time>2026-04-17T13:21:48Z</time></trkpt><trkpt lat="43.77217221097851" lon="10.602244428443441"><ele>52.0</ele><time>2026-04-17T13:21:49Z</time></trkpt><trkpt lat="43.772046289370465" lon="10.60232045817031"><ele>52.0</ele><time>2026-04-17T13:21:50Z</time></trkpt><trkpt lat="43.77193643983848" lon="10.602393808570701"><ele>52.0</ele><time>2026-04-17T13:21:51Z</time></trkpt><trkpt lat="43.77182998274875" lon="10.602478773227546"><ele>53.5</ele><time>2026-04-17T13:21:52Z</time></trkpt><trkpt lat="43.77172364469019" lon="10.602584961896813"><ele>55.0</ele><time>2026-04-17T13:21:53Z</time></trkpt><trkpt lat="43.771632852751225" lon="10.602708177177497"><ele>56.5</ele><time>2026-04-17T13:21:54Z</time></trkpt><trkpt lat="43.77154295214863" lon="10.602836933785248"><ele>58.0</ele><time>2026-04-17T13:21:55Z</time></trkpt><trkpt lat="43.771445187789276" lon="10.602975811802102"><ele>58.0</ele><time>2026-04-17T13:21:56Z</time></trkpt><trkpt lat="43.77134526305619" lon="10.603104942528802"><ele>58.0</ele><time>2026-04-17T13:21:57Z</time></trkpt><trkpt lat="43.771239964995" lon="10.603245557177804"><ele>58.0</ele><time>2026-04-17T13:21:58Z</time></trkpt><trkpt lat="43.771118109793086" lon="10.603379271748027"><ele>58.0</ele><time>2026-04-17T13:21:59Z</time></trkpt><trkpt lat="43.7709743280676" lon="10.603553129416916"><ele>56.666666666666664</ele><time>2026-04-17T13:22:00Z</time></trkpt><trkpt lat="43.77081165359192" lon="10.60371847988533"><ele>55.33333333333333</ele><time>2026-04-17T13:22:01Z</time></trkpt><trkpt lat="43.77068890669804" lon="10.603892562688033"><ele>54.0</ele><time>2026-04-17T13:22:02Z</time></trkpt><trkpt lat="43.770565360848366" lon="10.604031520757832"><ele>54.0</ele><time>2026-04-17T13:22:03Z</time></trkpt><trkpt lat="43.770439674686656" lon="10.604186809127803"><ele>54.0</ele><time>2026-04-17T13:22:04Z</time></trkpt><trkpt lat="43.77031642874478" lon="10.604329464122946"><ele>54.0</ele><time>2026-04-17T13:22:05Z</time></trkpt><trkpt lat="43.77020589450132" lon="10.604446665734143"><ele>53.75</ele><time>2026-04-17T13:22:06Z</time></trkpt><trkpt lat="43.77008770919246" lon="10.604542294824789"><ele>53.5</ele><time>2026-04-17T13:22:07Z</time></trkpt><trkpt lat="43.76997291149594" lon="10.604608172656336"><ele>53.25</ele><time>2026-04-17T13:22:08Z</time></trkpt><trkpt lat="43.76988107315775" lon="10.604673988202215"><ele>53.0</ele><time>2026-04-17T13:22:09Z</time></trkpt><trkpt lat="43.76981192050274" lon="10.604744105800457"><ele>53.00000000000001</ele><time>2026-04-17T13:22:10Z</time></trkpt><trkpt lat="43.769756505542446" lon="10.60482567770526"><ele>53.0</ele><time>2026-04-17T13:22:11Z</time></trkpt><trkpt lat="43.769721482643604" lon="10.604943883914384"><ele>53.0</ele><time>2026-04-17T13:22:12Z</time></trkpt><trkpt lat="43.76971432268763" lon="10.605076534044207"><ele>53.0</ele><time>2026-04-17T13:22:13Z</time></trkpt><trkpt lat="43.76972039923484" lon="10.605204478105973"><ele>53.00000000000001</ele><time>2026-04-17T13:22:14Z</time></trkpt><trkpt lat="43.76970933986312" lon="10.605292579123523"><ele>53.0</ele><time>2026-04-17T13:22:15Z</time></trkpt><trkpt lat="43.76965268147252" lon="10.605369708018513"><ele>52.25</ele><time>2026-04-17T13:22:16Z</time></trkpt><trkpt lat="43.7695639023142" lon="10.605452303168953"><ele>51.5</ele><time>2026-04-17T13:22:17Z</time></trkpt><trkpt lat="43.769469111769425" lon="10.605591204383174"><ele>50.75</ele><time>2026-04-17T13:22:18Z</time></trkpt><trkpt lat="43.76935470070504" lon="10.605707192477"><ele>50.0</ele><time>2026-04-17T13:22:19Z</time></trkpt><trkpt lat="43.76925317896408" lon="10.605843735243393"><ele>49.5</ele><time>2026-04-17T13:22:20Z</time></trkpt><trkpt lat="43.769157160955906" lon="10.605984935915766"><ele>49.0</ele><time>2026-04-17T13:22:21Z</time></trkpt><trkpt lat="43.76906856754207" lon="10.60614724423532"><ele>48.5</ele><time>2026-04-17T13:22:22Z</time></trkpt><trkpt lat="43.76899140174912" lon="10.60634496444084"><ele>48.0</ele><time>2026-04-17T13:22:23Z</time></trkpt><trkpt lat="43.76892153190722" lon="10.60655435504778"><ele>47.25</ele><time>2026-04-17T13:22:24Z</time></trkpt><trkpt lat="43.76886529507892" lon="10.606727657769712"><ele>46.5</ele><time>2026-04-17T13:22:25Z</time></trkpt><trkpt lat="43.768812510150056" lon="10.606871304394392"><ele>45.75</ele><time>2026-04-17T13:22:26Z</time></trkpt><trkpt lat="43.76876497165904" lon="10.606994613285472"><ele>45.0</ele><time>2026-04-17T13:22:27Z</time></trkpt><trkpt lat="43.76871482080256" lon="10.607106390373689"><ele>44.5</ele><time>2026-04-17T13:22:28Z</time></trkpt><trkpt lat="43.76864992686412" lon="10.607220159334915"><ele>44.0</ele><time>2026-04-17T13:22:29Z</time></trkpt><trkpt lat="43.76856411025615" lon="10.607313443400788"><ele>43.5</ele><time>2026-04-17T13:22:30Z</time></trkpt><trkpt lat="43.76844895006989" lon="10.607363044355383"><ele>43.0</ele><time>2026-04-17T13:22:31Z</time></trkpt><trkpt lat="43.76832703875653" lon="10.607435216053387"><ele>43.0</ele><time>2026-04-17T13:22:32Z</time></trkpt><trkpt lat="43.768176871373406" lon="10.607471529402892"><ele>43.0</ele><time>2026-04-17T13:22:33Z</time></trkpt><trkpt lat="43.768042288565255" lon="10.607502823552483"><ele>43.0</ele><time>2026-04-17T13:22:34Z</time></trkpt><trkpt lat="43.7679291056425" lon="10.607551316000606"><ele>43.0</ele><time>2026-04-17T13:22:35Z</time></trkpt><trkpt lat="43.767823013779385" lon="10.607598880803026"><ele>43.0</ele><time>2026-04-17T13:22:36Z</time></trkpt><trkpt lat="43.767720377372484" lon="10.60763705134092"><ele>43.0</ele><time>2026-04-17T13:22:37Z</time></trkpt><trkpt lat="43.76761416226486" lon="10.607678529187043"><ele>43.0</ele><time>2026-04-17T13:22:38Z</time></trkpt><trkpt lat="43.767512964977165" lon="10.607725914679698"><ele>43.0</ele><time>2026-04-17T13:22:39Z</time></trkpt><trkpt lat="43.76742974658395" lon="10.607772638162935"><ele>43.0</ele><time>2026-04-17T13:22:40Z</time></trkpt><trkpt lat="43.76736764767596" lon="10.607826407778065"><ele>42.8</ele><time>2026-04-17T13:22:41Z</time></trkpt><trkpt lat="43.76731242760681" lon="10.607900357821329"><ele>42.599999999999994</ele><time>2026-04-17T13:22:42Z</time></trkpt><trkpt lat="43.76725614645228" lon="10.607998064979956"><ele>42.400000000000006</ele><time>2026-04-17T13:22:43Z</time></trkpt><trkpt lat="43.7671849143315" lon="10.608124436086142"><ele>42.2</ele><time>2026-04-17T13:22:44Z</time></trkpt><trkpt lat="43.76709809617802" lon="10.608277389578662"><ele>42.0</ele><time>2026-04-17T13:22:45Z</time></trkpt><trkpt lat="43.76700127300886" lon="10.608448405785515"><ele>42.0</ele><time>2026-04-17T13:22:46Z</time></trkpt><trkpt lat="43.76691246066987" lon="10.608582507160596"><ele>42.0</ele><time>2026-04-17T13:22:47Z</time></trkpt><trkpt lat="43.766829850592465" lon="10.608713014791759"><ele>42.0</ele><time>2026-04-17T13:22:48Z</time></trkpt><trkpt lat="43.76675530390397" lon="10.60883352139759"><ele>42.0</ele><time>2026-04-17T13:22:49Z</time></trkpt><trkpt lat="43.766682824289894" lon="10.608956184932365"><ele>42.5</ele><time>2026-04-17T13:22:50Z</time></trkpt><trkpt lat="43.766621749708854" lon="10.60908708415183"><ele>43.0</ele><time>2026-04-17T13:22:51Z</time></trkpt><trkpt lat="43.76658114569631" lon="10.609246994132569"><ele>43.5</ele><time>2026-04-17T13:22:52Z</time></trkpt><trkpt lat="43.76656236384773" lon="10.609445256227854"><ele>44.0</ele><time>2026-04-17T13:22:53Z</time></trkpt><trkpt lat="43.76656604832767" lon="10.60965349844389"><ele>42.75</ele><time>2026-04-17T13:22:54Z</time></trkpt><trkpt lat="43.76655792635002" lon="10.609859231073779"><ele>41.5</ele><time>2026-04-17T13:22:55Z</time></trkpt><trkpt lat="43.76655831679518" lon="10.610061675315936"><ele>40.25</ele><time>2026-04-17T13:22:56Z</time></trkpt><trkpt lat="43.7665573132984" lon="10.61023956801241"><ele>39.0</ele><time>2026-04-17T13:22:57Z</time></trkpt><trkpt lat="43.76656012602127" lon="10.610429923870708"><ele>38.0</ele><time>2026-04-17T13:22:58Z</time></trkpt><trkpt lat="43.76651390341511" lon="10.610636267399117"><ele>37.0</ele><time>2026-04-17T13:22:59Z</time></trkpt><trkpt lat="43.76649171513931" lon="10.61085896857987"><ele>36.0</ele><time>2026-04-17T13:23:00Z</time></trkpt><trkpt lat="43.76644946707681" lon="10.611055234035998"><ele>35.25</ele><time>2026-04-17T13:23:01Z</time></trkpt><trkpt lat="43.76639294233887" lon="10.611244096051765"><ele>34.5</ele><time>2026-04-17T13:23:02Z</time></trkpt><trkpt lat="43.766372502015535" lon="10.61143855076513"><ele>33.75</ele><time>2026-04-17T13:23:03Z</time></trkpt><trkpt lat="43.76630510235271" lon="10.611617216979159"><ele>33.0</ele><time>2026-04-17T13:23:04Z</time></trkpt><trkpt lat="43.76623785986831" lon="10.61180658649579"><ele>33.75</ele><time>2026-04-17T13:23:05Z</time></trkpt><trkpt lat="43.76617159643069" lon="10.612005701127979"><ele>34.5</ele><time>2026-04-17T13:23:06Z</time></trkpt><trkpt lat="43.76609075749372" lon="10.612172927769263"><ele>35.25</ele><time>2026-04-17T13:23:07Z</time></trkpt><trkpt lat="43.766017226098384" lon="10.612319739048035"><ele>36.0</ele><time>2026-04-17T13:23:08Z</time></trkpt><trkpt lat="43.765938074122055" lon="10.612454411363457"><ele>36.0</ele><time>2026-04-17T13:23:09Z</time></trkpt><trkpt lat="43.765851710238906" lon="10.612580278880044"><ele>36.0</ele><time>2026-04-17T13:23:10Z</time></trkpt><trkpt lat="43.76574102781138" lon="10.612700786932681"><ele>36.0</ele><time>2026-04-17T13:23:11Z</time></trkpt><trkpt lat="43.76561270500254" lon="10.612803774140007"><ele>36.0</ele><time>2026-04-17T13:23:12Z</time></trkpt><trkpt lat="43.76550730551704" lon="10.612909552217037"><ele>35.25</ele><time>2026-04-17T13:23:13Z</time></trkpt><trkpt lat="43.76541220211533" lon="10.61299443759249"><ele>34.5</ele><time>2026-04-17T13:23:14Z</time></trkpt><trkpt lat="43.7653189821472" lon="10.613073487305686"><ele>33.75</ele><time>2026-04-17T13:23:15Z</time></trkpt><trkpt lat="43.765218423374186" lon="10.613152476932427"><ele>33.0</ele><time>2026-04-17T13:23:16Z</time></trkpt><trkpt lat="43.76511587307861" lon="10.613222714414583"><ele>33.0</ele><time>2026-04-17T13:23:17Z</time></trkpt><trkpt lat="43.764998775707944" lon="10.613285627710647"><ele>33.0</ele><time>2026-04-17T13:23:18Z</time></trkpt><trkpt lat="43.76488139585723" lon="10.613342796020065"><ele>33.0</ele><time>2026-04-17T13:23:19Z</time></trkpt><trkpt lat="43.76474757122157" lon="10.613460071242278"><ele>33.0</ele><time>2026-04-17T13:23:20Z</time></trkpt><trkpt lat="43.76459727098384" lon="10.613568782091075"><ele>32.25</ele><time>2026-04-17T13:23:21Z</time></trkpt><trkpt lat="43.76445526247758" lon="10.613677725338015"><ele>31.5</ele><time>2026-04-17T13:23:22Z</time></trkpt><trkpt lat="43.764335956664745" lon="10.61376914512578"><ele>30.75</ele><time>2026-04-17T13:23:23Z</time></trkpt><trkpt lat="43.764205599802466" lon="10.613866699849863"><ele>30.0</ele><time>2026-04-17T13:23:24Z</time></trkpt><trkpt lat="43.764069980211126" lon="10.613955805923075"><ele>30.0</ele><time>2026-04-17T13:23:25Z</time></trkpt><trkpt lat="43.76395413900303" lon="10.614015703800955"><ele>30.0</ele><time>2026-04-17T13:23:26Z</time></trkpt><trkpt lat="43.76385399771167" lon="10.614065506274484"><ele>30.0</ele><time>2026-04-17T13:23:27Z</time></trkpt><trkpt lat="43.76375778932373" lon="10.614144085529173"><ele>30.0</ele><time>2026-04-17T13:23:28Z</time></trkpt><trkpt lat="43.76366499450424" lon="10.614265609440729"><ele>30.0</ele><time>2026-04-17T13:23:29Z</time></trkpt><trkpt lat="43.76359515855984" lon="10.614399388004879"><ele>30.0</ele><time>2026-04-17T13:23:30Z</time></trkpt><trkpt lat="43.76354080509475" lon="10.614522912578787"><ele>30.0</ele><time>2026-04-17T13:23:31Z</time></trkpt><trkpt lat="43.763463231559115" lon="10.614620511210699"><ele>30.0</ele><time>2026-04-17T13:23:32Z</time></trkpt><trkpt lat="43.76333376183673" lon="10.6147139746936"><ele>28.0</ele><time>2026-04-17T13:23:33Z</time></trkpt><trkpt lat="43.76317519599916" lon="10.614811516741414"><ele>26.0</ele><time>2026-04-17T13:23:34Z</time></trkpt><trkpt lat="43.76302214965017" lon="10.614919962785091"><ele>24.0</ele><time>2026-04-17T13:23:35Z</time></trkpt><trkpt lat="43.762893644969765" lon="10.615022089449143"><ele>24.0</ele><time>2026-04-17T13:23:36Z</time></trkpt><trkpt lat="43.76277690162321" lon="10.6151160715412"><ele>24.0</ele><time>2026-04-17T13:23:37Z</time></trkpt><trkpt lat="43.762641794765415" lon="10.615219951881036"><ele>24.0</ele><time>2026-04-17T13:23:38Z</time></trkpt><trkpt lat="43.76248980420592" lon="10.615362771744156"><ele>23.333333333333332</ele><time>2026-04-17T13:23:39Z</time></trkpt><trkpt lat="43.76233731154836" lon="10.615499857498538"><ele>22.666666666666664</ele><time>2026-04-17T13:23:40Z</time></trkpt><trkpt lat="43.7622033068676" lon="10.615617718957553"><ele>22.0</ele><time>2026-04-17T13:23:41Z</time></trkpt><trkpt lat="43.76207622588285" lon="10.615716479409825"><ele>22.0</ele><time>2026-04-17T13:23:42Z</time></trkpt><trkpt lat="43.76194227512014" lon="10.615832553106923"><ele>22.0</ele><time>2026-04-17T13:23:43Z</time></trkpt><trkpt lat="43.76179950826679" lon="10.615958071599623"><ele>22.0</ele><time>2026-04-17T13:23:44Z</time></trkpt><trkpt lat="43.76165778816023" lon="10.616096074387828"><ele>21.666666666666664</ele><time>2026-04-17T13:23:45Z</time></trkpt><trkpt lat="43.7615239853808" lon="10.616247706101115"><ele>21.333333333333332</ele><time>2026-04-17T13:23:46Z</time></trkpt><trkpt lat="43.76140645219052" lon="10.616388217710778"><ele>21.0</ele><time>2026-04-17T13:23:47Z</time></trkpt><trkpt lat="43.76130141333285" lon="10.61651337402621"><ele>21.0</ele><time>2026-04-17T13:23:48Z</time></trkpt><trkpt lat="43.76120394284265" lon="10.616627551546664"><ele>21.0</ele><time>2026-04-17T13:23:49Z</time></trkpt><trkpt lat="43.76110669603673" lon="10.616737409655567"><ele>21.0</ele><time>2026-04-17T13:23:50Z</time></trkpt><trkpt lat="43.761043462999446" lon="10.616829465042853"><ele>21.0</ele><time>2026-04-17T13:23:51Z</time></trkpt><trkpt lat="43.76097552217548" lon="10.616906499019336"><ele>21.0</ele><time>2026-04-17T13:23:52Z</time></trkpt><trkpt lat="43.760879563707825" lon="10.616972489321359"><ele>20.5</ele><time>2026-04-17T13:23:53Z</time></trkpt><trkpt lat="43.76075371993124" lon="10.617037402951258"><ele>20.0</ele><time>2026-04-17T13:23:54Z</time></trkpt><trkpt lat="43.76061074411661" lon="10.61709263328069"><ele>19.5</ele><time>2026-04-17T13:23:55Z</time></trkpt><trkpt lat="43.7604599807894" lon="10.617153957184524"><ele>19.0</ele><time>2026-04-17T13:23:56Z</time></trkpt><trkpt lat="43.760304525859546" lon="10.617215623546212"><ele>20.0</ele><time>2026-04-17T13:23:57Z</time></trkpt><trkpt lat="43.76013257675772" lon="10.617274413850756"><ele>21.0</ele><time>2026-04-17T13:23:58Z</time></trkpt><trkpt lat="43.759951964073075" lon="10.61732569118969"><ele>22.0</ele><time>2026-04-17T13:23:59Z</time></trkpt><trkpt lat="43.7597724434112" lon="10.6173875399133"><ele>22.0</ele><time>2026-04-17T13:24:00Z</time></trkpt><trkpt lat="43.75959979032879" lon="10.617448715788084"><ele>22.0</ele><time>2026-04-17T13:24:01Z</time></trkpt><trkpt lat="43.75943329561847" lon="10.61749678567807"><ele>22.0</ele><time>2026-04-17T13:24:02Z</time></trkpt><trkpt lat="43.759273247288334" lon="10.617545281716037"><ele>22.0</ele><time>2026-04-17T13:24:03Z</time></trkpt><trkpt lat="43.759125259238544" lon="10.617592163804927"><ele>22.0</ele><time>2026-04-17T13:24:04Z</time></trkpt><trkpt lat="43.758975061575" lon="10.617631394996872"><ele>22.0</ele><time>2026-04-17T13:24:05Z</time></trkpt><trkpt lat="43.75882734613859" lon="10.617675011330931"><ele>22.0</ele><time>2026-04-17T13:24:06Z</time></trkpt><trkpt lat="43.75868344367034" lon="10.617716717129941"><ele>22.0</ele><time>2026-04-17T13:24:07Z</time></trkpt><trkpt lat="43.758539445544024" lon="10.617764743972858"><ele>22.0</ele><time>2026-04-17T13:24:08Z</time></trkpt><trkpt lat="43.75839572349267" lon="10.617824055819348"><ele>22.0</ele><time>2026-04-17T13:24:09Z</time></trkpt><trkpt lat="43.75825883867033" lon="10.617901934149826"><ele>20.5</ele><time>2026-04-17T13:24:10Z</time></trkpt><trkpt lat="43.75813440203054" lon="10.61799349484305"><ele>19.0</ele><time>2026-04-17T13:24:11Z</time></trkpt><trkpt lat="43.7580093639942" lon="10.618094048852784"><ele>17.5</ele><time>2026-04-17T13:24:12Z</time></trkpt><trkpt lat="43.75788194493887" lon="10.618194760547254"><ele>16.0</ele><time>2026-04-17T13:24:13Z</time></trkpt><trkpt lat="43.75773800342476" lon="10.618273575724624"><ele>15.666666666666666</ele><time>2026-04-17T13:24:14Z</time></trkpt><trkpt lat="43.757565343609954" lon="10.618338834425357"><ele>15.333333333333332</ele><time>2026-04-17T13:24:15Z</time></trkpt><trkpt lat="43.75737261368924" lon="10.61839882006557"><ele>15.0</ele><time>2026-04-17T13:24:16Z</time></trkpt><trkpt lat="43.75717412540393" lon="10.618459895006552"><ele>15.0</ele><time>2026-04-17T13:24:17Z</time></trkpt><trkpt lat="43.75697834126112" lon="10.6185185266181"><ele>15.0</ele><time>2026-04-17T13:24:18Z</time></trkpt><trkpt lat="43.756776551883306" lon="10.618576950343144"><ele>15.0</ele><time>2026-04-17T13:24:19Z</time></trkpt><trkpt lat="43.75658353276393" lon="10.618631729134327"><ele>14.0</ele><time>2026-04-17T13:24:20Z</time></trkpt><trkpt lat="43.75640066253762" lon="10.618692219647436"><ele>13.0</ele><time>2026-04-17T13:24:21Z</time></trkpt><trkpt lat="43.756235654614905" lon="10.618747234251765"><ele>12.0</ele><time>2026-04-17T13:24:22Z</time></trkpt><trkpt lat="43.756077880920515" lon="10.618795709615108"><ele>12.75</ele><time>2026-04-17T13:24:23Z</time></trkpt><trkpt lat="43.755933271148116" lon="10.618832926784643"><ele>13.5</ele><time>2026-04-17T13:24:24Z</time></trkpt><trkpt lat="43.755802109814965" lon="10.618857403247166"><ele>14.25</ele><time>2026-04-17T13:24:25Z</time></trkpt><trkpt lat="43.755676732392736" lon="10.618871964870632"><ele>15.0</ele><time>2026-04-17T13:24:26Z</time></trkpt><trkpt lat="43.755557533332706" lon="10.618883730948536"><ele>15.0</ele><time>2026-04-17T13:24:27Z</time></trkpt><trkpt lat="43.7554193184224" lon="10.618902016916689"><ele>15.0</ele><time>2026-04-17T13:24:28Z</time></trkpt><trkpt lat="43.75526238984174" lon="10.61892438618362"><ele>15.0</ele><time>2026-04-17T13:24:29Z</time></trkpt><trkpt lat="43.75509070140159" lon="10.618943756899768"><ele>15.666666666666668</ele><time>2026-04-17T13:24:30Z</time></trkpt><trkpt lat="43.75491893176501" lon="10.618952151983752"><ele>16.333333333333336</ele><time>2026-04-17T13:24:31Z</time></trkpt><trkpt lat="43.75476142696826" lon="10.618971283886719"><ele>17.0</ele><time>2026-04-17T13:24:32Z</time></trkpt><trkpt lat="43.754602320124256" lon="10.618985378387206"><ele>17.0</ele><time>2026-04-17T13:24:33Z</time></trkpt><trkpt lat="43.75443167463034" lon="10.618994906216333"><ele>17.0</ele><time>2026-04-17T13:24:34Z</time></trkpt><trkpt lat="43.754257051080195" lon="10.619002135843788"><ele>17.0</ele><time>2026-04-17T13:24:35Z</time></trkpt><trkpt lat="43.754083224984946" lon="10.61900797524551"><ele>17.0</ele><time>2026-04-17T13:24:36Z</time></trkpt><trkpt lat="43.753896368734736" lon="10.619017167098566"><ele>17.0</ele><time>2026-04-17T13:24:37Z</time></trkpt><trkpt lat="43.753697203622686" lon="10.619024148855887"><ele>17.0</ele><time>2026-04-17T13:24:38Z</time></trkpt><trkpt lat="43.753498275183176" lon="10.619035740448446"><ele>17.0</ele><time>2026-04-17T13:24:39Z</time></trkpt><trkpt lat="43.75330167201609" lon="10.619048357228687"><ele>17.0</ele><time>2026-04-17T13:24:40Z</time></trkpt><trkpt lat="43.75309545694692" lon="10.619057920036344"><ele>17.0</ele><time>2026-04-17T13:24:41Z</time></trkpt><trkpt lat="43.75289305203407" lon="10.619073035909508"><ele>17.0</ele><time>2026-04-17T13:24:42Z</time></trkpt><trkpt lat="43.75271186007936" lon="10.61908436688802"><ele>17.0</ele><time>2026-04-17T13:24:43Z</time></trkpt><trkpt lat="43.75254029761784" lon="10.619094773455817"><ele>17.0</ele><time>2026-04-17T13:24:44Z</time></trkpt><trkpt lat="43.7523780897287" lon="10.619108806551619"><ele>16.75</ele><time>2026-04-17T13:24:45Z</time></trkpt><trkpt lat="43.75224654062875" lon="10.619115050486574"><ele>16.5</ele><time>2026-04-17T13:24:46Z</time></trkpt><trkpt lat="43.75213138873621" lon="10.61912121545082"><ele>16.25</ele><time>2026-04-17T13:24:47Z</time></trkpt><trkpt lat="43.752009951256085" lon="10.619131811620157"><ele>16.0</ele><time>2026-04-17T13:24:48Z</time></trkpt><trkpt lat="43.751883262442405" lon="10.619142936748272"><ele>16.5</ele><time>2026-04-17T13:24:49Z</time></trkpt><trkpt lat="43.75175400610745" lon="10.619155199516776"><ele>17.0</ele><time>2026-04-17T13:24:50Z</time></trkpt><trkpt lat="43.75163736351382" lon="10.619163314136102"><ele>17.5</ele><time>2026-04-17T13:24:51Z</time></trkpt><trkpt lat="43.75151419888723" lon="10.619163769537384"><ele>18.0</ele><time>2026-04-17T13:24:52Z</time></trkpt><trkpt lat="43.751366003213406" lon="10.619145765637269"><ele>18.0</ele><time>2026-04-17T13:24:53Z</time></trkpt><trkpt lat="43.75119895357968" lon="10.619101891580392"><ele>18.0</ele><time>2026-04-17T13:24:54Z</time></trkpt><trkpt lat="43.75104053127141" lon="10.619048368988441"><ele>18.0</ele><time>2026-04-17T13:24:55Z</time></trkpt><trkpt lat="43.75086655871578" lon="10.618983078060728"><ele>16.333333333333332</ele><time>2026-04-17T13:24:56Z</time></trkpt><trkpt lat="43.750681255645844" lon="10.618912928950612"><ele>14.666666666666666</ele><time>2026-04-17T13:24:57Z</time></trkpt><trkpt lat="43.75047126327442" lon="10.618828748730069"><ele>13.0</ele><time>2026-04-17T13:24:58Z</time></trkpt><trkpt lat="43.75027175837815" lon="10.618744995096936"><ele>16.333333333333332</ele><time>2026-04-17T13:24:59Z</time></trkpt><trkpt lat="43.75005404596185" lon="10.618647779885931"><ele>19.666666666666668</ele><time>2026-04-17T13:25:00Z</time></trkpt><trkpt lat="43.74986702759637" lon="10.61856864728106"><ele>23.0</ele><time>2026-04-17T13:25:01Z</time></trkpt><trkpt lat="43.74967519704752" lon="10.618493605638081"><ele>23.0</ele><time>2026-04-17T13:25:02Z</time></trkpt><trkpt lat="43.74947351871386" lon="10.618398772355818"><ele>23.0</ele><time>2026-04-17T13:25:03Z</time></trkpt><trkpt lat="43.74928193743971" lon="10.618321334172869"><ele>23.0</ele><time>2026-04-17T13:25:04Z</time></trkpt><trkpt lat="43.749099416522085" lon="10.618248057826671"><ele>20.666666666666668</ele><time>2026-04-17T13:25:05Z</time></trkpt><trkpt lat="43.74890967926674" lon="10.618172316072963"><ele>18.333333333333332</ele><time>2026-04-17T13:25:06Z</time></trkpt><trkpt lat="43.74873160208325" lon="10.618108204678986"><ele>16.0</ele><time>2026-04-17T13:25:07Z</time></trkpt><trkpt lat="43.748554741362035" lon="10.618043344538679"><ele>16.666666666666664</ele><time>2026-04-17T13:25:08Z</time></trkpt><trkpt lat="43.748366152447396" lon="10.61799114428423"><ele>17.333333333333332</ele><time>2026-04-17T13:25:09Z</time></trkpt><trkpt lat="43.74816643470265" lon="10.6179402746571"><ele>18.0</ele><time>2026-04-17T13:25:10Z</time></trkpt><trkpt lat="43.74797145511838" lon="10.617904394209958"><ele>18.0</ele><time>2026-04-17T13:25:11Z</time></trkpt><trkpt lat="43.74777556938419" lon="10.617876018173066"><ele>18.0</ele><time>2026-04-17T13:25:12Z</time></trkpt><trkpt lat="43.747574719952695" lon="10.617867702499355"><ele>18.0</ele><time>2026-04-17T13:25:13Z</time></trkpt><trkpt lat="43.747372803215484" lon="10.61788536916413"><ele>19.0</ele><time>2026-04-17T13:25:14Z</time></trkpt><trkpt lat="43.74719008801855" lon="10.617900191528854"><ele>20.0</ele><time>2026-04-17T13:25:15Z</time></trkpt><trkpt lat="43.74701742393074" lon="10.617908493072408"><ele>21.0</ele><time>2026-04-17T13:25:16Z</time></trkpt><trkpt lat="43.74684556111521" lon="10.617920868244388"><ele>21.0</ele><time>2026-04-17T13:25:17Z</time></trkpt><trkpt lat="43.74667631552808" lon="10.617938742087727"><ele>21.0</ele><time>2026-04-17T13:25:18Z</time></trkpt><trkpt lat="43.74654374701556" lon="10.617984960876052"><ele>21.0</ele><time>2026-04-17T13:25:19Z</time></trkpt><trkpt lat="43.74635000663015" lon="10.618045592518984"><ele>21.0</ele><time>2026-04-17T13:25:20Z</time></trkpt><trkpt lat="43.74615513023022" lon="10.61814869739349"><ele>21.0</ele><time>2026-04-17T13:25:21Z</time></trkpt><trkpt lat="43.74597538669827" lon="10.618275226761597"><ele>21.0</ele><time>2026-04-17T13:25:22Z</time></trkpt><trkpt lat="43.74580169809004" lon="10.618364827752204"><ele>21.333333333333332</ele><time>2026-04-17T13:25:23Z</time></trkpt><trkpt lat="43.74563203121101" lon="10.618458229056188"><ele>21.666666666666664</ele><time>2026-04-17T13:25:24Z</time></trkpt><trkpt lat="43.7454626963765" lon="10.618554409470889"><ele>22.0</ele><time>2026-04-17T13:25:25Z</time></trkpt><trkpt lat="43.745289573451196" lon="10.61865571630654"><ele>21.0</ele><time>2026-04-17T13:25:26Z</time></trkpt><trkpt lat="43.745091622532065" lon="10.618758005551959"><ele>20.0</ele><time>2026-04-17T13:25:27Z</time></trkpt><trkpt lat="43.74490342292336" lon="10.61886484732555"><ele>19.0</ele><time>2026-04-17T13:25:28Z</time></trkpt><trkpt lat="43.744737050937914" lon="10.618963572257345"><ele>19.0</ele><time>2026-04-17T13:25:29Z</time></trkpt><trkpt lat="43.74457794908594" lon="10.61905088408117"><ele>19.0</ele><time>2026-04-17T13:25:30Z</time></trkpt><trkpt lat="43.74442812525813" lon="10.619150809782159"><ele>19.0</ele><time>2026-04-17T13:25:31Z</time></trkpt><trkpt lat="43.74427697815077" lon="10.619319589941432"><ele>18.0</ele><time>2026-04-17T13:25:32Z</time></trkpt><trkpt lat="43.74414369799468" lon="10.619429877803897"><ele>17.0</ele><time>2026-04-17T13:25:33Z</time></trkpt><trkpt lat="43.74400685832451" lon="10.619592795215876"><ele>16.0</ele><time>2026-04-17T13:25:34Z</time></trkpt><trkpt lat="43.743871937664586" lon="10.619756279879969"><ele>16.0</ele><time>2026-04-17T13:25:35Z</time></trkpt><trkpt lat="43.7437355838645" lon="10.619923423252743"><ele>16.0</ele><time>2026-04-17T13:25:36Z</time></trkpt><trkpt lat="43.74360575899951" lon="10.620070388941807"><ele>16.0</ele><time>2026-04-17T13:25:37Z</time></trkpt><trkpt lat="43.74349551942199" lon="10.620195144208747"><ele>15.75</ele><time>2026-04-17T13:25:38Z</time></trkpt><trkpt lat="43.74339111027235" lon="10.620317419815771"><ele>15.5</ele><time>2026-04-17T13:25:39Z</time></trkpt><trkpt lat="43.743292865134855" lon="10.620436539655037"><ele>15.25</ele><time>2026-04-17T13:25:40Z</time></trkpt><trkpt lat="43.74320334021241" lon="10.62054385612583"><ele>15.0</ele><time>2026-04-17T13:25:41Z</time></trkpt><trkpt lat="43.7430971649347" lon="10.62067599434795"><ele>15.0</ele><time>2026-04-17T13:25:42Z</time></trkpt><trkpt lat="43.74298900841686" lon="10.62079937475251"><ele>15.0</ele><time>2026-04-17T13:25:43Z</time></trkpt><trkpt lat="43.74286942490233" lon="10.620904962756653"><ele>15.0</ele><time>2026-04-17T13:25:44Z</time></trkpt><trkpt lat="43.7427320693124" lon="10.620999704303657"><ele>15.0</ele><time>2026-04-17T13:25:45Z</time></trkpt><trkpt lat="43.742571271220584" lon="10.621080681133169"><ele>14.0</ele><time>2026-04-17T13:25:46Z</time></trkpt><trkpt lat="43.7424076350349" lon="10.621146726665673"><ele>13.0</ele><time>2026-04-17T13:25:47Z</time></trkpt><trkpt lat="43.74225556678844" lon="10.621197747232198"><ele>12.0</ele><time>2026-04-17T13:25:48Z</time></trkpt><trkpt lat="43.74211780665144" lon="10.621240512285546"><ele>12.0</ele><time>2026-04-17T13:25:49Z</time></trkpt><trkpt lat="43.74198982339233" lon="10.621273615761611"><ele>12.0</ele><time>2026-04-17T13:25:50Z</time></trkpt><trkpt lat="43.741856977211455" lon="10.621294240731237"><ele>12.0</ele><time>2026-04-17T13:25:51Z</time></trkpt><trkpt lat="43.741703335642555" lon="10.621306978528853"><ele>12.0</ele><time>2026-04-17T13:25:52Z</time></trkpt><trkpt lat="43.74153259869784" lon="10.621285222100544"><ele>12.333333333333332</ele><time>2026-04-17T13:25:53Z</time></trkpt><trkpt lat="43.74135785472613" lon="10.621235130137778"><ele>12.666666666666666</ele><time>2026-04-17T13:25:54Z</time></trkpt><trkpt lat="43.74119897985101" lon="10.62119636251515"><ele>13.0</ele><time>2026-04-17T13:25:55Z</time></trkpt><trkpt lat="43.741061231011635" lon="10.621167997399784"><ele>17.666666666666664</ele><time>2026-04-17T13:25:56Z</time></trkpt><trkpt lat="43.7409161629526" lon="10.621136978606758"><ele>22.333333333333332</ele><time>2026-04-17T13:25:57Z</time></trkpt><trkpt lat="43.74076209626953" lon="10.621100062607926"><ele>27.0</ele><time>2026-04-17T13:25:58Z</time></trkpt><trkpt lat="43.740594497876685" lon="10.621062178152112"><ele>27.0</ele><time>2026-04-17T13:25:59Z</time></trkpt><trkpt lat="43.74042633871447" lon="10.62102952210441"><ele>27.0</ele><time>2026-04-17T13:26:00Z</time></trkpt><trkpt lat="43.74027646336312" lon="10.621013373313978"><ele>27.0</ele><time>2026-04-17T13:26:01Z</time></trkpt><trkpt lat="43.74013453647654" lon="10.620964494123287"><ele>26.75</ele><time>2026-04-17T13:26:02Z</time></trkpt><trkpt lat="43.739988381387285" lon="10.620922428131678"><ele>26.5</ele><time>2026-04-17T13:26:03Z</time></trkpt><trkpt lat="43.739842280724844" lon="10.62089218520962"><ele>26.25</ele><time>2026-04-17T13:26:04Z</time></trkpt><trkpt lat="43.73969560792966" lon="10.620872305597274"><ele>26.0</ele><time>2026-04-17T13:26:05Z</time></trkpt><trkpt lat="43.739544321719606" lon="10.620874839708538"><ele>27.333333333333332</ele><time>2026-04-17T13:26:06Z</time></trkpt><trkpt lat="43.739379446945875" lon="10.620908927427621"><ele>28.666666666666664</ele><time>2026-04-17T13:26:07Z</time></trkpt><trkpt lat="43.739206396945626" lon="10.620968819469926"><ele>30.0</ele><time>2026-04-17T13:26:08Z</time></trkpt><trkpt lat="43.73903491981123" lon="10.621016187556206"><ele>30.0</ele><time>2026-04-17T13:26:09Z</time></trkpt><trkpt lat="43.73890844299369" lon="10.621098192327748"><ele>30.0</ele><time>2026-04-17T13:26:10Z</time></trkpt><trkpt lat="43.73875627923012" lon="10.621138458335395"><ele>30.0</ele><time>2026-04-17T13:26:11Z</time></trkpt><trkpt lat="43.73857637769998" lon="10.62118083284412"><ele>25.0</ele><time>2026-04-17T13:26:12Z</time></trkpt><trkpt lat="43.738419658570756" lon="10.62122804903428"><ele>20.0</ele><time>2026-04-17T13:26:13Z</time></trkpt><trkpt lat="43.738262264931976" lon="10.621248260596433"><ele>15.0</ele><time>2026-04-17T13:26:14Z</time></trkpt><trkpt lat="43.738107224410676" lon="10.621281239340288"><ele>15.0</ele><time>2026-04-17T13:26:15Z</time></trkpt><trkpt lat="43.73794446331697" lon="10.62131622092224"><ele>15.0</ele><time>2026-04-17T13:26:16Z</time></trkpt><trkpt lat="43.73777217996788" lon="10.62134472068376"><ele>15.0</ele><time>2026-04-17T13:26:17Z</time></trkpt><trkpt lat="43.73760091287568" lon="10.621367223060602"><ele>15.5</ele><time>2026-04-17T13:26:18Z</time></trkpt><trkpt lat="43.737452391012965" lon="10.621364659885126"><ele>16.0</ele><time>2026-04-17T13:26:19Z</time></trkpt><trkpt lat="43.73734096586494" lon="10.621363143002517"><ele>16.5</ele><time>2026-04-17T13:26:20Z</time></trkpt><trkpt lat="43.73716570020356" lon="10.621390428237586"><ele>17.0</ele><time>2026-04-17T13:26:21Z</time></trkpt><trkpt lat="43.7370083956079" lon="10.621408172554169"><ele>17.75</ele><time>2026-04-17T13:26:22Z</time></trkpt><trkpt lat="43.73686094540379" lon="10.621425005573697"><ele>18.5</ele><time>2026-04-17T13:26:23Z</time></trkpt><trkpt lat="43.73672800218365" lon="10.621432414353801"><ele>19.25</ele><time>2026-04-17T13:26:24Z</time></trkpt><trkpt lat="43.736595040058106" lon="10.621441112171166"><ele>20.0</ele><time>2026-04-17T13:26:25Z</time></trkpt><trkpt lat="43.736455565798074" lon="10.621449346913483"><ele>20.0</ele><time>2026-04-17T13:26:26Z</time></trkpt><trkpt lat="43.736309177374295" lon="10.621466828170977"><ele>20.0</ele><time>2026-04-17T13:26:27Z</time></trkpt><trkpt lat="43.736149721165205" lon="10.621471987147427"><ele>20.0</ele><time>2026-04-17T13:26:28Z</time></trkpt><trkpt lat="43.735991018608935" lon="10.621470704356499"><ele>20.25</ele><time>2026-04-17T13:26:29Z</time></trkpt><trkpt lat="43.735844155593206" lon="10.621456794753056"><ele>20.5</ele><time>2026-04-17T13:26:30Z</time></trkpt><trkpt lat="43.73570268159533" lon="10.62145150282188"><ele>20.75</ele><time>2026-04-17T13:26:31Z</time></trkpt><trkpt lat="43.73556344080065" lon="10.621455365498601"><ele>21.0</ele><time>2026-04-17T13:26:32Z</time></trkpt><trkpt lat="43.73543347156994" lon="10.621432136878905"><ele>21.0</ele><time>2026-04-17T13:26:33Z</time></trkpt><trkpt lat="43.735312711203655" lon="10.621419829309792"><ele>21.0</ele><time>2026-04-17T13:26:34Z</time></trkpt><trkpt lat="43.73519806497463" lon="10.62142496570784"><ele>21.0</ele><time>2026-04-17T13:26:35Z</time></trkpt><trkpt lat="43.73508537707161" lon="10.621388456123443"><ele>21.0</ele><time>2026-04-17T13:26:36Z</time></trkpt><trkpt lat="43.73496334195589" lon="10.621321193294756"><ele>22.666666666666664</ele><time>2026-04-17T13:26:37Z</time></trkpt><trkpt lat="43.73483392855138" lon="10.62122468728068"><ele>24.333333333333332</ele><time>2026-04-17T13:26:38Z</time></trkpt><trkpt lat="43.734701145574604" lon="10.621092903147533"><ele>26.0</ele><time>2026-04-17T13:26:39Z</time></trkpt><trkpt lat="43.73458356721757" lon="10.620973793203882"><ele>26.0</ele><time>2026-04-17T13:26:40Z</time></trkpt><trkpt lat="43.734474944135144" lon="10.620876981855137"><ele>26.0</ele><time>2026-04-17T13:26:41Z</time></trkpt><trkpt lat="43.73436066121883" lon="10.62077388015456"><ele>26.0</ele><time>2026-04-17T13:26:42Z</time></trkpt><trkpt lat="43.73424280899511" lon="10.620664000976412"><ele>26.0</ele><time>2026-04-17T13:26:43Z</time></trkpt><trkpt lat="43.73411619474387" lon="10.620552312367417"><ele>24.0</ele><time>2026-04-17T13:26:44Z</time></trkpt><trkpt lat="43.73400446716775" lon="10.620451780060082"><ele>22.0</ele><time>2026-04-17T13:26:45Z</time></trkpt><trkpt lat="43.733897499316" lon="10.620358059742195"><ele>20.0</ele><time>2026-04-17T13:26:46Z</time></trkpt><trkpt lat="43.73378834949705" lon="10.62026105085692"><ele>18.0</ele><time>2026-04-17T13:26:47Z</time></trkpt><trkpt lat="43.733685829703305" lon="10.620160182354677"><ele>18.0</ele><time>2026-04-17T13:26:48Z</time></trkpt><trkpt lat="43.73359682948476" lon="10.620077506630285"><ele>18.0</ele><time>2026-04-17T13:26:49Z</time></trkpt><trkpt lat="43.73351703933529" lon="10.620006532672761"><ele>18.0</ele><time>2026-04-17T13:26:50Z</time></trkpt><trkpt lat="43.73343306057761" lon="10.619937075428563"><ele>18.0</ele><time>2026-04-17T13:26:51Z</time></trkpt><trkpt lat="43.73334020012036" lon="10.619861281721699"><ele>18.0</ele><time>2026-04-17T13:26:52Z</time></trkpt><trkpt lat="43.73324147376813" lon="10.619768850209498"><ele>17.6</ele><time>2026-04-17T13:26:53Z</time></trkpt><trkpt lat="43.73314266685977" lon="10.619681866404985"><ele>17.200000000000003</ele><time>2026-04-17T13:26:54Z</time></trkpt><trkpt lat="43.73306345307988" lon="10.619613572859736"><ele>16.8</ele><time>2026-04-17T13:26:55Z</time></trkpt><trkpt lat="43.73300226768706" lon="10.619559873836492"><ele>16.400000000000002</ele><time>2026-04-17T13:26:56Z</time></trkpt><trkpt lat="43.732903650182585" lon="10.619478795017853"><ele>16.0</ele><time>2026-04-17T13:26:58Z</time></trkpt><trkpt lat="43.73282884946241" lon="10.619417730700002"><ele>16.0</ele><time>2026-04-17T13:27:01Z</time></trkpt><trkpt lat="43.73273490238437" lon="10.619311310707412"><ele>16.0</ele><time>2026-04-17T13:27:03Z</time></trkpt><trkpt lat="43.732631210404534" lon="10.61921889072872"><ele>16.0</ele><time>2026-04-17T13:27:04Z</time></trkpt><trkpt lat="43.73251338497083" lon="10.619113064786827"><ele>16.0</ele><time>2026-04-17T13:27:05Z</time></trkpt><trkpt lat="43.732397543090684" lon="10.619019397553197"><ele>15.75</ele><time>2026-04-17T13:27:06Z</time></trkpt><trkpt lat="43.732287984870155" lon="10.618914555290475"><ele>15.5</ele><time>2026-04-17T13:27:07Z</time></trkpt><trkpt lat="43.73217592708749" lon="10.618817558516742"><ele>15.25</ele><time>2026-04-17T13:27:08Z</time></trkpt><trkpt lat="43.73206819282615" lon="10.61872423961658"><ele>15.0</ele><time>2026-04-17T13:27:09Z</time></trkpt><trkpt lat="43.731945520527724" lon="10.618614341644893"><ele>15.0</ele><time>2026-04-17T13:27:10Z</time></trkpt><trkpt lat="43.73185867873076" lon="10.618533112916891"><ele>15.0</ele><time>2026-04-17T13:27:11Z</time></trkpt><trkpt lat="43.73175416740255" lon="10.618436089258214"><ele>15.0</ele><time>2026-04-17T13:27:12Z</time></trkpt><trkpt lat="43.73164993592604" lon="10.618342395616493"><ele>15.0</ele><time>2026-04-17T13:27:13Z</time></trkpt><trkpt lat="43.731543178529876" lon="10.618248416656263"><ele>15.0</ele><time>2026-04-17T13:27:14Z</time></trkpt><trkpt lat="43.731431781265655" lon="10.618146699649824"><ele>15.0</ele><time>2026-04-17T13:27:15Z</time></trkpt><trkpt lat="43.731320069801185" lon="10.618040822042174"><ele>15.0</ele><time>2026-04-17T13:27:16Z</time></trkpt><trkpt lat="43.73121075839004" lon="10.617927489285611"><ele>15.0</ele><time>2026-04-17T13:27:17Z</time></trkpt><trkpt lat="43.73109905523076" lon="10.617817116225183"><ele>15.0</ele><time>2026-04-17T13:27:18Z</time></trkpt><trkpt lat="43.73098267248463" lon="10.617725880586262"><ele>15.0</ele><time>2026-04-17T13:27:19Z</time></trkpt><trkpt lat="43.730876890916385" lon="10.61763335488975"><ele>15.0</ele><time>2026-04-17T13:27:20Z</time></trkpt><trkpt lat="43.730777172306475" lon="10.617543768330403"><ele>15.0</ele><time>2026-04-17T13:27:21Z</time></trkpt><trkpt lat="43.73068796589016" lon="10.617476491790336"><ele>15.0</ele><time>2026-04-17T13:27:22Z</time></trkpt><trkpt lat="43.73058121616776" lon="10.617387821461294"><ele>15.0</ele><time>2026-04-17T13:27:23Z</time></trkpt><trkpt lat="43.73047303317266" lon="10.617326204071748"><ele>15.0</ele><time>2026-04-17T13:27:24Z</time></trkpt><trkpt lat="43.73035369282502" lon="10.617280853515876"><ele>15.0</ele><time>2026-04-17T13:27:25Z</time></trkpt><trkpt lat="43.730222770887785" lon="10.61725776993474"><ele>15.0</ele><time>2026-04-17T13:27:26Z</time></trkpt><trkpt lat="43.73009360611165" lon="10.617241938024728"><ele>15.0</ele><time>2026-04-17T13:27:27Z</time></trkpt><trkpt lat="43.72998142195325" lon="10.61721919139844"><ele>15.0</ele><time>2026-04-17T13:27:28Z</time></trkpt><trkpt lat="43.729851767140644" lon="10.617227445629752"><ele>15.0</ele><time>2026-04-17T13:27:29Z</time></trkpt><trkpt lat="43.72972850498952" lon="10.61722782886463"><ele>15.0</ele><time>2026-04-17T13:27:30Z</time></trkpt><trkpt lat="43.72958489419878" lon="10.617229271687247"><ele>15.0</ele><time>2026-04-17T13:27:31Z</time></trkpt><trkpt lat="43.72942622673435" lon="10.617229044514085"><ele>15.0</ele><time>2026-04-17T13:27:32Z</time></trkpt><trkpt lat="43.729271954176504" lon="10.617224868075466"><ele>15.666666666666668</ele><time>2026-04-17T13:27:33Z</time></trkpt><trkpt lat="43.72910641168457" lon="10.617215186420449"><ele>16.333333333333336</ele><time>2026-04-17T13:27:34Z</time></trkpt><trkpt lat="43.72893724645725" lon="10.617201644014669"><ele>17.0</ele><time>2026-04-17T13:27:35Z</time></trkpt><trkpt lat="43.72881649878717" lon="10.617203397816096"><ele>17.0</ele><time>2026-04-17T13:27:36Z</time></trkpt><trkpt lat="43.72869699898569" lon="10.617197031882192"><ele>17.0</ele><time>2026-04-17T13:27:37Z</time></trkpt><trkpt lat="43.72858010599528" lon="10.617186974855157"><ele>17.0</ele><time>2026-04-17T13:27:38Z</time></trkpt><trkpt lat="43.72846992513765" lon="10.617184042483478"><ele>17.0</ele><time>2026-04-17T13:27:39Z</time></trkpt><trkpt lat="43.728350596184534" lon="10.617180342684488"><ele>17.4</ele><time>2026-04-17T13:27:40Z</time></trkpt><trkpt lat="43.728223987999186" lon="10.617176798634112"><ele>17.799999999999997</ele><time>2026-04-17T13:27:41Z</time></trkpt><trkpt lat="43.72810821380988" lon="10.617170279439703"><ele>18.2</ele><time>2026-04-17T13:27:42Z</time></trkpt><trkpt lat="43.72800851857088" lon="10.617165827025577"><ele>18.599999999999998</ele><time>2026-04-17T13:27:43Z</time></trkpt><trkpt lat="43.72790784313099" lon="10.617161949605197"><ele>19.0</ele><time>2026-04-17T13:27:44Z</time></trkpt><trkpt lat="43.727807878545306" lon="10.61715961332169"><ele>19.0</ele><time>2026-04-17T13:27:45Z</time></trkpt><trkpt lat="43.72770788735287" lon="10.61715814661373"><ele>19.0</ele><time>2026-04-17T13:27:46Z</time></trkpt><trkpt lat="43.727606223855325" lon="10.617156359766435"><ele>19.0</ele><time>2026-04-17T13:27:47Z</time></trkpt><trkpt lat="43.72750421971343" lon="10.617151949480496"><ele>19.0</ele><time>2026-04-17T13:27:48Z</time></trkpt><trkpt lat="43.72740533470061" lon="10.61714104298661"><ele>19.0</ele><time>2026-04-17T13:27:49Z</time></trkpt><trkpt lat="43.72732090509069" lon="10.617141199988684"><ele>19.0</ele><time>2026-04-17T13:27:50Z</time></trkpt><trkpt lat="43.72724838854" lon="10.617129225847643"><ele>19.0</ele><time>2026-04-17T13:27:51Z</time></trkpt><trkpt lat="43.72715843120979" lon="10.61713185460639"><ele>19.0</ele><time>2026-04-17T13:27:52Z</time></trkpt><trkpt lat="43.727080036768484" lon="10.617142345771185"><ele>19.0</ele><time>2026-04-17T13:27:53Z</time></trkpt><trkpt lat="43.72700788001645" lon="10.617136413309192"><ele>19.0</ele><time>2026-04-17T13:27:54Z</time></trkpt><trkpt lat="43.726906666753976" lon="10.617134992389555"><ele>19.0</ele><time>2026-04-17T13:27:56Z</time></trkpt><trkpt lat="43.72684122606355" lon="10.617135668696637"><ele>18.666666666666664</ele><time>2026-04-17T13:28:01Z</time></trkpt><trkpt lat="43.726754813547394" lon="10.61712525594188"><ele>18.333333333333332</ele><time>2026-04-17T13:28:04Z</time></trkpt><trkpt lat="43.726686563205995" lon="10.617126742534282"><ele>18.0</ele><time>2026-04-17T13:28:06Z</time></trkpt><trkpt lat="43.72661321691092" lon="10.61712467659411"><ele>17.666666666666668</ele><time>2026-04-17T13:28:08Z</time></trkpt><trkpt lat="43.726541747896306" lon="10.617117136004554"><ele>17.333333333333336</ele><time>2026-04-17T13:28:10Z</time></trkpt><trkpt lat="43.72646339362568" lon="10.617117398079616"><ele>17.0</ele><time>2026-04-17T13:28:13Z</time></trkpt><trkpt lat="43.72637326961244" lon="10.617102870789545"><ele>16.999999999999996</ele><time>2026-04-17T13:28:25Z</time></trkpt><trkpt lat="43.72630531432507" lon="10.617100427655517"><ele>17.0</ele><time>2026-04-17T13:28:26Z</time></trkpt><trkpt lat="43.726222874960655" lon="10.617097463778782"><ele>17.0</ele><time>2026-04-17T13:28:27Z</time></trkpt><trkpt lat="43.72615895723468" lon="10.61709517912036"><ele>17.0</ele><time>2026-04-17T13:28:28Z</time></trkpt><trkpt lat="43.72607739739895" lon="10.61709225954112"><ele>17.0</ele><time>2026-04-17T13:28:30Z</time></trkpt><trkpt lat="43.7260145375978" lon="10.617097043807444"><ele>16.999999999999996</ele><time>2026-04-17T13:28:33Z</time></trkpt><trkpt lat="43.72594117723389" lon="10.617093003270522"><ele>17.0</ele><time>2026-04-17T13:28:37Z</time></trkpt><trkpt lat="43.72586288012192" lon="10.617087964591642"><ele>17.0</ele><time>2026-04-17T13:28:40Z</time></trkpt><trkpt lat="43.72575255266948" lon="10.6170794755888"><ele>17.0</ele><time>2026-04-17T13:28:42Z</time></trkpt><trkpt lat="43.72567377794449" lon="10.617071921528451"><ele>17.0</ele><time>2026-04-17T13:28:43Z</time></trkpt><trkpt lat="43.72559160420053" lon="10.617065047377945"><ele>17.0</ele><time>2026-04-17T13:28:44Z</time></trkpt><trkpt lat="43.725491613933755" lon="10.6170643561338"><ele>17.0</ele><time>2026-04-17T13:28:45Z</time></trkpt><trkpt lat="43.72538590910715" lon="10.61706063474099"><ele>17.0</ele><time>2026-04-17T13:28:46Z</time></trkpt><trkpt lat="43.72526961765989" lon="10.617055731239564"><ele>17.0</ele><time>2026-04-17T13:28:47Z</time></trkpt><trkpt lat="43.72513527428665" lon="10.617051098416983"><ele>17.0</ele><time>2026-04-17T13:28:48Z</time></trkpt><trkpt lat="43.72499848050576" lon="10.617047676887802"><ele>17.0</ele><time>2026-04-17T13:28:49Z</time></trkpt><trkpt lat="43.72486694675751" lon="10.617064286482957"><ele>18.25</ele><time>2026-04-17T13:28:50Z</time></trkpt><trkpt lat="43.72474462043659" lon="10.617074305899388"><ele>19.5</ele><time>2026-04-17T13:28:51Z</time></trkpt><trkpt lat="43.72461176954397" lon="10.61710446313657"><ele>20.75</ele><time>2026-04-17T13:28:52Z</time></trkpt><trkpt lat="43.724470132840665" lon="10.617101614539907"><ele>22.0</ele><time>2026-04-17T13:28:53Z</time></trkpt><trkpt lat="43.72434908437239" lon="10.617159399031213"><ele>22.0</ele><time>2026-04-17T13:28:54Z</time></trkpt><trkpt lat="43.72421455226006" lon="10.61720955729495"><ele>22.0</ele><time>2026-04-17T13:28:55Z</time></trkpt><trkpt lat="43.72408285701805" lon="10.617270061916749"><ele>22.0</ele><time>2026-04-17T13:28:56Z</time></trkpt><trkpt lat="43.72396492253216" lon="10.617334256185508"><ele>22.0</ele><time>2026-04-17T13:28:57Z</time></trkpt><trkpt lat="43.72382487340951" lon="10.617389468308197"><ele>22.0</ele><time>2026-04-17T13:28:58Z</time></trkpt><trkpt lat="43.72368937044522" lon="10.617430407351636"><ele>22.0</ele><time>2026-04-17T13:28:59Z</time></trkpt><trkpt lat="43.72356753090989" lon="10.617473327668304"><ele>22.0</ele><time>2026-04-17T13:29:00Z</time></trkpt><trkpt lat="43.723448581626236" lon="10.617480699226865"><ele>22.0</ele><time>2026-04-17T13:29:01Z</time></trkpt><trkpt lat="43.723359833585384" lon="10.617485940098247"><ele>20.8</ele><time>2026-04-17T13:29:02Z</time></trkpt><trkpt lat="43.723265888327674" lon="10.617477321353178"><ele>19.6</ele><time>2026-04-17T13:29:03Z</time></trkpt><trkpt lat="43.723160580083615" lon="10.61743235719574"><ele>18.400000000000002</ele><time>2026-04-17T13:29:04Z</time></trkpt><trkpt lat="43.72305708427743" lon="10.6173683426692"><ele>17.200000000000003</ele><time>2026-04-17T13:29:05Z</time></trkpt><trkpt lat="43.72295971292086" lon="10.617276563803308"><ele>16.0</ele><time>2026-04-17T13:29:06Z</time></trkpt><trkpt lat="43.72288784472711" lon="10.617140974534733"><ele>16.0</ele><time>2026-04-17T13:29:07Z</time></trkpt><trkpt lat="43.72279649482813" lon="10.616987242842848"><ele>16.0</ele><time>2026-04-17T13:29:08Z</time></trkpt><trkpt lat="43.7227088320228" lon="10.616858754591194"><ele>16.0</ele><time>2026-04-17T13:29:09Z</time></trkpt><trkpt lat="43.7226521809677" lon="10.616753872350612"><ele>16.0</ele><time>2026-04-17T13:29:10Z</time></trkpt><trkpt lat="43.72260982493443" lon="10.616677422983201"><ele>16.0</ele><time>2026-04-17T13:29:11Z</time></trkpt><trkpt lat="43.72256121387969" lon="10.616616563049444"><ele>15.25</ele><time>2026-04-17T13:29:12Z</time></trkpt><trkpt lat="43.72247875117932" lon="10.616593192592337"><ele>14.5</ele><time>2026-04-17T13:29:13Z</time></trkpt><trkpt lat="43.722377064616076" lon="10.616632748064442"><ele>13.75</ele><time>2026-04-17T13:29:14Z</time></trkpt><trkpt lat="43.722250883290606" lon="10.616702333705271"><ele>13.0</ele><time>2026-04-17T13:29:15Z</time></trkpt><trkpt lat="43.72210028771442" lon="10.6167708604311"><ele>13.0</ele><time>2026-04-17T13:29:16Z</time></trkpt><trkpt lat="43.7219563260676" lon="10.616825374300959"><ele>13.0</ele><time>2026-04-17T13:29:17Z</time></trkpt><trkpt lat="43.72180705672836" lon="10.616885073791062"><ele>13.0</ele><time>2026-04-17T13:29:18Z</time></trkpt><trkpt lat="43.72163228710102" lon="10.616960169217242"><ele>12.0</ele><time>2026-04-17T13:29:19Z</time></trkpt><trkpt lat="43.72143392765929" lon="10.617040820212944"><ele>11.0</ele><time>2026-04-17T13:29:20.001Z</time></trkpt><trkpt lat="43.72122246962851" lon="10.61711907070657"><ele>10.0</ele><time>2026-04-17T13:29:21.001Z</time></trkpt><trkpt lat="43.72104654075539" lon="10.617181587998726"><ele>10.0</ele><time>2026-04-17T13:29:22.001Z</time></trkpt><trkpt lat="43.72089438528277" lon="10.617240605341491"><ele>10.0</ele><time>2026-04-17T13:29:23.001Z</time></trkpt><trkpt lat="43.720752474758605" lon="10.617295226740193"><ele>10.0</ele><time>2026-04-17T13:29:24.001Z</time></trkpt><trkpt lat="43.72060444856496" lon="10.617348716412579"><ele>10.0</ele><time>2026-04-17T13:29:25.001Z</time></trkpt><trkpt lat="43.72045122482139" lon="10.617406313581375"><ele>10.0</ele><time>2026-04-17T13:29:26.001Z</time></trkpt><trkpt lat="43.72030519149247" lon="10.61746652055609"><ele>10.0</ele><time>2026-04-17T13:29:27.001Z</time></trkpt><trkpt lat="43.720165972432326" lon="10.617518151715919"><ele>10.2</ele><time>2026-04-17T13:29:28.001Z</time></trkpt><trkpt lat="43.72004490037359" lon="10.617568660652884"><ele>10.4</ele><time>2026-04-17T13:29:29.001Z</time></trkpt><trkpt lat="43.719936284464595" lon="10.617612483370191"><ele>10.600000000000001</ele><time>2026-04-17T13:29:30.001Z</time></trkpt><trkpt lat="43.71983789581911" lon="10.617655011359348"><ele>10.8</ele><time>2026-04-17T13:29:31.001Z</time></trkpt><trkpt lat="43.719748553294394" lon="10.61768739184461"><ele>11.0</ele><time>2026-04-17T13:29:32.001Z</time></trkpt><trkpt lat="43.71965910187549" lon="10.617718570004175"><ele>11.0</ele><time>2026-04-17T13:29:33.001Z</time></trkpt><trkpt lat="43.71956703270762" lon="10.617754458494307"><ele>11.0</ele><time>2026-04-17T13:29:34.001Z</time></trkpt><trkpt lat="43.719481804796345" lon="10.617787783946968"><ele>11.0</ele><time>2026-04-17T13:29:35.001Z</time></trkpt><trkpt lat="43.7194003542694" lon="10.617815554453381"><ele>11.0</ele><time>2026-04-17T13:29:36.001Z</time></trkpt><trkpt lat="43.719315733659755" lon="10.617850415014344"><ele>11.0</ele><time>2026-04-17T13:29:37.001Z</time></trkpt><trkpt lat="43.71923734635674" lon="10.61788333970656"><ele>11.0</ele><time>2026-04-17T13:29:38.001Z</time></trkpt><trkpt lat="43.719168486083824" lon="10.617912124190216"><ele>10.5</ele><time>2026-04-17T13:29:39.001Z</time></trkpt><trkpt lat="43.71906524849282" lon="10.617954700360402"><ele>10.0</ele><time>2026-04-17T13:29:41.001Z</time></trkpt><trkpt lat="43.718990529303134" lon="10.61796191594506"><ele>9.5</ele><time>2026-04-17T13:29:42.001Z</time></trkpt><trkpt lat="43.71885473430354" lon="10.617771121543651"><ele>9.0</ele><time>2026-04-17T13:29:44.001Z</time></trkpt><trkpt lat="43.718811360430045" lon="10.617634747152486"><ele>8.75</ele><time>2026-04-17T13:29:45.001Z</time></trkpt><trkpt lat="43.71873615058927" lon="10.617498868088811"><ele>8.5</ele><time>2026-04-17T13:29:46.001Z</time></trkpt><trkpt lat="43.718637631031925" lon="10.617330663537304"><ele>8.25</ele><time>2026-04-17T13:29:47.001Z</time></trkpt><trkpt lat="43.71852565687197" lon="10.617174503278981"><ele>8.0</ele><time>2026-04-17T13:29:48.001Z</time></trkpt><trkpt lat="43.718421069538785" lon="10.617007425199807"><ele>8.0</ele><time>2026-04-17T13:29:49.001Z</time></trkpt><trkpt lat="43.71831086642661" lon="10.616849532041186"><ele>8.0</ele><time>2026-04-17T13:29:50.001Z</time></trkpt><trkpt lat="43.718191839943444" lon="10.616675439080604"><ele>8.0</ele><time>2026-04-17T13:29:51.001Z</time></trkpt><trkpt lat="43.718054805245245" lon="10.616481002284704"><ele>8.0</ele><time>2026-04-17T13:29:52.001Z</time></trkpt><trkpt lat="43.71792817216501" lon="10.616286328443891"><ele>8.0</ele><time>2026-04-17T13:29:53.001Z</time></trkpt><trkpt lat="43.71780704066956" lon="10.616100787339592"><ele>8.0</ele><time>2026-04-17T13:29:54.001Z</time></trkpt><trkpt lat="43.717691425025436" lon="10.61594561036283"><ele>8.666666666666666</ele><time>2026-04-17T13:29:55.001Z</time></trkpt><trkpt lat="43.7175790897682" lon="10.61577872957478"><ele>9.333333333333334</ele><time>2026-04-17T13:29:56.001Z</time></trkpt><trkpt lat="43.717471187385335" lon="10.61560604497779"><ele>10.0</ele><time>2026-04-17T13:29:57.001Z</time></trkpt><trkpt lat="43.717332553458014" lon="10.615421138994785"><ele>9.333333333333334</ele><time>2026-04-17T13:29:58.001Z</time></trkpt><trkpt lat="43.71721651676455" lon="10.615251182988228"><ele>8.666666666666666</ele><time>2026-04-17T13:29:59.001Z</time></trkpt><trkpt lat="43.717102232530976" lon="10.615091557925663"><ele>8.0</ele><time>2026-04-17T13:30:00.001Z</time></trkpt><trkpt lat="43.716981141650116" lon="10.614942325736312"><ele>8.333333333333332</ele><time>2026-04-17T13:30:01.001Z</time></trkpt><trkpt lat="43.71685526909523" lon="10.614813503450737"><ele>8.666666666666666</ele><time>2026-04-17T13:30:02.001Z</time></trkpt><trkpt lat="43.716722228163164" lon="10.614689397322"><ele>9.0</ele><time>2026-04-17T13:30:03.001Z</time></trkpt><trkpt lat="43.716578052301536" lon="10.614570303908353"><ele>9.0</ele><time>2026-04-17T13:30:04.001Z</time></trkpt><trkpt lat="43.71641893611554" lon="10.614465428630178"><ele>9.0</ele><time>2026-04-17T13:30:05.001Z</time></trkpt><trkpt lat="43.71624912256088" lon="10.614376617552866"><ele>9.0</ele><time>2026-04-17T13:30:06.001Z</time></trkpt><trkpt lat="43.716073109045084" lon="10.61429440690312"><ele>9.333333333333334</ele><time>2026-04-17T13:30:07.001Z</time></trkpt><trkpt lat="43.715895410848425" lon="10.614223565915582"><ele>9.666666666666668</ele><time>2026-04-17T13:30:08.001Z</time></trkpt><trkpt lat="43.71571284315414" lon="10.614161983793062"><ele>10.0</ele><time>2026-04-17T13:30:09.001Z</time></trkpt><trkpt lat="43.715529135895444" lon="10.614122532179115"><ele>10.0</ele><time>2026-04-17T13:30:10.001Z</time></trkpt><trkpt lat="43.715344281554884" lon="10.614098602726271"><ele>10.0</ele><time>2026-04-17T13:30:11.001Z</time></trkpt><trkpt lat="43.71515051807074" lon="10.6140911534342"><ele>10.0</ele><time>2026-04-17T13:30:12.001Z</time></trkpt><trkpt lat="43.714949835877164" lon="10.614108527761001"><ele>10.0</ele><time>2026-04-17T13:30:13.001Z</time></trkpt><trkpt lat="43.714734503109646" lon="10.61414546621503"><ele>10.0</ele><time>2026-04-17T13:30:14.001Z</time></trkpt><trkpt lat="43.714515346772984" lon="10.614183348984257"><ele>10.0</ele><time>2026-04-17T13:30:15.001Z</time></trkpt><trkpt lat="43.714292467041666" lon="10.614210985505164"><ele>10.0</ele><time>2026-04-17T13:30:16.001Z</time></trkpt><trkpt lat="43.71406315507812" lon="10.614238075163206"><ele>10.0</ele><time>2026-04-17T13:30:17.001Z</time></trkpt><trkpt lat="43.71385525617453" lon="10.614262171534019"><ele>10.0</ele><time>2026-04-17T13:30:18.001Z</time></trkpt><trkpt lat="43.7136667403829" lon="10.614288864840995"><ele>9.666666666666668</ele><time>2026-04-17T13:30:19.001Z</time></trkpt><trkpt lat="43.713487714502605" lon="10.61431369235475"><ele>9.333333333333334</ele><time>2026-04-17T13:30:20.001Z</time></trkpt><trkpt lat="43.71330448025407" lon="10.61433523349819"><ele>9.0</ele><time>2026-04-17T13:30:21.001Z</time></trkpt><trkpt lat="43.713118458783015" lon="10.614354590548547"><ele>9.0</ele><time>2026-04-17T13:30:22.001Z</time></trkpt><trkpt lat="43.712932072325295" lon="10.614377423089149"><ele>9.0</ele><time>2026-04-17T13:30:23.001Z</time></trkpt><trkpt lat="43.71275588081704" lon="10.614399081102425"><ele>9.0</ele><time>2026-04-17T13:30:24.001Z</time></trkpt><trkpt lat="43.71259075085432" lon="10.614417615665419"><ele>8.666666666666666</ele><time>2026-04-17T13:30:25.001Z</time></trkpt><trkpt lat="43.712420682835855" lon="10.614433234860913"><ele>8.333333333333332</ele><time>2026-04-17T13:30:26.001Z</time></trkpt><trkpt lat="43.71225681464142" lon="10.614450550881202"><ele>8.0</ele><time>2026-04-17T13:30:27.001Z</time></trkpt><trkpt lat="43.71209823569811" lon="10.614466998750252"><ele>8.666666666666666</ele><time>2026-04-17T13:30:28.001Z</time></trkpt><trkpt lat="43.71192659263092" lon="10.614497099648688"><ele>9.333333333333334</ele><time>2026-04-17T13:30:29.001Z</time></trkpt><trkpt lat="43.711763277041285" lon="10.614523724404686"><ele>10.0</ele><time>2026-04-17T13:30:30.001Z</time></trkpt><trkpt lat="43.711602985477725" lon="10.614536168155876"><ele>10.0</ele><time>2026-04-17T13:30:31.001Z</time></trkpt><trkpt lat="43.71143726096795" lon="10.614551092323929"><ele>10.0</ele><time>2026-04-17T13:30:32.001Z</time></trkpt><trkpt lat="43.711259220857734" lon="10.61457480979243"><ele>10.0</ele><time>2026-04-17T13:30:33.001Z</time></trkpt><trkpt lat="43.71109353442647" lon="10.614598945522818"><ele>10.25</ele><time>2026-04-17T13:30:34.001Z</time></trkpt><trkpt lat="43.710941579552895" lon="10.6146161106234"><ele>10.5</ele><time>2026-04-17T13:30:35.001Z</time></trkpt><trkpt lat="43.710798707208745" lon="10.614635894484492"><ele>10.75</ele><time>2026-04-17T13:30:36.001Z</time></trkpt><trkpt lat="43.71066771019524" lon="10.614651552750413"><ele>11.0</ele><time>2026-04-17T13:30:37.001Z</time></trkpt><trkpt lat="43.710532459572306" lon="10.614666925910479"><ele>11.0</ele><time>2026-04-17T13:30:38.001Z</time></trkpt><trkpt lat="43.71039785562912" lon="10.614680893137129"><ele>11.0</ele><time>2026-04-17T13:30:39.001Z</time></trkpt><trkpt lat="43.710270145703646" lon="10.614694699141225"><ele>11.0</ele><time>2026-04-17T13:30:40.001Z</time></trkpt><trkpt lat="43.71014762835981" lon="10.614710794148847"><ele>11.0</ele><time>2026-04-17T13:30:41.001Z</time></trkpt><trkpt lat="43.71002483997851" lon="10.614728514563598"><ele>11.0</ele><time>2026-04-17T13:30:42.001Z</time></trkpt><trkpt lat="43.70990350527397" lon="10.614745220179588"><ele>11.0</ele><time>2026-04-17T13:30:43.001Z</time></trkpt><trkpt lat="43.70978360461506" lon="10.614757909277252"><ele>11.0</ele><time>2026-04-17T13:30:44.001Z</time></trkpt><trkpt lat="43.70966916574764" lon="10.614767099408734"><ele>11.0</ele><time>2026-04-17T13:30:45.001Z</time></trkpt><trkpt lat="43.7095597734043" lon="10.614777434508595"><ele>11.0</ele><time>2026-04-17T13:30:46.001Z</time></trkpt><trkpt lat="43.70945995653422" lon="10.614789020092637"><ele>11.0</ele><time>2026-04-17T13:30:47.001Z</time></trkpt><trkpt lat="43.70937037092311" lon="10.614801125452264"><ele>11.0</ele><time>2026-04-17T13:30:48.001Z</time></trkpt><trkpt lat="43.7092878520518" lon="10.614811108819586"><ele>11.0</ele><time>2026-04-17T13:30:49.001Z</time></trkpt><trkpt lat="43.70920466729791" lon="10.614820738221804"><ele>11.0</ele><time>2026-04-17T13:30:50.001Z</time></trkpt><trkpt lat="43.70910393383368" lon="10.614834827380427"><ele>11.0</ele><time>2026-04-17T13:30:51.001Z</time></trkpt><trkpt lat="43.708993942554436" lon="10.614850686019333"><ele>11.0</ele><time>2026-04-17T13:30:52.001Z</time></trkpt><trkpt lat="43.70888410693062" lon="10.61486707625153"><ele>11.0</ele><time>2026-04-17T13:30:53.001Z</time></trkpt><trkpt lat="43.70878926731216" lon="10.614878379240105"><ele>11.0</ele><time>2026-04-17T13:30:54.001Z</time></trkpt><trkpt lat="43.70869756790249" lon="10.614887037474357"><ele>11.0</ele><time>2026-04-17T13:30:55.001Z</time></trkpt><trkpt lat="43.7086043735667" lon="10.614885568301315"><ele>11.142857142857142</ele><time>2026-04-17T13:30:56.001Z</time></trkpt><trkpt lat="43.70851939339398" lon="10.614872938868933"><ele>11.285714285714285</ele><time>2026-04-17T13:30:57.001Z</time></trkpt><trkpt lat="43.7084473693842" lon="10.61485011491583"><ele>11.428571428571427</ele><time>2026-04-17T13:30:58.001Z</time></trkpt><trkpt lat="43.708377129796624" lon="10.614806550279079"><ele>11.571428571428571</ele><time>2026-04-17T13:30:59.001Z</time></trkpt><trkpt lat="43.70831120154301" lon="10.61474945378321"><ele>11.714285714285714</ele><time>2026-04-17T13:31:00.001Z</time></trkpt><trkpt lat="43.70824829460873" lon="10.614716946805972"><ele>11.857142857142856</ele><time>2026-04-17T13:31:01.001Z</time></trkpt><trkpt lat="43.708183788305526" lon="10.614729545124852"><ele>12.0</ele><time>2026-04-17T13:31:02.001Z</time></trkpt><trkpt lat="43.70812802257474" lon="10.61478015495064"><ele>12.0</ele><time>2026-04-17T13:31:03.001Z</time></trkpt><trkpt lat="43.708085283079576" lon="10.614883281339484"><ele>12.0</ele><time>2026-04-17T13:31:04.001Z</time></trkpt><trkpt lat="43.70806161540456" lon="10.615016815731348"><ele>12.0</ele><time>2026-04-17T13:31:05.001Z</time></trkpt><trkpt lat="43.70803188375229" lon="10.61517017567407"><ele>12.0</ele><time>2026-04-17T13:31:06.001Z</time></trkpt><trkpt lat="43.70796145827751" lon="10.615338441426465"><ele>12.0</ele><time>2026-04-17T13:31:07.001Z</time></trkpt><trkpt lat="43.70787039254071" lon="10.615522983176922"><ele>11.666666666666666</ele><time>2026-04-17T13:31:08.001Z</time></trkpt><trkpt lat="43.70780504167675" lon="10.615740491733673"><ele>11.333333333333332</ele><time>2026-04-17T13:31:09.001Z</time></trkpt><trkpt lat="43.707745207003555" lon="10.615973234475963"><ele>11.0</ele><time>2026-04-17T13:31:10.001Z</time></trkpt><trkpt lat="43.70768676074197" lon="10.616178563588258"><ele>11.666666666666666</ele><time>2026-04-17T13:31:11.001Z</time></trkpt><trkpt lat="43.707628413368134" lon="10.616378672184155"><ele>12.333333333333332</ele><time>2026-04-17T13:31:12.001Z</time></trkpt><trkpt lat="43.707567340706746" lon="10.61659315513396"><ele>13.0</ele><time>2026-04-17T13:31:13.001Z</time></trkpt><trkpt lat="43.70750898094495" lon="10.616809510638081"><ele>12.75</ele><time>2026-04-17T13:31:14.001Z</time></trkpt><trkpt lat="43.70745657655567" lon="10.61699793366669"><ele>12.5</ele><time>2026-04-17T13:31:15.001Z</time></trkpt><trkpt lat="43.70740786837696" lon="10.6171662601417"><ele>12.25</ele><time>2026-04-17T13:31:16.001Z</time></trkpt><trkpt lat="43.70736952410808" lon="10.617309294490308"><ele>12.0</ele><time>2026-04-17T13:31:17.001Z</time></trkpt><trkpt lat="43.70733061663114" lon="10.617435646036764"><ele>12.0</ele><time>2026-04-17T13:31:18.001Z</time></trkpt><trkpt lat="43.70729379115759" lon="10.617554487775863"><ele>12.0</ele><time>2026-04-17T13:31:19.001Z</time></trkpt><trkpt lat="43.70725878510992" lon="10.6176650072252"><ele>12.0</ele><time>2026-04-17T13:31:20.001Z</time></trkpt><trkpt lat="43.707229696588506" lon="10.617762209932534"><ele>12.0</ele><time>2026-04-17T13:31:21.001Z</time></trkpt><trkpt lat="43.70718327259628" lon="10.617917540911371"><ele>12.0</ele><time>2026-04-17T13:31:23.001Z</time></trkpt><trkpt lat="43.70713631007114" lon="10.618050291375228"><ele>12.0</ele><time>2026-04-17T13:31:25.001Z</time></trkpt><trkpt lat="43.70708525503975" lon="10.61818666990226"><ele>12.0</ele><time>2026-04-17T13:31:27.001Z</time></trkpt><trkpt lat="43.70705899615795" lon="10.618268209739487"><ele>12.0</ele><time>2026-04-17T13:31:28.001Z</time></trkpt><trkpt lat="43.7070272253898" lon="10.618355461427567"><ele>12.0</ele><time>2026-04-17T13:31:29.001Z</time></trkpt><trkpt lat="43.70699006762094" lon="10.618426738196117"><ele>12.0</ele><time>2026-04-17T13:31:30.001Z</time></trkpt><trkpt lat="43.70692156385124" lon="10.618511750250102"><ele>12.0</ele><time>2026-04-17T13:31:32.001Z</time></trkpt><trkpt lat="43.70685373171217" lon="10.618435824647081"><ele>12.0</ele><time>2026-04-17T13:31:33.001Z</time></trkpt><trkpt lat="43.706743839544835" lon="10.618504880520732"><ele>12.0</ele><time>2026-04-17T13:31:35.001Z</time></trkpt><trkpt lat="43.70662186450029" lon="10.618457289776476"><ele>12.0</ele><time>2026-04-17T13:31:36.001Z</time></trkpt><trkpt lat="43.70646147919375" lon="10.618384336041661"><ele>12.0</ele><time>2026-04-17T13:31:37.001Z</time></trkpt><trkpt lat="43.706314802058216" lon="10.618327556846452"><ele>12.0</ele><time>2026-04-17T13:31:38.001Z</time></trkpt><trkpt lat="43.70619487088846" lon="10.618278169168567"><ele>12.0</ele><time>2026-04-17T13:31:39.001Z</time></trkpt><trkpt lat="43.706069160683604" lon="10.618227189670888"><ele>12.0</ele><time>2026-04-17T13:31:40.001Z</time></trkpt><trkpt lat="43.705934723834176" lon="10.618173042624656"><ele>12.0</ele><time>2026-04-17T13:31:41.001Z</time></trkpt><trkpt lat="43.705803068022036" lon="10.618125761876582"><ele>11.75</ele><time>2026-04-17T13:31:42.001Z</time></trkpt><trkpt lat="43.705675640942616" lon="10.618085902486047"><ele>11.5</ele><time>2026-04-17T13:31:43.001Z</time></trkpt><trkpt lat="43.70555032179131" lon="10.61806901061006"><ele>11.25</ele><time>2026-04-17T13:31:44.001Z</time></trkpt><trkpt lat="43.70541193936842" lon="10.618074531172999"><ele>11.0</ele><time>2026-04-17T13:31:45.001Z</time></trkpt><trkpt lat="43.705265285201875" lon="10.618127164165918"><ele>11.333333333333332</ele><time>2026-04-17T13:31:46.001Z</time></trkpt><trkpt lat="43.70509873107222" lon="10.618204243500092"><ele>11.666666666666666</ele><time>2026-04-17T13:31:47.001Z</time></trkpt><trkpt lat="43.704933470096265" lon="10.61829939997722"><ele>12.0</ele><time>2026-04-17T13:31:48.001Z</time></trkpt><trkpt lat="43.70478700535559" lon="10.618397714190579"><ele>12.0</ele><time>2026-04-17T13:31:49.001Z</time></trkpt><trkpt lat="43.704658165217715" lon="10.618461454764384"><ele>12.0</ele><time>2026-04-17T13:31:50.001Z</time></trkpt><trkpt lat="43.70450146458872" lon="10.61855233085745"><ele>12.0</ele><time>2026-04-17T13:31:51.001Z</time></trkpt><trkpt lat="43.70434851448223" lon="10.61864153241865"><ele>12.0</ele><time>2026-04-17T13:31:52.001Z</time></trkpt><trkpt lat="43.70420510014453" lon="10.618718157662075"><ele>12.0</ele><time>2026-04-17T13:31:53.001Z</time></trkpt><trkpt lat="43.704061907410676" lon="10.618792199180717"><ele>12.0</ele><time>2026-04-17T13:31:54.001Z</time></trkpt><trkpt lat="43.70391801028337" lon="10.618872048107134"><ele>12.0</ele><time>2026-04-17T13:31:55.001Z</time></trkpt><trkpt lat="43.70377154268588" lon="10.618960473370736"><ele>12.0</ele><time>2026-04-17T13:31:56.001Z</time></trkpt><trkpt lat="43.703622677832406" lon="10.619025995655246"><ele>12.0</ele><time>2026-04-17T13:31:57.001Z</time></trkpt><trkpt lat="43.703484334779056" lon="10.619095326296641"><ele>12.25</ele><time>2026-04-17T13:31:58.001Z</time></trkpt><trkpt lat="43.70336632992023" lon="10.619159676619828"><ele>12.5</ele><time>2026-04-17T13:31:59.001Z</time></trkpt><trkpt lat="43.70325348122018" lon="10.619217583683954"><ele>12.75</ele><time>2026-04-17T13:32:00.001Z</time></trkpt><trkpt lat="43.70314151708316" lon="10.619278502385923"><ele>13.0</ele><time>2026-04-17T13:32:01.001Z</time></trkpt><trkpt lat="43.703015753658256" lon="10.619321256594212"><ele>13.0</ele><time>2026-04-17T13:32:02.001Z</time></trkpt><trkpt lat="43.70287918863721" lon="10.619396109668674"><ele>13.0</ele><time>2026-04-17T13:32:03.001Z</time></trkpt><trkpt lat="43.70273608602164" lon="10.619462476525012"><ele>13.0</ele><time>2026-04-17T13:32:04.001Z</time></trkpt><trkpt lat="43.702585304480245" lon="10.619539871326655"><ele>12.25</ele><time>2026-04-17T13:32:05.001Z</time></trkpt><trkpt lat="43.702438724639755" lon="10.619603443526074"><ele>11.5</ele><time>2026-04-17T13:32:06Z</time></trkpt><trkpt lat="43.70231058739043" lon="10.619664246757468"><ele>10.75</ele><time>2026-04-17T13:32:07Z</time></trkpt><trkpt lat="43.70218200770649" lon="10.619714090322434"><ele>10.0</ele><time>2026-04-17T13:32:08Z</time></trkpt><trkpt lat="43.70205930322438" lon="10.61976565247072"><ele>10.0</ele><time>2026-04-17T13:32:09Z</time></trkpt><trkpt lat="43.7019302412006" lon="10.619820752410876"><ele>10.0</ele><time>2026-04-17T13:32:10Z</time></trkpt><trkpt lat="43.701796474507624" lon="10.61987442567892"><ele>10.0</ele><time>2026-04-17T13:32:11Z</time></trkpt><trkpt lat="43.70165538604973" lon="10.61993232056287"><ele>10.0</ele><time>2026-04-17T13:32:12Z</time></trkpt><trkpt lat="43.70151183171895" lon="10.619993391398028"><ele>10.5</ele><time>2026-04-17T13:32:13Z</time></trkpt><trkpt lat="43.701376788356384" lon="10.620047562153715"><ele>11.0</ele><time>2026-04-17T13:32:14Z</time></trkpt><trkpt lat="43.70125156490126" lon="10.620099592004177"><ele>11.5</ele><time>2026-04-17T13:32:15Z</time></trkpt><trkpt lat="43.701115174867674" lon="10.62013780163494"><ele>12.0</ele><time>2026-04-17T13:32:16Z</time></trkpt><trkpt lat="43.70098298242837" lon="10.62019350052219"><ele>12.0</ele><time>2026-04-17T13:32:17Z</time></trkpt><trkpt lat="43.70086127354543" lon="10.620258994758807"><ele>12.0</ele><time>2026-04-17T13:32:18Z</time></trkpt><trkpt lat="43.700757966578976" lon="10.620310130912802"><ele>12.0</ele><time>2026-04-17T13:32:19Z</time></trkpt><trkpt lat="43.70063910873107" lon="10.62035788005299"><ele>12.0</ele><time>2026-04-17T13:32:20Z</time></trkpt><trkpt lat="43.700522124985774" lon="10.620402795228792"><ele>11.75</ele><time>2026-04-17T13:32:21Z</time></trkpt><trkpt lat="43.7004174929074" lon="10.620444635598378"><ele>11.5</ele><time>2026-04-17T13:32:22Z</time></trkpt><trkpt lat="43.70031430989656" lon="10.620482599276952"><ele>11.25</ele><time>2026-04-17T13:32:23Z</time></trkpt><trkpt lat="43.70020430661872" lon="10.620530099112871"><ele>11.0</ele><time>2026-04-17T13:32:24Z</time></trkpt><trkpt lat="43.70008637997862" lon="10.62058040826801"><ele>11.5</ele><time>2026-04-17T13:32:25Z</time></trkpt><trkpt lat="43.69995570386685" lon="10.620638582864276"><ele>12.0</ele><time>2026-04-17T13:32:26Z</time></trkpt><trkpt lat="43.69981496427429" lon="10.62070356891379"><ele>12.5</ele><time>2026-04-17T13:32:27Z</time></trkpt><trkpt lat="43.699673579309476" lon="10.62075865768939"><ele>13.0</ele><time>2026-04-17T13:32:28Z</time></trkpt><trkpt lat="43.69953629408246" lon="10.620814108802186"><ele>13.0</ele><time>2026-04-17T13:32:29Z</time></trkpt><trkpt lat="43.699389593409585" lon="10.620874297914208"><ele>13.0</ele><time>2026-04-17T13:32:30.001Z</time></trkpt><trkpt lat="43.699239471391564" lon="10.620933545452795"><ele>13.0</ele><time>2026-04-17T13:32:31.001Z</time></trkpt><trkpt lat="43.69910124263614" lon="10.620990293617426"><ele>13.0</ele><time>2026-04-17T13:32:32.001Z</time></trkpt><trkpt lat="43.6989681895722" lon="10.62104127526207"><ele>13.0</ele><time>2026-04-17T13:32:33.001Z</time></trkpt><trkpt lat="43.69883552661121" lon="10.621091590091696"><ele>13.0</ele><time>2026-04-17T13:32:34.001Z</time></trkpt><trkpt lat="43.69868566003156" lon="10.621145723190647"><ele>13.0</ele><time>2026-04-17T13:32:35.001Z</time></trkpt><trkpt lat="43.69852449877806" lon="10.62120226373546"><ele>13.0</ele><time>2026-04-17T13:32:36.001Z</time></trkpt><trkpt lat="43.6983635715323" lon="10.62125010048579"><ele>13.0</ele><time>2026-04-17T13:32:37.001Z</time></trkpt><trkpt lat="43.698202595565874" lon="10.621297143783691"><ele>13.0</ele><time>2026-04-17T13:32:38.001Z</time></trkpt><trkpt lat="43.69803912032644" lon="10.621344677550066"><ele>13.0</ele><time>2026-04-17T13:32:39.001Z</time></trkpt><trkpt lat="43.697860788638124" lon="10.62139255227479"><ele>13.0</ele><time>2026-04-17T13:32:40.001Z</time></trkpt><trkpt lat="43.6976721568518" lon="10.621443437969672"><ele>13.0</ele><time>2026-04-17T13:32:41.001Z</time></trkpt><trkpt lat="43.69748695383502" lon="10.621492477450825"><ele>13.0</ele><time>2026-04-17T13:32:42.001Z</time></trkpt><trkpt lat="43.697316042689124" lon="10.621533509102157"><ele>13.0</ele><time>2026-04-17T13:32:43.001Z</time></trkpt><trkpt lat="43.697160997606424" lon="10.621567485308601"><ele>13.0</ele><time>2026-04-17T13:32:44.001Z</time></trkpt><trkpt lat="43.69701458618571" lon="10.62160794407769"><ele>13.25</ele><time>2026-04-17T13:32:45.001Z</time></trkpt><trkpt lat="43.6968820469928" lon="10.621645532950438"><ele>13.5</ele><time>2026-04-17T13:32:46.001Z</time></trkpt><trkpt lat="43.69675782125053" lon="10.621680062893821"><ele>13.75</ele><time>2026-04-17T13:32:47.001Z</time></trkpt><trkpt lat="43.696627870616226" lon="10.621712887225053"><ele>14.0</ele><time>2026-04-17T13:32:48.001Z</time></trkpt><trkpt lat="43.69649245193494" lon="10.621739619595267"><ele>14.0</ele><time>2026-04-17T13:32:49.001Z</time></trkpt><trkpt lat="43.6963630589281" lon="10.621774609382397"><ele>14.0</ele><time>2026-04-17T13:32:50.001Z</time></trkpt><trkpt lat="43.696232035173246" lon="10.621815888781729"><ele>14.0</ele><time>2026-04-17T13:32:51.001Z</time></trkpt><trkpt lat="43.69609892245626" lon="10.621860304210488"><ele>14.0</ele><time>2026-04-17T13:32:52.001Z</time></trkpt><trkpt lat="43.69596243953113" lon="10.621890147722205"><ele>14.0</ele><time>2026-04-17T13:32:53.001Z</time></trkpt><trkpt lat="43.69582390251951" lon="10.621935294410978"><ele>14.0</ele><time>2026-04-17T13:32:54.001Z</time></trkpt><trkpt lat="43.695688020059684" lon="10.621976610864008"><ele>14.0</ele><time>2026-04-17T13:32:55.001Z</time></trkpt><trkpt lat="43.69555829934435" lon="10.622016897858778"><ele>14.0</ele><time>2026-04-17T13:32:56.001Z</time></trkpt><trkpt lat="43.695437454496734" lon="10.622054500405337"><ele>13.75</ele><time>2026-04-17T13:32:57.001Z</time></trkpt><trkpt lat="43.695309998472254" lon="10.622095935514988"><ele>13.5</ele><time>2026-04-17T13:32:58.001Z</time></trkpt><trkpt lat="43.69516596193601" lon="10.622150438262274"><ele>13.25</ele><time>2026-04-17T13:32:59.001Z</time></trkpt><trkpt lat="43.6950262848825" lon="10.62220054079493"><ele>13.0</ele><time>2026-04-17T13:33:00.001Z</time></trkpt><trkpt lat="43.6948827923354" lon="10.622263575249173"><ele>13.0</ele><time>2026-04-17T13:33:01.001Z</time></trkpt><trkpt lat="43.69476810790478" lon="10.622287149503139"><ele>13.0</ele><time>2026-04-17T13:33:02.001Z</time></trkpt><trkpt lat="43.69463197051226" lon="10.622341715500674"><ele>13.0</ele><time>2026-04-17T13:33:03.001Z</time></trkpt><trkpt lat="43.694496246950244" lon="10.62239046380291"><ele>13.0</ele><time>2026-04-17T13:33:04.001Z</time></trkpt><trkpt lat="43.69437114493609" lon="10.622434569318147"><ele>12.5</ele><time>2026-04-17T13:33:05.001Z</time></trkpt><trkpt lat="43.6942523297245" lon="10.622481610206059"><ele>12.0</ele><time>2026-04-17T13:33:06.001Z</time></trkpt><trkpt lat="43.69413250731306" lon="10.622518867341782"><ele>11.5</ele><time>2026-04-17T13:33:07.001Z</time></trkpt><trkpt lat="43.694003501978926" lon="10.622565721557855"><ele>11.0</ele><time>2026-04-17T13:33:08.001Z</time></trkpt><trkpt lat="43.69388004790107" lon="10.622606256985573"><ele>11.0</ele><time>2026-04-17T13:33:09.001Z</time></trkpt><trkpt lat="43.693756968465415" lon="10.622651680752888"><ele>11.0</ele><time>2026-04-17T13:33:10.001Z</time></trkpt><trkpt lat="43.69363413213947" lon="10.622698120415249"><ele>11.0</ele><time>2026-04-17T13:33:11.001Z</time></trkpt><trkpt lat="43.69351917758795" lon="10.622736593191458"><ele>11.0</ele><time>2026-04-17T13:33:12.001Z</time></trkpt><trkpt lat="43.69340021604433" lon="10.622777198285446"><ele>11.5</ele><time>2026-04-17T13:33:13.001Z</time></trkpt><trkpt lat="43.69327531101603" lon="10.622827862846963"><ele>12.0</ele><time>2026-04-17T13:33:14.001Z</time></trkpt><trkpt lat="43.69314247457744" lon="10.622885980355647"><ele>12.5</ele><time>2026-04-17T13:33:15.001Z</time></trkpt><trkpt lat="43.69300759759412" lon="10.622929878427643"><ele>13.0</ele><time>2026-04-17T13:33:16.001Z</time></trkpt><trkpt lat="43.692857835251885" lon="10.622988592296156"><ele>12.666666666666666</ele><time>2026-04-17T13:33:17.001Z</time></trkpt><trkpt lat="43.69268666066664" lon="10.623035406779476"><ele>12.333333333333332</ele><time>2026-04-17T13:33:18.001Z</time></trkpt><trkpt lat="43.692510241609924" lon="10.623133501518392"><ele>12.0</ele><time>2026-04-17T13:33:19.001Z</time></trkpt><trkpt lat="43.69232350777606" lon="10.623206509037065"><ele>12.0</ele><time>2026-04-17T13:33:20.001Z</time></trkpt><trkpt lat="43.69213372456953" lon="10.623259464820636"><ele>12.0</ele><time>2026-04-17T13:33:21.001Z</time></trkpt><trkpt lat="43.69194737912785" lon="10.62330889868753"><ele>12.0</ele><time>2026-04-17T13:33:22.001Z</time></trkpt><trkpt lat="43.691768772070205" lon="10.623366834626774"><ele>12.333333333333332</ele><time>2026-04-17T13:33:23.001Z</time></trkpt><trkpt lat="43.69159751894316" lon="10.62342376707907"><ele>12.666666666666666</ele><time>2026-04-17T13:33:24.001Z</time></trkpt><trkpt lat="43.69142685396043" lon="10.623475193499633"><ele>13.0</ele><time>2026-04-17T13:33:25.001Z</time></trkpt><trkpt lat="43.69126914475103" lon="10.623531335853624"><ele>13.0</ele><time>2026-04-17T13:33:26.001Z</time></trkpt><trkpt lat="43.691115184828746" lon="10.623585851369615"><ele>13.0</ele><time>2026-04-17T13:33:27.001Z</time></trkpt><trkpt lat="43.690967450045115" lon="10.623646055386468"><ele>13.0</ele><time>2026-04-17T13:33:28.001Z</time></trkpt><trkpt lat="43.690820445567766" lon="10.623697929802704"><ele>13.0</ele><time>2026-04-17T13:33:29.001Z</time></trkpt><trkpt lat="43.69066802712879" lon="10.623750594384099"><ele>13.0</ele><time>2026-04-17T13:33:30.001Z</time></trkpt><trkpt lat="43.690502947924344" lon="10.623810390501019"><ele>13.0</ele><time>2026-04-17T13:33:31.001Z</time></trkpt><trkpt lat="43.69034402937776" lon="10.623865796516485"><ele>12.666666666666666</ele><time>2026-04-17T13:33:32.001Z</time></trkpt><trkpt lat="43.690195376278275" lon="10.623915317475257"><ele>12.333333333333332</ele><time>2026-04-17T13:33:33.001Z</time></trkpt><trkpt lat="43.69003294742987" lon="10.623971905357418"><ele>12.0</ele><time>2026-04-17T13:33:34.001Z</time></trkpt><trkpt lat="43.68984299223609" lon="10.624043964734959"><ele>12.0</ele><time>2026-04-17T13:33:35.001Z</time></trkpt><trkpt lat="43.68965951652297" lon="10.624115510689595"><ele>12.0</ele><time>2026-04-17T13:33:36.001Z</time></trkpt><trkpt lat="43.68949125110773" lon="10.624173246260499"><ele>12.0</ele><time>2026-04-17T13:33:37.001Z</time></trkpt><trkpt lat="43.68934277449592" lon="10.624232008347946"><ele>12.0</ele><time>2026-04-17T13:33:38.001Z</time></trkpt><trkpt lat="43.68919285407409" lon="10.624287426129786"><ele>12.0</ele><time>2026-04-17T13:33:39.001Z</time></trkpt><trkpt lat="43.68902871828924" lon="10.624347667438828"><ele>12.0</ele><time>2026-04-17T13:33:40.001Z</time></trkpt><trkpt lat="43.68885932398145" lon="10.624394392828105"><ele>12.0</ele><time>2026-04-17T13:33:41.001Z</time></trkpt><trkpt lat="43.688711030229356" lon="10.62443577231887"><ele>12.0</ele><time>2026-04-17T13:33:42.001Z</time></trkpt><trkpt lat="43.68856419585339" lon="10.624462989028398"><ele>12.0</ele><time>2026-04-17T13:33:43.001Z</time></trkpt><trkpt lat="43.68841532917933" lon="10.624482912484105"><ele>12.0</ele><time>2026-04-17T13:33:44.001Z</time></trkpt><trkpt lat="43.68826966072444" lon="10.624504366498531"><ele>11.333333333333334</ele><time>2026-04-17T13:33:45.001Z</time></trkpt><trkpt lat="43.68812227115533" lon="10.624525895151159"><ele>10.666666666666668</ele><time>2026-04-17T13:33:46.001Z</time></trkpt><trkpt lat="43.68797040458799" lon="10.624554196488793"><ele>10.0</ele><time>2026-04-17T13:33:47.001Z</time></trkpt><trkpt lat="43.687817533617945" lon="10.624578014992885"><ele>10.666666666666668</ele><time>2026-04-17T13:33:48.001Z</time></trkpt><trkpt lat="43.68767191475018" lon="10.624598633633635"><ele>11.333333333333334</ele><time>2026-04-17T13:33:49.001Z</time></trkpt><trkpt lat="43.687528640573554" lon="10.624625144942351"><ele>12.0</ele><time>2026-04-17T13:33:50Z</time></trkpt><trkpt lat="43.687367397438535" lon="10.624661693284988"><ele>12.0</ele><time>2026-04-17T13:33:51Z</time></trkpt><trkpt lat="43.68721408371934" lon="10.624672802155613"><ele>12.0</ele><time>2026-04-17T13:33:52Z</time></trkpt><trkpt lat="43.68704493104657" lon="10.624709547445642"><ele>12.0</ele><time>2026-04-17T13:33:53Z</time></trkpt><trkpt lat="43.686887533719656" lon="10.624753848182502"><ele>12.666666666666668</ele><time>2026-04-17T13:33:54Z</time></trkpt><trkpt lat="43.6867406792713" lon="10.624760476590712"><ele>13.333333333333334</ele><time>2026-04-17T13:33:55Z</time></trkpt><trkpt lat="43.686571942441" lon="10.624790920570453"><ele>14.0</ele><time>2026-04-17T13:33:56Z</time></trkpt><trkpt lat="43.68642329056034" lon="10.624813753056573"><ele>14.0</ele><time>2026-04-17T13:33:57Z</time></trkpt><trkpt lat="43.68627222245717" lon="10.624841154529404"><ele>14.0</ele><time>2026-04-17T13:33:58Z</time></trkpt><trkpt lat="43.686105738285434" lon="10.624867367134637"><ele>14.0</ele><time>2026-04-17T13:33:59Z</time></trkpt><trkpt lat="43.685927879851164" lon="10.624895374940273"><ele>13.666666666666668</ele><time>2026-04-17T13:34:00Z</time></trkpt><trkpt lat="43.685758290602216" lon="10.624922380980475"><ele>13.333333333333332</ele><time>2026-04-17T13:34:01Z</time></trkpt><trkpt lat="43.685599933857645" lon="10.624955812086297"><ele>13.0</ele><time>2026-04-17T13:34:02Z</time></trkpt><trkpt lat="43.68544773274154" lon="10.6249784476927"><ele>13.0</ele><time>2026-04-17T13:34:03Z</time></trkpt><trkpt lat="43.685304643022114" lon="10.625001413206943"><ele>13.0</ele><time>2026-04-17T13:34:04Z</time></trkpt><trkpt lat="43.68516657042098" lon="10.625028330685584"><ele>13.0</ele><time>2026-04-17T13:34:05Z</time></trkpt><trkpt lat="43.68503195904557" lon="10.625053812055372"><ele>13.0</ele><time>2026-04-17T13:34:06Z</time></trkpt><trkpt lat="43.68486976554872" lon="10.625073292798666"><ele>13.5</ele><time>2026-04-17T13:34:07Z</time></trkpt><trkpt lat="43.68473158725498" lon="10.625105263498497"><ele>14.0</ele><time>2026-04-17T13:34:08Z</time></trkpt><trkpt lat="43.68460307687049" lon="10.625113436892946"><ele>14.5</ele><time>2026-04-17T13:34:09Z</time></trkpt><trkpt lat="43.68448096469688" lon="10.625135621578925"><ele>15.0</ele><time>2026-04-17T13:34:10Z</time></trkpt><trkpt lat="43.68437007556473" lon="10.62515848163847"><ele>15.666666666666666</ele><time>2026-04-17T13:34:11Z</time></trkpt><trkpt lat="43.684273826618636" lon="10.62516374908133"><ele>16.333333333333332</ele><time>2026-04-17T13:34:12Z</time></trkpt><trkpt lat="43.684180690804624" lon="10.625173036302892"><ele>17.0</ele><time>2026-04-17T13:34:13Z</time></trkpt><trkpt lat="43.68409852220336" lon="10.625165370690468"><ele>17.666666666666664</ele><time>2026-04-17T13:34:14Z</time></trkpt><trkpt lat="43.684022054455795" lon="10.625128759323033"><ele>18.333333333333332</ele><time>2026-04-17T13:34:15Z</time></trkpt><trkpt lat="43.68395597263721" lon="10.625079001745865"><ele>19.0</ele><time>2026-04-17T13:34:16Z</time></trkpt><trkpt lat="43.683896199404366" lon="10.625008686992157"><ele>19.0</ele><time>2026-04-17T13:34:17Z</time></trkpt><trkpt lat="43.68384409334809" lon="10.624908418543178"><ele>19.0</ele><time>2026-04-17T13:34:18Z</time></trkpt><trkpt lat="43.68378700005883" lon="10.624786247509105"><ele>19.0</ele><time>2026-04-17T13:34:19Z</time></trkpt><trkpt lat="43.68372537174492" lon="10.624690002273066"><ele>19.0</ele><time>2026-04-17T13:34:20Z</time></trkpt><trkpt lat="43.68365292796288" lon="10.624631720662569"><ele>19.0</ele><time>2026-04-17T13:34:21Z</time></trkpt><trkpt lat="43.683563850514695" lon="10.624588365616843"><ele>18.599999999999998</ele><time>2026-04-17T13:34:22Z</time></trkpt><trkpt lat="43.683468799879414" lon="10.624561074134327"><ele>18.2</ele><time>2026-04-17T13:34:23Z</time></trkpt><trkpt lat="43.683397853980026" lon="10.624512820087537"><ele>17.799999999999997</ele><time>2026-04-17T13:34:24Z</time></trkpt><trkpt lat="43.68334212583739" lon="10.624436643402008"><ele>17.4</ele><time>2026-04-17T13:34:25Z</time></trkpt><trkpt lat="43.68328333834638" lon="10.62436468942199"><ele>17.0</ele><time>2026-04-17T13:34:26Z</time></trkpt><trkpt lat="43.683278469535395" lon="10.624182733932237"><ele>17.0</ele><time>2026-04-17T13:34:27Z</time></trkpt><trkpt lat="43.68326578441526" lon="10.623977031694778"><ele>17.0</ele><time>2026-04-17T13:34:28Z</time></trkpt><trkpt lat="43.6832742978282" lon="10.623724274303482"><ele>17.0</ele><time>2026-04-17T13:34:29Z</time></trkpt><trkpt lat="43.683277079700034" lon="10.623473503490768"><ele>17.0</ele><time>2026-04-17T13:34:30Z</time></trkpt><trkpt lat="43.68326885468099" lon="10.62322887726726"><ele>17.0</ele><time>2026-04-17T13:34:31Z</time></trkpt><trkpt lat="43.683259075404585" lon="10.622952848936036"><ele>17.0</ele><time>2026-04-17T13:34:32Z</time></trkpt><trkpt lat="43.68325422783991" lon="10.622664711263978"><ele>17.0</ele><time>2026-04-17T13:34:33Z</time></trkpt><trkpt lat="43.68325054014345" lon="10.622383688094253"><ele>17.0</ele><time>2026-04-17T13:34:34Z</time></trkpt><trkpt lat="43.683250860300646" lon="10.622122008194735"><ele>17.0</ele><time>2026-04-17T13:34:35Z</time></trkpt><trkpt lat="43.68324656248576" lon="10.621864559162084"><ele>17.0</ele><time>2026-04-17T13:34:36Z</time></trkpt><trkpt lat="43.68324138796871" lon="10.621602602728919"><ele>17.0</ele><time>2026-04-17T13:34:37Z</time></trkpt><trkpt lat="43.68323464358066" lon="10.621345867163926"><ele>17.0</ele><time>2026-04-17T13:34:38Z</time></trkpt><trkpt lat="43.68323183147187" lon="10.621094904402385"><ele>17.0</ele><time>2026-04-17T13:34:39Z</time></trkpt><trkpt lat="43.683226276912336" lon="10.620858280800773"><ele>17.0</ele><time>2026-04-17T13:34:40Z</time></trkpt><trkpt lat="43.683222756793754" lon="10.620605122598128"><ele>17.0</ele><time>2026-04-17T13:34:41Z</time></trkpt><trkpt lat="43.68321655468699" lon="10.620355948031852"><ele>17.0</ele><time>2026-04-17T13:34:42Z</time></trkpt><trkpt lat="43.68321163462622" lon="10.62013890625302"><ele>17.0</ele><time>2026-04-17T13:34:43Z</time></trkpt><trkpt lat="43.68321932903502" lon="10.61994019940636"><ele>17.0</ele><time>2026-04-17T13:34:44Z</time></trkpt><trkpt lat="43.68321646669542" lon="10.619756972294425"><ele>17.0</ele><time>2026-04-17T13:34:45Z</time></trkpt><trkpt lat="43.68319887252304" lon="10.619606929865851"><ele>17.0</ele><time>2026-04-17T13:34:46Z</time></trkpt><trkpt lat="43.683199629411696" lon="10.619455916777184"><ele>17.0</ele><time>2026-04-17T13:34:47Z</time></trkpt><trkpt lat="43.6832001273784" lon="10.619309396908285"><ele>17.0</ele><time>2026-04-17T13:34:48Z</time></trkpt><trkpt lat="43.68319707362687" lon="10.619166648522306"><ele>17.0</ele><time>2026-04-17T13:34:49Z</time></trkpt><trkpt lat="43.683191681333795" lon="10.619033989914554"><ele>17.0</ele><time>2026-04-17T13:34:50Z</time></trkpt><trkpt lat="43.683192330354224" lon="10.618918931753415"><ele>17.0</ele><time>2026-04-17T13:34:51Z</time></trkpt><trkpt lat="43.683188984939285" lon="10.618819269013967"><ele>17.0</ele><time>2026-04-17T13:34:52Z</time></trkpt><trkpt lat="43.683190023719945" lon="10.618710071127623"><ele>17.0</ele><time>2026-04-17T13:34:53Z</time></trkpt><trkpt lat="43.683190563510195" lon="10.618593566735553"><ele>17.0</ele><time>2026-04-17T13:34:54Z</time></trkpt><trkpt lat="43.683192286404264" lon="10.618468957858179"><ele>17.0</ele><time>2026-04-17T13:34:55Z</time></trkpt><trkpt lat="43.683188130414386" lon="10.618353747931744"><ele>17.0</ele><time>2026-04-17T13:34:56Z</time></trkpt><trkpt lat="43.683188738639934" lon="10.618238692806614"><ele>16.8</ele><time>2026-04-17T13:34:57Z</time></trkpt><trkpt lat="43.68318661096174" lon="10.618110777159622"><ele>16.6</ele><time>2026-04-17T13:34:58Z</time></trkpt><trkpt lat="43.68318610670339" lon="10.617982883346537"><ele>16.400000000000002</ele><time>2026-04-17T13:34:59Z</time></trkpt><trkpt lat="43.68318426768959" lon="10.617849129987357"><ele>16.2</ele><time>2026-04-17T13:35:00Z</time></trkpt><trkpt lat="43.68318476178078" lon="10.617725557767871"><ele>16.0</ele><time>2026-04-17T13:35:01Z</time></trkpt><trkpt lat="43.683180405168265" lon="10.617616481149136"><ele>15.999999999999998</ele><time>2026-04-17T13:35:02Z</time></trkpt><trkpt lat="43.68317834937499" lon="10.617503881959292"><ele>16.0</ele><time>2026-04-17T13:35:03Z</time></trkpt><trkpt lat="43.683175481117566" lon="10.61741022697506"><ele>16.0</ele><time>2026-04-17T13:35:04Z</time></trkpt><trkpt lat="43.68316267512904" lon="10.61728652459118"><ele>16.0</ele><time>2026-04-17T13:35:05Z</time></trkpt><trkpt lat="43.68313214525165" lon="10.617188284119354"><ele>15.999999999999998</ele><time>2026-04-17T13:35:07Z</time></trkpt><trkpt lat="43.683022565900075" lon="10.617160217552096"><ele>16.0</ele><time>2026-04-17T13:35:09Z</time></trkpt><trkpt lat="43.68294292328092" lon="10.61719151858689"><ele>16.0</ele><time>2026-04-17T13:35:10Z</time></trkpt><trkpt lat="43.682855319230825" lon="10.617238032329766"><ele>16.0</ele><time>2026-04-17T13:35:11Z</time></trkpt><trkpt lat="43.682753167783716" lon="10.617255368641754"><ele>16.0</ele><time>2026-04-17T13:35:12Z</time></trkpt><trkpt lat="43.682637303535195" lon="10.617239479331646"><ele>16.0</ele><time>2026-04-17T13:35:13Z</time></trkpt><trkpt lat="43.68253213955844" lon="10.617206667700449"><ele>16.0</ele><time>2026-04-17T13:35:14Z</time></trkpt><trkpt lat="43.68243511352517" lon="10.617156023794573"><ele>15.999999999999998</ele><time>2026-04-17T13:35:15Z</time></trkpt><trkpt lat="43.68235950554607" lon="10.617105027466565"><ele>16.0</ele><time>2026-04-17T13:35:16Z</time></trkpt><trkpt lat="43.6823076844896" lon="10.617048812369339"><ele>16.0</ele><time>2026-04-17T13:35:17Z</time></trkpt><trkpt lat="43.68224687275103" lon="10.616976774842659"><ele>16.0</ele><time>2026-04-17T13:35:18Z</time></trkpt><trkpt lat="43.68217482951453" lon="10.616894686632294"><ele>15.999999999999998</ele><time>2026-04-17T13:35:19Z</time></trkpt><trkpt lat="43.68208875303121" lon="10.6167816514306"><ele>16.0</ele><time>2026-04-17T13:35:20Z</time></trkpt><trkpt lat="43.681996176559444" lon="10.616635483944872"><ele>15.5</ele><time>2026-04-17T13:35:21Z</time></trkpt><trkpt lat="43.68190627324128" lon="10.61648683433782"><ele>15.0</ele><time>2026-04-17T13:35:22Z</time></trkpt><trkpt lat="43.68182090691585" lon="10.616357819004286"><ele>14.5</ele><time>2026-04-17T13:35:23Z</time></trkpt><trkpt lat="43.68174320503338" lon="10.616237523583234"><ele>14.0</ele><time>2026-04-17T13:35:24Z</time></trkpt><trkpt lat="43.68167105656356" lon="10.616114377522177"><ele>13.5</ele><time>2026-04-17T13:35:25Z</time></trkpt><trkpt lat="43.681609981868505" lon="10.615973404355843"><ele>13.0</ele><time>2026-04-17T13:35:26Z</time></trkpt><trkpt lat="43.68152795663786" lon="10.615859411672705"><ele>12.5</ele><time>2026-04-17T13:35:27Z</time></trkpt><trkpt lat="43.68144372945644" lon="10.615720682993219"><ele>12.0</ele><time>2026-04-17T13:35:28Z</time></trkpt><trkpt lat="43.68136174692059" lon="10.615585113939755"><ele>12.0</ele><time>2026-04-17T13:35:29Z</time></trkpt><trkpt lat="43.6812793940081" lon="10.615450288601025"><ele>12.0</ele><time>2026-04-17T13:35:30Z</time></trkpt><trkpt lat="43.68120259263432" lon="10.61532629741929"><ele>12.0</ele><time>2026-04-17T13:35:31Z</time></trkpt><trkpt lat="43.681131287180676" lon="10.615210955646313"><ele>12.0</ele><time>2026-04-17T13:35:32Z</time></trkpt><trkpt lat="43.6810595667164" lon="10.615086746995592"><ele>12.5</ele><time>2026-04-17T13:35:33Z</time></trkpt><trkpt lat="43.680984388018594" lon="10.614955154962471"><ele>13.0</ele><time>2026-04-17T13:35:34Z</time></trkpt><trkpt lat="43.6809052771346" lon="10.614820642791548"><ele>13.5</ele><time>2026-04-17T13:35:35Z</time></trkpt><trkpt lat="43.68081897484424" lon="10.614690701513975"><ele>14.0</ele><time>2026-04-17T13:35:36Z</time></trkpt><trkpt lat="43.68072416290771" lon="10.614572323072032"><ele>14.0</ele><time>2026-04-17T13:35:37Z</time></trkpt><trkpt lat="43.68061592723261" lon="10.614466570423081"><ele>14.0</ele><time>2026-04-17T13:35:38Z</time></trkpt><trkpt lat="43.68049599430106" lon="10.614380555478"><ele>14.0</ele><time>2026-04-17T13:35:39Z</time></trkpt><trkpt lat="43.68036682295962" lon="10.614323256345784"><ele>14.0</ele><time>2026-04-17T13:35:40Z</time></trkpt><trkpt lat="43.68023265564821" lon="10.614291966825407"><ele>14.0</ele><time>2026-04-17T13:35:41Z</time></trkpt><trkpt lat="43.680095207042" lon="10.614291343747263"><ele>14.0</ele><time>2026-04-17T13:35:42Z</time></trkpt><trkpt lat="43.67995731957115" lon="10.61430982292927"><ele>14.0</ele><time>2026-04-17T13:35:43Z</time></trkpt><trkpt lat="43.679826513053186" lon="10.614356639899102"><ele>14.0</ele><time>2026-04-17T13:35:44Z</time></trkpt><trkpt lat="43.67970218213556" lon="10.614415467430835"><ele>14.0</ele><time>2026-04-17T13:35:45Z</time></trkpt><trkpt lat="43.67958677628122" lon="10.61449613113298"><ele>14.0</ele><time>2026-04-17T13:35:46Z</time></trkpt><trkpt lat="43.67948956313719" lon="10.61459198886866"><ele>14.0</ele><time>2026-04-17T13:35:47Z</time></trkpt><trkpt lat="43.679408677273614" lon="10.614695238315596"><ele>14.0</ele><time>2026-04-17T13:35:48Z</time></trkpt><trkpt lat="43.679331832277335" lon="10.614805808951157"><ele>14.2</ele><time>2026-04-17T13:35:49Z</time></trkpt><trkpt lat="43.679252941036715" lon="10.614907195886396"><ele>14.399999999999999</ele><time>2026-04-17T13:35:50Z</time></trkpt><trkpt lat="43.679172317149074" lon="10.614984211617568"><ele>14.6</ele><time>2026-04-17T13:35:51Z</time></trkpt><trkpt lat="43.67908455086491" lon="10.61506012272957"><ele>14.8</ele><time>2026-04-17T13:35:52Z</time></trkpt><trkpt lat="43.67899111933507" lon="10.615119608391296"><ele>15.0</ele><time>2026-04-17T13:35:53Z</time></trkpt><trkpt lat="43.67888808098565" lon="10.615151501144924"><ele>15.0</ele><time>2026-04-17T13:35:54Z</time></trkpt><trkpt lat="43.67877700224163" lon="10.615166767229072"><ele>15.0</ele><time>2026-04-17T13:35:55Z</time></trkpt><trkpt lat="43.678666938060104" lon="10.61517345045822"><ele>15.0</ele><time>2026-04-17T13:35:56Z</time></trkpt><trkpt lat="43.67856371499773" lon="10.615179331852016"><ele>15.0</ele><time>2026-04-17T13:35:57Z</time></trkpt><trkpt lat="43.67846321415966" lon="10.615180944787658"><ele>15.0</ele><time>2026-04-17T13:35:58Z</time></trkpt><trkpt lat="43.67836353358899" lon="10.615189624892214"><ele>15.25</ele><time>2026-04-17T13:35:59Z</time></trkpt><trkpt lat="43.67826144228432" lon="10.61519270386022"><ele>15.5</ele><time>2026-04-17T13:36:00Z</time></trkpt><trkpt lat="43.678149434430956" lon="10.615194268341394"><ele>15.75</ele><time>2026-04-17T13:36:01Z</time></trkpt><trkpt lat="43.67800054376457" lon="10.615186290318587"><ele>16.0</ele><time>2026-04-17T13:36:02Z</time></trkpt><trkpt lat="43.67783805966406" lon="10.615191096564974"><ele>15.4</ele><time>2026-04-17T13:36:03Z</time></trkpt><trkpt lat="43.67774059164503" lon="10.615206600454892"><ele>14.8</ele><time>2026-04-17T13:36:05Z</time></trkpt><trkpt lat="43.67763781159036" lon="10.615210724553526"><ele>14.200000000000001</ele><time>2026-04-17T13:36:06Z</time></trkpt><trkpt lat="43.677531171903375" lon="10.615213856944349"><ele>13.600000000000001</ele><time>2026-04-17T13:36:07Z</time></trkpt><trkpt lat="43.677415356825804" lon="10.615213380859243"><ele>13.0</ele><time>2026-04-17T13:36:08Z</time></trkpt><trkpt lat="43.677300988086245" lon="10.615215870674533"><ele>13.0</ele><time>2026-04-17T13:36:09Z</time></trkpt><trkpt lat="43.67717951008436" lon="10.615221778900468"><ele>13.0</ele><time>2026-04-17T13:36:10Z</time></trkpt><trkpt lat="43.67706094749377" lon="10.615228078189643"><ele>13.0</ele><time>2026-04-17T13:36:11Z</time></trkpt><trkpt lat="43.676936827516315" lon="10.61523436656689"><ele>13.0</ele><time>2026-04-17T13:36:12Z</time></trkpt><trkpt lat="43.6768093073406" lon="10.615237114154809"><ele>13.25</ele><time>2026-04-17T13:36:13Z</time></trkpt><trkpt lat="43.67669044387" lon="10.615239524666801"><ele>13.5</ele><time>2026-04-17T13:36:14Z</time></trkpt><trkpt lat="43.67657414471112" lon="10.615243916853238"><ele>13.75</ele><time>2026-04-17T13:36:15Z</time></trkpt><trkpt lat="43.67645740571684" lon="10.615261221728034"><ele>14.0</ele><time>2026-04-17T13:36:16Z</time></trkpt><trkpt lat="43.67634491999768" lon="10.615251468754725"><ele>14.0</ele><time>2026-04-17T13:36:17Z</time></trkpt><trkpt lat="43.676233283954616" lon="10.615253035678595"><ele>13.999999999999998</ele><time>2026-04-17T13:36:18Z</time></trkpt><trkpt lat="43.67612433522405" lon="10.61525571104449"><ele>13.999999999999998</ele><time>2026-04-17T13:36:19Z</time></trkpt><trkpt lat="43.67601657104773" lon="10.615260492254327"><ele>14.0</ele><time>2026-04-17T13:36:20Z</time></trkpt><trkpt lat="43.67590717112232" lon="10.61526043709204"><ele>14.0</ele><time>2026-04-17T13:36:21Z</time></trkpt><trkpt lat="43.67580119559997" lon="10.615264367984091"><ele>14.0</ele><time>2026-04-17T13:36:22Z</time></trkpt><trkpt lat="43.675701353711396" lon="10.61527059229986"><ele>13.999999999999998</ele><time>2026-04-17T13:36:23Z</time></trkpt><trkpt lat="43.67560637475294" lon="10.615276757815645"><ele>13.999999999999998</ele><time>2026-04-17T13:36:24Z</time></trkpt><trkpt lat="43.67550695341921" lon="10.6152746881032"><ele>14.0</ele><time>2026-04-17T13:36:25Z</time></trkpt><trkpt lat="43.675384941807124" lon="10.615278790875252"><ele>14.0</ele><time>2026-04-17T13:36:26Z</time></trkpt><trkpt lat="43.67526850485959" lon="10.615285100218363"><ele>13.75</ele><time>2026-04-17T13:36:27Z</time></trkpt><trkpt lat="43.67515586448455" lon="10.615290880763025"><ele>13.5</ele><time>2026-04-17T13:36:28Z</time></trkpt><trkpt lat="43.675043379984004" lon="10.615298068847814"><ele>13.25</ele><time>2026-04-17T13:36:29Z</time></trkpt><trkpt lat="43.67493232770677" lon="10.615301657999126"><ele>13.0</ele><time>2026-04-17T13:36:30Z</time></trkpt><trkpt lat="43.674818035941634" lon="10.61529964185489"><ele>13.0</ele><time>2026-04-17T13:36:31Z</time></trkpt><trkpt lat="43.67470203613322" lon="10.615297211831663"><ele>13.0</ele><time>2026-04-17T13:36:32Z</time></trkpt><trkpt lat="43.67459099449679" lon="10.615301221061548"><ele>13.0</ele><time>2026-04-17T13:36:33Z</time></trkpt><trkpt lat="43.67447643762193" lon="10.615305219815793"><ele>13.0</ele><time>2026-04-17T13:36:34Z</time></trkpt><trkpt lat="43.67435760120455" lon="10.615309473898042"><ele>12.5</ele><time>2026-04-17T13:36:35Z</time></trkpt><trkpt lat="43.67423976699364" lon="10.615314481793083"><ele>12.0</ele><time>2026-04-17T13:36:36Z</time></trkpt><trkpt lat="43.67412002271967" lon="10.615316443796525"><ele>11.5</ele><time>2026-04-17T13:36:37Z</time></trkpt><trkpt lat="43.67399628004095" lon="10.61531513968949"><ele>11.0</ele><time>2026-04-17T13:36:38Z</time></trkpt><trkpt lat="43.673874063348705" lon="10.61532269360138"><ele>11.0</ele><time>2026-04-17T13:36:39Z</time></trkpt><trkpt lat="43.67375548019565" lon="10.615326026638074"><ele>11.0</ele><time>2026-04-17T13:36:40Z</time></trkpt><trkpt lat="43.6736571847651" lon="10.615330866586815"><ele>11.0</ele><time>2026-04-17T13:36:41Z</time></trkpt><trkpt lat="43.673556742409716" lon="10.615340064782332"><ele>11.0</ele><time>2026-04-17T13:36:42Z</time></trkpt><trkpt lat="43.673458011103776" lon="10.61534244567332"><ele>11.0</ele><time>2026-04-17T13:36:43Z</time></trkpt><trkpt lat="43.673359207459086" lon="10.615345231420427"><ele>11.25</ele><time>2026-04-17T13:36:44Z</time></trkpt><trkpt lat="43.673254717518354" lon="10.615350934603065"><ele>11.5</ele><time>2026-04-17T13:36:45Z</time></trkpt><trkpt lat="43.67314393727597" lon="10.615361080532345"><ele>11.75</ele><time>2026-04-17T13:36:46Z</time></trkpt><trkpt lat="43.67302729550672" lon="10.61537384955401"><ele>12.0</ele><time>2026-04-17T13:36:47Z</time></trkpt><trkpt lat="43.67290589541247" lon="10.615378129787409"><ele>11.75</ele><time>2026-04-17T13:36:48Z</time></trkpt><trkpt lat="43.67277204629916" lon="10.615381468240844"><ele>11.5</ele><time>2026-04-17T13:36:49Z</time></trkpt><trkpt lat="43.67264162756994" lon="10.615381097936732"><ele>11.25</ele><time>2026-04-17T13:36:50Z</time></trkpt><trkpt lat="43.672491682933284" lon="10.615359877757964"><ele>11.0</ele><time>2026-04-17T13:36:51Z</time></trkpt><trkpt lat="43.672331660852166" lon="10.615331616218148"><ele>11.666666666666666</ele><time>2026-04-17T13:36:52Z</time></trkpt><trkpt lat="43.67216470470082" lon="10.615291879020758"><ele>12.333333333333332</ele><time>2026-04-17T13:36:53Z</time></trkpt><trkpt lat="43.6719942911322" lon="10.615247775824692"><ele>13.0</ele><time>2026-04-17T13:36:54Z</time></trkpt><trkpt lat="43.67182541888481" lon="10.615198687808512"><ele>13.0</ele><time>2026-04-17T13:36:55Z</time></trkpt><trkpt lat="43.67164525463854" lon="10.615147693972634"><ele>13.0</ele><time>2026-04-17T13:36:56Z</time></trkpt><trkpt lat="43.67147812358021" lon="10.615094549829912"><ele>13.0</ele><time>2026-04-17T13:36:57Z</time></trkpt><trkpt lat="43.67130950036432" lon="10.61504541300584"><ele>13.0</ele><time>2026-04-17T13:36:58Z</time></trkpt><trkpt lat="43.67113506988738" lon="10.614999071988482"><ele>13.0</ele><time>2026-04-17T13:36:59Z</time></trkpt><trkpt lat="43.67096537644753" lon="10.614951624183893"><ele>13.0</ele><time>2026-04-17T13:37:00Z</time></trkpt><trkpt lat="43.67080397385701" lon="10.6149046664478"><ele>13.0</ele><time>2026-04-17T13:37:01Z</time></trkpt><trkpt lat="43.67065896842495" lon="10.614859474230329"><ele>13.0</ele><time>2026-04-17T13:37:02Z</time></trkpt><trkpt lat="43.67050868349893" lon="10.614814793445579"><ele>13.0</ele><time>2026-04-17T13:37:03Z</time></trkpt><trkpt lat="43.67035341206387" lon="10.614770719652181"><ele>12.5</ele><time>2026-04-17T13:37:04Z</time></trkpt><trkpt lat="43.67020906164465" lon="10.614730248962431"><ele>12.0</ele><time>2026-04-17T13:37:05Z</time></trkpt><trkpt lat="43.67007057712071" lon="10.614693618999995"><ele>11.5</ele><time>2026-04-17T13:37:06Z</time></trkpt><trkpt lat="43.669927989888464" lon="10.614650135808732"><ele>11.0</ele><time>2026-04-17T13:37:07Z</time></trkpt><trkpt lat="43.66978387851557" lon="10.614610923958963"><ele>11.0</ele><time>2026-04-17T13:37:08Z</time></trkpt><trkpt lat="43.669665532895166" lon="10.61457460528691"><ele>11.0</ele><time>2026-04-17T13:37:09Z</time></trkpt><trkpt lat="43.66958603805191" lon="10.614545531614581"><ele>11.0</ele><time>2026-04-17T13:37:10Z</time></trkpt><trkpt lat="43.66950179827622" lon="10.61452236049244"><ele>11.0</ele><time>2026-04-17T13:37:11Z</time></trkpt><trkpt lat="43.669420138094296" lon="10.61450990132879"><ele>11.0</ele><time>2026-04-17T13:37:12Z</time></trkpt><trkpt lat="43.66930723995928" lon="10.614484238941396"><ele>11.5</ele><time>2026-04-17T13:37:13Z</time></trkpt><trkpt lat="43.66918143053458" lon="10.61443808762926"><ele>12.0</ele><time>2026-04-17T13:37:14Z</time></trkpt><trkpt lat="43.669029318145036" lon="10.614381383504018"><ele>12.5</ele><time>2026-04-17T13:37:15Z</time></trkpt><trkpt lat="43.66889956228679" lon="10.614317191756289"><ele>13.0</ele><time>2026-04-17T13:37:16Z</time></trkpt><trkpt lat="43.66878925683998" lon="10.614284916585177"><ele>13.0</ele><time>2026-04-17T13:37:17Z</time></trkpt><trkpt lat="43.668661601265995" lon="10.614268013316842"><ele>13.0</ele><time>2026-04-17T13:37:18Z</time></trkpt><trkpt lat="43.66851529658916" lon="10.61422867325778"><ele>13.0</ele><time>2026-04-17T13:37:19Z</time></trkpt><trkpt lat="43.66836180018888" lon="10.614180486548335"><ele>13.0</ele><time>2026-04-17T13:37:20Z</time></trkpt><trkpt lat="43.66822262270436" lon="10.614132586081986"><ele>13.0</ele><time>2026-04-17T13:37:21Z</time></trkpt><trkpt lat="43.668084414157114" lon="10.614086129082882"><ele>13.0</ele><time>2026-04-17T13:37:22Z</time></trkpt><trkpt lat="43.66792934084155" lon="10.614047882787853"><ele>13.0</ele><time>2026-04-17T13:37:23Z</time></trkpt><trkpt lat="43.66778592636238" lon="10.614012486621261"><ele>13.0</ele><time>2026-04-17T13:37:24Z</time></trkpt><trkpt lat="43.66766111078447" lon="10.613978347910397"><ele>12.8</ele><time>2026-04-17T13:37:25Z</time></trkpt><trkpt lat="43.66754482776314" lon="10.613951309291835"><ele>12.600000000000001</ele><time>2026-04-17T13:37:26Z</time></trkpt><trkpt lat="43.66742522421612" lon="10.613922259901738"><ele>12.399999999999999</ele><time>2026-04-17T13:37:27Z</time></trkpt><trkpt lat="43.66733107738489" lon="10.613890471945075"><ele>12.2</ele><time>2026-04-17T13:37:28Z</time></trkpt><trkpt lat="43.66723079340624" lon="10.613880032614354"><ele>12.0</ele><time>2026-04-17T13:37:29Z</time></trkpt><trkpt lat="43.66712991614643" lon="10.613833048147725"><ele>12.0</ele><time>2026-04-17T13:37:30Z</time></trkpt><trkpt lat="43.66704538508262" lon="10.613807243129852"><ele>12.0</ele><time>2026-04-17T13:37:31Z</time></trkpt><trkpt lat="43.66697650425297" lon="10.61378656781965"><ele>12.0</ele><time>2026-04-17T13:37:32Z</time></trkpt><trkpt lat="43.66686590761745" lon="10.613753230336128"><ele>12.0</ele><time>2026-04-17T13:37:34Z</time></trkpt><trkpt lat="43.66674555118363" lon="10.613739543407757"><ele>12.0</ele><time>2026-04-17T13:37:36Z</time></trkpt><trkpt lat="43.66664742226599" lon="10.61367734948294"><ele>12.0</ele><time>2026-04-17T13:37:38Z</time></trkpt><trkpt lat="43.66658471017039" lon="10.613578359213898"><ele>12.0</ele><time>2026-04-17T13:37:40Z</time></trkpt><trkpt lat="43.666548392589206" lon="10.61349568876291"><ele>12.0</ele><time>2026-04-17T13:37:41Z</time></trkpt><trkpt lat="43.666508972509966" lon="10.613427597582923"><ele>12.0</ele><time>2026-04-17T13:37:42Z</time></trkpt><trkpt lat="43.666443674141945" lon="10.613380640187028"><ele>12.0</ele><time>2026-04-17T13:37:43Z</time></trkpt><trkpt lat="43.66636948107819" lon="10.613368876696896"><ele>12.0</ele><time>2026-04-17T13:37:44Z</time></trkpt><trkpt lat="43.66629769772484" lon="10.6133980903001"><ele>12.0</ele><time>2026-04-17T13:37:45Z</time></trkpt><trkpt lat="43.666239505206704" lon="10.613459092389936"><ele>12.0</ele><time>2026-04-17T13:37:46Z</time></trkpt><trkpt lat="43.66620314497789" lon="10.613551065214965"><ele>12.0</ele><time>2026-04-17T13:37:47Z</time></trkpt><trkpt lat="43.666193069697414" lon="10.613651777855967"><ele>12.0</ele><time>2026-04-17T13:37:48Z</time></trkpt><trkpt lat="43.666211438365636" lon="10.613751901301061"><ele>12.0</ele><time>2026-04-17T13:37:49Z</time></trkpt><trkpt lat="43.66626209275728" lon="10.613842193146269"><ele>12.0</ele><time>2026-04-17T13:37:50Z</time></trkpt><trkpt lat="43.66633206728108" lon="10.613911087610829"><ele>12.0</ele><time>2026-04-17T13:37:51Z</time></trkpt><trkpt lat="43.66637442041858" lon="10.613975631370574"><ele>12.0</ele><time>2026-04-17T13:37:52Z</time></trkpt><trkpt lat="43.66640362985646" lon="10.614058688583428"><ele>12.0</ele><time>2026-04-17T13:37:53Z</time></trkpt><trkpt lat="43.66641183880929" lon="10.614164274530305"><ele>12.0</ele><time>2026-04-17T13:37:54Z</time></trkpt><trkpt lat="43.666408006023715" lon="10.614288016784197"><ele>12.0</ele><time>2026-04-17T13:37:55Z</time></trkpt><trkpt lat="43.66640003334918" lon="10.614415105657299"><ele>12.0</ele><time>2026-04-17T13:37:56Z</time></trkpt><trkpt lat="43.66638595402206" lon="10.614544498626985"><ele>12.0</ele><time>2026-04-17T13:37:57Z</time></trkpt><trkpt lat="43.66636815441967" lon="10.61467857048442"><ele>12.0</ele><time>2026-04-17T13:37:58Z</time></trkpt><trkpt lat="43.666350935730165" lon="10.6148186991726"><ele>12.0</ele><time>2026-04-17T13:37:59Z</time></trkpt><trkpt lat="43.66633632915411" lon="10.61496534159046"><ele>12.0</ele><time>2026-04-17T13:38:00Z</time></trkpt><trkpt lat="43.666318741729896" lon="10.615092698716703"><ele>12.0</ele><time>2026-04-17T13:38:01Z</time></trkpt><trkpt lat="43.66630570052958" lon="10.615204393416889"><ele>12.0</ele><time>2026-04-17T13:38:02Z</time></trkpt><trkpt lat="43.66629090985921" lon="10.615318330954699"><ele>12.0</ele><time>2026-04-17T13:38:03Z</time></trkpt><trkpt lat="43.66627430606449" lon="10.615439404028917"><ele>12.0</ele><time>2026-04-17T13:38:04Z</time></trkpt><trkpt lat="43.66625695217347" lon="10.615566815034095"><ele>12.0</ele><time>2026-04-17T13:38:05Z</time></trkpt><trkpt lat="43.66624245465467" lon="10.61568890250149"><ele>12.0</ele><time>2026-04-17T13:38:06Z</time></trkpt><trkpt lat="43.66622899465127" lon="10.61580419276395"><ele>12.0</ele><time>2026-04-17T13:38:07Z</time></trkpt><trkpt lat="43.66621236329975" lon="10.615928950146442"><ele>12.0</ele><time>2026-04-17T13:38:08Z</time></trkpt><trkpt lat="43.666196947331095" lon="10.616061488416898"><ele>12.0</ele><time>2026-04-17T13:38:09Z</time></trkpt><trkpt lat="43.66617773794232" lon="10.616208023806308"><ele>12.0</ele><time>2026-04-17T13:38:10Z</time></trkpt><trkpt lat="43.6661612935046" lon="10.616333845611145"><ele>12.0</ele><time>2026-04-17T13:38:11Z</time></trkpt><trkpt lat="43.666145381443975" lon="10.616451548625609"><ele>12.0</ele><time>2026-04-17T13:38:12Z</time></trkpt><trkpt lat="43.666129613621585" lon="10.616557287454844"><ele>11.5</ele><time>2026-04-17T13:38:13Z</time></trkpt><trkpt lat="43.66611579575402" lon="10.616660138364194"><ele>11.0</ele><time>2026-04-17T13:38:14Z</time></trkpt><trkpt lat="43.66609935243196" lon="10.616769034030442"><ele>10.5</ele><time>2026-04-17T13:38:15Z</time></trkpt><trkpt lat="43.66608315264459" lon="10.616886602667838"><ele>10.0</ele><time>2026-04-17T13:38:16Z</time></trkpt><trkpt lat="43.66606818832331" lon="10.617012901511556"><ele>9.5</ele><time>2026-04-17T13:38:17Z</time></trkpt><trkpt lat="43.66605163205087" lon="10.617136592535234"><ele>9.0</ele><time>2026-04-17T13:38:18Z</time></trkpt><trkpt lat="43.666035933110905" lon="10.617249955763658"><ele>8.833333333333334</ele><time>2026-04-17T13:38:19Z</time></trkpt><trkpt lat="43.666021052009526" lon="10.61736999413572"><ele>8.666666666666666</ele><time>2026-04-17T13:38:20Z</time></trkpt><trkpt lat="43.666009409402655" lon="10.617508573619345"><ele>8.5</ele><time>2026-04-17T13:38:21Z</time></trkpt><trkpt lat="43.66599806245032" lon="10.617647143683376"><ele>8.333333333333332</ele><time>2026-04-17T13:38:22Z</time></trkpt><trkpt lat="43.66598294578703" lon="10.617756676990433"><ele>8.166666666666666</ele><time>2026-04-17T13:38:23Z</time></trkpt><trkpt lat="43.66597049928066" lon="10.617842082143232"><ele>8.0</ele><time>2026-04-17T13:38:24Z</time></trkpt><trkpt lat="43.665913741990224" lon="10.617954896414274"><ele>7.999999999999999</ele><time>2026-04-17T13:38:26Z</time></trkpt><trkpt lat="43.665841301700155" lon="10.617986561589415"><ele>8.0</ele><time>2026-04-17T13:38:28Z</time></trkpt><trkpt lat="43.66575414535588" lon="10.617988757776546"><ele>8.0</ele><time>2026-04-17T13:38:32Z</time></trkpt><trkpt lat="43.665658566841756" lon="10.617960720550023"><ele>8.0</ele><time>2026-04-17T13:38:34Z</time></trkpt><trkpt lat="43.66562549531708" lon="10.617836215175757"><ele>7.999999999999999</ele><time>2026-04-17T13:38:35Z</time></trkpt><trkpt lat="43.665557578443014" lon="10.617749393669373"><ele>8.0</ele><time>2026-04-17T13:38:36Z</time></trkpt><trkpt lat="43.66548887585882" lon="10.617643821758676"><ele>8.0</ele><time>2026-04-17T13:38:37Z</time></trkpt><trkpt lat="43.665415414845164" lon="10.617540046667392"><ele>8.0</ele><time>2026-04-17T13:38:38Z</time></trkpt><trkpt lat="43.66533952002052" lon="10.6174333102609"><ele>8.0</ele><time>2026-04-17T13:38:39Z</time></trkpt><trkpt lat="43.66526950849338" lon="10.617315153081327"><ele>8.0</ele><time>2026-04-17T13:38:40Z</time></trkpt><trkpt lat="43.665194031569555" lon="10.617191246776084"><ele>8.0</ele><time>2026-04-17T13:38:41Z</time></trkpt><trkpt lat="43.665112588802586" lon="10.617053592077239"><ele>8.0</ele><time>2026-04-17T13:38:42Z</time></trkpt><trkpt lat="43.66504386494897" lon="10.616923717597444"><ele>8.0</ele><time>2026-04-17T13:38:43Z</time></trkpt><trkpt lat="43.66498149056995" lon="10.61678667549482"><ele>8.0</ele><time>2026-04-17T13:38:44Z</time></trkpt><trkpt lat="43.66484811047636" lon="10.616653859243641"><ele>8.0</ele><time>2026-04-17T13:38:45Z</time></trkpt><trkpt lat="43.664746531018785" lon="10.616499674643201"><ele>8.0</ele><time>2026-04-17T13:38:46Z</time></trkpt><trkpt lat="43.664648728040405" lon="10.616350774734142"><ele>8.0</ele><time>2026-04-17T13:38:47Z</time></trkpt><trkpt lat="43.66456624272719" lon="10.616220763345751"><ele>8.0</ele><time>2026-04-17T13:38:48Z</time></trkpt><trkpt lat="43.66448504206979" lon="10.616087302093462"><ele>8.0</ele><time>2026-04-17T13:38:49Z</time></trkpt><trkpt lat="43.66440472940435" lon="10.615961301496892"><ele>8.75</ele><time>2026-04-17T13:38:50Z</time></trkpt><trkpt lat="43.6643292645099" lon="10.615836248338672"><ele>9.5</ele><time>2026-04-17T13:38:51Z</time></trkpt><trkpt lat="43.66425425977788" lon="10.6157186950681"><ele>10.25</ele><time>2026-04-17T13:38:52Z</time></trkpt><trkpt lat="43.66417217359013" lon="10.61558691108223"><ele>11.0</ele><time>2026-04-17T13:38:53Z</time></trkpt><trkpt lat="43.664085018106974" lon="10.615451134575679"><ele>10.25</ele><time>2026-04-17T13:38:54Z</time></trkpt><trkpt lat="43.66399909245754" lon="10.615317059158969"><ele>9.5</ele><time>2026-04-17T13:38:55Z</time></trkpt><trkpt lat="43.663910222155344" lon="10.61517251195906"><ele>8.75</ele><time>2026-04-17T13:38:56Z</time></trkpt><trkpt lat="43.66382983277339" lon="10.615038034385684"><ele>8.0</ele><time>2026-04-17T13:38:57Z</time></trkpt><trkpt lat="43.66375553146732" lon="10.614922421860111"><ele>8.0</ele><time>2026-04-17T13:38:58Z</time></trkpt><trkpt lat="43.66368747634311" lon="10.614814578526603"><ele>8.0</ele><time>2026-04-17T13:38:59Z</time></trkpt><trkpt lat="43.663622824069584" lon="10.614703166699297"><ele>8.0</ele><time>2026-04-17T13:39:00Z</time></trkpt><trkpt lat="43.66355882612255" lon="10.614593473173562"><ele>8.0</ele><time>2026-04-17T13:39:01Z</time></trkpt><trkpt lat="43.663498973328934" lon="10.614487972834027"><ele>8.0</ele><time>2026-04-17T13:39:02Z</time></trkpt><trkpt lat="43.663443777587325" lon="10.614393761701082"><ele>8.5</ele><time>2026-04-17T13:39:03Z</time></trkpt><trkpt lat="43.663385335273425" lon="10.61429949895503"><ele>9.0</ele><time>2026-04-17T13:39:04Z</time></trkpt><trkpt lat="43.66329202658188" lon="10.614143233423924"><ele>9.5</ele><time>2026-04-17T13:39:06Z</time></trkpt><trkpt lat="43.66321637531604" lon="10.613990696292412"><ele>10.0</ele><time>2026-04-17T13:39:08Z</time></trkpt><trkpt lat="43.66313900212723" lon="10.613847268545912"><ele>9.0</ele><time>2026-04-17T13:39:09Z</time></trkpt><trkpt lat="43.66304687112042" lon="10.613651641125006"><ele>8.0</ele><time>2026-04-17T13:39:10Z</time></trkpt><trkpt lat="43.66293713019236" lon="10.61344298977098"><ele>7.0</ele><time>2026-04-17T13:39:11Z</time></trkpt><trkpt lat="43.66282883200225" lon="10.613236386878734"><ele>8.333333333333334</ele><time>2026-04-17T13:39:12Z</time></trkpt><trkpt lat="43.66270541487108" lon="10.613002769638742"><ele>9.666666666666666</ele><time>2026-04-17T13:39:13Z</time></trkpt><trkpt lat="43.6625728764631" lon="10.61274372584899"><ele>11.0</ele><time>2026-04-17T13:39:14Z</time></trkpt><trkpt lat="43.66243460094046" lon="10.612496554368336"><ele>11.0</ele><time>2026-04-17T13:39:15Z</time></trkpt><trkpt lat="43.662319070914" lon="10.612291856957446"><ele>11.0</ele><time>2026-04-17T13:39:16Z</time></trkpt><trkpt lat="43.66220670898594" lon="10.612084361491027"><ele>11.0</ele><time>2026-04-17T13:39:17Z</time></trkpt><trkpt lat="43.6621005461371" lon="10.611855798895082"><ele>10.333333333333332</ele><time>2026-04-17T13:39:18Z</time></trkpt><trkpt lat="43.66196223861021" lon="10.611628886673092"><ele>9.666666666666666</ele><time>2026-04-17T13:39:19Z</time></trkpt><trkpt lat="43.661833792921634" lon="10.611404185082272"><ele>9.0</ele><time>2026-04-17T13:39:20Z</time></trkpt><trkpt lat="43.66171790941047" lon="10.611200620583828"><ele>9.333333333333334</ele><time>2026-04-17T13:39:21Z</time></trkpt><trkpt lat="43.66158985053865" lon="10.61097150302699"><ele>9.666666666666668</ele><time>2026-04-17T13:39:22Z</time></trkpt><trkpt lat="43.66146926867581" lon="10.610767347133699"><ele>10.0</ele><time>2026-04-17T13:39:23Z</time></trkpt><trkpt lat="43.66135458034367" lon="10.610560240418664"><ele>10.666666666666668</ele><time>2026-04-17T13:39:24Z</time></trkpt><trkpt lat="43.66123271027835" lon="10.610322101981179"><ele>11.333333333333334</ele><time>2026-04-17T13:39:25Z</time></trkpt><trkpt lat="43.661091648101326" lon="10.610064210353626"><ele>12.0</ele><time>2026-04-17T13:39:26Z</time></trkpt><trkpt lat="43.66099036508031" lon="10.609890309833794"><ele>12.0</ele><time>2026-04-17T13:39:27Z</time></trkpt><trkpt lat="43.66088154566663" lon="10.609695660543819"><ele>12.0</ele><time>2026-04-17T13:39:28Z</time></trkpt><trkpt lat="43.660775229878794" lon="10.609500937960256"><ele>12.0</ele><time>2026-04-17T13:39:29Z</time></trkpt><trkpt lat="43.66067662016006" lon="10.609324011148635"><ele>11.0</ele><time>2026-04-17T13:39:30Z</time></trkpt><trkpt lat="43.660585580952" lon="10.609144549265055"><ele>10.0</ele><time>2026-04-17T13:39:31Z</time></trkpt><trkpt lat="43.66046749668787" lon="10.608929995750175"><ele>9.0</ele><time>2026-04-17T13:39:32Z</time></trkpt><trkpt lat="43.660346352658266" lon="10.608703692171838"><ele>9.5</ele><time>2026-04-17T13:39:33Z</time></trkpt><trkpt lat="43.66025462324368" lon="10.608526804005734"><ele>10.0</ele><time>2026-04-17T13:39:34Z</time></trkpt><trkpt lat="43.66016919027667" lon="10.608369267115162"><ele>10.5</ele><time>2026-04-17T13:39:35Z</time></trkpt><trkpt lat="43.66009051734837" lon="10.60822754509322"><ele>11.0</ele><time>2026-04-17T13:39:36Z</time></trkpt><trkpt lat="43.6600047682509" lon="10.608073477830771"><ele>11.0</ele><time>2026-04-17T13:39:37Z</time></trkpt><trkpt lat="43.659936193620744" lon="10.607947004056546"><ele>11.0</ele><time>2026-04-17T13:39:38Z</time></trkpt><trkpt lat="43.65985794428915" lon="10.607784052590379"><ele>11.0</ele><time>2026-04-17T13:39:39Z</time></trkpt><trkpt lat="43.65974163954366" lon="10.607580494749707"><ele>11.0</ele><time>2026-04-17T13:39:40Z</time></trkpt><trkpt lat="43.65960719026148" lon="10.60735037087135"><ele>11.0</ele><time>2026-04-17T13:39:41Z</time></trkpt><trkpt lat="43.659461702558126" lon="10.607098119867466"><ele>11.0</ele><time>2026-04-17T13:39:42Z</time></trkpt><trkpt lat="43.6593215433726" lon="10.606827927526533"><ele>11.0</ele><time>2026-04-17T13:39:43Z</time></trkpt><trkpt lat="43.6592204538454" lon="10.60663940468321"><ele>11.0</ele><time>2026-04-17T13:39:44Z</time></trkpt><trkpt lat="43.65912507030373" lon="10.60646464067882"><ele>11.0</ele><time>2026-04-17T13:39:45Z</time></trkpt><trkpt lat="43.659030992462746" lon="10.606285633752023"><ele>9.333333333333332</ele><time>2026-04-17T13:39:46Z</time></trkpt><trkpt lat="43.65894680050399" lon="10.606117023452041"><ele>7.666666666666666</ele><time>2026-04-17T13:39:47Z</time></trkpt><trkpt lat="43.6588548208562" lon="10.605944699356504"><ele>6.0</ele><time>2026-04-17T13:39:48Z</time></trkpt><trkpt lat="43.658767393308516" lon="10.605772924956257"><ele>6.0</ele><time>2026-04-17T13:39:49Z</time></trkpt><trkpt lat="43.65868357979314" lon="10.605611808318155"><ele>6.0</ele><time>2026-04-17T13:39:50Z</time></trkpt><trkpt lat="43.658580691537075" lon="10.605427337209916"><ele>6.0</ele><time>2026-04-17T13:39:51Z</time></trkpt><trkpt lat="43.65848532047835" lon="10.60524096655118"><ele>7.0</ele><time>2026-04-17T13:39:52Z</time></trkpt><trkpt lat="43.65838629405903" lon="10.605059111915166"><ele>8.0</ele><time>2026-04-17T13:39:53Z</time></trkpt><trkpt lat="43.65828263329837" lon="10.604878169439166"><ele>9.0</ele><time>2026-04-17T13:39:54Z</time></trkpt><trkpt lat="43.65820298738535" lon="10.604722063135922"><ele>9.0</ele><time>2026-04-17T13:39:55Z</time></trkpt><trkpt lat="43.658120682513484" lon="10.604565444223496"><ele>9.0</ele><time>2026-04-17T13:39:56Z</time></trkpt><trkpt lat="43.65803128810841" lon="10.604394577895235"><ele>9.0</ele><time>2026-04-17T13:39:57Z</time></trkpt><trkpt lat="43.65795015291155" lon="10.604235047111601"><ele>9.0</ele><time>2026-04-17T13:39:58Z</time></trkpt><trkpt lat="43.65787203671065" lon="10.604083380302265"><ele>8.75</ele><time>2026-04-17T13:39:59Z</time></trkpt><trkpt lat="43.6577999623467" lon="10.603935100613528"><ele>8.5</ele><time>2026-04-17T13:40:00Z</time></trkpt><trkpt lat="43.6577252176896" lon="10.603782888566302"><ele>8.25</ele><time>2026-04-17T13:40:01Z</time></trkpt><trkpt lat="43.6576495420323" lon="10.603646953177247"><ele>8.0</ele><time>2026-04-17T13:40:02Z</time></trkpt><trkpt lat="43.65758198448933" lon="10.603513294800225"><ele>8.4</ele><time>2026-04-17T13:40:03Z</time></trkpt><trkpt lat="43.657518367475994" lon="10.603390097431179"><ele>8.8</ele><time>2026-04-17T13:40:04Z</time></trkpt><trkpt lat="43.657454681366254" lon="10.603268294488352"><ele>9.2</ele><time>2026-04-17T13:40:05Z</time></trkpt><trkpt lat="43.657399590471734" lon="10.603154788382655"><ele>9.6</ele><time>2026-04-17T13:40:06Z</time></trkpt><trkpt lat="43.65735100530231" lon="10.603043534138084"><ele>10.0</ele><time>2026-04-17T13:40:07Z</time></trkpt><trkpt lat="43.65729654658494" lon="10.602934221098808"><ele>9.0</ele><time>2026-04-17T13:40:08Z</time></trkpt><trkpt lat="43.65724469560145" lon="10.60282652988417"><ele>8.0</ele><time>2026-04-17T13:40:09Z</time></trkpt><trkpt lat="43.657192306944765" lon="10.602722186258472"><ele>7.0</ele><time>2026-04-17T13:40:10Z</time></trkpt><trkpt lat="43.65714184922705" lon="10.60260952622684"><ele>6.0</ele><time>2026-04-17T13:40:11Z</time></trkpt><trkpt lat="43.65706891127966" lon="10.602477228717598"><ele>5.0</ele><time>2026-04-17T13:40:12Z</time></trkpt><trkpt lat="43.65699576810481" lon="10.602329847656577"><ele>6.5</ele><time>2026-04-17T13:40:13Z</time></trkpt><trkpt lat="43.65692430043291" lon="10.602186626217778"><ele>8.0</ele><time>2026-04-17T13:40:14Z</time></trkpt><trkpt lat="43.65685762091277" lon="10.602047372770643"><ele>9.5</ele><time>2026-04-17T13:40:15Z</time></trkpt><trkpt lat="43.65679401197187" lon="10.601915671056945"><ele>11.0</ele><time>2026-04-17T13:40:16Z</time></trkpt><trkpt lat="43.656736528248956" lon="10.601799660614079"><ele>11.0</ele><time>2026-04-17T13:40:17Z</time></trkpt><trkpt lat="43.65667902492496" lon="10.601679691274358"><ele>11.0</ele><time>2026-04-17T13:40:18Z</time></trkpt><trkpt lat="43.65662328071611" lon="10.601557545596638"><ele>11.0</ele><time>2026-04-17T13:40:19Z</time></trkpt><trkpt lat="43.65656336840077" lon="10.601433882237371"><ele>11.0</ele><time>2026-04-17T13:40:20Z</time></trkpt><trkpt lat="43.65650013570182" lon="10.601300734162775"><ele>11.0</ele><time>2026-04-17T13:40:21Z</time></trkpt><trkpt lat="43.65643414268277" lon="10.601160831202112"><ele>9.5</ele><time>2026-04-17T13:40:22Z</time></trkpt><trkpt lat="43.65637247539897" lon="10.601021744851787"><ele>8.0</ele><time>2026-04-17T13:40:23Z</time></trkpt><trkpt lat="43.656309482646684" lon="10.600882892997166"><ele>6.5</ele><time>2026-04-17T13:40:24Z</time></trkpt><trkpt lat="43.65624537866355" lon="10.60074782597863"><ele>5.0</ele><time>2026-04-17T13:40:25Z</time></trkpt><trkpt lat="43.656179196816026" lon="10.600614599645425"><ele>5.75</ele><time>2026-04-17T13:40:26Z</time></trkpt><trkpt lat="43.656115143171164" lon="10.600481277366306"><ele>6.5</ele><time>2026-04-17T13:40:27Z</time></trkpt><trkpt lat="43.656050546643414" lon="10.600341339871868"><ele>7.25</ele><time>2026-04-17T13:40:28Z</time></trkpt><trkpt lat="43.65598831126066" lon="10.600205383571897"><ele>8.0</ele><time>2026-04-17T13:40:29Z</time></trkpt><trkpt lat="43.65592334490265" lon="10.600069023949635"><ele>8.0</ele><time>2026-04-17T13:40:30Z</time></trkpt><trkpt lat="43.65586181300485" lon="10.599936831178155"><ele>8.0</ele><time>2026-04-17T13:40:31Z</time></trkpt><trkpt lat="43.65580570072659" lon="10.599813747879105"><ele>8.0</ele><time>2026-04-17T13:40:32Z</time></trkpt><trkpt lat="43.655748602113064" lon="10.599683395487896"><ele>8.0</ele><time>2026-04-17T13:40:33Z</time></trkpt><trkpt lat="43.65568580967096" lon="10.599547973898733"><ele>8.0</ele><time>2026-04-17T13:40:34Z</time></trkpt><trkpt lat="43.65562436353605" lon="10.599416144105009"><ele>7.6000000000000005</ele><time>2026-04-17T13:40:35Z</time></trkpt><trkpt lat="43.655568801179705" lon="10.599293442333906"><ele>7.200000000000001</ele><time>2026-04-17T13:40:36Z</time></trkpt><trkpt lat="43.65551671236684" lon="10.59917844409694"><ele>6.8</ele><time>2026-04-17T13:40:37Z</time></trkpt><trkpt lat="43.6554585897589" lon="10.599046774617184"><ele>6.4</ele><time>2026-04-17T13:40:38Z</time></trkpt><trkpt lat="43.655395661255135" lon="10.598916321212602"><ele>6.0</ele><time>2026-04-17T13:40:39Z</time></trkpt><trkpt lat="43.65532979279406" lon="10.59877239097184"><ele>6.8</ele><time>2026-04-17T13:40:40Z</time></trkpt><trkpt lat="43.655270628991815" lon="10.59864892409459"><ele>7.6</ele><time>2026-04-17T13:40:41Z</time></trkpt><trkpt lat="43.65522176176877" lon="10.59853899647087"><ele>8.4</ele><time>2026-04-17T13:40:42Z</time></trkpt><trkpt lat="43.6551680816662" lon="10.598426131229706"><ele>9.2</ele><time>2026-04-17T13:40:43Z</time></trkpt><trkpt lat="43.655113477335895" lon="10.598298777704988"><ele>10.0</ele><time>2026-04-17T13:40:44Z</time></trkpt><trkpt lat="43.6550425673235" lon="10.598145542909826"><ele>10.0</ele><time>2026-04-17T13:40:45Z</time></trkpt><trkpt lat="43.65497102451243" lon="10.597993490319404"><ele>10.0</ele><time>2026-04-17T13:40:46Z</time></trkpt><trkpt lat="43.65493011004083" lon="10.597858217846913"><ele>10.0</ele><time>2026-04-17T13:40:47Z</time></trkpt><trkpt lat="43.6548789422673" lon="10.597742608619496"><ele>10.0</ele><time>2026-04-17T13:40:48Z</time></trkpt><trkpt lat="43.6548200247355" lon="10.597609490503563"><ele>10.0</ele><time>2026-04-17T13:40:49Z</time></trkpt><trkpt lat="43.654755602708306" lon="10.59746393485224"><ele>9.25</ele><time>2026-04-17T13:40:50Z</time></trkpt><trkpt lat="43.654673826176484" lon="10.59732267575449"><ele>8.5</ele><time>2026-04-17T13:40:51Z</time></trkpt><trkpt lat="43.654615873245454" lon="10.597182769334669"><ele>7.75</ele><time>2026-04-17T13:40:52Z</time></trkpt><trkpt lat="43.6545662128465" lon="10.597059453108344"><ele>7.0</ele><time>2026-04-17T13:40:53Z</time></trkpt><trkpt lat="43.65451119102967" lon="10.596923221564914"><ele>8.75</ele><time>2026-04-17T13:40:54Z</time></trkpt><trkpt lat="43.654447281634646" lon="10.596774954948044"><ele>10.5</ele><time>2026-04-17T13:40:55Z</time></trkpt><trkpt lat="43.654377825934446" lon="10.596620216704798"><ele>12.25</ele><time>2026-04-17T13:40:56Z</time></trkpt><trkpt lat="43.65430337018774" lon="10.596456600223993"><ele>14.0</ele><time>2026-04-17T13:40:57Z</time></trkpt><trkpt lat="43.65423989326101" lon="10.596313541060724"><ele>14.0</ele><time>2026-04-17T13:40:58Z</time></trkpt><trkpt lat="43.65418094439318" lon="10.596181253878775"><ele>14.0</ele><time>2026-04-17T13:40:59Z</time></trkpt><trkpt lat="43.65411836086069" lon="10.596035150326228"><ele>14.0</ele><time>2026-04-17T13:41:00Z</time></trkpt><trkpt lat="43.65405027260111" lon="10.595875064372137"><ele>14.0</ele><time>2026-04-17T13:41:01Z</time></trkpt><trkpt lat="43.65397595893129" lon="10.595696000451026"><ele>13.0</ele><time>2026-04-17T13:41:02Z</time></trkpt><trkpt lat="43.653895281072295" lon="10.595523407511122"><ele>12.0</ele><time>2026-04-17T13:41:03Z</time></trkpt><trkpt lat="43.65382029732502" lon="10.595350061084208"><ele>11.0</ele><time>2026-04-17T13:41:04Z</time></trkpt><trkpt lat="43.653739760573025" lon="10.595166625743063"><ele>10.666666666666666</ele><time>2026-04-17T13:41:05Z</time></trkpt><trkpt lat="43.65365244057633" lon="10.594966823982883"><ele>10.333333333333334</ele><time>2026-04-17T13:41:06Z</time></trkpt><trkpt lat="43.653568713953824" lon="10.59477126562964"><ele>10.0</ele><time>2026-04-17T13:41:07Z</time></trkpt><trkpt lat="43.65349145194165" lon="10.59459544917714"><ele>9.5</ele><time>2026-04-17T13:41:08Z</time></trkpt><trkpt lat="43.65341736110573" lon="10.594424646888772"><ele>9.0</ele><time>2026-04-17T13:41:09Z</time></trkpt><trkpt lat="43.653347127738485" lon="10.594258384291766"><ele>8.5</ele><time>2026-04-17T13:41:10Z</time></trkpt><trkpt lat="43.65327178598668" lon="10.594083083484675"><ele>8.0</ele><time>2026-04-17T13:41:11Z</time></trkpt><trkpt lat="43.6531881634518" lon="10.593895591270948"><ele>8.0</ele><time>2026-04-17T13:41:12Z</time></trkpt><trkpt lat="43.6531005625254" lon="10.593698429864244"><ele>8.0</ele><time>2026-04-17T13:41:13Z</time></trkpt><trkpt lat="43.65301243159156" lon="10.59349576043043"><ele>8.0</ele><time>2026-04-17T13:41:14Z</time></trkpt><trkpt lat="43.65293234784749" lon="10.593309426683799"><ele>8.5</ele><time>2026-04-17T13:41:15Z</time></trkpt><trkpt lat="43.652856659729544" lon="10.593133239654888"><ele>9.0</ele><time>2026-04-17T13:41:16Z</time></trkpt><trkpt lat="43.652781882649165" lon="10.592954866076576"><ele>9.5</ele><time>2026-04-17T13:41:17Z</time></trkpt><trkpt lat="43.65270610187532" lon="10.592781622578842"><ele>10.0</ele><time>2026-04-17T13:41:18Z</time></trkpt><trkpt lat="43.65262742888848" lon="10.592602493759017"><ele>10.0</ele><time>2026-04-17T13:41:19Z</time></trkpt><trkpt lat="43.65254534127314" lon="10.592416386494628"><ele>10.0</ele><time>2026-04-17T13:41:20Z</time></trkpt><trkpt lat="43.65246217131712" lon="10.59222004264544"><ele>10.0</ele><time>2026-04-17T13:41:21Z</time></trkpt><trkpt lat="43.65238797531942" lon="10.592046883732065"><ele>9.75</ele><time>2026-04-17T13:41:22Z</time></trkpt><trkpt lat="43.652316657143395" lon="10.591878953695659"><ele>9.5</ele><time>2026-04-17T13:41:23Z</time></trkpt><trkpt lat="43.65224403483017" lon="10.591711683111722"><ele>9.25</ele><time>2026-04-17T13:41:24Z</time></trkpt><trkpt lat="43.6521714465705" lon="10.591541089631608"><ele>9.0</ele><time>2026-04-17T13:41:25Z</time></trkpt><trkpt lat="43.65209312164849" lon="10.59136722496513"><ele>9.0</ele><time>2026-04-17T13:41:26Z</time></trkpt><trkpt lat="43.65202424814892" lon="10.591210395351224"><ele>9.0</ele><time>2026-04-17T13:41:27Z</time></trkpt><trkpt lat="43.65196323099679" lon="10.591065906556445"><ele>9.0</ele><time>2026-04-17T13:41:28Z</time></trkpt><trkpt lat="43.65190354298411" lon="10.590937573467238"><ele>9.0</ele><time>2026-04-17T13:41:29Z</time></trkpt><trkpt lat="43.651848870620725" lon="10.590808376009656"><ele>8.5</ele><time>2026-04-17T13:41:30Z</time></trkpt><trkpt lat="43.651786877464126" lon="10.590659396296044"><ele>8.0</ele><time>2026-04-17T13:41:31Z</time></trkpt><trkpt lat="43.65172477429599" lon="10.590516009898902"><ele>7.5</ele><time>2026-04-17T13:41:32Z</time></trkpt><trkpt lat="43.6516695768719" lon="10.590385314390064"><ele>7.0</ele><time>2026-04-17T13:41:33Z</time></trkpt><trkpt lat="43.651617658515015" lon="10.59026370879537"><ele>7.0</ele><time>2026-04-17T13:41:34Z</time></trkpt><trkpt lat="43.651562889785296" lon="10.59014671792573"><ele>6.999999999999999</ele><time>2026-04-17T13:41:35Z</time></trkpt><trkpt lat="43.65153037482129" lon="10.59005229757255"><ele>6.999999999999999</ele><time>2026-04-17T13:41:36Z</time></trkpt><trkpt lat="43.65146765400321" lon="10.589917598730443"><ele>7.0</ele><time>2026-04-17T13:41:38Z</time></trkpt><trkpt lat="43.65141925457154" lon="10.589828401206615"><ele>7.0</ele><time>2026-04-17T13:41:40Z</time></trkpt><trkpt lat="43.65138757113087" lon="10.589723756549494"><ele>7.000000000000001</ele><time>2026-04-17T13:41:43Z</time></trkpt><trkpt lat="43.65126631182598" lon="10.58977648815197"><ele>7.0</ele><time>2026-04-17T13:41:45Z</time></trkpt><trkpt lat="43.651223475799014" lon="10.589844801932873"><ele>7.0</ele><time>2026-04-17T13:41:46Z</time></trkpt><trkpt lat="43.65118935550335" lon="10.589947516068843"><ele>7.0</ele><time>2026-04-17T13:41:47Z</time></trkpt><trkpt lat="43.651159502643104" lon="10.590059179114098"><ele>7.000000000000001</ele><time>2026-04-17T13:41:48Z</time></trkpt><trkpt lat="43.65112388207079" lon="10.59016134269281"><ele>7.0</ele><time>2026-04-17T13:41:49Z</time></trkpt><trkpt lat="43.65108174577266" lon="10.590257414338176"><ele>7.8</ele><time>2026-04-17T13:41:50Z</time></trkpt><trkpt lat="43.65103755455815" lon="10.590350220605831"><ele>8.6</ele><time>2026-04-17T13:41:51Z</time></trkpt><trkpt lat="43.65098987556045" lon="10.590453665197899"><ele>9.4</ele><time>2026-04-17T13:41:52Z</time></trkpt><trkpt lat="43.650936382861104" lon="10.590563776703883"><ele>10.200000000000001</ele><time>2026-04-17T13:41:53Z</time></trkpt><trkpt lat="43.65088174014747" lon="10.590666793592625"><ele>11.0</ele><time>2026-04-17T13:41:54Z</time></trkpt><trkpt lat="43.65081772724316" lon="10.590758972034116"><ele>11.0</ele><time>2026-04-17T13:41:55Z</time></trkpt><trkpt lat="43.65075280215354" lon="10.59083755493416"><ele>11.0</ele><time>2026-04-17T13:41:56Z</time></trkpt><trkpt lat="43.65068084781562" lon="10.590909594467476"><ele>11.0</ele><time>2026-04-17T13:41:57Z</time></trkpt><trkpt lat="43.65060124484741" lon="10.590984757764268"><ele>11.0</ele><time>2026-04-17T13:41:58Z</time></trkpt><trkpt lat="43.65052228696911" lon="10.591076627389953"><ele>11.0</ele><time>2026-04-17T13:41:59Z</time></trkpt><trkpt lat="43.650446797005756" lon="10.591187756208024"><ele>10.75</ele><time>2026-04-17T13:42:00Z</time></trkpt><trkpt lat="43.65037903458348" lon="10.591314447921844"><ele>10.5</ele><time>2026-04-17T13:42:01Z</time></trkpt><trkpt lat="43.65032459280096" lon="10.591451830258329"><ele>10.25</ele><time>2026-04-17T13:42:02Z</time></trkpt><trkpt lat="43.65027248494749" lon="10.591596740204531"><ele>10.0</ele><time>2026-04-17T13:42:03Z</time></trkpt><trkpt lat="43.6502167280672" lon="10.591750149836564"><ele>10.0</ele><time>2026-04-17T13:42:04Z</time></trkpt><trkpt lat="43.65015702726226" lon="10.591916414264432"><ele>10.0</ele><time>2026-04-17T13:42:05Z</time></trkpt><trkpt lat="43.650074872972695" lon="10.592079905107566"><ele>10.0</ele><time>2026-04-17T13:42:06Z</time></trkpt><trkpt lat="43.64999622564713" lon="10.592281628365471"><ele>10.0</ele><time>2026-04-17T13:42:07Z</time></trkpt><trkpt lat="43.649913979334066" lon="10.592492845346188"><ele>10.0</ele><time>2026-04-17T13:42:08Z</time></trkpt><trkpt lat="43.649828675969154" lon="10.592711911450735"><ele>10.0</ele><time>2026-04-17T13:42:09Z</time></trkpt><trkpt lat="43.64973830741028" lon="10.592945374122545"><ele>10.0</ele><time>2026-04-17T13:42:10Z</time></trkpt><trkpt lat="43.64963888676677" lon="10.59320206036269"><ele>10.0</ele><time>2026-04-17T13:42:11Z</time></trkpt><trkpt lat="43.64954388660645" lon="10.593476307860213"><ele>10.0</ele><time>2026-04-17T13:42:12Z</time></trkpt><trkpt lat="43.649438079944844" lon="10.593704700165581"><ele>10.0</ele><time>2026-04-17T13:42:13Z</time></trkpt><trkpt lat="43.649349058265905" lon="10.593919640188577"><ele>10.0</ele><time>2026-04-17T13:42:14Z</time></trkpt><trkpt lat="43.64926362058666" lon="10.59413223911493"><ele>10.0</ele><time>2026-04-17T13:42:15Z</time></trkpt><trkpt lat="43.649182489515304" lon="10.594340770907033"><ele>10.0</ele><time>2026-04-17T13:42:16Z</time></trkpt><trkpt lat="43.649105500487586" lon="10.59455234341565"><ele>10.0</ele><time>2026-04-17T13:42:17Z</time></trkpt><trkpt lat="43.6490265914064" lon="10.594766532602746"><ele>10.0</ele><time>2026-04-17T13:42:18Z</time></trkpt><trkpt lat="43.6489538969749" lon="10.594957528991536"><ele>10.0</ele><time>2026-04-17T13:42:19Z</time></trkpt><trkpt lat="43.648886408189476" lon="10.595126602954732"><ele>10.0</ele><time>2026-04-17T13:42:20Z</time></trkpt><trkpt lat="43.64882700071478" lon="10.595279252952976"><ele>10.0</ele><time>2026-04-17T13:42:21Z</time></trkpt><trkpt lat="43.64877144254346" lon="10.595414047208076"><ele>10.0</ele><time>2026-04-17T13:42:22Z</time></trkpt><trkpt lat="43.64871970977081" lon="10.595537006631575"><ele>10.0</ele><time>2026-04-17T13:42:23Z</time></trkpt><trkpt lat="43.64867120642251" lon="10.595643823214871"><ele>10.0</ele><time>2026-04-17T13:42:24Z</time></trkpt><trkpt lat="43.64860650841694" lon="10.595762101100686"><ele>10.25</ele><time>2026-04-17T13:42:25Z</time></trkpt><trkpt lat="43.648540075304304" lon="10.595902040466076"><ele>10.5</ele><time>2026-04-17T13:42:26Z</time></trkpt><trkpt lat="43.64848701657058" lon="10.596069428093445"><ele>10.75</ele><time>2026-04-17T13:42:27Z</time></trkpt><trkpt lat="43.64843630300545" lon="10.596256974446502"><ele>11.0</ele><time>2026-04-17T13:42:28Z</time></trkpt><trkpt lat="43.64838324989316" lon="10.596439171147267"><ele>11.0</ele><time>2026-04-17T13:42:29Z</time></trkpt><trkpt lat="43.648307991501916" lon="10.596640942048545"><ele>11.0</ele><time>2026-04-17T13:42:30Z</time></trkpt><trkpt lat="43.64822053910637" lon="10.596861107749957"><ele>11.0</ele><time>2026-04-17T13:42:31Z</time></trkpt><trkpt lat="43.648130349214576" lon="10.5970826695571"><ele>11.333333333333332</ele><time>2026-04-17T13:42:32Z</time></trkpt><trkpt lat="43.64805492628095" lon="10.597282110422098"><ele>11.666666666666666</ele><time>2026-04-17T13:42:33Z</time></trkpt><trkpt lat="43.64797599919786" lon="10.59748933846274"><ele>12.0</ele><time>2026-04-17T13:42:34Z</time></trkpt><trkpt lat="43.6478888092163" lon="10.597701770228067"><ele>12.0</ele><time>2026-04-17T13:42:35Z</time></trkpt><trkpt lat="43.64781361003891" lon="10.597888530517551"><ele>12.0</ele><time>2026-04-17T13:42:36Z</time></trkpt><trkpt lat="43.64774875862783" lon="10.59805063556388"><ele>12.0</ele><time>2026-04-17T13:42:37Z</time></trkpt><trkpt lat="43.64769500459251" lon="10.598189627281512"><ele>12.0</ele><time>2026-04-17T13:42:38Z</time></trkpt><trkpt lat="43.647647814191174" lon="10.598301355488656"><ele>12.0</ele><time>2026-04-17T13:42:39Z</time></trkpt><trkpt lat="43.64760336235322" lon="10.598415655811241"><ele>12.0</ele><time>2026-04-17T13:42:40Z</time></trkpt><trkpt lat="43.64755371774679" lon="10.598525917518614"><ele>12.0</ele><time>2026-04-17T13:42:41Z</time></trkpt><trkpt lat="43.6475026437583" lon="10.598607856727629"><ele>12.0</ele><time>2026-04-17T13:42:42Z</time></trkpt><trkpt lat="43.64743802983005" lon="10.59866501636393"><ele>12.0</ele><time>2026-04-17T13:42:43Z</time></trkpt><trkpt lat="43.647379602789165" lon="10.598743033861934"><ele>12.0</ele><time>2026-04-17T13:42:44Z</time></trkpt><trkpt lat="43.647349886148525" lon="10.598853230642744"><ele>12.0</ele><time>2026-04-17T13:42:45Z</time></trkpt><trkpt lat="43.64735870545533" lon="10.598960623964043"><ele>12.0</ele><time>2026-04-17T13:42:46Z</time></trkpt><trkpt lat="43.64739227476534" lon="10.599040900883761"><ele>12.0</ele><time>2026-04-17T13:42:47Z</time></trkpt><trkpt lat="43.64744054883503" lon="10.59915762363209"><ele>12.0</ele><time>2026-04-17T13:42:49Z</time></trkpt><trkpt lat="43.64739033990978" lon="10.59926304141417"><ele>12.0</ele><time>2026-04-17T13:42:50Z</time></trkpt><trkpt lat="43.647335603192616" lon="10.599423436936219"><ele>11.833333333333334</ele><time>2026-04-17T13:42:52Z</time></trkpt><trkpt lat="43.647311533333294" lon="10.599513208842877"><ele>11.666666666666666</ele><time>2026-04-17T13:42:53Z</time></trkpt><trkpt lat="43.64727113987867" lon="10.599609666946474"><ele>11.5</ele><time>2026-04-17T13:42:54Z</time></trkpt><trkpt lat="43.6472404627347" lon="10.599693045601912"><ele>11.333333333333332</ele><time>2026-04-17T13:42:55Z</time></trkpt><trkpt lat="43.647208236182514" lon="10.599772012020763"><ele>11.166666666666666</ele><time>2026-04-17T13:42:56Z</time></trkpt><trkpt lat="43.647130183766805" lon="10.599925777461381"><ele>11.0</ele><time>2026-04-17T13:42:58Z</time></trkpt><trkpt lat="43.647106144963516" lon="10.60001367975204"><ele>11.0</ele><time>2026-04-17T13:42:59Z</time></trkpt><trkpt lat="43.64705001773578" lon="10.600150437377657"><ele>11.0</ele><time>2026-04-17T13:43:01Z</time></trkpt><trkpt lat="43.64699803215674" lon="10.600261085800094"><ele>11.0</ele><time>2026-04-17T13:43:03Z</time></trkpt><trkpt lat="43.64692584604786" lon="10.600336009873018"><ele>11.0</ele><time>2026-04-17T13:43:05Z</time></trkpt><trkpt lat="43.64681005197302" lon="10.600382976205394"><ele>11.0</ele><time>2026-04-17T13:43:07Z</time></trkpt><trkpt lat="43.646724150722" lon="10.600520337435873"><ele>10.600000000000001</ele><time>2026-04-17T13:43:09Z</time></trkpt><trkpt lat="43.646714209281946" lon="10.600617761081427"><ele>10.200000000000001</ele><time>2026-04-17T13:43:10Z</time></trkpt><trkpt lat="43.646738316456585" lon="10.600713755890771"><ele>9.8</ele><time>2026-04-17T13:43:11Z</time></trkpt><trkpt lat="43.64674795621907" lon="10.600835321809324"><ele>9.4</ele><time>2026-04-17T13:43:12Z</time></trkpt><trkpt lat="43.64684481451356" lon="10.600953820753546"><ele>9.0</ele><time>2026-04-17T13:43:13Z</time></trkpt><trkpt lat="43.64672631534935" lon="10.601069774780315"><ele>9.5</ele><time>2026-04-17T13:43:14Z</time></trkpt><trkpt lat="43.6466859938027" lon="10.60121146273018"><ele>10.0</ele><time>2026-04-17T13:43:15Z</time></trkpt><trkpt lat="43.64661903437694" lon="10.601340816846404"><ele>10.5</ele><time>2026-04-17T13:43:16Z</time></trkpt><trkpt lat="43.64655799556273" lon="10.601493563040725"><ele>11.0</ele><time>2026-04-17T13:43:17Z</time></trkpt><trkpt lat="43.646500787094574" lon="10.60162650101385"><ele>11.0</ele><time>2026-04-17T13:43:18Z</time></trkpt><trkpt lat="43.646445911208716" lon="10.601766570409369"><ele>11.0</ele><time>2026-04-17T13:43:19Z</time></trkpt><trkpt lat="43.64640326269278" lon="10.601880714347601"><ele>11.0</ele><time>2026-04-17T13:43:20Z</time></trkpt><trkpt lat="43.64634260384824" lon="10.602022430771639"><ele>11.0</ele><time>2026-04-17T13:43:21Z</time></trkpt><trkpt lat="43.64628169298438" lon="10.602176163957138"><ele>11.200000000000001</ele><time>2026-04-17T13:43:22Z</time></trkpt><trkpt lat="43.64623595788169" lon="10.602296653351056"><ele>11.4</ele><time>2026-04-17T13:43:23Z</time></trkpt><trkpt lat="43.64619304969861" lon="10.602411593931608"><ele>11.6</ele><time>2026-04-17T13:43:24Z</time></trkpt><trkpt lat="43.64614591421742" lon="10.602528267027708"><ele>11.8</ele><time>2026-04-17T13:43:25Z</time></trkpt><trkpt lat="43.64610098783457" lon="10.602645453957432"><ele>12.0</ele><time>2026-04-17T13:43:26Z</time></trkpt><trkpt lat="43.64606568881162" lon="10.60275364876436"><ele>11.8</ele><time>2026-04-17T13:43:27Z</time></trkpt><trkpt lat="43.646016092240934" lon="10.602864604075783"><ele>11.6</ele><time>2026-04-17T13:43:28Z</time></trkpt><trkpt lat="43.64596849478943" lon="10.602973695051531"><ele>11.4</ele><time>2026-04-17T13:43:29Z</time></trkpt><trkpt lat="43.64593375900848" lon="10.603064686845055"><ele>11.200000000000001</ele><time>2026-04-17T13:43:30Z</time></trkpt><trkpt lat="43.64590060898739" lon="10.60314104265999"><ele>11.0</ele><time>2026-04-17T13:43:31Z</time></trkpt><trkpt lat="43.645815111258024" lon="10.603304184885015"><ele>11.0</ele><time>2026-04-17T13:43:33Z</time></trkpt><trkpt lat="43.6457588399528" lon="10.603379096509983"><ele>11.0</ele><time>2026-04-17T13:43:34Z</time></trkpt><trkpt lat="43.6457116365897" lon="10.603449486208573"><ele>11.0</ele><time>2026-04-17T13:43:35Z</time></trkpt><trkpt lat="43.64565364577937" lon="10.603500081699309"><ele>11.0</ele><time>2026-04-17T13:43:36Z</time></trkpt><trkpt lat="43.64555228498285" lon="10.603573018064925"><ele>11.0</ele><time>2026-04-17T13:43:38Z</time></trkpt><trkpt lat="43.64542666637966" lon="10.603648929258071"><ele>11.25</ele><time>2026-04-17T13:43:40Z</time></trkpt><trkpt lat="43.64532376810334" lon="10.603678873831871"><ele>11.5</ele><time>2026-04-17T13:43:41Z</time></trkpt><trkpt lat="43.645234221360376" lon="10.60373620101084"><ele>11.75</ele><time>2026-04-17T13:43:42Z</time></trkpt><trkpt lat="43.64516242252001" lon="10.60378185455116"><ele>12.0</ele><time>2026-04-17T13:43:43Z</time></trkpt><trkpt lat="43.64500651170715" lon="10.603602330333906"><ele>12.0</ele><time>2026-04-17T13:43:44Z</time></trkpt><trkpt lat="43.64486372533448" lon="10.603496484818017"><ele>12.0</ele><time>2026-04-17T13:43:45Z</time></trkpt><trkpt lat="43.644733379155134" lon="10.603392504084464"><ele>12.0</ele><time>2026-04-17T13:43:46Z</time></trkpt><trkpt lat="43.644638469874174" lon="10.603299771170466"><ele>12.0</ele><time>2026-04-17T13:43:47Z</time></trkpt><trkpt lat="43.64451736084254" lon="10.603212794086597"><ele>11.75</ele><time>2026-04-17T13:43:48Z</time></trkpt><trkpt lat="43.64440463473122" lon="10.603120091170926"><ele>11.5</ele><time>2026-04-17T13:43:49Z</time></trkpt><trkpt lat="43.6442951054401" lon="10.603026281327223"><ele>11.25</ele><time>2026-04-17T13:43:50Z</time></trkpt><trkpt lat="43.64418361085518" lon="10.602936679869734"><ele>11.0</ele><time>2026-04-17T13:43:51Z</time></trkpt><trkpt lat="43.64407082810893" lon="10.602849864814662"><ele>11.25</ele><time>2026-04-17T13:43:52Z</time></trkpt><trkpt lat="43.64395790406653" lon="10.602759079265585"><ele>11.5</ele><time>2026-04-17T13:43:53Z</time></trkpt><trkpt lat="43.643842631889996" lon="10.602662680944459"><ele>11.75</ele><time>2026-04-17T13:43:54Z</time></trkpt><trkpt lat="43.643723342390004" lon="10.602568006669179"><ele>12.0</ele><time>2026-04-17T13:43:55Z</time></trkpt><trkpt lat="43.64361071017433" lon="10.602476397803809"><ele>12.25</ele><time>2026-04-17T13:43:56Z</time></trkpt><trkpt lat="43.64349336145464" lon="10.602378680903724"><ele>12.5</ele><time>2026-04-17T13:43:57Z</time></trkpt><trkpt lat="43.6433682838557" lon="10.60228425638969"><ele>12.75</ele><time>2026-04-17T13:43:58Z</time></trkpt><trkpt lat="43.64324427030337" lon="10.602184023770644"><ele>13.0</ele><time>2026-04-17T13:43:59Z</time></trkpt><trkpt lat="43.64311455053423" lon="10.602081966060906"><ele>13.0</ele><time>2026-04-17T13:44:00Z</time></trkpt><trkpt lat="43.6429873317105" lon="10.601981171958277"><ele>13.0</ele><time>2026-04-17T13:44:01Z</time></trkpt><trkpt lat="43.6428730525987" lon="10.601892368578149"><ele>13.0</ele><time>2026-04-17T13:44:02Z</time></trkpt><trkpt lat="43.642756515371374" lon="10.601795619597953"><ele>13.0</ele><time>2026-04-17T13:44:03Z</time></trkpt><trkpt lat="43.64262967474541" lon="10.601686704871328"><ele>12.666666666666666</ele><time>2026-04-17T13:44:04Z</time></trkpt><trkpt lat="43.642492293253966" lon="10.601570651188092"><ele>12.333333333333332</ele><time>2026-04-17T13:44:05Z</time></trkpt><trkpt lat="43.6423405227642" lon="10.601455222525532"><ele>12.0</ele><time>2026-04-17T13:44:06Z</time></trkpt><trkpt lat="43.64219506610026" lon="10.601352924808815"><ele>12.0</ele><time>2026-04-17T13:44:07Z</time></trkpt><trkpt lat="43.642057566017044" lon="10.601257829958058"><ele>12.0</ele><time>2026-04-17T13:44:08Z</time></trkpt><trkpt lat="43.64191394747142" lon="10.601165930756059"><ele>12.0</ele><time>2026-04-17T13:44:09Z</time></trkpt><trkpt lat="43.64175142456581" lon="10.601076541119745"><ele>12.0</ele><time>2026-04-17T13:44:10Z</time></trkpt><trkpt lat="43.641589807152485" lon="10.601000496429062"><ele>12.0</ele><time>2026-04-17T13:44:11Z</time></trkpt><trkpt lat="43.64143443371354" lon="10.600930419727545"><ele>12.0</ele><time>2026-04-17T13:44:12Z</time></trkpt><trkpt lat="43.64128939798229" lon="10.60087527517054"><ele>12.0</ele><time>2026-04-17T13:44:13Z</time></trkpt><trkpt lat="43.64114942603579" lon="10.60082984573702"><ele>12.0</ele><time>2026-04-17T13:44:14Z</time></trkpt><trkpt lat="43.64100711235404" lon="10.600790507354043"><ele>12.0</ele><time>2026-04-17T13:44:15Z</time></trkpt><trkpt lat="43.64085654907924" lon="10.600754534548367"><ele>12.0</ele><time>2026-04-17T13:44:16Z</time></trkpt><trkpt lat="43.64067772318556" lon="10.600737799677956"><ele>12.333333333333332</ele><time>2026-04-17T13:44:17Z</time></trkpt><trkpt lat="43.64050619173082" lon="10.600724091530518"><ele>12.666666666666666</ele><time>2026-04-17T13:44:18Z</time></trkpt><trkpt lat="43.64035026927889" lon="10.600715376810738"><ele>13.0</ele><time>2026-04-17T13:44:19Z</time></trkpt><trkpt lat="43.640205026753634" lon="10.600699493944038"><ele>13.0</ele><time>2026-04-17T13:44:20Z</time></trkpt><trkpt lat="43.64005165606155" lon="10.600681863557458"><ele>13.0</ele><time>2026-04-17T13:44:21Z</time></trkpt><trkpt lat="43.63990637677577" lon="10.600669876388858"><ele>13.0</ele><time>2026-04-17T13:44:22Z</time></trkpt><trkpt lat="43.63977389754377" lon="10.600662547147902"><ele>13.0</ele><time>2026-04-17T13:44:23Z</time></trkpt><trkpt lat="43.63964552890763" lon="10.600654948074508"><ele>13.0</ele><time>2026-04-17T13:44:24Z</time></trkpt><trkpt lat="43.63952071423831" lon="10.60064561702453"><ele>13.0</ele><time>2026-04-17T13:44:25Z</time></trkpt><trkpt lat="43.63940491090109" lon="10.600638868135277"><ele>13.0</ele><time>2026-04-17T13:44:26Z</time></trkpt><trkpt lat="43.639298485205344" lon="10.600645169964809"><ele>13.0</ele><time>2026-04-17T13:44:27Z</time></trkpt><trkpt lat="43.639202141606454" lon="10.600655186592416"><ele>13.0</ele><time>2026-04-17T13:44:28Z</time></trkpt><trkpt lat="43.63911946981717" lon="10.6006682589025"><ele>13.0</ele><time>2026-04-17T13:44:29Z</time></trkpt><trkpt lat="43.6390307465122" lon="10.600662081630198"><ele>13.0</ele><time>2026-04-17T13:44:30Z</time></trkpt><trkpt lat="43.638926732334795" lon="10.600681374740576"><ele>13.0</ele><time>2026-04-17T13:44:31Z</time></trkpt><trkpt lat="43.63882859916893" lon="10.600701928191826"><ele>13.0</ele><time>2026-04-17T13:44:32Z</time></trkpt><trkpt lat="43.638724667312786" lon="10.600724406049403"><ele>13.0</ele><time>2026-04-17T13:44:33Z</time></trkpt><trkpt lat="43.63863234912568" lon="10.600744372222355"><ele>12.999999999999998</ele><time>2026-04-17T13:44:34Z</time></trkpt><trkpt lat="43.638550550454354" lon="10.600758672974118"><ele>13.0</ele><time>2026-04-17T13:44:35Z</time></trkpt><trkpt lat="43.638470640631525" lon="10.600790131121503"><ele>13.0</ele><time>2026-04-17T13:44:36Z</time></trkpt><trkpt lat="43.638387629820656" lon="10.600787592232482"><ele>13.0</ele><time>2026-04-17T13:44:37Z</time></trkpt><trkpt lat="43.63831648030788" lon="10.600772193643484"><ele>12.999999999999998</ele><time>2026-04-17T13:44:38Z</time></trkpt><trkpt lat="43.63822394912778" lon="10.600705640780275"><ele>13.0</ele><time>2026-04-17T13:44:40Z</time></trkpt><trkpt lat="43.63813788360545" lon="10.600638884470795"><ele>13.0</ele><time>2026-04-17T13:44:42Z</time></trkpt><trkpt lat="43.63810620674768" lon="10.600499087082522"><ele>13.0</ele><time>2026-04-17T13:44:43Z</time></trkpt><trkpt lat="43.638075725998085" lon="10.600411833724365"><ele>13.0</ele><time>2026-04-17T13:44:44Z</time></trkpt><trkpt lat="43.63800749113284" lon="10.600317688518182"><ele>13.0</ele><time>2026-04-17T13:44:46Z</time></trkpt><trkpt lat="43.637894114633916" lon="10.600236163917248"><ele>13.0</ele><time>2026-04-17T13:44:48Z</time></trkpt><trkpt lat="43.637817448283144" lon="10.600244227699195"><ele>13.166666666666666</ele><time>2026-04-17T13:44:49Z</time></trkpt><trkpt lat="43.63774981044452" lon="10.60025816928412"><ele>13.333333333333332</ele><time>2026-04-17T13:44:50Z</time></trkpt><trkpt lat="43.63767922636669" lon="10.60026918422724"><ele>13.5</ele><time>2026-04-17T13:44:51Z</time></trkpt><trkpt lat="43.63760432264047" lon="10.600313508035269"><ele>13.666666666666668</ele><time>2026-04-17T13:44:52Z</time></trkpt><trkpt lat="43.637548289611885" lon="10.60039284634628"><ele>13.833333333333334</ele><time>2026-04-17T13:44:53Z</time></trkpt><trkpt lat="43.637504862119386" lon="10.600456644411828"><ele>14.0</ele><time>2026-04-17T13:44:54Z</time></trkpt><trkpt lat="43.63732573124638" lon="10.600389924416909"><ele>14.000000000000002</ele><time>2026-04-17T13:44:56Z</time></trkpt><trkpt lat="43.63724129634968" lon="10.600385992994603"><ele>14.0</ele><time>2026-04-17T13:44:57Z</time></trkpt><trkpt lat="43.637150050158134" lon="10.600410465056541"><ele>14.0</ele><time>2026-04-17T13:44:58Z</time></trkpt><trkpt lat="43.637076566218965" lon="10.600450428848172"><ele>14.0</ele><time>2026-04-17T13:44:59Z</time></trkpt><trkpt lat="43.63702053829435" lon="10.60050100991618"><ele>14.000000000000002</ele><time>2026-04-17T13:45:00Z</time></trkpt><trkpt lat="43.636967621323805" lon="10.600568784418487"><ele>14.0</ele><time>2026-04-17T13:45:01Z</time></trkpt><trkpt lat="43.63691437113188" lon="10.600649474462466"><ele>14.0</ele><time>2026-04-17T13:45:02Z</time></trkpt><trkpt lat="43.63685577793136" lon="10.600741155750447"><ele>13.999999999999998</ele><time>2026-04-17T13:45:03Z</time></trkpt><trkpt lat="43.63679282848811" lon="10.600856964133222"><ele>13.999999999999998</ele><time>2026-04-17T13:45:04Z</time></trkpt><trkpt lat="43.636727934867366" lon="10.600994019687123"><ele>14.0</ele><time>2026-04-17T13:45:05Z</time></trkpt><trkpt lat="43.636657878317756" lon="10.601156707897754"><ele>14.0</ele><time>2026-04-17T13:45:06Z</time></trkpt><trkpt lat="43.6365722663559" lon="10.60134840420026"><ele>14.0</ele><time>2026-04-17T13:45:07Z</time></trkpt><trkpt lat="43.63648402955746" lon="10.601544819468492"><ele>14.0</ele><time>2026-04-17T13:45:08Z</time></trkpt><trkpt lat="43.63639737611286" lon="10.601727048406037"><ele>14.0</ele><time>2026-04-17T13:45:09Z</time></trkpt><trkpt lat="43.63631344764537" lon="10.601912464133228"><ele>13.5</ele><time>2026-04-17T13:45:10Z</time></trkpt><trkpt lat="43.63622736111779" lon="10.602098004252898"><ele>13.0</ele><time>2026-04-17T13:45:11Z</time></trkpt><trkpt lat="43.63614726809689" lon="10.602268887604334"><ele>12.5</ele><time>2026-04-17T13:45:12Z</time></trkpt><trkpt lat="43.636074853507665" lon="10.602426603402229"><ele>12.0</ele><time>2026-04-17T13:45:13Z</time></trkpt><trkpt lat="43.63600516675477" lon="10.602579244724819"><ele>12.0</ele><time>2026-04-17T13:45:14Z</time></trkpt><trkpt lat="43.63591633061935" lon="10.602718572616894"><ele>12.0</ele><time>2026-04-17T13:45:15Z</time></trkpt><trkpt lat="43.63586000327102" lon="10.602859755115835"><ele>12.0</ele><time>2026-04-17T13:45:16Z</time></trkpt><trkpt lat="43.63579339141593" lon="10.602971397130304"><ele>12.0</ele><time>2026-04-17T13:45:17Z</time></trkpt><trkpt lat="43.63572758903813" lon="10.603082795372622"><ele>12.0</ele><time>2026-04-17T13:45:18Z</time></trkpt><trkpt lat="43.635654790858645" lon="10.603196794512648"><ele>12.0</ele><time>2026-04-17T13:45:19Z</time></trkpt><trkpt lat="43.63557504243153" lon="10.603305932719291"><ele>12.0</ele><time>2026-04-17T13:45:20Z</time></trkpt><trkpt lat="43.63549407303" lon="10.603404482798672"><ele>12.0</ele><time>2026-04-17T13:45:21Z</time></trkpt><trkpt lat="43.63540273432499" lon="10.603500074871615"><ele>12.0</ele><time>2026-04-17T13:45:22Z</time></trkpt><trkpt lat="43.63530141313316" lon="10.603590580943369"><ele>12.5</ele><time>2026-04-17T13:45:23Z</time></trkpt><trkpt lat="43.635199310368456" lon="10.603671341142341"><ele>13.0</ele><time>2026-04-17T13:45:24Z</time></trkpt><trkpt lat="43.6350953185863" lon="10.603746965737631"><ele>13.5</ele><time>2026-04-17T13:45:25Z</time></trkpt><trkpt lat="43.63498361348792" lon="10.60382646732363"><ele>14.0</ele><time>2026-04-17T13:45:26Z</time></trkpt><trkpt lat="43.634869239456236" lon="10.603895186713956"><ele>14.0</ele><time>2026-04-17T13:45:27Z</time></trkpt><trkpt lat="43.63474756874239" lon="10.6039539430676"><ele>14.0</ele><time>2026-04-17T13:45:28Z</time></trkpt><trkpt lat="43.6346280151" lon="10.604003457199696"><ele>14.0</ele><time>2026-04-17T13:45:29Z</time></trkpt><trkpt lat="43.63450872971491" lon="10.604041368517812"><ele>14.0</ele><time>2026-04-17T13:45:30Z</time></trkpt><trkpt lat="43.63438719557389" lon="10.604078001580149"><ele>14.25</ele><time>2026-04-17T13:45:31Z</time></trkpt><trkpt lat="43.634269943362575" lon="10.604111910115247"><ele>14.5</ele><time>2026-04-17T13:45:32Z</time></trkpt><trkpt lat="43.634150226554986" lon="10.604149800455236"><ele>14.75</ele><time>2026-04-17T13:45:33Z</time></trkpt><trkpt lat="43.634035833842404" lon="10.604193538978057"><ele>15.0</ele><time>2026-04-17T13:45:34Z</time></trkpt><trkpt lat="43.63392490118332" lon="10.604240005116603"><ele>15.0</ele><time>2026-04-17T13:45:35Z</time></trkpt><trkpt lat="43.63381774639339" lon="10.604285375071099"><ele>15.0</ele><time>2026-04-17T13:45:36Z</time></trkpt><trkpt lat="43.63372059687935" lon="10.604329592129842"><ele>15.0</ele><time>2026-04-17T13:45:37Z</time></trkpt><trkpt lat="43.633624321325726" lon="10.6043883879613"><ele>15.0</ele><time>2026-04-17T13:45:38Z</time></trkpt><trkpt lat="43.63352731773894" lon="10.604463162877432"><ele>15.0</ele><time>2026-04-17T13:45:39Z</time></trkpt><trkpt lat="43.633438925673204" lon="10.604563341509413"><ele>15.5</ele><time>2026-04-17T13:45:40Z</time></trkpt><trkpt lat="43.63335078686788" lon="10.604617030658003"><ele>16.0</ele><time>2026-04-17T13:45:41Z</time></trkpt><trkpt lat="43.633283920161425" lon="10.604691492882392"><ele>16.5</ele><time>2026-04-17T13:45:42Z</time></trkpt><trkpt lat="43.633181029369936" lon="10.604784962803754"><ele>17.0</ele><time>2026-04-17T13:45:43Z</time></trkpt><trkpt lat="43.63304894858128" lon="10.604868331049344"><ele>16.999999999999996</ele><time>2026-04-17T13:45:45Z</time></trkpt><trkpt lat="43.63297129961652" lon="10.604908072080985"><ele>17.0</ele><time>2026-04-17T13:45:46Z</time></trkpt><trkpt lat="43.632896982363796" lon="10.604940256375626"><ele>17.0</ele><time>2026-04-17T13:45:47Z</time></trkpt><trkpt lat="43.632825224479575" lon="10.60496610703923"><ele>17.0</ele><time>2026-04-17T13:45:48Z</time></trkpt><trkpt lat="43.632757483302555" lon="10.604988309545018"><ele>17.0</ele><time>2026-04-17T13:45:49Z</time></trkpt><trkpt lat="43.63269277863225" lon="10.605008728236474"><ele>16.999999999999996</ele><time>2026-04-17T13:45:50Z</time></trkpt><trkpt lat="43.63262871009494" lon="10.605025798619009"><ele>17.0</ele><time>2026-04-17T13:45:51Z</time></trkpt><trkpt lat="43.63251999641995" lon="10.605038702698096"><ele>16.6</ele><time>2026-04-17T13:45:53Z</time></trkpt><trkpt lat="43.63240177867345" lon="10.605000137636594"><ele>16.2</ele><time>2026-04-17T13:45:55Z</time></trkpt><trkpt lat="43.632333511441914" lon="10.604936158015862"><ele>15.8</ele><time>2026-04-17T13:45:56Z</time></trkpt><trkpt lat="43.63226585368314" lon="10.60486792130747"><ele>15.4</ele><time>2026-04-17T13:45:57Z</time></trkpt><trkpt lat="43.63219270558049" lon="10.604825439992604"><ele>15.0</ele><time>2026-04-17T13:45:58Z</time></trkpt><trkpt lat="43.63210555902074" lon="10.604821424337791"><ele>15.0</ele><time>2026-04-17T13:45:59Z</time></trkpt><trkpt lat="43.632016792739826" lon="10.604811798960867"><ele>15.0</ele><time>2026-04-17T13:46:00Z</time></trkpt><trkpt lat="43.63194136677315" lon="10.604902089303874"><ele>15.0</ele><time>2026-04-17T13:46:01Z</time></trkpt><trkpt lat="43.63186777725049" lon="10.604970052912469"><ele>15.0</ele><time>2026-04-17T13:46:02Z</time></trkpt><trkpt lat="43.63178344561801" lon="10.6050009919304"><ele>15.0</ele><time>2026-04-17T13:46:03Z</time></trkpt><trkpt lat="43.631698336953086" lon="10.604992346766027"><ele>15.166666666666666</ele><time>2026-04-17T13:46:04Z</time></trkpt><trkpt lat="43.63163277374292" lon="10.604966052247338"><ele>15.333333333333332</ele><time>2026-04-17T13:46:05Z</time></trkpt><trkpt lat="43.63156553885876" lon="10.60492679646138"><ele>15.5</ele><time>2026-04-17T13:46:06Z</time></trkpt><trkpt lat="43.631481856856446" lon="10.6049139170611"><ele>15.666666666666666</ele><time>2026-04-17T13:46:07Z</time></trkpt><trkpt lat="43.63141151082786" lon="10.604867618358792"><ele>15.833333333333332</ele><time>2026-04-17T13:46:08Z</time></trkpt><trkpt lat="43.631303973139595" lon="10.604801717784191"><ele>16.0</ele><time>2026-04-17T13:46:10Z</time></trkpt><trkpt lat="43.63123582326923" lon="10.604766021517666"><ele>16.0</ele><time>2026-04-17T13:46:11Z</time></trkpt><trkpt lat="43.63115685722985" lon="10.604721762434785"><ele>16.0</ele><time>2026-04-17T13:46:12Z</time></trkpt><trkpt lat="43.63107353177112" lon="10.6046811296729"><ele>16.0</ele><time>2026-04-17T13:46:13Z</time></trkpt><trkpt lat="43.63098852614577" lon="10.60463424154066"><ele>16.0</ele><time>2026-04-17T13:46:14Z</time></trkpt><trkpt lat="43.630891967647266" lon="10.604588581176346"><ele>16.0</ele><time>2026-04-17T13:46:15Z</time></trkpt><trkpt lat="43.630786902523816" lon="10.604532083325424"><ele>15.666666666666666</ele><time>2026-04-17T13:46:16Z</time></trkpt><trkpt lat="43.63064944213667" lon="10.604451155848018"><ele>15.333333333333332</ele><time>2026-04-17T13:46:17Z</time></trkpt><trkpt lat="43.630478056094425" lon="10.604351430592352"><ele>15.0</ele><time>2026-04-17T13:46:18Z</time></trkpt><trkpt lat="43.63030907599186" lon="10.60425587409474"><ele>14.333333333333332</ele><time>2026-04-17T13:46:19Z</time></trkpt><trkpt lat="43.63014682192134" lon="10.604166210558585"><ele>13.666666666666666</ele><time>2026-04-17T13:46:20Z</time></trkpt><trkpt lat="43.629976667355386" lon="10.604076059141901"><ele>13.0</ele><time>2026-04-17T13:46:21Z</time></trkpt><trkpt lat="43.62979888655478" lon="10.603975161531402"><ele>13.0</ele><time>2026-04-17T13:46:22Z</time></trkpt><trkpt lat="43.62961659629859" lon="10.60387467719363"><ele>13.0</ele><time>2026-04-17T13:46:23Z</time></trkpt><trkpt lat="43.62941659015055" lon="10.603765657546777"><ele>13.0</ele><time>2026-04-17T13:46:24Z</time></trkpt><trkpt lat="43.62921722301703" lon="10.60366112364019"><ele>13.5</ele><time>2026-04-17T13:46:25Z</time></trkpt><trkpt lat="43.629013544790915" lon="10.603553097439773"><ele>14.0</ele><time>2026-04-17T13:46:26Z</time></trkpt><trkpt lat="43.62879867571163" lon="10.603428024504566"><ele>15.0</ele><time>2026-04-17T13:46:27Z</time></trkpt><trkpt lat="43.62857339571473" lon="10.603305670101358"><ele>16.0</ele><time>2026-04-17T13:46:28Z</time></trkpt><trkpt lat="43.62835660668494" lon="10.603181066098788"><ele>16.0</ele><time>2026-04-17T13:46:29Z</time></trkpt><trkpt lat="43.62815431252788" lon="10.603068356218586"><ele>16.0</ele><time>2026-04-17T13:46:30Z</time></trkpt><trkpt lat="43.627957635577985" lon="10.602956202630464"><ele>16.0</ele><time>2026-04-17T13:46:31Z</time></trkpt><trkpt lat="43.62776482343737" lon="10.602851110538145"><ele>16.0</ele><time>2026-04-17T13:46:32Z</time></trkpt><trkpt lat="43.62757939532211" lon="10.602750761915026"><ele>16.0</ele><time>2026-04-17T13:46:33Z</time></trkpt><trkpt lat="43.62739730816499" lon="10.60265493948913"><ele>16.0</ele><time>2026-04-17T13:46:34Z</time></trkpt><trkpt lat="43.62721550222087" lon="10.602567474167701"><ele>16.0</ele><time>2026-04-17T13:46:35Z</time></trkpt><trkpt lat="43.62703789504836" lon="10.60248832835578"><ele>16.0</ele><time>2026-04-17T13:46:36Z</time></trkpt><trkpt lat="43.626863095366375" lon="10.602414612384317"><ele>16.0</ele><time>2026-04-17T13:46:37Z</time></trkpt><trkpt lat="43.62668358361457" lon="10.60234596073336"><ele>15.666666666666666</ele><time>2026-04-17T13:46:38Z</time></trkpt><trkpt lat="43.62649658694198" lon="10.602287521094807"><ele>15.333333333333332</ele><time>2026-04-17T13:46:39Z</time></trkpt><trkpt lat="43.62630142984805" lon="10.602241625737994"><ele>15.0</ele><time>2026-04-17T13:46:40Z</time></trkpt><trkpt lat="43.62610605924354" lon="10.602203514565621"><ele>15.0</ele><time>2026-04-17T13:46:41Z</time></trkpt><trkpt lat="43.62590358990336" lon="10.602175274329337"><ele>15.0</ele><time>2026-04-17T13:46:42Z</time></trkpt><trkpt lat="43.62569723548142" lon="10.60216132153405"><ele>15.0</ele><time>2026-04-17T13:46:43Z</time></trkpt><trkpt lat="43.62549419054552" lon="10.602161560963365"><ele>15.0</ele><time>2026-04-17T13:46:44Z</time></trkpt><trkpt lat="43.625309190452384" lon="10.60217734916518"><ele>15.0</ele><time>2026-04-17T13:46:45Z</time></trkpt><trkpt lat="43.62512277002794" lon="10.602206010874674"><ele>15.0</ele><time>2026-04-17T13:46:46Z</time></trkpt><trkpt lat="43.624949576214945" lon="10.602238202815803"><ele>15.0</ele><time>2026-04-17T13:46:47Z</time></trkpt><trkpt lat="43.62480252941325" lon="10.602269358504442"><ele>15.0</ele><time>2026-04-17T13:46:48Z</time></trkpt><trkpt lat="43.624677739073256" lon="10.602307204398453"><ele>15.0</ele><time>2026-04-17T13:46:49Z</time></trkpt><trkpt lat="43.62456492553687" lon="10.602343355982818"><ele>15.0</ele><time>2026-04-17T13:46:50Z</time></trkpt><trkpt lat="43.62446730153571" lon="10.602378856324053"><ele>15.0</ele><time>2026-04-17T13:46:51Z</time></trkpt><trkpt lat="43.624380002144235" lon="10.602414599299586"><ele>15.0</ele><time>2026-04-17T13:46:52Z</time></trkpt><trkpt lat="43.62430002688583" lon="10.60244482088603"><ele>15.0</ele><time>2026-04-17T13:46:53Z</time></trkpt><trkpt lat="43.6242077553397" lon="10.602455251272879"><ele>15.0</ele><time>2026-04-17T13:46:54Z</time></trkpt><trkpt lat="43.62411120401924" lon="10.602437180406133"><ele>15.0</ele><time>2026-04-17T13:46:55Z</time></trkpt><trkpt lat="43.62402641759118" lon="10.60242637338392"><ele>15.0</ele><time>2026-04-17T13:46:56Z</time></trkpt><trkpt lat="43.623943936004274" lon="10.602453567925162"><ele>15.0</ele><time>2026-04-17T13:46:57Z</time></trkpt><trkpt lat="43.623864273854714" lon="10.602524692965329"><ele>15.0</ele><time>2026-04-17T13:46:58Z</time></trkpt><trkpt lat="43.623795143659855" lon="10.60264121677226"><ele>15.0</ele><time>2026-04-17T13:46:59Z</time></trkpt><trkpt lat="43.62375755101955" lon="10.602796238696472"><ele>15.0</ele><time>2026-04-17T13:47:00Z</time></trkpt><trkpt lat="43.62367309589444" lon="10.602948963196937"><ele>15.333333333333332</ele><time>2026-04-17T13:47:01Z</time></trkpt><trkpt lat="43.62356524383952" lon="10.603092919076348"><ele>15.666666666666666</ele><time>2026-04-17T13:47:02Z</time></trkpt><trkpt lat="43.62342085714457" lon="10.603234937203272"><ele>16.0</ele><time>2026-04-17T13:47:03Z</time></trkpt><trkpt lat="43.62327552121711" lon="10.603381983390163"><ele>16.0</ele><time>2026-04-17T13:47:04Z</time></trkpt><trkpt lat="43.623143738033086" lon="10.603556523677737"><ele>16.0</ele><time>2026-04-17T13:47:05Z</time></trkpt><trkpt lat="43.62300750124908" lon="10.603758471152457"><ele>16.0</ele><time>2026-04-17T13:47:06Z</time></trkpt><trkpt lat="43.622871346458986" lon="10.60397331100363"><ele>16.0</ele><time>2026-04-17T13:47:07Z</time></trkpt><trkpt lat="43.62274591211973" lon="10.604187168075214"><ele>16.0</ele><time>2026-04-17T13:47:08Z</time></trkpt><trkpt lat="43.622624433804994" lon="10.604416135321102"><ele>16.0</ele><time>2026-04-17T13:47:09Z</time></trkpt><trkpt lat="43.6224985522845" lon="10.604675258863944"><ele>16.5</ele><time>2026-04-17T13:47:10Z</time></trkpt><trkpt lat="43.62236657202692" lon="10.604957107157794"><ele>17.0</ele><time>2026-04-17T13:47:11Z</time></trkpt><trkpt lat="43.622235872335224" lon="10.605259014670324"><ele>16.5</ele><time>2026-04-17T13:47:12Z</time></trkpt><trkpt lat="43.62210496166184" lon="10.605584796305099"><ele>16.0</ele><time>2026-04-17T13:47:13Z</time></trkpt><trkpt lat="43.621972492281685" lon="10.605921748733822"><ele>16.5</ele><time>2026-04-17T13:47:14Z</time></trkpt><trkpt lat="43.62184101462353" lon="10.606265627478356"><ele>17.0</ele><time>2026-04-17T13:47:15Z</time></trkpt><trkpt lat="43.6217208883892" lon="10.606582436789417"><ele>17.0</ele><time>2026-04-17T13:47:16Z</time></trkpt><trkpt lat="43.62161082668848" lon="10.606869819560428"><ele>17.0</ele><time>2026-04-17T13:47:17Z</time></trkpt><trkpt lat="43.62150624996598" lon="10.607135847684745"><ele>16.333333333333336</ele><time>2026-04-17T13:47:18Z</time></trkpt><trkpt lat="43.62140924986267" lon="10.607383677739266"><ele>15.666666666666668</ele><time>2026-04-17T13:47:19Z</time></trkpt><trkpt lat="43.62132368874742" lon="10.607619147537498"><ele>15.0</ele><time>2026-04-17T13:47:20Z</time></trkpt><trkpt lat="43.6212334591927" lon="10.60784751203853"><ele>15.333333333333332</ele><time>2026-04-17T13:47:21Z</time></trkpt><trkpt lat="43.62114451534505" lon="10.608076551766484"><ele>15.666666666666666</ele><time>2026-04-17T13:47:22Z</time></trkpt><trkpt lat="43.62105715764643" lon="10.608304005155155"><ele>16.0</ele><time>2026-04-17T13:47:23Z</time></trkpt><trkpt lat="43.62097604991894" lon="10.608538576130513"><ele>16.666666666666664</ele><time>2026-04-17T13:47:24Z</time></trkpt><trkpt lat="43.6208831929755" lon="10.608770194367711"><ele>17.333333333333332</ele><time>2026-04-17T13:47:25Z</time></trkpt><trkpt lat="43.62079036875074" lon="10.609014512671441"><ele>18.0</ele><time>2026-04-17T13:47:26Z</time></trkpt><trkpt lat="43.620688145924845" lon="10.6092769708143"><ele>17.333333333333332</ele><time>2026-04-17T13:47:27Z</time></trkpt><trkpt lat="43.62058512223537" lon="10.6095472608723"><ele>16.666666666666664</ele><time>2026-04-17T13:47:28Z</time></trkpt><trkpt lat="43.6204884754452" lon="10.609798862396278"><ele>16.0</ele><time>2026-04-17T13:47:29Z</time></trkpt><trkpt lat="43.62040113928731" lon="10.610030411950879"><ele>16.0</ele><time>2026-04-17T13:47:30Z</time></trkpt><trkpt lat="43.62031822204576" lon="10.610246666623233"><ele>16.0</ele><time>2026-04-17T13:47:31Z</time></trkpt><trkpt lat="43.62023619380374" lon="10.61045718680503"><ele>16.0</ele><time>2026-04-17T13:47:32Z</time></trkpt><trkpt lat="43.62015147174966" lon="10.610679983077661"><ele>16.333333333333332</ele><time>2026-04-17T13:47:33Z</time></trkpt><trkpt lat="43.620066700087435" lon="10.61091990093398"><ele>16.666666666666668</ele><time>2026-04-17T13:47:34Z</time></trkpt><trkpt lat="43.61998924844805" lon="10.611110698385996"><ele>17.0</ele><time>2026-04-17T13:47:35Z</time></trkpt><trkpt lat="43.61992256533112" lon="10.611287154831293"><ele>17.0</ele><time>2026-04-17T13:47:36Z</time></trkpt><trkpt lat="43.61986429180054" lon="10.61143775954359"><ele>17.0</ele><time>2026-04-17T13:47:37Z</time></trkpt><trkpt lat="43.61981449734828" lon="10.611562057596782"><ele>17.0</ele><time>2026-04-17T13:47:38Z</time></trkpt><trkpt lat="43.61976166203665" lon="10.611682702807723"><ele>17.0</ele><time>2026-04-17T13:47:39Z</time></trkpt><trkpt lat="43.619712864730225" lon="10.61177773815074"><ele>17.0</ele><time>2026-04-17T13:47:40Z</time></trkpt><trkpt lat="43.619659802090446" lon="10.611855628723198"><ele>17.0</ele><time>2026-04-17T13:47:41Z</time></trkpt><trkpt lat="43.61961194487794" lon="10.611917907512428"><ele>17.0</ele><time>2026-04-17T13:47:42Z</time></trkpt><trkpt lat="43.61955850172182" lon="10.611964396688466"><ele>17.0</ele><time>2026-04-17T13:47:43Z</time></trkpt><trkpt lat="43.61951673344772" lon="10.612043794277712"><ele>17.0</ele><time>2026-04-17T13:47:44Z</time></trkpt><trkpt lat="43.619433626590634" lon="10.612090506808375"><ele>17.0</ele><time>2026-04-17T13:47:45Z</time></trkpt><trkpt lat="43.61938118318316" lon="10.612215334979517"><ele>17.0</ele><time>2026-04-17T13:47:46Z</time></trkpt><trkpt lat="43.61938301828111" lon="10.61238137032505"><ele>17.25</ele><time>2026-04-17T13:47:47Z</time></trkpt><trkpt lat="43.6193813336871" lon="10.612545448717455"><ele>17.5</ele><time>2026-04-17T13:47:48Z</time></trkpt><trkpt lat="43.619370422818335" lon="10.612701200474046"><ele>17.75</ele><time>2026-04-17T13:47:49Z</time></trkpt><trkpt lat="43.61932326966422" lon="10.61289553359224"><ele>18.0</ele><time>2026-04-17T13:47:50Z</time></trkpt><trkpt lat="43.61925978202419" lon="10.613036903854924"><ele>18.0</ele><time>2026-04-17T13:47:51Z</time></trkpt><trkpt lat="43.6191964062663" lon="10.613222334769514"><ele>18.0</ele><time>2026-04-17T13:47:52Z</time></trkpt><trkpt lat="43.619101499795924" lon="10.613426373519946"><ele>18.0</ele><time>2026-04-17T13:47:53Z</time></trkpt><trkpt lat="43.619012509946884" lon="10.613661294978467"><ele>18.0</ele><time>2026-04-17T13:47:54Z</time></trkpt><trkpt lat="43.618919477210994" lon="10.613898800323716"><ele>18.0</ele><time>2026-04-17T13:47:55Z</time></trkpt><trkpt lat="43.61882101485827" lon="10.6141703659251"><ele>18.0</ele><time>2026-04-17T13:47:56Z</time></trkpt><trkpt lat="43.618688262928316" lon="10.614451395131065"><ele>18.0</ele><time>2026-04-17T13:47:57Z</time></trkpt><trkpt lat="43.61855954399974" lon="10.614723073688626"><ele>18.0</ele><time>2026-04-17T13:47:58Z</time></trkpt><trkpt lat="43.61843392233517" lon="10.614992594453376"><ele>18.0</ele><time>2026-04-17T13:47:59Z</time></trkpt><trkpt lat="43.61830175275019" lon="10.615258763173918"><ele>18.0</ele><time>2026-04-17T13:48:00Z</time></trkpt><trkpt lat="43.618170187388465" lon="10.615508310370755"><ele>18.0</ele><time>2026-04-17T13:48:01Z</time></trkpt><trkpt lat="43.61803395619999" lon="10.615758990755475"><ele>18.0</ele><time>2026-04-17T13:48:02Z</time></trkpt><trkpt lat="43.61789294317362" lon="10.616009035122115"><ele>18.0</ele><time>2026-04-17T13:48:03Z</time></trkpt><trkpt lat="43.61774847024397" lon="10.616256361250134"><ele>18.0</ele><time>2026-04-17T13:48:04Z</time></trkpt><trkpt lat="43.61760962594898" lon="10.616479665002958"><ele>18.0</ele><time>2026-04-17T13:48:05Z</time></trkpt><trkpt lat="43.617473502122024" lon="10.616680588466487"><ele>18.0</ele><time>2026-04-17T13:48:06Z</time></trkpt><trkpt lat="43.617337401886786" lon="10.616874775681989"><ele>18.0</ele><time>2026-04-17T13:48:07Z</time></trkpt><trkpt lat="43.617201760269566" lon="10.617063448065807"><ele>18.0</ele><time>2026-04-17T13:48:08Z</time></trkpt><trkpt lat="43.617067534139416" lon="10.61724108301123"><ele>17.666666666666668</ele><time>2026-04-17T13:48:09Z</time></trkpt><trkpt lat="43.61693336738739" lon="10.617415888156902"><ele>17.333333333333336</ele><time>2026-04-17T13:48:10Z</time></trkpt><trkpt lat="43.61680338371179" lon="10.61756599950194"><ele>17.0</ele><time>2026-04-17T13:48:11Z</time></trkpt><trkpt lat="43.61666843385348" lon="10.617751833629132"><ele>17.333333333333336</ele><time>2026-04-17T13:48:12Z</time></trkpt><trkpt lat="43.61655092687163" lon="10.617915708193292"><ele>17.666666666666668</ele><time>2026-04-17T13:48:13Z</time></trkpt><trkpt lat="43.61643320424177" lon="10.61804453035118"><ele>18.0</ele><time>2026-04-17T13:48:14Z</time></trkpt><trkpt lat="43.61631720157174" lon="10.618174758434792"><ele>18.0</ele><time>2026-04-17T13:48:15Z</time></trkpt><trkpt lat="43.61619420413188" lon="10.618306297641604"><ele>18.0</ele><time>2026-04-17T13:48:16Z</time></trkpt><trkpt lat="43.61606028768205" lon="10.618433374328776"><ele>18.0</ele><time>2026-04-17T13:48:17Z</time></trkpt><trkpt lat="43.61592362670451" lon="10.618556410616899"><ele>18.333333333333332</ele><time>2026-04-17T13:48:18Z</time></trkpt><trkpt lat="43.615784196042625" lon="10.618693234109221"><ele>18.666666666666664</ele><time>2026-04-17T13:48:19Z</time></trkpt><trkpt lat="43.61564099391448" lon="10.61880782474632"><ele>19.0</ele><time>2026-04-17T13:48:20Z</time></trkpt><trkpt lat="43.61549382716663" lon="10.618933331393396"><ele>19.0</ele><time>2026-04-17T13:48:21Z</time></trkpt><trkpt lat="43.61534731716469" lon="10.619058369541364"><ele>19.0</ele><time>2026-04-17T13:48:22Z</time></trkpt><trkpt lat="43.61518624985055" lon="10.619192597633619"><ele>19.0</ele><time>2026-04-17T13:48:23Z</time></trkpt><trkpt lat="43.6150156143625" lon="10.619330678733029"><ele>19.0</ele><time>2026-04-17T13:48:24Z</time></trkpt><trkpt lat="43.61483781473947" lon="10.619440382092659"><ele>19.0</ele><time>2026-04-17T13:48:25Z</time></trkpt><trkpt lat="43.6146481587564" lon="10.619546322787834"><ele>19.0</ele><time>2026-04-17T13:48:26Z</time></trkpt><trkpt lat="43.61446796241501" lon="10.619637196601563"><ele>19.333333333333332</ele><time>2026-04-17T13:48:27Z</time></trkpt><trkpt lat="43.61430663492431" lon="10.619715994085304"><ele>19.666666666666668</ele><time>2026-04-17T13:48:28Z</time></trkpt><trkpt lat="43.61414312799764" lon="10.619774982709192"><ele>20.0</ele><time>2026-04-17T13:48:29Z</time></trkpt><trkpt lat="43.6139984234421" lon="10.61986020565045"><ele>20.0</ele><time>2026-04-17T13:48:30Z</time></trkpt><trkpt lat="43.61384402323476" lon="10.619930425032841"><ele>20.0</ele><time>2026-04-17T13:48:31Z</time></trkpt><trkpt lat="43.613689877997984" lon="10.62000162910479"><ele>20.0</ele><time>2026-04-17T13:48:32Z</time></trkpt><trkpt lat="43.61354474373784" lon="10.620069771637764"><ele>20.25</ele><time>2026-04-17T13:48:33Z</time></trkpt><trkpt lat="43.61342056749974" lon="10.620133019157604"><ele>20.5</ele><time>2026-04-17T13:48:34Z</time></trkpt><trkpt lat="43.6133036443418" lon="10.620189372380569"><ele>20.75</ele><time>2026-04-17T13:48:35Z</time></trkpt><trkpt lat="43.61317723978771" lon="10.620252675918772"><ele>21.0</ele><time>2026-04-17T13:48:36Z</time></trkpt><trkpt lat="43.61307483034249" lon="10.620284232340854"><ele>21.0</ele><time>2026-04-17T13:48:37Z</time></trkpt><trkpt lat="43.61298904973254" lon="10.62030352027027"><ele>21.0</ele><time>2026-04-17T13:48:38Z</time></trkpt><trkpt lat="43.61289480203567" lon="10.620364790208042"><ele>21.0</ele><time>2026-04-17T13:48:40Z</time></trkpt><trkpt lat="43.612816098423416" lon="10.620404178498061"><ele>21.0</ele><time>2026-04-17T13:48:42Z</time></trkpt><trkpt lat="43.61274456964827" lon="10.620442585748386"><ele>21.0</ele><time>2026-04-17T13:48:43Z</time></trkpt><trkpt lat="43.61265900069553" lon="10.620479655097414"><ele>21.0</ele><time>2026-04-17T13:48:44Z</time></trkpt><trkpt lat="43.61255147987626" lon="10.620520697612552"><ele>21.75</ele><time>2026-04-17T13:48:45Z</time></trkpt><trkpt lat="43.612445024503586" lon="10.620549139595363"><ele>22.5</ele><time>2026-04-17T13:48:46Z</time></trkpt><trkpt lat="43.6123000104119" lon="10.620590161292052"><ele>23.25</ele><time>2026-04-17T13:48:47Z</time></trkpt><trkpt lat="43.61213056159828" lon="10.620623844877517"><ele>24.0</ele><time>2026-04-17T13:48:48Z</time></trkpt><trkpt lat="43.61198289168141" lon="10.620662985296311"><ele>24.0</ele><time>2026-04-17T13:48:49Z</time></trkpt><trkpt lat="43.61184937221976" lon="10.620705887036886"><ele>24.0</ele><time>2026-04-17T13:48:50Z</time></trkpt><trkpt lat="43.61171655733781" lon="10.620763589886964"><ele>24.0</ele><time>2026-04-17T13:48:51Z</time></trkpt><trkpt lat="43.61159926057826" lon="10.620818528421465"><ele>24.0</ele><time>2026-04-17T13:48:52Z</time></trkpt><trkpt lat="43.611429155386325" lon="10.620953883807966"><ele>24.0</ele><time>2026-04-17T13:48:53Z</time></trkpt><trkpt lat="43.61130117931573" lon="10.621086370813511"><ele>24.0</ele><time>2026-04-17T13:48:54Z</time></trkpt><trkpt lat="43.611167264273384" lon="10.62123388547619"><ele>24.0</ele><time>2026-04-17T13:48:55Z</time></trkpt><trkpt lat="43.611030947835" lon="10.621437776434778"><ele>24.5</ele><time>2026-04-17T13:48:56Z</time></trkpt><trkpt lat="43.61088197598184" lon="10.621682843088704"><ele>25.0</ele><time>2026-04-17T13:48:57Z</time></trkpt><trkpt lat="43.61073333447105" lon="10.621930071995402"><ele>24.0</ele><time>2026-04-17T13:48:58Z</time></trkpt><trkpt lat="43.61054740245053" lon="10.622205508037474"><ele>23.0</ele><time>2026-04-17T13:48:59Z</time></trkpt><trkpt lat="43.61041850372577" lon="10.622390690890018"><ele>23.0</ele><time>2026-04-17T13:49:00Z</time></trkpt><trkpt lat="43.61027279482806" lon="10.622593731971115"><ele>23.0</ele><time>2026-04-17T13:49:01Z</time></trkpt><trkpt lat="43.61011302311664" lon="10.622816765605501"><ele>23.0</ele><time>2026-04-17T13:49:02Z</time></trkpt><trkpt lat="43.60993269954504" lon="10.623037152427754"><ele>24.0</ele><time>2026-04-17T13:49:03Z</time></trkpt><trkpt lat="43.60974663088058" lon="10.62325500851415"><ele>25.0</ele><time>2026-04-17T13:49:04Z</time></trkpt><trkpt lat="43.60957275737447" lon="10.623455014380648"><ele>25.0</ele><time>2026-04-17T13:49:05Z</time></trkpt><trkpt lat="43.609406033879424" lon="10.623630610823758"><ele>25.0</ele><time>2026-04-17T13:49:06Z</time></trkpt><trkpt lat="43.6092562117347" lon="10.62377002756675"><ele>25.0</ele><time>2026-04-17T13:49:07Z</time></trkpt><trkpt lat="43.60909165560574" lon="10.623945141694813"><ele>25.333333333333336</ele><time>2026-04-17T13:49:08Z</time></trkpt><trkpt lat="43.608921757668256" lon="10.624155337120968"><ele>25.666666666666664</ele><time>2026-04-17T13:49:09Z</time></trkpt><trkpt lat="43.60876601439691" lon="10.62434612140548"><ele>26.0</ele><time>2026-04-17T13:49:10Z</time></trkpt><trkpt lat="43.608603137719584" lon="10.62453784188909"><ele>26.0</ele><time>2026-04-17T13:49:11Z</time></trkpt><trkpt lat="43.60845091062832" lon="10.624723098248788"><ele>26.0</ele><time>2026-04-17T13:49:12Z</time></trkpt><trkpt lat="43.608316383042904" lon="10.624899756676959"><ele>26.0</ele><time>2026-04-17T13:49:13Z</time></trkpt><trkpt lat="43.6081844109191" lon="10.6250862881967"><ele>26.0</ele><time>2026-04-17T13:49:14Z</time></trkpt><trkpt lat="43.6080559707336" lon="10.625282446397348"><ele>26.0</ele><time>2026-04-17T13:49:15Z</time></trkpt><trkpt lat="43.607922051580864" lon="10.625484798024162"><ele>26.0</ele><time>2026-04-17T13:49:16Z</time></trkpt><trkpt lat="43.60780471039535" lon="10.625693420067051"><ele>26.0</ele><time>2026-04-17T13:49:17Z</time></trkpt><trkpt lat="43.60768955164296" lon="10.625898583724474"><ele>26.0</ele><time>2026-04-17T13:49:18Z</time></trkpt><trkpt lat="43.60758957174037" lon="10.626094796207033"><ele>26.0</ele><time>2026-04-17T13:49:19Z</time></trkpt><trkpt lat="43.60749015234479" lon="10.626294439208662"><ele>26.0</ele><time>2026-04-17T13:49:20Z</time></trkpt><trkpt lat="43.6073984154681" lon="10.626498181316766"><ele>26.0</ele><time>2026-04-17T13:49:21Z</time></trkpt><trkpt lat="43.60730844311514" lon="10.626707013183054"><ele>26.0</ele><time>2026-04-17T13:49:22Z</time></trkpt><trkpt lat="43.60723951763523" lon="10.626925061617024"><ele>25.0</ele><time>2026-04-17T13:49:23Z</time></trkpt><trkpt lat="43.60716082283218" lon="10.627153278774149"><ele>24.0</ele><time>2026-04-17T13:49:24Z</time></trkpt><trkpt lat="43.60708397898721" lon="10.627392763737147"><ele>23.0</ele><time>2026-04-17T13:49:25Z</time></trkpt><trkpt lat="43.6070172455265" lon="10.627622484738135"><ele>23.666666666666668</ele><time>2026-04-17T13:49:26Z</time></trkpt><trkpt lat="43.60695874837726" lon="10.627830862640309"><ele>24.333333333333336</ele><time>2026-04-17T13:49:27Z</time></trkpt><trkpt lat="43.606906485616655" lon="10.62803393710337"><ele>25.0</ele><time>2026-04-17T13:49:28Z</time></trkpt><trkpt lat="43.606855920430306" lon="10.62823882607034"><ele>25.0</ele><time>2026-04-17T13:49:29Z</time></trkpt><trkpt lat="43.60681236573917" lon="10.628443063111641"><ele>25.0</ele><time>2026-04-17T13:49:30Z</time></trkpt><trkpt lat="43.60677468569289" lon="10.628639303287935"><ele>25.0</ele><time>2026-04-17T13:49:31Z</time></trkpt><trkpt lat="43.6067403450511" lon="10.628831977945273"><ele>25.0</ele><time>2026-04-17T13:49:32Z</time></trkpt><trkpt lat="43.606711136135736" lon="10.629038566512342"><ele>24.75</ele><time>2026-04-17T13:49:33Z</time></trkpt><trkpt lat="43.606688441658925" lon="10.629226092332853"><ele>24.5</ele><time>2026-04-17T13:49:34Z</time></trkpt><trkpt lat="43.60667391414153" lon="10.629405430950033"><ele>24.25</ele><time>2026-04-17T13:49:35Z</time></trkpt><trkpt lat="43.606644229105065" lon="10.629577541001021"><ele>24.0</ele><time>2026-04-17T13:49:36Z</time></trkpt><trkpt lat="43.60663083439232" lon="10.629746595663699"><ele>24.0</ele><time>2026-04-17T13:49:37Z</time></trkpt><trkpt lat="43.60662138302265" lon="10.629909010617181"><ele>24.0</ele><time>2026-04-17T13:49:38Z</time></trkpt><trkpt lat="43.606629124179705" lon="10.630054059348394"><ele>24.0</ele><time>2026-04-17T13:49:39Z</time></trkpt><trkpt lat="43.60662496858058" lon="10.630169003542534"><ele>24.0</ele><time>2026-04-17T13:49:40Z</time></trkpt><trkpt lat="43.606622801772026" lon="10.630262888927646"><ele>24.0</ele><time>2026-04-17T13:49:41Z</time></trkpt><trkpt lat="43.60661281766923" lon="10.630424186193318"><ele>24.0</ele><time>2026-04-17T13:49:43Z</time></trkpt><trkpt lat="43.60663006618074" lon="10.63053426373318"><ele>24.0</ele><time>2026-04-17T13:49:45Z</time></trkpt><trkpt lat="43.60686773316801" lon="10.63049649859788"><ele>24.0</ele><time>2026-04-17T13:49:46Z</time></trkpt><trkpt lat="43.60695822500124" lon="10.630499527834896"><ele>24.0</ele><time>2026-04-17T13:49:47Z</time></trkpt><trkpt lat="43.607041425666516" lon="10.6304688718434"><ele>24.0</ele><time>2026-04-17T13:49:48Z</time></trkpt><trkpt lat="43.607115406151806" lon="10.630473019097389"><ele>24.0</ele><time>2026-04-17T13:49:49Z</time></trkpt><trkpt lat="43.607194224279695" lon="10.630512577270824"><ele>24.0</ele><time>2026-04-17T13:49:50Z</time></trkpt><trkpt lat="43.60727103940639" lon="10.63058361093266"><ele>24.0</ele><time>2026-04-17T13:49:51Z</time></trkpt><trkpt lat="43.607330867056994" lon="10.630680582062633"><ele>24.0</ele><time>2026-04-17T13:49:52Z</time></trkpt><trkpt lat="43.60736881836414" lon="10.63079965286382"><ele>24.0</ele><time>2026-04-17T13:49:53Z</time></trkpt><trkpt lat="43.607385010553884" lon="10.630933950451382"><ele>24.0</ele><time>2026-04-17T13:49:54Z</time></trkpt><trkpt lat="43.607376155955066" lon="10.631085430951257"><ele>24.0</ele><time>2026-04-17T13:49:55Z</time></trkpt><trkpt lat="43.60734446671555" lon="10.631263706722667"><ele>24.0</ele><time>2026-04-17T13:49:56Z</time></trkpt><trkpt lat="43.607296021819344" lon="10.631451611216397"><ele>24.0</ele><time>2026-04-17T13:49:57Z</time></trkpt><trkpt lat="43.60725463456482" lon="10.631617988173018"><ele>23.799999999999997</ele><time>2026-04-17T13:49:58Z</time></trkpt><trkpt lat="43.607225751597966" lon="10.631761578291053"><ele>23.599999999999998</ele><time>2026-04-17T13:49:59Z</time></trkpt><trkpt lat="43.607200068500056" lon="10.631905480410339"><ele>23.4</ele><time>2026-04-17T13:50:00Z</time></trkpt><trkpt lat="43.60717491415821" lon="10.63204194640086"><ele>23.2</ele><time>2026-04-17T13:50:01Z</time></trkpt><trkpt lat="43.60714639201551" lon="10.632157265205436"><ele>23.0</ele><time>2026-04-17T13:50:02Z</time></trkpt><trkpt lat="43.60711570020947" lon="10.63225286737967"><ele>22.799999999999997</ele><time>2026-04-17T13:50:03Z</time></trkpt><trkpt lat="43.60708099606961" lon="10.632337640470556"><ele>22.6</ele><time>2026-04-17T13:50:04Z</time></trkpt><trkpt lat="43.60700304084222" lon="10.632445198709963"><ele>22.4</ele><time>2026-04-17T13:50:06Z</time></trkpt><trkpt lat="43.60694221357368" lon="10.632497440001877"><ele>22.200000000000003</ele><time>2026-04-17T13:50:07Z</time></trkpt><trkpt lat="43.60690108555345" lon="10.632589422474778"><ele>22.0</ele><time>2026-04-17T13:50:08Z</time></trkpt><trkpt lat="43.60674784781605" lon="10.63254256463134"><ele>21.75</ele><time>2026-04-17T13:50:09Z</time></trkpt><trkpt lat="43.60663187130195" lon="10.63257691844544"><ele>21.5</ele><time>2026-04-17T13:50:10Z</time></trkpt><trkpt lat="43.6064898280714" lon="10.632590163976321"><ele>21.25</ele><time>2026-04-17T13:50:11Z</time></trkpt><trkpt lat="43.60631540907857" lon="10.632615095715758"><ele>21.0</ele><time>2026-04-17T13:50:12Z</time></trkpt><trkpt lat="43.606121597033756" lon="10.632632654968436"><ele>21.0</ele><time>2026-04-17T13:50:13Z</time></trkpt><trkpt lat="43.60593462006108" lon="10.63264256504395"><ele>21.0</ele><time>2026-04-17T13:50:14Z</time></trkpt><trkpt lat="43.60572972494616" lon="10.632645221467836"><ele>21.0</ele><time>2026-04-17T13:50:15Z</time></trkpt><trkpt lat="43.60550247382143" lon="10.632653751638324"><ele>22.333333333333336</ele><time>2026-04-17T13:50:16Z</time></trkpt><trkpt lat="43.60527350515447" lon="10.63266833471238"><ele>23.666666666666668</ele><time>2026-04-17T13:50:17Z</time></trkpt><trkpt lat="43.60506383615937" lon="10.632678297766741"><ele>25.0</ele><time>2026-04-17T13:50:18Z</time></trkpt><trkpt lat="43.60485029784965" lon="10.632689975840554"><ele>25.0</ele><time>2026-04-17T13:50:19Z</time></trkpt><trkpt lat="43.60462526139002" lon="10.632710281342588"><ele>25.0</ele><time>2026-04-17T13:50:20Z</time></trkpt><trkpt lat="43.60441136181222" lon="10.63272540251907"><ele>25.0</ele><time>2026-04-17T13:50:21Z</time></trkpt><trkpt lat="43.60419013108011" lon="10.632744279117308"><ele>25.0</ele><time>2026-04-17T13:50:22Z</time></trkpt><trkpt lat="43.603962383475086" lon="10.632772106843266"><ele>25.0</ele><time>2026-04-17T13:50:23Z</time></trkpt><trkpt lat="43.60375209376583" lon="10.632807601296415"><ele>25.0</ele><time>2026-04-17T13:50:24Z</time></trkpt><trkpt lat="43.603553869281406" lon="10.632844736958216"><ele>25.0</ele><time>2026-04-17T13:50:25Z</time></trkpt><trkpt lat="43.603366355620295" lon="10.632880589770997"><ele>25.0</ele><time>2026-04-17T13:50:26Z</time></trkpt><trkpt lat="43.60319035735706" lon="10.63291563443001"><ele>25.0</ele><time>2026-04-17T13:50:27Z</time></trkpt><trkpt lat="43.60302486211164" lon="10.632947852863625"><ele>25.0</ele><time>2026-04-17T13:50:28Z</time></trkpt><trkpt lat="43.60286442133941" lon="10.632975846539557"><ele>25.0</ele><time>2026-04-17T13:50:29Z</time></trkpt><trkpt lat="43.6027041026997" lon="10.632988432080177"><ele>25.0</ele><time>2026-04-17T13:50:30Z</time></trkpt><trkpt lat="43.60253721824245" lon="10.632996776881624"><ele>24.0</ele><time>2026-04-17T13:50:31Z</time></trkpt><trkpt lat="43.60237679678588" lon="10.632980107367002"><ele>23.0</ele><time>2026-04-17T13:50:32Z</time></trkpt><trkpt lat="43.602200724173" lon="10.632913819519764"><ele>22.0</ele><time>2026-04-17T13:50:33Z</time></trkpt><trkpt lat="43.602032249285365" lon="10.632836166353814"><ele>23.0</ele><time>2026-04-17T13:50:34Z</time></trkpt><trkpt lat="43.60184415594329" lon="10.632798181704088"><ele>24.0</ele><time>2026-04-17T13:50:35Z</time></trkpt><trkpt lat="43.60165609201563" lon="10.632685290208874"><ele>25.0</ele><time>2026-04-17T13:50:36Z</time></trkpt><trkpt lat="43.60146502547453" lon="10.632551115879464"><ele>25.0</ele><time>2026-04-17T13:50:37Z</time></trkpt><trkpt lat="43.60138305759087" lon="10.632550811490331"><ele>25.0</ele><time>2026-04-17T13:50:38Z</time></trkpt><trkpt lat="43.601228797753826" lon="10.632460998962406"><ele>25.0</ele><time>2026-04-17T13:50:39Z</time></trkpt><trkpt lat="43.601064811023946" lon="10.63238701509653"><ele>25.0</ele><time>2026-04-17T13:50:40Z</time></trkpt><trkpt lat="43.600877018007566" lon="10.63234047960345"><ele>25.333333333333336</ele><time>2026-04-17T13:50:41Z</time></trkpt><trkpt lat="43.60067616318887" lon="10.632311955101319"><ele>25.666666666666664</ele><time>2026-04-17T13:50:42Z</time></trkpt><trkpt lat="43.600460207428526" lon="10.632279782703426"><ele>26.0</ele><time>2026-04-17T13:50:43Z</time></trkpt><trkpt lat="43.600256333126005" lon="10.63226488390678"><ele>26.0</ele><time>2026-04-17T13:50:44Z</time></trkpt><trkpt lat="43.60005816589827" lon="10.632245477304231"><ele>26.0</ele><time>2026-04-17T13:50:45Z</time></trkpt><trkpt lat="43.59985963918622" lon="10.632220715631187"><ele>26.0</ele><time>2026-04-17T13:50:46Z</time></trkpt><trkpt lat="43.599641726896394" lon="10.632190327299497"><ele>25.5</ele><time>2026-04-17T13:50:47Z</time></trkpt><trkpt lat="43.599416201740574" lon="10.632171163904468"><ele>25.0</ele><time>2026-04-17T13:50:48Z</time></trkpt><trkpt lat="43.599183966167935" lon="10.632127100203697"><ele>25.0</ele><time>2026-04-17T13:50:49Z</time></trkpt><trkpt lat="43.59895363844525" lon="10.632098489577695"><ele>25.0</ele><time>2026-04-17T13:50:50Z</time></trkpt><trkpt lat="43.598729969280704" lon="10.632086814190753"><ele>26.0</ele><time>2026-04-17T13:50:51Z</time></trkpt><trkpt lat="43.59850527298538" lon="10.632046368674885"><ele>27.0</ele><time>2026-04-17T13:50:52Z</time></trkpt><trkpt lat="43.59828252623313" lon="10.63201420700694"><ele>27.0</ele><time>2026-04-17T13:50:53Z</time></trkpt><trkpt lat="43.59806968642329" lon="10.631989975117001"><ele>27.0</ele><time>2026-04-17T13:50:54Z</time></trkpt><trkpt lat="43.597865280226316" lon="10.631964254802465"><ele>27.0</ele><time>2026-04-17T13:50:55Z</time></trkpt><trkpt lat="43.59764786279125" lon="10.631938475536487"><ele>27.0</ele><time>2026-04-17T13:50:56Z</time></trkpt><trkpt lat="43.59744095016835" lon="10.631904447423969"><ele>27.0</ele><time>2026-04-17T13:50:57Z</time></trkpt><trkpt lat="43.59724993686559" lon="10.631873997957426"><ele>27.0</ele><time>2026-04-17T13:50:58Z</time></trkpt><trkpt lat="43.59705561122768" lon="10.631851703800914"><ele>27.0</ele><time>2026-04-17T13:50:59Z</time></trkpt><trkpt lat="43.59684561156417" lon="10.631824892595123"><ele>27.0</ele><time>2026-04-17T13:51:00Z</time></trkpt><trkpt lat="43.596642225728516" lon="10.631798366978785"><ele>27.0</ele><time>2026-04-17T13:51:01Z</time></trkpt><trkpt lat="43.59645949438551" lon="10.631771461400145"><ele>27.0</ele><time>2026-04-17T13:51:02Z</time></trkpt><trkpt lat="43.596276242229166" lon="10.631743735944935"><ele>27.0</ele><time>2026-04-17T13:51:03Z</time></trkpt><trkpt lat="43.59608224296164" lon="10.63172031063915"><ele>27.0</ele><time>2026-04-17T13:51:04Z</time></trkpt><trkpt lat="43.595877959205346" lon="10.631692859774665"><ele>27.0</ele><time>2026-04-17T13:51:05Z</time></trkpt><trkpt lat="43.595685741060436" lon="10.631678922659088"><ele>27.0</ele><time>2026-04-17T13:51:06Z</time></trkpt><trkpt lat="43.59551206335248" lon="10.631656024262082"><ele>27.0</ele><time>2026-04-17T13:51:07Z</time></trkpt><trkpt lat="43.59533257944991" lon="10.631633977249043"><ele>27.0</ele><time>2026-04-17T13:51:08Z</time></trkpt><trkpt lat="43.59513606312425" lon="10.631614790388937"><ele>27.0</ele><time>2026-04-17T13:51:09Z</time></trkpt><trkpt lat="43.59493001659934" lon="10.63159652057813"><ele>27.0</ele><time>2026-04-17T13:51:10Z</time></trkpt><trkpt lat="43.59473306526431" lon="10.63157767215318"><ele>27.0</ele><time>2026-04-17T13:51:11Z</time></trkpt><trkpt lat="43.59455120662666" lon="10.631560032256363"><ele>27.0</ele><time>2026-04-17T13:51:12Z</time></trkpt><trkpt lat="43.59437559455065" lon="10.631541143544247"><ele>27.0</ele><time>2026-04-17T13:51:13Z</time></trkpt><trkpt lat="43.59420152157329" lon="10.631526897711083"><ele>26.333333333333336</ele><time>2026-04-17T13:51:14Z</time></trkpt><trkpt lat="43.59403315989888" lon="10.631508900703176"><ele>25.666666666666668</ele><time>2026-04-17T13:51:15Z</time></trkpt><trkpt lat="43.59386967288977" lon="10.63149219081519"><ele>25.0</ele><time>2026-04-17T13:51:16Z</time></trkpt><trkpt lat="43.59371277673165" lon="10.631476264304458"><ele>25.333333333333336</ele><time>2026-04-17T13:51:17Z</time></trkpt><trkpt lat="43.59355752222982" lon="10.63145969669527"><ele>25.666666666666664</ele><time>2026-04-17T13:51:18Z</time></trkpt><trkpt lat="43.593407151935516" lon="10.63144614394864"><ele>26.0</ele><time>2026-04-17T13:51:19Z</time></trkpt><trkpt lat="43.59325735821447" lon="10.631429712578935"><ele>26.0</ele><time>2026-04-17T13:51:20Z</time></trkpt><trkpt lat="43.59310479458703" lon="10.631410125895835"><ele>26.0</ele><time>2026-04-17T13:51:21Z</time></trkpt><trkpt lat="43.592944896757984" lon="10.631393324427837"><ele>26.0</ele><time>2026-04-17T13:51:22Z</time></trkpt><trkpt lat="43.59277474692415" lon="10.631377251027615"><ele>26.333333333333332</ele><time>2026-04-17T13:51:23Z</time></trkpt><trkpt lat="43.59260675293378" lon="10.631361663630125"><ele>26.666666666666664</ele><time>2026-04-17T13:51:24Z</time></trkpt><trkpt lat="43.59244067809156" lon="10.631343621910121"><ele>27.0</ele><time>2026-04-17T13:51:25Z</time></trkpt><trkpt lat="43.592260014072345" lon="10.63132904748752"><ele>27.0</ele><time>2026-04-17T13:51:26Z</time></trkpt><trkpt lat="43.592080841380145" lon="10.631313630529704"><ele>27.0</ele><time>2026-04-17T13:51:27Z</time></trkpt><trkpt lat="43.59192527570373" lon="10.631296389346199"><ele>27.0</ele><time>2026-04-17T13:51:28Z</time></trkpt><trkpt lat="43.59177821579635" lon="10.63127907687032"><ele>27.666666666666664</ele><time>2026-04-17T13:51:29Z</time></trkpt><trkpt lat="43.59162578023834" lon="10.631261877753271"><ele>28.333333333333332</ele><time>2026-04-17T13:51:30Z</time></trkpt><trkpt lat="43.59147535919884" lon="10.631245996572583"><ele>29.0</ele><time>2026-04-17T13:51:31Z</time></trkpt><trkpt lat="43.59132617183565" lon="10.631232080788498"><ele>28.75</ele><time>2026-04-17T13:51:32Z</time></trkpt><trkpt lat="43.59116964524086" lon="10.6312193748815"><ele>28.5</ele><time>2026-04-17T13:51:33Z</time></trkpt><trkpt lat="43.59102383058515" lon="10.631206679294621"><ele>28.25</ele><time>2026-04-17T13:51:34Z</time></trkpt><trkpt lat="43.59089347680469" lon="10.631191045734395"><ele>28.0</ele><time>2026-04-17T13:51:35Z</time></trkpt><trkpt lat="43.59076753977978" lon="10.63117672270778"><ele>28.0</ele><time>2026-04-17T13:51:36Z</time></trkpt><trkpt lat="43.59063219105597" lon="10.631161458805547"><ele>28.0</ele><time>2026-04-17T13:51:37Z</time></trkpt><trkpt lat="43.59050393448592" lon="10.631146972397925"><ele>28.0</ele><time>2026-04-17T13:51:38Z</time></trkpt><trkpt lat="43.59040100496397" lon="10.631132987127828"><ele>28.0</ele><time>2026-04-17T13:51:39Z</time></trkpt><trkpt lat="43.590306433113156" lon="10.631121203910931"><ele>28.4</ele><time>2026-04-17T13:51:40Z</time></trkpt><trkpt lat="43.59022590711073" lon="10.631107623530974"><ele>28.799999999999997</ele><time>2026-04-17T13:51:41Z</time></trkpt><trkpt lat="43.5901572228476" lon="10.631068977304912"><ele>29.2</ele><time>2026-04-17T13:51:42Z</time></trkpt><trkpt lat="43.59008220334617" lon="10.631054938235998"><ele>29.6</ele><time>2026-04-17T13:51:43Z</time></trkpt><trkpt lat="43.590010234893725" lon="10.630857643674537"><ele>30.0</ele><time>2026-04-17T13:51:44Z</time></trkpt><trkpt lat="43.589931944527436" lon="10.630712550601023"><ele>30.0</ele><time>2026-04-17T13:51:45Z</time></trkpt><trkpt lat="43.58986018977944" lon="10.630591508639672"><ele>30.0</ele><time>2026-04-17T13:51:46Z</time></trkpt><trkpt lat="43.58977230094658" lon="10.63048145492348"><ele>30.0</ele><time>2026-04-17T13:51:47Z</time></trkpt><trkpt lat="43.58965745606602" lon="10.630379671316296"><ele>30.0</ele><time>2026-04-17T13:51:48Z</time></trkpt><trkpt lat="43.58956197691759" lon="10.63026237816622"><ele>30.2</ele><time>2026-04-17T13:51:49Z</time></trkpt><trkpt lat="43.58946190354423" lon="10.630196744735828"><ele>30.4</ele><time>2026-04-17T13:51:50Z</time></trkpt><trkpt lat="43.589358654201426" lon="10.630156444303273"><ele>30.6</ele><time>2026-04-17T13:51:51Z</time></trkpt><trkpt lat="43.58926926804104" lon="10.630102923490771"><ele>30.8</ele><time>2026-04-17T13:51:52Z</time></trkpt><trkpt lat="43.58918076210165" lon="10.630040468249472"><ele>31.0</ele><time>2026-04-17T13:51:53Z</time></trkpt><trkpt lat="43.589117277910425" lon="10.629924202718447"><ele>31.0</ele><time>2026-04-17T13:51:54Z</time></trkpt><trkpt lat="43.5890503555314" lon="10.629810729371304"><ele>31.0</ele><time>2026-04-17T13:51:55Z</time></trkpt><trkpt lat="43.58897745120788" lon="10.62973607125795"><ele>31.0</ele><time>2026-04-17T13:51:56Z</time></trkpt><trkpt lat="43.58890409856736" lon="10.62966362594786"><ele>31.0</ele><time>2026-04-17T13:51:57Z</time></trkpt><trkpt lat="43.58881780155712" lon="10.629607425272152"><ele>31.0</ele><time>2026-04-17T13:51:58Z</time></trkpt><trkpt lat="43.5887121908555" lon="10.62957359099305"><ele>31.000000000000004</ele><time>2026-04-17T13:51:59Z</time></trkpt><trkpt lat="43.588587724413095" lon="10.629545838662136"><ele>31.0</ele><time>2026-04-17T13:52:00Z</time></trkpt><trkpt lat="43.588482294293776" lon="10.629539346868093"><ele>31.0</ele><time>2026-04-17T13:52:01Z</time></trkpt><trkpt lat="43.588402097938726" lon="10.629530615429847"><ele>31.0</ele><time>2026-04-17T13:52:02Z</time></trkpt><trkpt lat="43.58833498142215" lon="10.629520181295462"><ele>31.000000000000004</ele><time>2026-04-17T13:52:03Z</time></trkpt><trkpt lat="43.58827336177639" lon="10.629489162793307"><ele>31.0</ele><time>2026-04-17T13:52:04Z</time></trkpt><trkpt lat="43.588202559724586" lon="10.62941267578874"><ele>30.8</ele><time>2026-04-17T13:52:05Z</time></trkpt><trkpt lat="43.58816828342017" lon="10.629252125455505"><ele>30.6</ele><time>2026-04-17T13:52:06Z</time></trkpt><trkpt lat="43.58811667898664" lon="10.629097355759617"><ele>30.4</ele><time>2026-04-17T13:52:07Z</time></trkpt><trkpt lat="43.588067858588005" lon="10.628991446169408"><ele>30.2</ele><time>2026-04-17T13:52:08Z</time></trkpt><trkpt lat="43.58802346413093" lon="10.628893974526173"><ele>30.0</ele><time>2026-04-17T13:52:09Z</time></trkpt><trkpt lat="43.58795599026921" lon="10.628791448262275"><ele>30.0</ele><time>2026-04-17T13:52:10Z</time></trkpt><trkpt lat="43.5878405970079" lon="10.628751842715229"><ele>30.0</ele><time>2026-04-17T13:52:11Z</time></trkpt><trkpt lat="43.58772124349478" lon="10.628726810048937"><ele>30.0</ele><time>2026-04-17T13:52:12Z</time></trkpt><trkpt lat="43.587578868764275" lon="10.628735276930628"><ele>30.0</ele><time>2026-04-17T13:52:13Z</time></trkpt><trkpt lat="43.58745056850018" lon="10.628731108833415"><ele>30.0</ele><time>2026-04-17T13:52:14Z</time></trkpt><trkpt lat="43.58733852982078" lon="10.628728729880127"><ele>30.0</ele><time>2026-04-17T13:52:15Z</time></trkpt><trkpt lat="43.58724269756774" lon="10.62871368060618"><ele>30.0</ele><time>2026-04-17T13:52:16Z</time></trkpt><trkpt lat="43.58715734313257" lon="10.628672974754124"><ele>30.0</ele><time>2026-04-17T13:52:17Z</time></trkpt><trkpt lat="43.58706239341722" lon="10.628587470593905"><ele>30.0</ele><time>2026-04-17T13:52:18Z</time></trkpt><trkpt lat="43.58697007472543" lon="10.628440618508598"><ele>30.0</ele><time>2026-04-17T13:52:19Z</time></trkpt><trkpt lat="43.58685525212909" lon="10.628317303454919"><ele>30.0</ele><time>2026-04-17T13:52:20Z</time></trkpt><trkpt lat="43.586750914636035" lon="10.628209115093714"><ele>30.0</ele><time>2026-04-17T13:52:21Z</time></trkpt><trkpt lat="43.5866453371314" lon="10.628105636168865"><ele>30.0</ele><time>2026-04-17T13:52:22Z</time></trkpt><trkpt lat="43.58655866849722" lon="10.628012316943469"><ele>30.0</ele><time>2026-04-17T13:52:23Z</time></trkpt><trkpt lat="43.586482091888406" lon="10.627925524683066"><ele>30.0</ele><time>2026-04-17T13:52:24Z</time></trkpt><trkpt lat="43.58640852692671" lon="10.627851593174274"><ele>30.0</ele><time>2026-04-17T13:52:25Z</time></trkpt><trkpt lat="43.586334823765434" lon="10.627790343008728"><ele>30.0</ele><time>2026-04-17T13:52:26Z</time></trkpt><trkpt lat="43.586235077660255" lon="10.627788192486088"><ele>30.0</ele><time>2026-04-17T13:52:27Z</time></trkpt><trkpt lat="43.586128498215686" lon="10.627869720281339"><ele>30.75</ele><time>2026-04-17T13:52:28Z</time></trkpt><trkpt lat="43.58601791970864" lon="10.627936063269459"><ele>31.5</ele><time>2026-04-17T13:52:29Z</time></trkpt><trkpt lat="43.585910184017465" lon="10.628005267457613"><ele>32.25</ele><time>2026-04-17T13:52:30Z</time></trkpt><trkpt lat="43.58580725172335" lon="10.628074476705173"><ele>33.0</ele><time>2026-04-17T13:52:31Z</time></trkpt><trkpt lat="43.585717237409725" lon="10.628138243147008"><ele>33.0</ele><time>2026-04-17T13:52:32Z</time></trkpt><trkpt lat="43.58562405303112" lon="10.628199233656131"><ele>33.0</ele><time>2026-04-17T13:52:33Z</time></trkpt><trkpt lat="43.58552066882187" lon="10.628231927536683"><ele>33.0</ele><time>2026-04-17T13:52:34Z</time></trkpt><trkpt lat="43.585416533104166" lon="10.628283184452206"><ele>33.0</ele><time>2026-04-17T13:52:35Z</time></trkpt><trkpt lat="43.58530416251618" lon="10.62830526370631"><ele>33.0</ele><time>2026-04-17T13:52:36Z</time></trkpt><trkpt lat="43.58518371513275" lon="10.628320040416913"><ele>33.25</ele><time>2026-04-17T13:52:37Z</time></trkpt><trkpt lat="43.58505858361695" lon="10.628339036019645"><ele>33.5</ele><time>2026-04-17T13:52:38Z</time></trkpt><trkpt lat="43.584941633626705" lon="10.628374384271716"><ele>33.75</ele><time>2026-04-17T13:52:39Z</time></trkpt><trkpt lat="43.584821557659545" lon="10.62842316303957"><ele>34.0</ele><time>2026-04-17T13:52:40Z</time></trkpt><trkpt lat="43.584711836739494" lon="10.6284656630949"><ele>34.0</ele><time>2026-04-17T13:52:41Z</time></trkpt><trkpt lat="43.58460581201641" lon="10.628514483117804"><ele>34.0</ele><time>2026-04-17T13:52:42Z</time></trkpt><trkpt lat="43.58450263644122" lon="10.628569106933613"><ele>34.0</ele><time>2026-04-17T13:52:43Z</time></trkpt><trkpt lat="43.584402662896615" lon="10.628616333866175"><ele>34.0</ele><time>2026-04-17T13:52:44Z</time></trkpt><trkpt lat="43.584295296257814" lon="10.628629731913607"><ele>34.0</ele><time>2026-04-17T13:52:45Z</time></trkpt><trkpt lat="43.58420230342209" lon="10.62864185757966"><ele>34.0</ele><time>2026-04-17T13:52:46Z</time></trkpt><trkpt lat="43.58411418238221" lon="10.628646159045696"><ele>34.0</ele><time>2026-04-17T13:52:47Z</time></trkpt><trkpt lat="43.58401298272707" lon="10.628633765718668"><ele>34.0</ele><time>2026-04-17T13:52:48Z</time></trkpt><trkpt lat="43.583884868660824" lon="10.628632341218424"><ele>34.0</ele><time>2026-04-17T13:52:49Z</time></trkpt><trkpt lat="43.58373680666151" lon="10.628603371863283"><ele>35.0</ele><time>2026-04-17T13:52:50Z</time></trkpt><trkpt lat="43.58359249005147" lon="10.62857687764687"><ele>36.0</ele><time>2026-04-17T13:52:51Z</time></trkpt><trkpt lat="43.58345000138639" lon="10.628543530838968"><ele>37.0</ele><time>2026-04-17T13:52:52Z</time></trkpt><trkpt lat="43.58330145418346" lon="10.628507191819232"><ele>38.0</ele><time>2026-04-17T13:52:53Z</time></trkpt><trkpt lat="43.58317182383761" lon="10.628472953407124"><ele>38.0</ele><time>2026-04-17T13:52:54Z</time></trkpt><trkpt lat="43.58305808432301" lon="10.628438557944595"><ele>38.0</ele><time>2026-04-17T13:52:55Z</time></trkpt><trkpt lat="43.582951856964335" lon="10.628407486063589"><ele>38.0</ele><time>2026-04-17T13:52:56Z</time></trkpt><trkpt lat="43.58281502695453" lon="10.628369917818002"><ele>38.0</ele><time>2026-04-17T13:52:57Z</time></trkpt><trkpt lat="43.58264344691067" lon="10.628329383583567"><ele>37.0</ele><time>2026-04-17T13:52:58Z</time></trkpt><trkpt lat="43.5824674381213" lon="10.628290953152296"><ele>36.0</ele><time>2026-04-17T13:52:59Z</time></trkpt><trkpt lat="43.58230152088828" lon="10.62825694428072"><ele>35.0</ele><time>2026-04-17T13:53:00Z</time></trkpt><trkpt lat="43.58212663496773" lon="10.628229976812557"><ele>35.666666666666664</ele><time>2026-04-17T13:53:01Z</time></trkpt><trkpt lat="43.58196450251457" lon="10.628211630725472"><ele>36.333333333333336</ele><time>2026-04-17T13:53:02Z</time></trkpt><trkpt lat="43.58179334243232" lon="10.628210094836032"><ele>37.0</ele><time>2026-04-17T13:53:03Z</time></trkpt><trkpt lat="43.581627808621555" lon="10.628198398859054"><ele>37.0</ele><time>2026-04-17T13:53:04Z</time></trkpt><trkpt lat="43.581477179893625" lon="10.628196811651643"><ele>37.0</ele><time>2026-04-17T13:53:05Z</time></trkpt><trkpt lat="43.58135394071151" lon="10.628200699559157"><ele>37.0</ele><time>2026-04-17T13:53:06Z</time></trkpt><trkpt lat="43.581223423338365" lon="10.628165814953439"><ele>37.0</ele><time>2026-04-17T13:53:07Z</time></trkpt><trkpt lat="43.58110312986533" lon="10.62811675030925"><ele>36.75</ele><time>2026-04-17T13:53:08Z</time></trkpt><trkpt lat="43.580980951004655" lon="10.62804178324865"><ele>36.5</ele><time>2026-04-17T13:53:09Z</time></trkpt><trkpt lat="43.58087070390407" lon="10.62798892258361"><ele>36.25</ele><time>2026-04-17T13:53:10Z</time></trkpt><trkpt lat="43.580752636581025" lon="10.627928299538631"><ele>36.0</ele><time>2026-04-17T13:53:11Z</time></trkpt><trkpt lat="43.58064040301928" lon="10.627893420290105"><ele>36.0</ele><time>2026-04-17T13:53:12Z</time></trkpt><trkpt lat="43.58055262062642" lon="10.627878695418715"><ele>36.0</ele><time>2026-04-17T13:53:13Z</time></trkpt><trkpt lat="43.580470166853445" lon="10.627877466583714"><ele>36.0</ele><time>2026-04-17T13:53:14Z</time></trkpt><trkpt lat="43.580385072681175" lon="10.627892215338878"><ele>36.0</ele><time>2026-04-17T13:53:15Z</time></trkpt><trkpt lat="43.58028255352754" lon="10.62793172992981"><ele>36.0</ele><time>2026-04-17T13:53:16Z</time></trkpt><trkpt lat="43.58017624552843" lon="10.627986141292368"><ele>36.0</ele><time>2026-04-17T13:53:17Z</time></trkpt><trkpt lat="43.580098713873795" lon="10.628060587595897"><ele>36.0</ele><time>2026-04-17T13:53:18Z</time></trkpt><trkpt lat="43.579985233947134" lon="10.628111383608271"><ele>36.0</ele><time>2026-04-17T13:53:19Z</time></trkpt><trkpt lat="43.57987647139228" lon="10.628188753370264"><ele>36.0</ele><time>2026-04-17T13:53:20Z</time></trkpt><trkpt lat="43.5797818673739" lon="10.628247202751453"><ele>36.0</ele><time>2026-04-17T13:53:21Z</time></trkpt><trkpt lat="43.5797032988503" lon="10.628293255793125"><ele>36.0</ele><time>2026-04-17T13:53:22Z</time></trkpt><trkpt lat="43.57961104404465" lon="10.628310939322363"><ele>36.0</ele><time>2026-04-17T13:53:24Z</time></trkpt><trkpt lat="43.57954942053847" lon="10.628334672127874"><ele>36.0</ele><time>2026-04-17T13:53:27Z</time></trkpt><trkpt lat="43.57945397916333" lon="10.628347604484826"><ele>36.0</ele><time>2026-04-17T13:53:29Z</time></trkpt><trkpt lat="43.57946253343866" lon="10.628082757432578"><ele>36.0</ele><time>2026-04-17T13:53:30Z</time></trkpt><trkpt lat="43.579413434108865" lon="10.627915173848626"><ele>37.25</ele><time>2026-04-17T13:53:31Z</time></trkpt><trkpt lat="43.57936516634061" lon="10.627744640164313"><ele>38.5</ele><time>2026-04-17T13:53:32Z</time></trkpt><trkpt lat="43.579302361801986" lon="10.627584762541948"><ele>39.75</ele><time>2026-04-17T13:53:33Z</time></trkpt><trkpt lat="43.57925734578423" lon="10.627413379217634"><ele>41.0</ele><time>2026-04-17T13:53:34Z</time></trkpt><trkpt lat="43.5792179479776" lon="10.627257229758206"><ele>41.0</ele><time>2026-04-17T13:53:35Z</time></trkpt><trkpt lat="43.57917679811998" lon="10.62711485896988"><ele>41.0</ele><time>2026-04-17T13:53:36Z</time></trkpt><trkpt lat="43.579135331882604" lon="10.626960069157557"><ele>41.0</ele><time>2026-04-17T13:53:37Z</time></trkpt><trkpt lat="43.57909319855619" lon="10.626824902451773"><ele>41.0</ele><time>2026-04-17T13:53:38Z</time></trkpt><trkpt lat="43.579061652953776" lon="10.626698253384777"><ele>41.0</ele><time>2026-04-17T13:53:39Z</time></trkpt><trkpt lat="43.579032867006546" lon="10.626588241266878"><ele>42.599999999999994</ele><time>2026-04-17T13:53:40Z</time></trkpt><trkpt lat="43.57902555387188" lon="10.626482285125817"><ele>44.2</ele><time>2026-04-17T13:53:41Z</time></trkpt><trkpt lat="43.579033011119435" lon="10.626332134113875"><ele>45.8</ele><time>2026-04-17T13:53:42Z</time></trkpt><trkpt lat="43.57904802825139" lon="10.626153789318925"><ele>47.400000000000006</ele><time>2026-04-17T13:53:43Z</time></trkpt><trkpt lat="43.57906065378669" lon="10.625988744443678"><ele>49.0</ele><time>2026-04-17T13:53:44Z</time></trkpt><trkpt lat="43.57906942642114" lon="10.625824943573555"><ele>50.5</ele><time>2026-04-17T13:53:45Z</time></trkpt><trkpt lat="43.579073486032556" lon="10.625666945698338"><ele>52.0</ele><time>2026-04-17T13:53:46Z</time></trkpt><trkpt lat="43.57906238534933" lon="10.625516827792241"><ele>53.5</ele><time>2026-04-17T13:53:47Z</time></trkpt><trkpt lat="43.579028873977464" lon="10.625360481242627"><ele>55.0</ele><time>2026-04-17T13:53:48Z</time></trkpt><trkpt lat="43.5789700308251" lon="10.625222443014795"><ele>56.75</ele><time>2026-04-17T13:53:49Z</time></trkpt><trkpt lat="43.57893216956588" lon="10.625080191924905"><ele>58.5</ele><time>2026-04-17T13:53:50Z</time></trkpt><trkpt lat="43.578890731865236" lon="10.624936341896726"><ele>60.25</ele><time>2026-04-17T13:53:51Z</time></trkpt><trkpt lat="43.578851625008156" lon="10.624784943112447"><ele>62.0</ele><time>2026-04-17T13:53:52Z</time></trkpt><trkpt lat="43.57885847033721" lon="10.62459597937942"><ele>63.400000000000006</ele><time>2026-04-17T13:53:54Z</time></trkpt><trkpt lat="43.578869340093824" lon="10.624472432708194"><ele>64.80000000000001</ele><time>2026-04-17T13:53:55Z</time></trkpt><trkpt lat="43.57888367465075" lon="10.624339730474196"><ele>66.2</ele><time>2026-04-17T13:53:56Z</time></trkpt><trkpt lat="43.57891919916124" lon="10.624201933144814"><ele>67.60000000000001</ele><time>2026-04-17T13:53:57Z</time></trkpt><trkpt lat="43.578976570451154" lon="10.624029285194583"><ele>69.0</ele><time>2026-04-17T13:53:58Z</time></trkpt><trkpt lat="43.5790286400496" lon="10.623820112685038"><ele>69.0</ele><time>2026-04-17T13:53:59Z</time></trkpt><trkpt lat="43.57908342763992" lon="10.623656890640365"><ele>69.0</ele><time>2026-04-17T13:54:00Z</time></trkpt><trkpt lat="43.579119990425056" lon="10.623534184336433"><ele>69.0</ele><time>2026-04-17T13:54:01Z</time></trkpt><trkpt lat="43.57914244670467" lon="10.623429069392106"><ele>69.0</ele><time>2026-04-17T13:54:02Z</time></trkpt><trkpt lat="43.579159065574885" lon="10.623344033007319"><ele>69.0</ele><time>2026-04-17T13:54:03Z</time></trkpt><trkpt lat="43.579241929339084" lon="10.623368063398656"><ele>69.16666666666667</ele><time>2026-04-17T13:54:06Z</time></trkpt><trkpt lat="43.57936814501452" lon="10.623390852997913"><ele>69.33333333333333</ele><time>2026-04-17T13:54:08Z</time></trkpt><trkpt lat="43.57945381495475" lon="10.623402912201058"><ele>69.5</ele><time>2026-04-17T13:54:10Z</time></trkpt><trkpt lat="43.57952882631186" lon="10.623390843301744"><ele>69.66666666666666</ele><time>2026-04-17T13:54:40Z</time></trkpt><trkpt lat="43.579601228603366" lon="10.623375685179926"><ele>69.83333333333333</ele><time>2026-04-17T13:54:43Z</time></trkpt><trkpt lat="43.5796700313017" lon="10.62335704755786"><ele>70.0</ele><time>2026-04-17T13:54:45Z</time></trkpt><trkpt lat="43.57974541038512" lon="10.62332697059575"><ele>70.0</ele><time>2026-04-17T13:54:47Z</time></trkpt><trkpt lat="43.579832890268854" lon="10.6232892862747"><ele>70.0</ele><time>2026-04-17T13:54:49Z</time></trkpt><trkpt lat="43.579901168605986" lon="10.623259874053744"><ele>70.0</ele><time>2026-04-17T13:54:51Z</time></trkpt><trkpt lat="43.5799890334697" lon="10.623161542158188"><ele>70.0</ele><time>2026-04-17T13:54:53Z</time></trkpt><trkpt lat="43.580064865690645" lon="10.623077998491057"><ele>70.0</ele><time>2026-04-17T13:54:55Z</time></trkpt><trkpt lat="43.58016057266254" lon="10.622939193358764"><ele>70.0</ele><time>2026-04-17T13:54:57Z</time></trkpt><trkpt lat="43.580234880537816" lon="10.622919765328655"><ele>70.0</ele><time>2026-04-17T13:54:58Z</time></trkpt><trkpt lat="43.580321955688824" lon="10.622909325086624"><ele>70.0</ele><time>2026-04-17T13:55:00Z</time></trkpt><trkpt lat="43.58037622978917" lon="10.622834240158529"><ele>70.0</ele><time>2026-04-17T13:55:02Z</time></trkpt><trkpt lat="43.58048310191349" lon="10.622765092180723"><ele>70.0</ele><time>2026-04-17T13:55:04Z</time></trkpt><trkpt lat="43.580564068561" lon="10.62275808665335"><ele>70.0</ele><time>2026-04-17T13:55:05Z</time></trkpt><trkpt lat="43.5806838380409" lon="10.622739896449355"><ele>70.0</ele><time>2026-04-17T13:55:07Z</time></trkpt><trkpt lat="43.580750817499215" lon="10.622766631724872"><ele>70.0</ele><time>2026-04-17T13:55:08Z</time></trkpt><trkpt lat="43.58083800102573" lon="10.622819174981016"><ele>70.0</ele><time>2026-04-17T13:55:10Z</time></trkpt><trkpt lat="43.5809017354502" lon="10.622864072774197"><ele>70.0</ele><time>2026-04-17T13:55:12Z</time></trkpt><trkpt lat="43.58097830463581" lon="10.622885387000391"><ele>70.0</ele><time>2026-04-17T13:55:14Z</time></trkpt><trkpt lat="43.5810533989431" lon="10.62288971272182"><ele>70.0</ele><time>2026-04-17T13:55:16Z</time></trkpt><trkpt lat="43.58114849264195" lon="10.62286942108891"><ele>70.2</ele><time>2026-04-17T13:55:19Z</time></trkpt><trkpt lat="43.58116167869474" lon="10.622699208135128"><ele>70.4</ele><time>2026-04-17T13:55:20Z</time></trkpt><trkpt lat="43.58120128555132" lon="10.622583196844305"><ele>70.6</ele><time>2026-04-17T13:55:22Z</time></trkpt><trkpt lat="43.58122731233128" lon="10.622445415403575"><ele>70.8</ele><time>2026-04-17T13:55:24Z</time></trkpt><trkpt lat="43.58123061020309" lon="10.62254871687113"><ele>71.0</ele><time>2026-04-17T14:00:32Z</time></trkpt><trkpt lat="43.58117154462511" lon="10.62248584082898"><ele>71.0</ele><time>2026-04-17T14:01:33Z</time></trkpt><trkpt lat="43.581184714133066" lon="10.622397053398046"><ele>71.0</ele><time>2026-04-17T14:01:35.001Z</time></trkpt><trkpt lat="43.58118957553092" lon="10.622498536618089"><ele>71.0</ele><time>2026-04-17T14:01:37.001Z</time></trkpt><trkpt lat="43.581215160649776" lon="10.622413732501542"><ele>71.0</ele><time>2026-04-17T14:02:03Z</time></trkpt><trkpt lat="43.581185015020544" lon="10.62249835628093"><ele>71.0</ele><time>2026-04-17T14:02:35Z</time></trkpt><trkpt lat="43.581174043744696" lon="10.622589934068676"><ele>71.0</ele><time>2026-04-17T14:02:41Z</time></trkpt><trkpt lat="43.58116729475649" lon="10.622678896076712"><ele>71.0</ele><time>2026-04-17T14:02:46Z</time></trkpt><trkpt lat="43.58116794239163" lon="10.622770047345501"><ele>71.0</ele><time>2026-04-17T14:03:18Z</time></trkpt><trkpt lat="43.581194835903545" lon="10.622678070946003"><ele>71.0</ele><time>2026-04-17T14:04:19Z</time></trkpt><trkpt lat="43.5811986077208" lon="10.62258994472762"><ele>71.0</ele><time>2026-04-17T14:04:28Z</time></trkpt><trkpt lat="43.58121377206527" lon="10.622431874662771"><ele>71.0</ele><time>2026-04-17T14:04:56Z</time></trkpt><trkpt lat="43.58133002345878" lon="10.622376271873181"><ele>71.0</ele><time>2026-04-17T14:06:38Z</time></trkpt><trkpt lat="43.581316610653985" lon="10.622281455326922"><ele>71.0</ele><time>2026-04-17T14:06:46Z</time></trkpt><trkpt lat="43.5812895117945" lon="10.622187561946385"><ele>71.0</ele><time>2026-04-17T14:07:03Z</time></trkpt><trkpt lat="43.58125921969131" lon="10.62210696208125"><ele>71.0</ele><time>2026-04-17T14:07:18Z</time></trkpt><trkpt lat="43.58122784436877" lon="10.622021365454223"><ele>71.0</ele><time>2026-04-17T14:07:56.053Z</time></trkpt><trkpt lat="43.581193565791196" lon="10.622111746525045"><ele>71.0</ele><time>2026-04-17T14:12:11.012Z</time></trkpt><trkpt lat="43.58126959991337" lon="10.622117929027754"><ele>71.0</ele><time>2026-04-17T14:13:01.015Z</time></trkpt><trkpt lat="43.581219634646985" lon="10.622055009576796"><ele>71.0</ele><time>2026-04-17T14:13:07.015Z</time></trkpt><trkpt lat="43.58123124999673" lon="10.62217669180909"><ele>71.0</ele><time>2026-04-17T14:13:17.318Z</time></trkpt><trkpt lat="43.581230368080256" lon="10.622273231017843"><ele>71.0</ele><time>2026-04-17T14:13:27.014Z</time></trkpt><trkpt lat="43.58128442460637" lon="10.622377482687774"><ele>71.0</ele><time>2026-04-17T14:13:29.017Z</time></trkpt><trkpt lat="43.581212367600436" lon="10.622339031314604"><ele>71.0</ele><time>2026-04-17T14:13:34.001Z</time></trkpt><trkpt lat="43.5812442533983" lon="10.62242380560324"><ele>71.0</ele><time>2026-04-17T14:16:14Z</time></trkpt><trkpt lat="43.581227244617175" lon="10.622510770499211"><ele>71.0</ele><time>2026-04-17T14:16:23Z</time></trkpt><trkpt lat="43.58124330255271" lon="10.622421790327737"><ele>71.0</ele><time>2026-04-17T14:16:57Z</time></trkpt><trkpt lat="43.5812367144992" lon="10.622329591790729"><ele>71.0</ele><time>2026-04-17T14:17:10Z</time></trkpt><trkpt lat="43.5812457930987" lon="10.622182279454032"><ele>71.0</ele><time>2026-04-17T14:17:38.056Z</time></trkpt><trkpt lat="43.58127456251848" lon="10.622103850621812"><ele>71.0</ele><time>2026-04-17T14:26:23Z</time></trkpt><trkpt lat="43.58126363850869" lon="10.622191174552471"><ele>71.0</ele><time>2026-04-17T14:26:34Z</time></trkpt><trkpt lat="43.58127568902075" lon="10.6221052516559"><ele>71.0</ele><time>2026-04-17T14:28:46Z</time></trkpt><trkpt lat="43.58127234569524" lon="10.622196805661106"><ele>71.0</ele><time>2026-04-17T14:28:58Z</time></trkpt><trkpt lat="43.581268463583235" lon="10.622096868124435"><ele>71.0</ele><time>2026-04-17T14:29:17Z</time></trkpt><trkpt lat="43.581275479097506" lon="10.622188635138551"><ele>71.0</ele><time>2026-04-17T14:29:31Z</time></trkpt><trkpt lat="43.58135153527843" lon="10.622293519698784"><ele>71.0</ele><time>2026-04-17T15:10:24Z</time></trkpt><trkpt lat="43.58123315182833" lon="10.622097459117903"><ele>71.0</ele><time>2026-04-17T15:10:42.226Z</time></trkpt><trkpt lat="43.581447362720844" lon="10.62235051515423"><ele>71.0</ele><time>2026-04-17T15:10:53Z</time></trkpt><trkpt lat="43.58135497697524" lon="10.622125267195084"><ele>71.0</ele><time>2026-04-17T15:10:57Z</time></trkpt><trkpt lat="43.5813154923701" lon="10.622202551612538"><ele>71.0</ele><time>2026-04-17T15:11:09Z</time></trkpt><trkpt lat="43.58130726498295" lon="10.622288877678784"><ele>71.0</ele><time>2026-04-17T15:11:12Z</time></trkpt><trkpt lat="43.581129972790535" lon="10.622315118744227"><ele>73.25</ele><time>2026-04-17T15:11:36Z</time></trkpt><trkpt lat="43.58117741570468" lon="10.622170807304077"><ele>75.5</ele><time>2026-04-17T15:12:08Z</time></trkpt><trkpt lat="43.58098479309331" lon="10.622065217391352"><ele>77.75</ele><time>2026-04-17T15:12:09Z</time></trkpt><trkpt lat="43.58105594736542" lon="10.62211942114463"><ele>80.0</ele><time>2026-04-17T15:12:20Z</time></trkpt><trkpt lat="43.58112072826457" lon="10.622168544702408"><ele>80.0</ele><time>2026-04-17T15:13:11Z</time></trkpt><trkpt lat="43.58105488712905" lon="10.622192801968037"><ele>80.0</ele><time>2026-04-17T15:13:16Z</time></trkpt><trkpt lat="43.58111322894478" lon="10.622137536420789"><ele>80.0</ele><time>2026-04-17T15:13:32.019Z</time></trkpt><trkpt lat="43.58103678143018" lon="10.62215783249986"><ele>80.0</ele><time>2026-04-17T15:13:42.019Z</time></trkpt><trkpt lat="43.58097088058098" lon="10.622148448442129"><ele>80.0</ele><time>2026-04-17T15:13:45.021Z</time></trkpt><trkpt lat="43.58109343132307" lon="10.622157205569906"><ele>80.0</ele><time>2026-04-17T15:14:29Z</time></trkpt><trkpt lat="43.58110612112186" lon="10.622249750325473"><ele>80.0</ele><time>2026-04-17T15:14:35Z</time></trkpt><trkpt lat="43.58113853435556" lon="10.62237525066625"><ele>80.0</ele><time>2026-04-17T15:14:42Z</time></trkpt><trkpt lat="43.58123001426859" lon="10.62240640480337"><ele>80.0</ele><time>2026-04-17T15:21:26Z</time></trkpt><trkpt lat="43.58123313321781" lon="10.622317327613725"><ele>80.0</ele><time>2026-04-17T15:21:33Z</time></trkpt><trkpt lat="43.58122960860419" lon="10.622220418375411"><ele>80.0</ele><time>2026-04-17T15:21:43Z</time></trkpt><trkpt lat="43.581218067743364" lon="10.622093093554454"><ele>80.0</ele><time>2026-04-17T15:22:05Z</time></trkpt><trkpt lat="43.58115757334695" lon="10.622121296496221"><ele>80.0</ele><time>2026-04-17T15:22:20Z</time></trkpt><trkpt lat="43.58106495121861" lon="10.622119876678964"><ele>80.0</ele><time>2026-04-17T15:22:25Z</time></trkpt><trkpt lat="43.58099116885126" lon="10.6221320982175"><ele>80.0</ele><time>2026-04-17T15:22:29Z</time></trkpt><trkpt lat="43.58112828850194" lon="10.622177684166736"><ele>80.0</ele><time>2026-04-17T15:22:39Z</time></trkpt><trkpt lat="43.58096863969672" lon="10.622101899954782"><ele>80.0</ele><time>2026-04-17T15:22:40Z</time></trkpt><trkpt lat="43.580807038141636" lon="10.622152230513414"><ele>80.0</ele><time>2026-04-17T15:22:46Z</time></trkpt><trkpt lat="43.58057457073152" lon="10.622218710317295"><ele>80.0</ele><time>2026-04-17T15:22:51Z</time></trkpt><trkpt lat="43.58057101451827" lon="10.622131529219523"><ele>80.0</ele><time>2026-04-17T15:23:03.058Z</time></trkpt><trkpt lat="43.58109037769146" lon="10.622060639923847"><ele>80.0</ele><time>2026-04-17T15:23:16.049Z</time></trkpt><trkpt lat="43.58099230245728" lon="10.622003303294463"><ele>80.0</ele><time>2026-04-17T15:24:17.013Z</time></trkpt><trkpt lat="43.58108043499009" lon="10.622032484124379"><ele>80.0</ele><time>2026-04-17T15:24:26.012Z</time></trkpt><trkpt lat="43.58114639510193" lon="10.622058843984037"><ele>80.0</ele><time>2026-04-17T15:24:52.012Z</time></trkpt><trkpt lat="43.58121353318022" lon="10.622038653830819"><ele>80.0</ele><time>2026-04-17T15:25:14.012Z</time></trkpt><trkpt lat="43.581319228240964" lon="10.622368525728993"><ele>78.2</ele><time>2026-04-17T15:26:11.373Z</time></trkpt><trkpt lat="43.581270333132395" lon="10.622146571228607"><ele>76.4</ele><time>2026-04-17T15:26:12.586Z</time></trkpt><trkpt lat="43.581242211595516" lon="10.622018830772179"><ele>74.6</ele><time>2026-04-17T15:26:14.81Z</time></trkpt><trkpt lat="43.58121668171108" lon="10.62212812115313"><ele>72.8</ele><time>2026-04-17T15:26:36.013Z</time></trkpt><trkpt lat="43.58122629637242" lon="10.622214569838436"><ele>71.0</ele><time>2026-04-17T15:26:39.015Z</time></trkpt><trkpt lat="43.58126509421543" lon="10.622288491851926"><ele>71.0</ele><time>2026-04-17T15:28:11.011Z</time></trkpt><trkpt lat="43.58131925064756" lon="10.622365563115107"><ele>71.0</ele><time>2026-04-17T15:28:13.011Z</time></trkpt><trkpt lat="43.581381846360955" lon="10.622275307194403"><ele>71.0</ele><time>2026-04-17T15:28:28.011Z</time></trkpt><trkpt lat="43.581327876229025" lon="10.62219982538922"><ele>71.0</ele><time>2026-04-17T15:28:50.012Z</time></trkpt><trkpt lat="43.58124354088055" lon="10.622201841409415"><ele>71.0</ele><time>2026-04-17T15:29:49.008Z</time></trkpt><trkpt lat="43.58104445289441" lon="10.622187202219987"><ele>71.0</ele><time>2026-04-17T15:29:51.042Z</time></trkpt><trkpt lat="43.58123425876759" lon="10.622192445900547"><ele>71.0</ele><time>2026-04-17T15:29:52.232Z</time></trkpt><trkpt lat="43.581251827465536" lon="10.622108082350481"><ele>71.0</ele><time>2026-04-17T15:30:42.017Z</time></trkpt><trkpt lat="43.58126189640501" lon="10.622206690205775"><ele>71.0</ele><time>2026-04-17T15:34:14Z</time></trkpt><trkpt lat="43.58118858635787" lon="10.622193234979052"><ele>71.0</ele><time>2026-04-17T15:34:21Z</time></trkpt><trkpt lat="43.581120141621284" lon="10.622197373680093"><ele>71.0</ele><time>2026-04-17T15:34:26Z</time></trkpt><trkpt lat="43.58122168291433" lon="10.622168338630262"><ele>71.0</ele><time>2026-04-17T15:34:48Z</time></trkpt><trkpt lat="43.58128495840764" lon="10.622278444333693"><ele>71.0</ele><time>2026-04-17T15:34:52.03Z</time></trkpt><trkpt lat="43.58119986256537" lon="10.622373752274022"><ele>71.0</ele><time>2026-04-17T15:35:00Z</time></trkpt><trkpt lat="43.581185203486186" lon="10.622460511885276"><ele>71.0</ele><time>2026-04-17T15:35:09Z</time></trkpt><trkpt lat="43.581174707037356" lon="10.622552345736258"><ele>71.0</ele><time>2026-04-17T15:35:13Z</time></trkpt><trkpt lat="43.5811510992949" lon="10.622680311154511"><ele>71.0</ele><time>2026-04-17T15:35:59Z</time></trkpt><trkpt lat="43.58115983029758" lon="10.622593498916382"><ele>71.0</ele><time>2026-04-17T15:36:28Z</time></trkpt><trkpt lat="43.58117729673434" lon="10.622495458477443"><ele>71.0</ele><time>2026-04-17T15:36:38Z</time></trkpt><trkpt lat="43.58118177971919" lon="10.622246878766255"><ele>71.0</ele><time>2026-04-17T15:37:37.066Z</time></trkpt><trkpt lat="43.58125714226979" lon="10.622205350197408"><ele>71.0</ele><time>2026-04-17T15:37:42.146Z</time></trkpt><trkpt lat="43.58124123155152" lon="10.622027644577559"><ele>71.0</ele><time>2026-04-17T15:38:31.188Z</time></trkpt><trkpt lat="43.58118168600659" lon="10.62199861823834"><ele>71.0</ele><time>2026-04-17T15:39:45.014Z</time></trkpt><trkpt lat="43.581235443466625" lon="10.62209605058157"><ele>71.0</ele><time>2026-04-17T15:39:59Z</time></trkpt><trkpt lat="43.581165170576554" lon="10.621992308677857"><ele>71.0</ele><time>2026-04-17T15:40:28.042Z</time></trkpt><trkpt lat="43.581078532673075" lon="10.621941011587497"><ele>71.0</ele><time>2026-04-17T15:40:30.027Z</time></trkpt><trkpt lat="43.58099633749348" lon="10.621886872096383"><ele>71.0</ele><time>2026-04-17T15:40:33.027Z</time></trkpt><trkpt lat="43.58115809025561" lon="10.621955765335068"><ele>71.0</ele><time>2026-04-17T15:40:52.008Z</time></trkpt><trkpt lat="43.581217703289845" lon="10.622203906978946"><ele>71.0</ele><time>2026-04-17T15:40:59.181Z</time></trkpt><trkpt lat="43.58113121289532" lon="10.622182832100593"><ele>71.0</ele><time>2026-04-17T15:41:49.626Z</time></trkpt><trkpt lat="43.581149248285676" lon="10.622321697240242"><ele>71.0</ele><time>2026-04-17T15:42:34Z</time></trkpt><trkpt lat="43.581212900666216" lon="10.622341380607175"><ele>71.0</ele><time>2026-04-17T15:42:42Z</time></trkpt><trkpt lat="43.58130201704454" lon="10.622227298723617"><ele>71.0</ele><time>2026-04-17T15:44:12Z</time></trkpt><trkpt lat="43.58128413423274" lon="10.62213833669637"><ele>71.0</ele><time>2026-04-17T15:44:26Z</time></trkpt><trkpt lat="43.581205648821495" lon="10.622134100282917"><ele>71.0</ele><time>2026-04-17T15:44:28Z</time></trkpt><trkpt lat="43.581302245651536" lon="10.622180056422708"><ele>71.0</ele><time>2026-04-17T15:46:32.052Z</time></trkpt><trkpt lat="43.58136533109433" lon="10.622183572493498"><ele>71.0</ele><time>2026-04-17T15:50:01.016Z</time></trkpt><trkpt lat="43.58148901737774" lon="10.622249447745055"><ele>71.0</ele><time>2026-04-17T15:50:23.017Z</time></trkpt><trkpt lat="43.581464415186055" lon="10.622167497852905"><ele>71.0</ele><time>2026-04-17T15:50:27.017Z</time></trkpt><trkpt lat="43.58139126196244" lon="10.622158215670318"><ele>71.0</ele><time>2026-04-17T15:50:37Z</time></trkpt><trkpt lat="43.58131104876289" lon="10.622178949302073"><ele>71.0</ele><time>2026-04-17T15:50:42Z</time></trkpt><trkpt lat="43.58119995791581" lon="10.622287767100724"><ele>71.0</ele><time>2026-04-17T15:50:49Z</time></trkpt><trkpt lat="43.58130891737136" lon="10.622290023458891"><ele>71.0</ele><time>2026-04-17T15:51:34Z</time></trkpt><trkpt lat="43.58132271064693" lon="10.622144841257134"><ele>71.0</ele><time>2026-04-17T15:51:56Z</time></trkpt><trkpt lat="43.581342210711234" lon="10.622249677576846"><ele>71.0</ele><time>2026-04-17T15:52:14Z</time></trkpt><trkpt lat="43.581472433610756" lon="10.622253446059661"><ele>71.0</ele><time>2026-04-17T15:52:16Z</time></trkpt><trkpt lat="43.5814029597362" lon="10.622302948215728"><ele>71.0</ele><time>2026-04-17T15:52:19Z</time></trkpt><trkpt lat="43.58129643317952" lon="10.622280282409774"><ele>71.0</ele><time>2026-04-17T15:52:21Z</time></trkpt><trkpt lat="43.581159668186515" lon="10.622220705229251"><ele>71.0</ele><time>2026-04-17T15:52:22Z</time></trkpt><trkpt lat="43.58127958147846" lon="10.622251293086983"><ele>71.0</ele><time>2026-04-17T15:57:35Z</time></trkpt><trkpt lat="43.58127431416677" lon="10.622160661201157"><ele>71.0</ele><time>2026-04-17T16:56:39.002Z</time></trkpt><trkpt lat="43.5812382390997" lon="10.622000359938372"><ele>71.0</ele><time>2026-04-17T16:56:45.194Z</time></trkpt><trkpt lat="43.581507492219075" lon="10.623196839777659"><ele>71.0</ele><time>2026-04-17T16:56:58.638Z</time></trkpt><trkpt lat="43.58127431754998" lon="10.622160683136679"><ele>71.0</ele><time>2026-04-17T16:57:04.002Z</time></trkpt><trkpt lat="43.581241325181416" lon="10.6220140709573"><ele>71.0</ele><time>2026-04-17T17:09:36.551Z</time></trkpt><trkpt lat="43.5812679126697" lon="10.622132218900125"><ele>71.0</ele><time>2026-04-17T17:34:59.991Z</time></trkpt><trkpt lat="43.58123726266361" lon="10.621996033090097"><ele>71.0</ele><time>2026-04-17T17:39:11.37Z</time></trkpt><trkpt lat="43.58127444647978" lon="10.622160661742742"><ele>71.0</ele><time>2026-04-17T17:40:14.987Z</time></trkpt><trkpt lat="43.5812554675028" lon="10.622066185377301"><ele>71.0</ele><time>2026-04-17T17:45:46.984Z</time></trkpt><trkpt lat="43.581330054353415" lon="10.622408360373763"><ele>71.0</ele><time>2026-04-17T17:46:17.671Z</time></trkpt><trkpt lat="43.58127404408694" lon="10.622159467946954"><ele>71.0</ele><time>2026-04-17T17:46:35.983Z</time></trkpt><trkpt lat="43.58104316571981" lon="10.622189354041835"><ele>71.0</ele><time>2026-04-17T17:46:58.429Z</time></trkpt><trkpt lat="43.58124729456805" lon="10.622055251655095"><ele>71.0</ele><time>2026-04-17T17:51:29.003Z</time></trkpt><trkpt lat="43.58127071855843" lon="10.622159278010827"><ele>71.0</ele><time>2026-04-17T18:02:33.983Z</time></trkpt><trkpt lat="43.58120507064681" lon="10.622168518145461"><ele>71.0</ele><time>2026-04-17T18:08:29Z</time></trkpt><trkpt lat="43.581164089846425" lon="10.62228350981822"><ele>71.0</ele><time>2026-04-17T18:09:11.056Z</time></trkpt><trkpt lat="43.581126498155434" lon="10.622365912926098"><ele>71.0</ele><time>2026-04-17T18:09:12.053Z</time></trkpt><trkpt lat="43.581090349109516" lon="10.622453343654072"><ele>71.0</ele><time>2026-04-17T18:09:14.053Z</time></trkpt><trkpt lat="43.58118337298778" lon="10.622188576937104"><ele>71.0</ele><time>2026-04-17T18:09:18Z</time></trkpt><trkpt lat="43.58129359469068" lon="10.622142637101708"><ele>71.0</ele><time>2026-04-17T18:09:39Z</time></trkpt><trkpt lat="43.58132233852954" lon="10.62227320630382"><ele>71.0</ele><time>2026-04-17T18:16:01.012Z</time></trkpt><trkpt lat="43.581385715365926" lon="10.622369791283575"><ele>71.0</ele><time>2026-04-17T18:16:03.012Z</time></trkpt><trkpt lat="43.58137864329856" lon="10.622272769123144"><ele>71.0</ele><time>2026-04-17T18:16:12.012Z</time></trkpt><trkpt lat="43.581335617362484" lon="10.622187349458725"><ele>71.0</ele><time>2026-04-17T18:16:16.011Z</time></trkpt><trkpt lat="43.58128846400613" lon="10.622095964814513"><ele>71.0</ele><time>2026-04-17T18:16:19.01Z</time></trkpt><trkpt lat="43.58133287393946" lon="10.622193509574698"><ele>71.0</ele><time>2026-04-17T18:17:26.014Z</time></trkpt><trkpt lat="43.581199892174276" lon="10.622151307778616"><ele>71.0</ele><time>2026-04-17T18:18:20.016Z</time></trkpt><trkpt lat="43.58127221050602" lon="10.622172791362065"><ele>71.0</ele><time>2026-04-17T18:18:35.015Z</time></trkpt><trkpt lat="43.58129895257943" lon="10.6222720287047"><ele>71.0</ele><time>2026-04-17T18:18:46.014Z</time></trkpt><trkpt lat="43.581218751182575" lon="10.622161144986345"><ele>71.0</ele><time>2026-04-17T18:19:38.01Z</time></trkpt><trkpt lat="43.58120069670755" lon="10.622066250139714"><ele>71.0</ele><time>2026-04-17T18:23:03.013Z</time></trkpt><trkpt lat="43.58123438370118" lon="10.62215615181949"><ele>71.0</ele><time>2026-04-17T18:23:20.01Z</time></trkpt><trkpt lat="43.58129415588805" lon="10.62221565132651"><ele>71.0</ele><time>2026-04-17T18:23:31.014Z</time></trkpt><trkpt lat="43.58129718194111" lon="10.622123117020108"><ele>71.0</ele><time>2026-04-17T18:23:46.013Z</time></trkpt><trkpt lat="43.58128307522651" lon="10.62221457364482"><ele>71.0</ele><time>2026-04-17T18:24:10.014Z</time></trkpt><trkpt lat="43.5812359968917" lon="10.622280417197352"><ele>71.0</ele><time>2026-04-17T18:24:15.012Z</time></trkpt><trkpt lat="43.58118542062288" lon="10.622151031085174"><ele>71.0</ele><time>2026-04-17T18:24:23.012Z</time></trkpt><trkpt lat="43.58118775214424" lon="10.62206243997069"><ele>71.0</ele><time>2026-04-17T18:43:41Z</time></trkpt><trkpt lat="43.581260339594394" lon="10.622065131656175"><ele>71.0</ele><time>2026-04-17T18:49:23Z</time></trkpt><trkpt lat="43.581308685287134" lon="10.62212378167165"><ele>71.0</ele><time>2026-04-17T18:54:18Z</time></trkpt><trkpt lat="43.581421931381364" lon="10.622242656336459"><ele>71.0</ele><time>2026-04-17T19:59:10Z</time></trkpt><trkpt lat="43.58152587454606" lon="10.62253000198812"><ele>71.0</ele><time>2026-04-17T19:59:13.068Z</time></trkpt><trkpt lat="43.58127446796474" lon="10.62216181189586"><ele>71.0</ele><time>2026-04-17T19:59:24.069Z</time></trkpt><trkpt lat="43.58133242793426" lon="10.62206436346844"><ele>71.0</ele><time>2026-04-17T20:00:42.015Z</time></trkpt><trkpt lat="43.58127446778465" lon="10.622161811728551"><ele>71.0</ele><time>2026-04-17T20:02:02.016Z</time></trkpt><trkpt lat="43.58114696309405" lon="10.622177940248914"><ele>71.0</ele><time>2026-04-17T20:20:43.014Z</time></trkpt><trkpt lat="43.58127019290544" lon="10.622163387508332"><ele>71.0</ele><time>2026-04-17T20:23:39.651Z</time></trkpt><trkpt lat="43.58122341357574" lon="10.62223154600543"><ele>71.0</ele><time>2026-04-17T21:31:32.983Z</time></trkpt><trkpt lat="43.58119823693497" lon="10.62214718297795"><ele>71.0</ele><time>2026-04-17T21:31:39.989Z</time></trkpt><trkpt lat="43.581191746805004" lon="10.622255374062947"><ele>71.0</ele><time>2026-04-17T21:32:11.06Z</time></trkpt><trkpt lat="43.58124328452877" lon="10.622205430912027"><ele>71.0</ele><time>2026-04-17T21:34:56.001Z</time></trkpt><trkpt lat="43.58126306448972" lon="10.622108922299082"><ele>71.0</ele><time>2026-04-17T21:59:07.001Z</time></trkpt><trkpt lat="43.58131376043033" lon="10.622163200382483"><ele>71.0</ele><time>2026-04-18T05:31:08.001Z</time></trkpt><trkpt lat="43.58123076714523" lon="10.622190627920837"><ele>71.0</ele><time>2026-04-18T06:15:37Z</time></trkpt><trkpt lat="43.58123450522983" lon="10.621997646173671"><ele>71.0</ele><time>2026-04-18T06:35:25.539Z</time></trkpt><trkpt lat="43.581218759591046" lon="10.622161936716061"><ele>71.0</ele><time>2026-04-18T06:36:34.005Z</time></trkpt><trkpt lat="43.58123453781175" lon="10.621997011968709"><ele>71.0</ele><time>2026-04-18T06:37:42.016Z</time></trkpt><trkpt lat="43.581189371009984" lon="10.62255767181122"><ele>71.0</ele><time>2026-04-18T06:40:25.472Z</time></trkpt><trkpt lat="43.58121291163101" lon="10.622266489172121"><ele>71.0</ele><time>2026-04-18T06:40:50.158Z</time></trkpt><trkpt lat="43.581227194145136" lon="10.622089823478209"><ele>71.0</ele><time>2026-04-18T06:42:30.814Z</time></trkpt><trkpt lat="43.58124221470869" lon="10.622203087791172"><ele>71.0</ele><time>2026-04-18T06:48:23.008Z</time></trkpt><trkpt lat="43.581137212233116" lon="10.622195184619528"><ele>71.0</ele><time>2026-04-18T06:48:29.009Z</time></trkpt><trkpt lat="43.58125030120149" lon="10.622173850657802"><ele>71.0</ele><time>2026-04-18T06:50:33.005Z</time></trkpt><trkpt lat="43.58131341445242" lon="10.622171852537615"><ele>71.0</ele><time>2026-04-18T06:50:47.001Z</time></trkpt><trkpt lat="43.58124589392738" lon="10.622203193606152"><ele>71.0</ele><time>2026-04-18T06:52:05Z</time></trkpt><trkpt lat="43.58117622076193" lon="10.622212010139794"><ele>71.0</ele><time>2026-04-18T06:52:24Z</time></trkpt><trkpt lat="43.58134158799521" lon="10.622205169666378"><ele>71.0</ele><time>2026-04-18T06:53:05.054Z</time></trkpt><trkpt lat="43.58151437705852" lon="10.62228120517906"><ele>71.0</ele><time>2026-04-18T06:53:11Z</time></trkpt><trkpt lat="43.58145598166666" lon="10.622237107886066"><ele>71.0</ele><time>2026-04-18T06:53:23Z</time></trkpt><trkpt lat="43.58136163875589" lon="10.622183430129676"><ele>71.0</ele><time>2026-04-18T06:53:30Z</time></trkpt><trkpt lat="43.581290599069405" lon="10.622141494721673"><ele>71.0</ele><time>2026-04-18T06:53:33Z</time></trkpt><trkpt lat="43.58128259716724" lon="10.62204265447979"><ele>71.0</ele><time>2026-04-18T06:58:04Z</time></trkpt><trkpt lat="43.58127484124704" lon="10.621955656093697"><ele>71.0</ele><time>2026-04-18T06:58:16Z</time></trkpt><trkpt lat="43.581360548106304" lon="10.622147797342794"><ele>71.0</ele><time>2026-04-18T06:59:01Z</time></trkpt><trkpt lat="43.58139373471185" lon="10.622279519251242"><ele>71.0</ele><time>2026-04-18T06:59:07Z</time></trkpt><trkpt lat="43.58130871410306" lon="10.622285073785779"><ele>71.0</ele><time>2026-04-18T06:59:09Z</time></trkpt><trkpt lat="43.581354787518826" lon="10.622383783681281"><ele>71.0</ele><time>2026-04-18T06:59:10Z</time></trkpt><trkpt lat="43.581388992383246" lon="10.622286956645253"><ele>71.0</ele><time>2026-04-18T06:59:12Z</time></trkpt><trkpt lat="43.58138854581243" lon="10.622190094893837"><ele>71.0</ele><time>2026-04-18T06:59:26Z</time></trkpt><trkpt lat="43.58135323892323" lon="10.622102278201824"><ele>71.0</ele><time>2026-04-18T06:59:39Z</time></trkpt><trkpt lat="43.58125262257022" lon="10.6220193668713"><ele>71.0</ele><time>2026-04-18T06:59:50Z</time></trkpt><trkpt lat="43.58130399471742" lon="10.622073310475315"><ele>71.0</ele><time>2026-04-18T07:00:08Z</time></trkpt><trkpt lat="43.581364831550886" lon="10.622147871282408"><ele>71.0</ele><time>2026-04-18T07:00:20Z</time></trkpt><trkpt lat="43.58134728713038" lon="10.622238763319256"><ele>71.0</ele><time>2026-04-18T07:04:38.01Z</time></trkpt><trkpt lat="43.58141144000761" lon="10.62232697474336"><ele>71.0</ele><time>2026-04-18T07:04:40.012Z</time></trkpt><trkpt lat="43.581282170051445" lon="10.622168191480759"><ele>71.0</ele><time>2026-04-18T07:05:11.012Z</time></trkpt><trkpt lat="43.581323827324205" lon="10.622099526371066"><ele>71.0</ele><time>2026-04-18T08:57:22.01Z</time></trkpt><trkpt lat="43.58127678388583" lon="10.622037436767204"><ele>71.0</ele><time>2026-04-18T08:57:41.014Z</time></trkpt><trkpt lat="43.58125982235377" lon="10.621937308713763"><ele>71.0</ele><time>2026-04-18T08:57:48.018Z</time></trkpt><trkpt lat="43.58122566828068" lon="10.622117210067197"><ele>71.0</ele><time>2026-04-18T08:58:03.016Z</time></trkpt><trkpt lat="43.58116313150343" lon="10.62225633269551"><ele>71.0</ele><time>2026-04-18T08:58:15Z</time></trkpt><trkpt lat="43.58127016689924" lon="10.62218934426551"><ele>71.0</ele><time>2026-04-18T08:58:40Z</time></trkpt><trkpt lat="43.581425823424944" lon="10.622253836080091"><ele>71.0</ele><time>2026-04-18T09:14:08Z</time></trkpt><trkpt lat="43.58129907099918" lon="10.62202531792986"><ele>71.0</ele><time>2026-04-18T09:14:27.052Z</time></trkpt><trkpt lat="43.58121106674411" lon="10.621996476111958"><ele>71.0</ele><time>2026-04-18T09:15:44.011Z</time></trkpt><trkpt lat="43.58119179456224" lon="10.622086109678378"><ele>71.0</ele><time>2026-04-18T09:15:54.015Z</time></trkpt><trkpt lat="43.581215997775" lon="10.622180333976877"><ele>71.0</ele><time>2026-04-18T09:15:58.33Z</time></trkpt><trkpt lat="43.58113846885426" lon="10.622152448107421"><ele>71.0</ele><time>2026-04-18T09:17:38.014Z</time></trkpt><trkpt lat="43.581074113215394" lon="10.622123666218306"><ele>71.0</ele><time>2026-04-18T09:17:40.013Z</time></trkpt><trkpt lat="43.581007572293245" lon="10.622117181139846"><ele>71.0</ele><time>2026-04-18T09:17:42.906Z</time></trkpt><trkpt lat="43.58091486755337" lon="10.622094299186328"><ele>71.0</ele><time>2026-04-18T09:17:45.013Z</time></trkpt><trkpt lat="43.58098031643008" lon="10.622095498383981"><ele>71.0</ele><time>2026-04-18T09:18:09.01Z</time></trkpt><trkpt lat="43.58105813757326" lon="10.622088767441875"><ele>71.0</ele><time>2026-04-18T09:18:15.013Z</time></trkpt><trkpt lat="43.581235915814744" lon="10.621987202552953"><ele>71.0</ele><time>2026-04-18T09:18:26.01Z</time></trkpt><trkpt lat="43.58134089682348" lon="10.622456728663538"><ele>71.0</ele><time>2026-04-18T09:19:17.958Z</time></trkpt><trkpt lat="43.58126556520138" lon="10.622119576618797"><ele>71.0</ele><time>2026-04-18T09:20:10.009Z</time></trkpt><trkpt lat="43.58123931685407" lon="10.622002100296003"><ele>71.0</ele><time>2026-04-18T09:43:26.007Z</time></trkpt><trkpt lat="43.581274989357226" lon="10.622161753690452"><ele>71.0</ele><time>2026-04-18T09:48:31.753Z</time></trkpt><trkpt lat="43.58123634692374" lon="10.621988808164735"><ele>71.0</ele><time>2026-04-18T10:07:10.995Z</time></trkpt><trkpt lat="43.58128712607497" lon="10.622216070926466"><ele>71.0</ele><time>2026-04-18T10:10:44.488Z</time></trkpt><trkpt lat="43.58125513724137" lon="10.622072803769306"><ele>71.0</ele><time>2026-04-18T10:12:50.779Z</time></trkpt><trkpt lat="43.581275827264044" lon="10.622165010550326"><ele>71.0</ele><time>2026-04-18T10:13:55.993Z</time></trkpt><trkpt lat="43.5811466945338" lon="10.622175934821227"><ele>71.0</ele><time>2026-04-18T10:13:58.917Z</time></trkpt><trkpt lat="43.58102110273612" lon="10.622190685030281"><ele>71.0</ele><time>2026-04-18T10:14:00.589Z</time></trkpt><trkpt lat="43.58123591876774" lon="10.62198754603267"><ele>71.0</ele><time>2026-04-18T10:14:10.994Z</time></trkpt><trkpt lat="43.58125559478141" lon="10.622074934001963"><ele>71.0</ele><time>2026-04-18T10:17:13.997Z</time></trkpt><trkpt lat="43.581288395554026" lon="10.62222173578691"><ele>71.0</ele><time>2026-04-18T10:17:16.295Z</time></trkpt><trkpt lat="43.58126594197402" lon="10.622121257410871"><ele>71.0</ele><time>2026-04-18T10:18:56.992Z</time></trkpt><trkpt lat="43.58131767623901" lon="10.6221997368261"><ele>71.0</ele><time>2026-04-18T11:06:44Z</time></trkpt><trkpt lat="43.58126316363763" lon="10.62225870278227"><ele>71.0</ele><time>2026-04-18T11:06:57Z</time></trkpt><trkpt lat="43.58120555896703" lon="10.622328846562553"><ele>71.0</ele><time>2026-04-18T11:07:05Z</time></trkpt><trkpt lat="43.58126166406172" lon="10.622387295931306"><ele>71.0</ele><time>2026-04-18T11:07:21Z</time></trkpt><trkpt lat="43.58125752400097" lon="10.622291974050098"><ele>71.0</ele><time>2026-04-18T11:08:01Z</time></trkpt><trkpt lat="43.58126506440542" lon="10.62217814450477"><ele>71.0</ele><time>2026-04-18T11:08:07Z</time></trkpt><trkpt lat="43.58119969355155" lon="10.622132140435594"><ele>71.0</ele><time>2026-04-18T11:08:17Z</time></trkpt><trkpt lat="43.58127307598152" lon="10.622134299448222"><ele>71.0</ele><time>2026-04-18T11:08:56Z</time></trkpt><trkpt lat="43.58125069863974" lon="10.622269184971284"><ele>71.0</ele><time>2026-04-18T11:13:25.001Z</time></trkpt><trkpt lat="43.58123700952702" lon="10.621988796798083"><ele>71.0</ele><time>2026-04-18T11:14:19.065Z</time></trkpt><trkpt lat="43.581197248285584" lon="10.62206044661362"><ele>71.0</ele><time>2026-04-18T11:16:55.016Z</time></trkpt><trkpt lat="43.58121204504481" lon="10.6221567333047"><ele>71.0</ele><time>2026-04-18T11:16:59Z</time></trkpt><trkpt lat="43.58128932257663" lon="10.622082180347586"><ele>71.0</ele><time>2026-04-18T11:17:44.011Z</time></trkpt><trkpt lat="43.581316057299546" lon="10.622198020863111"><ele>71.0</ele><time>2026-04-18T11:17:53.012Z</time></trkpt><trkpt lat="43.58125961656237" lon="10.622063845381028"><ele>71.0</ele><time>2026-04-18T11:18:23.012Z</time></trkpt><trkpt lat="43.58127778609338" lon="10.622157541334474"><ele>71.0</ele><time>2026-04-18T11:21:09.014Z</time></trkpt><trkpt lat="43.58132206033409" lon="10.622232540301413"><ele>71.0</ele><time>2026-04-18T11:21:26.017Z</time></trkpt><trkpt lat="43.58130502831904" lon="10.622147157585204"><ele>71.0</ele><time>2026-04-18T11:23:08.013Z</time></trkpt><trkpt lat="43.581269800663556" lon="10.622315419199186"><ele>71.0</ele><time>2026-04-18T11:23:19.017Z</time></trkpt><trkpt lat="43.58127793750428" lon="10.622157888199517"><ele>71.0</ele><time>2026-04-18T11:40:01.906Z</time></trkpt><trkpt lat="43.58123587171833" lon="10.62198144495701"><ele>71.0</ele><time>2026-04-18T11:40:08.009Z</time></trkpt><trkpt lat="43.581278100702335" lon="10.622070501185128"><ele>71.0</ele><time>2026-04-18T11:50:17Z</time></trkpt><trkpt lat="43.58121669319394" lon="10.622097029658923"><ele>71.0</ele><time>2026-04-18T11:52:16.013Z</time></trkpt><trkpt lat="43.58115593745064" lon="10.622016208920053"><ele>71.0</ele><time>2026-04-18T11:53:21.014Z</time></trkpt><trkpt lat="43.581223415772534" lon="10.622061528371075"><ele>71.0</ele><time>2026-04-18T11:53:59.051Z</time></trkpt><trkpt lat="43.581291219765596" lon="10.622016109450255"><ele>71.0</ele><time>2026-04-18T12:04:30.014Z</time></trkpt><trkpt lat="43.58124275063907" lon="10.62214728899873"><ele>71.0</ele><time>2026-04-18T12:06:28.531Z</time></trkpt><trkpt lat="43.581236282179795" lon="10.621980235607023"><ele>71.0</ele><time>2026-04-18T12:08:04.011Z</time></trkpt><trkpt lat="43.58127798107152" lon="10.622158204301837"><ele>71.0</ele><time>2026-04-18T12:08:33.735Z</time></trkpt><trkpt lat="43.58123585540387" lon="10.621981499170365"><ele>71.0</ele><time>2026-04-18T12:15:44.005Z</time></trkpt><trkpt lat="43.581236376903746" lon="10.62219265078169"><ele>71.0</ele><time>2026-04-18T12:16:48.531Z</time></trkpt><trkpt lat="43.581169183832955" lon="10.622168959993678"><ele>71.0</ele><time>2026-04-18T12:29:14Z</time></trkpt><trkpt lat="43.58114497414671" lon="10.622255828126296"><ele>71.0</ele><time>2026-04-18T12:29:29Z</time></trkpt><trkpt lat="43.58113052395807" lon="10.622163841620303"><ele>71.0</ele><time>2026-04-18T12:29:39.065Z</time></trkpt><trkpt lat="43.581067135593926" lon="10.622167457567784"><ele>71.0</ele><time>2026-04-18T12:29:47.059Z</time></trkpt><trkpt lat="43.58121390384874" lon="10.622163649078221"><ele>71.0</ele><time>2026-04-18T12:30:25.079Z</time></trkpt><trkpt lat="43.58113670439597" lon="10.62210127131162"><ele>71.0</ele><time>2026-04-18T12:30:44.012Z</time></trkpt><trkpt lat="43.58126248096805" lon="10.62205471218122"><ele>71.0</ele><time>2026-04-18T12:31:31.014Z</time></trkpt><trkpt lat="43.58120620829913" lon="10.622106142252457"><ele>71.0</ele><time>2026-04-18T12:32:23.017Z</time></trkpt><trkpt lat="43.58126479382699" lon="10.622065588213548"><ele>71.0</ele><time>2026-04-18T12:32:45.013Z</time></trkpt><trkpt lat="43.58124438161599" lon="10.62219944113039"><ele>71.0</ele><time>2026-04-18T13:06:49.001Z</time></trkpt><trkpt lat="43.58112380849203" lon="10.622263494562684"><ele>71.0</ele><time>2026-04-18T13:07:10Z</time></trkpt><trkpt lat="43.58115761283542" lon="10.62217681298221"><ele>71.0</ele><time>2026-04-18T13:09:18Z</time></trkpt><trkpt lat="43.581228955474046" lon="10.622194217601157"><ele>71.0</ele><time>2026-04-18T13:09:31Z</time></trkpt><trkpt lat="43.58126043353491" lon="10.622117456814605"><ele>71.0</ele><time>2026-04-18T13:09:43Z</time></trkpt><trkpt lat="43.58127190927168" lon="10.622204223206406"><ele>71.0</ele><time>2026-04-18T14:13:21Z</time></trkpt><trkpt lat="43.58120925355129" lon="10.622255428357468"><ele>71.0</ele><time>2026-04-18T14:20:48Z</time></trkpt><trkpt lat="43.58114753076573" lon="10.622229533532614"><ele>71.0</ele><time>2026-04-18T14:21:02Z</time></trkpt><trkpt lat="43.581229218652595" lon="10.62220810389422"><ele>71.0</ele><time>2026-04-18T15:07:00Z</time></trkpt><trkpt lat="43.58124060386266" lon="10.622120418049416"><ele>71.0</ele><time>2026-04-18T15:07:01Z</time></trkpt><trkpt lat="43.58119089393499" lon="10.6221751165871"><ele>71.0</ele><time>2026-04-18T15:07:08Z</time></trkpt><trkpt lat="43.58126256699193" lon="10.62215858588089"><ele>71.0</ele><time>2026-04-18T15:12:20Z</time></trkpt><trkpt lat="43.58130237873475" lon="10.622089878875686"><ele>71.0</ele><time>2026-04-18T17:44:14Z</time></trkpt><trkpt lat="43.58126611253562" lon="10.622198455858657"><ele>71.0</ele><time>2026-04-18T17:44:54Z</time></trkpt><trkpt lat="43.581370058017015" lon="10.622150744234474"><ele>71.0</ele><time>2026-04-18T17:46:34Z</time></trkpt><trkpt lat="43.58130693920665" lon="10.622080986508871"><ele>71.0</ele><time>2026-04-18T17:46:50Z</time></trkpt><trkpt lat="43.58130957971625" lon="10.621979527647882"><ele>71.0</ele><time>2026-04-18T17:46:57Z</time></trkpt><trkpt lat="43.58128645867586" lon="10.622070289461938"><ele>71.0</ele><time>2026-04-18T17:48:16Z</time></trkpt><trkpt lat="43.58128421334066" lon="10.62219961882553"><ele>71.0</ele><time>2026-04-18T17:49:21Z</time></trkpt><trkpt lat="43.581294757665745" lon="10.622321930342999"><ele>71.0</ele><time>2026-04-18T17:50:30Z</time></trkpt><trkpt lat="43.581243056147194" lon="10.622388328937305"><ele>71.0</ele><time>2026-04-18T17:53:51Z</time></trkpt><trkpt lat="43.58123086930963" lon="10.622479738056692"><ele>71.0</ele><time>2026-04-18T17:54:00Z</time></trkpt><trkpt lat="43.5811967645788" lon="10.622568766084619"><ele>71.0</ele><time>2026-04-18T17:54:06Z</time></trkpt><trkpt lat="43.58118632144546" lon="10.62266086146702"><ele>71.0</ele><time>2026-04-18T17:54:09Z</time></trkpt><trkpt lat="43.58113640972946" lon="10.622735689819356"><ele>71.0</ele><time>2026-04-18T17:54:12Z</time></trkpt><trkpt lat="43.5810710366737" lon="10.622797789202654"><ele>71.0</ele><time>2026-04-18T17:54:15Z</time></trkpt><trkpt lat="43.58097142237006" lon="10.622841884716514"><ele>70.8</ele><time>2026-04-18T17:54:18Z</time></trkpt><trkpt lat="43.58089034234335" lon="10.622830497614231"><ele>70.6</ele><time>2026-04-18T17:54:20Z</time></trkpt><trkpt lat="43.58079020095927" lon="10.622787696661664"><ele>70.4</ele><time>2026-04-18T17:54:22Z</time></trkpt><trkpt lat="43.580714638005745" lon="10.622811304917121"><ele>70.2</ele><time>2026-04-18T17:54:23Z</time></trkpt><trkpt lat="43.58064637848843" lon="10.622801113192704"><ele>70.0</ele><time>2026-04-18T17:54:24Z</time></trkpt><trkpt lat="43.580532511987236" lon="10.622699218679248"><ele>70.0</ele><time>2026-04-18T17:54:26Z</time></trkpt><trkpt lat="43.580429381189255" lon="10.62274633095212"><ele>70.0</ele><time>2026-04-18T17:54:28Z</time></trkpt><trkpt lat="43.58033275779989" lon="10.622803944278683"><ele>70.0</ele><time>2026-04-18T17:54:30Z</time></trkpt><trkpt lat="43.580229463238865" lon="10.62286577168715"><ele>70.0</ele><time>2026-04-18T17:54:32Z</time></trkpt><trkpt lat="43.580163697844625" lon="10.622918320581665"><ele>70.0</ele><time>2026-04-18T17:54:33Z</time></trkpt><trkpt lat="43.580102074913285" lon="10.622973479924289"><ele>70.0</ele><time>2026-04-18T17:54:34Z</time></trkpt><trkpt lat="43.58004698553217" lon="10.623038976211463"><ele>70.0</ele><time>2026-04-18T17:54:35Z</time></trkpt><trkpt lat="43.58000438045325" lon="10.623113444543215"><ele>70.0</ele><time>2026-04-18T17:54:36Z</time></trkpt><trkpt lat="43.57992197893173" lon="10.623172338412042"><ele>70.0</ele><time>2026-04-18T17:54:38Z</time></trkpt><trkpt lat="43.5798541682109" lon="10.623224458357306"><ele>70.0</ele><time>2026-04-18T17:54:40Z</time></trkpt><trkpt lat="43.57975932475122" lon="10.623274266517505"><ele>70.0</ele><time>2026-04-18T17:54:42Z</time></trkpt><trkpt lat="43.57969755241644" lon="10.623299586159947"><ele>70.0</ele><time>2026-04-18T17:54:43Z</time></trkpt><trkpt lat="43.579626397734" lon="10.623325058561761"><ele>70.0</ele><time>2026-04-18T17:54:44Z</time></trkpt><trkpt lat="43.57956022804896" lon="10.623338082514602"><ele>70.0</ele><time>2026-04-18T17:54:45Z</time></trkpt><trkpt lat="43.579456122658584" lon="10.62335528230184"><ele>70.0</ele><time>2026-04-18T17:54:47Z</time></trkpt><trkpt lat="43.579363886308826" lon="10.623362700702787"><ele>70.0</ele><time>2026-04-18T17:54:49Z</time></trkpt><trkpt lat="43.5792682712935" lon="10.623339807579054"><ele>70.0</ele><time>2026-04-18T17:54:51Z</time></trkpt><trkpt lat="43.57918709510325" lon="10.623340420797357"><ele>69.8</ele><time>2026-04-18T17:54:54Z</time></trkpt><trkpt lat="43.579127629901166" lon="10.623464043400169"><ele>69.6</ele><time>2026-04-18T17:54:57Z</time></trkpt><trkpt lat="43.579100130829886" lon="10.623568137295543"><ele>69.4</ele><time>2026-04-18T17:54:58Z</time></trkpt><trkpt lat="43.57906619769937" lon="10.623701181191844"><ele>69.2</ele><time>2026-04-18T17:54:59Z</time></trkpt><trkpt lat="43.57901000511075" lon="10.623816960896804"><ele>69.0</ele><time>2026-04-18T17:55:00Z</time></trkpt><trkpt lat="43.57896937556359" lon="10.623943498530908"><ele>69.0</ele><time>2026-04-18T17:55:01Z</time></trkpt><trkpt lat="43.578930795536536" lon="10.624053136365958"><ele>69.0</ele><time>2026-04-18T17:55:02Z</time></trkpt><trkpt lat="43.57889503435231" lon="10.624169599165358"><ele>69.0</ele><time>2026-04-18T17:55:03Z</time></trkpt><trkpt lat="43.57886102345125" lon="10.624297574923345"><ele>69.0</ele><time>2026-04-18T17:55:04Z</time></trkpt><trkpt lat="43.578839785930825" lon="10.624425711204983"><ele>69.0</ele><time>2026-04-18T17:55:05Z</time></trkpt><trkpt lat="43.57882935700874" lon="10.624552825521848"><ele>67.60000000000001</ele><time>2026-04-18T17:55:06Z</time></trkpt><trkpt lat="43.57882587578205" lon="10.624689082515319"><ele>66.2</ele><time>2026-04-18T17:55:07Z</time></trkpt><trkpt lat="43.5788324098544" lon="10.624824839859048"><ele>64.80000000000001</ele><time>2026-04-18T17:55:08Z</time></trkpt><trkpt lat="43.57886317149768" lon="10.624966954836557"><ele>63.400000000000006</ele><time>2026-04-18T17:55:09Z</time></trkpt><trkpt lat="43.57890635587324" lon="10.625109556799583"><ele>62.0</ele><time>2026-04-18T17:55:10Z</time></trkpt><trkpt lat="43.578947909349736" lon="10.625245268628262"><ele>60.6</ele><time>2026-04-18T17:55:11Z</time></trkpt><trkpt lat="43.578982817201705" lon="10.625364466862884"><ele>59.2</ele><time>2026-04-18T17:55:12Z</time></trkpt><trkpt lat="43.579012955035246" lon="10.625495026928924"><ele>57.8</ele><time>2026-04-18T17:55:13Z</time></trkpt><trkpt lat="43.57902766718923" lon="10.625647927254594"><ele>56.4</ele><time>2026-04-18T17:55:14Z</time></trkpt><trkpt lat="43.579036253692585" lon="10.625800342130953"><ele>55.0</ele><time>2026-04-18T17:55:15Z</time></trkpt><trkpt lat="43.57903472449543" lon="10.625947875368702"><ele>55.0</ele><time>2026-04-18T17:55:16Z</time></trkpt><trkpt lat="43.5790316748926" lon="10.62609549587155"><ele>55.0</ele><time>2026-04-18T17:55:17Z</time></trkpt><trkpt lat="43.579023038154695" lon="10.626223461528"><ele>55.0</ele><time>2026-04-18T17:55:18Z</time></trkpt><trkpt lat="43.579013935246024" lon="10.626346941624568"><ele>55.0</ele><time>2026-04-18T17:55:19Z</time></trkpt><trkpt lat="43.57900856167205" lon="10.626460257912361"><ele>55.0</ele><time>2026-04-18T17:55:20Z</time></trkpt><trkpt lat="43.57901111376804" lon="10.626576658261115"><ele>53.8</ele><time>2026-04-18T17:55:21Z</time></trkpt><trkpt lat="43.57902894261363" lon="10.626721932866843"><ele>52.6</ele><time>2026-04-18T17:55:22Z</time></trkpt><trkpt lat="43.5790841088885" lon="10.626878505562777"><ele>51.400000000000006</ele><time>2026-04-18T17:55:23Z</time></trkpt><trkpt lat="43.57912368136439" lon="10.627013626986985"><ele>50.2</ele><time>2026-04-18T17:55:24Z</time></trkpt><trkpt lat="43.57915730463286" lon="10.627133978686686"><ele>49.0</ele><time>2026-04-18T17:55:25Z</time></trkpt><trkpt lat="43.579193345978005" lon="10.627262985556426"><ele>47.400000000000006</ele><time>2026-04-18T17:55:26Z</time></trkpt><trkpt lat="43.57923305264058" lon="10.62740511233396"><ele>45.8</ele><time>2026-04-18T17:55:27Z</time></trkpt><trkpt lat="43.579274685322176" lon="10.627553012060552"><ele>44.2</ele><time>2026-04-18T17:55:28Z</time></trkpt><trkpt lat="43.579313820352404" lon="10.627689665973342"><ele>42.599999999999994</ele><time>2026-04-18T17:55:29Z</time></trkpt><trkpt lat="43.579348784449124" lon="10.627812993012675"><ele>41.0</ele><time>2026-04-18T17:55:30Z</time></trkpt><trkpt lat="43.57938363230547" lon="10.627936004348202"><ele>40.0</ele><time>2026-04-18T17:55:31Z</time></trkpt><trkpt lat="43.57941579181428" lon="10.628045769577776"><ele>39.0</ele><time>2026-04-18T17:55:32Z</time></trkpt><trkpt lat="43.57944601996383" lon="10.628148942888888"><ele>38.0</ele><time>2026-04-18T17:55:33Z</time></trkpt><trkpt lat="43.579485750642974" lon="10.62828454968118"><ele>37.0</ele><time>2026-04-18T17:55:35Z</time></trkpt><trkpt lat="43.57951331273743" lon="10.628378623341247"><ele>36.0</ele><time>2026-04-18T17:55:37Z</time></trkpt><trkpt lat="43.579647667578755" lon="10.628378839733315"><ele>36.0</ele><time>2026-04-18T17:55:40Z</time></trkpt><trkpt lat="43.57971599984269" lon="10.628320676835514"><ele>36.0</ele><time>2026-04-18T17:55:41Z</time></trkpt><trkpt lat="43.57979676522528" lon="10.628267926295267"><ele>36.0</ele><time>2026-04-18T17:55:42Z</time></trkpt><trkpt lat="43.57988466487268" lon="10.628216090998475"><ele>36.0</ele><time>2026-04-18T17:55:43Z</time></trkpt><trkpt lat="43.57998006534359" lon="10.628163115763554"><ele>36.0</ele><time>2026-04-18T17:55:44Z</time></trkpt><trkpt lat="43.58007976386588" lon="10.628100114760946"><ele>36.0</ele><time>2026-04-18T17:55:45Z</time></trkpt><trkpt lat="43.58014988826948" lon="10.628066409783305"><ele>36.0</ele><time>2026-04-18T17:55:46Z</time></trkpt><trkpt lat="43.58024751336329" lon="10.628021884815753"><ele>36.0</ele><time>2026-04-18T17:55:48Z</time></trkpt><trkpt lat="43.58035155564053" lon="10.627981464603025"><ele>36.0</ele><time>2026-04-18T17:55:50Z</time></trkpt><trkpt lat="43.580432954229444" lon="10.627940853161297"><ele>36.0</ele><time>2026-04-18T17:55:51Z</time></trkpt><trkpt lat="43.58051871787813" lon="10.627910805116302"><ele>36.0</ele><time>2026-04-18T17:55:52Z</time></trkpt><trkpt lat="43.580604054306484" lon="10.627937713432273"><ele>36.0</ele><time>2026-04-18T17:55:53Z</time></trkpt><trkpt lat="43.58068978744825" lon="10.627972184402907"><ele>36.0</ele><time>2026-04-18T17:55:54Z</time></trkpt><trkpt lat="43.58078615270937" lon="10.62801604888303"><ele>36.0</ele><time>2026-04-18T17:55:55Z</time></trkpt><trkpt lat="43.580913009873754" lon="10.628081908965957"><ele>36.0</ele><time>2026-04-18T17:55:56Z</time></trkpt><trkpt lat="43.58103462387528" lon="10.628138566550787"><ele>36.0</ele><time>2026-04-18T17:55:57Z</time></trkpt><trkpt lat="43.581153867237646" lon="10.628188316630023"><ele>36.0</ele><time>2026-04-18T17:55:58Z</time></trkpt><trkpt lat="43.58128071741772" lon="10.628214607213641"><ele>36.0</ele><time>2026-04-18T17:55:59Z</time></trkpt><trkpt lat="43.58141345942039" lon="10.628258112698706"><ele>36.0</ele><time>2026-04-18T17:56:00Z</time></trkpt><trkpt lat="43.5815669738069" lon="10.628267303719253"><ele>36.25</ele><time>2026-04-18T17:56:01Z</time></trkpt><trkpt lat="43.581723818531934" lon="10.62822661866305"><ele>36.5</ele><time>2026-04-18T17:56:02Z</time></trkpt><trkpt lat="43.581863596329185" lon="10.628214462910488"><ele>36.75</ele><time>2026-04-18T17:56:03Z</time></trkpt><trkpt lat="43.58197956605908" lon="10.628238095299567"><ele>37.0</ele><time>2026-04-18T17:56:04Z</time></trkpt><trkpt lat="43.58208082785189" lon="10.628252251516752"><ele>36.6</ele><time>2026-04-18T17:56:05Z</time></trkpt><trkpt lat="43.582162619181396" lon="10.628267476944798"><ele>36.2</ele><time>2026-04-18T17:56:06Z</time></trkpt><trkpt lat="43.582257810042805" lon="10.628309574153645"><ele>35.8</ele><time>2026-04-18T17:56:08Z</time></trkpt><trkpt lat="43.58232271152608" lon="10.628394532418646"><ele>35.4</ele><time>2026-04-18T17:56:10Z</time></trkpt><trkpt lat="43.58243209115757" lon="10.62846741955615"><ele>35.0</ele><time>2026-04-18T17:56:12Z</time></trkpt><trkpt lat="43.58249258664974" lon="10.628493590881106"><ele>35.0</ele><time>2026-04-18T17:56:13Z</time></trkpt><trkpt lat="43.582574928724874" lon="10.628529649222807"><ele>35.0</ele><time>2026-04-18T17:56:15Z</time></trkpt><trkpt lat="43.5826411354648" lon="10.62854860406184"><ele>35.0</ele><time>2026-04-18T17:56:17Z</time></trkpt><trkpt lat="43.58269284656209" lon="10.628492659069298"><ele>35.0</ele><time>2026-04-18T17:56:20Z</time></trkpt><trkpt lat="43.58264918685062" lon="10.628428656621649"><ele>35.0</ele><time>2026-04-18T17:56:22Z</time></trkpt><trkpt lat="43.582557133906484" lon="10.628411175513905"><ele>35.0</ele><time>2026-04-18T17:56:24Z</time></trkpt><trkpt lat="43.58249569625195" lon="10.628304173160636"><ele>35.0</ele><time>2026-04-18T17:56:26Z</time></trkpt><trkpt lat="43.58242422069675" lon="10.62828709771442"><ele>35.0</ele><time>2026-04-18T17:56:28Z</time></trkpt><trkpt lat="43.58235489003282" lon="10.628395440973097"><ele>35.0</ele><time>2026-04-18T17:56:31Z</time></trkpt><trkpt lat="43.58241329542096" lon="10.62849091417652"><ele>35.0</ele><time>2026-04-18T17:56:34Z</time></trkpt><trkpt lat="43.582514435471225" lon="10.628506741252801"><ele>35.0</ele><time>2026-04-18T17:56:36Z</time></trkpt><trkpt lat="43.58260677457032" lon="10.628534928328643"><ele>35.0</ele><time>2026-04-18T17:56:38Z</time></trkpt><trkpt lat="43.582678170909176" lon="10.628544352470088"><ele>35.0</ele><time>2026-04-18T17:56:40Z</time></trkpt><trkpt lat="43.58270392718254" lon="10.628463926473954"><ele>35.0</ele><time>2026-04-18T17:56:43Z</time></trkpt><trkpt lat="43.582624667856166" lon="10.628407256159019"><ele>35.0</ele><time>2026-04-18T17:56:45Z</time></trkpt><trkpt lat="43.58256181776229" lon="10.628401071872712"><ele>35.0</ele><time>2026-04-18T17:56:46Z</time></trkpt><trkpt lat="43.58249848197772" lon="10.628389477424514"><ele>35.0</ele><time>2026-04-18T17:56:47Z</time></trkpt><trkpt lat="43.58241133517602" lon="10.628358279969376"><ele>35.0</ele><time>2026-04-18T17:56:49Z</time></trkpt><trkpt lat="43.582340455808804" lon="10.628342564148642"><ele>35.0</ele><time>2026-04-18T17:56:52Z</time></trkpt><trkpt lat="43.58233754238795" lon="10.628433273247452"><ele>35.0</ele><time>2026-04-18T17:56:55Z</time></trkpt><trkpt lat="43.582409695893396" lon="10.628466743810748"><ele>35.0</ele><time>2026-04-18T17:56:57Z</time></trkpt><trkpt lat="43.582479472703895" lon="10.628423608307616"><ele>35.0</ele><time>2026-04-18T17:56:59Z</time></trkpt><trkpt lat="43.58254924024321" lon="10.628401085076726"><ele>35.0</ele><time>2026-04-18T17:57:02Z</time></trkpt><trkpt lat="43.58254091723385" lon="10.628495171007632"><ele>35.0</ele><time>2026-04-18T17:57:06Z</time></trkpt><trkpt lat="43.58245784773169" lon="10.628459489591142"><ele>35.0</ele><time>2026-04-18T17:57:09Z</time></trkpt><trkpt lat="43.58241041875146" lon="10.628370078086743"><ele>35.0</ele><time>2026-04-18T17:57:11Z</time></trkpt><trkpt lat="43.582366749546075" lon="10.628273286889561"><ele>35.0</ele><time>2026-04-18T17:57:13Z</time></trkpt><trkpt lat="43.58232527025327" lon="10.628399257289685"><ele>35.0</ele><time>2026-04-18T17:57:15Z</time></trkpt><trkpt lat="43.582368856915835" lon="10.628465678089768"><ele>35.0</ele><time>2026-04-18T17:57:17Z</time></trkpt><trkpt lat="43.58243938971266" lon="10.628448415992882"><ele>35.0</ele><time>2026-04-18T17:57:19Z</time></trkpt><trkpt lat="43.58250868124535" lon="10.628396285091613"><ele>35.0</ele><time>2026-04-18T17:57:21Z</time></trkpt><trkpt lat="43.58257009092865" lon="10.628424521487705"><ele>35.0</ele><time>2026-04-18T17:57:24Z</time></trkpt><trkpt lat="43.582500104652716" lon="10.628503693680987"><ele>35.0</ele><time>2026-04-18T17:57:28Z</time></trkpt><trkpt lat="43.58244289921974" lon="10.628453751174874"><ele>35.0</ele><time>2026-04-18T17:57:30Z</time></trkpt><trkpt lat="43.58236290704836" lon="10.628460084552461"><ele>35.0</ele><time>2026-04-18T17:57:34Z</time></trkpt><trkpt lat="43.58230626167404" lon="10.628399364194644"><ele>35.0</ele><time>2026-04-18T17:57:38Z</time></trkpt><trkpt lat="43.58239507320087" lon="10.62838376335275"><ele>35.0</ele><time>2026-04-18T17:57:41Z</time></trkpt><trkpt lat="43.58243202726902" lon="10.628462847518808"><ele>35.0</ele><time>2026-04-18T17:57:43Z</time></trkpt><trkpt lat="43.58250810629934" lon="10.628511574553462"><ele>35.0</ele><time>2026-04-18T17:57:46Z</time></trkpt><trkpt lat="43.5825732994883" lon="10.628472978604224"><ele>35.0</ele><time>2026-04-18T17:57:49Z</time></trkpt><trkpt lat="43.582512541199684" lon="10.628385949881302"><ele>35.0</ele><time>2026-04-18T17:57:52Z</time></trkpt><trkpt lat="43.58241055362036" lon="10.628379242348304"><ele>35.0</ele><time>2026-04-18T17:57:54Z</time></trkpt><trkpt lat="43.582341322860565" lon="10.628399447598545"><ele>35.0</ele><time>2026-04-18T17:57:56Z</time></trkpt><trkpt lat="43.58225402913759" lon="10.628362927731695"><ele>35.0</ele><time>2026-04-18T17:57:59Z</time></trkpt><trkpt lat="43.58222734182555" lon="10.62827403010986"><ele>35.0</ele><time>2026-04-18T17:58:01Z</time></trkpt><trkpt lat="43.58215163817254" lon="10.628215753409396"><ele>35.0</ele><time>2026-04-18T17:58:03Z</time></trkpt><trkpt lat="43.58205892690401" lon="10.628220275273716"><ele>35.0</ele><time>2026-04-18T17:58:05Z</time></trkpt><trkpt lat="43.58197541755255" lon="10.628311804104696"><ele>35.0</ele><time>2026-04-18T17:58:07Z</time></trkpt><trkpt lat="43.581954825673776" lon="10.628462412190885"><ele>35.4</ele><time>2026-04-18T17:58:09Z</time></trkpt><trkpt lat="43.581954403248666" lon="10.628566740026072"><ele>35.8</ele><time>2026-04-18T17:58:10Z</time></trkpt><trkpt lat="43.58195511721206" lon="10.62867717956004"><ele>36.2</ele><time>2026-04-18T17:58:11Z</time></trkpt><trkpt lat="43.58194623818737" lon="10.628805060848572"><ele>36.6</ele><time>2026-04-18T17:58:12Z</time></trkpt><trkpt lat="43.58191110201263" lon="10.628962676209794"><ele>37.0</ele><time>2026-04-18T17:58:14Z</time></trkpt><trkpt lat="43.581907603970244" lon="10.629083379657509"><ele>36.333333333333336</ele><time>2026-04-18T17:58:16Z</time></trkpt><trkpt lat="43.581903876966685" lon="10.629206986054825"><ele>35.66666666666667</ele><time>2026-04-18T17:58:18Z</time></trkpt><trkpt lat="43.58189886368296" lon="10.629337478666708"><ele>35.0</ele><time>2026-04-18T17:58:20Z</time></trkpt><trkpt lat="43.581896116932896" lon="10.629438712079832"><ele>34.333333333333336</ele><time>2026-04-18T17:58:22Z</time></trkpt><trkpt lat="43.581894027773615" lon="10.62953328981103"><ele>33.666666666666664</ele><time>2026-04-18T17:58:28Z</time></trkpt><trkpt lat="43.58192874022563" lon="10.629607386683668"><ele>33.0</ele><time>2026-04-18T17:58:40Z</time></trkpt><trkpt lat="43.58203150171909" lon="10.629711999355024"><ele>32.75</ele><time>2026-04-18T17:58:42Z</time></trkpt><trkpt lat="43.58214222258507" lon="10.629748227153536"><ele>32.5</ele><time>2026-04-18T17:58:43Z</time></trkpt><trkpt lat="43.58227574899799" lon="10.629769532655628"><ele>32.25</ele><time>2026-04-18T17:58:44Z</time></trkpt><trkpt lat="43.58240227972774" lon="10.629794054883495"><ele>32.0</ele><time>2026-04-18T17:58:45Z</time></trkpt><trkpt lat="43.58252875296536" lon="10.629821268343365"><ele>32.0</ele><time>2026-04-18T17:58:46Z</time></trkpt><trkpt lat="43.58265156574906" lon="10.629850866759737"><ele>32.0</ele><time>2026-04-18T17:58:47Z</time></trkpt><trkpt lat="43.5827703539838" lon="10.629877901925358"><ele>32.0</ele><time>2026-04-18T17:58:48Z</time></trkpt><trkpt lat="43.582895369841886" lon="10.62990231662837"><ele>32.0</ele><time>2026-04-18T17:58:49Z</time></trkpt><trkpt lat="43.58303041701513" lon="10.629932324621368"><ele>31.666666666666664</ele><time>2026-04-18T17:58:50Z</time></trkpt><trkpt lat="43.583163693599765" lon="10.629962482554339"><ele>31.333333333333336</ele><time>2026-04-18T17:58:51Z</time></trkpt><trkpt lat="43.58331499330168" lon="10.629995063415967"><ele>31.0</ele><time>2026-04-18T17:58:52Z</time></trkpt><trkpt lat="43.58348501126881" lon="10.630029235078956"><ele>31.0</ele><time>2026-04-18T17:58:53Z</time></trkpt><trkpt lat="43.58365496932879" lon="10.63006573190554"><ele>31.0</ele><time>2026-04-18T17:58:54Z</time></trkpt><trkpt lat="43.583811140950736" lon="10.63009960671769"><ele>31.0</ele><time>2026-04-18T17:58:55Z</time></trkpt><trkpt lat="43.58397272286314" lon="10.630135755160847"><ele>31.0</ele><time>2026-04-18T17:58:56Z</time></trkpt><trkpt lat="43.58415100314018" lon="10.630174091035947"><ele>31.0</ele><time>2026-04-18T17:58:57Z</time></trkpt><trkpt lat="43.58433962714749" lon="10.630216456363518"><ele>31.0</ele><time>2026-04-18T17:58:58Z</time></trkpt><trkpt lat="43.58453720424456" lon="10.630259297524628"><ele>31.0</ele><time>2026-04-18T17:58:59Z</time></trkpt><trkpt lat="43.58474203435913" lon="10.630304147883487"><ele>31.0</ele><time>2026-04-18T17:59:00Z</time></trkpt><trkpt lat="43.58494218228704" lon="10.630346137813705"><ele>31.0</ele><time>2026-04-18T17:59:01Z</time></trkpt><trkpt lat="43.585153145533965" lon="10.630393713955927"><ele>30.666666666666668</ele><time>2026-04-18T17:59:02Z</time></trkpt><trkpt lat="43.58536079086396" lon="10.63044158664945"><ele>30.333333333333336</ele><time>2026-04-18T17:59:03Z</time></trkpt><trkpt lat="43.58556110501581" lon="10.630481772308423"><ele>30.0</ele><time>2026-04-18T17:59:04Z</time></trkpt><trkpt lat="43.58577721528976" lon="10.630526364510718"><ele>30.0</ele><time>2026-04-18T17:59:05Z</time></trkpt><trkpt lat="43.585997497939225" lon="10.630572193928165"><ele>30.0</ele><time>2026-04-18T17:59:06Z</time></trkpt><trkpt lat="43.58621162419607" lon="10.63062048049435"><ele>30.0</ele><time>2026-04-18T17:59:07Z</time></trkpt><trkpt lat="43.586415025265616" lon="10.63066473746435"><ele>30.0</ele><time>2026-04-18T17:59:08Z</time></trkpt><trkpt lat="43.58663026478743" lon="10.63070851070168"><ele>30.0</ele><time>2026-04-18T17:59:09Z</time></trkpt><trkpt lat="43.586844368784696" lon="10.6307569460682"><ele>30.0</ele><time>2026-04-18T17:59:10Z</time></trkpt><trkpt lat="43.587047849908565" lon="10.630808071201725"><ele>30.0</ele><time>2026-04-18T17:59:11Z</time></trkpt><trkpt lat="43.58725646590859" lon="10.630856870096721"><ele>30.0</ele><time>2026-04-18T17:59:12Z</time></trkpt><trkpt lat="43.5874747684206" lon="10.630891806432327"><ele>30.0</ele><time>2026-04-18T17:59:13Z</time></trkpt><trkpt lat="43.58767524204725" lon="10.630914792700342"><ele>30.333333333333336</ele><time>2026-04-18T17:59:14Z</time></trkpt><trkpt lat="43.58784416138923" lon="10.630931735300702"><ele>30.666666666666668</ele><time>2026-04-18T17:59:15Z</time></trkpt><trkpt lat="43.58801397206157" lon="10.630949164284939"><ele>31.0</ele><time>2026-04-18T17:59:16Z</time></trkpt><trkpt lat="43.58819578551772" lon="10.630964541400262"><ele>31.0</ele><time>2026-04-18T17:59:17Z</time></trkpt><trkpt lat="43.588381912462076" lon="10.63097673478255"><ele>31.0</ele><time>2026-04-18T17:59:18Z</time></trkpt><trkpt lat="43.5885502149103" lon="10.630992333318906"><ele>31.0</ele><time>2026-04-18T17:59:19Z</time></trkpt><trkpt lat="43.588693097906386" lon="10.631007307253874"><ele>30.5</ele><time>2026-04-18T17:59:20Z</time></trkpt><trkpt lat="43.58882543792151" lon="10.631022432211699"><ele>30.0</ele><time>2026-04-18T17:59:21Z</time></trkpt><trkpt lat="43.588943046778674" lon="10.631030732297468"><ele>29.5</ele><time>2026-04-18T17:59:22Z</time></trkpt><trkpt lat="43.58904815268325" lon="10.631040176201454"><ele>29.0</ele><time>2026-04-18T17:59:23Z</time></trkpt><trkpt lat="43.58914862651937" lon="10.631050596755546"><ele>29.0</ele><time>2026-04-18T17:59:24Z</time></trkpt><trkpt lat="43.589267269554924" lon="10.631060864787301"><ele>29.0</ele><time>2026-04-18T17:59:25Z</time></trkpt><trkpt lat="43.58940806925967" lon="10.631076334493246"><ele>29.0</ele><time>2026-04-18T17:59:26Z</time></trkpt><trkpt lat="43.58957614823884" lon="10.631090672760566"><ele>29.0</ele><time>2026-04-18T17:59:27Z</time></trkpt><trkpt lat="43.58975941061741" lon="10.631106316092435"><ele>29.0</ele><time>2026-04-18T17:59:28Z</time></trkpt><trkpt lat="43.58994536721509" lon="10.63112199259363"><ele>29.0</ele><time>2026-04-18T17:59:29Z</time></trkpt><trkpt lat="43.59012529950135" lon="10.631139713311889"><ele>29.0</ele><time>2026-04-18T17:59:30Z</time></trkpt><trkpt lat="43.590314354117815" lon="10.631160134412136"><ele>28.666666666666664</ele><time>2026-04-18T17:59:31Z</time></trkpt><trkpt lat="43.590522306418215" lon="10.631180569223888"><ele>28.333333333333336</ele><time>2026-04-18T17:59:32Z</time></trkpt><trkpt lat="43.59074718809546" lon="10.631203261084279"><ele>28.0</ele><time>2026-04-18T17:59:33Z</time></trkpt><trkpt lat="43.59097533347625" lon="10.631226053785849"><ele>28.333333333333336</ele><time>2026-04-18T17:59:34Z</time></trkpt><trkpt lat="43.59120230644705" lon="10.631248568043445"><ele>28.666666666666664</ele><time>2026-04-18T17:59:35Z</time></trkpt><trkpt lat="43.59140201737283" lon="10.631269506411156"><ele>29.0</ele><time>2026-04-18T17:59:36Z</time></trkpt><trkpt lat="43.591600873603625" lon="10.631288071295737"><ele>29.0</ele><time>2026-04-18T17:59:37Z</time></trkpt><trkpt lat="43.591818303025235" lon="10.631308539317697"><ele>29.0</ele><time>2026-04-18T17:59:38Z</time></trkpt><trkpt lat="43.59205035000512" lon="10.631335798512492"><ele>28.333333333333332</ele><time>2026-04-18T17:59:39Z</time></trkpt><trkpt lat="43.5922711018989" lon="10.631360632180007"><ele>27.666666666666664</ele><time>2026-04-18T17:59:40Z</time></trkpt><trkpt lat="43.59247463279072" lon="10.631379425515437"><ele>27.0</ele><time>2026-04-18T17:59:41Z</time></trkpt><trkpt lat="43.59266330158014" lon="10.631399303337833"><ele>26.666666666666664</ele><time>2026-04-18T17:59:42Z</time></trkpt><trkpt lat="43.59285208697074" lon="10.631418922436367"><ele>26.333333333333332</ele><time>2026-04-18T17:59:43Z</time></trkpt><trkpt lat="43.59303968143088" lon="10.631439860935938"><ele>26.0</ele><time>2026-04-18T17:59:44Z</time></trkpt><trkpt lat="43.59322766960726" lon="10.631459518593724"><ele>26.0</ele><time>2026-04-18T17:59:45Z</time></trkpt><trkpt lat="43.59341921624419" lon="10.63148103234715"><ele>26.0</ele><time>2026-04-18T17:59:46Z</time></trkpt><trkpt lat="43.59362468723628" lon="10.631504149210658"><ele>26.0</ele><time>2026-04-18T17:59:47Z</time></trkpt><trkpt lat="43.59384330495288" lon="10.631525234320964"><ele>25.666666666666664</ele><time>2026-04-18T17:59:48Z</time></trkpt><trkpt lat="43.59405080519963" lon="10.631544166661424"><ele>25.333333333333336</ele><time>2026-04-18T17:59:49Z</time></trkpt><trkpt lat="43.59424091691016" lon="10.631562791980475"><ele>25.0</ele><time>2026-04-18T17:59:50Z</time></trkpt><trkpt lat="43.59442943295194" lon="10.631585100569056"><ele>25.666666666666668</ele><time>2026-04-18T17:59:51Z</time></trkpt><trkpt lat="43.594626908708534" lon="10.631602795607977"><ele>26.333333333333336</ele><time>2026-04-18T17:59:52Z</time></trkpt><trkpt lat="43.594830370123816" lon="10.6316209572385"><ele>27.0</ele><time>2026-04-18T17:59:53Z</time></trkpt><trkpt lat="43.59502532559691" lon="10.63163896174516"><ele>27.0</ele><time>2026-04-18T17:59:54Z</time></trkpt><trkpt lat="43.59521846051398" lon="10.631658511470558"><ele>27.0</ele><time>2026-04-18T17:59:55Z</time></trkpt><trkpt lat="43.59540650543665" lon="10.63167860425255"><ele>27.0</ele><time>2026-04-18T17:59:56Z</time></trkpt><trkpt lat="43.59558834963022" lon="10.631698223927275"><ele>27.0</ele><time>2026-04-18T17:59:57Z</time></trkpt><trkpt lat="43.595775724914276" lon="10.631716822455473"><ele>27.0</ele><time>2026-04-18T17:59:58Z</time></trkpt><trkpt lat="43.59597389008271" lon="10.631739040036079"><ele>27.0</ele><time>2026-04-18T17:59:59Z</time></trkpt><trkpt lat="43.59615238083482" lon="10.631760695762795"><ele>27.0</ele><time>2026-04-18T18:00:00Z</time></trkpt><trkpt lat="43.59633231029726" lon="10.631785945155443"><ele>27.0</ele><time>2026-04-18T18:00:01Z</time></trkpt><trkpt lat="43.59651527482229" lon="10.631811519427872"><ele>27.0</ele><time>2026-04-18T18:00:02Z</time></trkpt><trkpt lat="43.59669168096385" lon="10.631834898205927"><ele>27.0</ele><time>2026-04-18T18:00:03Z</time></trkpt><trkpt lat="43.596862131090425" lon="10.631859384318657"><ele>27.0</ele><time>2026-04-18T18:00:04Z</time></trkpt><trkpt lat="43.59703903931388" lon="10.631880330396289"><ele>27.0</ele><time>2026-04-18T18:00:05Z</time></trkpt><trkpt lat="43.59720977526238" lon="10.631901662682163"><ele>27.0</ele><time>2026-04-18T18:00:06Z</time></trkpt><trkpt lat="43.597366380354494" lon="10.631924783226847"><ele>27.0</ele><time>2026-04-18T18:00:07Z</time></trkpt><trkpt lat="43.59752037477714" lon="10.631947560911563"><ele>27.0</ele><time>2026-04-18T18:00:08Z</time></trkpt><trkpt lat="43.59767181092068" lon="10.6319690359757"><ele>27.0</ele><time>2026-04-18T18:00:09Z</time></trkpt><trkpt lat="43.59783825158704" lon="10.631991264073669"><ele>27.0</ele><time>2026-04-18T18:00:10Z</time></trkpt><trkpt lat="43.59801570402329" lon="10.63201610685143"><ele>27.0</ele><time>2026-04-18T18:00:11Z</time></trkpt><trkpt lat="43.59819378799443" lon="10.63203474224525"><ele>27.0</ele><time>2026-04-18T18:00:12Z</time></trkpt><trkpt lat="43.598374956459836" lon="10.63205651581966"><ele>27.0</ele><time>2026-04-18T18:00:13Z</time></trkpt><trkpt lat="43.598562237298204" lon="10.632079599733602"><ele>27.0</ele><time>2026-04-18T18:00:14Z</time></trkpt><trkpt lat="43.598751955759404" lon="10.632105578716763"><ele>26.333333333333336</ele><time>2026-04-18T18:00:15Z</time></trkpt><trkpt lat="43.59892966955343" lon="10.63212760660743"><ele>25.666666666666668</ele><time>2026-04-18T18:00:16Z</time></trkpt><trkpt lat="43.59909885781445" lon="10.63215254467919"><ele>25.0</ele><time>2026-04-18T18:00:17Z</time></trkpt><trkpt lat="43.59926473171923" lon="10.632173570613572"><ele>25.0</ele><time>2026-04-18T18:00:18Z</time></trkpt><trkpt lat="43.59942984099878" lon="10.632195182591172"><ele>25.0</ele><time>2026-04-18T18:00:19Z</time></trkpt><trkpt lat="43.59960719133649" lon="10.632217661929008"><ele>25.0</ele><time>2026-04-18T18:00:20Z</time></trkpt><trkpt lat="43.59978638687226" lon="10.632238520529537"><ele>25.333333333333336</ele><time>2026-04-18T18:00:21Z</time></trkpt><trkpt lat="43.599952992799494" lon="10.632259440591001"><ele>25.666666666666664</ele><time>2026-04-18T18:00:22Z</time></trkpt><trkpt lat="43.60012002391087" lon="10.632283035522635"><ele>26.0</ele><time>2026-04-18T18:00:23Z</time></trkpt><trkpt lat="43.60029208155273" lon="10.63230582779062"><ele>26.0</ele><time>2026-04-18T18:00:24Z</time></trkpt><trkpt lat="43.600470177155024" lon="10.632323982888463"><ele>26.0</ele><time>2026-04-18T18:00:25Z</time></trkpt><trkpt lat="43.60064074785902" lon="10.632343409932373"><ele>26.0</ele><time>2026-04-18T18:00:26Z</time></trkpt><trkpt lat="43.60079459902482" lon="10.632364049104364"><ele>26.0</ele><time>2026-04-18T18:00:27Z</time></trkpt><trkpt lat="43.600951947301446" lon="10.63238968721641"><ele>26.0</ele><time>2026-04-18T18:00:28Z</time></trkpt><trkpt lat="43.60111158333021" lon="10.632454869184484"><ele>26.0</ele><time>2026-04-18T18:00:29Z</time></trkpt><trkpt lat="43.60127958779229" lon="10.632540662613536"><ele>25.666666666666664</ele><time>2026-04-18T18:00:30Z</time></trkpt><trkpt lat="43.60145239811306" lon="10.632644504324956"><ele>25.333333333333336</ele><time>2026-04-18T18:00:31Z</time></trkpt><trkpt lat="43.60160977079831" lon="10.63273165875921"><ele>25.0</ele><time>2026-04-18T18:00:32Z</time></trkpt><trkpt lat="43.60177063675225" lon="10.632799381109024"><ele>24.666666666666668</ele><time>2026-04-18T18:00:33Z</time></trkpt><trkpt lat="43.601935734273" lon="10.632877998909471"><ele>24.333333333333336</ele><time>2026-04-18T18:00:34Z</time></trkpt><trkpt lat="43.60210766751526" lon="10.632942489685787"><ele>24.0</ele><time>2026-04-18T18:00:35Z</time></trkpt><trkpt lat="43.60227404713457" lon="10.632996599224297"><ele>23.333333333333332</ele><time>2026-04-18T18:00:36Z</time></trkpt><trkpt lat="43.60244806844767" lon="10.633026677686093"><ele>22.666666666666664</ele><time>2026-04-18T18:00:37Z</time></trkpt><trkpt lat="43.60263490016205" lon="10.633032201753112"><ele>22.0</ele><time>2026-04-18T18:00:38Z</time></trkpt><trkpt lat="43.60280756610511" lon="10.633023922734473"><ele>23.0</ele><time>2026-04-18T18:00:39Z</time></trkpt><trkpt lat="43.60299238080381" lon="10.633000092893099"><ele>24.0</ele><time>2026-04-18T18:00:40Z</time></trkpt><trkpt lat="43.6031911609302" lon="10.632960689633128"><ele>25.0</ele><time>2026-04-18T18:00:41Z</time></trkpt><trkpt lat="43.603380326574786" lon="10.632917471694274"><ele>25.0</ele><time>2026-04-18T18:00:42Z</time></trkpt><trkpt lat="43.60355880788766" lon="10.632880061736401"><ele>25.0</ele><time>2026-04-18T18:00:43Z</time></trkpt><trkpt lat="43.603740117329814" lon="10.632846372366382"><ele>25.0</ele><time>2026-04-18T18:00:44Z</time></trkpt><trkpt lat="43.60393299406003" lon="10.63281523164022"><ele>25.0</ele><time>2026-04-18T18:00:45Z</time></trkpt><trkpt lat="43.60412203319295" lon="10.632792324508118"><ele>25.0</ele><time>2026-04-18T18:00:46Z</time></trkpt><trkpt lat="43.60430807050433" lon="10.632782393703872"><ele>25.0</ele><time>2026-04-18T18:00:47Z</time></trkpt><trkpt lat="43.60448981684058" lon="10.632769596641154"><ele>25.0</ele><time>2026-04-18T18:00:48Z</time></trkpt><trkpt lat="43.604657552187334" lon="10.63275424032645"><ele>25.0</ele><time>2026-04-18T18:00:49Z</time></trkpt><trkpt lat="43.604828038443564" lon="10.632737524307814"><ele>25.0</ele><time>2026-04-18T18:00:50Z</time></trkpt><trkpt lat="43.60500583446015" lon="10.63272095833806"><ele>25.0</ele><time>2026-04-18T18:00:51Z</time></trkpt><trkpt lat="43.60516969405125" lon="10.632708808111335"><ele>25.0</ele><time>2026-04-18T18:00:52Z</time></trkpt><trkpt lat="43.60532930482269" lon="10.632700687012171"><ele>25.0</ele><time>2026-04-18T18:00:53Z</time></trkpt><trkpt lat="43.60549032645482" lon="10.632692417750414"><ele>23.666666666666668</ele><time>2026-04-18T18:00:54Z</time></trkpt><trkpt lat="43.60564603284908" lon="10.632687958769917"><ele>22.333333333333336</ele><time>2026-04-18T18:00:55Z</time></trkpt><trkpt lat="43.605805259289916" lon="10.632687987040278"><ele>21.0</ele><time>2026-04-18T18:00:56Z</time></trkpt><trkpt lat="43.60596233942082" lon="10.63269108384661"><ele>21.0</ele><time>2026-04-18T18:00:57Z</time></trkpt><trkpt lat="43.6061145463863" lon="10.632688997203363"><ele>21.0</ele><time>2026-04-18T18:00:58Z</time></trkpt><trkpt lat="43.60627463114289" lon="10.63266799526577"><ele>21.0</ele><time>2026-04-18T18:00:59Z</time></trkpt><trkpt lat="43.60643040819123" lon="10.632636695450866"><ele>21.75</ele><time>2026-04-18T18:01:00Z</time></trkpt><trkpt lat="43.60656560176763" lon="10.63261563478925"><ele>22.5</ele><time>2026-04-18T18:01:01Z</time></trkpt><trkpt lat="43.60670035624316" lon="10.632597816820102"><ele>23.25</ele><time>2026-04-18T18:01:02Z</time></trkpt><trkpt lat="43.60683325573275" lon="10.63257680537376"><ele>24.0</ele><time>2026-04-18T18:01:03Z</time></trkpt><trkpt lat="43.60695755180382" lon="10.632553521934403"><ele>23.6</ele><time>2026-04-18T18:01:04Z</time></trkpt><trkpt lat="43.6070596730482" lon="10.632538366096055"><ele>23.2</ele><time>2026-04-18T18:01:05Z</time></trkpt><trkpt lat="43.607153533211026" lon="10.632517725604783"><ele>22.8</ele><time>2026-04-18T18:01:07Z</time></trkpt><trkpt lat="43.60724083036939" lon="10.632479693231703"><ele>22.400000000000002</ele><time>2026-04-18T18:01:10Z</time></trkpt><trkpt lat="43.607326170068895" lon="10.632470850745353"><ele>22.0</ele><time>2026-04-18T18:01:12Z</time></trkpt><trkpt lat="43.60724679306152" lon="10.6322475760614"><ele>22.0</ele><time>2026-04-18T18:01:13Z</time></trkpt><trkpt lat="43.607246100586906" lon="10.632147877875564"><ele>22.0</ele><time>2026-04-18T18:01:14Z</time></trkpt><trkpt lat="43.6072469259951" lon="10.632031658313585"><ele>22.0</ele><time>2026-04-18T18:01:15Z</time></trkpt><trkpt lat="43.607264087927994" lon="10.63190390612823"><ele>22.0</ele><time>2026-04-18T18:01:16Z</time></trkpt><trkpt lat="43.60729729433082" lon="10.631784335666895"><ele>22.0</ele><time>2026-04-18T18:01:17Z</time></trkpt><trkpt lat="43.607322446222376" lon="10.631637712566862"><ele>22.200000000000003</ele><time>2026-04-18T18:01:18Z</time></trkpt><trkpt lat="43.607354562379086" lon="10.63147917593974"><ele>22.4</ele><time>2026-04-18T18:01:19Z</time></trkpt><trkpt lat="43.60738518276678" lon="10.631345642653452"><ele>22.6</ele><time>2026-04-18T18:01:20Z</time></trkpt><trkpt lat="43.607399811876945" lon="10.63120858912505"><ele>22.799999999999997</ele><time>2026-04-18T18:01:21Z</time></trkpt><trkpt lat="43.60742120962428" lon="10.631083042554689"><ele>23.0</ele><time>2026-04-18T18:01:22Z</time></trkpt><trkpt lat="43.60743362584863" lon="10.630964824344133"><ele>23.2</ele><time>2026-04-18T18:01:23Z</time></trkpt><trkpt lat="43.60743157299957" lon="10.630839317512457"><ele>23.4</ele><time>2026-04-18T18:01:24Z</time></trkpt><trkpt lat="43.6074011099485" lon="10.630711738220553"><ele>23.599999999999998</ele><time>2026-04-18T18:01:25Z</time></trkpt><trkpt lat="43.60734560462165" lon="10.630595957856954"><ele>23.799999999999997</ele><time>2026-04-18T18:01:26Z</time></trkpt><trkpt lat="43.60726934024311" lon="10.630506757757676"><ele>24.0</ele><time>2026-04-18T18:01:27Z</time></trkpt><trkpt lat="43.607186155021964" lon="10.630427124104623"><ele>24.0</ele><time>2026-04-18T18:01:28Z</time></trkpt><trkpt lat="43.607088422153865" lon="10.630396753693235"><ele>24.0</ele><time>2026-04-18T18:01:29Z</time></trkpt><trkpt lat="43.60700081302804" lon="10.63039584296083"><ele>24.0</ele><time>2026-04-18T18:01:30Z</time></trkpt><trkpt lat="43.60691499078178" lon="10.630393229085632"><ele>24.0</ele><time>2026-04-18T18:01:31Z</time></trkpt><trkpt lat="43.60684405108043" lon="10.630404287431558"><ele>24.0</ele><time>2026-04-18T18:01:32Z</time></trkpt><trkpt lat="43.606750955005225" lon="10.630405373835472"><ele>24.0</ele><time>2026-04-18T18:01:34Z</time></trkpt><trkpt lat="43.60667413180631" lon="10.630443777753442"><ele>24.0</ele><time>2026-04-18T18:01:46Z</time></trkpt><trkpt lat="43.60661437917212" lon="10.630621027774984"><ele>24.0</ele><time>2026-04-18T18:01:48Z</time></trkpt><trkpt lat="43.606613068979186" lon="10.630776791126571"><ele>24.0</ele><time>2026-04-18T18:01:49Z</time></trkpt><trkpt lat="43.60662506224668" lon="10.63095880427131"><ele>24.0</ele><time>2026-04-18T18:01:50Z</time></trkpt><trkpt lat="43.606645220630426" lon="10.631141751040111"><ele>24.0</ele><time>2026-04-18T18:01:51Z</time></trkpt><trkpt lat="43.606673014285015" lon="10.631355496318827"><ele>24.0</ele><time>2026-04-18T18:01:52Z</time></trkpt><trkpt lat="43.6067039883175" lon="10.631591636829496"><ele>24.0</ele><time>2026-04-18T18:01:53Z</time></trkpt><trkpt lat="43.606735479444275" lon="10.63182565240446"><ele>24.0</ele><time>2026-04-18T18:01:54Z</time></trkpt><trkpt lat="43.606769143305414" lon="10.632032914191305"><ele>24.0</ele><time>2026-04-18T18:01:55Z</time></trkpt><trkpt lat="43.60680447264772" lon="10.632251256690386"><ele>24.0</ele><time>2026-04-18T18:01:56Z</time></trkpt><trkpt lat="43.606848814658534" lon="10.632499494216535"><ele>24.0</ele><time>2026-04-18T18:01:57Z</time></trkpt><trkpt lat="43.606904575482595" lon="10.632751543782526"><ele>24.0</ele><time>2026-04-18T18:01:58Z</time></trkpt><trkpt lat="43.60696136364716" lon="10.633007200997016"><ele>24.0</ele><time>2026-04-18T18:01:59Z</time></trkpt><trkpt lat="43.60702458005051" lon="10.633276337423446"><ele>23.666666666666668</ele><time>2026-04-18T18:02:00Z</time></trkpt><trkpt lat="43.60708841877664" lon="10.633543651015719"><ele>23.333333333333336</ele><time>2026-04-18T18:02:01Z</time></trkpt><trkpt lat="43.60714809163846" lon="10.633806399880067"><ele>23.0</ele><time>2026-04-18T18:02:02Z</time></trkpt><trkpt lat="43.60721178539077" lon="10.634073895090927"><ele>22.666666666666668</ele><time>2026-04-18T18:02:03Z</time></trkpt><trkpt lat="43.60725965416568" lon="10.63435790940078"><ele>22.333333333333332</ele><time>2026-04-18T18:02:04Z</time></trkpt><trkpt lat="43.60732743294747" lon="10.634652468975755"><ele>22.0</ele><time>2026-04-18T18:02:05Z</time></trkpt><trkpt lat="43.60739507465495" lon="10.634946730457925"><ele>22.0</ele><time>2026-04-18T18:02:06Z</time></trkpt><trkpt lat="43.60746653527217" lon="10.635256041218376"><ele>22.0</ele><time>2026-04-18T18:02:07Z</time></trkpt><trkpt lat="43.60754120669351" lon="10.635579249439365"><ele>22.0</ele><time>2026-04-18T18:02:08Z</time></trkpt><trkpt lat="43.60763280839412" lon="10.635906656549967"><ele>22.0</ele><time>2026-04-18T18:02:09Z</time></trkpt><trkpt lat="43.60770608263407" lon="10.636219911654909"><ele>22.0</ele><time>2026-04-18T18:02:10Z</time></trkpt><trkpt lat="43.607772530649946" lon="10.63651318041779"><ele>22.0</ele><time>2026-04-18T18:02:11Z</time></trkpt><trkpt lat="43.607841458133386" lon="10.63682112872246"><ele>23.0</ele><time>2026-04-18T18:02:12Z</time></trkpt><trkpt lat="43.60791405302992" lon="10.637140520835512"><ele>24.0</ele><time>2026-04-18T18:02:13Z</time></trkpt><trkpt lat="43.60798239711775" lon="10.637434776481669"><ele>24.0</ele><time>2026-04-18T18:02:14Z</time></trkpt><trkpt lat="43.608046198851596" lon="10.637711067423329"><ele>24.0</ele><time>2026-04-18T18:02:15Z</time></trkpt><trkpt lat="43.60810666747664" lon="10.637977251339239"><ele>24.0</ele><time>2026-04-18T18:02:16Z</time></trkpt><trkpt lat="43.6081641498149" lon="10.638231238221291"><ele>24.0</ele><time>2026-04-18T18:02:17Z</time></trkpt><trkpt lat="43.608217633517825" lon="10.638472211352571"><ele>24.0</ele><time>2026-04-18T18:02:18Z</time></trkpt><trkpt lat="43.608273631032326" lon="10.63871638050558"><ele>24.0</ele><time>2026-04-18T18:02:19Z</time></trkpt><trkpt lat="43.60833065848401" lon="10.638960842143758"><ele>24.0</ele><time>2026-04-18T18:02:20Z</time></trkpt><trkpt lat="43.6083843124024" lon="10.639199185763434"><ele>24.0</ele><time>2026-04-18T18:02:21Z</time></trkpt><trkpt lat="43.60843731443894" lon="10.63942771536395"><ele>24.0</ele><time>2026-04-18T18:02:22Z</time></trkpt><trkpt lat="43.6084902787838" lon="10.639651272313957"><ele>23.666666666666668</ele><time>2026-04-18T18:02:23Z</time></trkpt><trkpt lat="43.60854372161165" lon="10.639882227055649"><ele>23.333333333333336</ele><time>2026-04-18T18:02:24Z</time></trkpt><trkpt lat="43.60859655507807" lon="10.640118636114913"><ele>23.0</ele><time>2026-04-18T18:02:25Z</time></trkpt><trkpt lat="43.60865278399418" lon="10.640355139568708"><ele>22.666666666666668</ele><time>2026-04-18T18:02:26Z</time></trkpt><trkpt lat="43.608705569109546" lon="10.640577113722886"><ele>22.333333333333332</ele><time>2026-04-18T18:02:27Z</time></trkpt><trkpt lat="43.60875579743813" lon="10.640798887024847"><ele>22.0</ele><time>2026-04-18T18:02:28Z</time></trkpt><trkpt lat="43.60880626633821" lon="10.641019015942412"><ele>22.0</ele><time>2026-04-18T18:02:29Z</time></trkpt><trkpt lat="43.60885912818652" lon="10.641238813138639"><ele>22.0</ele><time>2026-04-18T18:02:30Z</time></trkpt><trkpt lat="43.60891334974622" lon="10.64145070695872"><ele>22.0</ele><time>2026-04-18T18:02:31Z</time></trkpt><trkpt lat="43.60896309106448" lon="10.64164955870844"><ele>22.0</ele><time>2026-04-18T18:02:32Z</time></trkpt><trkpt lat="43.609018812475355" lon="10.641840175432671"><ele>22.0</ele><time>2026-04-18T18:02:33Z</time></trkpt><trkpt lat="43.60909491638334" lon="10.642040648638345"><ele>22.0</ele><time>2026-04-18T18:02:34Z</time></trkpt><trkpt lat="43.60918415639198" lon="10.642233418784468"><ele>22.75</ele><time>2026-04-18T18:02:35Z</time></trkpt><trkpt lat="43.609277461569654" lon="10.642395864788307"><ele>23.5</ele><time>2026-04-18T18:02:36Z</time></trkpt><trkpt lat="43.6093802502914" lon="10.64254408792211"><ele>24.25</ele><time>2026-04-18T18:02:37Z</time></trkpt><trkpt lat="43.609488461902174" lon="10.64267643691915"><ele>25.0</ele><time>2026-04-18T18:02:38Z</time></trkpt><trkpt lat="43.60959105722813" lon="10.642787690097185"><ele>26.0</ele><time>2026-04-18T18:02:39Z</time></trkpt><trkpt lat="43.609682816591906" lon="10.642874494223364"><ele>27.0</ele><time>2026-04-18T18:02:40Z</time></trkpt><trkpt lat="43.609769831265154" lon="10.642953344271826"><ele>28.0</ele><time>2026-04-18T18:02:41Z</time></trkpt><trkpt lat="43.60983309185654" lon="10.643008078303502"><ele>29.0</ele><time>2026-04-18T18:02:42Z</time></trkpt><trkpt lat="43.60989892546057" lon="10.643089379204858"><ele>30.0</ele><time>2026-04-18T18:02:44Z</time></trkpt><trkpt lat="43.6099520013174" lon="10.643230921351774"><ele>30.0</ele><time>2026-04-18T18:02:46Z</time></trkpt><trkpt lat="43.60997811559076" lon="10.643348471523334"><ele>30.0</ele><time>2026-04-18T18:02:47Z</time></trkpt><trkpt lat="43.61000251924375" lon="10.643478983257953"><ele>30.0</ele><time>2026-04-18T18:02:48Z</time></trkpt><trkpt lat="43.61002867210292" lon="10.643594741933487"><ele>30.0</ele><time>2026-04-18T18:02:49Z</time></trkpt><trkpt lat="43.61007922830024" lon="10.643706545882976"><ele>30.0</ele><time>2026-04-18T18:02:51Z</time></trkpt><trkpt lat="43.60997520280999" lon="10.643805742635232"><ele>30.666666666666668</ele><time>2026-04-18T18:02:53Z</time></trkpt><trkpt lat="43.60992098140846" lon="10.6438871793575"><ele>31.333333333333336</ele><time>2026-04-18T18:02:54Z</time></trkpt><trkpt lat="43.60986966939052" lon="10.643946638643826"><ele>32.0</ele><time>2026-04-18T18:02:55Z</time></trkpt><trkpt lat="43.60981299454212" lon="10.643999101497629"><ele>32.66666666666667</ele><time>2026-04-18T18:02:57Z</time></trkpt><trkpt lat="43.6097454129915" lon="10.643994940136928"><ele>33.333333333333336</ele><time>2026-04-18T18:03:29Z</time></trkpt><trkpt lat="43.609655125280845" lon="10.643957232277817"><ele>34.0</ele><time>2026-04-18T18:03:32Z</time></trkpt><trkpt lat="43.6096007001404" lon="10.64388475014436"><ele>34.0</ele><time>2026-04-18T18:03:34Z</time></trkpt><trkpt lat="43.60955607641831" lon="10.643768473520577"><ele>34.0</ele><time>2026-04-18T18:03:36Z</time></trkpt><trkpt lat="43.60952638158564" lon="10.643669606280781"><ele>34.0</ele><time>2026-04-18T18:03:37Z</time></trkpt><trkpt lat="43.60949822385035" lon="10.643568445302828"><ele>34.0</ele><time>2026-04-18T18:03:38Z</time></trkpt><trkpt lat="43.60946122049292" lon="10.643424428359406"><ele>34.0</ele><time>2026-04-18T18:03:40Z</time></trkpt><trkpt lat="43.60942098122454" lon="10.643290399493782"><ele>32.8</ele><time>2026-04-18T18:03:42Z</time></trkpt><trkpt lat="43.60937732741172" lon="10.64317601681014"><ele>31.599999999999998</ele><time>2026-04-18T18:03:44Z</time></trkpt><trkpt lat="43.60931797629319" lon="10.643084572886188"><ele>30.4</ele><time>2026-04-18T18:03:46Z</time></trkpt><trkpt lat="43.60921290193915" lon="10.642997849980132"><ele>29.2</ele><time>2026-04-18T18:03:48Z</time></trkpt><trkpt lat="43.60913970146775" lon="10.64296550461988"><ele>28.0</ele><time>2026-04-18T18:03:49Z</time></trkpt><trkpt lat="43.60905541801009" lon="10.64294338676662"><ele>28.0</ele><time>2026-04-18T18:03:50Z</time></trkpt><trkpt lat="43.60896586255555" lon="10.642924824017852"><ele>27.999999999999996</ele><time>2026-04-18T18:03:51Z</time></trkpt><trkpt lat="43.60887248632881" lon="10.642906933082989"><ele>27.999999999999996</ele><time>2026-04-18T18:03:52Z</time></trkpt><trkpt lat="43.60877480150941" lon="10.642897134303904"><ele>28.0</ele><time>2026-04-18T18:03:53Z</time></trkpt><trkpt lat="43.60868363497646" lon="10.64288040068672"><ele>28.0</ele><time>2026-04-18T18:03:54Z</time></trkpt><trkpt lat="43.608591931009784" lon="10.642865913512066"><ele>27.4</ele><time>2026-04-18T18:03:55Z</time></trkpt><trkpt lat="43.60849934452594" lon="10.642859100630265"><ele>26.799999999999997</ele><time>2026-04-18T18:03:56Z</time></trkpt><trkpt lat="43.608410336686596" lon="10.642847258497351"><ele>26.2</ele><time>2026-04-18T18:03:57Z</time></trkpt><trkpt lat="43.60832326555492" lon="10.642830454104688"><ele>25.6</ele><time>2026-04-18T18:03:58Z</time></trkpt><trkpt lat="43.60823098557422" lon="10.642814174254816"><ele>25.0</ele><time>2026-04-18T18:03:59Z</time></trkpt><trkpt lat="43.60813727920264" lon="10.642808141122435"><ele>24.8</ele><time>2026-04-18T18:04:00Z</time></trkpt><trkpt lat="43.60804781761872" lon="10.642794800631554"><ele>24.6</ele><time>2026-04-18T18:04:01Z</time></trkpt><trkpt lat="43.60795238875169" lon="10.642778195781418"><ele>24.4</ele><time>2026-04-18T18:04:02Z</time></trkpt><trkpt lat="43.60785289612222" lon="10.642766615256901"><ele>24.2</ele><time>2026-04-18T18:04:03Z</time></trkpt><trkpt lat="43.60775034090092" lon="10.642748961362003"><ele>24.0</ele><time>2026-04-18T18:04:04Z</time></trkpt><trkpt lat="43.60764655211362" lon="10.642731061616367"><ele>24.799999999999997</ele><time>2026-04-18T18:04:05Z</time></trkpt><trkpt lat="43.60753544123174" lon="10.642714459940247"><ele>25.599999999999998</ele><time>2026-04-18T18:04:06Z</time></trkpt><trkpt lat="43.60742771220115" lon="10.642699333787343"><ele>26.4</ele><time>2026-04-18T18:04:07Z</time></trkpt><trkpt lat="43.60733460523105" lon="10.642684702617377"><ele>27.2</ele><time>2026-04-18T18:04:08Z</time></trkpt><trkpt lat="43.6072429186441" lon="10.642667208863978"><ele>28.0</ele><time>2026-04-18T18:04:09Z</time></trkpt><trkpt lat="43.607154824206866" lon="10.64265364017754"><ele>28.0</ele><time>2026-04-18T18:04:10Z</time></trkpt><trkpt lat="43.60706173168973" lon="10.642642022826013"><ele>27.999999999999996</ele><time>2026-04-18T18:04:11Z</time></trkpt><trkpt lat="43.60696971895649" lon="10.642628532616827"><ele>27.999999999999996</ele><time>2026-04-18T18:04:12Z</time></trkpt><trkpt lat="43.60687125052376" lon="10.642616371880814"><ele>28.0</ele><time>2026-04-18T18:04:13Z</time></trkpt><trkpt lat="43.606769117214874" lon="10.642597199763404"><ele>28.0</ele><time>2026-04-18T18:04:14Z</time></trkpt><trkpt lat="43.606660496349555" lon="10.642582033511463"><ele>28.599999999999998</ele><time>2026-04-18T18:04:15Z</time></trkpt><trkpt lat="43.60655117863412" lon="10.642563337349316"><ele>29.199999999999996</ele><time>2026-04-18T18:04:16Z</time></trkpt><trkpt lat="43.60644797766515" lon="10.642551275553776"><ele>29.8</ele><time>2026-04-18T18:04:17Z</time></trkpt><trkpt lat="43.606359699454885" lon="10.642541914507364"><ele>30.4</ele><time>2026-04-18T18:04:18Z</time></trkpt><trkpt lat="43.60627457861182" lon="10.642529144597047"><ele>31.0</ele><time>2026-04-18T18:04:19Z</time></trkpt><trkpt lat="43.60618688574465" lon="10.642514120198385"><ele>31.166666666666668</ele><time>2026-04-18T18:04:20Z</time></trkpt><trkpt lat="43.606096168814055" lon="10.642498066674387"><ele>31.333333333333336</ele><time>2026-04-18T18:04:21Z</time></trkpt><trkpt lat="43.606002628764884" lon="10.642478355502925"><ele>31.5</ele><time>2026-04-18T18:04:22Z</time></trkpt><trkpt lat="43.60591227570914" lon="10.642463828422347"><ele>31.666666666666664</ele><time>2026-04-18T18:04:23Z</time></trkpt><trkpt lat="43.60582400614196" lon="10.642450446930308"><ele>31.833333333333332</ele><time>2026-04-18T18:04:24Z</time></trkpt><trkpt lat="43.60574138890696" lon="10.642444130654267"><ele>32.0</ele><time>2026-04-18T18:04:25Z</time></trkpt><trkpt lat="43.605659874608804" lon="10.642435712654203"><ele>31.999999999999996</ele><time>2026-04-18T18:04:26Z</time></trkpt><trkpt lat="43.60557822839362" lon="10.64243201553162"><ele>32.0</ele><time>2026-04-18T18:04:27Z</time></trkpt><trkpt lat="43.60549903147385" lon="10.64242444094085"><ele>32.0</ele><time>2026-04-18T18:04:28Z</time></trkpt><trkpt lat="43.605420599945695" lon="10.642416845777412"><ele>32.0</ele><time>2026-04-18T18:04:29Z</time></trkpt><trkpt lat="43.605338128330764" lon="10.642413948528345"><ele>31.999999999999996</ele><time>2026-04-18T18:04:30Z</time></trkpt><trkpt lat="43.605257400451514" lon="10.64240752071971"><ele>32.0</ele><time>2026-04-18T18:04:31Z</time></trkpt><trkpt lat="43.6051793221403" lon="10.642404383587186"><ele>32.0</ele><time>2026-04-18T18:04:32Z</time></trkpt><trkpt lat="43.60509358441485" lon="10.642404828819082"><ele>32.0</ele><time>2026-04-18T18:04:33Z</time></trkpt><trkpt lat="43.60499625303212" lon="10.642405770500035"><ele>32.0</ele><time>2026-04-18T18:04:34Z</time></trkpt><trkpt lat="43.6048932818265" lon="10.642407272943085"><ele>32.0</ele><time>2026-04-18T18:04:35Z</time></trkpt><trkpt lat="43.60477283889948" lon="10.642405359221303"><ele>32.0</ele><time>2026-04-18T18:04:36Z</time></trkpt><trkpt lat="43.60464556110373" lon="10.642403844735037"><ele>32.0</ele><time>2026-04-18T18:04:37Z</time></trkpt><trkpt lat="43.60451824692153" lon="10.642381401526663"><ele>32.0</ele><time>2026-04-18T18:04:38Z</time></trkpt><trkpt lat="43.60439317070955" lon="10.642378669816226"><ele>32.0</ele><time>2026-04-18T18:04:39Z</time></trkpt><trkpt lat="43.60426285614621" lon="10.642375902721051"><ele>32.0</ele><time>2026-04-18T18:04:40Z</time></trkpt><trkpt lat="43.604126131219786" lon="10.642374449730188"><ele>32.25</ele><time>2026-04-18T18:04:41Z</time></trkpt><trkpt lat="43.60398292114075" lon="10.642373494911126"><ele>32.5</ele><time>2026-04-18T18:04:42Z</time></trkpt><trkpt lat="43.6038424556877" lon="10.642395063745541"><ele>32.75</ele><time>2026-04-18T18:04:43Z</time></trkpt><trkpt lat="43.60370351591517" lon="10.642396167193347"><ele>33.0</ele><time>2026-04-18T18:04:44Z</time></trkpt><trkpt lat="43.603567460702195" lon="10.642395357688713"><ele>32.0</ele><time>2026-04-18T18:04:45Z</time></trkpt><trkpt lat="43.603439714522956" lon="10.642391933183958"><ele>31.0</ele><time>2026-04-18T18:04:46Z</time></trkpt><trkpt lat="43.603314762217444" lon="10.64239385097622"><ele>30.0</ele><time>2026-04-18T18:04:47Z</time></trkpt><trkpt lat="43.60319035961308" lon="10.642394183759254"><ele>29.0</ele><time>2026-04-18T18:04:48Z</time></trkpt><trkpt lat="43.60307476593309" lon="10.64238790446656"><ele>29.0</ele><time>2026-04-18T18:04:49Z</time></trkpt><trkpt lat="43.60296220926727" lon="10.64238236650344"><ele>29.0</ele><time>2026-04-18T18:04:50Z</time></trkpt><trkpt lat="43.60284425471196" lon="10.642374157022088"><ele>29.0</ele><time>2026-04-18T18:04:51Z</time></trkpt><trkpt lat="43.60272134968095" lon="10.642371894253074"><ele>29.0</ele><time>2026-04-18T18:04:52Z</time></trkpt><trkpt lat="43.602599333006694" lon="10.642368706183325"><ele>28.75</ele><time>2026-04-18T18:04:53Z</time></trkpt><trkpt lat="43.60247653959189" lon="10.642364820356619"><ele>28.5</ele><time>2026-04-18T18:04:54Z</time></trkpt><trkpt lat="43.60235246249249" lon="10.642362410680777"><ele>28.25</ele><time>2026-04-18T18:04:55Z</time></trkpt><trkpt lat="43.6022263624077" lon="10.642361547487164"><ele>28.0</ele><time>2026-04-18T18:04:56Z</time></trkpt><trkpt lat="43.6021021621324" lon="10.642362805165853"><ele>28.0</ele><time>2026-04-18T18:04:57Z</time></trkpt><trkpt lat="43.601977727241575" lon="10.642356851405152"><ele>28.0</ele><time>2026-04-18T18:04:58Z</time></trkpt><trkpt lat="43.601852433466455" lon="10.642355900161592"><ele>28.0</ele><time>2026-04-18T18:04:59Z</time></trkpt><trkpt lat="43.60172562573034" lon="10.642348581508154"><ele>28.0</ele><time>2026-04-18T18:05:00Z</time></trkpt><trkpt lat="43.60159258866201" lon="10.642346218520936"><ele>28.0</ele><time>2026-04-18T18:05:01Z</time></trkpt><trkpt lat="43.60146033200478" lon="10.64234471827944"><ele>28.0</ele><time>2026-04-18T18:05:02Z</time></trkpt><trkpt lat="43.601331252765455" lon="10.642345822464954"><ele>28.0</ele><time>2026-04-18T18:05:03Z</time></trkpt><trkpt lat="43.60121362455906" lon="10.642345185003961"><ele>28.0</ele><time>2026-04-18T18:05:04Z</time></trkpt><trkpt lat="43.601101416256675" lon="10.642340848888416"><ele>28.0</ele><time>2026-04-18T18:05:05Z</time></trkpt><trkpt lat="43.600998465836994" lon="10.642338321134503"><ele>27.999999999999996</ele><time>2026-04-18T18:05:06Z</time></trkpt><trkpt lat="43.60089858602941" lon="10.642334568265461"><ele>27.999999999999996</ele><time>2026-04-18T18:05:07Z</time></trkpt><trkpt lat="43.60080131406982" lon="10.64233518987164"><ele>28.0</ele><time>2026-04-18T18:05:08Z</time></trkpt><trkpt lat="43.6007072724773" lon="10.642332248440411"><ele>28.0</ele><time>2026-04-18T18:05:09Z</time></trkpt><trkpt lat="43.60061132042117" lon="10.64232954970999"><ele>28.0</ele><time>2026-04-18T18:05:10Z</time></trkpt><trkpt lat="43.60051907464064" lon="10.642327711172946"><ele>27.999999999999996</ele><time>2026-04-18T18:05:11Z</time></trkpt><trkpt lat="43.60042732018614" lon="10.642326610466208"><ele>27.999999999999996</ele><time>2026-04-18T18:05:12Z</time></trkpt><trkpt lat="43.60033363700341" lon="10.642327380466279"><ele>28.0</ele><time>2026-04-18T18:05:13Z</time></trkpt><trkpt lat="43.60023550990488" lon="10.642324597722675"><ele>28.0</ele><time>2026-04-18T18:05:14Z</time></trkpt><trkpt lat="43.60013462031969" lon="10.642323502237774"><ele>27.4</ele><time>2026-04-18T18:05:15Z</time></trkpt><trkpt lat="43.60003287705335" lon="10.642324863805985"><ele>26.799999999999997</ele><time>2026-04-18T18:05:16Z</time></trkpt><trkpt lat="43.59992792315243" lon="10.642321127238976"><ele>26.2</ele><time>2026-04-18T18:05:17Z</time></trkpt><trkpt lat="43.599824032640846" lon="10.642318469545836"><ele>25.6</ele><time>2026-04-18T18:05:18Z</time></trkpt><trkpt lat="43.59972545712314" lon="10.642314896178455"><ele>25.0</ele><time>2026-04-18T18:05:19Z</time></trkpt><trkpt lat="43.59962451635186" lon="10.642310667899796"><ele>25.0</ele><time>2026-04-18T18:05:20Z</time></trkpt><trkpt lat="43.59952024130175" lon="10.642307081684724"><ele>25.0</ele><time>2026-04-18T18:05:21Z</time></trkpt><trkpt lat="43.599417938056035" lon="10.64230428863701"><ele>25.0</ele><time>2026-04-18T18:05:22Z</time></trkpt><trkpt lat="43.59932923302956" lon="10.642304230034693"><ele>25.0</ele><time>2026-04-18T18:05:23Z</time></trkpt><trkpt lat="43.59923754178414" lon="10.64230310477675"><ele>25.0</ele><time>2026-04-18T18:05:24Z</time></trkpt><trkpt lat="43.599133261555714" lon="10.642300269537381"><ele>25.000000000000004</ele><time>2026-04-18T18:05:25Z</time></trkpt><trkpt lat="43.599040168447466" lon="10.642298985003848"><ele>25.0</ele><time>2026-04-18T18:05:26Z</time></trkpt><trkpt lat="43.59896212936388" lon="10.642297280482099"><ele>25.0</ele><time>2026-04-18T18:05:27Z</time></trkpt><trkpt lat="43.598892233823996" lon="10.642294680555372"><ele>25.0</ele><time>2026-04-18T18:05:28Z</time></trkpt><trkpt lat="43.59877435491216" lon="10.642287520012838"><ele>25.000000000000004</ele><time>2026-04-18T18:05:30Z</time></trkpt><trkpt lat="43.59869034785971" lon="10.642288605960248"><ele>25.0</ele><time>2026-04-18T18:05:32Z</time></trkpt><trkpt lat="43.59861038004388" lon="10.64228524105764"><ele>25.166666666666668</ele><time>2026-04-18T18:05:34Z</time></trkpt><trkpt lat="43.59857133543926" lon="10.642432724517208"><ele>25.333333333333336</ele><time>2026-04-18T18:05:35Z</time></trkpt><trkpt lat="43.59850281381723" lon="10.642564764520044"><ele>25.5</ele><time>2026-04-18T18:05:37Z</time></trkpt><trkpt lat="43.59846691343173" lon="10.642639363308422"><ele>25.666666666666664</ele><time>2026-04-18T18:05:38Z</time></trkpt><trkpt lat="43.59842880627059" lon="10.642721500365559"><ele>25.833333333333332</ele><time>2026-04-18T18:05:39Z</time></trkpt><trkpt lat="43.598388022398716" lon="10.642817279785344"><ele>26.0</ele><time>2026-04-18T18:05:40Z</time></trkpt><trkpt lat="43.59834545088323" lon="10.642913857442872"><ele>26.142857142857142</ele><time>2026-04-18T18:05:41Z</time></trkpt><trkpt lat="43.598306898739374" lon="10.643005763171885"><ele>26.28571428571429</ele><time>2026-04-18T18:05:42Z</time></trkpt><trkpt lat="43.59827036314387" lon="10.64309237823158"><ele>26.42857142857143</ele><time>2026-04-18T18:05:43Z</time></trkpt><trkpt lat="43.59822948449508" lon="10.643172393877606"><ele>26.57142857142857</ele><time>2026-04-18T18:05:44Z</time></trkpt><trkpt lat="43.598195590569475" lon="10.643255722821262"><ele>26.714285714285715</ele><time>2026-04-18T18:05:45Z</time></trkpt><trkpt lat="43.598167837555295" lon="10.643338187808364"><ele>26.857142857142858</ele><time>2026-04-18T18:05:46Z</time></trkpt><trkpt lat="43.59814138982522" lon="10.643419329129042"><ele>27.0</ele><time>2026-04-18T18:05:47Z</time></trkpt><trkpt lat="43.59811585707025" lon="10.643505789956903"><ele>27.0</ele><time>2026-04-18T18:05:48Z</time></trkpt><trkpt lat="43.59808924325247" lon="10.643596586051023"><ele>27.0</ele><time>2026-04-18T18:05:49Z</time></trkpt><trkpt lat="43.59805792975512" lon="10.643689268038754"><ele>27.0</ele><time>2026-04-18T18:05:50Z</time></trkpt><trkpt lat="43.598025142496894" lon="10.643775880311605"><ele>27.0</ele><time>2026-04-18T18:05:51Z</time></trkpt><trkpt lat="43.59799591404055" lon="10.643856785702601"><ele>27.0</ele><time>2026-04-18T18:05:52Z</time></trkpt><trkpt lat="43.59796381244378" lon="10.643933154920905"><ele>27.0</ele><time>2026-04-18T18:05:53Z</time></trkpt><trkpt lat="43.59793033457694" lon="10.644010180440159"><ele>27.0</ele><time>2026-04-18T18:05:54Z</time></trkpt><trkpt lat="43.597900478562984" lon="10.644091036272165"><ele>27.5</ele><time>2026-04-18T18:05:55Z</time></trkpt><trkpt lat="43.59784689971198" lon="10.644237219805778"><ele>28.0</ele><time>2026-04-18T18:05:57Z</time></trkpt><trkpt lat="43.597793621170474" lon="10.64435655253945"><ele>28.5</ele><time>2026-04-18T18:05:59Z</time></trkpt><trkpt lat="43.59775593859352" lon="10.644451247875617"><ele>29.0</ele><time>2026-04-18T18:06:01Z</time></trkpt><trkpt lat="43.59772548311996" lon="10.644543217582404"><ele>29.5</ele><time>2026-04-18T18:06:04Z</time></trkpt><trkpt lat="43.59778347195917" lon="10.644607711924616"><ele>30.0</ele><time>2026-04-18T18:06:07Z</time></trkpt><trkpt lat="43.59782642408751" lon="10.64472974386909"><ele>30.666666666666668</ele><time>2026-04-18T18:06:09Z</time></trkpt><trkpt lat="43.597915786901304" lon="10.644878954705154"><ele>31.333333333333336</ele><time>2026-04-18T18:06:11Z</time></trkpt><trkpt lat="43.59795927086946" lon="10.644945598899863"><ele>32.0</ele><time>2026-04-18T18:06:12Z</time></trkpt><trkpt lat="43.598004681240944" lon="10.64501519550974"><ele>32.66666666666667</ele><time>2026-04-18T18:06:13Z</time></trkpt><trkpt lat="43.59805570308598" lon="10.645093392284886"><ele>33.333333333333336</ele><time>2026-04-18T18:06:14Z</time></trkpt><trkpt lat="43.59810449919381" lon="10.645167494306886"><ele>34.0</ele><time>2026-04-18T18:06:15Z</time></trkpt><trkpt lat="43.59815494119268" lon="10.645244019856467"><ele>34.16666666666667</ele><time>2026-04-18T18:06:16Z</time></trkpt><trkpt lat="43.59821584843572" lon="10.645305125780059"><ele>34.333333333333336</ele><time>2026-04-18T18:06:17Z</time></trkpt><trkpt lat="43.598253228864806" lon="10.645393132304028"><ele>34.5</ele><time>2026-04-18T18:06:18Z</time></trkpt><trkpt lat="43.59830195510594" lon="10.645467055024088"><ele>34.666666666666664</ele><time>2026-04-18T18:06:19Z</time></trkpt><trkpt lat="43.598348260797586" lon="10.645537305587613"><ele>34.83333333333333</ele><time>2026-04-18T18:06:20Z</time></trkpt><trkpt lat="43.598433326787735" lon="10.645663061301894"><ele>35.0</ele><time>2026-04-18T18:06:22Z</time></trkpt><trkpt lat="43.59850524319719" lon="10.6457632519911"><ele>35.0</ele><time>2026-04-18T18:06:24Z</time></trkpt><trkpt lat="43.598578121838344" lon="10.645861099945357"><ele>35.0</ele><time>2026-04-18T18:06:26Z</time></trkpt><trkpt lat="43.59865385209238" lon="10.64597301751993"><ele>35.0</ele><time>2026-04-18T18:06:28Z</time></trkpt><trkpt lat="43.59872569626833" lon="10.64609219156533"><ele>35.0</ele><time>2026-04-18T18:06:30Z</time></trkpt><trkpt lat="43.59878444200356" lon="10.646216918119443"><ele>35.0</ele><time>2026-04-18T18:06:32Z</time></trkpt><trkpt lat="43.598786247027085" lon="10.646387042770991"><ele>36.6</ele><time>2026-04-18T18:06:34Z</time></trkpt><trkpt lat="43.598755827487366" lon="10.646566742638523"><ele>38.2</ele><time>2026-04-18T18:06:36Z</time></trkpt><trkpt lat="43.59872178768752" lon="10.646677347349069"><ele>39.8</ele><time>2026-04-18T18:06:37Z</time></trkpt><trkpt lat="43.598693912978824" lon="10.646786152756645"><ele>41.4</ele><time>2026-04-18T18:06:38Z</time></trkpt><trkpt lat="43.59866988330786" lon="10.646899309980862"><ele>43.0</ele><time>2026-04-18T18:06:39Z</time></trkpt><trkpt lat="43.5986519271653" lon="10.646994977879025"><ele>43.0</ele><time>2026-04-18T18:06:40Z</time></trkpt><trkpt lat="43.598601536545644" lon="10.647156849800679"><ele>43.0</ele><time>2026-04-18T18:06:42Z</time></trkpt><trkpt lat="43.59857849953112" lon="10.647242871141994"><ele>43.0</ele><time>2026-04-18T18:06:43Z</time></trkpt><trkpt lat="43.59855184632478" lon="10.647331402314075"><ele>43.0</ele><time>2026-04-18T18:06:44Z</time></trkpt><trkpt lat="43.59851911353584" lon="10.6474206164066"><ele>43.0</ele><time>2026-04-18T18:06:45Z</time></trkpt><trkpt lat="43.59850022215086" lon="10.647513970293776"><ele>43.0</ele><time>2026-04-18T18:06:46Z</time></trkpt><trkpt lat="43.59847442239395" lon="10.647597407886522"><ele>43.0</ele><time>2026-04-18T18:06:47Z</time></trkpt><trkpt lat="43.59844004058589" lon="10.647674245056763"><ele>43.0</ele><time>2026-04-18T18:06:48Z</time></trkpt><trkpt lat="43.59844517911203" lon="10.647849549996687"><ele>43.0</ele><time>2026-04-18T18:06:50Z</time></trkpt><trkpt lat="43.59847087754108" lon="10.6479432402913"><ele>43.0</ele><time>2026-04-18T18:06:51Z</time></trkpt><trkpt lat="43.59850670062751" lon="10.648047761629345"><ele>43.0</ele><time>2026-04-18T18:06:52Z</time></trkpt><trkpt lat="43.59854032685259" lon="10.648136055372607"><ele>43.0</ele><time>2026-04-18T18:06:53Z</time></trkpt><trkpt lat="43.59857220305343" lon="10.648218165714393"><ele>43.5</ele><time>2026-04-18T18:06:54Z</time></trkpt><trkpt lat="43.59860882198018" lon="10.648305419022643"><ele>44.0</ele><time>2026-04-18T18:06:55Z</time></trkpt><trkpt lat="43.59864799376824" lon="10.64839857688378"><ele>44.5</ele><time>2026-04-18T18:06:56Z</time></trkpt><trkpt lat="43.59868868856255" lon="10.648492667209544"><ele>45.0</ele><time>2026-04-18T18:06:57Z</time></trkpt><trkpt lat="43.598725051875505" lon="10.648573485368171"><ele>45.5</ele><time>2026-04-18T18:06:58Z</time></trkpt><trkpt lat="43.59879114176163" lon="10.648720371400092"><ele>46.0</ele><time>2026-04-18T18:07:00Z</time></trkpt><trkpt lat="43.59882593877573" lon="10.648797708571225"><ele>48.714285714285715</ele><time>2026-04-18T18:07:01Z</time></trkpt><trkpt lat="43.59886025384851" lon="10.648874177036829"><ele>51.42857142857143</ele><time>2026-04-18T18:07:02Z</time></trkpt><trkpt lat="43.59889770047542" lon="10.648960718460662"><ele>54.142857142857146</ele><time>2026-04-18T18:07:03Z</time></trkpt><trkpt lat="43.59892524269784" lon="10.649043403021398"><ele>56.85714285714286</ele><time>2026-04-18T18:07:04Z</time></trkpt><trkpt lat="43.5989434953667" lon="10.649127190328649"><ele>59.57142857142857</ele><time>2026-04-18T18:07:05Z</time></trkpt><trkpt lat="43.5989475504358" lon="10.649222043160652"><ele>62.28571428571429</ele><time>2026-04-18T18:07:06Z</time></trkpt><trkpt lat="43.59893901226976" lon="10.649324830334065"><ele>65.0</ele><time>2026-04-18T18:07:07Z</time></trkpt><trkpt lat="43.598928541808526" lon="10.649432601955109"><ele>65.6</ele><time>2026-04-18T18:07:08Z</time></trkpt><trkpt lat="43.59891716366164" lon="10.649529577334642"><ele>66.2</ele><time>2026-04-18T18:07:09Z</time></trkpt><trkpt lat="43.59889106165624" lon="10.64965987013117"><ele>66.8</ele><time>2026-04-18T18:07:11Z</time></trkpt><trkpt lat="43.59884027276621" lon="10.649788816899317"><ele>67.4</ele><time>2026-04-18T18:07:13Z</time></trkpt><trkpt lat="43.59876241181409" lon="10.649889765216386"><ele>68.0</ele><time>2026-04-18T18:07:15Z</time></trkpt><trkpt lat="43.59868700803435" lon="10.64996426472902"><ele>67.99999999999999</ele><time>2026-04-18T18:07:17Z</time></trkpt><trkpt lat="43.598661249114166" lon="10.65004784894225"><ele>68.0</ele><time>2026-04-18T18:07:20Z</time></trkpt><trkpt lat="43.59872016567617" lon="10.650087116109674"><ele>68.0</ele><time>2026-04-18T18:07:22Z</time></trkpt><trkpt lat="43.59880508967301" lon="10.650082246727967"><ele>68.0</ele><time>2026-04-18T18:07:24Z</time></trkpt><trkpt lat="43.598872079221515" lon="10.65007388874845"><ele>68.0</ele><time>2026-04-18T18:07:26Z</time></trkpt><trkpt lat="43.598933874040846" lon="10.650051126508428"><ele>67.99999999999999</ele><time>2026-04-18T18:07:28Z</time></trkpt><trkpt lat="43.59887977663613" lon="10.64999676816124"><ele>68.0</ele><time>2026-04-18T18:08:21Z</time></trkpt><trkpt lat="43.598804056595164" lon="10.650049101854666"><ele>68.0</ele><time>2026-04-18T18:08:23Z</time></trkpt><trkpt lat="43.598724163338424" lon="10.650082294249827"><ele>68.0</ele><time>2026-04-18T18:08:25Z</time></trkpt><trkpt lat="43.59861559443039" lon="10.650116970689927"><ele>68.0</ele><time>2026-04-18T18:08:27Z</time></trkpt><trkpt lat="43.59851865651673" lon="10.650109644295723"><ele>68.0</ele><time>2026-04-18T18:08:29Z</time></trkpt><trkpt lat="43.598436749613256" lon="10.65014244687991"><ele>68.0</ele><time>2026-04-18T18:08:31Z</time></trkpt><trkpt lat="43.59834239174887" lon="10.650185939489011"><ele>67.33333333333334</ele><time>2026-04-18T18:08:33Z</time></trkpt><trkpt lat="43.59825029757904" lon="10.650215544168596"><ele>66.66666666666667</ele><time>2026-04-18T18:08:35Z</time></trkpt><trkpt lat="43.59816764013735" lon="10.650248357450874"><ele>66.0</ele><time>2026-04-18T18:08:37Z</time></trkpt><trkpt lat="43.598080885066196" lon="10.650280256593526"><ele>65.33333333333333</ele><time>2026-04-18T18:08:39Z</time></trkpt><trkpt lat="43.597996505030494" lon="10.650312473313"><ele>64.66666666666666</ele><time>2026-04-18T18:08:41Z</time></trkpt><trkpt lat="43.59792325959905" lon="10.650353643281786"><ele>64.0</ele><time>2026-04-18T18:08:43Z</time></trkpt><trkpt lat="43.59785834414439" lon="10.650373738077691"><ele>64.0</ele><time>2026-04-18T18:08:45Z</time></trkpt><trkpt lat="43.59781983711682" lon="10.650442511915173"><ele>63.99999999999999</ele><time>2026-04-18T18:08:47Z</time></trkpt><trkpt lat="43.597893486196824" lon="10.650452136133314"><ele>64.0</ele><time>2026-04-18T18:08:56Z</time></trkpt><trkpt lat="43.59794159448617" lon="10.650386318971554"><ele>64.0</ele><time>2026-04-18T18:08:58Z</time></trkpt><trkpt lat="43.597997855953146" lon="10.65034409138116"><ele>63.99999999999999</ele><time>2026-04-18T18:09:00Z</time></trkpt><trkpt lat="43.59808132368123" lon="10.650327103982447"><ele>64.0</ele><time>2026-04-18T18:09:02Z</time></trkpt><trkpt lat="43.59815312295093" lon="10.650292258521949"><ele>64.0</ele><time>2026-04-18T18:09:04Z</time></trkpt><trkpt lat="43.59822438788732" lon="10.65025766982126"><ele>63.99999999999999</ele><time>2026-04-18T18:09:06Z</time></trkpt><trkpt lat="43.59829444847148" lon="10.650237067577164"><ele>64.0</ele><time>2026-04-18T18:09:08Z</time></trkpt><trkpt lat="43.59836412535514" lon="10.650216264936384"><ele>64.0</ele><time>2026-04-18T18:09:10Z</time></trkpt><trkpt lat="43.59843150517979" lon="10.650187333212472"><ele>64.0</ele><time>2026-04-18T18:09:12Z</time></trkpt><trkpt lat="43.59849919049974" lon="10.650171901005242"><ele>63.99999999999999</ele><time>2026-04-18T18:09:14.001Z</time></trkpt><trkpt lat="43.59857940140671" lon="10.650112619495934"><ele>64.0</ele><time>2026-04-18T18:09:17.001Z</time></trkpt><trkpt lat="43.59865294925082" lon="10.650048358596429"><ele>64.66666666666666</ele><time>2026-04-18T18:09:20.001Z</time></trkpt><trkpt lat="43.59873047662333" lon="10.649958115064429"><ele>65.33333333333333</ele><time>2026-04-18T18:09:23.001Z</time></trkpt><trkpt lat="43.59880968439579" lon="10.649893331277557"><ele>66.0</ele><time>2026-04-18T18:09:26.001Z</time></trkpt><trkpt lat="43.59886599048864" lon="10.649832448679796"><ele>66.66666666666667</ele><time>2026-04-18T18:09:28.001Z</time></trkpt><trkpt lat="43.59890767599885" lon="10.649741923585859"><ele>67.33333333333334</ele><time>2026-04-18T18:09:30.001Z</time></trkpt><trkpt lat="43.59893682804118" lon="10.64961764408367"><ele>68.0</ele><time>2026-04-18T18:09:32.001Z</time></trkpt><trkpt lat="43.59896245624592" lon="10.649471817733678"><ele>67.5</ele><time>2026-04-18T18:09:34.001Z</time></trkpt><trkpt lat="43.598975530896645" lon="10.649327835736116"><ele>67.0</ele><time>2026-04-18T18:09:36.001Z</time></trkpt><trkpt lat="43.59898226652997" lon="10.64920436082781"><ele>66.5</ele><time>2026-04-18T18:09:38.001Z</time></trkpt><trkpt lat="43.598964526364526" lon="10.649063463284401"><ele>66.0</ele><time>2026-04-18T18:09:40.001Z</time></trkpt><trkpt lat="43.598940830949275" lon="10.648973042326528"><ele>65.5</ele><time>2026-04-18T18:09:41.001Z</time></trkpt><trkpt lat="43.598908301097" lon="10.648878297864517"><ele>65.0</ele><time>2026-04-18T18:09:42.001Z</time></trkpt><trkpt lat="43.59887962165403" lon="10.648796960942104"><ele>65.0</ele><time>2026-04-18T18:09:43.001Z</time></trkpt><trkpt lat="43.598851663282765" lon="10.648717963462806"><ele>65.0</ele><time>2026-04-18T18:09:44.001Z</time></trkpt><trkpt lat="43.598816744725404" lon="10.648640091271234"><ele>65.0</ele><time>2026-04-18T18:09:45.001Z</time></trkpt><trkpt lat="43.59875130457761" lon="10.64851517146329"><ele>65.0</ele><time>2026-04-18T18:09:47.001Z</time></trkpt><trkpt lat="43.59870136216403" lon="10.648387442228719"><ele>65.0</ele><time>2026-04-18T18:09:49.001Z</time></trkpt><trkpt lat="43.59863593377989" lon="10.648251347545514"><ele>61.833333333333336</ele><time>2026-04-18T18:09:51.001Z</time></trkpt><trkpt lat="43.598585083883094" lon="10.648133338269515"><ele>58.66666666666667</ele><time>2026-04-18T18:09:53.001Z</time></trkpt><trkpt lat="43.598546882312064" lon="10.64803822514606"><ele>55.5</ele><time>2026-04-18T18:09:55.001Z</time></trkpt><trkpt lat="43.598522013141014" lon="10.647953604453704"><ele>52.333333333333336</ele><time>2026-04-18T18:09:57.001Z</time></trkpt><trkpt lat="43.59849959185595" lon="10.647848528195683"><ele>49.16666666666667</ele><time>2026-04-18T18:09:59.001Z</time></trkpt><trkpt lat="43.59849139853225" lon="10.647720689452973"><ele>46.0</ele><time>2026-04-18T18:10:01.001Z</time></trkpt><trkpt lat="43.598511629724385" lon="10.647578513453743"><ele>45.4</ele><time>2026-04-18T18:10:03.001Z</time></trkpt><trkpt lat="43.59854961848281" lon="10.647422223680199"><ele>44.8</ele><time>2026-04-18T18:10:05.001Z</time></trkpt><trkpt lat="43.59859635116081" lon="10.647271629479958"><ele>44.199999999999996</ele><time>2026-04-18T18:10:07.001Z</time></trkpt><trkpt lat="43.59863174483436" lon="10.647143642002998"><ele>43.599999999999994</ele><time>2026-04-18T18:10:09.001Z</time></trkpt><trkpt lat="43.5986602629259" lon="10.647012269732617"><ele>43.0</ele><time>2026-04-18T18:10:11.001Z</time></trkpt><trkpt lat="43.59869448209306" lon="10.646894470248222"><ele>44.2</ele><time>2026-04-18T18:10:13.001Z</time></trkpt><trkpt lat="43.59873076672853" lon="10.646757664107305"><ele>45.4</ele><time>2026-04-18T18:10:15.001Z</time></trkpt><trkpt lat="43.59876872514576" lon="10.646624839944819"><ele>46.6</ele><time>2026-04-18T18:10:17.001Z</time></trkpt><trkpt lat="43.59880885555391" lon="10.646493950234435"><ele>47.800000000000004</ele><time>2026-04-18T18:10:19.001Z</time></trkpt><trkpt lat="43.59882822157539" lon="10.64635896918861"><ele>49.0</ele><time>2026-04-18T18:10:21.001Z</time></trkpt><trkpt lat="43.598832123725714" lon="10.646223936781091"><ele>47.6</ele><time>2026-04-18T18:10:23.001Z</time></trkpt><trkpt lat="43.59878926111674" lon="10.646089413000952"><ele>46.2</ele><time>2026-04-18T18:10:25.001Z</time></trkpt><trkpt lat="43.59869779624974" lon="10.645962891968065"><ele>44.800000000000004</ele><time>2026-04-18T18:10:27.001Z</time></trkpt><trkpt lat="43.598643697103455" lon="10.64589449072394"><ele>43.400000000000006</ele><time>2026-04-18T18:10:28.001Z</time></trkpt><trkpt lat="43.5985901408171" lon="10.645809680389723"><ele>42.0</ele><time>2026-04-18T18:10:29.001Z</time></trkpt><trkpt lat="43.59853185254197" lon="10.645724163983349"><ele>40.833333333333336</ele><time>2026-04-18T18:10:30.001Z</time></trkpt><trkpt lat="43.59847656482671" lon="10.645642982067164"><ele>39.666666666666664</ele><time>2026-04-18T18:10:31.001Z</time></trkpt><trkpt lat="43.59841829292865" lon="10.645564308709083"><ele>38.5</ele><time>2026-04-18T18:10:32.001Z</time></trkpt><trkpt lat="43.59835574789231" lon="10.645467889553256"><ele>37.33333333333333</ele><time>2026-04-18T18:10:33.001Z</time></trkpt><trkpt lat="43.598287271992405" lon="10.645367229532914"><ele>36.166666666666664</ele><time>2026-04-18T18:10:34.001Z</time></trkpt><trkpt lat="43.59822154652253" lon="10.645276146237766"><ele>35.0</ele><time>2026-04-18T18:10:35.001Z</time></trkpt><trkpt lat="43.59816719417661" lon="10.645194386454552"><ele>34.83333333333333</ele><time>2026-04-18T18:10:36.001Z</time></trkpt><trkpt lat="43.59811454140607" lon="10.645115322056526"><ele>34.666666666666664</ele><time>2026-04-18T18:10:37.001Z</time></trkpt><trkpt lat="43.5980532212341" lon="10.645029750481147"><ele>34.5</ele><time>2026-04-18T18:10:38.001Z</time></trkpt><trkpt lat="43.59799743210115" lon="10.644945451711974"><ele>34.333333333333336</ele><time>2026-04-18T18:10:39.001Z</time></trkpt><trkpt lat="43.597951331749975" lon="10.644876745800412"><ele>34.16666666666667</ele><time>2026-04-18T18:10:40.001Z</time></trkpt><trkpt lat="43.59790760732137" lon="10.644800154263532"><ele>34.0</ele><time>2026-04-18T18:10:41.001Z</time></trkpt><trkpt lat="43.59783032910787" lon="10.644667999018253"><ele>33.66666666666667</ele><time>2026-04-18T18:10:43.001Z</time></trkpt><trkpt lat="43.597797184048034" lon="10.644539075618002"><ele>33.333333333333336</ele><time>2026-04-18T18:10:45.001Z</time></trkpt><trkpt lat="43.59780755994093" lon="10.644384251491852"><ele>33.0</ele><time>2026-04-18T18:10:47.001Z</time></trkpt><trkpt lat="43.59782876882293" lon="10.644301798689831"><ele>32.666666666666664</ele><time>2026-04-18T18:10:48.001Z</time></trkpt><trkpt lat="43.59786051219355" lon="10.644220320734593"><ele>32.33333333333333</ele><time>2026-04-18T18:10:49.001Z</time></trkpt><trkpt lat="43.59790466694513" lon="10.644128439285346"><ele>32.0</ele><time>2026-04-18T18:10:50.001Z</time></trkpt><trkpt lat="43.59794759761899" lon="10.644028794877084"><ele>31.666666666666664</ele><time>2026-04-18T18:10:51.001Z</time></trkpt><trkpt lat="43.597984394753894" lon="10.643940770135075"><ele>31.333333333333332</ele><time>2026-04-18T18:10:52.001Z</time></trkpt><trkpt lat="43.598019867160325" lon="10.643850045496782"><ele>31.0</ele><time>2026-04-18T18:10:53.001Z</time></trkpt><trkpt lat="43.59805746657651" lon="10.643747241968548"><ele>30.666666666666664</ele><time>2026-04-18T18:10:54.001Z</time></trkpt><trkpt lat="43.598091869933576" lon="10.643644540181095"><ele>30.333333333333332</ele><time>2026-04-18T18:10:55.001Z</time></trkpt><trkpt lat="43.59812107593028" lon="10.643553193577178"><ele>30.0</ele><time>2026-04-18T18:10:56.001Z</time></trkpt><trkpt lat="43.59814823435757" lon="10.643453042365792"><ele>29.4</ele><time>2026-04-18T18:10:57.001Z</time></trkpt><trkpt lat="43.598183480881936" lon="10.643345615598818"><ele>28.8</ele><time>2026-04-18T18:10:58.001Z</time></trkpt><trkpt lat="43.598231271344666" lon="10.64322416472693"><ele>28.200000000000003</ele><time>2026-04-18T18:10:59.001Z</time></trkpt><trkpt lat="43.598285196312744" lon="10.643102647027588"><ele>27.6</ele><time>2026-04-18T18:11:00.001Z</time></trkpt><trkpt lat="43.59833421311251" lon="10.642990650241671"><ele>27.0</ele><time>2026-04-18T18:11:01.001Z</time></trkpt><trkpt lat="43.59837582731061" lon="10.642895211038653"><ele>27.0</ele><time>2026-04-18T18:11:02.001Z</time></trkpt><trkpt lat="43.59841870137531" lon="10.642801264572253"><ele>27.0</ele><time>2026-04-18T18:11:03.001Z</time></trkpt><trkpt lat="43.59846260633545" lon="10.642696711156002"><ele>27.0</ele><time>2026-04-18T18:11:04.001Z</time></trkpt><trkpt lat="43.59850128691594" lon="10.642600518306434"><ele>27.0</ele><time>2026-04-18T18:11:05Z</time></trkpt><trkpt lat="43.59855207373239" lon="10.64252942568262"><ele>27.0</ele><time>2026-04-18T18:11:06Z</time></trkpt><trkpt lat="43.598588381545866" lon="10.642455699287408"><ele>27.0</ele><time>2026-04-18T18:11:07Z</time></trkpt><trkpt lat="43.598665524817534" lon="10.642343385197293"><ele>26.6</ele><time>2026-04-18T18:11:09Z</time></trkpt><trkpt lat="43.59879379199941" lon="10.642335730591336"><ele>26.200000000000003</ele><time>2026-04-18T18:11:11Z</time></trkpt><trkpt lat="43.5988766804251" lon="10.642336769998874"><ele>25.8</ele><time>2026-04-18T18:11:12Z</time></trkpt><trkpt lat="43.59897209933031" lon="10.642337966530452"><ele>25.4</ele><time>2026-04-18T18:11:13Z</time></trkpt><trkpt lat="43.59907867380584" lon="10.64233930295166"><ele>25.0</ele><time>2026-04-18T18:11:14Z</time></trkpt><trkpt lat="43.59919301368885" lon="10.642340736743645"><ele>25.0</ele><time>2026-04-18T18:11:15Z</time></trkpt><trkpt lat="43.599310486513815" lon="10.642342209828977"><ele>25.0</ele><time>2026-04-18T18:11:16Z</time></trkpt><trkpt lat="43.599425557594344" lon="10.642344126668286"><ele>25.0</ele><time>2026-04-18T18:11:17Z</time></trkpt><trkpt lat="43.599541440915566" lon="10.642346182337372"><ele>25.0</ele><time>2026-04-18T18:11:18Z</time></trkpt><trkpt lat="43.59965175238747" lon="10.642348139168588"><ele>25.0</ele><time>2026-04-18T18:11:19Z</time></trkpt><trkpt lat="43.59976856211439" lon="10.642350211270783"><ele>25.0</ele><time>2026-04-18T18:11:20Z</time></trkpt><trkpt lat="43.59988770208259" lon="10.642352324709602"><ele>25.0</ele><time>2026-04-18T18:11:21Z</time></trkpt><trkpt lat="43.59999823298442" lon="10.642354285432177"><ele>25.0</ele><time>2026-04-18T18:11:22Z</time></trkpt><trkpt lat="43.60010275913828" lon="10.642356139634604"><ele>25.0</ele><time>2026-04-18T18:11:23Z</time></trkpt><trkpt lat="43.600206707095275" lon="10.642357983580817"><ele>25.0</ele><time>2026-04-18T18:11:24Z</time></trkpt><trkpt lat="43.600310275092944" lon="10.642359820787586"><ele>25.0</ele><time>2026-04-18T18:11:25Z</time></trkpt><trkpt lat="43.60041870874461" lon="10.642361744306905"><ele>25.0</ele><time>2026-04-18T18:11:26Z</time></trkpt><trkpt lat="43.600529201288275" lon="10.642363704347071"><ele>25.0</ele><time>2026-04-18T18:11:27Z</time></trkpt><trkpt lat="43.600640063516096" lon="10.642365670947042"><ele>25.75</ele><time>2026-04-18T18:11:28Z</time></trkpt><trkpt lat="43.60075621406931" lon="10.642346235807768"><ele>26.5</ele><time>2026-04-18T18:11:29Z</time></trkpt><trkpt lat="43.60087424573838" lon="10.642355732138487"><ele>27.25</ele><time>2026-04-18T18:11:30Z</time></trkpt><trkpt lat="43.600987842855496" lon="10.642358443249039"><ele>28.0</ele><time>2026-04-18T18:11:31Z</time></trkpt><trkpt lat="43.60109326201773" lon="10.64235316763245"><ele>28.0</ele><time>2026-04-18T18:11:32Z</time></trkpt><trkpt lat="43.60119814216269" lon="10.642359263641557"><ele>27.999999999999996</ele><time>2026-04-18T18:11:33Z</time></trkpt><trkpt lat="43.601296713015074" lon="10.642365638082921"><ele>27.999999999999996</ele><time>2026-04-18T18:11:34Z</time></trkpt><trkpt lat="43.60140491281208" lon="10.64236577380954"><ele>28.0</ele><time>2026-04-18T18:11:35Z</time></trkpt><trkpt lat="43.60151416903581" lon="10.642370877488792"><ele>28.0</ele><time>2026-04-18T18:11:36Z</time></trkpt><trkpt lat="43.60162705640494" lon="10.642373263305208"><ele>28.0</ele><time>2026-04-18T18:11:37Z</time></trkpt><trkpt lat="43.60174682989757" lon="10.642371106080518"><ele>28.0</ele><time>2026-04-18T18:11:38Z</time></trkpt><trkpt lat="43.6018678270432" lon="10.642375779156358"><ele>28.0</ele><time>2026-04-18T18:11:39Z</time></trkpt><trkpt lat="43.60198514170635" lon="10.642373248633577"><ele>28.0</ele><time>2026-04-18T18:11:40Z</time></trkpt><trkpt lat="43.60209593500098" lon="10.642368407063728"><ele>28.0</ele><time>2026-04-18T18:11:41Z</time></trkpt><trkpt lat="43.60220195880882" lon="10.642373930815442"><ele>28.0</ele><time>2026-04-18T18:11:42Z</time></trkpt><trkpt lat="43.60231180045508" lon="10.642379915755646"><ele>28.0</ele><time>2026-04-18T18:11:43Z</time></trkpt><trkpt lat="43.602427620151694" lon="10.642377533213537"><ele>28.0</ele><time>2026-04-18T18:11:44Z</time></trkpt><trkpt lat="43.60254657850982" lon="10.642380178005533"><ele>28.0</ele><time>2026-04-18T18:11:45Z</time></trkpt><trkpt lat="43.60267016997219" lon="10.64240422463009"><ele>28.0</ele><time>2026-04-18T18:11:46Z</time></trkpt><trkpt lat="43.602785168328595" lon="10.642407459518786"><ele>28.0</ele><time>2026-04-18T18:11:47Z</time></trkpt><trkpt lat="43.60289223033348" lon="10.642410183822513"><ele>28.0</ele><time>2026-04-18T18:11:48Z</time></trkpt><trkpt lat="43.60300021274452" lon="10.642412931546422"><ele>28.25</ele><time>2026-04-18T18:11:49Z</time></trkpt><trkpt lat="43.60311506225886" lon="10.642415854012606"><ele>28.5</ele><time>2026-04-18T18:11:50Z</time></trkpt><trkpt lat="43.603227646984315" lon="10.642418718851031"><ele>28.75</ele><time>2026-04-18T18:11:51Z</time></trkpt><trkpt lat="43.60334579363693" lon="10.642421727053982"><ele>29.0</ele><time>2026-04-18T18:11:52Z</time></trkpt><trkpt lat="43.60346666847934" lon="10.642405419046666"><ele>29.0</ele><time>2026-04-18T18:11:53Z</time></trkpt><trkpt lat="43.60358617336985" lon="10.642409652587652"><ele>29.0</ele><time>2026-04-18T18:11:54Z</time></trkpt><trkpt lat="43.603707004985566" lon="10.642417585776597"><ele>29.0</ele><time>2026-04-18T18:11:55Z</time></trkpt><trkpt lat="43.60381833732565" lon="10.642421785311933"><ele>29.0</ele><time>2026-04-18T18:11:56Z</time></trkpt><trkpt lat="43.60392791864151" lon="10.642422032507271"><ele>29.799999999999997</ele><time>2026-04-18T18:11:57Z</time></trkpt><trkpt lat="43.60404132727798" lon="10.642421613430082"><ele>30.599999999999998</ele><time>2026-04-18T18:11:58Z</time></trkpt><trkpt lat="43.604142908909836" lon="10.642415951659174"><ele>31.4</ele><time>2026-04-18T18:11:59Z</time></trkpt><trkpt lat="43.60423575856903" lon="10.64240838099606"><ele>32.199999999999996</ele><time>2026-04-18T18:12:00Z</time></trkpt><trkpt lat="43.60432822566362" lon="10.642415826973071"><ele>33.0</ele><time>2026-04-18T18:12:01Z</time></trkpt><trkpt lat="43.60442196201351" lon="10.64242061108423"><ele>32.8</ele><time>2026-04-18T18:12:02Z</time></trkpt><trkpt lat="43.60451125090811" lon="10.64242371911976"><ele>32.599999999999994</ele><time>2026-04-18T18:12:03Z</time></trkpt><trkpt lat="43.60460598763707" lon="10.64242660344806"><ele>32.400000000000006</ele><time>2026-04-18T18:12:04Z</time></trkpt><trkpt lat="43.60470646065714" lon="10.642429358654471"><ele>32.2</ele><time>2026-04-18T18:12:05Z</time></trkpt><trkpt lat="43.60481613108904" lon="10.64243345968281"><ele>32.0</ele><time>2026-04-18T18:12:06Z</time></trkpt><trkpt lat="43.604937457966784" lon="10.642436285409564"><ele>32.0</ele><time>2026-04-18T18:12:07Z</time></trkpt><trkpt lat="43.60505545452308" lon="10.642441283484578"><ele>32.0</ele><time>2026-04-18T18:12:08Z</time></trkpt><trkpt lat="43.60516724024985" lon="10.64244226243089"><ele>32.0</ele><time>2026-04-18T18:12:09Z</time></trkpt><trkpt lat="43.60527009859275" lon="10.642443526517786"><ele>32.0</ele><time>2026-04-18T18:12:10Z</time></trkpt><trkpt lat="43.6053705417551" lon="10.642447342775844"><ele>32.0</ele><time>2026-04-18T18:12:11Z</time></trkpt><trkpt lat="43.60546678565103" lon="10.642453477008608"><ele>32.0</ele><time>2026-04-18T18:12:12Z</time></trkpt><trkpt lat="43.60556700959521" lon="10.642466499001845"><ele>32.0</ele><time>2026-04-18T18:12:13Z</time></trkpt><trkpt lat="43.60567322492765" lon="10.642477373708772"><ele>32.0</ele><time>2026-04-18T18:12:14Z</time></trkpt><trkpt lat="43.60578831112248" lon="10.642490906771762"><ele>32.0</ele><time>2026-04-18T18:12:15Z</time></trkpt><trkpt lat="43.605908637824" lon="10.642508688699222"><ele>32.0</ele><time>2026-04-18T18:12:16Z</time></trkpt><trkpt lat="43.606036671262885" lon="10.642528263877528"><ele>31.75</ele><time>2026-04-18T18:12:17Z</time></trkpt><trkpt lat="43.60617254530617" lon="10.64254363078909"><ele>31.5</ele><time>2026-04-18T18:12:18Z</time></trkpt><trkpt lat="43.60631436906786" lon="10.64256255862212"><ele>31.25</ele><time>2026-04-18T18:12:19Z</time></trkpt><trkpt lat="43.60645960442025" lon="10.642585919438993"><ele>31.0</ele><time>2026-04-18T18:12:20Z</time></trkpt><trkpt lat="43.60659577528915" lon="10.642610040416733"><ele>31.0</ele><time>2026-04-18T18:12:21Z</time></trkpt><trkpt lat="43.60671758932947" lon="10.642624992664734"><ele>31.0</ele><time>2026-04-18T18:12:22Z</time></trkpt><trkpt lat="43.606841129910975" lon="10.642639910483458"><ele>31.0</ele><time>2026-04-18T18:12:23Z</time></trkpt><trkpt lat="43.606969154810024" lon="10.642656820202095"><ele>31.0</ele><time>2026-04-18T18:12:24Z</time></trkpt><trkpt lat="43.60709776058145" lon="10.642683004959213"><ele>30.25</ele><time>2026-04-18T18:12:25Z</time></trkpt><trkpt lat="43.607228668273365" lon="10.642702556662247"><ele>29.5</ele><time>2026-04-18T18:12:26Z</time></trkpt><trkpt lat="43.607356829574385" lon="10.642724179455525"><ele>28.75</ele><time>2026-04-18T18:12:27Z</time></trkpt><trkpt lat="43.60748228329445" lon="10.642745891234878"><ele>28.0</ele><time>2026-04-18T18:12:28Z</time></trkpt><trkpt lat="43.60760401761408" lon="10.642766825872917"><ele>28.0</ele><time>2026-04-18T18:12:29Z</time></trkpt><trkpt lat="43.607722469065635" lon="10.64278492534326"><ele>28.0</ele><time>2026-04-18T18:12:30Z</time></trkpt><trkpt lat="43.60783988730898" lon="10.642808051600868"><ele>28.0</ele><time>2026-04-18T18:12:31Z</time></trkpt><trkpt lat="43.6079530661012" lon="10.642828538794282"><ele>28.0</ele><time>2026-04-18T18:12:32Z</time></trkpt><trkpt lat="43.608060996027234" lon="10.642843191996501"><ele>27.4</ele><time>2026-04-18T18:12:33Z</time></trkpt><trkpt lat="43.60816587623579" lon="10.642857385672821"><ele>26.799999999999997</ele><time>2026-04-18T18:12:34Z</time></trkpt><trkpt lat="43.60826370282353" lon="10.642868318603606"><ele>26.2</ele><time>2026-04-18T18:12:35Z</time></trkpt><trkpt lat="43.60836086099263" lon="10.642877911344168"><ele>25.6</ele><time>2026-04-18T18:12:36Z</time></trkpt><trkpt lat="43.60845923267371" lon="10.642888236991299"><ele>25.0</ele><time>2026-04-18T18:12:37Z</time></trkpt><trkpt lat="43.60854510049639" lon="10.642895733074642"><ele>25.000000000000004</ele><time>2026-04-18T18:12:38Z</time></trkpt><trkpt lat="43.60862188222534" lon="10.642903815356162"><ele>25.0</ele><time>2026-04-18T18:12:39Z</time></trkpt><trkpt lat="43.60869543993183" lon="10.642913665797774"><ele>25.0</ele><time>2026-04-18T18:12:40Z</time></trkpt><trkpt lat="43.608761909707525" lon="10.642929565673155"><ele>25.0</ele><time>2026-04-18T18:12:41Z</time></trkpt><trkpt lat="43.608827953943546" lon="10.642947151178191"><ele>25.0</ele><time>2026-04-18T18:12:42Z</time></trkpt><trkpt lat="43.60890332293123" lon="10.64295817987675"><ele>25.000000000000004</ele><time>2026-04-18T18:12:43Z</time></trkpt><trkpt lat="43.608987037585734" lon="10.642969178489707"><ele>25.0</ele><time>2026-04-18T18:12:44Z</time></trkpt><trkpt lat="43.609067377183564" lon="10.642980877680726"><ele>25.42857142857143</ele><time>2026-04-18T18:12:45Z</time></trkpt><trkpt lat="43.609140619678335" lon="10.642998454929081"><ele>25.857142857142858</ele><time>2026-04-18T18:12:46Z</time></trkpt><trkpt lat="43.60920879989832" lon="10.643023168262069"><ele>26.285714285714285</ele><time>2026-04-18T18:12:47Z</time></trkpt><trkpt lat="43.60926945654508" lon="10.643068422993545"><ele>26.714285714285715</ele><time>2026-04-18T18:12:48Z</time></trkpt><trkpt lat="43.60930961312122" lon="10.643141415298302"><ele>27.142857142857142</ele><time>2026-04-18T18:12:49Z</time></trkpt><trkpt lat="43.60935356466228" lon="10.643210988060508"><ele>27.571428571428573</ele><time>2026-04-18T18:12:50Z</time></trkpt><trkpt lat="43.60938234139355" lon="10.643289979716123"><ele>28.0</ele><time>2026-04-18T18:12:51Z</time></trkpt><trkpt lat="43.60941019573031" lon="10.643379045023467"><ele>28.0</ele><time>2026-04-18T18:12:52Z</time></trkpt><trkpt lat="43.60943608442057" lon="10.643465971916283"><ele>28.0</ele><time>2026-04-18T18:12:53Z</time></trkpt><trkpt lat="43.60946389146953" lon="10.643558044586372"><ele>28.0</ele><time>2026-04-18T18:12:54Z</time></trkpt><trkpt lat="43.609491538424244" lon="10.64364959482168"><ele>28.0</ele><time>2026-04-18T18:12:55Z</time></trkpt><trkpt lat="43.60951691568681" lon="10.643736857853238"><ele>28.0</ele><time>2026-04-18T18:12:56Z</time></trkpt><trkpt lat="43.60954127539865" lon="10.643820622160955"><ele>28.0</ele><time>2026-04-18T18:12:57Z</time></trkpt><trkpt lat="43.60956932511388" lon="10.64389946574795"><ele>28.0</ele><time>2026-04-18T18:12:58Z</time></trkpt><trkpt lat="43.609607708580036" lon="10.643968705061427"><ele>29.000000000000004</ele><time>2026-04-18T18:12:59Z</time></trkpt><trkpt lat="43.609661767509095" lon="10.644017633139676"><ele>30.0</ele><time>2026-04-18T18:13:00Z</time></trkpt><trkpt lat="43.6097242662186" lon="10.644048384244858"><ele>31.0</ele><time>2026-04-18T18:13:01Z</time></trkpt><trkpt lat="43.609789040428524" lon="10.644060575374374"><ele>32.0</ele><time>2026-04-18T18:13:02Z</time></trkpt><trkpt lat="43.6098631571397" lon="10.644013415094618"><ele>33.0</ele><time>2026-04-18T18:13:03Z</time></trkpt><trkpt lat="43.60996433756229" lon="10.64392589507934"><ele>34.0</ele><time>2026-04-18T18:13:05Z</time></trkpt><trkpt lat="43.61003058505846" lon="10.643827734621881"><ele>34.0</ele><time>2026-04-18T18:13:07Z</time></trkpt><trkpt lat="43.61008739171986" lon="10.643763153438444"><ele>34.0</ele><time>2026-04-18T18:13:09Z</time></trkpt><trkpt lat="43.61020380271519" lon="10.643767707945944"><ele>34.0</ele><time>2026-04-18T18:13:11Z</time></trkpt><trkpt lat="43.61028198893244" lon="10.643810280031898"><ele>34.0</ele><time>2026-04-18T18:13:12Z</time></trkpt><trkpt lat="43.610369095134054" lon="10.643834323830289"><ele>34.0</ele><time>2026-04-18T18:13:13Z</time></trkpt><trkpt lat="43.610461595212186" lon="10.643827758695569"><ele>33.25</ele><time>2026-04-18T18:13:14Z</time></trkpt><trkpt lat="43.61055402324505" lon="10.643781980977991"><ele>32.5</ele><time>2026-04-18T18:13:15Z</time></trkpt><trkpt lat="43.610649784167904" lon="10.643692571717082"><ele>31.75</ele><time>2026-04-18T18:13:16Z</time></trkpt><trkpt lat="43.610741680445024" lon="10.643579185356703"><ele>31.0</ele><time>2026-04-18T18:13:17Z</time></trkpt><trkpt lat="43.610806920626324" lon="10.643417331688127"><ele>31.0</ele><time>2026-04-18T18:13:18Z</time></trkpt><trkpt lat="43.61089413839434" lon="10.64332132997408"><ele>31.0</ele><time>2026-04-18T18:13:19Z</time></trkpt><trkpt lat="43.610962248259824" lon="10.643214375138207"><ele>31.0</ele><time>2026-04-18T18:13:20Z</time></trkpt><trkpt lat="43.61103717711719" lon="10.643104921372538"><ele>31.0</ele><time>2026-04-18T18:13:21Z</time></trkpt><trkpt lat="43.611125855495644" lon="10.642991204949412"><ele>31.0</ele><time>2026-04-18T18:13:22Z</time></trkpt><trkpt lat="43.61130858979313" lon="10.643012712898129"><ele>30.75</ele><time>2026-04-18T18:13:23Z</time></trkpt><trkpt lat="43.611451906200855" lon="10.642979404616955"><ele>30.5</ele><time>2026-04-18T18:13:24Z</time></trkpt><trkpt lat="43.61157853116548" lon="10.642949262827358"><ele>30.25</ele><time>2026-04-18T18:13:25Z</time></trkpt><trkpt lat="43.611699950085026" lon="10.64289225638703"><ele>30.0</ele><time>2026-04-18T18:13:26Z</time></trkpt><trkpt lat="43.61181847261137" lon="10.642821737193032"><ele>29.75</ele><time>2026-04-18T18:13:27Z</time></trkpt><trkpt lat="43.611946273455025" lon="10.642753320914627"><ele>29.5</ele><time>2026-04-18T18:13:28Z</time></trkpt><trkpt lat="43.61207464377532" lon="10.64269892353549"><ele>29.25</ele><time>2026-04-18T18:13:29Z</time></trkpt><trkpt lat="43.61220565381183" lon="10.642671064424619"><ele>29.0</ele><time>2026-04-18T18:13:30Z</time></trkpt><trkpt lat="43.61232548877785" lon="10.642638639335134"><ele>29.0</ele><time>2026-04-18T18:13:31Z</time></trkpt><trkpt lat="43.61245328033126" lon="10.642599413622698"><ele>29.0</ele><time>2026-04-18T18:13:32Z</time></trkpt><trkpt lat="43.612588999157" lon="10.642561068307877"><ele>29.0</ele><time>2026-04-18T18:13:33Z</time></trkpt><trkpt lat="43.612716274013934" lon="10.642510059301566"><ele>29.0</ele><time>2026-04-18T18:13:34Z</time></trkpt><trkpt lat="43.61285072351682" lon="10.642419507238037"><ele>28.75</ele><time>2026-04-18T18:13:35Z</time></trkpt><trkpt lat="43.61297863499651" lon="10.642293047972872"><ele>28.5</ele><time>2026-04-18T18:13:36Z</time></trkpt><trkpt lat="43.61308453814359" lon="10.64217366617351"><ele>28.25</ele><time>2026-04-18T18:13:37Z</time></trkpt><trkpt lat="43.61318615364119" lon="10.64208284089544"><ele>28.0</ele><time>2026-04-18T18:13:38Z</time></trkpt><trkpt lat="43.61327944191862" lon="10.642010202453505"><ele>27.666666666666668</ele><time>2026-04-18T18:13:39Z</time></trkpt><trkpt lat="43.61337132841261" lon="10.641948375336849"><ele>27.333333333333336</ele><time>2026-04-18T18:13:40Z</time></trkpt><trkpt lat="43.61345645095983" lon="10.641898682685648"><ele>27.0</ele><time>2026-04-18T18:13:41Z</time></trkpt><trkpt lat="43.613541957908126" lon="10.641862166116448"><ele>26.666666666666664</ele><time>2026-04-18T18:13:42Z</time></trkpt><trkpt lat="43.61361817039989" lon="10.641829153594296"><ele>26.333333333333332</ele><time>2026-04-18T18:13:43Z</time></trkpt><trkpt lat="43.61368563959201" lon="10.64180321080579"><ele>26.0</ele><time>2026-04-18T18:13:44Z</time></trkpt><trkpt lat="43.61377939789695" lon="10.641765312266221"><ele>25.75</ele><time>2026-04-18T18:13:46Z</time></trkpt><trkpt lat="43.61385536788278" lon="10.641787725218713"><ele>25.5</ele><time>2026-04-18T18:13:49Z</time></trkpt><trkpt lat="43.614040535484335" lon="10.64180461946915"><ele>25.25</ele><time>2026-04-18T18:13:52Z</time></trkpt><trkpt lat="43.61388371513417" lon="10.641804664781441"><ele>25.0</ele><time>2026-04-18T18:13:53Z</time></trkpt><trkpt lat="43.61395209508229" lon="10.64188362560311"><ele>25.000000000000004</ele><time>2026-04-18T18:16:05Z</time></trkpt><trkpt lat="43.613898564645275" lon="10.641809879676053"><ele>25.0</ele><time>2026-04-18T18:16:38Z</time></trkpt><trkpt lat="43.61383682144684" lon="10.64173352331891"><ele>25.0</ele><time>2026-04-18T18:23:50Z</time></trkpt><trkpt lat="43.61374599408272" lon="10.641731514992312"><ele>25.0</ele><time>2026-04-18T18:23:52Z</time></trkpt><trkpt lat="43.613676916531396" lon="10.64175871293336"><ele>25.000000000000004</ele><time>2026-04-18T18:23:53Z</time></trkpt><trkpt lat="43.61358230878004" lon="10.641797110081724"><ele>25.0</ele><time>2026-04-18T18:23:54Z</time></trkpt><trkpt lat="43.613471722727624" lon="10.641851519340646"><ele>25.25</ele><time>2026-04-18T18:23:55Z</time></trkpt><trkpt lat="43.61337444442617" lon="10.641904633734686"><ele>25.5</ele><time>2026-04-18T18:23:56Z</time></trkpt><trkpt lat="43.613281166984805" lon="10.641969665456513"><ele>25.75</ele><time>2026-04-18T18:23:57Z</time></trkpt><trkpt lat="43.61317263363011" lon="10.642022764558803"><ele>26.0</ele><time>2026-04-18T18:23:58Z</time></trkpt><trkpt lat="43.61306127888761" lon="10.642125235306814"><ele>26.5</ele><time>2026-04-18T18:23:59Z</time></trkpt><trkpt lat="43.612970635410434" lon="10.642242937359983"><ele>27.0</ele><time>2026-04-18T18:24:00Z</time></trkpt><trkpt lat="43.61288073697212" lon="10.642318772128478"><ele>27.5</ele><time>2026-04-18T18:24:01Z</time></trkpt><trkpt lat="43.6127828580941" lon="10.642397054363709"><ele>28.0</ele><time>2026-04-18T18:24:02Z</time></trkpt><trkpt lat="43.61266870801881" lon="10.642468793390275"><ele>28.25</ele><time>2026-04-18T18:24:03Z</time></trkpt><trkpt lat="43.612539913657116" lon="10.64252782614374"><ele>28.5</ele><time>2026-04-18T18:24:04Z</time></trkpt><trkpt lat="43.61240353287494" lon="10.642559588524174"><ele>28.75</ele><time>2026-04-18T18:24:05Z</time></trkpt><trkpt lat="43.612286162558064" lon="10.642589099770044"><ele>29.0</ele><time>2026-04-18T18:24:06Z</time></trkpt><trkpt lat="43.61218463783395" lon="10.642620173841918"><ele>29.0</ele><time>2026-04-18T18:24:07Z</time></trkpt><trkpt lat="43.61208031643539" lon="10.642658371148675"><ele>29.0</ele><time>2026-04-18T18:24:08Z</time></trkpt><trkpt lat="43.61195646362498" lon="10.64271043931321"><ele>29.0</ele><time>2026-04-18T18:24:09Z</time></trkpt><trkpt lat="43.61182323336205" lon="10.642776193307224"><ele>29.0</ele><time>2026-04-18T18:24:10Z</time></trkpt><trkpt lat="43.61170353202738" lon="10.642840774285569"><ele>29.2</ele><time>2026-04-18T18:24:11Z</time></trkpt><trkpt lat="43.611595494702044" lon="10.642887266670817"><ele>29.4</ele><time>2026-04-18T18:24:12Z</time></trkpt><trkpt lat="43.61148630843179" lon="10.642920697223508"><ele>29.6</ele><time>2026-04-18T18:24:13Z</time></trkpt><trkpt lat="43.611379551800226" lon="10.642945866393491"><ele>29.8</ele><time>2026-04-18T18:24:14Z</time></trkpt><trkpt lat="43.61129133149156" lon="10.642968614358047"><ele>30.0</ele><time>2026-04-18T18:24:15Z</time></trkpt><trkpt lat="43.61122389846354" lon="10.642984133752888"><ele>30.166666666666668</ele><time>2026-04-18T18:24:16Z</time></trkpt><trkpt lat="43.61110808740039" lon="10.643012590336014"><ele>30.333333333333336</ele><time>2026-04-18T18:24:18Z</time></trkpt><trkpt lat="43.6110420537577" lon="10.643021904437374"><ele>30.5</ele><time>2026-04-18T18:24:19Z</time></trkpt><trkpt lat="43.61096806185981" lon="10.643018416168884"><ele>30.666666666666668</ele><time>2026-04-18T18:24:20Z</time></trkpt><trkpt lat="43.610888144401386" lon="10.642992491152409"><ele>30.833333333333336</ele><time>2026-04-18T18:24:21Z</time></trkpt><trkpt lat="43.61080636881387" lon="10.642946732726376"><ele>31.0</ele><time>2026-04-18T18:24:22Z</time></trkpt><trkpt lat="43.610720010414695" lon="10.642919337583715"><ele>31.0</ele><time>2026-04-18T18:24:23Z</time></trkpt><trkpt lat="43.61064503728956" lon="10.64283814547853"><ele>31.0</ele><time>2026-04-18T18:24:24Z</time></trkpt><trkpt lat="43.61057137519452" lon="10.64276973331798"><ele>31.0</ele><time>2026-04-18T18:24:25Z</time></trkpt><trkpt lat="43.610498387582076" lon="10.64270468405699"><ele>31.0</ele><time>2026-04-18T18:24:26Z</time></trkpt><trkpt lat="43.610406877838194" lon="10.642691712059046"><ele>31.0</ele><time>2026-04-18T18:24:27Z</time></trkpt><trkpt lat="43.61030744583917" lon="10.64270800131938"><ele>30.833333333333336</ele><time>2026-04-18T18:24:28Z</time></trkpt><trkpt lat="43.610205056999924" lon="10.642758299115792"><ele>30.666666666666668</ele><time>2026-04-18T18:24:29Z</time></trkpt><trkpt lat="43.610118724569936" lon="10.642827842312975"><ele>30.5</ele><time>2026-04-18T18:24:30Z</time></trkpt><trkpt lat="43.61005129767482" lon="10.642888967370409"><ele>30.333333333333336</ele><time>2026-04-18T18:24:31Z</time></trkpt><trkpt lat="43.609985437539265" lon="10.642930513482533"><ele>30.166666666666668</ele><time>2026-04-18T18:24:32Z</time></trkpt><trkpt lat="43.60991110976906" lon="10.642943595778512"><ele>30.0</ele><time>2026-04-18T18:24:33Z</time></trkpt><trkpt lat="43.609818087396306" lon="10.642919526105631"><ele>30.0</ele><time>2026-04-18T18:24:34Z</time></trkpt><trkpt lat="43.60971722166048" lon="10.642862585503075"><ele>30.0</ele><time>2026-04-18T18:24:35Z</time></trkpt><trkpt lat="43.60960792614134" lon="10.642757512787936"><ele>30.0</ele><time>2026-04-18T18:24:36Z</time></trkpt><trkpt lat="43.609491345012486" lon="10.642612247212362"><ele>30.0</ele><time>2026-04-18T18:24:37Z</time></trkpt><trkpt lat="43.60937310598233" lon="10.642452405108328"><ele>28.333333333333336</ele><time>2026-04-18T18:24:38Z</time></trkpt><trkpt lat="43.6092724608349" lon="10.64228785104458"><ele>26.666666666666668</ele><time>2026-04-18T18:24:39Z</time></trkpt><trkpt lat="43.60917801118781" lon="10.642112820027194"><ele>25.0</ele><time>2026-04-18T18:24:40Z</time></trkpt><trkpt lat="43.6090943085881" lon="10.64192000811881"><ele>24.0</ele><time>2026-04-18T18:24:41Z</time></trkpt><trkpt lat="43.60902285521129" lon="10.641703534803593"><ele>23.0</ele><time>2026-04-18T18:24:42Z</time></trkpt><trkpt lat="43.6089621699015" lon="10.641473895353553"><ele>22.0</ele><time>2026-04-18T18:24:43Z</time></trkpt><trkpt lat="43.60890693323238" lon="10.64124617369171"><ele>22.0</ele><time>2026-04-18T18:24:44Z</time></trkpt><trkpt lat="43.60885164345667" lon="10.640999671811416"><ele>22.0</ele><time>2026-04-18T18:24:45Z</time></trkpt><trkpt lat="43.608791499423496" lon="10.640724229706194"><ele>22.0</ele><time>2026-04-18T18:24:46Z</time></trkpt><trkpt lat="43.60872622901574" lon="10.640434818714738"><ele>22.5</ele><time>2026-04-18T18:24:47Z</time></trkpt><trkpt lat="43.608655577984635" lon="10.640131166918918"><ele>23.0</ele><time>2026-04-18T18:24:48Z</time></trkpt><trkpt lat="43.608580598447425" lon="10.639812881990338"><ele>23.0</ele><time>2026-04-18T18:24:49Z</time></trkpt><trkpt lat="43.60850905259438" lon="10.639510012438508"><ele>23.0</ele><time>2026-04-18T18:24:50Z</time></trkpt><trkpt lat="43.60843652525908" lon="10.639202284576099"><ele>23.0</ele><time>2026-04-18T18:24:51Z</time></trkpt><trkpt lat="43.608361570246544" lon="10.63888432316501"><ele>23.0</ele><time>2026-04-18T18:24:52Z</time></trkpt><trkpt lat="43.608283834086635" lon="10.63855216221008"><ele>23.0</ele><time>2026-04-18T18:24:53Z</time></trkpt><trkpt lat="43.60820517279433" lon="10.638211043457392"><ele>23.0</ele><time>2026-04-18T18:24:54Z</time></trkpt><trkpt lat="43.60813070486908" lon="10.637889216588936"><ele>23.5</ele><time>2026-04-18T18:24:55Z</time></trkpt><trkpt lat="43.60806247775037" lon="10.637581149419285"><ele>24.0</ele><time>2026-04-18T18:24:56Z</time></trkpt><trkpt lat="43.60799641502572" lon="10.637292091861786"><ele>24.0</ele><time>2026-04-18T18:24:57Z</time></trkpt><trkpt lat="43.60793061060531" lon="10.63700692077231"><ele>24.0</ele><time>2026-04-18T18:24:58Z</time></trkpt><trkpt lat="43.607863625097266" lon="10.636720927320159"><ele>24.0</ele><time>2026-04-18T18:24:59Z</time></trkpt><trkpt lat="43.60779447457631" lon="10.636420977035325"><ele>23.0</ele><time>2026-04-18T18:25:00Z</time></trkpt><trkpt lat="43.607726181874575" lon="10.636116384433151"><ele>22.0</ele><time>2026-04-18T18:25:01Z</time></trkpt><trkpt lat="43.607656459541765" lon="10.635810863677332"><ele>22.0</ele><time>2026-04-18T18:25:02Z</time></trkpt><trkpt lat="43.60758650778061" lon="10.635513564804997"><ele>22.0</ele><time>2026-04-18T18:25:03Z</time></trkpt><trkpt lat="43.6075201907295" lon="10.635229430278256"><ele>22.0</ele><time>2026-04-18T18:25:04Z</time></trkpt><trkpt lat="43.60745796782839" lon="10.634959869043225"><ele>22.0</ele><time>2026-04-18T18:25:05Z</time></trkpt><trkpt lat="43.607395200694526" lon="10.634693346710725"><ele>22.0</ele><time>2026-04-18T18:25:06Z</time></trkpt><trkpt lat="43.60733553507241" lon="10.634439923177913"><ele>22.0</ele><time>2026-04-18T18:25:07Z</time></trkpt><trkpt lat="43.60728200622767" lon="10.634212391333202"><ele>22.25</ele><time>2026-04-18T18:25:08Z</time></trkpt><trkpt lat="43.60723758780107" lon="10.63401136667196"><ele>22.5</ele><time>2026-04-18T18:25:09Z</time></trkpt><trkpt lat="43.60719183984987" lon="10.633824125346834"><ele>22.75</ele><time>2026-04-18T18:25:10Z</time></trkpt><trkpt lat="43.607148783136836" lon="10.633639795319382"><ele>23.0</ele><time>2026-04-18T18:25:11Z</time></trkpt><trkpt lat="43.60710847355338" lon="10.633461183533203"><ele>23.0</ele><time>2026-04-18T18:25:12Z</time></trkpt><trkpt lat="43.6070680723839" lon="10.633284311845111"><ele>23.0</ele><time>2026-04-18T18:25:13Z</time></trkpt><trkpt lat="43.60702786167284" lon="10.633114077849815"><ele>23.0</ele><time>2026-04-18T18:25:14Z</time></trkpt><trkpt lat="43.606991295119585" lon="10.632951909347042"><ele>23.0</ele><time>2026-04-18T18:25:15Z</time></trkpt><trkpt lat="43.60695920101005" lon="10.63280542610442"><ele>23.25</ele><time>2026-04-18T18:25:16Z</time></trkpt><trkpt lat="43.60692455883705" lon="10.632651825756204"><ele>23.5</ele><time>2026-04-18T18:25:17Z</time></trkpt><trkpt lat="43.6068896353601" lon="10.632493957977752"><ele>23.75</ele><time>2026-04-18T18:25:18Z</time></trkpt><trkpt lat="43.606856604719255" lon="10.632334075784485"><ele>24.0</ele><time>2026-04-18T18:25:19Z</time></trkpt><trkpt lat="43.60682797282714" lon="10.632177419935726"><ele>24.0</ele><time>2026-04-18T18:25:20Z</time></trkpt><trkpt lat="43.6068018878598" lon="10.63202496418172"><ele>24.0</ele><time>2026-04-18T18:25:21Z</time></trkpt><trkpt lat="43.60678118078388" lon="10.63187966614621"><ele>24.0</ele><time>2026-04-18T18:25:22Z</time></trkpt><trkpt lat="43.606765042589934" lon="10.631737986850544"><ele>24.0</ele><time>2026-04-18T18:25:23Z</time></trkpt><trkpt lat="43.60675844589201" lon="10.631613002966871"><ele>24.0</ele><time>2026-04-18T18:25:24Z</time></trkpt><trkpt lat="43.60674798978518" lon="10.6314867470199"><ele>24.0</ele><time>2026-04-18T18:25:25Z</time></trkpt><trkpt lat="43.60674464381551" lon="10.631349132076561"><ele>24.0</ele><time>2026-04-18T18:25:26Z</time></trkpt><trkpt lat="43.60673532396281" lon="10.631206447243414"><ele>24.0</ele><time>2026-04-18T18:25:27Z</time></trkpt><trkpt lat="43.60672796972673" lon="10.631080659872707"><ele>24.0</ele><time>2026-04-18T18:25:28Z</time></trkpt><trkpt lat="43.60672327296253" lon="10.630962728204382"><ele>24.0</ele><time>2026-04-18T18:25:29Z</time></trkpt><trkpt lat="43.60671872684896" lon="10.630851582898284"><ele>24.0</ele><time>2026-04-18T18:25:30Z</time></trkpt><trkpt lat="43.60676562182351" lon="10.630748639592763"><ele>24.0</ele><time>2026-04-18T18:25:31Z</time></trkpt><trkpt lat="43.60679144497395" lon="10.630643770480459"><ele>24.0</ele><time>2026-04-18T18:25:32Z</time></trkpt><trkpt lat="43.60685748469037" lon="10.630563477344682"><ele>24.0</ele><time>2026-04-18T18:25:33Z</time></trkpt><trkpt lat="43.60692696432173" lon="10.630502429420035"><ele>24.0</ele><time>2026-04-18T18:25:34Z</time></trkpt><trkpt lat="43.6070019475922" lon="10.630454925268669"><ele>24.0</ele><time>2026-04-18T18:25:35Z</time></trkpt><trkpt lat="43.607095483869735" lon="10.630490197312827"><ele>24.0</ele><time>2026-04-18T18:25:36Z</time></trkpt><trkpt lat="43.60717983850708" lon="10.630514595705284"><ele>24.0</ele><time>2026-04-18T18:25:37Z</time></trkpt><trkpt lat="43.60725985024689" lon="10.630571700530968"><ele>24.0</ele><time>2026-04-18T18:25:38Z</time></trkpt><trkpt lat="43.60731971721702" lon="10.630646172383756"><ele>24.0</ele><time>2026-04-18T18:25:39Z</time></trkpt><trkpt lat="43.607361211806044" lon="10.63074458134449"><ele>24.0</ele><time>2026-04-18T18:25:40Z</time></trkpt><trkpt lat="43.60738804037758" lon="10.630860883773051"><ele>24.0</ele><time>2026-04-18T18:25:41Z</time></trkpt><trkpt lat="43.60739136562736" lon="10.630996134713836"><ele>23.75</ele><time>2026-04-18T18:25:42Z</time></trkpt><trkpt lat="43.60737430629587" lon="10.631148910020185"><ele>23.5</ele><time>2026-04-18T18:25:43Z</time></trkpt><trkpt lat="43.60732903983743" lon="10.631305412583746"><ele>23.25</ele><time>2026-04-18T18:25:44Z</time></trkpt><trkpt lat="43.60730883403548" lon="10.631485247401233"><ele>23.0</ele><time>2026-04-18T18:25:45Z</time></trkpt><trkpt lat="43.60727184492135" lon="10.631646564127664"><ele>23.0</ele><time>2026-04-18T18:25:46Z</time></trkpt><trkpt lat="43.60724244209661" lon="10.631793888434537"><ele>23.0</ele><time>2026-04-18T18:25:47Z</time></trkpt><trkpt lat="43.60721760904795" lon="10.631940796378927"><ele>23.0</ele><time>2026-04-18T18:25:48Z</time></trkpt><trkpt lat="43.60719171048188" lon="10.632072573292355"><ele>23.0</ele><time>2026-04-18T18:25:49Z</time></trkpt><trkpt lat="43.60716637850817" lon="10.632181302229334"><ele>23.0</ele><time>2026-04-18T18:25:50Z</time></trkpt><trkpt lat="43.607140580704105" lon="10.632275528073132"><ele>22.75</ele><time>2026-04-18T18:25:51Z</time></trkpt><trkpt lat="43.60706937711665" lon="10.632390977686994"><ele>22.5</ele><time>2026-04-18T18:25:53Z</time></trkpt><trkpt lat="43.60695261023395" lon="10.632488258724354"><ele>22.25</ele><time>2026-04-18T18:25:55Z</time></trkpt><trkpt lat="43.606845171776534" lon="10.632536627784464"><ele>22.0</ele><time>2026-04-18T18:25:56Z</time></trkpt><trkpt lat="43.60672107031843" lon="10.63256659384733"><ele>22.666666666666664</ele><time>2026-04-18T18:25:57Z</time></trkpt><trkpt lat="43.606574650124514" lon="10.632589919798646"><ele>23.333333333333332</ele><time>2026-04-18T18:25:58Z</time></trkpt><trkpt lat="43.606411349790484" lon="10.632606686119974"><ele>24.0</ele><time>2026-04-18T18:25:59Z</time></trkpt><trkpt lat="43.606234334589665" lon="10.632627896405376"><ele>23.0</ele><time>2026-04-18T18:26:00Z</time></trkpt><trkpt lat="43.60605788830225" lon="10.632639130197221"><ele>22.0</ele><time>2026-04-18T18:26:01Z</time></trkpt><trkpt lat="43.605869754320835" lon="10.632640167435177"><ele>21.0</ele><time>2026-04-18T18:26:02Z</time></trkpt><trkpt lat="43.60566494358895" lon="10.632643803599578"><ele>21.0</ele><time>2026-04-18T18:26:03Z</time></trkpt><trkpt lat="43.60545193698521" lon="10.632651532892115"><ele>21.0</ele><time>2026-04-18T18:26:04Z</time></trkpt><trkpt lat="43.60524985022012" lon="10.632662486303637"><ele>21.0</ele><time>2026-04-18T18:26:05Z</time></trkpt><trkpt lat="43.60503953463575" lon="10.632679500403613"><ele>22.333333333333336</ele><time>2026-04-18T18:26:06Z</time></trkpt><trkpt lat="43.60481519618709" lon="10.632698136393854"><ele>23.666666666666668</ele><time>2026-04-18T18:26:07Z</time></trkpt><trkpt lat="43.60460763009024" lon="10.632719812223877"><ele>25.0</ele><time>2026-04-18T18:26:08Z</time></trkpt><trkpt lat="43.604404324549854" lon="10.632738501752396"><ele>25.0</ele><time>2026-04-18T18:26:09Z</time></trkpt><trkpt lat="43.604193594402574" lon="10.632760024068087"><ele>25.0</ele><time>2026-04-18T18:26:10Z</time></trkpt><trkpt lat="43.60397095095729" lon="10.632777926693112"><ele>25.0</ele><time>2026-04-18T18:26:11Z</time></trkpt><trkpt lat="43.60375661654344" lon="10.63280394157822"><ele>25.0</ele><time>2026-04-18T18:26:12Z</time></trkpt><trkpt lat="43.60355341659001" lon="10.632842093541486"><ele>25.0</ele><time>2026-04-18T18:26:13Z</time></trkpt><trkpt lat="43.60336279330848" lon="10.632880859923414"><ele>25.0</ele><time>2026-04-18T18:26:14Z</time></trkpt><trkpt lat="43.60318009662101" lon="10.632920149180242"><ele>25.0</ele><time>2026-04-18T18:26:15Z</time></trkpt><trkpt lat="43.6030018604914" lon="10.632955241928162"><ele>25.0</ele><time>2026-04-18T18:26:16Z</time></trkpt><trkpt lat="43.60283144848451" lon="10.632974215611647"><ele>25.0</ele><time>2026-04-18T18:26:17Z</time></trkpt><trkpt lat="43.6026710398974" lon="10.63298093182527"><ele>24.0</ele><time>2026-04-18T18:26:18Z</time></trkpt><trkpt lat="43.60251164795296" lon="10.632977215849673"><ele>23.0</ele><time>2026-04-18T18:26:19Z</time></trkpt><trkpt lat="43.60234912261992" lon="10.632965664320515"><ele>22.0</ele><time>2026-04-18T18:26:20Z</time></trkpt><trkpt lat="43.6021808546304" lon="10.632930810162927"><ele>22.0</ele><time>2026-04-18T18:26:21Z</time></trkpt><trkpt lat="43.60200684300006" lon="10.63286732256757"><ele>22.0</ele><time>2026-04-18T18:26:22Z</time></trkpt><trkpt lat="43.60182752498513" lon="10.632782989122992"><ele>22.0</ele><time>2026-04-18T18:26:23Z</time></trkpt><trkpt lat="43.60165376304519" lon="10.632687576897291"><ele>23.0</ele><time>2026-04-18T18:26:24Z</time></trkpt><trkpt lat="43.60149339428727" lon="10.632593701026517"><ele>24.0</ele><time>2026-04-18T18:26:25Z</time></trkpt><trkpt lat="43.60134267071669" lon="10.632504563300257"><ele>25.0</ele><time>2026-04-18T18:26:26Z</time></trkpt><trkpt lat="43.60118236193397" lon="10.632423389476044"><ele>25.333333333333336</ele><time>2026-04-18T18:26:27Z</time></trkpt><trkpt lat="43.601012551474085" lon="10.632362456490211"><ele>25.666666666666664</ele><time>2026-04-18T18:26:28Z</time></trkpt><trkpt lat="43.600825636313864" lon="10.632324134774517"><ele>26.0</ele><time>2026-04-18T18:26:29Z</time></trkpt><trkpt lat="43.60064166027821" lon="10.632297995720464"><ele>26.0</ele><time>2026-04-18T18:26:30Z</time></trkpt><trkpt lat="43.60046864744453" lon="10.632279248718953"><ele>26.0</ele><time>2026-04-18T18:26:31Z</time></trkpt><trkpt lat="43.600301607195895" lon="10.632258982164013"><ele>26.0</ele><time>2026-04-18T18:26:32Z</time></trkpt><trkpt lat="43.600135448680874" lon="10.632237151723967"><ele>26.0</ele><time>2026-04-18T18:26:33Z</time></trkpt><trkpt lat="43.599961701627876" lon="10.632214568085057"><ele>26.0</ele><time>2026-04-18T18:26:34Z</time></trkpt><trkpt lat="43.59979473588992" lon="10.632192596502914"><ele>26.0</ele><time>2026-04-18T18:26:35Z</time></trkpt><trkpt lat="43.599638462322964" lon="10.632172369510656"><ele>25.75</ele><time>2026-04-18T18:26:36Z</time></trkpt><trkpt lat="43.59949270185115" lon="10.632151852460565"><ele>25.5</ele><time>2026-04-18T18:26:37Z</time></trkpt><trkpt lat="43.5993519567991" lon="10.63213619615564"><ele>25.25</ele><time>2026-04-18T18:26:38Z</time></trkpt><trkpt lat="43.59920805198156" lon="10.632122856680713"><ele>25.0</ele><time>2026-04-18T18:26:39Z</time></trkpt><trkpt lat="43.59905757650286" lon="10.632105684576382"><ele>25.0</ele><time>2026-04-18T18:26:40Z</time></trkpt><trkpt lat="43.59890063420445" lon="10.632084051703261"><ele>25.0</ele><time>2026-04-18T18:26:41Z</time></trkpt><trkpt lat="43.598734444905716" lon="10.632062785480718"><ele>25.0</ele><time>2026-04-18T18:26:42Z</time></trkpt><trkpt lat="43.598560971622426" lon="10.632038976062354"><ele>25.333333333333336</ele><time>2026-04-18T18:26:43Z</time></trkpt><trkpt lat="43.59836907464159" lon="10.632015116283391"><ele>25.666666666666664</ele><time>2026-04-18T18:26:44Z</time></trkpt><trkpt lat="43.598160768630564" lon="10.631990658172"><ele>26.0</ele><time>2026-04-18T18:26:45Z</time></trkpt><trkpt lat="43.597949801518276" lon="10.631964056595281"><ele>26.333333333333332</ele><time>2026-04-18T18:26:46Z</time></trkpt><trkpt lat="43.597753672889496" lon="10.631938047428665"><ele>26.666666666666664</ele><time>2026-04-18T18:26:47Z</time></trkpt><trkpt lat="43.59756766172725" lon="10.631912679410446"><ele>27.0</ele><time>2026-04-18T18:26:48Z</time></trkpt><trkpt lat="43.59737842573389" lon="10.63188803489195"><ele>27.0</ele><time>2026-04-18T18:26:49Z</time></trkpt><trkpt lat="43.59719016045087" lon="10.631866324964507"><ele>27.0</ele><time>2026-04-18T18:26:50Z</time></trkpt><trkpt lat="43.59699159163349" lon="10.631841582937433"><ele>27.0</ele><time>2026-04-18T18:26:51Z</time></trkpt><trkpt lat="43.596780494545925" lon="10.63181157632743"><ele>27.0</ele><time>2026-04-18T18:26:52Z</time></trkpt><trkpt lat="43.59657050991296" lon="10.631783643804074"><ele>27.0</ele><time>2026-04-18T18:26:53Z</time></trkpt><trkpt lat="43.59636899208222" lon="10.631757391414137"><ele>27.0</ele><time>2026-04-18T18:26:54Z</time></trkpt><trkpt lat="43.59617314277517" lon="10.631735006156093"><ele>27.0</ele><time>2026-04-18T18:26:55Z</time></trkpt><trkpt lat="43.595972480762406" lon="10.63171277671662"><ele>27.0</ele><time>2026-04-18T18:26:56Z</time></trkpt><trkpt lat="43.59576314176938" lon="10.63168468261276"><ele>27.0</ele><time>2026-04-18T18:26:57Z</time></trkpt><trkpt lat="43.59555007404185" lon="10.631659540642387"><ele>27.0</ele><time>2026-04-18T18:26:58Z</time></trkpt><trkpt lat="43.595345827783426" lon="10.631638345552942"><ele>27.0</ele><time>2026-04-18T18:26:59Z</time></trkpt><trkpt lat="43.59515299283412" lon="10.631617281771245"><ele>27.0</ele><time>2026-04-18T18:27:00Z</time></trkpt><trkpt lat="43.594961857675315" lon="10.631595875876762"><ele>27.0</ele><time>2026-04-18T18:27:01Z</time></trkpt><trkpt lat="43.59476340197738" lon="10.631575409660332"><ele>27.0</ele><time>2026-04-18T18:27:02Z</time></trkpt><trkpt lat="43.59455342445587" lon="10.631555899255417"><ele>27.0</ele><time>2026-04-18T18:27:03Z</time></trkpt><trkpt lat="43.59434821223908" lon="10.631535108620803"><ele>26.333333333333336</ele><time>2026-04-18T18:27:04Z</time></trkpt><trkpt lat="43.59415179932127" lon="10.631514307085201"><ele>25.666666666666668</ele><time>2026-04-18T18:27:05Z</time></trkpt><trkpt lat="43.59396026899404" lon="10.63149486999879"><ele>25.0</ele><time>2026-04-18T18:27:06Z</time></trkpt><trkpt lat="43.59376653429878" lon="10.631475351582832"><ele>25.333333333333336</ele><time>2026-04-18T18:27:07Z</time></trkpt><trkpt lat="43.59356103798104" lon="10.631454976739887"><ele>25.666666666666664</ele><time>2026-04-18T18:27:08Z</time></trkpt><trkpt lat="43.59335046902365" lon="10.631435235326277"><ele>26.0</ele><time>2026-04-18T18:27:09Z</time></trkpt><trkpt lat="43.59315977638882" lon="10.631416446260328"><ele>26.0</ele><time>2026-04-18T18:27:10Z</time></trkpt><trkpt lat="43.59298365423087" lon="10.631396948492524"><ele>26.0</ele><time>2026-04-18T18:27:11Z</time></trkpt><trkpt lat="43.59282151268775" lon="10.631378918461563"><ele>26.0</ele><time>2026-04-18T18:27:12Z</time></trkpt><trkpt lat="43.592667199262" lon="10.631363158480882"><ele>26.333333333333332</ele><time>2026-04-18T18:27:13Z</time></trkpt><trkpt lat="43.592503538042536" lon="10.63134709853167"><ele>26.666666666666664</ele><time>2026-04-18T18:27:14Z</time></trkpt><trkpt lat="43.59232897453513" lon="10.631327697910075"><ele>27.0</ele><time>2026-04-18T18:27:15Z</time></trkpt><trkpt lat="43.592150354483834" lon="10.631308852493337"><ele>27.666666666666664</ele><time>2026-04-18T18:27:16Z</time></trkpt><trkpt lat="43.59197582930965" lon="10.631293336411899"><ele>28.333333333333332</ele><time>2026-04-18T18:27:17Z</time></trkpt><trkpt lat="43.59179516749462" lon="10.631275973717957"><ele>29.0</ele><time>2026-04-18T18:27:18Z</time></trkpt><trkpt lat="43.591631224998025" lon="10.631259466952397"><ele>29.0</ele><time>2026-04-18T18:27:19Z</time></trkpt><trkpt lat="43.591479526640995" lon="10.631242713070868"><ele>29.0</ele><time>2026-04-18T18:27:20Z</time></trkpt><trkpt lat="43.59133132979889" lon="10.631225390319276"><ele>29.0</ele><time>2026-04-18T18:27:21Z</time></trkpt><trkpt lat="43.591177104912354" lon="10.631210634682034"><ele>28.75</ele><time>2026-04-18T18:27:22Z</time></trkpt><trkpt lat="43.59102038645907" lon="10.631196952979307"><ele>28.5</ele><time>2026-04-18T18:27:23Z</time></trkpt><trkpt lat="43.590877080025" lon="10.631181446214173"><ele>28.25</ele><time>2026-04-18T18:27:24Z</time></trkpt><trkpt lat="43.590742809405505" lon="10.631166634993447"><ele>28.0</ele><time>2026-04-18T18:27:25Z</time></trkpt><trkpt lat="43.590609256416485" lon="10.631154200447689"><ele>28.0</ele><time>2026-04-18T18:27:26Z</time></trkpt><trkpt lat="43.59049343109539" lon="10.631145061625837"><ele>27.999999999999996</ele><time>2026-04-18T18:27:27Z</time></trkpt><trkpt lat="43.59040618912725" lon="10.631134213049744"><ele>27.999999999999996</ele><time>2026-04-18T18:27:28Z</time></trkpt><trkpt lat="43.59032659053104" lon="10.631124638762607"><ele>28.0</ele><time>2026-04-18T18:27:29Z</time></trkpt><trkpt lat="43.59026027902599" lon="10.631111107913435"><ele>28.0</ele><time>2026-04-18T18:27:30Z</time></trkpt><trkpt lat="43.590144516913234" lon="10.63106119221095"><ele>28.5</ele><time>2026-04-18T18:27:32Z</time></trkpt><trkpt lat="43.59007254528103" lon="10.631053966424428"><ele>29.0</ele><time>2026-04-18T18:27:33Z</time></trkpt><trkpt lat="43.59000426338693" lon="10.630811762891641"><ele>29.5</ele><time>2026-04-18T18:27:34Z</time></trkpt><trkpt lat="43.589928330180825" lon="10.630677992665541"><ele>30.0</ele><time>2026-04-18T18:27:35Z</time></trkpt><trkpt lat="43.589850405377824" lon="10.630561375584257"><ele>30.0</ele><time>2026-04-18T18:27:36Z</time></trkpt><trkpt lat="43.589760547075485" lon="10.630457911983216"><ele>30.0</ele><time>2026-04-18T18:27:37Z</time></trkpt><trkpt lat="43.5896416450537" lon="10.63035249062326"><ele>30.0</ele><time>2026-04-18T18:27:38Z</time></trkpt><trkpt lat="43.58953339135959" lon="10.630241163670485"><ele>30.0</ele><time>2026-04-18T18:27:39Z</time></trkpt><trkpt lat="43.58942798615542" lon="10.6301799997864"><ele>30.2</ele><time>2026-04-18T18:27:40Z</time></trkpt><trkpt lat="43.58932556673984" lon="10.63014695885384"><ele>30.4</ele><time>2026-04-18T18:27:41Z</time></trkpt><trkpt lat="43.58923035039087" lon="10.630063481186697"><ele>30.6</ele><time>2026-04-18T18:27:42Z</time></trkpt><trkpt lat="43.589136476445155" lon="10.629958833434165"><ele>30.8</ele><time>2026-04-18T18:27:43Z</time></trkpt><trkpt lat="43.58905858511405" lon="10.629852323777396"><ele>31.0</ele><time>2026-04-18T18:27:44Z</time></trkpt><trkpt lat="43.58900220738519" lon="10.629752247876178"><ele>31.0</ele><time>2026-04-18T18:27:45Z</time></trkpt><trkpt lat="43.58892925653031" lon="10.629672710007023"><ele>31.0</ele><time>2026-04-18T18:27:46Z</time></trkpt><trkpt lat="43.58883471220706" lon="10.62960830774951"><ele>31.0</ele><time>2026-04-18T18:27:47Z</time></trkpt><trkpt lat="43.58871742911678" lon="10.629567666442519"><ele>31.0</ele><time>2026-04-18T18:27:48Z</time></trkpt><trkpt lat="43.588589308562426" lon="10.62956004002128"><ele>31.0</ele><time>2026-04-18T18:27:49Z</time></trkpt><trkpt lat="43.5884837332663" lon="10.629539426202593"><ele>31.000000000000004</ele><time>2026-04-18T18:27:50Z</time></trkpt><trkpt lat="43.58840323989784" lon="10.629530794157342"><ele>31.0</ele><time>2026-04-18T18:27:51Z</time></trkpt><trkpt lat="43.58834033989693" lon="10.629521015612548"><ele>31.0</ele><time>2026-04-18T18:27:52Z</time></trkpt><trkpt lat="43.588271294665766" lon="10.629489313959267"><ele>31.0</ele><time>2026-04-18T18:27:53Z</time></trkpt><trkpt lat="43.588208697732156" lon="10.629392696915673"><ele>31.000000000000004</ele><time>2026-04-18T18:27:54Z</time></trkpt><trkpt lat="43.58817009333962" lon="10.629257554206145"><ele>31.0</ele><time>2026-04-18T18:27:55Z</time></trkpt><trkpt lat="43.58811836859597" lon="10.629135813500097"><ele>30.8</ele><time>2026-04-18T18:27:56Z</time></trkpt><trkpt lat="43.58809318376716" lon="10.62903427128315"><ele>30.6</ele><time>2026-04-18T18:27:57Z</time></trkpt><trkpt lat="43.58803065581665" lon="10.628877653211093"><ele>30.4</ele><time>2026-04-18T18:27:59Z</time></trkpt><trkpt lat="43.58795311562319" lon="10.628795334167306"><ele>30.2</ele><time>2026-04-18T18:28:00Z</time></trkpt><trkpt lat="43.58784830992798" lon="10.628745845703156"><ele>30.0</ele><time>2026-04-18T18:28:01Z</time></trkpt><trkpt lat="43.587734756780215" lon="10.62873217712822"><ele>30.0</ele><time>2026-04-18T18:28:02Z</time></trkpt><trkpt lat="43.58762450531605" lon="10.628737702434572"><ele>30.0</ele><time>2026-04-18T18:28:03Z</time></trkpt><trkpt lat="43.58750627260831" lon="10.62872970013754"><ele>30.0</ele><time>2026-04-18T18:28:04Z</time></trkpt><trkpt lat="43.5874093646069" lon="10.628730329688665"><ele>30.0</ele><time>2026-04-18T18:28:05Z</time></trkpt><trkpt lat="43.58732080934322" lon="10.628728328859799"><ele>30.0</ele><time>2026-04-18T18:28:06Z</time></trkpt><trkpt lat="43.587243890015706" lon="10.628731800573004"><ele>30.0</ele><time>2026-04-18T18:28:07Z</time></trkpt><trkpt lat="43.58716331097995" lon="10.628687636598004"><ele>30.0</ele><time>2026-04-18T18:28:08Z</time></trkpt><trkpt lat="43.587076706414926" lon="10.628610950207628"><ele>30.0</ele><time>2026-04-18T18:28:09Z</time></trkpt><trkpt lat="43.586985447965716" lon="10.628486899932097"><ele>30.0</ele><time>2026-04-18T18:28:10Z</time></trkpt><trkpt lat="43.586889356435115" lon="10.628350143733323"><ele>30.0</ele><time>2026-04-18T18:28:11Z</time></trkpt><trkpt lat="43.58677979531995" lon="10.628222819519324"><ele>30.0</ele><time>2026-04-18T18:28:12Z</time></trkpt><trkpt lat="43.586685160038456" lon="10.628127305308073"><ele>30.0</ele><time>2026-04-18T18:28:13Z</time></trkpt><trkpt lat="43.586606927844" lon="10.62804555701721"><ele>30.0</ele><time>2026-04-18T18:28:14Z</time></trkpt><trkpt lat="43.58653192174533" lon="10.62796238070087"><ele>30.0</ele><time>2026-04-18T18:28:15Z</time></trkpt><trkpt lat="43.5864683174" lon="10.627890854057329"><ele>30.0</ele><time>2026-04-18T18:28:16Z</time></trkpt><trkpt lat="43.586405068364385" lon="10.627840649916541"><ele>30.0</ele><time>2026-04-18T18:28:17Z</time></trkpt><trkpt lat="43.58632676141705" lon="10.627801232943176"><ele>30.0</ele><time>2026-04-18T18:28:18Z</time></trkpt><trkpt lat="43.586236146844975" lon="10.627788382933625"><ele>30.0</ele><time>2026-04-18T18:28:19Z</time></trkpt><trkpt lat="43.586136356816496" lon="10.62787985353362"><ele>30.0</ele><time>2026-04-18T18:28:20Z</time></trkpt><trkpt lat="43.5860378658573" lon="10.6279353548854"><ele>30.6</ele><time>2026-04-18T18:28:21Z</time></trkpt><trkpt lat="43.5859364677513" lon="10.627997538746895"><ele>31.2</ele><time>2026-04-18T18:28:22Z</time></trkpt><trkpt lat="43.58583300170644" lon="10.628063588291901"><ele>31.799999999999997</ele><time>2026-04-18T18:28:23Z</time></trkpt><trkpt lat="43.5857429043659" lon="10.628134847155051"><ele>32.4</ele><time>2026-04-18T18:28:24Z</time></trkpt><trkpt lat="43.58564940894126" lon="10.628169374780867"><ele>33.0</ele><time>2026-04-18T18:28:25Z</time></trkpt><trkpt lat="43.58556789820479" lon="10.628210210444378"><ele>33.0</ele><time>2026-04-18T18:28:26Z</time></trkpt><trkpt lat="43.585461234722665" lon="10.62825321981974"><ele>33.0</ele><time>2026-04-18T18:28:27Z</time></trkpt><trkpt lat="43.58535863475333" lon="10.628281996593325"><ele>33.0</ele><time>2026-04-18T18:28:28Z</time></trkpt><trkpt lat="43.58525805937737" lon="10.628295257778687"><ele>33.0</ele><time>2026-04-18T18:28:29Z</time></trkpt><trkpt lat="43.58514267453347" lon="10.628313444110843"><ele>33.0</ele><time>2026-04-18T18:28:30Z</time></trkpt><trkpt lat="43.58502941172024" lon="10.628338636014773"><ele>33.199999999999996</ele><time>2026-04-18T18:28:31Z</time></trkpt><trkpt lat="43.58491523284926" lon="10.62837540316838"><ele>33.4</ele><time>2026-04-18T18:28:32Z</time></trkpt><trkpt lat="43.58480340839854" lon="10.62841934875661"><ele>33.599999999999994</ele><time>2026-04-18T18:28:33Z</time></trkpt><trkpt lat="43.584700863362904" lon="10.628462776509204"><ele>33.8</ele><time>2026-04-18T18:28:34Z</time></trkpt><trkpt lat="43.58460780570334" lon="10.628504187087188"><ele>34.0</ele><time>2026-04-18T18:28:35Z</time></trkpt><trkpt lat="43.584509223894194" lon="10.628548054032715"><ele>34.0</ele><time>2026-04-18T18:28:36Z</time></trkpt><trkpt lat="43.58441138535254" lon="10.628591590232803"><ele>34.0</ele><time>2026-04-18T18:28:37Z</time></trkpt><trkpt lat="43.58431641558255" lon="10.628624060707864"><ele>34.0</ele><time>2026-04-18T18:28:38Z</time></trkpt><trkpt lat="43.584215017146995" lon="10.628640397599012"><ele>34.0</ele><time>2026-04-18T18:28:39Z</time></trkpt><trkpt lat="43.58411728570513" lon="10.628646025435351"><ele>34.0</ele><time>2026-04-18T18:28:40Z</time></trkpt><trkpt lat="43.584014892711316" lon="10.62863404128423"><ele>34.0</ele><time>2026-04-18T18:28:41Z</time></trkpt><trkpt lat="43.58391498847942" lon="10.628618338388177"><ele>34.0</ele><time>2026-04-18T18:28:42Z</time></trkpt><trkpt lat="43.58381252135586" lon="10.628600762104632"><ele>34.0</ele><time>2026-04-18T18:28:43Z</time></trkpt><trkpt lat="43.5837024027461" lon="10.628580027461476"><ele>34.0</ele><time>2026-04-18T18:28:44Z</time></trkpt><trkpt lat="43.583580522312445" lon="10.628577466394706"><ele>34.0</ele><time>2026-04-18T18:28:45Z</time></trkpt><trkpt lat="43.5834455747701" lon="10.62854239277412"><ele>35.333333333333336</ele><time>2026-04-18T18:28:46Z</time></trkpt><trkpt lat="43.583287144412516" lon="10.628499922736472"><ele>36.666666666666664</ele><time>2026-04-18T18:28:47Z</time></trkpt><trkpt lat="43.58312494387026" lon="10.628457031366631"><ele>38.0</ele><time>2026-04-18T18:28:48Z</time></trkpt><trkpt lat="43.58297016777231" lon="10.628419402827054"><ele>37.0</ele><time>2026-04-18T18:28:49Z</time></trkpt><trkpt lat="43.58283182334983" lon="10.628371782450488"><ele>36.0</ele><time>2026-04-18T18:28:50Z</time></trkpt><trkpt lat="43.582666506833064" lon="10.628337099139378"><ele>35.0</ele><time>2026-04-18T18:28:51Z</time></trkpt><trkpt lat="43.582458791559496" lon="10.628299551964156"><ele>35.0</ele><time>2026-04-18T18:28:52Z</time></trkpt><trkpt lat="43.582298908794456" lon="10.6282526807812"><ele>35.0</ele><time>2026-04-18T18:28:53Z</time></trkpt><trkpt lat="43.58216190568581" lon="10.628225387436329"><ele>35.0</ele><time>2026-04-18T18:28:54Z</time></trkpt><trkpt lat="43.58201859130049" lon="10.628204754105864"><ele>35.0</ele><time>2026-04-18T18:28:55Z</time></trkpt><trkpt lat="43.5818646851349" lon="10.628204815210944"><ele>35.5</ele><time>2026-04-18T18:28:56Z</time></trkpt><trkpt lat="43.58172977104661" lon="10.628214604989296"><ele>36.0</ele><time>2026-04-18T18:28:57Z</time></trkpt><trkpt lat="43.58160339960001" lon="10.628224995065013"><ele>36.5</ele><time>2026-04-18T18:28:58Z</time></trkpt><trkpt lat="43.58147650878587" lon="10.628223350758168"><ele>37.0</ele><time>2026-04-18T18:28:59Z</time></trkpt><trkpt lat="43.581366477028496" lon="10.628203415382695"><ele>37.0</ele><time>2026-04-18T18:29:00Z</time></trkpt><trkpt lat="43.58125497342322" lon="10.628168000333806"><ele>37.0</ele><time>2026-04-18T18:29:01Z</time></trkpt><trkpt lat="43.581134875727024" lon="10.628125488274014"><ele>37.0</ele><time>2026-04-18T18:29:02Z</time></trkpt><trkpt lat="43.58101057472754" lon="10.628071649950215"><ele>37.0</ele><time>2026-04-18T18:29:03Z</time></trkpt><trkpt lat="43.580898725420965" lon="10.628022161655393"><ele>36.800000000000004</ele><time>2026-04-18T18:29:04Z</time></trkpt><trkpt lat="43.580806611968015" lon="10.627970492425685"><ele>36.6</ele><time>2026-04-18T18:29:05Z</time></trkpt><trkpt lat="43.58071503729636" lon="10.627922525620615"><ele>36.400000000000006</ele><time>2026-04-18T18:29:06Z</time></trkpt><trkpt lat="43.58062542259367" lon="10.627888057943643"><ele>36.2</ele><time>2026-04-18T18:29:07Z</time></trkpt><trkpt lat="43.58053181279526" lon="10.627891464267316"><ele>36.0</ele><time>2026-04-18T18:29:08Z</time></trkpt><trkpt lat="43.58043870596069" lon="10.627903417755451"><ele>36.0</ele><time>2026-04-18T18:29:09Z</time></trkpt><trkpt lat="43.580355596555236" lon="10.627934052573773"><ele>36.0</ele><time>2026-04-18T18:29:10Z</time></trkpt><trkpt lat="43.58028156044592" lon="10.627974205959196"><ele>36.0</ele><time>2026-04-18T18:29:11Z</time></trkpt><trkpt lat="43.580205943747885" lon="10.627990638593113"><ele>36.0</ele><time>2026-04-18T18:29:12Z</time></trkpt><trkpt lat="43.58014059538926" lon="10.628025944252483"><ele>36.0</ele><time>2026-04-18T18:29:13Z</time></trkpt><trkpt lat="43.58006142461576" lon="10.628068717712587"><ele>36.0</ele><time>2026-04-18T18:29:14Z</time></trkpt><trkpt lat="43.57997638027722" lon="10.628136138144232"><ele>36.0</ele><time>2026-04-18T18:29:15Z</time></trkpt><trkpt lat="43.579892281163104" lon="10.628181761163114"><ele>36.0</ele><time>2026-04-18T18:29:16Z</time></trkpt><trkpt lat="43.579817965812886" lon="10.628222783760203"><ele>36.0</ele><time>2026-04-18T18:29:17Z</time></trkpt><trkpt lat="43.57975359201455" lon="10.62825732160139"><ele>36.0</ele><time>2026-04-18T18:29:18Z</time></trkpt><trkpt lat="43.579650786998286" lon="10.628312686853507"><ele>36.0</ele><time>2026-04-18T18:29:20Z</time></trkpt><trkpt lat="43.579587164316855" lon="10.628330873729166"><ele>36.0</ele><time>2026-04-18T18:29:22Z</time></trkpt><trkpt lat="43.57952406310095" lon="10.628353287780707"><ele>36.0</ele><time>2026-04-18T18:29:26Z</time></trkpt><trkpt lat="43.579494859844345" lon="10.628193092813046"><ele>36.0</ele><time>2026-04-18T18:29:27Z</time></trkpt><trkpt lat="43.57944581686769" lon="10.628086245130088"><ele>36.0</ele><time>2026-04-18T18:29:28Z</time></trkpt><trkpt lat="43.57941056903298" lon="10.62793501381892"><ele>36.0</ele><time>2026-04-18T18:29:29Z</time></trkpt><trkpt lat="43.57937338896066" lon="10.627782184864087"><ele>36.0</ele><time>2026-04-18T18:29:30Z</time></trkpt><trkpt lat="43.57932903084083" lon="10.627626307140398"><ele>37.25</ele><time>2026-04-18T18:29:31Z</time></trkpt><trkpt lat="43.57928089810197" lon="10.627448585160256"><ele>38.5</ele><time>2026-04-18T18:29:32Z</time></trkpt><trkpt lat="43.579239166707296" lon="10.627295758507906"><ele>39.75</ele><time>2026-04-18T18:29:33Z</time></trkpt><trkpt lat="43.57920088218575" lon="10.627153522031803"><ele>41.0</ele><time>2026-04-18T18:29:34Z</time></trkpt><trkpt lat="43.57916142236102" lon="10.62702135684923"><ele>42.599999999999994</ele><time>2026-04-18T18:29:35Z</time></trkpt><trkpt lat="43.57912345198339" lon="10.62689841854298"><ele>44.2</ele><time>2026-04-18T18:29:36Z</time></trkpt><trkpt lat="43.579086559187054" lon="10.626780877150608"><ele>45.8</ele><time>2026-04-18T18:29:37Z</time></trkpt><trkpt lat="43.57905757327908" lon="10.626660335394442"><ele>47.400000000000006</ele><time>2026-04-18T18:29:38Z</time></trkpt><trkpt lat="43.579042568115" lon="10.626532470334734"><ele>49.0</ele><time>2026-04-18T18:29:39Z</time></trkpt><trkpt lat="43.57904440264217" lon="10.626418747541807"><ele>49.0</ele><time>2026-04-18T18:29:40Z</time></trkpt><trkpt lat="43.57905241039446" lon="10.626299902551878"><ele>49.0</ele><time>2026-04-18T18:29:41Z</time></trkpt><trkpt lat="43.57906433691751" lon="10.626162081238029"><ele>49.0</ele><time>2026-04-18T18:29:42Z</time></trkpt><trkpt lat="43.579077878776666" lon="10.626000214511441"><ele>49.0</ele><time>2026-04-18T18:29:43Z</time></trkpt><trkpt lat="43.579081169722976" lon="10.625828503860223"><ele>49.0</ele><time>2026-04-18T18:29:44Z</time></trkpt><trkpt lat="43.57907431162723" lon="10.625673374254868"><ele>50.5</ele><time>2026-04-18T18:29:45Z</time></trkpt><trkpt lat="43.57906109326302" lon="10.62552980330397"><ele>52.0</ele><time>2026-04-18T18:29:46Z</time></trkpt><trkpt lat="43.579035783990406" lon="10.625376582341387"><ele>53.5</ele><time>2026-04-18T18:29:47Z</time></trkpt><trkpt lat="43.57899753647394" lon="10.625230326111796"><ele>55.0</ele><time>2026-04-18T18:29:48Z</time></trkpt><trkpt lat="43.57896483082519" lon="10.625072539845744"><ele>56.4</ele><time>2026-04-18T18:29:49Z</time></trkpt><trkpt lat="43.57891647956015" lon="10.62496337935635"><ele>57.8</ele><time>2026-04-18T18:29:50Z</time></trkpt><trkpt lat="43.57888701276875" lon="10.624853759935702"><ele>59.2</ele><time>2026-04-18T18:29:51Z</time></trkpt><trkpt lat="43.57887743503831" lon="10.624725904365025"><ele>60.6</ele><time>2026-04-18T18:29:52Z</time></trkpt><trkpt lat="43.57889269526897" lon="10.624598665154442"><ele>62.0</ele><time>2026-04-18T18:29:53Z</time></trkpt><trkpt lat="43.578893503070624" lon="10.624466695408493"><ele>63.400000000000006</ele><time>2026-04-18T18:29:54Z</time></trkpt><trkpt lat="43.57890645756629" lon="10.624328758898722"><ele>64.80000000000001</ele><time>2026-04-18T18:29:55Z</time></trkpt><trkpt lat="43.57894007392191" lon="10.624206850122105"><ele>66.2</ele><time>2026-04-18T18:29:56Z</time></trkpt><trkpt lat="43.57898865669386" lon="10.624057388772199"><ele>67.60000000000001</ele><time>2026-04-18T18:29:57Z</time></trkpt><trkpt lat="43.57904096701794" lon="10.623901094298393"><ele>69.0</ele><time>2026-04-18T18:29:58Z</time></trkpt><trkpt lat="43.57909122211068" lon="10.623757517585998"><ele>70.0</ele><time>2026-04-18T18:29:59Z</time></trkpt><trkpt lat="43.57912336096205" lon="10.623643078010643"><ele>71.0</ele><time>2026-04-18T18:30:00Z</time></trkpt><trkpt lat="43.57914489478899" lon="10.62354658430656"><ele>72.0</ele><time>2026-04-18T18:30:01Z</time></trkpt><trkpt lat="43.57916749509256" lon="10.623416344012407"><ele>73.0</ele><time>2026-04-18T18:30:03Z</time></trkpt><trkpt lat="43.57916899224758" lon="10.62331843117026"><ele>74.0</ele><time>2026-04-18T18:30:06Z</time></trkpt><trkpt lat="43.57928129652954" lon="10.62336911699369"><ele>75.0</ele><time>2026-04-18T18:30:07Z</time></trkpt><trkpt lat="43.579381675337835" lon="10.623393368356487"><ele>75.0</ele><time>2026-04-18T18:30:09Z</time></trkpt><trkpt lat="43.579488668268" lon="10.623399804117945"><ele>75.0</ele><time>2026-04-18T18:30:11Z</time></trkpt><trkpt lat="43.57959238737323" lon="10.62337757314694"><ele>75.0</ele><time>2026-04-18T18:30:13Z</time></trkpt><trkpt lat="43.57969324240107" lon="10.623348920129684"><ele>75.0</ele><time>2026-04-18T18:30:15Z</time></trkpt><trkpt lat="43.579782549287906" lon="10.623288485658197"><ele>75.0</ele><time>2026-04-18T18:30:17Z</time></trkpt><trkpt lat="43.57987001963231" lon="10.623273291175042"><ele>74.0</ele><time>2026-04-18T18:30:19Z</time></trkpt><trkpt lat="43.57994867418521" lon="10.623179708113597"><ele>73.0</ele><time>2026-04-18T18:30:21Z</time></trkpt><trkpt lat="43.58002828975855" lon="10.623089069204612"><ele>72.0</ele><time>2026-04-18T18:30:23Z</time></trkpt><trkpt lat="43.580113368461255" lon="10.62300212134119"><ele>71.0</ele><time>2026-04-18T18:30:25Z</time></trkpt><trkpt lat="43.58019555931167" lon="10.622940116677919"><ele>70.0</ele><time>2026-04-18T18:30:27Z</time></trkpt><trkpt lat="43.580294585216606" lon="10.62286324437324"><ele>72.0</ele><time>2026-04-18T18:30:29Z</time></trkpt><trkpt lat="43.58039896103869" lon="10.622798544173992"><ele>74.0</ele><time>2026-04-18T18:30:31Z</time></trkpt><trkpt lat="43.58048245899622" lon="10.62275773513784"><ele>76.0</ele><time>2026-04-18T18:30:33Z</time></trkpt><trkpt lat="43.58058087614299" lon="10.62273334179338"><ele>78.0</ele><time>2026-04-18T18:30:35Z</time></trkpt><trkpt lat="43.5806878771198" lon="10.622710802028685"><ele>80.0</ele><time>2026-04-18T18:30:37Z</time></trkpt><trkpt lat="43.580744542488674" lon="10.622759668426712"><ele>80.0</ele><time>2026-04-18T18:30:38Z</time></trkpt><trkpt lat="43.58083667849687" lon="10.622805190685959"><ele>80.0</ele><time>2026-04-18T18:30:40Z</time></trkpt><trkpt lat="43.58092311478557" lon="10.622864167944337"><ele>80.0</ele><time>2026-04-18T18:30:43Z</time></trkpt><trkpt lat="43.580993760339425" lon="10.622878019994143"><ele>80.0</ele><time>2026-04-18T18:30:45Z</time></trkpt><trkpt lat="43.581069651824826" lon="10.622892900647727"><ele>80.0</ele><time>2026-04-18T18:30:47Z</time></trkpt><trkpt lat="43.58114198919399" lon="10.622869752026245"><ele>80.0</ele><time>2026-04-18T18:30:49Z</time></trkpt><trkpt lat="43.58115839034942" lon="10.622719343356996"><ele>80.0</ele><time>2026-04-18T18:30:50Z</time></trkpt><trkpt lat="43.58117951625663" lon="10.622623595863898"><ele>80.0</ele><time>2026-04-18T18:30:52Z</time></trkpt><trkpt lat="43.5812120723815" lon="10.62253962786307"><ele>80.0</ele><time>2026-04-18T18:30:54Z</time></trkpt><trkpt lat="43.581236882256334" lon="10.622439418151584"><ele>80.0</ele><time>2026-04-18T18:30:57Z</time></trkpt><trkpt lat="43.58134327163526" lon="10.622412540147664"><ele>80.0</ele><time>2026-04-18T18:36:17.001Z</time></trkpt><trkpt lat="43.581410434346715" lon="10.622472041572003"><ele>80.0</ele><time>2026-04-18T18:36:23.001Z</time></trkpt><trkpt lat="43.58138644367044" lon="10.622382119153361"><ele>78.5</ele><time>2026-04-18T18:36:33.001Z</time></trkpt><trkpt lat="43.58129480563035" lon="10.622316065414736"><ele>77.0</ele><time>2026-04-18T18:36:39.001Z</time></trkpt><trkpt lat="43.581301158437824" lon="10.622226109923103"><ele>75.5</ele><time>2026-04-18T18:36:56.001Z</time></trkpt><trkpt lat="43.58123999317089" lon="10.622198864768869"><ele>74.0</ele><time>2026-04-18T18:37:00.001Z</time></trkpt><trkpt lat="43.58126697143306" lon="10.622329106531724"><ele>72.5</ele><time>2026-04-18T18:37:10.001Z</time></trkpt><trkpt lat="43.581207921623495" lon="10.62239124304403"><ele>71.0</ele><time>2026-04-18T18:37:21.001Z</time></trkpt><trkpt lat="43.58120438747266" lon="10.62248993192773"><ele>71.0</ele><time>2026-04-18T18:37:25.001Z</time></trkpt><trkpt lat="43.58121776376396" lon="10.622589684674564"><ele>71.0</ele><time>2026-04-18T18:37:32.001Z</time></trkpt><trkpt lat="43.58123073652459" lon="10.622674885415126"><ele>71.0</ele><time>2026-04-18T18:37:44.001Z</time></trkpt><trkpt lat="43.581308338525" lon="10.622691446761875"><ele>71.0</ele><time>2026-04-18T18:37:49.001Z</time></trkpt><trkpt lat="43.581360237403615" lon="10.622596937120045"><ele>71.0</ele><time>2026-04-18T18:38:18.001Z</time></trkpt><trkpt lat="43.58137286254368" lon="10.62251123010289"><ele>71.0</ele><time>2026-04-18T18:38:34Z</time></trkpt><trkpt lat="43.58136069683967" lon="10.622601990442455"><ele>71.0</ele><time>2026-04-18T18:38:47Z</time></trkpt><trkpt lat="43.581319199082635" lon="10.62267320349213"><ele>71.0</ele><time>2026-04-18T18:39:07Z</time></trkpt><trkpt lat="43.581266023780785" lon="10.62273394276672"><ele>71.0</ele><time>2026-04-18T18:39:14Z</time></trkpt><trkpt lat="43.58119111800844" lon="10.622780436049846"><ele>71.0</ele><time>2026-04-18T18:39:19Z</time></trkpt><trkpt lat="43.58112032603756" lon="10.62282250142247"><ele>71.0</ele><time>2026-04-18T18:39:23Z</time></trkpt><trkpt lat="43.58107250578168" lon="10.622880823733365"><ele>71.0</ele><time>2026-04-18T18:39:28Z</time></trkpt><trkpt lat="43.581063794095385" lon="10.622968040815167"><ele>71.0</ele><time>2026-04-18T18:39:33Z</time></trkpt><trkpt lat="43.58107309726952" lon="10.623067705318778"><ele>71.0</ele><time>2026-04-18T18:39:38Z</time></trkpt><trkpt lat="43.58111075674813" lon="10.623150383574057"><ele>70.85714285714286</ele><time>2026-04-18T18:39:43Z</time></trkpt><trkpt lat="43.58114328536606" lon="10.623229257665066"><ele>70.71428571428571</ele><time>2026-04-18T18:39:48Z</time></trkpt><trkpt lat="43.5811855540774" lon="10.62331519781391"><ele>70.57142857142857</ele><time>2026-04-18T18:39:53Z</time></trkpt><trkpt lat="43.58121511788144" lon="10.623405876653322"><ele>70.42857142857143</ele><time>2026-04-18T18:39:58Z</time></trkpt><trkpt lat="43.58126010774052" lon="10.623468482869638"><ele>70.28571428571428</ele><time>2026-04-18T18:40:03Z</time></trkpt><trkpt lat="43.58130238026953" lon="10.62340155784066"><ele>70.14285714285714</ele><time>2026-04-18T18:40:35Z</time></trkpt><trkpt lat="43.5812429679526" lon="10.623446213991075"><ele>70.0</ele><time>2026-04-18T19:49:36Z</time></trkpt><trkpt lat="43.581200759970784" lon="10.62337468927886"><ele>70.0</ele><time>2026-04-18T19:49:42Z</time></trkpt><trkpt lat="43.5811820015594" lon="10.623287778319659"><ele>70.0</ele><time>2026-04-18T19:49:48Z</time></trkpt><trkpt lat="43.5811295179913" lon="10.623222025229419"><ele>70.0</ele><time>2026-04-18T19:49:54Z</time></trkpt><trkpt lat="43.58107636496482" lon="10.623151616465892"><ele>70.0</ele><time>2026-04-18T19:50:01Z</time></trkpt><trkpt lat="43.5810250446985" lon="10.623079798065485"><ele>70.0</ele><time>2026-04-18T19:50:06Z</time></trkpt><trkpt lat="43.581006742935074" lon="10.622995366438797"><ele>70.0</ele><time>2026-04-18T19:50:12Z</time></trkpt><trkpt lat="43.58099690290868" lon="10.622905561051262"><ele>70.0</ele><time>2026-04-18T19:50:26Z</time></trkpt><trkpt lat="43.58102741782013" lon="10.62282529920417"><ele>70.14285714285714</ele><time>2026-04-18T19:50:32Z</time></trkpt><trkpt lat="43.581085677084644" lon="10.622784891827223"><ele>70.28571428571428</ele><time>2026-04-18T19:50:40Z</time></trkpt><trkpt lat="43.58111331480219" lon="10.622700512132033"><ele>70.42857142857143</ele><time>2026-04-18T19:50:49Z</time></trkpt><trkpt lat="43.58114475611267" lon="10.62261412161741"><ele>70.57142857142857</ele><time>2026-04-18T19:50:55Z</time></trkpt><trkpt lat="43.58116561378397" lon="10.622525106137209"><ele>70.71428571428571</ele><time>2026-04-18T19:51:02Z</time></trkpt><trkpt lat="43.58118897180987" lon="10.622443552817916"><ele>70.85714285714286</ele><time>2026-04-18T19:51:07Z</time></trkpt><trkpt lat="43.58119798868703" lon="10.622336572007134"><ele>71.0</ele><time>2026-04-18T19:51:31Z</time></trkpt><trkpt lat="43.58117044032636" lon="10.622198484944581"><ele>71.33333333333334</ele><time>2026-04-18T19:51:54.065Z</time></trkpt><trkpt lat="43.581152975041164" lon="10.622091087646712"><ele>71.66666666666667</ele><time>2026-04-18T19:51:55.062Z</time></trkpt><trkpt lat="43.58112421669367" lon="10.622007435639624"><ele>72.0</ele><time>2026-04-18T19:51:57.063Z</time></trkpt><trkpt lat="43.58109516631732" lon="10.621892199732667"><ele>72.33333333333333</ele><time>2026-04-18T19:52:00.062Z</time></trkpt><trkpt lat="43.581123148308194" lon="10.622037726773316"><ele>72.66666666666666</ele><time>2026-04-18T19:52:02.064Z</time></trkpt><trkpt lat="43.58109497180506" lon="10.62192007717005"><ele>73.0</ele><time>2026-04-18T19:52:07.063Z</time></trkpt><trkpt lat="43.581140564445484" lon="10.622022338092775"><ele>72.6</ele><time>2026-04-18T19:52:25.056Z</time></trkpt><trkpt lat="43.58106805831519" lon="10.622095804939416"><ele>72.19999999999999</ele><time>2026-04-18T19:52:26.058Z</time></trkpt><trkpt lat="43.58122090531482" lon="10.6219532487211"><ele>71.8</ele><time>2026-04-18T19:52:41Z</time></trkpt><trkpt lat="43.581284509121076" lon="10.621986460114812"><ele>71.39999999999999</ele><time>2026-04-18T19:52:49Z</time></trkpt><trkpt lat="43.58126498955161" lon="10.622072246941572"><ele>71.0</ele><time>2026-04-18T19:53:26Z</time></trkpt><trkpt lat="43.58128685084165" lon="10.622196525958426"><ele>71.0</ele><time>2026-04-18T19:53:33Z</time></trkpt><trkpt lat="43.581340386136105" lon="10.622264332873524"><ele>71.0</ele><time>2026-04-18T19:53:41Z</time></trkpt><trkpt lat="43.58133095986235" lon="10.622403442794935"><ele>71.0</ele><time>2026-04-18T19:53:42Z</time></trkpt><trkpt lat="43.581316918514055" lon="10.622512256356424"><ele>71.0</ele><time>2026-04-18T19:53:44Z</time></trkpt><trkpt lat="43.58129011393863" lon="10.622601411741988"><ele>71.0</ele><time>2026-04-18T19:53:47Z</time></trkpt><trkpt lat="43.58122498274042" lon="10.62267001960705"><ele>71.0</ele><time>2026-04-18T19:53:49Z</time></trkpt><trkpt lat="43.58118717172878" lon="10.62275394262288"><ele>70.5</ele><time>2026-04-18T19:53:51Z</time></trkpt><trkpt lat="43.58116067942066" lon="10.622893819181135"><ele>70.0</ele><time>2026-04-18T19:53:53Z</time></trkpt><trkpt lat="43.58117360625589" lon="10.622355001970362"><ele>70.16666666666666</ele><time>2026-04-18T19:53:55Z</time></trkpt><trkpt lat="43.581231983886376" lon="10.622221303460423"><ele>70.33333333333333</ele><time>2026-04-18T19:53:58.06Z</time></trkpt><trkpt lat="43.58128120694491" lon="10.622163781532288"><ele>70.5</ele><time>2026-04-18T21:23:06.001Z</time></trkpt><trkpt lat="43.58132834198861" lon="10.622229045864295"><ele>70.66666666666667</ele><time>2026-04-19T07:04:09Z</time></trkpt><trkpt lat="43.58135238779532" lon="10.62231079722559"><ele>70.83333333333334</ele><time>2026-04-19T07:04:19Z</time></trkpt><trkpt lat="43.581297851000116" lon="10.622254722722289"><ele>71.0</ele><time>2026-04-19T07:04:31Z</time></trkpt><trkpt lat="43.58122741884682" lon="10.622317748705663"><ele>71.0</ele><time>2026-04-19T07:04:42.061Z</time></trkpt><trkpt lat="43.581456818482884" lon="10.622147200950865"><ele>71.0</ele><time>2026-04-19T07:04:44Z</time></trkpt><trkpt lat="43.58105469764266" lon="10.622635147690097"><ele>71.0</ele><time>2026-04-19T07:04:45Z</time></trkpt><trkpt lat="43.5811975010137" lon="10.622320103041545"><ele>71.0</ele><time>2026-04-19T07:04:50Z</time></trkpt><trkpt lat="43.581230426511304" lon="10.62219708041915"><ele>71.0</ele><time>2026-04-19T07:04:51Z</time></trkpt><trkpt lat="43.58128776419569" lon="10.62225228434494"><ele>71.0</ele><time>2026-04-19T07:05:03Z</time></trkpt><trkpt lat="43.58122433151487" lon="10.62229153531586"><ele>72.28571428571428</ele><time>2026-04-19T07:05:11Z</time></trkpt><trkpt lat="43.5811539786233" lon="10.622308791437248"><ele>73.57142857142857</ele><time>2026-04-19T07:05:17Z</time></trkpt><trkpt lat="43.58109326124954" lon="10.622252431935543"><ele>74.85714285714286</ele><time>2026-04-19T07:05:25Z</time></trkpt><trkpt lat="43.58102351605781" lon="10.62224668587393"><ele>76.14285714285714</ele><time>2026-04-19T07:05:30Z</time></trkpt><trkpt lat="43.58094920778855" lon="10.622203827801302"><ele>77.42857142857143</ele><time>2026-04-19T07:05:37Z</time></trkpt><trkpt lat="43.58088401075033" lon="10.622188102730446"><ele>78.71428571428571</ele><time>2026-04-19T07:05:42Z</time></trkpt><trkpt lat="43.580808633197066" lon="10.62217700564595"><ele>80.0</ele><time>2026-04-19T07:06:03Z</time></trkpt><trkpt lat="43.58074912644112" lon="10.622131965955882"><ele>80.0</ele><time>2026-04-19T07:06:11Z</time></trkpt><trkpt lat="43.580824053629215" lon="10.622112677006944"><ele>80.0</ele><time>2026-04-19T07:06:39Z</time></trkpt><trkpt lat="43.58087822214451" lon="10.622170081211058"><ele>80.0</ele><time>2026-04-19T07:21:02Z</time></trkpt><trkpt lat="43.580943980690314" lon="10.62218552817588"><ele>80.0</ele><time>2026-04-19T07:21:08Z</time></trkpt><trkpt lat="43.581012880897966" lon="10.62220130015997"><ele>80.0</ele><time>2026-04-19T07:21:20Z</time></trkpt><trkpt lat="43.58107524722866" lon="10.622259804377796"><ele>80.0</ele><time>2026-04-19T07:21:30Z</time></trkpt><trkpt lat="43.581125662642485" lon="10.622316592386507"><ele>80.0</ele><time>2026-04-19T07:47:15Z</time></trkpt><trkpt lat="43.581194227938546" lon="10.622338730125536"><ele>78.71428571428571</ele><time>2026-04-19T07:47:21.001Z</time></trkpt><trkpt lat="43.581258512948814" lon="10.622336675870299"><ele>77.42857142857143</ele><time>2026-04-19T07:47:29Z</time></trkpt><trkpt lat="43.581313284772726" lon="10.622282302671088"><ele>76.14285714285714</ele><time>2026-04-19T07:47:33Z</time></trkpt><trkpt lat="43.581321481942894" lon="10.622176221209632"><ele>74.85714285714286</ele><time>2026-04-19T07:47:38Z</time></trkpt><trkpt lat="43.581299878050345" lon="10.622092429399919"><ele>73.57142857142857</ele><time>2026-04-19T07:47:45Z</time></trkpt><trkpt lat="43.581235632790936" lon="10.622088771211414"><ele>72.28571428571428</ele><time>2026-04-19T07:47:57Z</time></trkpt><trkpt lat="43.581315357913205" lon="10.622130030658996"><ele>71.0</ele><time>2026-04-19T07:48:15Z</time></trkpt><trkpt lat="43.581359347726966" lon="10.622220248727457"><ele>71.0</ele><time>2026-04-19T07:48:17Z</time></trkpt><trkpt lat="43.58142733946114" lon="10.622107376439502"><ele>71.0</ele><time>2026-04-19T07:48:34Z</time></trkpt><trkpt lat="43.58133993763189" lon="10.621976929195986"><ele>71.0</ele><time>2026-04-19T07:48:42Z</time></trkpt><trkpt lat="43.581378723803766" lon="10.62173306333229"><ele>71.0</ele><time>2026-04-19T07:48:57.063Z</time></trkpt><trkpt lat="43.581270599767095" lon="10.622110365976223"><ele>71.0</ele><time>2026-04-19T07:49:08.065Z</time></trkpt><trkpt lat="43.58106530440609" lon="10.622244081303803"><ele>71.0</ele><time>2026-04-19T07:49:35Z</time></trkpt><trkpt lat="43.58121275357437" lon="10.62217033748287"><ele>71.0</ele><time>2026-04-19T07:49:39Z</time></trkpt><trkpt lat="43.58128015131803" lon="10.622154808814912"><ele>71.0</ele><time>2026-04-19T08:08:27.001Z</time></trkpt><trkpt lat="43.581218097912405" lon="10.622185056209217"><ele>71.0</ele><time>2026-04-19T08:11:07Z</time></trkpt><trkpt lat="43.581160939336534" lon="10.622339904982638"><ele>71.0</ele><time>2026-04-19T08:11:16Z</time></trkpt><trkpt lat="43.581201765407855" lon="10.622251229056795"><ele>71.0</ele><time>2026-04-19T08:11:25Z</time></trkpt><trkpt lat="43.58116620265085" lon="10.622174267787406"><ele>71.0</ele><time>2026-04-19T08:11:35Z</time></trkpt><trkpt lat="43.5810943056495" lon="10.622134790564232"><ele>71.0</ele><time>2026-04-19T08:11:37Z</time></trkpt><trkpt lat="43.58113989151378" lon="10.622070317386354"><ele>71.0</ele><time>2026-04-19T08:11:41Z</time></trkpt><trkpt lat="43.5812012494644" lon="10.622135833580163"><ele>71.0</ele><time>2026-04-19T08:12:03.763Z</time></trkpt><trkpt lat="43.58044104062925" lon="10.621482994871249"><ele>71.0</ele><time>2026-04-19T08:12:12Z</time></trkpt><trkpt lat="43.58053933466172" lon="10.621526685512809"><ele>71.0</ele><time>2026-04-19T08:12:13Z</time></trkpt><trkpt lat="43.58121882817586" lon="10.622153309587178"><ele>71.0</ele><time>2026-04-19T08:12:14Z</time></trkpt><trkpt lat="43.58116891751996" lon="10.6223051523184"><ele>71.0</ele><time>2026-04-19T08:12:24Z</time></trkpt><trkpt lat="43.58121606294571" lon="10.622366248749513"><ele>71.0</ele><time>2026-04-19T08:12:38.001Z</time></trkpt><trkpt lat="43.58128061157605" lon="10.622403008325236"><ele>71.0</ele><time>2026-04-19T08:12:41.001Z</time></trkpt><trkpt lat="43.58133749328703" lon="10.622461186782992"><ele>71.0</ele><time>2026-04-19T08:12:58Z</time></trkpt><trkpt lat="43.58143000154647" lon="10.622529545780253"><ele>71.0</ele><time>2026-04-19T08:13:05Z</time></trkpt><trkpt lat="43.581525589266015" lon="10.622557086227122"><ele>71.0</ele><time>2026-04-19T08:13:09Z</time></trkpt><trkpt lat="43.58164203934362" lon="10.62257584161921"><ele>71.0</ele><time>2026-04-19T08:13:11Z</time></trkpt><trkpt lat="43.581587810085985" lon="10.622514771842324"><ele>71.0</ele><time>2026-04-19T08:13:17Z</time></trkpt><trkpt lat="43.58152482647834" lon="10.622524131438318"><ele>71.0</ele><time>2026-04-19T08:13:20Z</time></trkpt><trkpt lat="43.58146151895668" lon="10.622487054851755"><ele>71.0</ele><time>2026-04-19T08:13:26Z</time></trkpt><trkpt lat="43.581380925193045" lon="10.62246721894979"><ele>71.0</ele><time>2026-04-19T08:13:29Z</time></trkpt><trkpt lat="43.58141209735704" lon="10.622382226406833"><ele>71.0</ele><time>2026-04-19T08:13:41Z</time></trkpt><trkpt lat="43.581285842651965" lon="10.622318385455962"><ele>71.0</ele><time>2026-04-19T08:13:51Z</time></trkpt><trkpt lat="43.5812065204453" lon="10.622305317252614"><ele>71.0</ele><time>2026-04-19T08:14:03.064Z</time></trkpt><trkpt lat="43.58125282442138" lon="10.622383946087794"><ele>71.0</ele><time>2026-04-19T08:15:00Z</time></trkpt><trkpt lat="43.58119005564037" lon="10.62239358073515"><ele>71.0</ele><time>2026-04-19T08:19:24Z</time></trkpt><trkpt lat="43.58118532619207" lon="10.622483337027198"><ele>71.0</ele><time>2026-04-19T08:19:29Z</time></trkpt><trkpt lat="43.581181802185235" lon="10.622589706514097"><ele>70.83333333333334</ele><time>2026-04-19T08:19:33Z</time></trkpt><trkpt lat="43.58116236221393" lon="10.622677504800059"><ele>70.66666666666667</ele><time>2026-04-19T08:19:36Z</time></trkpt><trkpt lat="43.58111327476448" lon="10.6227692314774"><ele>70.5</ele><time>2026-04-19T08:19:39Z</time></trkpt><trkpt lat="43.58103418063368" lon="10.622831228359706"><ele>70.33333333333333</ele><time>2026-04-19T08:19:43Z</time></trkpt><trkpt lat="43.58101511101441" lon="10.622949576983059"><ele>70.16666666666666</ele><time>2026-04-19T08:19:46Z</time></trkpt><trkpt lat="43.58104258393815" lon="10.62305403358246"><ele>70.0</ele><time>2026-04-19T08:19:49Z</time></trkpt><trkpt lat="43.581077798373826" lon="10.623140123852679"><ele>70.0</ele><time>2026-04-19T08:19:52Z</time></trkpt><trkpt lat="43.581120325899185" lon="10.623209284602385"><ele>70.0</ele><time>2026-04-19T08:19:55Z</time></trkpt><trkpt lat="43.58116071864029" lon="10.62329267380792"><ele>70.0</ele><time>2026-04-19T08:19:58Z</time></trkpt><trkpt lat="43.58117986548092" lon="10.623378921085575"><ele>70.0</ele><time>2026-04-19T08:20:01Z</time></trkpt><trkpt lat="43.58119013039197" lon="10.62347245504175"><ele>70.0</ele><time>2026-04-19T08:20:05Z</time></trkpt><trkpt lat="43.58121644601503" lon="10.62358004216393"><ele>70.0</ele><time>2026-04-19T08:20:09Z</time></trkpt><trkpt lat="43.581291567748806" lon="10.623618848442812"><ele>70.0</ele><time>2026-04-19T08:20:13Z</time></trkpt><trkpt lat="43.581335016576766" lon="10.623542191417403"><ele>70.0</ele><time>2026-04-19T08:20:17Z</time></trkpt><trkpt lat="43.58127422035264" lon="10.623498881242616"><ele>70.0</ele><time>2026-04-19T08:20:20Z</time></trkpt><trkpt lat="43.58120916503819" lon="10.62348557424192"><ele>70.0</ele><time>2026-04-19T08:20:23Z</time></trkpt><trkpt lat="43.58118699759847" lon="10.62337681778656"><ele>70.0</ele><time>2026-04-19T08:20:34Z</time></trkpt><trkpt lat="43.581154295986735" lon="10.623261310016344"><ele>70.0</ele><time>2026-04-19T08:20:36Z</time></trkpt><trkpt lat="43.581088401471185" lon="10.623156017040845"><ele>70.0</ele><time>2026-04-19T08:20:38Z</time></trkpt><trkpt lat="43.58102924685947" lon="10.623037324385532"><ele>70.0</ele><time>2026-04-19T08:20:40Z</time></trkpt><trkpt lat="43.5810035798229" lon="10.62292965688015"><ele>70.0</ele><time>2026-04-19T08:20:42Z</time></trkpt><trkpt lat="43.58092878788756" lon="10.622842380209034"><ele>70.0</ele><time>2026-04-19T08:20:45Z</time></trkpt><trkpt lat="43.580842704525416" lon="10.622796507084805"><ele>70.0</ele><time>2026-04-19T08:20:47Z</time></trkpt><trkpt lat="43.58072288026417" lon="10.622748620143243"><ele>70.0</ele><time>2026-04-19T08:20:49Z</time></trkpt><trkpt lat="43.58067511992011" lon="10.622690478665163"><ele>70.0</ele><time>2026-04-19T08:20:50Z</time></trkpt><trkpt lat="43.5805598028208" lon="10.622686200072586"><ele>70.0</ele><time>2026-04-19T08:20:52Z</time></trkpt><trkpt lat="43.58044070496891" lon="10.622757425113898"><ele>70.0</ele><time>2026-04-19T08:20:54Z</time></trkpt><trkpt lat="43.58038062748714" lon="10.622799463999845"><ele>70.0</ele><time>2026-04-19T08:20:55Z</time></trkpt><trkpt lat="43.58031655017354" lon="10.622813337467749"><ele>70.0</ele><time>2026-04-19T08:20:56Z</time></trkpt><trkpt lat="43.58021046173022" lon="10.622879966375017"><ele>70.0</ele><time>2026-04-19T08:20:58Z</time></trkpt><trkpt lat="43.58014976660893" lon="10.622942402529155"><ele>70.0</ele><time>2026-04-19T08:20:59Z</time></trkpt><trkpt lat="43.58009409032732" lon="10.623009086743547"><ele>70.0</ele><time>2026-04-19T08:21:00Z</time></trkpt><trkpt lat="43.580024674468504" lon="10.623087364364148"><ele>70.0</ele><time>2026-04-19T08:21:01Z</time></trkpt><trkpt lat="43.57993256854281" lon="10.623189619145823"><ele>70.0</ele><time>2026-04-19T08:21:03Z</time></trkpt><trkpt lat="43.57981568930906" lon="10.623247017496373"><ele>70.0</ele><time>2026-04-19T08:21:05Z</time></trkpt><trkpt lat="43.57969506926661" lon="10.623300655280492"><ele>70.0</ele><time>2026-04-19T08:21:07Z</time></trkpt><trkpt lat="43.57962657029889" lon="10.623347827680492"><ele>70.0</ele><time>2026-04-19T08:21:08Z</time></trkpt><trkpt lat="43.57954635743754" lon="10.62334104313661"><ele>70.0</ele><time>2026-04-19T08:21:09Z</time></trkpt><trkpt lat="43.5794691346422" lon="10.623353402982719"><ele>70.0</ele><time>2026-04-19T08:21:10Z</time></trkpt><trkpt lat="43.579366763451446" lon="10.62335399588286"><ele>69.8</ele><time>2026-04-19T08:21:11Z</time></trkpt><trkpt lat="43.57927382799964" lon="10.62332310032001"><ele>69.6</ele><time>2026-04-19T08:21:12Z</time></trkpt><trkpt lat="43.579198175347706" lon="10.623321076701291"><ele>69.4</ele><time>2026-04-19T08:21:15Z</time></trkpt><trkpt lat="43.57913441120456" lon="10.623320495887118"><ele>69.2</ele><time>2026-04-19T08:21:18Z</time></trkpt><trkpt lat="43.57908775253111" lon="10.623546531594734"><ele>69.0</ele><time>2026-04-19T08:21:20Z</time></trkpt><trkpt lat="43.57905733735345" lon="10.623673635149608"><ele>69.0</ele><time>2026-04-19T08:21:21Z</time></trkpt><trkpt lat="43.57901891034958" lon="10.623813145276117"><ele>69.0</ele><time>2026-04-19T08:21:22Z</time></trkpt><trkpt lat="43.57897388000211" lon="10.623947161388339"><ele>69.0</ele><time>2026-04-19T08:21:23Z</time></trkpt><trkpt lat="43.578929655057216" lon="10.624082620372956"><ele>69.0</ele><time>2026-04-19T08:21:24Z</time></trkpt><trkpt lat="43.57889289516369" lon="10.624200715158446"><ele>69.0</ele><time>2026-04-19T08:21:25Z</time></trkpt><trkpt lat="43.57885762457549" lon="10.624332513822209"><ele>69.0</ele><time>2026-04-19T08:21:26Z</time></trkpt><trkpt lat="43.57883190518857" lon="10.62446803514786"><ele>69.0</ele><time>2026-04-19T08:21:27Z</time></trkpt><trkpt lat="43.578823102189624" lon="10.624614163844042"><ele>69.0</ele><time>2026-04-19T08:21:28Z</time></trkpt><trkpt lat="43.5788259545635" lon="10.624762651805057"><ele>69.0</ele><time>2026-04-19T08:21:29Z</time></trkpt><trkpt lat="43.57883783324583" lon="10.624911789742741"><ele>69.0</ele><time>2026-04-19T08:21:30Z</time></trkpt><trkpt lat="43.57887463366588" lon="10.625050132855113"><ele>67.60000000000001</ele><time>2026-04-19T08:21:31Z</time></trkpt><trkpt lat="43.57893635632242" lon="10.625203143893135"><ele>66.2</ele><time>2026-04-19T08:21:32Z</time></trkpt><trkpt lat="43.578962106505614" lon="10.625332160382753"><ele>64.80000000000001</ele><time>2026-04-19T08:21:33Z</time></trkpt><trkpt lat="43.57901514748038" lon="10.625466772419843"><ele>63.400000000000006</ele><time>2026-04-19T08:21:34Z</time></trkpt><trkpt lat="43.57902459099879" lon="10.625612051608563"><ele>62.0</ele><time>2026-04-19T08:21:35Z</time></trkpt><trkpt lat="43.579035300224525" lon="10.6257827772543"><ele>60.6</ele><time>2026-04-19T08:21:36Z</time></trkpt><trkpt lat="43.579034736822734" lon="10.625946020952549"><ele>59.2</ele><time>2026-04-19T08:21:37Z</time></trkpt><trkpt lat="43.57903183215265" lon="10.626090118816945"><ele>57.8</ele><time>2026-04-19T08:21:38Z</time></trkpt><trkpt lat="43.57903460657021" lon="10.626240741976158"><ele>56.4</ele><time>2026-04-19T08:21:39Z</time></trkpt><trkpt lat="43.57901889653753" lon="10.626365804240471"><ele>55.0</ele><time>2026-04-19T08:21:40Z</time></trkpt><trkpt lat="43.57902020814336" lon="10.626489616888287"><ele>53.5</ele><time>2026-04-19T08:21:41Z</time></trkpt><trkpt lat="43.57901563895433" lon="10.626636503480185"><ele>52.0</ele><time>2026-04-19T08:21:42Z</time></trkpt><trkpt lat="43.579058089058286" lon="10.626803658451228"><ele>50.5</ele><time>2026-04-19T08:21:43Z</time></trkpt><trkpt lat="43.57912116037228" lon="10.626974346138047"><ele>49.0</ele><time>2026-04-19T08:21:44Z</time></trkpt><trkpt lat="43.57917272467179" lon="10.627139972825946"><ele>46.33333333333333</ele><time>2026-04-19T08:21:45Z</time></trkpt><trkpt lat="43.57922485260576" lon="10.627334241968546"><ele>43.666666666666664</ele><time>2026-04-19T08:21:46Z</time></trkpt><trkpt lat="43.57928492840541" lon="10.627541445184013"><ele>41.0</ele><time>2026-04-19T08:21:47Z</time></trkpt><trkpt lat="43.57934292804984" lon="10.627746434039569"><ele>40.0</ele><time>2026-04-19T08:21:48Z</time></trkpt><trkpt lat="43.579392227134434" lon="10.627930571231081"><ele>39.0</ele><time>2026-04-19T08:21:49Z</time></trkpt><trkpt lat="43.579439567100366" lon="10.628089378573158"><ele>38.0</ele><time>2026-04-19T08:21:50Z</time></trkpt><trkpt lat="43.57947041964399" lon="10.628203604304092"><ele>37.0</ele><time>2026-04-19T08:21:51Z</time></trkpt><trkpt lat="43.57949529946488" lon="10.628289408338807"><ele>36.0</ele><time>2026-04-19T08:21:52Z</time></trkpt><trkpt lat="43.57952768807497" lon="10.628390627544384"><ele>36.0</ele><time>2026-04-19T08:21:53Z</time></trkpt><trkpt lat="43.57956720158793" lon="10.628510970715094"><ele>36.0</ele><time>2026-04-19T08:21:54Z</time></trkpt><trkpt lat="43.57957222176406" lon="10.628663888315725"><ele>36.0</ele><time>2026-04-19T08:21:55Z</time></trkpt><trkpt lat="43.579592222710566" lon="10.628810038647005"><ele>36.0</ele><time>2026-04-19T08:21:56Z</time></trkpt><trkpt lat="43.57959447549828" lon="10.628920730156807"><ele>36.0</ele><time>2026-04-19T08:21:57Z</time></trkpt><trkpt lat="43.57959347602787" lon="10.629061205262664"><ele>35.6</ele><time>2026-04-19T08:21:59Z</time></trkpt><trkpt lat="43.57959186563399" lon="10.629157375959934"><ele>35.2</ele><time>2026-04-19T08:22:11Z</time></trkpt><trkpt lat="43.57975156420176" lon="10.62921778333042"><ele>34.8</ele><time>2026-04-19T08:22:13Z</time></trkpt><trkpt lat="43.57985400200145" lon="10.629237910168195"><ele>34.4</ele><time>2026-04-19T08:22:14Z</time></trkpt><trkpt lat="43.57996106354934" lon="10.629257027809887"><ele>34.0</ele><time>2026-04-19T08:22:15Z</time></trkpt><trkpt lat="43.58007177555058" lon="10.629280550010735"><ele>34.0</ele><time>2026-04-19T08:22:16Z</time></trkpt><trkpt lat="43.5801843410369" lon="10.629307508606475"><ele>34.0</ele><time>2026-04-19T08:22:17Z</time></trkpt><trkpt lat="43.5802930066539" lon="10.629332050348026"><ele>34.0</ele><time>2026-04-19T08:22:18Z</time></trkpt><trkpt lat="43.58039067372921" lon="10.629351315172983"><ele>34.0</ele><time>2026-04-19T08:22:19Z</time></trkpt><trkpt lat="43.58047746347581" lon="10.629373195412443"><ele>34.0</ele><time>2026-04-19T08:22:20Z</time></trkpt><trkpt lat="43.580564293267145" lon="10.629394722534668"><ele>34.2</ele><time>2026-04-19T08:22:21Z</time></trkpt><trkpt lat="43.58064915247139" lon="10.62941427106808"><ele>34.4</ele><time>2026-04-19T08:22:22Z</time></trkpt><trkpt lat="43.580740347298914" lon="10.629436467852758"><ele>34.6</ele><time>2026-04-19T08:22:23Z</time></trkpt><trkpt lat="43.58084330381815" lon="10.629461865196783"><ele>34.8</ele><time>2026-04-19T08:22:24Z</time></trkpt><trkpt lat="43.58094696957553" lon="10.62948485974315"><ele>35.0</ele><time>2026-04-19T08:22:25Z</time></trkpt><trkpt lat="43.58103373338625" lon="10.62950433691488"><ele>34.666666666666664</ele><time>2026-04-19T08:22:26Z</time></trkpt><trkpt lat="43.58111222413253" lon="10.6295277585987"><ele>34.33333333333333</ele><time>2026-04-19T08:22:27Z</time></trkpt><trkpt lat="43.5811767584519" lon="10.629559389031266"><ele>34.0</ele><time>2026-04-19T08:22:28Z</time></trkpt><trkpt lat="43.58128162924428" lon="10.629622205935267"><ele>33.666666666666664</ele><time>2026-04-19T08:22:30Z</time></trkpt><trkpt lat="43.581350024820544" lon="10.62965557706208"><ele>33.333333333333336</ele><time>2026-04-19T08:22:31Z</time></trkpt><trkpt lat="43.58143186392587" lon="10.629665766805582"><ele>33.0</ele><time>2026-04-19T08:22:34Z</time></trkpt><trkpt lat="43.58146622854185" lon="10.62958970673444"><ele>33.0</ele><time>2026-04-19T08:27:16Z</time></trkpt><trkpt lat="43.581541368294715" lon="10.62960142586878"><ele>33.0</ele><time>2026-04-19T08:27:18Z</time></trkpt><trkpt lat="43.5816274997419" lon="10.629616941980725"><ele>33.0</ele><time>2026-04-19T08:27:20Z</time></trkpt><trkpt lat="43.581725681545215" lon="10.629616009493915"><ele>33.0</ele><time>2026-04-19T08:27:25Z</time></trkpt><trkpt lat="43.58181322201831" lon="10.629629885374092"><ele>33.0</ele><time>2026-04-19T08:27:26Z</time></trkpt><trkpt lat="43.58193264189983" lon="10.629648627380726"><ele>32.75</ele><time>2026-04-19T08:27:27Z</time></trkpt><trkpt lat="43.5820665641613" lon="10.62967545510014"><ele>32.5</ele><time>2026-04-19T08:27:28Z</time></trkpt><trkpt lat="43.582192850089825" lon="10.62970723574875"><ele>32.25</ele><time>2026-04-19T08:27:29Z</time></trkpt><trkpt lat="43.58232223202378" lon="10.629738467111665"><ele>32.0</ele><time>2026-04-19T08:27:30Z</time></trkpt><trkpt lat="43.5824561440885" lon="10.629775403708782"><ele>32.0</ele><time>2026-04-19T08:27:31Z</time></trkpt><trkpt lat="43.582598718622556" lon="10.629811227268652"><ele>32.0</ele><time>2026-04-19T08:27:32Z</time></trkpt><trkpt lat="43.58273492675928" lon="10.629844802270105"><ele>32.0</ele><time>2026-04-19T08:27:33Z</time></trkpt><trkpt lat="43.58286344021111" lon="10.62987405301663"><ele>32.0</ele><time>2026-04-19T08:27:34Z</time></trkpt><trkpt lat="43.58299449166085" lon="10.629909131915415"><ele>31.75</ele><time>2026-04-19T08:27:35Z</time></trkpt><trkpt lat="43.58312852049969" lon="10.62995741433511"><ele>31.5</ele><time>2026-04-19T08:27:36Z</time></trkpt><trkpt lat="43.58327978307607" lon="10.629990254524554"><ele>31.25</ele><time>2026-04-19T08:27:37Z</time></trkpt><trkpt lat="43.58343339155473" lon="10.630019606975015"><ele>31.0</ele><time>2026-04-19T08:27:38Z</time></trkpt><trkpt lat="43.583576389494006" lon="10.6300499572408"><ele>31.0</ele><time>2026-04-19T08:27:39Z</time></trkpt><trkpt lat="43.58373052800169" lon="10.63007714218703"><ele>31.0</ele><time>2026-04-19T08:27:40Z</time></trkpt><trkpt lat="43.58388648195939" lon="10.630112573452172"><ele>31.0</ele><time>2026-04-19T08:27:41Z</time></trkpt><trkpt lat="43.584037916156475" lon="10.630154913068536"><ele>31.0</ele><time>2026-04-19T08:27:42Z</time></trkpt><trkpt lat="43.5841882535599" lon="10.63018550021508"><ele>31.0</ele><time>2026-04-19T08:27:43Z</time></trkpt><trkpt lat="43.58434793656764" lon="10.63022575396696"><ele>31.0</ele><time>2026-04-19T08:27:44Z</time></trkpt><trkpt lat="43.5845134131521" lon="10.630259312665705"><ele>31.0</ele><time>2026-04-19T08:27:45Z</time></trkpt><trkpt lat="43.584682354288795" lon="10.6303037349024"><ele>31.0</ele><time>2026-04-19T08:27:46Z</time></trkpt><trkpt lat="43.584858011287004" lon="10.630339453186219"><ele>31.0</ele><time>2026-04-19T08:27:47Z</time></trkpt><trkpt lat="43.58502801673004" lon="10.630375943521669"><ele>31.0</ele><time>2026-04-19T08:27:48Z</time></trkpt><trkpt lat="43.58518745218096" lon="10.630410630825535"><ele>31.0</ele><time>2026-04-19T08:27:49Z</time></trkpt><trkpt lat="43.58534171418756" lon="10.630446273062944"><ele>31.0</ele><time>2026-04-19T08:27:50Z</time></trkpt><trkpt lat="43.58550298559838" lon="10.630477854627845"><ele>30.666666666666668</ele><time>2026-04-19T08:27:51Z</time></trkpt><trkpt lat="43.585667092502604" lon="10.630515046203353"><ele>30.333333333333336</ele><time>2026-04-19T08:27:52Z</time></trkpt><trkpt lat="43.58583751861927" lon="10.630547417627133"><ele>30.0</ele><time>2026-04-19T08:27:53Z</time></trkpt><trkpt lat="43.58598769371611" lon="10.630571685664375"><ele>30.0</ele><time>2026-04-19T08:27:54Z</time></trkpt><trkpt lat="43.586143253811485" lon="10.630599002721196"><ele>30.0</ele><time>2026-04-19T08:27:55Z</time></trkpt><trkpt lat="43.58630525910263" lon="10.63063797777888"><ele>30.0</ele><time>2026-04-19T08:27:56Z</time></trkpt><trkpt lat="43.586477653450025" lon="10.630679126683203"><ele>30.333333333333336</ele><time>2026-04-19T08:27:57Z</time></trkpt><trkpt lat="43.58665955151378" lon="10.630728486996883"><ele>30.666666666666668</ele><time>2026-04-19T08:27:58Z</time></trkpt><trkpt lat="43.586835440299694" lon="10.630771088015765"><ele>31.0</ele><time>2026-04-19T08:27:59Z</time></trkpt><trkpt lat="43.58700092625879" lon="10.630800132956718"><ele>30.666666666666668</ele><time>2026-04-19T08:28:00Z</time></trkpt><trkpt lat="43.58716490421848" lon="10.630836908498473"><ele>30.333333333333336</ele><time>2026-04-19T08:28:01Z</time></trkpt><trkpt lat="43.58734229782975" lon="10.630877332446673"><ele>30.0</ele><time>2026-04-19T08:28:02Z</time></trkpt><trkpt lat="43.587540603997795" lon="10.630902936551742"><ele>30.0</ele><time>2026-04-19T08:28:03Z</time></trkpt><trkpt lat="43.587735572997104" lon="10.63092071664654"><ele>30.0</ele><time>2026-04-19T08:28:04Z</time></trkpt><trkpt lat="43.587924599653874" lon="10.630941504379955"><ele>30.0</ele><time>2026-04-19T08:28:05Z</time></trkpt><trkpt lat="43.58809172483326" lon="10.630961506766083"><ele>30.333333333333336</ele><time>2026-04-19T08:28:06Z</time></trkpt><trkpt lat="43.588273770833375" lon="10.630977290990124"><ele>30.666666666666668</ele><time>2026-04-19T08:28:07Z</time></trkpt><trkpt lat="43.58845941086991" lon="10.630985439188336"><ele>31.0</ele><time>2026-04-19T08:28:08Z</time></trkpt><trkpt lat="43.588618771505274" lon="10.631000381801158"><ele>30.6</ele><time>2026-04-19T08:28:09Z</time></trkpt><trkpt lat="43.58873720809867" lon="10.631016414555068"><ele>30.200000000000003</ele><time>2026-04-19T08:28:10Z</time></trkpt><trkpt lat="43.588836870462735" lon="10.631028455728718"><ele>29.799999999999997</ele><time>2026-04-19T08:28:11Z</time></trkpt><trkpt lat="43.58893972215142" lon="10.631041010602393"><ele>29.4</ele><time>2026-04-19T08:28:12Z</time></trkpt><trkpt lat="43.58904431345192" lon="10.63104093149266"><ele>29.0</ele><time>2026-04-19T08:28:13Z</time></trkpt><trkpt lat="43.589158905058284" lon="10.631056728144786"><ele>29.0</ele><time>2026-04-19T08:28:14Z</time></trkpt><trkpt lat="43.58928570934842" lon="10.631062199677002"><ele>29.0</ele><time>2026-04-19T08:28:15Z</time></trkpt><trkpt lat="43.5894309895312" lon="10.631081403249071"><ele>29.0</ele><time>2026-04-19T08:28:16Z</time></trkpt><trkpt lat="43.58958740344905" lon="10.631095377410169"><ele>29.0</ele><time>2026-04-19T08:28:17Z</time></trkpt><trkpt lat="43.58974289134996" lon="10.631108665664359"><ele>29.0</ele><time>2026-04-19T08:28:18Z</time></trkpt><trkpt lat="43.58989377794096" lon="10.631126336549046"><ele>29.0</ele><time>2026-04-19T08:28:19Z</time></trkpt><trkpt lat="43.59005926834205" lon="10.63114262789963"><ele>29.0</ele><time>2026-04-19T08:28:20Z</time></trkpt><trkpt lat="43.590232853301394" lon="10.631161283393869"><ele>28.666666666666664</ele><time>2026-04-19T08:28:21Z</time></trkpt><trkpt lat="43.590401719135656" lon="10.63117716958871"><ele>28.333333333333336</ele><time>2026-04-19T08:28:22Z</time></trkpt><trkpt lat="43.590559852539876" lon="10.631191092577906"><ele>28.0</ele><time>2026-04-19T08:28:23Z</time></trkpt><trkpt lat="43.59071657148008" lon="10.63120595274132"><ele>28.0</ele><time>2026-04-19T08:28:24Z</time></trkpt><trkpt lat="43.590877606676344" lon="10.63122574768004"><ele>28.0</ele><time>2026-04-19T08:28:25Z</time></trkpt><trkpt lat="43.591040919059544" lon="10.631241885439357"><ele>28.0</ele><time>2026-04-19T08:28:26Z</time></trkpt><trkpt lat="43.59120647781929" lon="10.63126362778194"><ele>28.333333333333336</ele><time>2026-04-19T08:28:27Z</time></trkpt><trkpt lat="43.591376072012764" lon="10.63127836322421"><ele>28.666666666666664</ele><time>2026-04-19T08:28:28Z</time></trkpt><trkpt lat="43.591551051577035" lon="10.631288985156171"><ele>29.0</ele><time>2026-04-19T08:28:29Z</time></trkpt><trkpt lat="43.5917210029103" lon="10.63130280897857"><ele>29.0</ele><time>2026-04-19T08:28:30Z</time></trkpt><trkpt lat="43.591881428825296" lon="10.631319095299135"><ele>29.0</ele><time>2026-04-19T08:28:31Z</time></trkpt><trkpt lat="43.5920348899663" lon="10.631339274960345"><ele>29.0</ele><time>2026-04-19T08:28:32Z</time></trkpt><trkpt lat="43.59218752640799" lon="10.63135926458046"><ele>28.333333333333332</ele><time>2026-04-19T08:28:33Z</time></trkpt><trkpt lat="43.59233848262129" lon="10.631374232663157"><ele>27.666666666666664</ele><time>2026-04-19T08:28:34Z</time></trkpt><trkpt lat="43.592498473532224" lon="10.63138505638925"><ele>27.0</ele><time>2026-04-19T08:28:35Z</time></trkpt><trkpt lat="43.5926697752538" lon="10.63139890968129"><ele>26.666666666666664</ele><time>2026-04-19T08:28:36Z</time></trkpt><trkpt lat="43.59285578947479" lon="10.631423020204222"><ele>26.333333333333332</ele><time>2026-04-19T08:28:37Z</time></trkpt><trkpt lat="43.59303398214607" lon="10.631442223739906"><ele>26.0</ele><time>2026-04-19T08:28:38Z</time></trkpt><trkpt lat="43.59320295827027" lon="10.631458261071776"><ele>26.0</ele><time>2026-04-19T08:28:39Z</time></trkpt><trkpt lat="43.59336950526705" lon="10.631473889641606"><ele>26.0</ele><time>2026-04-19T08:28:40Z</time></trkpt><trkpt lat="43.59354096573085" lon="10.631491476079582"><ele>26.0</ele><time>2026-04-19T08:28:41Z</time></trkpt><trkpt lat="43.593716691072125" lon="10.631507806509452"><ele>25.666666666666664</ele><time>2026-04-19T08:28:42Z</time></trkpt><trkpt lat="43.593889832026484" lon="10.631523916334372"><ele>25.333333333333336</ele><time>2026-04-19T08:28:43Z</time></trkpt><trkpt lat="43.5940501045729" lon="10.631538475793578"><ele>25.0</ele><time>2026-04-19T08:28:44Z</time></trkpt><trkpt lat="43.59419993206407" lon="10.631559828210776"><ele>25.0</ele><time>2026-04-19T08:28:45Z</time></trkpt><trkpt lat="43.594358853971585" lon="10.631577700567401"><ele>25.0</ele><time>2026-04-19T08:28:46Z</time></trkpt><trkpt lat="43.59452285603967" lon="10.631596776914533"><ele>25.0</ele><time>2026-04-19T08:28:47Z</time></trkpt><trkpt lat="43.59468780865944" lon="10.631615845498713"><ele>25.5</ele><time>2026-04-19T08:28:48Z</time></trkpt><trkpt lat="43.59483673046199" lon="10.63162841970432"><ele>26.0</ele><time>2026-04-19T08:28:49Z</time></trkpt><trkpt lat="43.5949786281299" lon="10.631644687830029"><ele>26.5</ele><time>2026-04-19T08:28:50Z</time></trkpt><trkpt lat="43.59512892538744" lon="10.631659163995804"><ele>27.0</ele><time>2026-04-19T08:28:51Z</time></trkpt><trkpt lat="43.595288953901644" lon="10.631674295960298"><ele>27.0</ele><time>2026-04-19T08:28:52Z</time></trkpt><trkpt lat="43.59545509709617" lon="10.631691451580355"><ele>27.0</ele><time>2026-04-19T08:28:53Z</time></trkpt><trkpt lat="43.59563259944952" lon="10.631704214328952"><ele>27.0</ele><time>2026-04-19T08:28:54Z</time></trkpt><trkpt lat="43.595819059279044" lon="10.631722300668931"><ele>27.0</ele><time>2026-04-19T08:28:55Z</time></trkpt><trkpt lat="43.59600311288241" lon="10.631744960854542"><ele>27.0</ele><time>2026-04-19T08:28:56Z</time></trkpt><trkpt lat="43.596174750826115" lon="10.63176697705736"><ele>27.0</ele><time>2026-04-19T08:28:57Z</time></trkpt><trkpt lat="43.59634072913014" lon="10.63179106978674"><ele>27.0</ele><time>2026-04-19T08:28:58Z</time></trkpt><trkpt lat="43.59650536732334" lon="10.63181687267368"><ele>27.0</ele><time>2026-04-19T08:28:59Z</time></trkpt><trkpt lat="43.596669518786136" lon="10.631839890927798"><ele>27.0</ele><time>2026-04-19T08:29:00Z</time></trkpt><trkpt lat="43.596837976290054" lon="10.631860390668189"><ele>27.0</ele><time>2026-04-19T08:29:01Z</time></trkpt><trkpt lat="43.59700379655867" lon="10.63187589712182"><ele>27.0</ele><time>2026-04-19T08:29:02Z</time></trkpt><trkpt lat="43.59716003227379" lon="10.63189648194569"><ele>27.0</ele><time>2026-04-19T08:29:03Z</time></trkpt><trkpt lat="43.59730550988412" lon="10.631918992301028"><ele>27.0</ele><time>2026-04-19T08:29:04Z</time></trkpt><trkpt lat="43.597441869838555" lon="10.631936605112056"><ele>27.0</ele><time>2026-04-19T08:29:05Z</time></trkpt><trkpt lat="43.59757158423783" lon="10.631950928819085"><ele>27.0</ele><time>2026-04-19T08:29:06Z</time></trkpt><trkpt lat="43.59770635674733" lon="10.631969710395369"><ele>27.0</ele><time>2026-04-19T08:29:07Z</time></trkpt><trkpt lat="43.59784915033243" lon="10.631986774953278"><ele>27.0</ele><time>2026-04-19T08:29:08Z</time></trkpt><trkpt lat="43.59799260680093" lon="10.632004765441817"><ele>27.0</ele><time>2026-04-19T08:29:09Z</time></trkpt><trkpt lat="43.598121026879845" lon="10.632017166522932"><ele>27.0</ele><time>2026-04-19T08:29:10Z</time></trkpt><trkpt lat="43.59823722669645" lon="10.632033120188563"><ele>27.0</ele><time>2026-04-19T08:29:11Z</time></trkpt><trkpt lat="43.598346881637376" lon="10.63205013180954"><ele>27.0</ele><time>2026-04-19T08:29:12Z</time></trkpt><trkpt lat="43.59844981654052" lon="10.632063363168813"><ele>27.000000000000004</ele><time>2026-04-19T08:29:13Z</time></trkpt><trkpt lat="43.59855526948677" lon="10.632078703056118"><ele>27.000000000000004</ele><time>2026-04-19T08:29:14Z</time></trkpt><trkpt lat="43.598664346147295" lon="10.632092371725292"><ele>27.0</ele><time>2026-04-19T08:29:15Z</time></trkpt><trkpt lat="43.59876966751484" lon="10.632105961383656"><ele>27.0</ele><time>2026-04-19T08:29:16Z</time></trkpt><trkpt lat="43.59887044714777" lon="10.632119031709959"><ele>26.6</ele><time>2026-04-19T08:29:17Z</time></trkpt><trkpt lat="43.59897352427542" lon="10.632128846047635"><ele>26.200000000000003</ele><time>2026-04-19T08:29:18Z</time></trkpt><trkpt lat="43.59906839567547" lon="10.632143510317098"><ele>25.8</ele><time>2026-04-19T08:29:19Z</time></trkpt><trkpt lat="43.59915336318911" lon="10.63215430338139"><ele>25.4</ele><time>2026-04-19T08:29:20Z</time></trkpt><trkpt lat="43.59923814525221" lon="10.632165473321786"><ele>25.0</ele><time>2026-04-19T08:29:21Z</time></trkpt><trkpt lat="43.59932068457387" lon="10.632177726116211"><ele>25.0</ele><time>2026-04-19T08:29:22Z</time></trkpt><trkpt lat="43.599404949884175" lon="10.63218942876232"><ele>25.0</ele><time>2026-04-19T08:29:23Z</time></trkpt><trkpt lat="43.599495058736075" lon="10.632201487830244"><ele>25.0</ele><time>2026-04-19T08:29:24Z</time></trkpt><trkpt lat="43.59958900134511" lon="10.632213161510743"><ele>25.0</ele><time>2026-04-19T08:29:25Z</time></trkpt><trkpt lat="43.599684021229955" lon="10.63222522145597"><ele>25.0</ele><time>2026-04-19T08:29:26Z</time></trkpt><trkpt lat="43.599786868248636" lon="10.63223593063949"><ele>25.25</ele><time>2026-04-19T08:29:27Z</time></trkpt><trkpt lat="43.59989982427655" lon="10.632243819788494"><ele>25.5</ele><time>2026-04-19T08:29:28Z</time></trkpt><trkpt lat="43.600028276741675" lon="10.632256809301351"><ele>25.75</ele><time>2026-04-19T08:29:29Z</time></trkpt><trkpt lat="43.60016193916915" lon="10.63227679650926"><ele>26.0</ele><time>2026-04-19T08:29:30Z</time></trkpt><trkpt lat="43.60029463433402" lon="10.632316147610366"><ele>26.0</ele><time>2026-04-19T08:29:31Z</time></trkpt><trkpt lat="43.600431021620516" lon="10.632312324741374"><ele>26.0</ele><time>2026-04-19T08:29:32Z</time></trkpt><trkpt lat="43.60056414245483" lon="10.632334753174131"><ele>26.0</ele><time>2026-04-19T08:29:33Z</time></trkpt><trkpt lat="43.60069696835029" lon="10.632353468152576"><ele>26.0</ele><time>2026-04-19T08:29:34Z</time></trkpt><trkpt lat="43.60083691191965" lon="10.632377779092284"><ele>26.0</ele><time>2026-04-19T08:29:35Z</time></trkpt><trkpt lat="43.60098433251567" lon="10.632403784463532"><ele>26.0</ele><time>2026-04-19T08:29:36Z</time></trkpt><trkpt lat="43.60114096847906" lon="10.632458149140373"><ele>26.0</ele><time>2026-04-19T08:29:37Z</time></trkpt><trkpt lat="43.601293903943095" lon="10.63253058829363"><ele>25.666666666666664</ele><time>2026-04-19T08:29:38Z</time></trkpt><trkpt lat="43.601432136913125" lon="10.632633283787017"><ele>25.333333333333336</ele><time>2026-04-19T08:29:39Z</time></trkpt><trkpt lat="43.60157073557633" lon="10.63269738478473"><ele>25.0</ele><time>2026-04-19T08:29:40Z</time></trkpt><trkpt lat="43.60170480491016" lon="10.63278019978101"><ele>24.75</ele><time>2026-04-19T08:29:41Z</time></trkpt><trkpt lat="43.60184476992538" lon="10.63284788463411"><ele>24.5</ele><time>2026-04-19T08:29:42Z</time></trkpt><trkpt lat="43.601983186253406" lon="10.632906597924118"><ele>24.25</ele><time>2026-04-19T08:29:43Z</time></trkpt><trkpt lat="43.60212899864634" lon="10.632958162912988"><ele>24.0</ele><time>2026-04-19T08:29:44Z</time></trkpt><trkpt lat="43.60229256706575" lon="10.632999256416344"><ele>23.333333333333332</ele><time>2026-04-19T08:29:45Z</time></trkpt><trkpt lat="43.60247366389791" lon="10.633020287838164"><ele>22.666666666666664</ele><time>2026-04-19T08:29:46Z</time></trkpt><trkpt lat="43.602655974679685" lon="10.633022855386088"><ele>22.0</ele><time>2026-04-19T08:29:47Z</time></trkpt><trkpt lat="43.602826003700706" lon="10.633010441316282"><ele>23.0</ele><time>2026-04-19T08:29:48Z</time></trkpt><trkpt lat="43.60298507118946" lon="10.632992565970257"><ele>24.0</ele><time>2026-04-19T08:29:49Z</time></trkpt><trkpt lat="43.60313749105311" lon="10.632968862716899"><ele>25.0</ele><time>2026-04-19T08:29:50Z</time></trkpt><trkpt lat="43.60328629699014" lon="10.632934105573886"><ele>25.0</ele><time>2026-04-19T08:29:51Z</time></trkpt><trkpt lat="43.603442022852946" lon="10.632898808151845"><ele>25.0</ele><time>2026-04-19T08:29:52Z</time></trkpt><trkpt lat="43.603610274633986" lon="10.632862641901278"><ele>25.0</ele><time>2026-04-19T08:29:53Z</time></trkpt><trkpt lat="43.60377159989421" lon="10.63283222544548"><ele>25.0</ele><time>2026-04-19T08:29:54Z</time></trkpt><trkpt lat="43.60392227585089" lon="10.63281235471639"><ele>25.0</ele><time>2026-04-19T08:29:55Z</time></trkpt><trkpt lat="43.60408564476816" lon="10.632798540456877"><ele>25.0</ele><time>2026-04-19T08:29:56Z</time></trkpt><trkpt lat="43.604262444813784" lon="10.6327808527364"><ele>25.0</ele><time>2026-04-19T08:29:57Z</time></trkpt><trkpt lat="43.604427732130695" lon="10.632765988121697"><ele>25.0</ele><time>2026-04-19T08:29:58Z</time></trkpt><trkpt lat="43.60457489888646" lon="10.632753624192041"><ele>25.0</ele><time>2026-04-19T08:29:59Z</time></trkpt><trkpt lat="43.60472699852842" lon="10.632743608112664"><ele>25.0</ele><time>2026-04-19T08:30:00Z</time></trkpt><trkpt lat="43.6048817552414" lon="10.632730292909146"><ele>25.0</ele><time>2026-04-19T08:30:01Z</time></trkpt><trkpt lat="43.605039605307894" lon="10.632713756975994"><ele>25.0</ele><time>2026-04-19T08:30:02Z</time></trkpt><trkpt lat="43.605191198758604" lon="10.632700014273455"><ele>24.0</ele><time>2026-04-19T08:30:03Z</time></trkpt><trkpt lat="43.60533633598864" lon="10.632692988709255"><ele>23.0</ele><time>2026-04-19T08:30:04Z</time></trkpt><trkpt lat="43.60547897588551" lon="10.632692408877118"><ele>22.0</ele><time>2026-04-19T08:30:05Z</time></trkpt><trkpt lat="43.605612803876134" lon="10.632688038795843"><ele>21.0</ele><time>2026-04-19T08:30:06Z</time></trkpt><trkpt lat="43.605740969403094" lon="10.632685821338658"><ele>21.0</ele><time>2026-04-19T08:30:07Z</time></trkpt><trkpt lat="43.60586941083995" lon="10.63269428814482"><ele>21.0</ele><time>2026-04-19T08:30:08Z</time></trkpt><trkpt lat="43.60600490132981" lon="10.63269349410335"><ele>21.0</ele><time>2026-04-19T08:30:09Z</time></trkpt><trkpt lat="43.60614267715284" lon="10.63268087939108"><ele>21.0</ele><time>2026-04-19T08:30:10Z</time></trkpt><trkpt lat="43.60627314570079" lon="10.63265430732841"><ele>21.75</ele><time>2026-04-19T08:30:11Z</time></trkpt><trkpt lat="43.606403752760706" lon="10.632634359425124"><ele>22.5</ele><time>2026-04-19T08:30:12Z</time></trkpt><trkpt lat="43.60652587678357" lon="10.63261801889442"><ele>23.25</ele><time>2026-04-19T08:30:13Z</time></trkpt><trkpt lat="43.60664401822238" lon="10.63260028662013"><ele>24.0</ele><time>2026-04-19T08:30:14Z</time></trkpt><trkpt lat="43.60675786352995" lon="10.632577871450952"><ele>24.0</ele><time>2026-04-19T08:30:15Z</time></trkpt><trkpt lat="43.606863322709245" lon="10.6325637222642"><ele>24.0</ele><time>2026-04-19T08:30:16Z</time></trkpt><trkpt lat="43.606952761142246" lon="10.632555770632477"><ele>24.0</ele><time>2026-04-19T08:30:17Z</time></trkpt><trkpt lat="43.60706367427634" lon="10.632547991700894"><ele>24.0</ele><time>2026-04-19T08:30:18Z</time></trkpt><trkpt lat="43.60716469269889" lon="10.632529235259403"><ele>24.0</ele><time>2026-04-19T08:30:19Z</time></trkpt><trkpt lat="43.60729751243845" lon="10.63249843749747"><ele>23.5</ele><time>2026-04-19T08:30:20Z</time></trkpt><trkpt lat="43.60743052392168" lon="10.632464884460157"><ele>23.0</ele><time>2026-04-19T08:30:21Z</time></trkpt><trkpt lat="43.6075573957238" lon="10.632435917701125"><ele>22.5</ele><time>2026-04-19T08:30:22Z</time></trkpt><trkpt lat="43.60767874682439" lon="10.632412442027174"><ele>22.0</ele><time>2026-04-19T08:30:23Z</time></trkpt><trkpt lat="43.607802178949086" lon="10.632396250965122"><ele>22.25</ele><time>2026-04-19T08:30:24Z</time></trkpt><trkpt lat="43.60793994457222" lon="10.63239825018164"><ele>22.5</ele><time>2026-04-19T08:30:25Z</time></trkpt><trkpt lat="43.608078013228166" lon="10.632456925332272"><ele>22.75</ele><time>2026-04-19T08:30:26Z</time></trkpt><trkpt lat="43.608223240235446" lon="10.632492611966647"><ele>23.0</ele><time>2026-04-19T08:30:27Z</time></trkpt><trkpt lat="43.6083599586386" lon="10.632547468420238"><ele>23.0</ele><time>2026-04-19T08:30:28Z</time></trkpt><trkpt lat="43.60850235589171" lon="10.63257441321629"><ele>23.0</ele><time>2026-04-19T08:30:29Z</time></trkpt><trkpt lat="43.60867373104383" lon="10.632586232803611"><ele>23.0</ele><time>2026-04-19T08:30:30Z</time></trkpt><trkpt lat="43.60886645756639" lon="10.632581213926441"><ele>23.333333333333336</ele><time>2026-04-19T08:30:31Z</time></trkpt><trkpt lat="43.609063730975954" lon="10.632572291676226"><ele>23.666666666666668</ele><time>2026-04-19T08:30:32Z</time></trkpt><trkpt lat="43.609246787744475" lon="10.632570921306284"><ele>24.0</ele><time>2026-04-19T08:30:33Z</time></trkpt><trkpt lat="43.60941993514849" lon="10.632568006993182"><ele>24.0</ele><time>2026-04-19T08:30:34Z</time></trkpt><trkpt lat="43.60958807453966" lon="10.632566314191493"><ele>24.0</ele><time>2026-04-19T08:30:35Z</time></trkpt><trkpt lat="43.609763052761686" lon="10.632562273885192"><ele>24.0</ele><time>2026-04-19T08:30:36Z</time></trkpt><trkpt lat="43.60994967481134" lon="10.632556292824866"><ele>24.0</ele><time>2026-04-19T08:30:37Z</time></trkpt><trkpt lat="43.610137373464795" lon="10.63255171903326"><ele>24.0</ele><time>2026-04-19T08:30:38Z</time></trkpt><trkpt lat="43.610319103668246" lon="10.632545036916808"><ele>24.0</ele><time>2026-04-19T08:30:39Z</time></trkpt><trkpt lat="43.61049015644618" lon="10.632534598590068"><ele>23.666666666666668</ele><time>2026-04-19T08:30:40Z</time></trkpt><trkpt lat="43.61065850475399" lon="10.632530663251096"><ele>23.333333333333336</ele><time>2026-04-19T08:30:41Z</time></trkpt><trkpt lat="43.61082622883515" lon="10.632531434313305"><ele>23.0</ele><time>2026-04-19T08:30:42Z</time></trkpt><trkpt lat="43.61100130295703" lon="10.632534625862625"><ele>23.333333333333336</ele><time>2026-04-19T08:30:43Z</time></trkpt><trkpt lat="43.61117781410801" lon="10.632540498319646"><ele>23.666666666666668</ele><time>2026-04-19T08:30:44Z</time></trkpt><trkpt lat="43.61135567755017" lon="10.632548467194077"><ele>24.0</ele><time>2026-04-19T08:30:45Z</time></trkpt><trkpt lat="43.61153316594049" lon="10.63255793474594"><ele>24.0</ele><time>2026-04-19T08:30:46Z</time></trkpt><trkpt lat="43.61169045105349" lon="10.632566638585564"><ele>24.0</ele><time>2026-04-19T08:30:47Z</time></trkpt><trkpt lat="43.61183283633311" lon="10.632577849330918"><ele>24.0</ele><time>2026-04-19T08:30:48Z</time></trkpt><trkpt lat="43.61196872968951" lon="10.632586454639274"><ele>24.0</ele><time>2026-04-19T08:30:49Z</time></trkpt><trkpt lat="43.61210581919828" lon="10.632594520765833"><ele>24.0</ele><time>2026-04-19T08:30:50Z</time></trkpt><trkpt lat="43.61225204471768" lon="10.63259619502068"><ele>24.0</ele><time>2026-04-19T08:30:51Z</time></trkpt><trkpt lat="43.61238891320334" lon="10.632605261639199"><ele>24.0</ele><time>2026-04-19T08:30:52Z</time></trkpt><trkpt lat="43.612513180520935" lon="10.632620460175872"><ele>24.0</ele><time>2026-04-19T08:30:53Z</time></trkpt><trkpt lat="43.61264511207104" lon="10.632641587272138"><ele>24.0</ele><time>2026-04-19T08:30:54Z</time></trkpt><trkpt lat="43.61278406098042" lon="10.632679852739626"><ele>24.0</ele><time>2026-04-19T08:30:55Z</time></trkpt><trkpt lat="43.61293560918212" lon="10.632716685113188"><ele>24.0</ele><time>2026-04-19T08:30:56Z</time></trkpt><trkpt lat="43.613094837184995" lon="10.632761031446638"><ele>24.333333333333336</ele><time>2026-04-19T08:30:57Z</time></trkpt><trkpt lat="43.61325584216968" lon="10.632804960191072"><ele>24.666666666666668</ele><time>2026-04-19T08:30:58Z</time></trkpt><trkpt lat="43.61341939577609" lon="10.63284353048097"><ele>25.0</ele><time>2026-04-19T08:30:59Z</time></trkpt><trkpt lat="43.61357932546856" lon="10.632868169799524"><ele>24.666666666666668</ele><time>2026-04-19T08:31:00Z</time></trkpt><trkpt lat="43.61374491835299" lon="10.632874713538355"><ele>24.333333333333336</ele><time>2026-04-19T08:31:01Z</time></trkpt><trkpt lat="43.6139095475303" lon="10.632875015997955"><ele>24.0</ele><time>2026-04-19T08:31:02Z</time></trkpt><trkpt lat="43.614055170958174" lon="10.632899544953085"><ele>24.0</ele><time>2026-04-19T08:31:03Z</time></trkpt><trkpt lat="43.61418394074095" lon="10.632897361792319"><ele>24.0</ele><time>2026-04-19T08:31:04Z</time></trkpt><trkpt lat="43.61430318923366" lon="10.632893783011475"><ele>24.0</ele><time>2026-04-19T08:31:05Z</time></trkpt><trkpt lat="43.61443631856363" lon="10.632871843233097"><ele>24.0</ele><time>2026-04-19T08:31:06Z</time></trkpt><trkpt lat="43.614581813310366" lon="10.632876070248125"><ele>23.666666666666668</ele><time>2026-04-19T08:31:07Z</time></trkpt><trkpt lat="43.61474027188104" lon="10.632876869169362"><ele>23.333333333333336</ele><time>2026-04-19T08:31:08Z</time></trkpt><trkpt lat="43.61490132999284" lon="10.632885351516622"><ele>23.0</ele><time>2026-04-19T08:31:09Z</time></trkpt><trkpt lat="43.61507356240242" lon="10.632900562186453"><ele>23.0</ele><time>2026-04-19T08:31:10Z</time></trkpt><trkpt lat="43.615244439684595" lon="10.632917255597926"><ele>23.0</ele><time>2026-04-19T08:31:11Z</time></trkpt><trkpt lat="43.61540753877547" lon="10.632934227575852"><ele>23.0</ele><time>2026-04-19T08:31:12Z</time></trkpt><trkpt lat="43.61556739801076" lon="10.632952188164264"><ele>23.0</ele><time>2026-04-19T08:31:13Z</time></trkpt><trkpt lat="43.615725453055084" lon="10.632971034371709"><ele>23.0</ele><time>2026-04-19T08:31:14Z</time></trkpt><trkpt lat="43.61587865761332" lon="10.633016416620038"><ele>23.0</ele><time>2026-04-19T08:31:15Z</time></trkpt><trkpt lat="43.61603208022913" lon="10.633030257587288"><ele>23.333333333333336</ele><time>2026-04-19T08:31:16Z</time></trkpt><trkpt lat="43.616187559764136" lon="10.633102758902206"><ele>23.666666666666668</ele><time>2026-04-19T08:31:17Z</time></trkpt><trkpt lat="43.61634162758996" lon="10.633158578263004"><ele>24.0</ele><time>2026-04-19T08:31:18Z</time></trkpt><trkpt lat="43.61648191109134" lon="10.633210987320965"><ele>24.0</ele><time>2026-04-19T08:31:19Z</time></trkpt><trkpt lat="43.616616420222215" lon="10.633260133580318"><ele>24.0</ele><time>2026-04-19T08:31:20Z</time></trkpt><trkpt lat="43.6167516171822" lon="10.633309412527574"><ele>24.0</ele><time>2026-04-19T08:31:21Z</time></trkpt><trkpt lat="43.616890146479335" lon="10.633357584177954"><ele>24.0</ele><time>2026-04-19T08:31:22Z</time></trkpt><trkpt lat="43.61702739464272" lon="10.633393729279566"><ele>24.0</ele><time>2026-04-19T08:31:23Z</time></trkpt><trkpt lat="43.61716914476225" lon="10.633402696752375"><ele>24.0</ele><time>2026-04-19T08:31:24Z</time></trkpt><trkpt lat="43.6172949279795" lon="10.63338256873281"><ele>24.0</ele><time>2026-04-19T08:31:25Z</time></trkpt><trkpt lat="43.617399047482" lon="10.63338064036851"><ele>24.0</ele><time>2026-04-19T08:31:26Z</time></trkpt><trkpt lat="43.617487916845654" lon="10.63338233720403"><ele>24.0</ele><time>2026-04-19T08:31:27Z</time></trkpt><trkpt lat="43.61756673730226" lon="10.633381603957936"><ele>24.0</ele><time>2026-04-19T08:31:28Z</time></trkpt><trkpt lat="43.61763264447499" lon="10.633380238415215"><ele>24.0</ele><time>2026-04-19T08:31:29Z</time></trkpt><trkpt lat="43.61769787082274" lon="10.6333769735426"><ele>24.0</ele><time>2026-04-19T08:31:30Z</time></trkpt><trkpt lat="43.6177839234135" lon="10.633369874714878"><ele>24.0</ele><time>2026-04-19T08:31:31Z</time></trkpt><trkpt lat="43.61788390515632" lon="10.633369889346545"><ele>24.0</ele><time>2026-04-19T08:31:32Z</time></trkpt><trkpt lat="43.617996680821314" lon="10.633364447073868"><ele>23.6</ele><time>2026-04-19T08:31:33Z</time></trkpt><trkpt lat="43.61810774517457" lon="10.63335357244438"><ele>23.2</ele><time>2026-04-19T08:31:34Z</time></trkpt><trkpt lat="43.618202429703466" lon="10.633328938758389"><ele>22.8</ele><time>2026-04-19T08:31:35Z</time></trkpt><trkpt lat="43.6182968860319" lon="10.633362764844625"><ele>22.400000000000002</ele><time>2026-04-19T08:31:36Z</time></trkpt><trkpt lat="43.61838229133347" lon="10.633356267454962"><ele>22.0</ele><time>2026-04-19T08:31:37Z</time></trkpt><trkpt lat="43.618467042693815" lon="10.633348623226038"><ele>22.0</ele><time>2026-04-19T08:31:38Z</time></trkpt><trkpt lat="43.61853286703606" lon="10.633348067828418"><ele>22.0</ele><time>2026-04-19T08:31:39Z</time></trkpt><trkpt lat="43.61859737620466" lon="10.633350039361924"><ele>22.0</ele><time>2026-04-19T08:31:40Z</time></trkpt><trkpt lat="43.61866626135172" lon="10.633335431912004"><ele>22.0</ele><time>2026-04-19T08:31:41Z</time></trkpt><trkpt lat="43.6187396970302" lon="10.633337307511889"><ele>22.0</ele><time>2026-04-19T08:31:42Z</time></trkpt><trkpt lat="43.6188513885647" lon="10.633338071116507"><ele>22.0</ele><time>2026-04-19T08:31:44Z</time></trkpt><trkpt lat="43.618959372308225" lon="10.63332065023767"><ele>22.200000000000003</ele><time>2026-04-19T08:31:46Z</time></trkpt><trkpt lat="43.619065647457425" lon="10.633303249929059"><ele>22.4</ele><time>2026-04-19T08:31:48Z</time></trkpt><trkpt lat="43.619165683344036" lon="10.633276476239981"><ele>22.6</ele><time>2026-04-19T08:31:50Z</time></trkpt><trkpt lat="43.61926152186191" lon="10.633256253346538"><ele>22.799999999999997</ele><time>2026-04-19T08:31:52Z</time></trkpt><trkpt lat="43.61935381109618" lon="10.633262327205262"><ele>23.0</ele><time>2026-04-19T08:31:54Z</time></trkpt><trkpt lat="43.61945727461677" lon="10.633302870384231"><ele>23.599999999999998</ele><time>2026-04-19T08:31:56Z</time></trkpt><trkpt lat="43.619553735515495" lon="10.633331639559367"><ele>24.2</ele><time>2026-04-19T08:31:58Z</time></trkpt><trkpt lat="43.61966178315992" lon="10.63335504242113"><ele>24.8</ele><time>2026-04-19T08:32:00Z</time></trkpt><trkpt lat="43.6197468845975" lon="10.63337233044504"><ele>25.4</ele><time>2026-04-19T08:32:02Z</time></trkpt><trkpt lat="43.61983054469233" lon="10.633403810372153"><ele>26.0</ele><time>2026-04-19T08:32:04Z</time></trkpt><trkpt lat="43.61990353602809" lon="10.63342002633532"><ele>26.0</ele><time>2026-04-19T08:32:07Z</time></trkpt><trkpt lat="43.620003990938024" lon="10.633473929662621"><ele>26.0</ele><time>2026-04-19T08:32:09Z</time></trkpt><trkpt lat="43.620072415775795" lon="10.6335019426116"><ele>26.0</ele><time>2026-04-19T08:32:10Z</time></trkpt><trkpt lat="43.62013426408012" lon="10.633522823302087"><ele>26.0</ele><time>2026-04-19T08:32:11Z</time></trkpt><trkpt lat="43.620257097867004" lon="10.633573537089852"><ele>26.0</ele><time>2026-04-19T08:32:13Z</time></trkpt><trkpt lat="43.620377482038656" lon="10.633624674654161"><ele>25.4</ele><time>2026-04-19T08:32:15Z</time></trkpt><trkpt lat="43.62048057479171" lon="10.633648205939332"><ele>24.8</ele><time>2026-04-19T08:32:17Z</time></trkpt><trkpt lat="43.62056383880365" lon="10.633679450593485"><ele>24.2</ele><time>2026-04-19T08:32:18Z</time></trkpt><trkpt lat="43.62064240132928" lon="10.633711489046991"><ele>23.599999999999998</ele><time>2026-04-19T08:32:19Z</time></trkpt><trkpt lat="43.620756781747936" lon="10.633742152468441"><ele>23.0</ele><time>2026-04-19T08:32:20Z</time></trkpt><trkpt lat="43.62086167975513" lon="10.633770036906933"><ele>23.0</ele><time>2026-04-19T08:32:21Z</time></trkpt><trkpt lat="43.620962377408844" lon="10.63382061154977"><ele>23.0</ele><time>2026-04-19T08:32:22Z</time></trkpt><trkpt lat="43.62107984830061" lon="10.633873950446942"><ele>23.0</ele><time>2026-04-19T08:32:23Z</time></trkpt><trkpt lat="43.62120455398606" lon="10.633934949838373"><ele>23.0</ele><time>2026-04-19T08:32:24Z</time></trkpt><trkpt lat="43.621319672286" lon="10.63395443269092"><ele>23.25</ele><time>2026-04-19T08:32:25Z</time></trkpt><trkpt lat="43.62142105364466" lon="10.633992954980988"><ele>23.5</ele><time>2026-04-19T08:32:26Z</time></trkpt><trkpt lat="43.62153674590331" lon="10.633998279360323"><ele>23.75</ele><time>2026-04-19T08:32:27Z</time></trkpt><trkpt lat="43.62166033359956" lon="10.634028079958608"><ele>24.0</ele><time>2026-04-19T08:32:28Z</time></trkpt><trkpt lat="43.62178522154368" lon="10.634056127295263"><ele>24.0</ele><time>2026-04-19T08:32:29Z</time></trkpt><trkpt lat="43.62192694902358" lon="10.634082081188794"><ele>24.0</ele><time>2026-04-19T08:32:30Z</time></trkpt><trkpt lat="43.62207067818405" lon="10.63410885309923"><ele>24.0</ele><time>2026-04-19T08:32:31Z</time></trkpt><trkpt lat="43.622218534483885" lon="10.634137965632874"><ele>24.0</ele><time>2026-04-19T08:32:32Z</time></trkpt><trkpt lat="43.62235527457802" lon="10.634160427488723"><ele>24.0</ele><time>2026-04-19T08:32:33Z</time></trkpt><trkpt lat="43.62250094219951" lon="10.634171827725023"><ele>24.0</ele><time>2026-04-19T08:32:34Z</time></trkpt><trkpt lat="43.62265013977604" lon="10.634182034656993"><ele>24.0</ele><time>2026-04-19T08:32:35Z</time></trkpt><trkpt lat="43.62280498351513" lon="10.634191272674276"><ele>24.0</ele><time>2026-04-19T08:32:36Z</time></trkpt><trkpt lat="43.622960013809255" lon="10.634210124861639"><ele>24.0</ele><time>2026-04-19T08:32:37Z</time></trkpt><trkpt lat="43.62311424458818" lon="10.634236379787016"><ele>24.0</ele><time>2026-04-19T08:32:38Z</time></trkpt><trkpt lat="43.6232785251172" lon="10.634248816518685"><ele>24.0</ele><time>2026-04-19T08:32:39Z</time></trkpt><trkpt lat="43.623442641661846" lon="10.634258765462873"><ele>24.0</ele><time>2026-04-19T08:32:40Z</time></trkpt><trkpt lat="43.62361646348386" lon="10.63425829086548"><ele>24.0</ele><time>2026-04-19T08:32:41Z</time></trkpt><trkpt lat="43.623783766813105" lon="10.634246803291461"><ele>23.5</ele><time>2026-04-19T08:32:42Z</time></trkpt><trkpt lat="43.62392540945954" lon="10.63422075896677"><ele>23.0</ele><time>2026-04-19T08:32:43Z</time></trkpt><trkpt lat="43.62405343083058" lon="10.634229991065274"><ele>22.5</ele><time>2026-04-19T08:32:44Z</time></trkpt><trkpt lat="43.624183950586136" lon="10.634264779907722"><ele>22.0</ele><time>2026-04-19T08:32:45Z</time></trkpt><trkpt lat="43.624299887352954" lon="10.634263124936373"><ele>22.0</ele><time>2026-04-19T08:32:46Z</time></trkpt><trkpt lat="43.6244213627685" lon="10.634287045354528"><ele>22.0</ele><time>2026-04-19T08:32:47Z</time></trkpt><trkpt lat="43.62454177978888" lon="10.634322658053659"><ele>22.0</ele><time>2026-04-19T08:32:48Z</time></trkpt><trkpt lat="43.62468415760915" lon="10.63432613136162"><ele>22.0</ele><time>2026-04-19T08:32:49Z</time></trkpt><trkpt lat="43.624836995587955" lon="10.6343367898793"><ele>22.0</ele><time>2026-04-19T08:32:50Z</time></trkpt><trkpt lat="43.6249972134671" lon="10.634346902809575"><ele>22.0</ele><time>2026-04-19T08:32:51Z</time></trkpt><trkpt lat="43.62515814945239" lon="10.634358991146472"><ele>22.0</ele><time>2026-04-19T08:32:52Z</time></trkpt><trkpt lat="43.62532154918572" lon="10.634373134250133"><ele>22.0</ele><time>2026-04-19T08:32:53Z</time></trkpt><trkpt lat="43.625463103799326" lon="10.634385003957428"><ele>22.0</ele><time>2026-04-19T08:32:54Z</time></trkpt><trkpt lat="43.62559139337583" lon="10.634393295855634"><ele>22.0</ele><time>2026-04-19T08:32:55Z</time></trkpt><trkpt lat="43.625697968728254" lon="10.634376987743345"><ele>22.0</ele><time>2026-04-19T08:32:56Z</time></trkpt><trkpt lat="43.62582254849721" lon="10.634406172468223"><ele>22.0</ele><time>2026-04-19T08:32:57Z</time></trkpt><trkpt lat="43.625935494761464" lon="10.634416117752965"><ele>22.0</ele><time>2026-04-19T08:32:58Z</time></trkpt><trkpt lat="43.626033552629565" lon="10.634422979423418"><ele>22.0</ele><time>2026-04-19T08:32:59Z</time></trkpt><trkpt lat="43.62613707143139" lon="10.634445230469666"><ele>22.0</ele><time>2026-04-19T08:33:00Z</time></trkpt><trkpt lat="43.62624138414011" lon="10.634473392789502"><ele>22.0</ele><time>2026-04-19T08:33:01Z</time></trkpt><trkpt lat="43.62639427323286" lon="10.634438864793248"><ele>22.0</ele><time>2026-04-19T08:33:02Z</time></trkpt><trkpt lat="43.626541771844416" lon="10.634438521235115"><ele>22.0</ele><time>2026-04-19T08:33:03Z</time></trkpt><trkpt lat="43.6266947208043" lon="10.63442970534334"><ele>22.0</ele><time>2026-04-19T08:33:04Z</time></trkpt><trkpt lat="43.62682280265996" lon="10.634417600653622"><ele>22.0</ele><time>2026-04-19T08:33:05Z</time></trkpt><trkpt lat="43.62693672096157" lon="10.63439922168989"><ele>21.6</ele><time>2026-04-19T08:33:06Z</time></trkpt><trkpt lat="43.62704292762233" lon="10.634384153840232"><ele>21.200000000000003</ele><time>2026-04-19T08:33:07Z</time></trkpt><trkpt lat="43.62714881915787" lon="10.6343788277847"><ele>20.8</ele><time>2026-04-19T08:33:08Z</time></trkpt><trkpt lat="43.62725236829318" lon="10.634376886037211"><ele>20.4</ele><time>2026-04-19T08:33:09Z</time></trkpt><trkpt lat="43.627357632022424" lon="10.634390785105829"><ele>20.0</ele><time>2026-04-19T08:33:10Z</time></trkpt><trkpt lat="43.6274963007009" lon="10.634371450411951"><ele>20.0</ele><time>2026-04-19T08:33:11Z</time></trkpt><trkpt lat="43.62764206975659" lon="10.634342446866048"><ele>20.0</ele><time>2026-04-19T08:33:12Z</time></trkpt><trkpt lat="43.62777187311188" lon="10.634329795030075"><ele>20.0</ele><time>2026-04-19T08:33:13Z</time></trkpt><trkpt lat="43.62790433210128" lon="10.634320635061478"><ele>20.0</ele><time>2026-04-19T08:33:14Z</time></trkpt><trkpt lat="43.6280479487522" lon="10.6343646764496"><ele>20.0</ele><time>2026-04-19T08:33:15Z</time></trkpt><trkpt lat="43.628181443652885" lon="10.634412092557007"><ele>20.0</ele><time>2026-04-19T08:33:16Z</time></trkpt><trkpt lat="43.62830859429511" lon="10.634457164595755"><ele>20.0</ele><time>2026-04-19T08:33:17Z</time></trkpt><trkpt lat="43.62844128515411" lon="10.634505723413188"><ele>20.0</ele><time>2026-04-19T08:33:18Z</time></trkpt><trkpt lat="43.62856401355454" lon="10.634551970949094"><ele>20.25</ele><time>2026-04-19T08:33:19Z</time></trkpt><trkpt lat="43.62869827451132" lon="10.634609906585583"><ele>20.5</ele><time>2026-04-19T08:33:20Z</time></trkpt><trkpt lat="43.628852112890755" lon="10.63467639589211"><ele>20.75</ele><time>2026-04-19T08:33:21Z</time></trkpt><trkpt lat="43.628958118511285" lon="10.63475002630348"><ele>21.0</ele><time>2026-04-19T08:33:22Z</time></trkpt><trkpt lat="43.629055066733585" lon="10.634778608911123"><ele>21.0</ele><time>2026-04-19T08:33:23Z</time></trkpt><trkpt lat="43.629141061313994" lon="10.634827414504826"><ele>21.0</ele><time>2026-04-19T08:33:24Z</time></trkpt><trkpt lat="43.62923867136562" lon="10.634873478081301"><ele>21.0</ele><time>2026-04-19T08:33:25Z</time></trkpt><trkpt lat="43.629336544472615" lon="10.634896988002083"><ele>21.0</ele><time>2026-04-19T08:33:26Z</time></trkpt><trkpt lat="43.629451582132326" lon="10.634900689353064"><ele>21.0</ele><time>2026-04-19T08:33:27Z</time></trkpt><trkpt lat="43.629571956943124" lon="10.634815673598709"><ele>20.75</ele><time>2026-04-19T08:33:28Z</time></trkpt><trkpt lat="43.62968302296674" lon="10.634752971432237"><ele>20.5</ele><time>2026-04-19T08:33:29Z</time></trkpt><trkpt lat="43.62978917970603" lon="10.634739193275536"><ele>20.25</ele><time>2026-04-19T08:33:30Z</time></trkpt><trkpt lat="43.629898763059785" lon="10.63472311339361"><ele>20.0</ele><time>2026-04-19T08:33:31Z</time></trkpt><trkpt lat="43.63001686285987" lon="10.63471334099351"><ele>20.0</ele><time>2026-04-19T08:33:32Z</time></trkpt><trkpt lat="43.63012996492558" lon="10.63470845082371"><ele>20.0</ele><time>2026-04-19T08:33:33Z</time></trkpt><trkpt lat="43.63024460718492" lon="10.63471091551672"><ele>20.0</ele><time>2026-04-19T08:33:34Z</time></trkpt><trkpt lat="43.630365231559914" lon="10.634735311635282"><ele>20.0</ele><time>2026-04-19T08:33:35Z</time></trkpt><trkpt lat="43.630482418025615" lon="10.634772209705934"><ele>20.6</ele><time>2026-04-19T08:33:36Z</time></trkpt><trkpt lat="43.630595021449246" lon="10.634812798145266"><ele>21.2</ele><time>2026-04-19T08:33:37Z</time></trkpt><trkpt lat="43.63070200972122" lon="10.63485388178319"><ele>21.799999999999997</ele><time>2026-04-19T08:33:38Z</time></trkpt><trkpt lat="43.63080136868315" lon="10.634871838976649"><ele>22.4</ele><time>2026-04-19T08:33:39Z</time></trkpt><trkpt lat="43.63088453553538" lon="10.634935353652862"><ele>23.0</ele><time>2026-04-19T08:33:40Z</time></trkpt><trkpt lat="43.630985414657474" lon="10.634970428060914"><ele>23.0</ele><time>2026-04-19T08:33:41Z</time></trkpt><trkpt lat="43.63108191769927" lon="10.63508282989056"><ele>23.0</ele><time>2026-04-19T08:33:42Z</time></trkpt><trkpt lat="43.631191459623466" lon="10.635169163051275"><ele>23.0</ele><time>2026-04-19T08:33:43Z</time></trkpt><trkpt lat="43.631274549348184" lon="10.635256915400285"><ele>23.0</ele><time>2026-04-19T08:33:44Z</time></trkpt><trkpt lat="43.63137983659685" lon="10.635324059086773"><ele>22.0</ele><time>2026-04-19T08:33:45Z</time></trkpt><trkpt lat="43.63150228593642" lon="10.63537899551666"><ele>21.0</ele><time>2026-04-19T08:33:46Z</time></trkpt><trkpt lat="43.63161276052154" lon="10.635441344249706"><ele>20.0</ele><time>2026-04-19T08:33:47Z</time></trkpt><trkpt lat="43.63172000741271" lon="10.63545590838433"><ele>19.0</ele><time>2026-04-19T08:33:48Z</time></trkpt><trkpt lat="43.631817030269616" lon="10.635475876435908"><ele>19.0</ele><time>2026-04-19T08:33:49Z</time></trkpt><trkpt lat="43.631906513327976" lon="10.635480036577656"><ele>19.0</ele><time>2026-04-19T08:33:50Z</time></trkpt><trkpt lat="43.63198320049813" lon="10.635473040372151"><ele>19.0</ele><time>2026-04-19T08:33:51Z</time></trkpt><trkpt lat="43.63206165323515" lon="10.635454392772663"><ele>19.0</ele><time>2026-04-19T08:33:52Z</time></trkpt><trkpt lat="43.632130688056144" lon="10.635405853908281"><ele>19.0</ele><time>2026-04-19T08:33:53Z</time></trkpt><trkpt lat="43.6321984200978" lon="10.63530335323948"><ele>19.0</ele><time>2026-04-19T08:33:54Z</time></trkpt><trkpt lat="43.63225824769412" lon="10.63514597277412"><ele>19.5</ele><time>2026-04-19T08:33:55Z</time></trkpt><trkpt lat="43.63231535549536" lon="10.634960450743014"><ele>20.0</ele><time>2026-04-19T08:33:56Z</time></trkpt><trkpt lat="43.63238563968105" lon="10.634783095235472"><ele>20.5</ele><time>2026-04-19T08:33:57Z</time></trkpt><trkpt lat="43.63249685091528" lon="10.634637982399722"><ele>21.0</ele><time>2026-04-19T08:33:58Z</time></trkpt><trkpt lat="43.632573092372034" lon="10.63446967618116"><ele>21.0</ele><time>2026-04-19T08:33:59Z</time></trkpt><trkpt lat="43.632645640121126" lon="10.634320085180816"><ele>21.0</ele><time>2026-04-19T08:34:00Z</time></trkpt><trkpt lat="43.63270251626188" lon="10.634172379291401"><ele>21.0</ele><time>2026-04-19T08:34:01Z</time></trkpt><trkpt lat="43.63274465932966" lon="10.634033799790496"><ele>21.0</ele><time>2026-04-19T08:34:02Z</time></trkpt><trkpt lat="43.63279181846486" lon="10.63392564048266"><ele>20.6</ele><time>2026-04-19T08:34:03Z</time></trkpt><trkpt lat="43.63282658886559" lon="10.633832045108745"><ele>20.200000000000003</ele><time>2026-04-19T08:34:04Z</time></trkpt><trkpt lat="43.63292700214467" lon="10.633714966935138"><ele>19.799999999999997</ele><time>2026-04-19T08:34:06Z</time></trkpt><trkpt lat="43.63302153700085" lon="10.633729501232125"><ele>19.4</ele><time>2026-04-19T08:34:07Z</time></trkpt><trkpt lat="43.633140530601025" lon="10.63376578237185"><ele>19.0</ele><time>2026-04-19T08:34:08Z</time></trkpt><trkpt lat="43.63329977614583" lon="10.633794672559315"><ele>19.0</ele><time>2026-04-19T08:34:09Z</time></trkpt><trkpt lat="43.633446438831164" lon="10.633828364553771"><ele>19.0</ele><time>2026-04-19T08:34:10Z</time></trkpt><trkpt lat="43.63357088676976" lon="10.633860525042392"><ele>19.0</ele><time>2026-04-19T08:34:11Z</time></trkpt><trkpt lat="43.63369505906469" lon="10.633889208131272"><ele>19.0</ele><time>2026-04-19T08:34:12Z</time></trkpt><trkpt lat="43.633802414110214" lon="10.633912947267563"><ele>19.2</ele><time>2026-04-19T08:34:13Z</time></trkpt><trkpt lat="43.633897675080334" lon="10.633930602572851"><ele>19.4</ele><time>2026-04-19T08:34:14Z</time></trkpt><trkpt lat="43.63399832900205" lon="10.63393469971462"><ele>19.6</ele><time>2026-04-19T08:34:15Z</time></trkpt><trkpt lat="43.634100373772256" lon="10.633909087557548"><ele>19.8</ele><time>2026-04-19T08:34:16Z</time></trkpt><trkpt lat="43.63421091197775" lon="10.633856227073265"><ele>20.0</ele><time>2026-04-19T08:34:17Z</time></trkpt><trkpt lat="43.6343079639083" lon="10.633782689196376"><ele>20.0</ele><time>2026-04-19T08:34:18Z</time></trkpt><trkpt lat="43.63442194950035" lon="10.633657229417087"><ele>20.0</ele><time>2026-04-19T08:34:19Z</time></trkpt><trkpt lat="43.63453140494709" lon="10.633533787797612"><ele>20.0</ele><time>2026-04-19T08:34:20Z</time></trkpt><trkpt lat="43.63463207475795" lon="10.633430766514133"><ele>20.0</ele><time>2026-04-19T08:34:21Z</time></trkpt><trkpt lat="43.63475997698013" lon="10.633364599690585"><ele>19.5</ele><time>2026-04-19T08:34:22Z</time></trkpt><trkpt lat="43.63490374792081" lon="10.633293081388093"><ele>19.0</ele><time>2026-04-19T08:34:23Z</time></trkpt><trkpt lat="43.63503923542637" lon="10.633244841630965"><ele>18.5</ele><time>2026-04-19T08:34:24Z</time></trkpt><trkpt lat="43.63517293948939" lon="10.633188099867034"><ele>18.0</ele><time>2026-04-19T08:34:25Z</time></trkpt><trkpt lat="43.6353100737367" lon="10.63319032810648"><ele>18.0</ele><time>2026-04-19T08:34:26Z</time></trkpt><trkpt lat="43.63545407366222" lon="10.633180608832022"><ele>18.0</ele><time>2026-04-19T08:34:27Z</time></trkpt><trkpt lat="43.63559387331607" lon="10.633208391558385"><ele>18.0</ele><time>2026-04-19T08:34:28Z</time></trkpt><trkpt lat="43.63573805728674" lon="10.633246821647225"><ele>18.0</ele><time>2026-04-19T08:34:29Z</time></trkpt><trkpt lat="43.635866718548144" lon="10.63328488049671"><ele>18.0</ele><time>2026-04-19T08:34:30Z</time></trkpt><trkpt lat="43.6359961966154" lon="10.6333040255151"><ele>18.0</ele><time>2026-04-19T08:34:31Z</time></trkpt><trkpt lat="43.63613424589463" lon="10.633334842382295"><ele>18.0</ele><time>2026-04-19T08:34:32Z</time></trkpt><trkpt lat="43.63628836117541" lon="10.63333119229643"><ele>18.0</ele><time>2026-04-19T08:34:33Z</time></trkpt><trkpt lat="43.63644087008509" lon="10.633305170195593"><ele>18.5</ele><time>2026-04-19T08:34:34Z</time></trkpt><trkpt lat="43.636582746853776" lon="10.633284143622392"><ele>19.0</ele><time>2026-04-19T08:34:35Z</time></trkpt><trkpt lat="43.63671098888987" lon="10.633262612297711"><ele>19.5</ele><time>2026-04-19T08:34:36Z</time></trkpt><trkpt lat="43.63684322540013" lon="10.633230748996489"><ele>20.0</ele><time>2026-04-19T08:34:37Z</time></trkpt><trkpt lat="43.63697628229882" lon="10.633164835257409"><ele>20.0</ele><time>2026-04-19T08:34:38Z</time></trkpt><trkpt lat="43.63711735424624" lon="10.633076547780194"><ele>20.0</ele><time>2026-04-19T08:34:39Z</time></trkpt><trkpt lat="43.63724816405983" lon="10.632978769454532"><ele>20.0</ele><time>2026-04-19T08:34:40Z</time></trkpt><trkpt lat="43.63739181643029" lon="10.63289809760828"><ele>19.666666666666668</ele><time>2026-04-19T08:34:41Z</time></trkpt><trkpt lat="43.63755247099785" lon="10.632804790050935"><ele>19.333333333333332</ele><time>2026-04-19T08:34:42Z</time></trkpt><trkpt lat="43.63772838723268" lon="10.632702580528614"><ele>19.0</ele><time>2026-04-19T08:34:43Z</time></trkpt><trkpt lat="43.637900129284546" lon="10.632623543652983"><ele>18.5</ele><time>2026-04-19T08:34:44Z</time></trkpt><trkpt lat="43.63805139654424" lon="10.632537066807108"><ele>18.0</ele><time>2026-04-19T08:34:45Z</time></trkpt><trkpt lat="43.63817567541556" lon="10.632443389746271"><ele>17.5</ele><time>2026-04-19T08:34:46Z</time></trkpt><trkpt lat="43.63829618677787" lon="10.632374603805893"><ele>17.0</ele><time>2026-04-19T08:34:47Z</time></trkpt><trkpt lat="43.6384210780316" lon="10.63230675995808"><ele>17.0</ele><time>2026-04-19T08:34:48Z</time></trkpt><trkpt lat="43.63852269996069" lon="10.632251026848273"><ele>17.0</ele><time>2026-04-19T08:34:49Z</time></trkpt><trkpt lat="43.63860479795825" lon="10.632198177344556"><ele>17.0</ele><time>2026-04-19T08:34:50Z</time></trkpt><trkpt lat="43.63868915993969" lon="10.632139243202364"><ele>17.0</ele><time>2026-04-19T08:34:51Z</time></trkpt><trkpt lat="43.63877640313807" lon="10.632041501057852"><ele>17.0</ele><time>2026-04-19T08:34:52Z</time></trkpt><trkpt lat="43.638854882959734" lon="10.631894254589318"><ele>17.25</ele><time>2026-04-19T08:34:53Z</time></trkpt><trkpt lat="43.63891529232842" lon="10.6317076918575"><ele>17.5</ele><time>2026-04-19T08:34:54Z</time></trkpt><trkpt lat="43.63894698788154" lon="10.631507396605793"><ele>17.75</ele><time>2026-04-19T08:34:55Z</time></trkpt><trkpt lat="43.638966744142216" lon="10.631326715885171"><ele>18.0</ele><time>2026-04-19T08:34:56Z</time></trkpt><trkpt lat="43.638989351326515" lon="10.631169590925031"><ele>18.25</ele><time>2026-04-19T08:34:57Z</time></trkpt><trkpt lat="43.639062726938896" lon="10.631005637123563"><ele>18.5</ele><time>2026-04-19T08:34:58Z</time></trkpt><trkpt lat="43.63915321322796" lon="10.630838698687944"><ele>18.75</ele><time>2026-04-19T08:34:59Z</time></trkpt><trkpt lat="43.63924785810992" lon="10.630673870271693"><ele>19.0</ele><time>2026-04-19T08:35:00Z</time></trkpt><trkpt lat="43.639316776853434" lon="10.630525473702168"><ele>19.0</ele><time>2026-04-19T08:35:01Z</time></trkpt><trkpt lat="43.63939329784728" lon="10.630394005343353"><ele>19.0</ele><time>2026-04-19T08:35:02Z</time></trkpt><trkpt lat="43.639464966344896" lon="10.630238968240706"><ele>19.0</ele><time>2026-04-19T08:35:03Z</time></trkpt><trkpt lat="43.63952095899273" lon="10.63006804421981"><ele>19.0</ele><time>2026-04-19T08:35:04Z</time></trkpt><trkpt lat="43.63955946182663" lon="10.629881945011096"><ele>19.0</ele><time>2026-04-19T08:35:05Z</time></trkpt><trkpt lat="43.63958940917314" lon="10.629697722134603"><ele>19.0</ele><time>2026-04-19T08:35:06Z</time></trkpt><trkpt lat="43.63962772784451" lon="10.629551100105438"><ele>19.0</ele><time>2026-04-19T08:35:07Z</time></trkpt><trkpt lat="43.63967397518295" lon="10.629387045391422"><ele>19.0</ele><time>2026-04-19T08:35:08Z</time></trkpt><trkpt lat="43.639733675772376" lon="10.629220827528494"><ele>18.75</ele><time>2026-04-19T08:35:09Z</time></trkpt><trkpt lat="43.63980414980416" lon="10.62906059246462"><ele>18.5</ele><time>2026-04-19T08:35:10Z</time></trkpt><trkpt lat="43.63988754952697" lon="10.628913959761968"><ele>18.25</ele><time>2026-04-19T08:35:11Z</time></trkpt><trkpt lat="43.63998636539453" lon="10.628784282407903"><ele>18.0</ele><time>2026-04-19T08:35:12.001Z</time></trkpt><trkpt lat="43.64010382770333" lon="10.628656187286833"><ele>18.0</ele><time>2026-04-19T08:35:13.001Z</time></trkpt><trkpt lat="43.64021880414342" lon="10.628543423192854"><ele>18.0</ele><time>2026-04-19T08:35:14.001Z</time></trkpt><trkpt lat="43.640306133581184" lon="10.62844091961362"><ele>18.0</ele><time>2026-04-19T08:35:15.001Z</time></trkpt><trkpt lat="43.640391178458906" lon="10.628371036742347"><ele>18.0</ele><time>2026-04-19T08:35:16.001Z</time></trkpt><trkpt lat="43.64046712429749" lon="10.628313204013914"><ele>18.0</ele><time>2026-04-19T08:35:17.001Z</time></trkpt><trkpt lat="43.64052619319178" lon="10.62826334989473"><ele>18.333333333333332</ele><time>2026-04-19T08:35:18.001Z</time></trkpt><trkpt lat="43.64058826257219" lon="10.62821945054304"><ele>18.666666666666668</ele><time>2026-04-19T08:35:20.001Z</time></trkpt><trkpt lat="43.64064805407535" lon="10.628173598716584"><ele>19.0</ele><time>2026-04-19T08:35:22.001Z</time></trkpt><trkpt lat="43.640779127632186" lon="10.628119024024514"><ele>19.333333333333336</ele><time>2026-04-19T08:35:29.001Z</time></trkpt><trkpt lat="43.64086027048719" lon="10.628109683479455"><ele>19.666666666666668</ele><time>2026-04-19T08:35:30.001Z</time></trkpt><trkpt lat="43.64095187947718" lon="10.628097436500182"><ele>20.0</ele><time>2026-04-19T08:35:31.001Z</time></trkpt><trkpt lat="43.641053053161386" lon="10.628086257610644"><ele>20.0</ele><time>2026-04-19T08:35:32.001Z</time></trkpt><trkpt lat="43.64115353249212" lon="10.628073074620557"><ele>20.0</ele><time>2026-04-19T08:35:33.001Z</time></trkpt><trkpt lat="43.64125615501942" lon="10.628068289161233"><ele>20.0</ele><time>2026-04-19T08:35:34.001Z</time></trkpt><trkpt lat="43.64137071490512" lon="10.628058616702893"><ele>20.0</ele><time>2026-04-19T08:35:35.001Z</time></trkpt><trkpt lat="43.64148541177017" lon="10.628041040648194"><ele>20.0</ele><time>2026-04-19T08:35:36.001Z</time></trkpt><trkpt lat="43.64158531076309" lon="10.628027426240951"><ele>20.0</ele><time>2026-04-19T08:35:37.001Z</time></trkpt><trkpt lat="43.64170318138982" lon="10.628026003174636"><ele>20.0</ele><time>2026-04-19T08:35:38.001Z</time></trkpt><trkpt lat="43.64183424059466" lon="10.628015878788919"><ele>20.0</ele><time>2026-04-19T08:35:39.001Z</time></trkpt><trkpt lat="43.641959655001095" lon="10.628008512665922"><ele>20.0</ele><time>2026-04-19T08:35:40.001Z</time></trkpt><trkpt lat="43.64208980036758" lon="10.628001392061199"><ele>19.8</ele><time>2026-04-19T08:35:41.001Z</time></trkpt><trkpt lat="43.642218768838774" lon="10.627991824011813"><ele>19.6</ele><time>2026-04-19T08:35:42.001Z</time></trkpt><trkpt lat="43.642326943435556" lon="10.627987280904007"><ele>19.4</ele><time>2026-04-19T08:35:43.001Z</time></trkpt><trkpt lat="43.64243646768115" lon="10.6279783307119"><ele>19.2</ele><time>2026-04-19T08:35:44.001Z</time></trkpt><trkpt lat="43.642503960637775" lon="10.627993306604436"><ele>19.0</ele><time>2026-04-19T08:35:45.001Z</time></trkpt><trkpt lat="43.64262051437545" lon="10.628013802646457"><ele>19.0</ele><time>2026-04-19T08:35:47.001Z</time></trkpt><trkpt lat="43.64268554737952" lon="10.628027901577243"><ele>19.0</ele><time>2026-04-19T08:35:48Z</time></trkpt><trkpt lat="43.642773884188166" lon="10.628041490909485"><ele>19.0</ele><time>2026-04-19T08:35:49Z</time></trkpt><trkpt lat="43.642908033947535" lon="10.628054807015404"><ele>19.0</ele><time>2026-04-19T08:35:50Z</time></trkpt><trkpt lat="43.64305592610044" lon="10.628076184649409"><ele>19.0</ele><time>2026-04-19T08:35:51Z</time></trkpt><trkpt lat="43.64319806443952" lon="10.628109784703783"><ele>18.666666666666664</ele><time>2026-04-19T08:35:52Z</time></trkpt><trkpt lat="43.64335007621018" lon="10.62815149809271"><ele>18.333333333333332</ele><time>2026-04-19T08:35:53Z</time></trkpt><trkpt lat="43.64351880365158" lon="10.628199916729843"><ele>18.0</ele><time>2026-04-19T08:35:54Z</time></trkpt><trkpt lat="43.643698381869946" lon="10.628254538434819"><ele>17.666666666666668</ele><time>2026-04-19T08:35:55Z</time></trkpt><trkpt lat="43.64388307917134" lon="10.628308840892512"><ele>17.333333333333336</ele><time>2026-04-19T08:35:56Z</time></trkpt><trkpt lat="43.644058887326146" lon="10.628356049706674"><ele>17.0</ele><time>2026-04-19T08:35:57Z</time></trkpt><trkpt lat="43.64422645988289" lon="10.628402843122876"><ele>17.0</ele><time>2026-04-19T08:35:58Z</time></trkpt><trkpt lat="43.64439893070091" lon="10.628452934958794"><ele>17.0</ele><time>2026-04-19T08:35:59Z</time></trkpt><trkpt lat="43.644558830530485" lon="10.628502228675627"><ele>17.0</ele><time>2026-04-19T08:36:00Z</time></trkpt><trkpt lat="43.644716948523374" lon="10.628552354115548"><ele>17.666666666666668</ele><time>2026-04-19T08:36:01Z</time></trkpt><trkpt lat="43.64487593030329" lon="10.628609245373429"><ele>18.333333333333332</ele><time>2026-04-19T08:36:02Z</time></trkpt><trkpt lat="43.64502808118431" lon="10.628649006752104"><ele>19.0</ele><time>2026-04-19T08:36:03Z</time></trkpt><trkpt lat="43.645192011135016" lon="10.628686794636108"><ele>18.0</ele><time>2026-04-19T08:36:04Z</time></trkpt><trkpt lat="43.645352587854795" lon="10.628730361723603"><ele>17.0</ele><time>2026-04-19T08:36:05Z</time></trkpt><trkpt lat="43.64552477728844" lon="10.6287782621576"><ele>16.0</ele><time>2026-04-19T08:36:06Z</time></trkpt><trkpt lat="43.64569262887764" lon="10.628832052026928"><ele>16.0</ele><time>2026-04-19T08:36:07Z</time></trkpt><trkpt lat="43.64586455599242" lon="10.628878858229566"><ele>16.0</ele><time>2026-04-19T08:36:08Z</time></trkpt><trkpt lat="43.64603868948757" lon="10.62893555140883"><ele>16.0</ele><time>2026-04-19T08:36:09Z</time></trkpt><trkpt lat="43.646215239084995" lon="10.62898511620467"><ele>16.0</ele><time>2026-04-19T08:36:10Z</time></trkpt><trkpt lat="43.64639015587481" lon="10.6290411564129"><ele>16.0</ele><time>2026-04-19T08:36:11Z</time></trkpt><trkpt lat="43.64655178593431" lon="10.629087167660849"><ele>16.0</ele><time>2026-04-19T08:36:12Z</time></trkpt><trkpt lat="43.646691149804894" lon="10.62912464252491"><ele>16.0</ele><time>2026-04-19T08:36:13Z</time></trkpt><trkpt lat="43.646816965122596" lon="10.629162492450165"><ele>16.0</ele><time>2026-04-19T08:36:14Z</time></trkpt><trkpt lat="43.646929298781394" lon="10.629197690373752"><ele>16.0</ele><time>2026-04-19T08:36:15Z</time></trkpt><trkpt lat="43.64703203845347" lon="10.629228922321632"><ele>16.0</ele><time>2026-04-19T08:36:16Z</time></trkpt><trkpt lat="43.64712965765168" lon="10.629259195766227"><ele>16.0</ele><time>2026-04-19T08:36:17Z</time></trkpt><trkpt lat="43.64723584421026" lon="10.629286803399372"><ele>16.25</ele><time>2026-04-19T08:36:18Z</time></trkpt><trkpt lat="43.64732176544066" lon="10.629314150733306"><ele>16.5</ele><time>2026-04-19T08:36:19Z</time></trkpt><trkpt lat="43.64744987751841" lon="10.62935553245439"><ele>16.75</ele><time>2026-04-19T08:36:20Z</time></trkpt><trkpt lat="43.64757794395399" lon="10.62938951070589"><ele>17.0</ele><time>2026-04-19T08:36:21Z</time></trkpt><trkpt lat="43.64771207341788" lon="10.629426202031855"><ele>17.0</ele><time>2026-04-19T08:36:22Z</time></trkpt><trkpt lat="43.647843775154925" lon="10.62946652730348"><ele>17.0</ele><time>2026-04-19T08:36:23Z</time></trkpt><trkpt lat="43.64796773462733" lon="10.629501566580117"><ele>17.0</ele><time>2026-04-19T08:36:24Z</time></trkpt><trkpt lat="43.64808491440811" lon="10.629533510950607"><ele>17.0</ele><time>2026-04-19T08:36:25Z</time></trkpt><trkpt lat="43.648205525416444" lon="10.629568531689802"><ele>17.0</ele><time>2026-04-19T08:36:26Z</time></trkpt><trkpt lat="43.648335021015114" lon="10.62961002976806"><ele>17.0</ele><time>2026-04-19T08:36:27Z</time></trkpt><trkpt lat="43.64848266096998" lon="10.62965367105756"><ele>17.0</ele><time>2026-04-19T08:36:28Z</time></trkpt><trkpt lat="43.648645581773515" lon="10.629691618463655"><ele>17.0</ele><time>2026-04-19T08:36:29Z</time></trkpt><trkpt lat="43.64880882592161" lon="10.629736971008048"><ele>17.0</ele><time>2026-04-19T08:36:30Z</time></trkpt><trkpt lat="43.648965301313474" lon="10.6297831109749"><ele>17.0</ele><time>2026-04-19T08:36:31Z</time></trkpt><trkpt lat="43.64910842693187" lon="10.629821463149737"><ele>17.0</ele><time>2026-04-19T08:36:32Z</time></trkpt><trkpt lat="43.6492412242154" lon="10.629858358599305"><ele>17.0</ele><time>2026-04-19T08:36:33Z</time></trkpt><trkpt lat="43.64937730222594" lon="10.629898981600098"><ele>16.75</ele><time>2026-04-19T08:36:34Z</time></trkpt><trkpt lat="43.64950500246719" lon="10.62993916180488"><ele>16.5</ele><time>2026-04-19T08:36:35Z</time></trkpt><trkpt lat="43.64962421448155" lon="10.62997771416212"><ele>16.25</ele><time>2026-04-19T08:36:36Z</time></trkpt><trkpt lat="43.64973850137173" lon="10.630013374814677"><ele>16.0</ele><time>2026-04-19T08:36:37Z</time></trkpt><trkpt lat="43.64984435437521" lon="10.63004561980479"><ele>15.999999999999998</ele><time>2026-04-19T08:36:38Z</time></trkpt><trkpt lat="43.64994968605015" lon="10.630076534597416"><ele>16.0</ele><time>2026-04-19T08:36:39Z</time></trkpt><trkpt lat="43.65004576121074" lon="10.630102320562207"><ele>16.0</ele><time>2026-04-19T08:36:40Z</time></trkpt><trkpt lat="43.65013327625546" lon="10.630122342774953"><ele>16.0</ele><time>2026-04-19T08:36:41Z</time></trkpt><trkpt lat="43.650209654926776" lon="10.630137649782004"><ele>15.999999999999998</ele><time>2026-04-19T08:36:42Z</time></trkpt><trkpt lat="43.65028560699404" lon="10.630151436640821"><ele>16.0</ele><time>2026-04-19T08:36:43Z</time></trkpt><trkpt lat="43.650389468122206" lon="10.630174934776402"><ele>16.0</ele><time>2026-04-19T08:36:44Z</time></trkpt><trkpt lat="43.650499532208" lon="10.630198199886634"><ele>16.0</ele><time>2026-04-19T08:36:45Z</time></trkpt><trkpt lat="43.65061763059137" lon="10.630207931915312"><ele>16.0</ele><time>2026-04-19T08:36:46Z</time></trkpt><trkpt lat="43.650738715503046" lon="10.630205227125"><ele>16.0</ele><time>2026-04-19T08:36:47Z</time></trkpt><trkpt lat="43.650845769653685" lon="10.630110382541167"><ele>16.0</ele><time>2026-04-19T08:36:48Z</time></trkpt><trkpt lat="43.65093454124795" lon="10.630038684196622"><ele>16.0</ele><time>2026-04-19T08:36:49Z</time></trkpt><trkpt lat="43.65101555609943" lon="10.629969698191783"><ele>16.0</ele><time>2026-04-19T08:36:50Z</time></trkpt><trkpt lat="43.65109970280987" lon="10.629904757098098"><ele>16.0</ele><time>2026-04-19T08:36:51Z</time></trkpt><trkpt lat="43.65119388348682" lon="10.629830575267894"><ele>16.0</ele><time>2026-04-19T08:36:52Z</time></trkpt><trkpt lat="43.651290690888445" lon="10.629737084835442"><ele>15.8</ele><time>2026-04-19T08:36:53Z</time></trkpt><trkpt lat="43.651382358625874" lon="10.629646757161703"><ele>15.600000000000001</ele><time>2026-04-19T08:36:54Z</time></trkpt><trkpt lat="43.651470844176494" lon="10.62955711964217"><ele>15.4</ele><time>2026-04-19T08:36:55Z</time></trkpt><trkpt lat="43.65155103994134" lon="10.629473324107083"><ele>15.2</ele><time>2026-04-19T08:36:56Z</time></trkpt><trkpt lat="43.651624613756844" lon="10.62938746260714"><ele>15.0</ele><time>2026-04-19T08:36:57Z</time></trkpt><trkpt lat="43.651698258633544" lon="10.629307044922598"><ele>14.8</ele><time>2026-04-19T08:36:58Z</time></trkpt><trkpt lat="43.651772418663946" lon="10.62922789709013"><ele>14.6</ele><time>2026-04-19T08:36:59Z</time></trkpt><trkpt lat="43.65184419710802" lon="10.62915154647939"><ele>14.399999999999999</ele><time>2026-04-19T08:37:00Z</time></trkpt><trkpt lat="43.651919371142824" lon="10.629074272556856"><ele>14.2</ele><time>2026-04-19T08:37:01Z</time></trkpt><trkpt lat="43.65199318116364" lon="10.628999672676809"><ele>14.0</ele><time>2026-04-19T08:37:02Z</time></trkpt><trkpt lat="43.652063951373925" lon="10.628924415502068"><ele>14.0</ele><time>2026-04-19T08:37:03Z</time></trkpt><trkpt lat="43.65213554378333" lon="10.628847475788138"><ele>13.999999999999998</ele><time>2026-04-19T08:37:04Z</time></trkpt><trkpt lat="43.65220818528204" lon="10.62876976852641"><ele>13.999999999999998</ele><time>2026-04-19T08:37:05Z</time></trkpt><trkpt lat="43.652284741348616" lon="10.628689805889191"><ele>14.0</ele><time>2026-04-19T08:37:06Z</time></trkpt><trkpt lat="43.652358435702936" lon="10.628606070198302"><ele>14.0</ele><time>2026-04-19T08:37:07Z</time></trkpt><trkpt lat="43.65242504064818" lon="10.628536641685928"><ele>13.833333333333334</ele><time>2026-04-19T08:37:08Z</time></trkpt><trkpt lat="43.65248699931736" lon="10.628472017614856"><ele>13.666666666666668</ele><time>2026-04-19T08:37:09Z</time></trkpt><trkpt lat="43.652547311174565" lon="10.628405580664104"><ele>13.5</ele><time>2026-04-19T08:37:10Z</time></trkpt><trkpt lat="43.65261137091145" lon="10.628339218329437"><ele>13.333333333333332</ele><time>2026-04-19T08:37:11Z</time></trkpt><trkpt lat="43.652677002480615" lon="10.628272826757758"><ele>13.166666666666666</ele><time>2026-04-19T08:37:12Z</time></trkpt><trkpt lat="43.65274471309301" lon="10.628209086166846"><ele>13.0</ele><time>2026-04-19T08:37:13Z</time></trkpt><trkpt lat="43.652823432640744" lon="10.62814363120144"><ele>13.0</ele><time>2026-04-19T08:37:14Z</time></trkpt><trkpt lat="43.65289859873874" lon="10.628101376318046"><ele>13.0</ele><time>2026-04-19T08:37:15Z</time></trkpt><trkpt lat="43.65299416870497" lon="10.628077265964635"><ele>13.0</ele><time>2026-04-19T08:37:17Z</time></trkpt><trkpt lat="43.65311110323564" lon="10.628048605185494"><ele>13.0</ele><time>2026-04-19T08:37:20Z</time></trkpt><trkpt lat="43.65317736151802" lon="10.628063914560126"><ele>13.0</ele><time>2026-04-19T08:37:21Z</time></trkpt><trkpt lat="43.65326359963744" lon="10.628075384914846"><ele>13.0</ele><time>2026-04-19T08:37:22Z</time></trkpt><trkpt lat="43.65336062756309" lon="10.628170792048778"><ele>13.0</ele><time>2026-04-19T08:37:23Z</time></trkpt><trkpt lat="43.65346023157176" lon="10.628259305369191"><ele>13.0</ele><time>2026-04-19T08:37:24Z</time></trkpt><trkpt lat="43.65355632638545" lon="10.628387287572851"><ele>13.0</ele><time>2026-04-19T08:37:25Z</time></trkpt><trkpt lat="43.65364480597825" lon="10.628564907689865"><ele>13.25</ele><time>2026-04-19T08:37:26Z</time></trkpt><trkpt lat="43.653720364847054" lon="10.628733038547992"><ele>13.5</ele><time>2026-04-19T08:37:27Z</time></trkpt><trkpt lat="43.65379118942946" lon="10.628875014647537"><ele>13.75</ele><time>2026-04-19T08:37:28Z</time></trkpt><trkpt lat="43.653866182323384" lon="10.62902501750674"><ele>14.0</ele><time>2026-04-19T08:37:29Z</time></trkpt><trkpt lat="43.65393747557192" lon="10.62919424821517"><ele>14.0</ele><time>2026-04-19T08:37:30Z</time></trkpt><trkpt lat="43.653999108041" lon="10.629368843714383"><ele>14.0</ele><time>2026-04-19T08:37:31Z</time></trkpt><trkpt lat="43.6540521814768" lon="10.629554036396442"><ele>14.0</ele><time>2026-04-19T08:37:32Z</time></trkpt><trkpt lat="43.654091814291874" lon="10.629728630382614"><ele>14.0</ele><time>2026-04-19T08:37:33Z</time></trkpt><trkpt lat="43.654128512040124" lon="10.629900462373456"><ele>14.0</ele><time>2026-04-19T08:37:34Z</time></trkpt><trkpt lat="43.654157243451685" lon="10.6300687111646"><ele>13.999999999999998</ele><time>2026-04-19T08:37:35Z</time></trkpt><trkpt lat="43.65417494783914" lon="10.630220491594084"><ele>13.999999999999998</ele><time>2026-04-19T08:37:36Z</time></trkpt><trkpt lat="43.65418618706941" lon="10.630361592829141"><ele>14.0</ele><time>2026-04-19T08:37:37Z</time></trkpt><trkpt lat="43.65419395982097" lon="10.630487098003183"><ele>14.0</ele><time>2026-04-19T08:37:38Z</time></trkpt><trkpt lat="43.6542011059384" lon="10.630598273882905"><ele>14.0</ele><time>2026-04-19T08:37:39Z</time></trkpt><trkpt lat="43.65420621151518" lon="10.630698298550668"><ele>13.999999999999998</ele><time>2026-04-19T08:37:40Z</time></trkpt><trkpt lat="43.65419869555281" lon="10.630789108013806"><ele>13.999999999999998</ele><time>2026-04-19T08:37:41Z</time></trkpt><trkpt lat="43.654152162961246" lon="10.630934438662978"><ele>14.0</ele><time>2026-04-19T08:37:43Z</time></trkpt><trkpt lat="43.654065954494996" lon="10.631041614603278"><ele>14.0</ele><time>2026-04-19T08:37:45Z</time></trkpt><trkpt lat="43.65400966388445" lon="10.631202628540528"><ele>14.000000000000002</ele><time>2026-04-19T08:37:47Z</time></trkpt><trkpt lat="43.65401079585292" lon="10.63130491752634"><ele>14.0</ele><time>2026-04-19T08:37:48Z</time></trkpt><trkpt lat="43.654032479524126" lon="10.63141091298107"><ele>14.0</ele><time>2026-04-19T08:37:49Z</time></trkpt><trkpt lat="43.65408410252601" lon="10.631511344271107"><ele>14.0</ele><time>2026-04-19T08:37:50Z</time></trkpt><trkpt lat="43.654145848388325" lon="10.631618623065942"><ele>14.000000000000002</ele><time>2026-04-19T08:37:51Z</time></trkpt><trkpt lat="43.65419285365965" lon="10.631735784001396"><ele>14.0</ele><time>2026-04-19T08:37:52Z</time></trkpt><trkpt lat="43.65420967960356" lon="10.631879953371394"><ele>14.5</ele><time>2026-04-19T08:37:53Z</time></trkpt><trkpt lat="43.65419832292556" lon="10.63204564815507"><ele>15.0</ele><time>2026-04-19T08:37:54Z</time></trkpt><trkpt lat="43.65417985823933" lon="10.632219691313866"><ele>15.5</ele><time>2026-04-19T08:37:55Z</time></trkpt><trkpt lat="43.65416895011668" lon="10.632430295776212"><ele>16.0</ele><time>2026-04-19T08:37:56Z</time></trkpt><trkpt lat="43.654156081243904" lon="10.6326791908099"><ele>16.666666666666664</ele><time>2026-04-19T08:37:57Z</time></trkpt><trkpt lat="43.654132688085184" lon="10.632936724998277"><ele>17.333333333333332</ele><time>2026-04-19T08:37:58Z</time></trkpt><trkpt lat="43.65410648030532" lon="10.633219290096013"><ele>18.0</ele><time>2026-04-19T08:37:59Z</time></trkpt><trkpt lat="43.65408660834116" lon="10.633467803195165"><ele>17.333333333333332</ele><time>2026-04-19T08:38:00Z</time></trkpt><trkpt lat="43.65406451334208" lon="10.63368060653749"><ele>16.666666666666664</ele><time>2026-04-19T08:38:01Z</time></trkpt><trkpt lat="43.65404866268137" lon="10.633880453004405"><ele>16.0</ele><time>2026-04-19T08:38:02Z</time></trkpt><trkpt lat="43.65402830933718" lon="10.634099109508737"><ele>16.0</ele><time>2026-04-19T08:38:03Z</time></trkpt><trkpt lat="43.654008805803294" lon="10.634302742013826"><ele>16.0</ele><time>2026-04-19T08:38:04Z</time></trkpt><trkpt lat="43.65398865906941" lon="10.634481629804439"><ele>16.0</ele><time>2026-04-19T08:38:05Z</time></trkpt><trkpt lat="43.65396592713286" lon="10.634634369949717"><ele>16.0</ele><time>2026-04-19T08:38:06Z</time></trkpt><trkpt lat="43.65393652871906" lon="10.634767062008999"><ele>15.600000000000001</ele><time>2026-04-19T08:38:07Z</time></trkpt><trkpt lat="43.65389814314891" lon="10.634885607496146"><ele>15.200000000000001</ele><time>2026-04-19T08:38:08Z</time></trkpt><trkpt lat="43.65384054487485" lon="10.634994328527107"><ele>14.799999999999999</ele><time>2026-04-19T08:38:09Z</time></trkpt><trkpt lat="43.653772199325914" lon="10.635084958222244"><ele>14.399999999999999</ele><time>2026-04-19T08:38:10Z</time></trkpt><trkpt lat="43.653720047966814" lon="10.635171450400456"><ele>14.0</ele><time>2026-04-19T08:38:11Z</time></trkpt><trkpt lat="43.653695264666815" lon="10.63528381426182"><ele>14.25</ele><time>2026-04-19T08:38:12Z</time></trkpt><trkpt lat="43.65370037132189" lon="10.635427801800157"><ele>14.5</ele><time>2026-04-19T08:38:13Z</time></trkpt><trkpt lat="43.65374112790082" lon="10.635587552026719"><ele>14.75</ele><time>2026-04-19T08:38:14Z</time></trkpt><trkpt lat="43.65380073810579" lon="10.635755294445744"><ele>15.0</ele><time>2026-04-19T08:38:15Z</time></trkpt><trkpt lat="43.653836652959924" lon="10.635932301840647"><ele>15.333333333333332</ele><time>2026-04-19T08:38:16Z</time></trkpt><trkpt lat="43.65383851306685" lon="10.636145023419472"><ele>15.666666666666666</ele><time>2026-04-19T08:38:17Z</time></trkpt><trkpt lat="43.653809530196156" lon="10.636386225298205"><ele>16.0</ele><time>2026-04-19T08:38:18Z</time></trkpt><trkpt lat="43.65378056320978" lon="10.636614510164472"><ele>16.0</ele><time>2026-04-19T08:38:19Z</time></trkpt><trkpt lat="43.653765464791285" lon="10.636853116173503"><ele>16.0</ele><time>2026-04-19T08:38:20Z</time></trkpt><trkpt lat="43.65375210391181" lon="10.63712942822994"><ele>16.0</ele><time>2026-04-19T08:38:21Z</time></trkpt><trkpt lat="43.65373289911995" lon="10.63741637422139"><ele>16.0</ele><time>2026-04-19T08:38:22Z</time></trkpt><trkpt lat="43.65370770994134" lon="10.637704931912447"><ele>16.0</ele><time>2026-04-19T08:38:23Z</time></trkpt><trkpt lat="43.65368706872057" lon="10.638016643311005"><ele>16.0</ele><time>2026-04-19T08:38:24Z</time></trkpt><trkpt lat="43.65367625291873" lon="10.638334099656248"><ele>15.0</ele><time>2026-04-19T08:38:25Z</time></trkpt><trkpt lat="43.65368004499772" lon="10.638659371211325"><ele>14.0</ele><time>2026-04-19T08:38:26Z</time></trkpt><trkpt lat="43.65369822784447" lon="10.63898393482144"><ele>14.0</ele><time>2026-04-19T08:38:27Z</time></trkpt><trkpt lat="43.65372308782774" lon="10.639293269480147"><ele>14.0</ele><time>2026-04-19T08:38:28Z</time></trkpt><trkpt lat="43.65375559916566" lon="10.639577228348625"><ele>14.0</ele><time>2026-04-19T08:38:29Z</time></trkpt><trkpt lat="43.65378933488671" lon="10.639848482610024"><ele>14.0</ele><time>2026-04-19T08:38:30Z</time></trkpt><trkpt lat="43.65381834390548" lon="10.64010913798272"><ele>14.0</ele><time>2026-04-19T08:38:31Z</time></trkpt><trkpt lat="43.65384468886796" lon="10.640370590975326"><ele>14.0</ele><time>2026-04-19T08:38:32Z</time></trkpt><trkpt lat="43.65387145121549" lon="10.64063636838598"><ele>14.0</ele><time>2026-04-19T08:38:33Z</time></trkpt><trkpt lat="43.65389987724828" lon="10.6408933228052"><ele>14.0</ele><time>2026-04-19T08:38:34Z</time></trkpt><trkpt lat="43.65392801144734" lon="10.641138155407496"><ele>14.0</ele><time>2026-04-19T08:38:35Z</time></trkpt><trkpt lat="43.653957174059315" lon="10.641388098996291"><ele>14.666666666666668</ele><time>2026-04-19T08:38:36Z</time></trkpt><trkpt lat="43.65398632428122" lon="10.641651356569815"><ele>15.333333333333332</ele><time>2026-04-19T08:38:37Z</time></trkpt><trkpt lat="43.65401256202107" lon="10.641902760249307"><ele>16.0</ele><time>2026-04-19T08:38:38Z</time></trkpt><trkpt lat="43.65403779227887" lon="10.642139372708067"><ele>16.0</ele><time>2026-04-19T08:38:39Z</time></trkpt><trkpt lat="43.654067750930466" lon="10.642391433869966"><ele>16.0</ele><time>2026-04-19T08:38:40Z</time></trkpt><trkpt lat="43.654094350084016" lon="10.642620769854743"><ele>16.0</ele><time>2026-04-19T08:38:41Z</time></trkpt><trkpt lat="43.65411777197371" lon="10.642831899649476"><ele>16.0</ele><time>2026-04-19T08:38:42Z</time></trkpt><trkpt lat="43.65413839230227" lon="10.643031868242145"><ele>16.0</ele><time>2026-04-19T08:38:43Z</time></trkpt><trkpt lat="43.65415827347295" lon="10.64322331640776"><ele>16.0</ele><time>2026-04-19T08:38:44Z</time></trkpt><trkpt lat="43.65417668155453" lon="10.643408846425912"><ele>16.0</ele><time>2026-04-19T08:38:45Z</time></trkpt><trkpt lat="43.65419809839333" lon="10.643596960831674"><ele>15.25</ele><time>2026-04-19T08:38:46Z</time></trkpt><trkpt lat="43.65422063054928" lon="10.643784796247393"><ele>14.5</ele><time>2026-04-19T08:38:47Z</time></trkpt><trkpt lat="43.65424062147867" lon="10.643948397309536"><ele>13.75</ele><time>2026-04-19T08:38:48Z</time></trkpt><trkpt lat="43.65425592256253" lon="10.644094977931456"><ele>13.0</ele><time>2026-04-19T08:38:49Z</time></trkpt><trkpt lat="43.65427057340465" lon="10.644218034079664"><ele>12.999999999999998</ele><time>2026-04-19T08:38:50Z</time></trkpt><trkpt lat="43.65427215068573" lon="10.644321581557744"><ele>13.0</ele><time>2026-04-19T08:38:51Z</time></trkpt><trkpt lat="43.654253194169804" lon="10.644423866150246"><ele>13.0</ele><time>2026-04-19T08:38:52Z</time></trkpt><trkpt lat="43.654208925381916" lon="10.644518520475641"><ele>13.0</ele><time>2026-04-19T08:38:53Z</time></trkpt><trkpt lat="43.65413713315508" lon="10.644616367712235"><ele>12.999999999999998</ele><time>2026-04-19T08:38:54Z</time></trkpt><trkpt lat="43.654067872995356" lon="10.644680651585565"><ele>13.0</ele><time>2026-04-19T08:38:55Z</time></trkpt><trkpt lat="43.65403061935018" lon="10.644759255432252"><ele>13.2</ele><time>2026-04-19T08:38:56Z</time></trkpt><trkpt lat="43.65402582936336" lon="10.644869765176542"><ele>13.4</ele><time>2026-04-19T08:38:57Z</time></trkpt><trkpt lat="43.65405732830318" lon="10.645003398804183"><ele>13.599999999999998</ele><time>2026-04-19T08:38:58Z</time></trkpt><trkpt lat="43.65415223609266" lon="10.645106162986142"><ele>13.799999999999999</ele><time>2026-04-19T08:38:59Z</time></trkpt><trkpt lat="43.65418464863853" lon="10.64528432465458"><ele>14.0</ele><time>2026-04-19T08:39:00Z</time></trkpt><trkpt lat="43.65423306501404" lon="10.645459575284638"><ele>14.0</ele><time>2026-04-19T08:39:01Z</time></trkpt><trkpt lat="43.654265956293386" lon="10.645641565465535"><ele>14.0</ele><time>2026-04-19T08:39:02Z</time></trkpt><trkpt lat="43.65426093866002" lon="10.645840107459014"><ele>14.0</ele><time>2026-04-19T08:39:03Z</time></trkpt><trkpt lat="43.65426158626568" lon="10.646026240400943"><ele>14.0</ele><time>2026-04-19T08:39:04Z</time></trkpt><trkpt lat="43.654205588352596" lon="10.646226750866106"><ele>14.0</ele><time>2026-04-19T08:39:05Z</time></trkpt><trkpt lat="43.65416684009937" lon="10.646464941927459"><ele>14.0</ele><time>2026-04-19T08:39:06Z</time></trkpt><trkpt lat="43.654099578452026" lon="10.646716171065457"><ele>14.0</ele><time>2026-04-19T08:39:07Z</time></trkpt><trkpt lat="43.65402190825309" lon="10.646977153699234"><ele>14.0</ele><time>2026-04-19T08:39:08Z</time></trkpt><trkpt lat="43.65393644650787" lon="10.647220074782505"><ele>14.0</ele><time>2026-04-19T08:39:09Z</time></trkpt><trkpt lat="43.653846404096306" lon="10.64746506449506"><ele>14.0</ele><time>2026-04-19T08:39:10Z</time></trkpt><trkpt lat="43.653743757202726" lon="10.647707248983092"><ele>14.333333333333334</ele><time>2026-04-19T08:39:11Z</time></trkpt><trkpt lat="43.6536340968991" lon="10.647963466946937"><ele>14.666666666666668</ele><time>2026-04-19T08:39:12Z</time></trkpt><trkpt lat="43.65353337183681" lon="10.64819214070492"><ele>15.0</ele><time>2026-04-19T08:39:13Z</time></trkpt><trkpt lat="43.65343944716117" lon="10.648407953288073"><ele>15.333333333333332</ele><time>2026-04-19T08:39:14Z</time></trkpt><trkpt lat="43.653355136099435" lon="10.648631727904776"><ele>15.666666666666666</ele><time>2026-04-19T08:39:15Z</time></trkpt><trkpt lat="43.6532828159385" lon="10.648862477848015"><ele>16.0</ele><time>2026-04-19T08:39:16Z</time></trkpt><trkpt lat="43.65323525858827" lon="10.649104063769965"><ele>16.0</ele><time>2026-04-19T08:39:17Z</time></trkpt><trkpt lat="43.653194567864674" lon="10.64934904272773"><ele>16.0</ele><time>2026-04-19T08:39:18Z</time></trkpt><trkpt lat="43.65316098897571" lon="10.649592902498458"><ele>16.0</ele><time>2026-04-19T08:39:19Z</time></trkpt><trkpt lat="43.65314055083188" lon="10.64983292774606"><ele>16.666666666666664</ele><time>2026-04-19T08:39:20Z</time></trkpt><trkpt lat="43.65313559794208" lon="10.650073236454885"><ele>17.333333333333332</ele><time>2026-04-19T08:39:21Z</time></trkpt><trkpt lat="43.6531462517142" lon="10.650320065951837"><ele>18.0</ele><time>2026-04-19T08:39:22Z</time></trkpt><trkpt lat="43.653173209782395" lon="10.650572754000558"><ele>18.0</ele><time>2026-04-19T08:39:23Z</time></trkpt><trkpt lat="43.65321590680312" lon="10.650827896907803"><ele>18.0</ele><time>2026-04-19T08:39:24Z</time></trkpt><trkpt lat="43.65327226485038" lon="10.651084492217326"><ele>18.0</ele><time>2026-04-19T08:39:25Z</time></trkpt><trkpt lat="43.65334810924109" lon="10.65134687493117"><ele>17.333333333333332</ele><time>2026-04-19T08:39:26Z</time></trkpt><trkpt lat="43.6534342152929" lon="10.651614688248285"><ele>16.666666666666664</ele><time>2026-04-19T08:39:27Z</time></trkpt><trkpt lat="43.65352542725543" lon="10.65188328088621"><ele>16.0</ele><time>2026-04-19T08:39:28Z</time></trkpt><trkpt lat="43.65361365759728" lon="10.652140409179202"><ele>15.666666666666666</ele><time>2026-04-19T08:39:29Z</time></trkpt><trkpt lat="43.6536935940079" lon="10.652376177500544"><ele>15.333333333333332</ele><time>2026-04-19T08:39:30Z</time></trkpt><trkpt lat="43.65377328636143" lon="10.652604432291877"><ele>15.0</ele><time>2026-04-19T08:39:31Z</time></trkpt><trkpt lat="43.653853172197515" lon="10.652830946514685"><ele>15.0</ele><time>2026-04-19T08:39:32Z</time></trkpt><trkpt lat="43.65392568589075" lon="10.65302780816737"><ele>15.0</ele><time>2026-04-19T08:39:33Z</time></trkpt><trkpt lat="43.653990146670075" lon="10.653209659166256"><ele>15.0</ele><time>2026-04-19T08:39:34Z</time></trkpt><trkpt lat="43.65404993783809" lon="10.653375072350702"><ele>15.0</ele><time>2026-04-19T08:39:35Z</time></trkpt><trkpt lat="43.654108530605114" lon="10.653532997178258"><ele>15.2</ele><time>2026-04-19T08:39:36Z</time></trkpt><trkpt lat="43.65416041620281" lon="10.65368503220833"><ele>15.4</ele><time>2026-04-19T08:39:37Z</time></trkpt><trkpt lat="43.65420363914984" lon="10.6538238591459"><ele>15.600000000000001</ele><time>2026-04-19T08:39:38Z</time></trkpt><trkpt lat="43.65423878148521" lon="10.65395019106121"><ele>15.8</ele><time>2026-04-19T08:39:39Z</time></trkpt><trkpt lat="43.65426900660244" lon="10.654065674240195"><ele>16.0</ele><time>2026-04-19T08:39:40Z</time></trkpt><trkpt lat="43.65429268111996" lon="10.65416310037302"><ele>16.0</ele><time>2026-04-19T08:39:41Z</time></trkpt><trkpt lat="43.654323099821305" lon="10.654312990028421"><ele>16.0</ele><time>2026-04-19T08:39:43Z</time></trkpt><trkpt lat="43.65432095711318" lon="10.654478871535805"><ele>16.0</ele><time>2026-04-19T08:39:45Z</time></trkpt><trkpt lat="43.65432460325743" lon="10.654579462849764"><ele>16.0</ele><time>2026-04-19T08:39:46Z</time></trkpt><trkpt lat="43.65430566397192" lon="10.654711790228603"><ele>16.0</ele><time>2026-04-19T08:39:48Z</time></trkpt><trkpt lat="43.6542590764118" lon="10.654808859846247"><ele>15.8</ele><time>2026-04-19T08:39:50Z</time></trkpt><trkpt lat="43.65421152984887" lon="10.654886327716255"><ele>15.600000000000001</ele><time>2026-04-19T08:39:54Z</time></trkpt><trkpt lat="43.654109819001114" lon="10.654987288421564"><ele>15.4</ele><time>2026-04-19T08:39:56Z</time></trkpt><trkpt lat="43.65404073795701" lon="10.655069704105275"><ele>15.2</ele><time>2026-04-19T08:39:57Z</time></trkpt><trkpt lat="43.653997237898054" lon="10.655179586830613"><ele>15.0</ele><time>2026-04-19T08:39:58Z</time></trkpt><trkpt lat="43.65395874832421" lon="10.655282422051476"><ele>14.6</ele><time>2026-04-19T08:39:59Z</time></trkpt><trkpt lat="43.65392444353267" lon="10.655395000130314"><ele>14.2</ele><time>2026-04-19T08:40:00Z</time></trkpt><trkpt lat="43.65394841343851" lon="10.655534919829613"><ele>13.8</ele><time>2026-04-19T08:40:01Z</time></trkpt><trkpt lat="43.65397703671563" lon="10.65566837750247"><ele>13.4</ele><time>2026-04-19T08:40:02Z</time></trkpt><trkpt lat="43.65402868479659" lon="10.655791376705105"><ele>13.0</ele><time>2026-04-19T08:40:03Z</time></trkpt><trkpt lat="43.654091400529595" lon="10.655903446572715"><ele>13.0</ele><time>2026-04-19T08:40:04Z</time></trkpt><trkpt lat="43.65415368099503" lon="10.6560024248139"><ele>13.0</ele><time>2026-04-19T08:40:05Z</time></trkpt><trkpt lat="43.65423573181526" lon="10.656094903956875"><ele>13.0</ele><time>2026-04-19T08:40:06Z</time></trkpt><trkpt lat="43.654318215189775" lon="10.656178760155866"><ele>13.0</ele><time>2026-04-19T08:40:07Z</time></trkpt><trkpt lat="43.65442003852741" lon="10.656243627074316"><ele>13.0</ele><time>2026-04-19T08:40:08Z</time></trkpt><trkpt lat="43.65453786707391" lon="10.656281925871767"><ele>13.5</ele><time>2026-04-19T08:40:09Z</time></trkpt><trkpt lat="43.654663546721814" lon="10.656308235839951"><ele>14.0</ele><time>2026-04-19T08:40:10Z</time></trkpt><trkpt lat="43.65478714388472" lon="10.656327657562786"><ele>14.5</ele><time>2026-04-19T08:40:11Z</time></trkpt><trkpt lat="43.6549016100278" lon="10.656346014463486"><ele>15.0</ele><time>2026-04-19T08:40:12Z</time></trkpt><trkpt lat="43.655007776002876" lon="10.656377852727587"><ele>15.0</ele><time>2026-04-19T08:40:13Z</time></trkpt><trkpt lat="43.655111228090895" lon="10.656431537154758"><ele>15.0</ele><time>2026-04-19T08:40:14Z</time></trkpt><trkpt lat="43.65520755103323" lon="10.65651841064715"><ele>15.0</ele><time>2026-04-19T08:40:15Z</time></trkpt><trkpt lat="43.65530825110722" lon="10.656652744012804"><ele>15.0</ele><time>2026-04-19T08:40:16Z</time></trkpt><trkpt lat="43.65541520311738" lon="10.656811500218739"><ele>15.0</ele><time>2026-04-19T08:40:17Z</time></trkpt><trkpt lat="43.65552621859454" lon="10.656966687805863"><ele>15.0</ele><time>2026-04-19T08:40:18Z</time></trkpt><trkpt lat="43.65563757820027" lon="10.65710821493369"><ele>15.0</ele><time>2026-04-19T08:40:19Z</time></trkpt><trkpt lat="43.655758474646" lon="10.657238384259864"><ele>15.0</ele><time>2026-04-19T08:40:20Z</time></trkpt><trkpt lat="43.655889996001655" lon="10.657351243326188"><ele>15.0</ele><time>2026-04-19T08:40:21Z</time></trkpt><trkpt lat="43.656029499524934" lon="10.657457026639523"><ele>15.0</ele><time>2026-04-19T08:40:22Z</time></trkpt><trkpt lat="43.65616985512652" lon="10.657546753593177"><ele>15.333333333333332</ele><time>2026-04-19T08:40:23Z</time></trkpt><trkpt lat="43.6563168172763" lon="10.657629247378424"><ele>15.666666666666666</ele><time>2026-04-19T08:40:24Z</time></trkpt><trkpt lat="43.65647000093721" lon="10.657698510453663"><ele>16.0</ele><time>2026-04-19T08:40:25Z</time></trkpt><trkpt lat="43.65662854941834" lon="10.657751165173416"><ele>16.0</ele><time>2026-04-19T08:40:26Z</time></trkpt><trkpt lat="43.656791747510816" lon="10.657792732323623"><ele>16.0</ele><time>2026-04-19T08:40:27Z</time></trkpt><trkpt lat="43.65695503617605" lon="10.657816943801752"><ele>16.0</ele><time>2026-04-19T08:40:28Z</time></trkpt><trkpt lat="43.65711947799353" lon="10.657824195378467"><ele>16.0</ele><time>2026-04-19T08:40:29Z</time></trkpt><trkpt lat="43.657286529213415" lon="10.657821564139129"><ele>16.0</ele><time>2026-04-19T08:40:30Z</time></trkpt><trkpt lat="43.65745612492113" lon="10.657815019228003"><ele>16.0</ele><time>2026-04-19T08:40:31Z</time></trkpt><trkpt lat="43.65761746567484" lon="10.657809543822998"><ele>16.0</ele><time>2026-04-19T08:40:32Z</time></trkpt><trkpt lat="43.657781245798986" lon="10.657797146555621"><ele>16.0</ele><time>2026-04-19T08:40:33Z</time></trkpt><trkpt lat="43.65795911450936" lon="10.657787758970457"><ele>16.0</ele><time>2026-04-19T08:40:34Z</time></trkpt><trkpt lat="43.65814467281332" lon="10.657780730793421"><ele>15.666666666666666</ele><time>2026-04-19T08:40:35Z</time></trkpt><trkpt lat="43.65834390655275" lon="10.657772049099064"><ele>15.333333333333332</ele><time>2026-04-19T08:40:36Z</time></trkpt><trkpt lat="43.658545350033286" lon="10.657760532207314"><ele>15.0</ele><time>2026-04-19T08:40:37Z</time></trkpt><trkpt lat="43.65875164145899" lon="10.657747498974693"><ele>15.0</ele><time>2026-04-19T08:40:38Z</time></trkpt><trkpt lat="43.65896735347906" lon="10.65773424756095"><ele>15.0</ele><time>2026-04-19T08:40:39Z</time></trkpt><trkpt lat="43.659183760229304" lon="10.657725223696303"><ele>15.0</ele><time>2026-04-19T08:40:40Z</time></trkpt><trkpt lat="43.65939343334643" lon="10.657714203840301"><ele>14.333333333333332</ele><time>2026-04-19T08:40:41Z</time></trkpt><trkpt lat="43.65959496125847" lon="10.657705463089021"><ele>13.666666666666666</ele><time>2026-04-19T08:40:42Z</time></trkpt><trkpt lat="43.659802089983145" lon="10.657698588200907"><ele>13.0</ele><time>2026-04-19T08:40:43Z</time></trkpt><trkpt lat="43.660014946742734" lon="10.657690695076552"><ele>13.0</ele><time>2026-04-19T08:40:44Z</time></trkpt><trkpt lat="43.66023197208291" lon="10.657675935759068"><ele>13.0</ele><time>2026-04-19T08:40:45Z</time></trkpt><trkpt lat="43.66044296744254" lon="10.657660173103151"><ele>13.0</ele><time>2026-04-19T08:40:46Z</time></trkpt><trkpt lat="43.6606109344848" lon="10.657660852780939"><ele>13.0</ele><time>2026-04-19T08:40:47Z</time></trkpt><trkpt lat="43.6607927359449" lon="10.65764972466055"><ele>13.0</ele><time>2026-04-19T08:40:48Z</time></trkpt><trkpt lat="43.66096832423264" lon="10.657652011334932"><ele>13.0</ele><time>2026-04-19T08:40:49Z</time></trkpt><trkpt lat="43.661172156107725" lon="10.657629518262675"><ele>13.0</ele><time>2026-04-19T08:40:50Z</time></trkpt><trkpt lat="43.66137595452484" lon="10.657605365186122"><ele>13.0</ele><time>2026-04-19T08:40:51Z</time></trkpt><trkpt lat="43.66157777699667" lon="10.657603793298232"><ele>13.0</ele><time>2026-04-19T08:40:52Z</time></trkpt><trkpt lat="43.6617673475068" lon="10.657594472392004"><ele>13.0</ele><time>2026-04-19T08:40:53Z</time></trkpt><trkpt lat="43.661945598305856" lon="10.657584849355692"><ele>13.0</ele><time>2026-04-19T08:40:54Z</time></trkpt><trkpt lat="43.662120141310346" lon="10.657573904089556"><ele>13.0</ele><time>2026-04-19T08:40:55Z</time></trkpt><trkpt lat="43.662300539147175" lon="10.657565752403041"><ele>13.0</ele><time>2026-04-19T08:40:56Z</time></trkpt><trkpt lat="43.66248407908973" lon="10.657559343372336"><ele>13.0</ele><time>2026-04-19T08:40:57Z</time></trkpt><trkpt lat="43.662651165019675" lon="10.657552190241036"><ele>13.0</ele><time>2026-04-19T08:40:58Z</time></trkpt><trkpt lat="43.662803924476236" lon="10.657546437831085"><ele>13.333333333333332</ele><time>2026-04-19T08:40:59Z</time></trkpt><trkpt lat="43.662956457964235" lon="10.657542703169359"><ele>13.666666666666668</ele><time>2026-04-19T08:41:00Z</time></trkpt><trkpt lat="43.663120069278015" lon="10.657540942255691"><ele>14.0</ele><time>2026-04-19T08:41:01Z</time></trkpt><trkpt lat="43.66328108319438" lon="10.657537377990945"><ele>14.0</ele><time>2026-04-19T08:41:02Z</time></trkpt><trkpt lat="43.66343409825769" lon="10.657541476116654"><ele>14.0</ele><time>2026-04-19T08:41:03Z</time></trkpt><trkpt lat="43.66356952873037" lon="10.657558934063674"><ele>14.0</ele><time>2026-04-19T08:41:04Z</time></trkpt><trkpt lat="43.66368762818593" lon="10.657579585453679"><ele>14.0</ele><time>2026-04-19T08:41:05Z</time></trkpt><trkpt lat="43.66380423004563" lon="10.657609868084128"><ele>14.0</ele><time>2026-04-19T08:41:06Z</time></trkpt><trkpt lat="43.66391757237381" lon="10.65764968000469"><ele>13.999999999999998</ele><time>2026-04-19T08:41:07Z</time></trkpt><trkpt lat="43.66401959478228" lon="10.657699726620978"><ele>13.999999999999998</ele><time>2026-04-19T08:41:08Z</time></trkpt><trkpt lat="43.66411661844848" lon="10.657750948514868"><ele>14.0</ele><time>2026-04-19T08:41:09Z</time></trkpt><trkpt lat="43.66420766646709" lon="10.657808417303503"><ele>14.0</ele><time>2026-04-19T08:41:10Z</time></trkpt><trkpt lat="43.664279247365876" lon="10.657857896744998"><ele>14.000000000000002</ele><time>2026-04-19T08:41:11Z</time></trkpt><trkpt lat="43.664337372704104" lon="10.657918823857333"><ele>14.0</ele><time>2026-04-19T08:41:12Z</time></trkpt><trkpt lat="43.6643862463068" lon="10.657980456845694"><ele>14.0</ele><time>2026-04-19T08:41:13Z</time></trkpt><trkpt lat="43.66443701032644" lon="10.658107254903726"><ele>14.0</ele><time>2026-04-19T08:41:15Z</time></trkpt><trkpt lat="43.664455133954355" lon="10.658211351981686"><ele>14.000000000000002</ele><time>2026-04-19T08:41:16Z</time></trkpt><trkpt lat="43.66447008538897" lon="10.658347825567523"><ele>14.0</ele><time>2026-04-19T08:41:17Z</time></trkpt><trkpt lat="43.66450227486805" lon="10.65847234202515"><ele>14.000000000000002</ele><time>2026-04-19T08:41:18Z</time></trkpt><trkpt lat="43.66455629030485" lon="10.65856393351117"><ele>14.0</ele><time>2026-04-19T08:41:19Z</time></trkpt><trkpt lat="43.66463295315878" lon="10.65863413615773"><ele>14.0</ele><time>2026-04-19T08:41:20Z</time></trkpt><trkpt lat="43.66472807916065" lon="10.65870739096048"><ele>14.0</ele><time>2026-04-19T08:41:21Z</time></trkpt><trkpt lat="43.66480047597691" lon="10.658766786203584"><ele>14.000000000000002</ele><time>2026-04-19T08:41:22Z</time></trkpt><trkpt lat="43.66485667263204" lon="10.65884001647732"><ele>14.0</ele><time>2026-04-19T08:41:23Z</time></trkpt><trkpt lat="43.66489621277636" lon="10.658937767105456"><ele>14.0</ele><time>2026-04-19T08:41:24Z</time></trkpt><trkpt lat="43.66490440982125" lon="10.659069000036972"><ele>13.999999999999998</ele><time>2026-04-19T08:41:25Z</time></trkpt><trkpt lat="43.66488687032098" lon="10.659212876244515"><ele>13.999999999999998</ele><time>2026-04-19T08:41:26Z</time></trkpt><trkpt lat="43.664852850065046" lon="10.659363346955018"><ele>14.0</ele><time>2026-04-19T08:41:27Z</time></trkpt><trkpt lat="43.66481409668374" lon="10.659491219113674"><ele>14.0</ele><time>2026-04-19T08:41:28Z</time></trkpt><trkpt lat="43.664796398867836" lon="10.659640991434388"><ele>14.0</ele><time>2026-04-19T08:41:29Z</time></trkpt><trkpt lat="43.66476509705888" lon="10.65979002703503"><ele>14.0</ele><time>2026-04-19T08:41:30Z</time></trkpt><trkpt lat="43.66474157039981" lon="10.65992341841604"><ele>14.0</ele><time>2026-04-19T08:41:31Z</time></trkpt><trkpt lat="43.66471090256348" lon="10.660100459289225"><ele>14.0</ele><time>2026-04-19T08:41:32Z</time></trkpt><trkpt lat="43.66467774808245" lon="10.660264620938355"><ele>13.75</ele><time>2026-04-19T08:41:33Z</time></trkpt><trkpt lat="43.66465037545119" lon="10.660426658380768"><ele>13.5</ele><time>2026-04-19T08:41:34Z</time></trkpt><trkpt lat="43.66461894377029" lon="10.660592162244214"><ele>13.25</ele><time>2026-04-19T08:41:35Z</time></trkpt><trkpt lat="43.66459871087106" lon="10.6607397615042"><ele>13.0</ele><time>2026-04-19T08:41:36Z</time></trkpt><trkpt lat="43.66457138774783" lon="10.660882885904487"><ele>13.0</ele><time>2026-04-19T08:41:37Z</time></trkpt><trkpt lat="43.66453804236083" lon="10.661044586096125"><ele>13.0</ele><time>2026-04-19T08:41:38Z</time></trkpt><trkpt lat="43.664515013869185" lon="10.661220018497465"><ele>13.0</ele><time>2026-04-19T08:41:39Z</time></trkpt><trkpt lat="43.664481501061836" lon="10.661410815231138"><ele>13.0</ele><time>2026-04-19T08:41:40Z</time></trkpt><trkpt lat="43.664450471501596" lon="10.66159082855929"><ele>13.25</ele><time>2026-04-19T08:41:41Z</time></trkpt><trkpt lat="43.66441909202725" lon="10.661768113880704"><ele>13.5</ele><time>2026-04-19T08:41:42Z</time></trkpt><trkpt lat="43.6643881876288" lon="10.661940766061575"><ele>13.75</ele><time>2026-04-19T08:41:43Z</time></trkpt><trkpt lat="43.664348621041185" lon="10.662130881693944"><ele>14.0</ele><time>2026-04-19T08:41:44Z</time></trkpt><trkpt lat="43.66431595239944" lon="10.66232616673138"><ele>14.25</ele><time>2026-04-19T08:41:45Z</time></trkpt><trkpt lat="43.66428427665954" lon="10.662511464089244"><ele>14.5</ele><time>2026-04-19T08:41:46Z</time></trkpt><trkpt lat="43.66425174380975" lon="10.662733044552445"><ele>14.75</ele><time>2026-04-19T08:41:47Z</time></trkpt><trkpt lat="43.66422380152422" lon="10.662843735746502"><ele>15.0</ele><time>2026-04-19T08:41:48Z</time></trkpt><trkpt lat="43.664200782224825" lon="10.66297922211693"><ele>14.5</ele><time>2026-04-19T08:41:49Z</time></trkpt><trkpt lat="43.66417650332079" lon="10.66312759682294"><ele>14.0</ele><time>2026-04-19T08:41:50Z</time></trkpt><trkpt lat="43.66415411736353" lon="10.66328221528407"><ele>13.5</ele><time>2026-04-19T08:41:51Z</time></trkpt><trkpt lat="43.66411956212308" lon="10.66344769244711"><ele>13.0</ele><time>2026-04-19T08:41:52Z</time></trkpt><trkpt lat="43.664090045362364" lon="10.663631695910889"><ele>13.0</ele><time>2026-04-19T08:41:53Z</time></trkpt><trkpt lat="43.664056249469574" lon="10.663830605729764"><ele>13.0</ele><time>2026-04-19T08:41:54Z</time></trkpt><trkpt lat="43.66401771846262" lon="10.664031855342712"><ele>13.0</ele><time>2026-04-19T08:41:55Z</time></trkpt><trkpt lat="43.66398462304801" lon="10.664216999178652"><ele>13.0</ele><time>2026-04-19T08:41:56Z</time></trkpt><trkpt lat="43.66395488693645" lon="10.664387475440446"><ele>13.5</ele><time>2026-04-19T08:41:57Z</time></trkpt><trkpt lat="43.66391804171099" lon="10.664558244028349"><ele>14.0</ele><time>2026-04-19T08:41:58Z</time></trkpt><trkpt lat="43.66388358574072" lon="10.664723359119655"><ele>14.5</ele><time>2026-04-19T08:41:59Z</time></trkpt><trkpt lat="43.663855557650926" lon="10.664895971614497"><ele>15.0</ele><time>2026-04-19T08:42:00Z</time></trkpt><trkpt lat="43.663827170533494" lon="10.66506411858875"><ele>15.0</ele><time>2026-04-19T08:42:01Z</time></trkpt><trkpt lat="43.663800119412535" lon="10.665220667965283"><ele>15.0</ele><time>2026-04-19T08:42:02Z</time></trkpt><trkpt lat="43.663771881299134" lon="10.6653647541004"><ele>15.0</ele><time>2026-04-19T08:42:03Z</time></trkpt><trkpt lat="43.663749111437596" lon="10.665498135979508"><ele>15.0</ele><time>2026-04-19T08:42:04Z</time></trkpt><trkpt lat="43.663723731905165" lon="10.665634184390315"><ele>15.0</ele><time>2026-04-19T08:42:05Z</time></trkpt><trkpt lat="43.66370735982229" lon="10.665745701693703"><ele>15.0</ele><time>2026-04-19T08:42:06Z</time></trkpt><trkpt lat="43.66368937821899" lon="10.665857162583334"><ele>15.0</ele><time>2026-04-19T08:42:07Z</time></trkpt><trkpt lat="43.66367648421487" lon="10.665953908183786"><ele>15.0</ele><time>2026-04-19T08:42:08Z</time></trkpt><trkpt lat="43.66365748995516" lon="10.666060407816397"><ele>15.0</ele><time>2026-04-19T08:42:09Z</time></trkpt><trkpt lat="43.663634434888806" lon="10.666185420385592"><ele>15.0</ele><time>2026-04-19T08:42:10Z</time></trkpt><trkpt lat="43.66359333145913" lon="10.666337387828069"><ele>15.0</ele><time>2026-04-19T08:42:11Z</time></trkpt><trkpt lat="43.66356462179972" lon="10.666500409175901"><ele>15.0</ele><time>2026-04-19T08:42:12Z</time></trkpt><trkpt lat="43.66353830989731" lon="10.666649812444206"><ele>15.0</ele><time>2026-04-19T08:42:14Z</time></trkpt><trkpt lat="43.6635298641827" lon="10.666778390397429"><ele>15.0</ele><time>2026-04-19T08:42:15Z</time></trkpt><trkpt lat="43.663500454285455" lon="10.66689396108305"><ele>15.0</ele><time>2026-04-19T08:42:16Z</time></trkpt><trkpt lat="43.663476114095715" lon="10.667036836493866"><ele>15.0</ele><time>2026-04-19T08:42:17Z</time></trkpt><trkpt lat="43.66345472715682" lon="10.667205458393136"><ele>15.4</ele><time>2026-04-19T08:42:18Z</time></trkpt><trkpt lat="43.66342409708891" lon="10.667374504433036"><ele>15.8</ele><time>2026-04-19T08:42:19Z</time></trkpt><trkpt lat="43.66339536096814" lon="10.667524279646056"><ele>16.2</ele><time>2026-04-19T08:42:20Z</time></trkpt><trkpt lat="43.66336958230354" lon="10.667643131414515"><ele>16.6</ele><time>2026-04-19T08:42:21Z</time></trkpt><trkpt lat="43.663332018158606" lon="10.66776888011753"><ele>17.0</ele><time>2026-04-19T08:42:22Z</time></trkpt><trkpt lat="43.66327359379178" lon="10.667916081071926"><ele>17.0</ele><time>2026-04-19T08:42:23Z</time></trkpt><trkpt lat="43.66319535107712" lon="10.668083503938139"><ele>17.0</ele><time>2026-04-19T08:42:24Z</time></trkpt><trkpt lat="43.663095253255115" lon="10.668248222547204"><ele>17.0</ele><time>2026-04-19T08:42:25Z</time></trkpt><trkpt lat="43.66298288546496" lon="10.668385836223957"><ele>17.0</ele><time>2026-04-19T08:42:26Z</time></trkpt><trkpt lat="43.66287620281696" lon="10.668562328195389"><ele>17.0</ele><time>2026-04-19T08:42:27Z</time></trkpt><trkpt lat="43.66276600571353" lon="10.668724015344814"><ele>17.0</ele><time>2026-04-19T08:42:28Z</time></trkpt><trkpt lat="43.66266514783818" lon="10.66886947391576"><ele>17.0</ele><time>2026-04-19T08:42:29Z</time></trkpt><trkpt lat="43.66255745387581" lon="10.669025363932064"><ele>17.0</ele><time>2026-04-19T08:42:30Z</time></trkpt><trkpt lat="43.66245395384627" lon="10.669182457545608"><ele>17.0</ele><time>2026-04-19T08:42:31Z</time></trkpt><trkpt lat="43.66235839761509" lon="10.669359618522353"><ele>16.0</ele><time>2026-04-19T08:42:32Z</time></trkpt><trkpt lat="43.66226756532041" lon="10.669556737027303"><ele>15.0</ele><time>2026-04-19T08:42:33Z</time></trkpt><trkpt lat="43.66217310363791" lon="10.66978124086576"><ele>14.0</ele><time>2026-04-19T08:42:34Z</time></trkpt><trkpt lat="43.6620845409351" lon="10.669987864623982"><ele>14.0</ele><time>2026-04-19T08:42:35Z</time></trkpt><trkpt lat="43.66199050588981" lon="10.67017141888136"><ele>14.0</ele><time>2026-04-19T08:42:36Z</time></trkpt><trkpt lat="43.66190102733493" lon="10.67037344678471"><ele>14.0</ele><time>2026-04-19T08:42:37Z</time></trkpt><trkpt lat="43.661827055680014" lon="10.67057993674557"><ele>14.0</ele><time>2026-04-19T08:42:38Z</time></trkpt><trkpt lat="43.66172640580244" lon="10.670777714101732"><ele>14.0</ele><time>2026-04-19T08:42:39Z</time></trkpt><trkpt lat="43.661606500274374" lon="10.670984137614814"><ele>14.0</ele><time>2026-04-19T08:42:40Z</time></trkpt><trkpt lat="43.66148589772393" lon="10.671173265439121"><ele>14.0</ele><time>2026-04-19T08:42:41Z</time></trkpt><trkpt lat="43.66135892235631" lon="10.671322906181304"><ele>14.0</ele><time>2026-04-19T08:42:42Z</time></trkpt><trkpt lat="43.66124381859871" lon="10.671487509859366"><ele>14.0</ele><time>2026-04-19T08:42:43Z</time></trkpt><trkpt lat="43.66113647274663" lon="10.671641018877043"><ele>14.666666666666668</ele><time>2026-04-19T08:42:44Z</time></trkpt><trkpt lat="43.66103444054001" lon="10.671786929398039"><ele>15.333333333333332</ele><time>2026-04-19T08:42:45Z</time></trkpt><trkpt lat="43.660935154790096" lon="10.671945196328432"><ele>16.0</ele><time>2026-04-19T08:42:46Z</time></trkpt><trkpt lat="43.6608189876583" lon="10.67209811537967"><ele>16.0</ele><time>2026-04-19T08:42:47Z</time></trkpt><trkpt lat="43.66070101699767" lon="10.672249360911636"><ele>16.0</ele><time>2026-04-19T08:42:48Z</time></trkpt><trkpt lat="43.66059904486705" lon="10.672395562326301"><ele>16.0</ele><time>2026-04-19T08:42:49Z</time></trkpt><trkpt lat="43.660513505296926" lon="10.672542246612197"><ele>16.0</ele><time>2026-04-19T08:42:50Z</time></trkpt><trkpt lat="43.660435678792076" lon="10.672699244873904"><ele>15.5</ele><time>2026-04-19T08:42:51Z</time></trkpt><trkpt lat="43.66034665929593" lon="10.672849933513765"><ele>15.0</ele><time>2026-04-19T08:42:52Z</time></trkpt><trkpt lat="43.66028537635064" lon="10.673027293733517"><ele>14.5</ele><time>2026-04-19T08:42:53Z</time></trkpt><trkpt lat="43.66021440831169" lon="10.673185547669771"><ele>14.0</ele><time>2026-04-19T08:42:54Z</time></trkpt><trkpt lat="43.660151016560185" lon="10.673324347236408"><ele>15.5</ele><time>2026-04-19T08:42:55Z</time></trkpt><trkpt lat="43.66008986547319" lon="10.673454806580008"><ele>17.0</ele><time>2026-04-19T08:42:56Z</time></trkpt><trkpt lat="43.66002114225791" lon="10.67358778890824"><ele>18.5</ele><time>2026-04-19T08:42:57Z</time></trkpt><trkpt lat="43.65994362057284" lon="10.673717490629725"><ele>20.0</ele><time>2026-04-19T08:42:58Z</time></trkpt><trkpt lat="43.65985639458919" lon="10.67384652127716"><ele>20.25</ele><time>2026-04-19T08:42:59Z</time></trkpt><trkpt lat="43.659762916672804" lon="10.673975540894887"><ele>20.5</ele><time>2026-04-19T08:43:00Z</time></trkpt><trkpt lat="43.65967171150902" lon="10.674080737991142"><ele>20.75</ele><time>2026-04-19T08:43:01Z</time></trkpt><trkpt lat="43.65957726079914" lon="10.674179377780993"><ele>21.0</ele><time>2026-04-19T08:43:02Z</time></trkpt><trkpt lat="43.65949479288963" lon="10.674304056174979"><ele>22.6</ele><time>2026-04-19T08:43:03Z</time></trkpt><trkpt lat="43.659405640992766" lon="10.674409795294125"><ele>24.200000000000003</ele><time>2026-04-19T08:43:04Z</time></trkpt><trkpt lat="43.65932587100167" lon="10.674501379817757"><ele>25.799999999999997</ele><time>2026-04-19T08:43:05Z</time></trkpt><trkpt lat="43.65924925090155" lon="10.674601017749712"><ele>27.4</ele><time>2026-04-19T08:43:06Z</time></trkpt><trkpt lat="43.65915156924966" lon="10.674698278874175"><ele>29.0</ele><time>2026-04-19T08:43:07Z</time></trkpt><trkpt lat="43.659073091555676" lon="10.674813960464265"><ele>29.4</ele><time>2026-04-19T08:43:08Z</time></trkpt><trkpt lat="43.65901747047097" lon="10.674896094709954"><ele>29.799999999999997</ele><time>2026-04-19T08:43:09Z</time></trkpt><trkpt lat="43.65895761829905" lon="10.674992080127412"><ele>30.200000000000003</ele><time>2026-04-19T08:43:10Z</time></trkpt><trkpt lat="43.65893719069097" lon="10.675122018027524"><ele>30.6</ele><time>2026-04-19T08:43:11Z</time></trkpt><trkpt lat="43.65891872071319" lon="10.67525075499819"><ele>31.0</ele><time>2026-04-19T08:43:12Z</time></trkpt><trkpt lat="43.65893821307927" lon="10.675392293605775"><ele>29.8</ele><time>2026-04-19T08:43:13Z</time></trkpt><trkpt lat="43.65892647744065" lon="10.67553462896372"><ele>28.6</ele><time>2026-04-19T08:43:14Z</time></trkpt><trkpt lat="43.65896103761013" lon="10.675681559833631"><ele>27.4</ele><time>2026-04-19T08:43:15Z</time></trkpt><trkpt lat="43.65899927255639" lon="10.675833219058278"><ele>26.2</ele><time>2026-04-19T08:43:16Z</time></trkpt><trkpt lat="43.659037353121384" lon="10.675980656954493"><ele>25.0</ele><time>2026-04-19T08:43:17Z</time></trkpt><trkpt lat="43.65906694208759" lon="10.676118519114604"><ele>24.2</ele><time>2026-04-19T08:43:18Z</time></trkpt><trkpt lat="43.659098872138564" lon="10.676260998336543"><ele>23.4</ele><time>2026-04-19T08:43:19Z</time></trkpt><trkpt lat="43.65913952820156" lon="10.676405686761928"><ele>22.6</ele><time>2026-04-19T08:43:20Z</time></trkpt><trkpt lat="43.659171015870875" lon="10.676549895866266"><ele>21.8</ele><time>2026-04-19T08:43:21Z</time></trkpt><trkpt lat="43.65920388301844" lon="10.67669113537062"><ele>21.0</ele><time>2026-04-19T08:43:22Z</time></trkpt><trkpt lat="43.659234951882176" lon="10.676829398181853"><ele>21.4</ele><time>2026-04-19T08:43:23Z</time></trkpt><trkpt lat="43.65926832817077" lon="10.676961780122642"><ele>21.8</ele><time>2026-04-19T08:43:24Z</time></trkpt><trkpt lat="43.65929761789877" lon="10.67709534609465"><ele>22.2</ele><time>2026-04-19T08:43:25Z</time></trkpt><trkpt lat="43.659325230335384" lon="10.677220393998324"><ele>22.599999999999998</ele><time>2026-04-19T08:43:26Z</time></trkpt><trkpt lat="43.659355310009666" lon="10.677359501231521"><ele>23.0</ele><time>2026-04-19T08:43:27Z</time></trkpt><trkpt lat="43.659393414330495" lon="10.677513773052722"><ele>23.0</ele><time>2026-04-19T08:43:28Z</time></trkpt><trkpt lat="43.65943430685909" lon="10.677677248671701"><ele>23.0</ele><time>2026-04-19T08:43:29Z</time></trkpt><trkpt lat="43.65947064365438" lon="10.677840162208158"><ele>23.0</ele><time>2026-04-19T08:43:30Z</time></trkpt><trkpt lat="43.65950497896861" lon="10.67800041731811"><ele>23.0</ele><time>2026-04-19T08:43:31Z</time></trkpt><trkpt lat="43.65954275440375" lon="10.678154063334548"><ele>22.5</ele><time>2026-04-19T08:43:32Z</time></trkpt><trkpt lat="43.65957936450471" lon="10.67830947077813"><ele>22.0</ele><time>2026-04-19T08:43:33Z</time></trkpt><trkpt lat="43.65961939539137" lon="10.678476508213338"><ele>21.5</ele><time>2026-04-19T08:43:34Z</time></trkpt><trkpt lat="43.65965086326285" lon="10.67863180082819"><ele>21.0</ele><time>2026-04-19T08:43:35Z</time></trkpt><trkpt lat="43.659671482621725" lon="10.6787920920871"><ele>22.25</ele><time>2026-04-19T08:43:36Z</time></trkpt><trkpt lat="43.65968733801807" lon="10.678968975435424"><ele>23.5</ele><time>2026-04-19T08:43:37Z</time></trkpt><trkpt lat="43.65969934253716" lon="10.67915466078165"><ele>24.75</ele><time>2026-04-19T08:43:38Z</time></trkpt><trkpt lat="43.6597124463829" lon="10.679324417651095"><ele>26.0</ele><time>2026-04-19T08:43:39Z</time></trkpt><trkpt lat="43.659727711683956" lon="10.67948583241693"><ele>26.25</ele><time>2026-04-19T08:43:40Z</time></trkpt><trkpt lat="43.65974340723838" lon="10.679653931797509"><ele>26.5</ele><time>2026-04-19T08:43:41Z</time></trkpt><trkpt lat="43.65976004261383" lon="10.67982250922884"><ele>26.75</ele><time>2026-04-19T08:43:42Z</time></trkpt><trkpt lat="43.65978091196211" lon="10.679995516907525"><ele>27.0</ele><time>2026-04-19T08:43:43Z</time></trkpt><trkpt lat="43.65980794127915" lon="10.680165781686682"><ele>27.0</ele><time>2026-04-19T08:43:44Z</time></trkpt><trkpt lat="43.65985344214349" lon="10.680344339195104"><ele>27.0</ele><time>2026-04-19T08:43:45Z</time></trkpt><trkpt lat="43.659914237873366" lon="10.680517197968586"><ele>27.0</ele><time>2026-04-19T08:43:46Z</time></trkpt><trkpt lat="43.659963617548" lon="10.680666436978056"><ele>27.0</ele><time>2026-04-19T08:43:47Z</time></trkpt><trkpt lat="43.66002631651142" lon="10.68077640497954"><ele>27.0</ele><time>2026-04-19T08:43:48Z</time></trkpt><trkpt lat="43.66008199218668" lon="10.680903737539888"><ele>27.000000000000004</ele><time>2026-04-19T08:43:49Z</time></trkpt><trkpt lat="43.6601285981506" lon="10.681036430489348"><ele>27.000000000000004</ele><time>2026-04-19T08:43:50Z</time></trkpt><trkpt lat="43.6601643361266" lon="10.681158809567892"><ele>27.0</ele><time>2026-04-19T08:43:51Z</time></trkpt><trkpt lat="43.660196698938364" lon="10.681267429414628"><ele>27.0</ele><time>2026-04-19T08:43:52Z</time></trkpt><trkpt lat="43.6602417277296" lon="10.68138161505592"><ele>25.5</ele><time>2026-04-19T08:43:53Z</time></trkpt><trkpt lat="43.660316380078676" lon="10.681499537529985"><ele>24.0</ele><time>2026-04-19T08:43:54Z</time></trkpt><trkpt lat="43.66040366880064" lon="10.681639639705637"><ele>22.5</ele><time>2026-04-19T08:43:55Z</time></trkpt><trkpt lat="43.660511205579894" lon="10.681734794364603"><ele>21.0</ele><time>2026-04-19T08:43:56Z</time></trkpt><trkpt lat="43.660608188303705" lon="10.681838988288717"><ele>21.25</ele><time>2026-04-19T08:43:57Z</time></trkpt><trkpt lat="43.66069633776007" lon="10.681942927266277"><ele>21.5</ele><time>2026-04-19T08:43:58Z</time></trkpt><trkpt lat="43.6607801209348" lon="10.682066618013142"><ele>21.75</ele><time>2026-04-19T08:43:59Z</time></trkpt><trkpt lat="43.660859262164536" lon="10.682204415325959"><ele>22.0</ele><time>2026-04-19T08:44:00Z</time></trkpt><trkpt lat="43.660936627719245" lon="10.682350077429959"><ele>22.0</ele><time>2026-04-19T08:44:01Z</time></trkpt><trkpt lat="43.66100499179672" lon="10.682497365518458"><ele>22.0</ele><time>2026-04-19T08:44:02Z</time></trkpt><trkpt lat="43.66107820727724" lon="10.682633881179154"><ele>22.0</ele><time>2026-04-19T08:44:03Z</time></trkpt><trkpt lat="43.66116123717109" lon="10.682795812468786"><ele>22.0</ele><time>2026-04-19T08:44:04Z</time></trkpt><trkpt lat="43.66124158369963" lon="10.682963146748772"><ele>20.0</ele><time>2026-04-19T08:44:05Z</time></trkpt><trkpt lat="43.66132491458606" lon="10.683125234053628"><ele>18.0</ele><time>2026-04-19T08:44:06Z</time></trkpt><trkpt lat="43.6614162770871" lon="10.683310133968057"><ele>16.0</ele><time>2026-04-19T08:44:07Z</time></trkpt><trkpt lat="43.661512282062944" lon="10.683504265890045"><ele>16.333333333333332</ele><time>2026-04-19T08:44:08Z</time></trkpt><trkpt lat="43.66160621305285" lon="10.683694830592637"><ele>16.666666666666668</ele><time>2026-04-19T08:44:09Z</time></trkpt><trkpt lat="43.661694706408156" lon="10.683876957811826"><ele>17.0</ele><time>2026-04-19T08:44:10Z</time></trkpt><trkpt lat="43.66178432281882" lon="10.684060946654933"><ele>17.0</ele><time>2026-04-19T08:44:11Z</time></trkpt><trkpt lat="43.661881176810105" lon="10.684258435861258"><ele>17.0</ele><time>2026-04-19T08:44:12Z</time></trkpt><trkpt lat="43.66197558600822" lon="10.684451336093032"><ele>17.0</ele><time>2026-04-19T08:44:13Z</time></trkpt><trkpt lat="43.66207856751164" lon="10.684659556752903"><ele>17.333333333333336</ele><time>2026-04-19T08:44:14Z</time></trkpt><trkpt lat="43.662163228278445" lon="10.684871506145528"><ele>17.666666666666668</ele><time>2026-04-19T08:44:15Z</time></trkpt><trkpt lat="43.662257564977246" lon="10.685104013650147"><ele>18.0</ele><time>2026-04-19T08:44:16Z</time></trkpt><trkpt lat="43.66232872056249" lon="10.685344193828138"><ele>18.666666666666668</ele><time>2026-04-19T08:44:17Z</time></trkpt><trkpt lat="43.66241824096691" lon="10.685544227514015"><ele>19.333333333333336</ele><time>2026-04-19T08:44:18Z</time></trkpt><trkpt lat="43.662477758831486" lon="10.685754224779553"><ele>20.0</ele><time>2026-04-19T08:44:19Z</time></trkpt><trkpt lat="43.66255863579443" lon="10.685935035969866"><ele>19.333333333333336</ele><time>2026-04-19T08:44:20Z</time></trkpt><trkpt lat="43.66262871930371" lon="10.686169544144013"><ele>18.666666666666668</ele><time>2026-04-19T08:44:21Z</time></trkpt><trkpt lat="43.662706488941474" lon="10.68638350245551"><ele>18.0</ele><time>2026-04-19T08:44:22Z</time></trkpt><trkpt lat="43.66278279427206" lon="10.686592754072077"><ele>18.0</ele><time>2026-04-19T08:44:23Z</time></trkpt><trkpt lat="43.66286212144936" lon="10.686811206032303"><ele>18.0</ele><time>2026-04-19T08:44:24Z</time></trkpt><trkpt lat="43.662954491800036" lon="10.687025695602491"><ele>18.0</ele><time>2026-04-19T08:44:25Z</time></trkpt><trkpt lat="43.663037812750844" lon="10.687256343863304"><ele>18.0</ele><time>2026-04-19T08:44:26Z</time></trkpt><trkpt lat="43.663114124185746" lon="10.687473613722712"><ele>18.0</ele><time>2026-04-19T08:44:27Z</time></trkpt><trkpt lat="43.6631857659823" lon="10.687681461432781"><ele>18.0</ele><time>2026-04-19T08:44:28Z</time></trkpt><trkpt lat="43.66326124153843" lon="10.687879573349976"><ele>18.0</ele><time>2026-04-19T08:44:29Z</time></trkpt><trkpt lat="43.663331433392045" lon="10.688076581362527"><ele>18.0</ele><time>2026-04-19T08:44:30Z</time></trkpt><trkpt lat="43.66340013420192" lon="10.688258843088699"><ele>18.0</ele><time>2026-04-19T08:44:31Z</time></trkpt><trkpt lat="43.663463952265204" lon="10.688425903491765"><ele>18.0</ele><time>2026-04-19T08:44:32Z</time></trkpt><trkpt lat="43.6635101475623" lon="10.68859864562775"><ele>18.0</ele><time>2026-04-19T08:44:33Z</time></trkpt><trkpt lat="43.66357230228809" lon="10.688733976788756"><ele>18.0</ele><time>2026-04-19T08:44:34Z</time></trkpt><trkpt lat="43.663621184700666" lon="10.688914112392217"><ele>18.0</ele><time>2026-04-19T08:44:35Z</time></trkpt><trkpt lat="43.66365472170263" lon="10.689109313673791"><ele>18.0</ele><time>2026-04-19T08:44:36Z</time></trkpt><trkpt lat="43.66367631118531" lon="10.689315098290841"><ele>18.666666666666668</ele><time>2026-04-19T08:44:37Z</time></trkpt><trkpt lat="43.66368554563053" lon="10.68953123696902"><ele>19.333333333333336</ele><time>2026-04-19T08:44:38Z</time></trkpt><trkpt lat="43.663678973728594" lon="10.689763045339802"><ele>20.0</ele><time>2026-04-19T08:44:39Z</time></trkpt><trkpt lat="43.66367015733777" lon="10.689987381953017"><ele>20.0</ele><time>2026-04-19T08:44:40Z</time></trkpt><trkpt lat="43.663662203574695" lon="10.690187587924713"><ele>20.0</ele><time>2026-04-19T08:44:41Z</time></trkpt><trkpt lat="43.663654605713354" lon="10.690378316542056"><ele>20.0</ele><time>2026-04-19T08:44:42Z</time></trkpt><trkpt lat="43.66364897468866" lon="10.690568458718653"><ele>20.0</ele><time>2026-04-19T08:44:43Z</time></trkpt><trkpt lat="43.66364775643804" lon="10.690746122186164"><ele>20.0</ele><time>2026-04-19T08:44:44Z</time></trkpt><trkpt lat="43.66364698329897" lon="10.690912529638931"><ele>20.0</ele><time>2026-04-19T08:44:45Z</time></trkpt><trkpt lat="43.663665004453094" lon="10.691092272963104"><ele>20.0</ele><time>2026-04-19T08:44:46Z</time></trkpt><trkpt lat="43.6637055108994" lon="10.691286172137985"><ele>20.0</ele><time>2026-04-19T08:44:47Z</time></trkpt><trkpt lat="43.66377618720184" lon="10.691493495959273"><ele>19.666666666666668</ele><time>2026-04-19T08:44:48Z</time></trkpt><trkpt lat="43.663868494550044" lon="10.69170015198899"><ele>19.333333333333332</ele><time>2026-04-19T08:44:49Z</time></trkpt><trkpt lat="43.66398138278296" lon="10.691938590914923"><ele>19.0</ele><time>2026-04-19T08:44:50Z</time></trkpt><trkpt lat="43.66406612986009" lon="10.692144331725908"><ele>18.0</ele><time>2026-04-19T08:44:51Z</time></trkpt><trkpt lat="43.66418993683148" lon="10.692299357047366"><ele>17.0</ele><time>2026-04-19T08:44:52Z</time></trkpt><trkpt lat="43.664272170330456" lon="10.692461334658665"><ele>16.0</ele><time>2026-04-19T08:44:53Z</time></trkpt><trkpt lat="43.664349911284255" lon="10.692624818093977"><ele>16.25</ele><time>2026-04-19T08:44:54Z</time></trkpt><trkpt lat="43.6644241824092" lon="10.692780644448376"><ele>16.5</ele><time>2026-04-19T08:44:55Z</time></trkpt><trkpt lat="43.66447683772816" lon="10.69294061426537"><ele>16.75</ele><time>2026-04-19T08:44:56Z</time></trkpt><trkpt lat="43.66451946449869" lon="10.693120779101003"><ele>17.0</ele><time>2026-04-19T08:44:57Z</time></trkpt><trkpt lat="43.664594873530355" lon="10.69334939011649"><ele>17.333333333333336</ele><time>2026-04-19T08:44:58Z</time></trkpt><trkpt lat="43.664611127926904" lon="10.693615589767333"><ele>17.666666666666668</ele><time>2026-04-19T08:44:59Z</time></trkpt><trkpt lat="43.66463740210244" lon="10.693901781617063"><ele>18.0</ele><time>2026-04-19T08:45:00Z</time></trkpt><trkpt lat="43.66466416572248" lon="10.69419443410727"><ele>18.0</ele><time>2026-04-19T08:45:01Z</time></trkpt><trkpt lat="43.664700809746236" lon="10.694463192444685"><ele>18.0</ele><time>2026-04-19T08:45:02Z</time></trkpt><trkpt lat="43.66472420812363" lon="10.694754865618592"><ele>18.0</ele><time>2026-04-19T08:45:03Z</time></trkpt><trkpt lat="43.66474872777521" lon="10.695055370873952"><ele>18.333333333333332</ele><time>2026-04-19T08:45:04Z</time></trkpt><trkpt lat="43.66477619391652" lon="10.695340950510003"><ele>18.666666666666664</ele><time>2026-04-19T08:45:05Z</time></trkpt><trkpt lat="43.664803772009726" lon="10.695604504822157"><ele>19.0</ele><time>2026-04-19T08:45:06Z</time></trkpt><trkpt lat="43.664830445559" lon="10.69590094208595"><ele>19.666666666666664</ele><time>2026-04-19T08:45:07Z</time></trkpt><trkpt lat="43.66486882169408" lon="10.696182720082847"><ele>20.333333333333332</ele><time>2026-04-19T08:45:08Z</time></trkpt><trkpt lat="43.66490531742518" lon="10.69645045123273"><ele>21.0</ele><time>2026-04-19T08:45:09Z</time></trkpt><trkpt lat="43.66494539714186" lon="10.696706152494256"><ele>21.666666666666668</ele><time>2026-04-19T08:45:10Z</time></trkpt><trkpt lat="43.66496848850883" lon="10.696951168585237"><ele>22.333333333333336</ele><time>2026-04-19T08:45:11Z</time></trkpt><trkpt lat="43.66499982161331" lon="10.69719785712715"><ele>23.0</ele><time>2026-04-19T08:45:12Z</time></trkpt><trkpt lat="43.66502218214119" lon="10.697423487180954"><ele>23.0</ele><time>2026-04-19T08:45:13Z</time></trkpt><trkpt lat="43.665038781419796" lon="10.697639846701945"><ele>23.0</ele><time>2026-04-19T08:45:14Z</time></trkpt><trkpt lat="43.66504856133884" lon="10.697850208843168"><ele>23.0</ele><time>2026-04-19T08:45:15Z</time></trkpt><trkpt lat="43.66505376611935" lon="10.698054159533925"><ele>23.5</ele><time>2026-04-19T08:45:16Z</time></trkpt><trkpt lat="43.665050462067576" lon="10.698230446109497"><ele>24.0</ele><time>2026-04-19T08:45:17Z</time></trkpt><trkpt lat="43.66504260619955" lon="10.698385216339974"><ele>24.5</ele><time>2026-04-19T08:45:18Z</time></trkpt><trkpt lat="43.66501810688311" lon="10.698550441232761"><ele>25.0</ele><time>2026-04-19T08:45:19Z</time></trkpt><trkpt lat="43.66497384173611" lon="10.69872037863902"><ele>26.0</ele><time>2026-04-19T08:45:20Z</time></trkpt><trkpt lat="43.66489762574699" lon="10.698901376434678"><ele>27.0</ele><time>2026-04-19T08:45:21Z</time></trkpt><trkpt lat="43.66480431325246" lon="10.699091719232465"><ele>28.0</ele><time>2026-04-19T08:45:22Z</time></trkpt><trkpt lat="43.66470605158459" lon="10.699291137028721"><ele>28.0</ele><time>2026-04-19T08:45:23Z</time></trkpt><trkpt lat="43.66460306938893" lon="10.699494636050547"><ele>28.0</ele><time>2026-04-19T08:45:24Z</time></trkpt><trkpt lat="43.66449784329876" lon="10.699695396911464"><ele>28.0</ele><time>2026-04-19T08:45:25Z</time></trkpt><trkpt lat="43.66440409369628" lon="10.699877744689639"><ele>29.25</ele><time>2026-04-19T08:45:26Z</time></trkpt><trkpt lat="43.66431509860806" lon="10.700045957307257"><ele>30.5</ele><time>2026-04-19T08:45:27Z</time></trkpt><trkpt lat="43.66422495006086" lon="10.700207370621158"><ele>31.75</ele><time>2026-04-19T08:45:28Z</time></trkpt><trkpt lat="43.66413742018882" lon="10.700362543717645"><ele>33.0</ele><time>2026-04-19T08:45:29Z</time></trkpt><trkpt lat="43.66404810621782" lon="10.700522651866905"><ele>33.0</ele><time>2026-04-19T08:45:30Z</time></trkpt><trkpt lat="43.66395501231653" lon="10.70069740013331"><ele>33.0</ele><time>2026-04-19T08:45:31Z</time></trkpt><trkpt lat="43.663881402371906" lon="10.700838114352669"><ele>33.0</ele><time>2026-04-19T08:45:32Z</time></trkpt><trkpt lat="43.66380666876272" lon="10.700977710764224"><ele>33.0</ele><time>2026-04-19T08:45:33Z</time></trkpt><trkpt lat="43.66374574898684" lon="10.701116353852099"><ele>33.25</ele><time>2026-04-19T08:45:34Z</time></trkpt><trkpt lat="43.663703844519794" lon="10.701258938955707"><ele>33.5</ele><time>2026-04-19T08:45:35Z</time></trkpt><trkpt lat="43.663689571173535" lon="10.70142235449303"><ele>33.75</ele><time>2026-04-19T08:45:36Z</time></trkpt><trkpt lat="43.66369720243948" lon="10.701592389458627"><ele>34.0</ele><time>2026-04-19T08:45:37Z</time></trkpt><trkpt lat="43.66372562988172" lon="10.701764630439794"><ele>35.5</ele><time>2026-04-19T08:45:38Z</time></trkpt><trkpt lat="43.663777073464225" lon="10.701932283036657"><ele>37.0</ele><time>2026-04-19T08:45:39Z</time></trkpt><trkpt lat="43.66385458905285" lon="10.702086932911245"><ele>38.5</ele><time>2026-04-19T08:45:40Z</time></trkpt><trkpt lat="43.66395230058519" lon="10.702228390951456"><ele>40.0</ele><time>2026-04-19T08:45:41Z</time></trkpt><trkpt lat="43.66406344035743" lon="10.702352066956392"><ele>40.0</ele><time>2026-04-19T08:45:42Z</time></trkpt><trkpt lat="43.664165381118714" lon="10.702458091368513"><ele>40.0</ele><time>2026-04-19T08:45:43Z</time></trkpt><trkpt lat="43.664280840527915" lon="10.702585836444815"><ele>40.0</ele><time>2026-04-19T08:45:44Z</time></trkpt><trkpt lat="43.66439985509423" lon="10.702744440735675"><ele>40.0</ele><time>2026-04-19T08:45:45Z</time></trkpt><trkpt lat="43.66452986089611" lon="10.702896868683075"><ele>39.333333333333336</ele><time>2026-04-19T08:45:46Z</time></trkpt><trkpt lat="43.66465592169823" lon="10.703049923506002"><ele>38.666666666666664</ele><time>2026-04-19T08:45:47Z</time></trkpt><trkpt lat="43.664767399017556" lon="10.703190648372205"><ele>38.0</ele><time>2026-04-19T08:45:48Z</time></trkpt><trkpt lat="43.66488275196295" lon="10.703333482970743"><ele>38.0</ele><time>2026-04-19T08:45:49Z</time></trkpt><trkpt lat="43.66499865698837" lon="10.703478623997887"><ele>38.0</ele><time>2026-04-19T08:45:50Z</time></trkpt><trkpt lat="43.665120824447285" lon="10.703621261279723"><ele>38.0</ele><time>2026-04-19T08:45:51Z</time></trkpt><trkpt lat="43.6652304871177" lon="10.703761097445382"><ele>35.666666666666664</ele><time>2026-04-19T08:45:52Z</time></trkpt><trkpt lat="43.66533693967217" lon="10.703893945489074"><ele>33.333333333333336</ele><time>2026-04-19T08:45:53Z</time></trkpt><trkpt lat="43.66545153774019" lon="10.704033212349927"><ele>31.0</ele><time>2026-04-19T08:45:54Z</time></trkpt><trkpt lat="43.66556987470745" lon="10.70417578896734"><ele>31.0</ele><time>2026-04-19T08:45:55Z</time></trkpt><trkpt lat="43.665681331138174" lon="10.70431421194608"><ele>31.0</ele><time>2026-04-19T08:45:56Z</time></trkpt><trkpt lat="43.66578890541123" lon="10.704448827859348"><ele>31.0</ele><time>2026-04-19T08:45:57Z</time></trkpt><trkpt lat="43.66590072684235" lon="10.704587627431282"><ele>31.0</ele><time>2026-04-19T08:45:58Z</time></trkpt><trkpt lat="43.6660203200401" lon="10.704741341359316"><ele>29.333333333333336</ele><time>2026-04-19T08:45:59Z</time></trkpt><trkpt lat="43.66613620464744" lon="10.704902304100948"><ele>27.666666666666664</ele><time>2026-04-19T08:46:00Z</time></trkpt><trkpt lat="43.66623873772257" lon="10.705058419110856"><ele>26.0</ele><time>2026-04-19T08:46:01Z</time></trkpt><trkpt lat="43.66633198057783" lon="10.705203419750973"><ele>24.75</ele><time>2026-04-19T08:46:02Z</time></trkpt><trkpt lat="43.66642471897896" lon="10.705332730757187"><ele>23.5</ele><time>2026-04-19T08:46:03Z</time></trkpt><trkpt lat="43.66651997886247" lon="10.705471355160327"><ele>22.25</ele><time>2026-04-19T08:46:04Z</time></trkpt><trkpt lat="43.666619134594" lon="10.705610431520167"><ele>21.0</ele><time>2026-04-19T08:46:05Z</time></trkpt><trkpt lat="43.66671622414652" lon="10.705749076653055"><ele>21.0</ele><time>2026-04-19T08:46:06Z</time></trkpt><trkpt lat="43.66680898847935" lon="10.705863953642291"><ele>21.0</ele><time>2026-04-19T08:46:07Z</time></trkpt><trkpt lat="43.666880501595934" lon="10.705989495985376"><ele>21.0</ele><time>2026-04-19T08:46:08Z</time></trkpt><trkpt lat="43.66695337195072" lon="10.706087231810198"><ele>21.0</ele><time>2026-04-19T08:46:09Z</time></trkpt><trkpt lat="43.66702736183809" lon="10.70618646979558"><ele>21.0</ele><time>2026-04-19T08:46:10Z</time></trkpt><trkpt lat="43.6671023398857" lon="10.706305878164502"><ele>20.75</ele><time>2026-04-19T08:46:11Z</time></trkpt><trkpt lat="43.66718338305839" lon="10.706440263248448"><ele>20.5</ele><time>2026-04-19T08:46:12Z</time></trkpt><trkpt lat="43.667262213387474" lon="10.706584831504264"><ele>20.25</ele><time>2026-04-19T08:46:13Z</time></trkpt><trkpt lat="43.66735485028467" lon="10.70674603683788"><ele>20.0</ele><time>2026-04-19T08:46:14Z</time></trkpt><trkpt lat="43.66742248632117" lon="10.706940728341715"><ele>19.75</ele><time>2026-04-19T08:46:15Z</time></trkpt><trkpt lat="43.66747800460968" lon="10.70711308695186"><ele>19.5</ele><time>2026-04-19T08:46:16Z</time></trkpt><trkpt lat="43.66753541407869" lon="10.707274020189397"><ele>19.25</ele><time>2026-04-19T08:46:17Z</time></trkpt><trkpt lat="43.66760103082811" lon="10.707416841922468"><ele>19.0</ele><time>2026-04-19T08:46:18Z</time></trkpt><trkpt lat="43.66765759830707" lon="10.707572345604643"><ele>19.0</ele><time>2026-04-19T08:46:19Z</time></trkpt><trkpt lat="43.66771546223921" lon="10.707744999061454"><ele>19.0</ele><time>2026-04-19T08:46:20Z</time></trkpt><trkpt lat="43.66776020637072" lon="10.707931518467609"><ele>19.0</ele><time>2026-04-19T08:46:21Z</time></trkpt><trkpt lat="43.66781676527647" lon="10.708101234727634"><ele>19.0</ele><time>2026-04-19T08:46:22Z</time></trkpt><trkpt lat="43.667873060301275" lon="10.708271044494508"><ele>19.0</ele><time>2026-04-19T08:46:23Z</time></trkpt><trkpt lat="43.6679259929585" lon="10.708432699413985"><ele>19.0</ele><time>2026-04-19T08:46:24Z</time></trkpt><trkpt lat="43.667978136226985" lon="10.708596017706727"><ele>19.0</ele><time>2026-04-19T08:46:25Z</time></trkpt><trkpt lat="43.66803187368632" lon="10.708771818861148"><ele>19.0</ele><time>2026-04-19T08:46:26Z</time></trkpt><trkpt lat="43.66808387569617" lon="10.708945177846923"><ele>18.75</ele><time>2026-04-19T08:46:27Z</time></trkpt><trkpt lat="43.66813298206731" lon="10.709113837823399"><ele>18.5</ele><time>2026-04-19T08:46:28Z</time></trkpt><trkpt lat="43.668181320160286" lon="10.709289708118808"><ele>18.25</ele><time>2026-04-19T08:46:29Z</time></trkpt><trkpt lat="43.66823149888415" lon="10.709472275243035"><ele>18.0</ele><time>2026-04-19T08:46:30Z</time></trkpt><trkpt lat="43.668283049350386" lon="10.709659833004743"><ele>18.0</ele><time>2026-04-19T08:46:31Z</time></trkpt><trkpt lat="43.6683442573581" lon="10.709826659290458"><ele>18.0</ele><time>2026-04-19T08:46:32Z</time></trkpt><trkpt lat="43.66838662582352" lon="10.709987323489452"><ele>18.0</ele><time>2026-04-19T08:46:33Z</time></trkpt><trkpt lat="43.66842977296678" lon="10.710145500560536"><ele>18.0</ele><time>2026-04-19T08:46:34Z</time></trkpt><trkpt lat="43.66846667265885" lon="10.710285966007682"><ele>18.0</ele><time>2026-04-19T08:46:35Z</time></trkpt><trkpt lat="43.668503082310934" lon="10.710423716725408"><ele>18.0</ele><time>2026-04-19T08:46:36Z</time></trkpt><trkpt lat="43.66854266815789" lon="10.71057585517924"><ele>18.0</ele><time>2026-04-19T08:46:37Z</time></trkpt><trkpt lat="43.66858448180044" lon="10.710737232200415"><ele>18.0</ele><time>2026-04-19T08:46:38Z</time></trkpt><trkpt lat="43.66862886905311" lon="10.710907576005612"><ele>17.75</ele><time>2026-04-19T08:46:39Z</time></trkpt><trkpt lat="43.66867574644298" lon="10.711081329661996"><ele>17.5</ele><time>2026-04-19T08:46:40Z</time></trkpt><trkpt lat="43.668725632523575" lon="10.711259648025035"><ele>17.25</ele><time>2026-04-19T08:46:41Z</time></trkpt><trkpt lat="43.66876783766261" lon="10.711465141977024"><ele>17.0</ele><time>2026-04-19T08:46:42Z</time></trkpt><trkpt lat="43.66882754191972" lon="10.711690064991812"><ele>17.333333333333336</ele><time>2026-04-19T08:46:43Z</time></trkpt><trkpt lat="43.66889361589973" lon="10.711937594927601"><ele>17.666666666666668</ele><time>2026-04-19T08:46:44Z</time></trkpt><trkpt lat="43.668962427949324" lon="10.71219538249091"><ele>18.0</ele><time>2026-04-19T08:46:45Z</time></trkpt><trkpt lat="43.66902974619949" lon="10.712447573880974"><ele>18.0</ele><time>2026-04-19T08:46:46Z</time></trkpt><trkpt lat="43.66909377495422" lon="10.712685126214971"><ele>18.0</ele><time>2026-04-19T08:46:47Z</time></trkpt><trkpt lat="43.6691571769696" lon="10.712920389964161"><ele>18.0</ele><time>2026-04-19T08:46:48Z</time></trkpt><trkpt lat="43.669223345695265" lon="10.713143773136457"><ele>18.333333333333332</ele><time>2026-04-19T08:46:49Z</time></trkpt><trkpt lat="43.66927955093887" lon="10.71336095518083"><ele>18.666666666666664</ele><time>2026-04-19T08:46:50Z</time></trkpt><trkpt lat="43.669334710744316" lon="10.713562092732534"><ele>19.0</ele><time>2026-04-19T08:46:51Z</time></trkpt><trkpt lat="43.669388797062346" lon="10.713763997796267"><ele>19.0</ele><time>2026-04-19T08:46:52Z</time></trkpt><trkpt lat="43.66944487093761" lon="10.713976590326817"><ele>19.0</ele><time>2026-04-19T08:46:53Z</time></trkpt><trkpt lat="43.66950321368232" lon="10.714204508175941"><ele>19.0</ele><time>2026-04-19T08:46:54Z</time></trkpt><trkpt lat="43.669567019221944" lon="10.714441645483655"><ele>19.0</ele><time>2026-04-19T08:46:55Z</time></trkpt><trkpt lat="43.66962545414913" lon="10.714660776732096"><ele>19.0</ele><time>2026-04-19T08:46:56Z</time></trkpt><trkpt lat="43.669675546755876" lon="10.714862140143488"><ele>19.0</ele><time>2026-04-19T08:46:57Z</time></trkpt><trkpt lat="43.66972100667198" lon="10.715055931695657"><ele>19.333333333333332</ele><time>2026-04-19T08:46:58Z</time></trkpt><trkpt lat="43.66976830421676" lon="10.715246249271518"><ele>19.666666666666668</ele><time>2026-04-19T08:46:59Z</time></trkpt><trkpt lat="43.66981623626868" lon="10.715441876864693"><ele>20.0</ele><time>2026-04-19T08:47:00Z</time></trkpt><trkpt lat="43.66986919766494" lon="10.715645456056334"><ele>20.0</ele><time>2026-04-19T08:47:01Z</time></trkpt><trkpt lat="43.66992588529611" lon="10.715855809140947"><ele>20.0</ele><time>2026-04-19T08:47:02Z</time></trkpt><trkpt lat="43.66997634510725" lon="10.716050553317928"><ele>20.0</ele><time>2026-04-19T08:47:03Z</time></trkpt><trkpt lat="43.67002260335945" lon="10.716242419356195"><ele>20.0</ele><time>2026-04-19T08:47:04Z</time></trkpt><trkpt lat="43.670072445863035" lon="10.716440487307953"><ele>20.0</ele><time>2026-04-19T08:47:05Z</time></trkpt><trkpt lat="43.67013006602068" lon="10.71664705722901"><ele>20.0</ele><time>2026-04-19T08:47:06Z</time></trkpt><trkpt lat="43.67018925459607" lon="10.716853398112253"><ele>20.0</ele><time>2026-04-19T08:47:07Z</time></trkpt><trkpt lat="43.67024517408355" lon="10.717062006862683"><ele>20.0</ele><time>2026-04-19T08:47:08Z</time></trkpt><trkpt lat="43.67030250850003" lon="10.71726599373232"><ele>20.0</ele><time>2026-04-19T08:47:09Z</time></trkpt><trkpt lat="43.670361690280444" lon="10.717459683708325"><ele>19.666666666666668</ele><time>2026-04-19T08:47:10Z</time></trkpt><trkpt lat="43.670415578108646" lon="10.717656685181185"><ele>19.333333333333332</ele><time>2026-04-19T08:47:11Z</time></trkpt><trkpt lat="43.67047423506659" lon="10.717865799444205"><ele>19.0</ele><time>2026-04-19T08:47:12Z</time></trkpt><trkpt lat="43.67052868895268" lon="10.718096167709078"><ele>19.0</ele><time>2026-04-19T08:47:13Z</time></trkpt><trkpt lat="43.67060776367498" lon="10.718313701694951"><ele>19.0</ele><time>2026-04-19T08:47:14Z</time></trkpt><trkpt lat="43.67066776817233" lon="10.71852872774043"><ele>19.0</ele><time>2026-04-19T08:47:15Z</time></trkpt><trkpt lat="43.67072320285376" lon="10.718739074986509"><ele>19.333333333333332</ele><time>2026-04-19T08:47:16Z</time></trkpt><trkpt lat="43.67077933545328" lon="10.71893736866696"><ele>19.666666666666668</ele><time>2026-04-19T08:47:17Z</time></trkpt><trkpt lat="43.670831267700684" lon="10.719133369875443"><ele>20.0</ele><time>2026-04-19T08:47:18Z</time></trkpt><trkpt lat="43.67088406380829" lon="10.71932810715313"><ele>20.5</ele><time>2026-04-19T08:47:19Z</time></trkpt><trkpt lat="43.67093205648561" lon="10.719505299821726"><ele>21.0</ele><time>2026-04-19T08:47:20Z</time></trkpt><trkpt lat="43.67098017031562" lon="10.719676636725785"><ele>21.5</ele><time>2026-04-19T08:47:21Z</time></trkpt><trkpt lat="43.671025826894706" lon="10.719852103998193"><ele>22.0</ele><time>2026-04-19T08:47:22Z</time></trkpt><trkpt lat="43.6710610781179" lon="10.720034554462966"><ele>22.0</ele><time>2026-04-19T08:47:23Z</time></trkpt><trkpt lat="43.671106986813754" lon="10.720207962356563"><ele>22.0</ele><time>2026-04-19T08:47:24Z</time></trkpt><trkpt lat="43.67115380811974" lon="10.72038193018056"><ele>22.0</ele><time>2026-04-19T08:47:25Z</time></trkpt><trkpt lat="43.67119899524002" lon="10.720549566898185"><ele>22.0</ele><time>2026-04-19T08:47:26Z</time></trkpt><trkpt lat="43.67125394861672" lon="10.720691252385489"><ele>21.8</ele><time>2026-04-19T08:47:27Z</time></trkpt><trkpt lat="43.67128800890919" lon="10.720827044107253"><ele>21.6</ele><time>2026-04-19T08:47:28Z</time></trkpt><trkpt lat="43.67132480749314" lon="10.720971111228744"><ele>21.400000000000002</ele><time>2026-04-19T08:47:29Z</time></trkpt><trkpt lat="43.67136495319032" lon="10.721118791927147"><ele>21.200000000000003</ele><time>2026-04-19T08:47:30Z</time></trkpt><trkpt lat="43.671403175756666" lon="10.721260785169653"><ele>21.0</ele><time>2026-04-19T08:47:31Z</time></trkpt><trkpt lat="43.67144043896592" lon="10.721400496229004"><ele>21.0</ele><time>2026-04-19T08:47:32Z</time></trkpt><trkpt lat="43.67147944424395" lon="10.721538374499708"><ele>21.0</ele><time>2026-04-19T08:47:33Z</time></trkpt><trkpt lat="43.67151933120904" lon="10.721686181908288"><ele>21.0</ele><time>2026-04-19T08:47:34Z</time></trkpt><trkpt lat="43.67155791549132" lon="10.721832106685824"><ele>21.0</ele><time>2026-04-19T08:47:35Z</time></trkpt><trkpt lat="43.67159399484904" lon="10.72197571923907"><ele>21.0</ele><time>2026-04-19T08:47:36Z</time></trkpt><trkpt lat="43.671626632707856" lon="10.722112618763163"><ele>21.0</ele><time>2026-04-19T08:47:37Z</time></trkpt><trkpt lat="43.671661850711175" lon="10.722246838681658"><ele>21.0</ele><time>2026-04-19T08:47:38Z</time></trkpt><trkpt lat="43.6716978557235" lon="10.722376987970746"><ele>21.0</ele><time>2026-04-19T08:47:39Z</time></trkpt><trkpt lat="43.67173052771467" lon="10.722498010947204"><ele>21.0</ele><time>2026-04-19T08:47:40Z</time></trkpt><trkpt lat="43.67176328561062" lon="10.722615819745773"><ele>21.0</ele><time>2026-04-19T08:47:41Z</time></trkpt><trkpt lat="43.67179510984845" lon="10.722732701859394"><ele>21.0</ele><time>2026-04-19T08:47:42Z</time></trkpt><trkpt lat="43.671824225270996" lon="10.722848705567172"><ele>21.0</ele><time>2026-04-19T08:47:43Z</time></trkpt><trkpt lat="43.671852995233934" lon="10.722960946508655"><ele>21.0</ele><time>2026-04-19T08:47:44Z</time></trkpt><trkpt lat="43.6718816976753" lon="10.723078267314287"><ele>21.0</ele><time>2026-04-19T08:47:45Z</time></trkpt><trkpt lat="43.671913875320655" lon="10.723197753083806"><ele>21.0</ele><time>2026-04-19T08:47:46Z</time></trkpt><trkpt lat="43.671953287190604" lon="10.723333016988429"><ele>20.8</ele><time>2026-04-19T08:47:47Z</time></trkpt><trkpt lat="43.67199562391383" lon="10.723477452687302"><ele>20.6</ele><time>2026-04-19T08:47:48Z</time></trkpt><trkpt lat="43.67203796174595" lon="10.723611683844819"><ele>20.4</ele><time>2026-04-19T08:47:49Z</time></trkpt><trkpt lat="43.672073325054875" lon="10.723741526292491"><ele>20.2</ele><time>2026-04-19T08:47:50Z</time></trkpt><trkpt lat="43.67211484714246" lon="10.723886893484693"><ele>20.0</ele><time>2026-04-19T08:47:51Z</time></trkpt><trkpt lat="43.67216009663561" lon="10.724027805683855"><ele>20.0</ele><time>2026-04-19T08:47:52Z</time></trkpt><trkpt lat="43.67219996026518" lon="10.72415071778386"><ele>20.0</ele><time>2026-04-19T08:47:53Z</time></trkpt><trkpt lat="43.6722294597714" lon="10.72426433175061"><ele>20.0</ele><time>2026-04-19T08:47:54Z</time></trkpt><trkpt lat="43.672262447492116" lon="10.724361230378166"><ele>20.0</ele><time>2026-04-19T08:47:55Z</time></trkpt><trkpt lat="43.672293823165646" lon="10.724451637846256"><ele>20.0</ele><time>2026-04-19T08:47:56Z</time></trkpt><trkpt lat="43.672381303974106" lon="10.724498580393035"><ele>20.0</ele><time>2026-04-19T08:47:57Z</time></trkpt><trkpt lat="43.67245119243719" lon="10.724546121131608"><ele>19.833333333333336</ele><time>2026-04-19T08:47:58Z</time></trkpt><trkpt lat="43.67252803439612" lon="10.724571745836734"><ele>19.666666666666668</ele><time>2026-04-19T08:47:59Z</time></trkpt><trkpt lat="43.67261293016624" lon="10.724570049048621"><ele>19.5</ele><time>2026-04-19T08:48:00Z</time></trkpt><trkpt lat="43.67268847490207" lon="10.724548067272172"><ele>19.333333333333332</ele><time>2026-04-19T08:48:01Z</time></trkpt><trkpt lat="43.672756644214004" lon="10.724508002692891"><ele>19.166666666666664</ele><time>2026-04-19T08:48:02Z</time></trkpt><trkpt lat="43.672824745016705" lon="10.724452620720003"><ele>19.0</ele><time>2026-04-19T08:48:03Z</time></trkpt><trkpt lat="43.67290064356432" lon="10.724368121607057"><ele>19.0</ele><time>2026-04-19T08:48:04Z</time></trkpt><trkpt lat="43.672983275396085" lon="10.724265606038122"><ele>19.0</ele><time>2026-04-19T08:48:05Z</time></trkpt><trkpt lat="43.67306679844455" lon="10.724156838741111"><ele>19.0</ele><time>2026-04-19T08:48:06Z</time></trkpt><trkpt lat="43.673148151951125" lon="10.724046772146902"><ele>19.0</ele><time>2026-04-19T08:48:07Z</time></trkpt><trkpt lat="43.67321791910371" lon="10.723939111252204"><ele>19.0</ele><time>2026-04-19T08:48:08Z</time></trkpt><trkpt lat="43.6732783725374" lon="10.723845355731335"><ele>19.0</ele><time>2026-04-19T08:48:09Z</time></trkpt><trkpt lat="43.673331575189486" lon="10.723747564560135"><ele>19.0</ele><time>2026-04-19T08:48:10Z</time></trkpt><trkpt lat="43.673393270891715" lon="10.723659417283"><ele>19.0</ele><time>2026-04-19T08:48:11Z</time></trkpt><trkpt lat="43.673456360393914" lon="10.723585312353277"><ele>19.0</ele><time>2026-04-19T08:48:12Z</time></trkpt><trkpt lat="43.67352674021351" lon="10.723525749593621"><ele>19.0</ele><time>2026-04-19T08:48:13Z</time></trkpt><trkpt lat="43.673598729378064" lon="10.723484505867992"><ele>19.0</ele><time>2026-04-19T08:48:14Z</time></trkpt><trkpt lat="43.67367418467483" lon="10.723454151538988"><ele>19.4</ele><time>2026-04-19T08:48:15Z</time></trkpt><trkpt lat="43.6737568753037" lon="10.72343930578952"><ele>19.799999999999997</ele><time>2026-04-19T08:48:16Z</time></trkpt><trkpt lat="43.67384533228373" lon="10.72343472293155"><ele>20.200000000000003</ele><time>2026-04-19T08:48:17Z</time></trkpt><trkpt lat="43.67396382786303" lon="10.723443114722064"><ele>20.6</ele><time>2026-04-19T08:48:18Z</time></trkpt><trkpt lat="43.6741006527473" lon="10.723478478435439"><ele>21.0</ele><time>2026-04-19T08:48:19Z</time></trkpt><trkpt lat="43.674262226626944" lon="10.72349214929101"><ele>20.333333333333332</ele><time>2026-04-19T08:48:20Z</time></trkpt><trkpt lat="43.67444307983198" lon="10.72348537094796"><ele>19.666666666666664</ele><time>2026-04-19T08:48:21Z</time></trkpt><trkpt lat="43.67461535176943" lon="10.7235111545356"><ele>19.0</ele><time>2026-04-19T08:48:22Z</time></trkpt><trkpt lat="43.67479817891999" lon="10.723530295232026"><ele>19.0</ele><time>2026-04-19T08:48:23Z</time></trkpt><trkpt lat="43.67500047279033" lon="10.723547372117618"><ele>19.0</ele><time>2026-04-19T08:48:24Z</time></trkpt><trkpt lat="43.675215817957756" lon="10.723563483527045"><ele>19.0</ele><time>2026-04-19T08:48:25Z</time></trkpt><trkpt lat="43.67543493177798" lon="10.723580240884912"><ele>19.0</ele><time>2026-04-19T08:48:26Z</time></trkpt><trkpt lat="43.67565106011009" lon="10.723592404079271"><ele>19.0</ele><time>2026-04-19T08:48:27Z</time></trkpt><trkpt lat="43.67587550677476" lon="10.723600428158782"><ele>19.0</ele><time>2026-04-19T08:48:28Z</time></trkpt><trkpt lat="43.676106186940075" lon="10.723632028698361"><ele>18.666666666666664</ele><time>2026-04-19T08:48:29Z</time></trkpt><trkpt lat="43.676328934258" lon="10.723652835670023"><ele>18.333333333333332</ele><time>2026-04-19T08:48:30Z</time></trkpt><trkpt lat="43.67652614500344" lon="10.7236655243052"><ele>18.0</ele><time>2026-04-19T08:48:31Z</time></trkpt><trkpt lat="43.67670773065568" lon="10.723676347352324"><ele>18.0</ele><time>2026-04-19T08:48:32Z</time></trkpt><trkpt lat="43.67688668415257" lon="10.723691195264637"><ele>18.0</ele><time>2026-04-19T08:48:33Z</time></trkpt><trkpt lat="43.67705122502339" lon="10.723705872584455"><ele>18.0</ele><time>2026-04-19T08:48:34Z</time></trkpt><trkpt lat="43.677216922364565" lon="10.72372093076612"><ele>18.0</ele><time>2026-04-19T08:48:35Z</time></trkpt><trkpt lat="43.677369743800924" lon="10.723731835146008"><ele>18.0</ele><time>2026-04-19T08:48:36Z</time></trkpt><trkpt lat="43.67751278361128" lon="10.723751554791265"><ele>18.0</ele><time>2026-04-19T08:48:37Z</time></trkpt><trkpt lat="43.677651525532944" lon="10.723803528930356"><ele>18.0</ele><time>2026-04-19T08:48:38Z</time></trkpt><trkpt lat="43.6777635706867" lon="10.723861511346808"><ele>18.0</ele><time>2026-04-19T08:48:39Z</time></trkpt><trkpt lat="43.67785093508793" lon="10.723906738077034"><ele>18.0</ele><time>2026-04-19T08:48:40Z</time></trkpt><trkpt lat="43.67791694771731" lon="10.723956416275865"><ele>18.0</ele><time>2026-04-19T08:48:41Z</time></trkpt><trkpt lat="43.677973998853034" lon="10.724004838202973"><ele>18.0</ele><time>2026-04-19T08:48:42Z</time></trkpt><trkpt lat="43.678036008089094" lon="10.72408929309463"><ele>18.0</ele><time>2026-04-19T08:48:43Z</time></trkpt><trkpt lat="43.67809417836797" lon="10.724198901699665"><ele>18.0</ele><time>2026-04-19T08:48:44Z</time></trkpt><trkpt lat="43.67815067993451" lon="10.724300920072094"><ele>18.0</ele><time>2026-04-19T08:48:45Z</time></trkpt><trkpt lat="43.67823037174535" lon="10.724372047558383"><ele>18.0</ele><time>2026-04-19T08:48:46Z</time></trkpt><trkpt lat="43.678328855047745" lon="10.724417413519934"><ele>18.0</ele><time>2026-04-19T08:48:47Z</time></trkpt><trkpt lat="43.678435856698414" lon="10.724436114808006"><ele>18.0</ele><time>2026-04-19T08:48:48Z</time></trkpt><trkpt lat="43.67852631388647" lon="10.724441997966855"><ele>18.0</ele><time>2026-04-19T08:48:49Z</time></trkpt><trkpt lat="43.67861544873667" lon="10.724429790480931"><ele>18.4</ele><time>2026-04-19T08:48:50Z</time></trkpt><trkpt lat="43.678685817108274" lon="10.724370874088276"><ele>18.8</ele><time>2026-04-19T08:48:51Z</time></trkpt><trkpt lat="43.67874513589335" lon="10.72428209897794"><ele>19.2</ele><time>2026-04-19T08:48:52Z</time></trkpt><trkpt lat="43.67877937979691" lon="10.72416348990422"><ele>19.6</ele><time>2026-04-19T08:48:53Z</time></trkpt><trkpt lat="43.678786869031065" lon="10.724029688528995"><ele>20.0</ele><time>2026-04-19T08:48:54Z</time></trkpt><trkpt lat="43.67877010356224" lon="10.723895047668318"><ele>20.0</ele><time>2026-04-19T08:48:55Z</time></trkpt><trkpt lat="43.67874467658363" lon="10.7237705999212"><ele>20.0</ele><time>2026-04-19T08:48:56Z</time></trkpt><trkpt lat="43.678731462701776" lon="10.723669276346941"><ele>20.0</ele><time>2026-04-19T08:48:57Z</time></trkpt><trkpt lat="43.67875446754279" lon="10.723572267904705"><ele>20.0</ele><time>2026-04-19T08:48:58Z</time></trkpt><trkpt lat="43.67881646962084" lon="10.723480135068016"><ele>20.0</ele><time>2026-04-19T08:48:59Z</time></trkpt><trkpt lat="43.678886275421874" lon="10.723384618044559"><ele>20.0</ele><time>2026-04-19T08:49:00Z</time></trkpt><trkpt lat="43.679049021271894" lon="10.723382732694727"><ele>19.666666666666668</ele><time>2026-04-19T08:49:01Z</time></trkpt><trkpt lat="43.67919025871391" lon="10.723312328450753"><ele>19.333333333333332</ele><time>2026-04-19T08:49:02Z</time></trkpt><trkpt lat="43.67934892092411" lon="10.72325447113081"><ele>19.0</ele><time>2026-04-19T08:49:03Z</time></trkpt><trkpt lat="43.679501334812905" lon="10.723188245642556"><ele>18.666666666666664</ele><time>2026-04-19T08:49:04Z</time></trkpt><trkpt lat="43.679653327852854" lon="10.723116411875699"><ele>18.333333333333332</ele><time>2026-04-19T08:49:05Z</time></trkpt><trkpt lat="43.679816279683266" lon="10.723039446427165"><ele>18.0</ele><time>2026-04-19T08:49:06Z</time></trkpt><trkpt lat="43.679985821640635" lon="10.722951963183407"><ele>18.0</ele><time>2026-04-19T08:49:07Z</time></trkpt><trkpt lat="43.680155070876125" lon="10.722859822780855"><ele>18.0</ele><time>2026-04-19T08:49:08Z</time></trkpt><trkpt lat="43.68031629852164" lon="10.722759203508037"><ele>18.0</ele><time>2026-04-19T08:49:09Z</time></trkpt><trkpt lat="43.68047330347023" lon="10.722656465095794"><ele>17.666666666666668</ele><time>2026-04-19T08:49:10Z</time></trkpt><trkpt lat="43.68062987788528" lon="10.722548490959788"><ele>17.333333333333336</ele><time>2026-04-19T08:49:11Z</time></trkpt><trkpt lat="43.680793453160376" lon="10.72243015930627"><ele>17.0</ele><time>2026-04-19T08:49:12Z</time></trkpt><trkpt lat="43.68096039014149" lon="10.722287719230414"><ele>17.0</ele><time>2026-04-19T08:49:13Z</time></trkpt><trkpt lat="43.68112469830589" lon="10.722149333752764"><ele>17.0</ele><time>2026-04-19T08:49:14Z</time></trkpt><trkpt lat="43.6812813115523" lon="10.722008486371456"><ele>17.0</ele><time>2026-04-19T08:49:15Z</time></trkpt><trkpt lat="43.681435772882146" lon="10.721854072278726"><ele>17.333333333333336</ele><time>2026-04-19T08:49:16Z</time></trkpt><trkpt lat="43.68160008260159" lon="10.721683280952103"><ele>17.666666666666668</ele><time>2026-04-19T08:49:17Z</time></trkpt><trkpt lat="43.68176748240971" lon="10.721493774920622"><ele>18.0</ele><time>2026-04-19T08:49:18Z</time></trkpt><trkpt lat="43.68193568631887" lon="10.721284458510787"><ele>18.0</ele><time>2026-04-19T08:49:19Z</time></trkpt><trkpt lat="43.68210784120752" lon="10.721071234220013"><ele>18.0</ele><time>2026-04-19T08:49:20Z</time></trkpt><trkpt lat="43.68227128111813" lon="10.72085523817691"><ele>18.0</ele><time>2026-04-19T08:49:21Z</time></trkpt><trkpt lat="43.68243922169261" lon="10.720633011471493"><ele>18.0</ele><time>2026-04-19T08:49:22Z</time></trkpt><trkpt lat="43.682600552586074" lon="10.720409239515785"><ele>17.0</ele><time>2026-04-19T08:49:23Z</time></trkpt><trkpt lat="43.68276367640229" lon="10.720186226024394"><ele>16.0</ele><time>2026-04-19T08:49:24Z</time></trkpt><trkpt lat="43.68293279241609" lon="10.719956693332154"><ele>16.0</ele><time>2026-04-19T08:49:25Z</time></trkpt><trkpt lat="43.683101687789" lon="10.719725962440153"><ele>16.0</ele><time>2026-04-19T08:49:26Z</time></trkpt><trkpt lat="43.6832708894152" lon="10.719492230899572"><ele>16.0</ele><time>2026-04-19T08:49:27Z</time></trkpt><trkpt lat="43.683445410862284" lon="10.719252438426029"><ele>16.0</ele><time>2026-04-19T08:49:28Z</time></trkpt><trkpt lat="43.68362090209802" lon="10.71900629724768"><ele>16.333333333333332</ele><time>2026-04-19T08:49:29Z</time></trkpt><trkpt lat="43.683786128920936" lon="10.718782481425214"><ele>16.666666666666668</ele><time>2026-04-19T08:49:30Z</time></trkpt><trkpt lat="43.683938764673414" lon="10.718569856792184"><ele>17.0</ele><time>2026-04-19T08:49:31Z</time></trkpt><trkpt lat="43.6840937891829" lon="10.718364021753866"><ele>17.0</ele><time>2026-04-19T08:49:32Z</time></trkpt><trkpt lat="43.68425094478784" lon="10.718153801100188"><ele>17.0</ele><time>2026-04-19T08:49:33Z</time></trkpt><trkpt lat="43.68441292163821" lon="10.717933532987242"><ele>17.0</ele><time>2026-04-19T08:49:34Z</time></trkpt><trkpt lat="43.6845780277419" lon="10.717705426427083"><ele>16.5</ele><time>2026-04-19T08:49:35Z</time></trkpt><trkpt lat="43.68473992614134" lon="10.717479716746059"><ele>16.0</ele><time>2026-04-19T08:49:36Z</time></trkpt><trkpt lat="43.68490256814166" lon="10.717256532456945"><ele>16.0</ele><time>2026-04-19T08:49:37Z</time></trkpt><trkpt lat="43.68506515639936" lon="10.717034226467883"><ele>16.0</ele><time>2026-04-19T08:49:38Z</time></trkpt><trkpt lat="43.685223980075406" lon="10.716817726146884"><ele>16.666666666666664</ele><time>2026-04-19T08:49:39Z</time></trkpt><trkpt lat="43.685377670663634" lon="10.71660843590136"><ele>17.333333333333332</ele><time>2026-04-19T08:49:40Z</time></trkpt><trkpt lat="43.685523504407385" lon="10.71640896208122"><ele>18.0</ele><time>2026-04-19T08:49:41Z</time></trkpt><trkpt lat="43.68566345536443" lon="10.716217006422006"><ele>17.666666666666668</ele><time>2026-04-19T08:49:42Z</time></trkpt><trkpt lat="43.685800977258246" lon="10.71602712008977"><ele>17.333333333333336</ele><time>2026-04-19T08:49:43Z</time></trkpt><trkpt lat="43.68594024505941" lon="10.715837801694294"><ele>17.0</ele><time>2026-04-19T08:49:44Z</time></trkpt><trkpt lat="43.68608276512526" lon="10.715643935333441"><ele>17.333333333333336</ele><time>2026-04-19T08:49:45Z</time></trkpt><trkpt lat="43.686221836724435" lon="10.71545466751711"><ele>17.666666666666668</ele><time>2026-04-19T08:49:46Z</time></trkpt><trkpt lat="43.68635319409994" lon="10.71527777333899"><ele>18.0</ele><time>2026-04-19T08:49:47Z</time></trkpt><trkpt lat="43.68647993911255" lon="10.715107053207582"><ele>18.333333333333332</ele><time>2026-04-19T08:49:48Z</time></trkpt><trkpt lat="43.68660576767054" lon="10.714931656971906"><ele>18.666666666666664</ele><time>2026-04-19T08:49:49Z</time></trkpt><trkpt lat="43.68673623123301" lon="10.714747083646946"><ele>19.0</ele><time>2026-04-19T08:49:50Z</time></trkpt><trkpt lat="43.68688340020839" lon="10.714569343769721"><ele>16.666666666666664</ele><time>2026-04-19T08:49:51Z</time></trkpt><trkpt lat="43.68699157457405" lon="10.714396259903396"><ele>14.333333333333332</ele><time>2026-04-19T08:49:52Z</time></trkpt><trkpt lat="43.68710448869184" lon="10.714269057979108"><ele>12.0</ele><time>2026-04-19T08:49:53Z</time></trkpt><trkpt lat="43.68725444923944" lon="10.714063846420414"><ele>12.0</ele><time>2026-04-19T08:49:54Z</time></trkpt><trkpt lat="43.687376346217555" lon="10.713887514131246"><ele>12.0</ele><time>2026-04-19T08:49:55Z</time></trkpt><trkpt lat="43.68749310332096" lon="10.713722704759046"><ele>12.0</ele><time>2026-04-19T08:49:56Z</time></trkpt><trkpt lat="43.68761690621999" lon="10.713556796744657"><ele>12.666666666666668</ele><time>2026-04-19T08:49:57Z</time></trkpt><trkpt lat="43.687741191110334" lon="10.71337816190486"><ele>13.333333333333334</ele><time>2026-04-19T08:49:58Z</time></trkpt><trkpt lat="43.68786978720184" lon="10.713208444765376"><ele>14.0</ele><time>2026-04-19T08:49:59Z</time></trkpt><trkpt lat="43.687984725176925" lon="10.713052012269943"><ele>14.333333333333334</ele><time>2026-04-19T08:50:00Z</time></trkpt><trkpt lat="43.68810457067081" lon="10.712888578881248"><ele>14.666666666666668</ele><time>2026-04-19T08:50:01Z</time></trkpt><trkpt lat="43.68822556097025" lon="10.712722752938381"><ele>15.0</ele><time>2026-04-19T08:50:02Z</time></trkpt><trkpt lat="43.68835305858006" lon="10.712545617939993"><ele>15.0</ele><time>2026-04-19T08:50:03Z</time></trkpt><trkpt lat="43.68847486208464" lon="10.712372820102642"><ele>15.0</ele><time>2026-04-19T08:50:04Z</time></trkpt><trkpt lat="43.688594684679956" lon="10.7122171922678"><ele>15.0</ele><time>2026-04-19T08:50:05Z</time></trkpt><trkpt lat="43.68871549064585" lon="10.712050145643248"><ele>15.0</ele><time>2026-04-19T08:50:06Z</time></trkpt><trkpt lat="43.68884370493266" lon="10.711879151835502"><ele>15.0</ele><time>2026-04-19T08:50:07Z</time></trkpt><trkpt lat="43.68897324120001" lon="10.711700449498057"><ele>15.0</ele><time>2026-04-19T08:50:08Z</time></trkpt><trkpt lat="43.689101416412356" lon="10.711526597945154"><ele>15.0</ele><time>2026-04-19T08:50:09Z</time></trkpt><trkpt lat="43.68922807123141" lon="10.71135244127125"><ele>15.0</ele><time>2026-04-19T08:50:10Z</time></trkpt><trkpt lat="43.68934933662623" lon="10.711180923459892"><ele>15.0</ele><time>2026-04-19T08:50:11Z</time></trkpt><trkpt lat="43.68947778602755" lon="10.710995454416688"><ele>14.666666666666668</ele><time>2026-04-19T08:50:12Z</time></trkpt><trkpt lat="43.689594480657306" lon="10.710813231945354"><ele>14.333333333333334</ele><time>2026-04-19T08:50:13Z</time></trkpt><trkpt lat="43.6896998810333" lon="10.71064389090863"><ele>14.0</ele><time>2026-04-19T08:50:14Z</time></trkpt><trkpt lat="43.68980609000413" lon="10.71047535740331"><ele>14.0</ele><time>2026-04-19T08:50:15Z</time></trkpt><trkpt lat="43.68991611142763" lon="10.71029551047935"><ele>14.0</ele><time>2026-04-19T08:50:16Z</time></trkpt><trkpt lat="43.69001112044933" lon="10.71011754046076"><ele>14.0</ele><time>2026-04-19T08:50:17Z</time></trkpt><trkpt lat="43.69010666129133" lon="10.709955602258258"><ele>14.333333333333334</ele><time>2026-04-19T08:50:18Z</time></trkpt><trkpt lat="43.69021037564001" lon="10.70979000201249"><ele>14.666666666666668</ele><time>2026-04-19T08:50:19Z</time></trkpt><trkpt lat="43.69032201253257" lon="10.709627811557374"><ele>15.0</ele><time>2026-04-19T08:50:20Z</time></trkpt><trkpt lat="43.690377567283306" lon="10.709464796253746"><ele>14.75</ele><time>2026-04-19T08:50:21Z</time></trkpt><trkpt lat="43.690462074907835" lon="10.709301692438114"><ele>14.5</ele><time>2026-04-19T08:50:22Z</time></trkpt><trkpt lat="43.69054411652955" lon="10.709137950543196"><ele>14.25</ele><time>2026-04-19T08:50:23Z</time></trkpt><trkpt lat="43.690622034293916" lon="10.708997668898238"><ele>14.0</ele><time>2026-04-19T08:50:24Z</time></trkpt><trkpt lat="43.6906949975272" lon="10.708866714021966"><ele>14.0</ele><time>2026-04-19T08:50:25Z</time></trkpt><trkpt lat="43.690767175042204" lon="10.70873039502622"><ele>14.0</ele><time>2026-04-19T08:50:26Z</time></trkpt><trkpt lat="43.69084250309528" lon="10.708576626861685"><ele>14.0</ele><time>2026-04-19T08:50:27Z</time></trkpt><trkpt lat="43.690919738590715" lon="10.708427383305162"><ele>14.0</ele><time>2026-04-19T08:50:28Z</time></trkpt><trkpt lat="43.69099784092585" lon="10.708283324116941"><ele>14.0</ele><time>2026-04-19T08:50:29Z</time></trkpt><trkpt lat="43.69107572400801" lon="10.708131300078405"><ele>14.0</ele><time>2026-04-19T08:50:30Z</time></trkpt><trkpt lat="43.69116002563232" lon="10.707965274120768"><ele>14.0</ele><time>2026-04-19T08:50:31Z</time></trkpt><trkpt lat="43.69124503267227" lon="10.70780052138666"><ele>14.0</ele><time>2026-04-19T08:50:32Z</time></trkpt><trkpt lat="43.69133157077603" lon="10.707647824539066"><ele>14.0</ele><time>2026-04-19T08:50:33Z</time></trkpt><trkpt lat="43.69139845097175" lon="10.707512992143288"><ele>14.0</ele><time>2026-04-19T08:50:34Z</time></trkpt><trkpt lat="43.69151326866045" lon="10.707377425951353"><ele>14.0</ele><time>2026-04-19T08:50:35Z</time></trkpt><trkpt lat="43.69162689444128" lon="10.707242997662263"><ele>14.0</ele><time>2026-04-19T08:50:36Z</time></trkpt><trkpt lat="43.691694268013705" lon="10.707156941447677"><ele>14.0</ele><time>2026-04-19T08:50:37Z</time></trkpt><trkpt lat="43.69183033696217" lon="10.707036273288947"><ele>14.0</ele><time>2026-04-19T08:50:38Z</time></trkpt><trkpt lat="43.69194345002678" lon="10.706937111068738"><ele>14.0</ele><time>2026-04-19T08:50:39Z</time></trkpt><trkpt lat="43.69204115996319" lon="10.706859601202495"><ele>14.0</ele><time>2026-04-19T08:50:40Z</time></trkpt><trkpt lat="43.69213264840097" lon="10.706798531822988"><ele>13.799999999999999</ele><time>2026-04-19T08:50:41Z</time></trkpt><trkpt lat="43.69219618890446" lon="10.706694575842006"><ele>13.599999999999998</ele><time>2026-04-19T08:50:42Z</time></trkpt><trkpt lat="43.69232657861911" lon="10.706667703831247"><ele>13.4</ele><time>2026-04-19T08:50:43Z</time></trkpt><trkpt lat="43.69242193869024" lon="10.706663641471955"><ele>13.2</ele><time>2026-04-19T08:50:44Z</time></trkpt><trkpt lat="43.69248909262461" lon="10.706637228515326"><ele>13.0</ele><time>2026-04-19T08:50:45Z</time></trkpt><trkpt lat="43.69255677754029" lon="10.706630509387907"><ele>13.0</ele><time>2026-04-19T08:50:46Z</time></trkpt><trkpt lat="43.69264188524668" lon="10.706674025531532"><ele>13.0</ele><time>2026-04-19T08:50:48Z</time></trkpt><trkpt lat="43.6927663758328" lon="10.706747805486929"><ele>13.0</ele><time>2026-04-19T08:50:50Z</time></trkpt><trkpt lat="43.69285049214309" lon="10.706770040834511"><ele>13.0</ele><time>2026-04-19T08:50:51Z</time></trkpt><trkpt lat="43.69295334865117" lon="10.706768042517915"><ele>13.0</ele><time>2026-04-19T08:50:52Z</time></trkpt><trkpt lat="43.693054117157835" lon="10.70674839071857"><ele>13.25</ele><time>2026-04-19T08:50:53Z</time></trkpt><trkpt lat="43.693187692007164" lon="10.706750713956307"><ele>13.5</ele><time>2026-04-19T08:50:54Z</time></trkpt><trkpt lat="43.693301953642376" lon="10.70675141984106"><ele>13.75</ele><time>2026-04-19T08:50:54.999Z</time></trkpt><trkpt lat="43.69342208441134" lon="10.706759001016344"><ele>14.0</ele><time>2026-04-19T08:50:55.999Z</time></trkpt><trkpt lat="43.69356132442239" lon="10.706782830691168"><ele>14.25</ele><time>2026-04-19T08:50:56.999Z</time></trkpt><trkpt lat="43.69369588796953" lon="10.706810104469373"><ele>14.5</ele><time>2026-04-19T08:50:57.999Z</time></trkpt><trkpt lat="43.693822160615" lon="10.706836646730363"><ele>14.75</ele><time>2026-04-19T08:50:58.999Z</time></trkpt><trkpt lat="43.693923861186455" lon="10.706872227680302"><ele>15.0</ele><time>2026-04-19T08:50:59.999Z</time></trkpt><trkpt lat="43.694025080282614" lon="10.706920787848277"><ele>15.0</ele><time>2026-04-19T08:51:00.999Z</time></trkpt><trkpt lat="43.694127811384455" lon="10.706976395715234"><ele>15.0</ele><time>2026-04-19T08:51:01.999Z</time></trkpt><trkpt lat="43.694227202217405" lon="10.707041314710875"><ele>15.0</ele><time>2026-04-19T08:51:02.999Z</time></trkpt><trkpt lat="43.6943382348173" lon="10.707115471429246"><ele>15.0</ele><time>2026-04-19T08:51:03.999Z</time></trkpt><trkpt lat="43.694420682074394" lon="10.70719835386345"><ele>15.0</ele><time>2026-04-19T08:51:04.999Z</time></trkpt><trkpt lat="43.69451532109354" lon="10.707255984590168"><ele>14.833333333333334</ele><time>2026-04-19T08:51:05.999Z</time></trkpt><trkpt lat="43.6945915962873" lon="10.707315391819634"><ele>14.666666666666668</ele><time>2026-04-19T08:51:06.999Z</time></trkpt><trkpt lat="43.69466132264156" lon="10.707357657123106"><ele>14.5</ele><time>2026-04-19T08:51:07.999Z</time></trkpt><trkpt lat="43.69472797806508" lon="10.707389624468952"><ele>14.333333333333334</ele><time>2026-04-19T08:51:08.999Z</time></trkpt><trkpt lat="43.69479375948403" lon="10.707393067439577"><ele>14.166666666666668</ele><time>2026-04-19T08:51:09.999Z</time></trkpt><trkpt lat="43.69487229159411" lon="10.707362998845324"><ele>14.0</ele><time>2026-04-19T08:51:10.999Z</time></trkpt><trkpt lat="43.694966367102346" lon="10.70730662548498"><ele>14.0</ele><time>2026-04-19T08:51:11.999Z</time></trkpt><trkpt lat="43.695091586116384" lon="10.707259667118068"><ele>14.0</ele><time>2026-04-19T08:51:12.999Z</time></trkpt><trkpt lat="43.69524741117385" lon="10.707237453136548"><ele>14.0</ele><time>2026-04-19T08:51:13.999Z</time></trkpt><trkpt lat="43.69542401787155" lon="10.707264989149877"><ele>14.0</ele><time>2026-04-19T08:51:14.999Z</time></trkpt><trkpt lat="43.69560519481043" lon="10.707279133350564"><ele>14.0</ele><time>2026-04-19T08:51:15.999Z</time></trkpt><trkpt lat="43.695770946434926" lon="10.7072608249275"><ele>14.0</ele><time>2026-04-19T08:51:16.999Z</time></trkpt><trkpt lat="43.695946116461094" lon="10.707268671626823"><ele>13.666666666666668</ele><time>2026-04-19T08:51:17.999Z</time></trkpt><trkpt lat="43.69611486060947" lon="10.707265833903449"><ele>13.333333333333332</ele><time>2026-04-19T08:51:18.999Z</time></trkpt><trkpt lat="43.69628020506228" lon="10.707294466588412"><ele>13.0</ele><time>2026-04-19T08:51:19.999Z</time></trkpt><trkpt lat="43.69645059154888" lon="10.707344193494626"><ele>13.0</ele><time>2026-04-19T08:51:20.999Z</time></trkpt><trkpt lat="43.696623334477835" lon="10.707421788723911"><ele>13.0</ele><time>2026-04-19T08:51:21.999Z</time></trkpt><trkpt lat="43.69679691546492" lon="10.707497450476824"><ele>13.0</ele><time>2026-04-19T08:51:22.999Z</time></trkpt><trkpt lat="43.69696971043612" lon="10.707599261834671"><ele>12.666666666666666</ele><time>2026-04-19T08:51:23.999Z</time></trkpt><trkpt lat="43.69714605896296" lon="10.707719333297357"><ele>12.333333333333332</ele><time>2026-04-19T08:51:24.999Z</time></trkpt><trkpt lat="43.69732290098357" lon="10.70786699025416"><ele>12.0</ele><time>2026-04-19T08:51:25.999Z</time></trkpt><trkpt lat="43.697502951257505" lon="10.708040560100367"><ele>12.0</ele><time>2026-04-19T08:51:26.999Z</time></trkpt><trkpt lat="43.69767043627817" lon="10.708214134485372"><ele>12.0</ele><time>2026-04-19T08:51:27.999Z</time></trkpt><trkpt lat="43.697834764572086" lon="10.708398876934602"><ele>12.0</ele><time>2026-04-19T08:51:28.999Z</time></trkpt><trkpt lat="43.69802218853639" lon="10.70860693452616"><ele>13.0</ele><time>2026-04-19T08:51:29.999Z</time></trkpt><trkpt lat="43.69823000285385" lon="10.70883622994186"><ele>14.0</ele><time>2026-04-19T08:51:30.999Z</time></trkpt><trkpt lat="43.69844181862621" lon="10.709065725868118"><ele>14.5</ele><time>2026-04-19T08:51:31.999Z</time></trkpt><trkpt lat="43.69863081956317" lon="10.709266215042243"><ele>15.0</ele><time>2026-04-19T08:51:32.999Z</time></trkpt><trkpt lat="43.698814935488954" lon="10.709466724906452"><ele>13.5</ele><time>2026-04-19T08:51:33.999Z</time></trkpt><trkpt lat="43.69900900920755" lon="10.70967790800522"><ele>12.0</ele><time>2026-04-19T08:51:34.999Z</time></trkpt><trkpt lat="43.69918918661086" lon="10.709873730423311"><ele>12.0</ele><time>2026-04-19T08:51:35.999Z</time></trkpt><trkpt lat="43.69934555468726" lon="10.710043156776635"><ele>12.0</ele><time>2026-04-19T08:51:36.999Z</time></trkpt><trkpt lat="43.69948817015825" lon="10.710200303832657"><ele>12.0</ele><time>2026-04-19T08:51:37.999Z</time></trkpt><trkpt lat="43.69962189720396" lon="10.710350612604687"><ele>12.0</ele><time>2026-04-19T08:51:38.999Z</time></trkpt><trkpt lat="43.69975404885126" lon="10.71049352410088"><ele>12.0</ele><time>2026-04-19T08:51:39.999Z</time></trkpt><trkpt lat="43.69986812054824" lon="10.710619329355836"><ele>12.0</ele><time>2026-04-19T08:51:40.999Z</time></trkpt><trkpt lat="43.699982304712066" lon="10.710747017061227"><ele>12.0</ele><time>2026-04-19T08:51:41.999Z</time></trkpt><trkpt lat="43.70008193706814" lon="10.710854895672227"><ele>12.0</ele><time>2026-04-19T08:51:42.999Z</time></trkpt><trkpt lat="43.70017296214557" lon="10.71095369101825"><ele>12.0</ele><time>2026-04-19T08:51:43.999Z</time></trkpt><trkpt lat="43.700256781826276" lon="10.711044837652086"><ele>12.0</ele><time>2026-04-19T08:51:44.999Z</time></trkpt><trkpt lat="43.700332379986456" lon="10.711127742557201"><ele>12.0</ele><time>2026-04-19T08:51:45.999Z</time></trkpt><trkpt lat="43.700397132320994" lon="10.711213641177807"><ele>12.2</ele><time>2026-04-19T08:51:46.999Z</time></trkpt><trkpt lat="43.70045281005309" lon="10.711318417011704"><ele>12.399999999999999</ele><time>2026-04-19T08:51:47.999Z</time></trkpt><trkpt lat="43.70050158570363" lon="10.711437599163629"><ele>12.600000000000001</ele><time>2026-04-19T08:51:48.999Z</time></trkpt><trkpt lat="43.70054739113371" lon="10.711549458154181"><ele>12.8</ele><time>2026-04-19T08:51:49.999Z</time></trkpt><trkpt lat="43.700619939673835" lon="10.71163292101251"><ele>13.0</ele><time>2026-04-19T08:51:50.999Z</time></trkpt><trkpt lat="43.700727130341576" lon="10.711683476668572"><ele>13.0</ele><time>2026-04-19T08:51:51.999Z</time></trkpt><trkpt lat="43.700852894348095" lon="10.711728307455692"><ele>13.0</ele><time>2026-04-19T08:51:52.999Z</time></trkpt><trkpt lat="43.700989643903455" lon="10.711832277055963"><ele>13.0</ele><time>2026-04-19T08:51:53.999Z</time></trkpt><trkpt lat="43.70114038775038" lon="10.711965922864536"><ele>13.333333333333332</ele><time>2026-04-19T08:51:54.999Z</time></trkpt><trkpt lat="43.7012848039617" lon="10.712133304344285"><ele>13.666666666666668</ele><time>2026-04-19T08:51:55.999Z</time></trkpt><trkpt lat="43.701425040345214" lon="10.712302021190265"><ele>14.0</ele><time>2026-04-19T08:51:56.999Z</time></trkpt><trkpt lat="43.70158590051413" lon="10.712470232531146"><ele>14.0</ele><time>2026-04-19T08:51:57.999Z</time></trkpt><trkpt lat="43.70175439996372" lon="10.712655876222728"><ele>14.0</ele><time>2026-04-19T08:51:58.999Z</time></trkpt><trkpt lat="43.70192119963959" lon="10.712829872191055"><ele>14.0</ele><time>2026-04-19T08:51:59.999Z</time></trkpt><trkpt lat="43.70209780063848" lon="10.713016104457605"><ele>13.5</ele><time>2026-04-19T08:52:00.999Z</time></trkpt><trkpt lat="43.70228143550751" lon="10.713221621611739"><ele>13.0</ele><time>2026-04-19T08:52:01.999Z</time></trkpt><trkpt lat="43.70247490741254" lon="10.713432518142753"><ele>13.0</ele><time>2026-04-19T08:52:02.999Z</time></trkpt><trkpt lat="43.70267479651421" lon="10.713644693757605"><ele>13.0</ele><time>2026-04-19T08:52:03.999Z</time></trkpt><trkpt lat="43.70288677163932" lon="10.713872913564483"><ele>12.5</ele><time>2026-04-19T08:52:04.999Z</time></trkpt><trkpt lat="43.70309361287487" lon="10.714096527130103"><ele>12.0</ele><time>2026-04-19T08:52:05.999Z</time></trkpt><trkpt lat="43.7032968836446" lon="10.714317504173591"><ele>12.0</ele><time>2026-04-19T08:52:06.999Z</time></trkpt><trkpt lat="43.70350578331156" lon="10.714543258389583"><ele>12.0</ele><time>2026-04-19T08:52:07.999Z</time></trkpt><trkpt lat="43.70372115446113" lon="10.71477658187945"><ele>12.0</ele><time>2026-04-19T08:52:08.999Z</time></trkpt><trkpt lat="43.70393906175744" lon="10.715013963775066"><ele>12.0</ele><time>2026-04-19T08:52:09.999Z</time></trkpt><trkpt lat="43.704147463810465" lon="10.71523902381058"><ele>12.0</ele><time>2026-04-19T08:52:10.999Z</time></trkpt><trkpt lat="43.704360521849054" lon="10.715467117744332"><ele>12.0</ele><time>2026-04-19T08:52:11.999Z</time></trkpt><trkpt lat="43.70457724778625" lon="10.71570763794849"><ele>12.0</ele><time>2026-04-19T08:52:12.999Z</time></trkpt><trkpt lat="43.704805997304184" lon="10.715950728881962"><ele>12.0</ele><time>2026-04-19T08:52:13.999Z</time></trkpt><trkpt lat="43.705013047661716" lon="10.71618710289318"><ele>12.5</ele><time>2026-04-19T08:52:14.999Z</time></trkpt><trkpt lat="43.705239125154975" lon="10.716418132021984"><ele>13.0</ele><time>2026-04-19T08:52:15.999Z</time></trkpt><trkpt lat="43.70543205592209" lon="10.716624811517114"><ele>13.0</ele><time>2026-04-19T08:52:16.999Z</time></trkpt><trkpt lat="43.705631374367776" lon="10.716842025182475"><ele>13.0</ele><time>2026-04-19T08:52:17.999Z</time></trkpt><trkpt lat="43.70583919507122" lon="10.717061685279168"><ele>13.0</ele><time>2026-04-19T08:52:18.999Z</time></trkpt><trkpt lat="43.706043339700926" lon="10.717277991837891"><ele>13.0</ele><time>2026-04-19T08:52:19.999Z</time></trkpt><trkpt lat="43.70623806395816" lon="10.71748492682659"><ele>13.0</ele><time>2026-04-19T08:52:20.999Z</time></trkpt><trkpt lat="43.70642300439079" lon="10.717685940125259"><ele>13.0</ele><time>2026-04-19T08:52:21.999Z</time></trkpt><trkpt lat="43.70661022141884" lon="10.7178920839736"><ele>13.0</ele><time>2026-04-19T08:52:22.999Z</time></trkpt><trkpt lat="43.706803637652456" lon="10.718103205098604"><ele>13.0</ele><time>2026-04-19T08:52:23.999Z</time></trkpt><trkpt lat="43.70699734906121" lon="10.718314236839335"><ele>13.0</ele><time>2026-04-19T08:52:24.999Z</time></trkpt><trkpt lat="43.707188726095296" lon="10.718521124724795"><ele>13.0</ele><time>2026-04-19T08:52:25.999Z</time></trkpt><trkpt lat="43.70737545991153" lon="10.718720854767284"><ele>13.0</ele><time>2026-04-19T08:52:26.999Z</time></trkpt><trkpt lat="43.70756728098921" lon="10.718928496130705"><ele>13.0</ele><time>2026-04-19T08:52:27.999Z</time></trkpt><trkpt lat="43.70777778468211" lon="10.719141985105697"><ele>13.0</ele><time>2026-04-19T08:52:28.999Z</time></trkpt><trkpt lat="43.707967547344005" lon="10.719358424114354"><ele>13.0</ele><time>2026-04-19T08:52:29.999Z</time></trkpt><trkpt lat="43.70815644394711" lon="10.719560765012638"><ele>13.5</ele><time>2026-04-19T08:52:30.999Z</time></trkpt><trkpt lat="43.708342667813106" lon="10.719761326081374"><ele>14.0</ele><time>2026-04-19T08:52:31.999Z</time></trkpt><trkpt lat="43.70853185890792" lon="10.71996587623586"><ele>14.0</ele><time>2026-04-19T08:52:32.999Z</time></trkpt><trkpt lat="43.70872288198446" lon="10.72016998406363"><ele>14.0</ele><time>2026-04-19T08:52:33.999Z</time></trkpt><trkpt lat="43.70891314178524" lon="10.720375207848614"><ele>13.5</ele><time>2026-04-19T08:52:34.999Z</time></trkpt><trkpt lat="43.709112951334134" lon="10.720589539857302"><ele>13.0</ele><time>2026-04-19T08:52:35.999Z</time></trkpt><trkpt lat="43.70932427947468" lon="10.720809108816434"><ele>12.5</ele><time>2026-04-19T08:52:36.999Z</time></trkpt><trkpt lat="43.70954506361278" lon="10.721039050598984"><ele>12.0</ele><time>2026-04-19T08:52:37.999Z</time></trkpt><trkpt lat="43.70977041128541" lon="10.721273362735142"><ele>11.5</ele><time>2026-04-19T08:52:38.999Z</time></trkpt><trkpt lat="43.709989161278045" lon="10.721499622981636"><ele>11.0</ele><time>2026-04-19T08:52:39.999Z</time></trkpt><trkpt lat="43.710202442106784" lon="10.721730034388974"><ele>11.5</ele><time>2026-04-19T08:52:40.999Z</time></trkpt><trkpt lat="43.710411222306035" lon="10.721972962493533"><ele>12.0</ele><time>2026-04-19T08:52:41.999Z</time></trkpt><trkpt lat="43.710630382762425" lon="10.722218265871694"><ele>12.0</ele><time>2026-04-19T08:52:42.999Z</time></trkpt><trkpt lat="43.71083780298357" lon="10.722457741517085"><ele>12.0</ele><time>2026-04-19T08:52:43.999Z</time></trkpt><trkpt lat="43.71103881444982" lon="10.722687278271648"><ele>12.5</ele><time>2026-04-19T08:52:44.999Z</time></trkpt><trkpt lat="43.711239639236055" lon="10.722907885417417"><ele>13.0</ele><time>2026-04-19T08:52:45.999Z</time></trkpt><trkpt lat="43.71143181134604" lon="10.72311168821277"><ele>13.0</ele><time>2026-04-19T08:52:46.999Z</time></trkpt><trkpt lat="43.71161956455659" lon="10.723312592640108"><ele>13.0</ele><time>2026-04-19T08:52:48Z</time></trkpt><trkpt lat="43.71179638874631" lon="10.723486273644088"><ele>13.0</ele><time>2026-04-19T08:52:49Z</time></trkpt><trkpt lat="43.711978258839316" lon="10.723693423086475"><ele>13.0</ele><time>2026-04-19T08:52:50Z</time></trkpt><trkpt lat="43.712150992106835" lon="10.72388255340743"><ele>13.0</ele><time>2026-04-19T08:52:51Z</time></trkpt><trkpt lat="43.71232219171169" lon="10.724063050472209"><ele>13.0</ele><time>2026-04-19T08:52:52Z</time></trkpt><trkpt lat="43.71248929043731" lon="10.724226330577782"><ele>13.0</ele><time>2026-04-19T08:52:53Z</time></trkpt><trkpt lat="43.71263816022055" lon="10.724405524519577"><ele>13.0</ele><time>2026-04-19T08:52:54Z</time></trkpt><trkpt lat="43.71279285347577" lon="10.72457651385266"><ele>13.0</ele><time>2026-04-19T08:52:55Z</time></trkpt><trkpt lat="43.71294446616723" lon="10.724741558979087"><ele>13.0</ele><time>2026-04-19T08:52:56Z</time></trkpt><trkpt lat="43.713088826682224" lon="10.724900831889533"><ele>13.0</ele><time>2026-04-19T08:52:57Z</time></trkpt><trkpt lat="43.7132583864311" lon="10.72507452674408"><ele>13.0</ele><time>2026-04-19T08:52:58Z</time></trkpt><trkpt lat="43.71341289367493" lon="10.725236315000895"><ele>13.0</ele><time>2026-04-19T08:52:59Z</time></trkpt><trkpt lat="43.71355573289425" lon="10.725395584259262"><ele>12.333333333333332</ele><time>2026-04-19T08:53:00Z</time></trkpt><trkpt lat="43.713689017066294" lon="10.725549833262123"><ele>11.666666666666666</ele><time>2026-04-19T08:53:01Z</time></trkpt><trkpt lat="43.71382076045592" lon="10.725701278389531"><ele>11.0</ele><time>2026-04-19T08:53:02Z</time></trkpt><trkpt lat="43.713954576736725" lon="10.725865621198595"><ele>11.0</ele><time>2026-04-19T08:53:03Z</time></trkpt><trkpt lat="43.714093492431104" lon="10.72604509910267"><ele>11.0</ele><time>2026-04-19T08:53:04Z</time></trkpt><trkpt lat="43.71423179183432" lon="10.726234130980592"><ele>11.0</ele><time>2026-04-19T08:53:05Z</time></trkpt><trkpt lat="43.71436712622168" lon="10.726436547256043"><ele>11.0</ele><time>2026-04-19T08:53:06Z</time></trkpt><trkpt lat="43.714502899457045" lon="10.726651987938874"><ele>11.0</ele><time>2026-04-19T08:53:07Z</time></trkpt><trkpt lat="43.714635921226744" lon="10.726872202302586"><ele>11.0</ele><time>2026-04-19T08:53:08Z</time></trkpt><trkpt lat="43.714758065035255" lon="10.727084356378125"><ele>11.333333333333332</ele><time>2026-04-19T08:53:09Z</time></trkpt><trkpt lat="43.71487325519626" lon="10.727293953367818"><ele>11.666666666666666</ele><time>2026-04-19T08:53:10Z</time></trkpt><trkpt lat="43.71498331687666" lon="10.727511435066404"><ele>12.0</ele><time>2026-04-19T08:53:11Z</time></trkpt><trkpt lat="43.715093815103984" lon="10.727737273030248"><ele>12.0</ele><time>2026-04-19T08:53:12Z</time></trkpt><trkpt lat="43.71520106966809" lon="10.727974685061348"><ele>12.0</ele><time>2026-04-19T08:53:13Z</time></trkpt><trkpt lat="43.71530902255148" lon="10.728221128470512"><ele>12.0</ele><time>2026-04-19T08:53:14Z</time></trkpt><trkpt lat="43.715408481689224" lon="10.728459824432456"><ele>12.333333333333332</ele><time>2026-04-19T08:53:15Z</time></trkpt><trkpt lat="43.715502882081296" lon="10.728691258906764"><ele>12.666666666666666</ele><time>2026-04-19T08:53:16Z</time></trkpt><trkpt lat="43.71559364889903" lon="10.728913507561016"><ele>13.0</ele><time>2026-04-19T08:53:17Z</time></trkpt><trkpt lat="43.715687565771375" lon="10.729136479059328"><ele>13.0</ele><time>2026-04-19T08:53:18Z</time></trkpt><trkpt lat="43.715779074602374" lon="10.729358662390085"><ele>13.0</ele><time>2026-04-19T08:53:19Z</time></trkpt><trkpt lat="43.71587111545856" lon="10.729586910863617"><ele>13.0</ele><time>2026-04-19T08:53:20Z</time></trkpt><trkpt lat="43.71596699233542" lon="10.729813996368037"><ele>13.0</ele><time>2026-04-19T08:53:21Z</time></trkpt><trkpt lat="43.71606566888246" lon="10.730044049056984"><ele>13.0</ele><time>2026-04-19T08:53:22Z</time></trkpt><trkpt lat="43.71616497116708" lon="10.730268615188342"><ele>13.0</ele><time>2026-04-19T08:53:23Z</time></trkpt><trkpt lat="43.716281560358794" lon="10.730513453186205"><ele>13.0</ele><time>2026-04-19T08:53:24Z</time></trkpt><trkpt lat="43.71640741288619" lon="10.730800556445981"><ele>13.0</ele><time>2026-04-19T08:53:25Z</time></trkpt><trkpt lat="43.716540151118316" lon="10.73109832548342"><ele>13.0</ele><time>2026-04-19T08:53:26Z</time></trkpt><trkpt lat="43.71666484559145" lon="10.731409152413331"><ele>13.0</ele><time>2026-04-19T08:53:27Z</time></trkpt><trkpt lat="43.71679211221846" lon="10.731737505331965"><ele>13.5</ele><time>2026-04-19T08:53:28Z</time></trkpt><trkpt lat="43.71691485752489" lon="10.73204339107757"><ele>14.0</ele><time>2026-04-19T08:53:29Z</time></trkpt><trkpt lat="43.717027355673665" lon="10.732331425001737"><ele>14.0</ele><time>2026-04-19T08:53:30Z</time></trkpt><trkpt lat="43.71713965145146" lon="10.732601934613923"><ele>14.0</ele><time>2026-04-19T08:53:31Z</time></trkpt><trkpt lat="43.71725026750667" lon="10.732860064834492"><ele>14.0</ele><time>2026-04-19T08:53:32Z</time></trkpt><trkpt lat="43.71736484501024" lon="10.733098990489449"><ele>13.666666666666668</ele><time>2026-04-19T08:53:33Z</time></trkpt><trkpt lat="43.71745053965904" lon="10.733350539605777"><ele>13.333333333333332</ele><time>2026-04-19T08:53:34Z</time></trkpt><trkpt lat="43.71756051246187" lon="10.733594462859816"><ele>13.0</ele><time>2026-04-19T08:53:35Z</time></trkpt><trkpt lat="43.71765840286206" lon="10.733819940705153"><ele>13.333333333333332</ele><time>2026-04-19T08:53:36Z</time></trkpt><trkpt lat="43.717746466047515" lon="10.73403300498542"><ele>13.666666666666668</ele><time>2026-04-19T08:53:37Z</time></trkpt><trkpt lat="43.71783052115412" lon="10.734237818235222"><ele>14.0</ele><time>2026-04-19T08:53:38Z</time></trkpt><trkpt lat="43.71790752845165" lon="10.734421751458585"><ele>14.0</ele><time>2026-04-19T08:53:39Z</time></trkpt><trkpt lat="43.71797832115237" lon="10.734592454081701"><ele>14.0</ele><time>2026-04-19T08:53:40Z</time></trkpt><trkpt lat="43.718049846137916" lon="10.734762073120601"><ele>14.0</ele><time>2026-04-19T08:53:41Z</time></trkpt><trkpt lat="43.71811058563549" lon="10.734911777130256"><ele>14.0</ele><time>2026-04-19T08:53:42Z</time></trkpt><trkpt lat="43.71815907548817" lon="10.735052918720966"><ele>14.0</ele><time>2026-04-19T08:53:43Z</time></trkpt><trkpt lat="43.71819604784453" lon="10.735184492245368"><ele>13.999999999999998</ele><time>2026-04-19T08:53:44Z</time></trkpt><trkpt lat="43.7182751843444" lon="10.73527949746772"><ele>13.999999999999998</ele><time>2026-04-19T08:53:45Z</time></trkpt><trkpt lat="43.71830274376922" lon="10.735411983527683"><ele>14.0</ele><time>2026-04-19T08:53:46Z</time></trkpt><trkpt lat="43.71832731069538" lon="10.735544745635316"><ele>14.0</ele><time>2026-04-19T08:53:47Z</time></trkpt><trkpt lat="43.71833094644816" lon="10.73566461750927"><ele>13.833333333333334</ele><time>2026-04-19T08:53:48Z</time></trkpt><trkpt lat="43.7183178225263" lon="10.735774891334382"><ele>13.666666666666668</ele><time>2026-04-19T08:53:49Z</time></trkpt><trkpt lat="43.71832342236464" lon="10.735882707288154"><ele>13.5</ele><time>2026-04-19T08:53:50Z</time></trkpt><trkpt lat="43.718357517640364" lon="10.735981322859516"><ele>13.333333333333332</ele><time>2026-04-19T08:53:51Z</time></trkpt><trkpt lat="43.71842313539416" lon="10.73606693894818"><ele>13.166666666666666</ele><time>2026-04-19T08:53:52Z</time></trkpt><trkpt lat="43.71851157318346" lon="10.736136500661308"><ele>13.0</ele><time>2026-04-19T08:53:53Z</time></trkpt><trkpt lat="43.71860403113769" lon="10.73622771031781"><ele>13.0</ele><time>2026-04-19T08:53:54Z</time></trkpt><trkpt lat="43.71869449592522" lon="10.736353331886638"><ele>13.0</ele><time>2026-04-19T08:53:55Z</time></trkpt><trkpt lat="43.7187825196202" lon="10.736528867357178"><ele>13.0</ele><time>2026-04-19T08:53:56Z</time></trkpt><trkpt lat="43.71887132560344" lon="10.736740844829463"><ele>13.333333333333332</ele><time>2026-04-19T08:53:57Z</time></trkpt><trkpt lat="43.71896990242687" lon="10.736970491861829"><ele>13.666666666666668</ele><time>2026-04-19T08:53:58Z</time></trkpt><trkpt lat="43.71907758492422" lon="10.737214820441062"><ele>14.0</ele><time>2026-04-19T08:53:59Z</time></trkpt><trkpt lat="43.719179378968455" lon="10.73745396427582"><ele>14.0</ele><time>2026-04-19T08:54:00Z</time></trkpt><trkpt lat="43.719280405027156" lon="10.73769598220917"><ele>14.0</ele><time>2026-04-19T08:54:01Z</time></trkpt><trkpt lat="43.71938640555547" lon="10.737956972646847"><ele>14.0</ele><time>2026-04-19T08:54:02Z</time></trkpt><trkpt lat="43.71948220650439" lon="10.738238337050491"><ele>14.0</ele><time>2026-04-19T08:54:03Z</time></trkpt><trkpt lat="43.7195748683361" lon="10.73852745196856"><ele>14.0</ele><time>2026-04-19T08:54:04Z</time></trkpt><trkpt lat="43.71971774045837" lon="10.738813807506725"><ele>13.5</ele><time>2026-04-19T08:54:05Z</time></trkpt><trkpt lat="43.71982525875661" lon="10.739121503932179"><ele>13.0</ele><time>2026-04-19T08:54:06Z</time></trkpt><trkpt lat="43.71991687852211" lon="10.739419497882917"><ele>12.5</ele><time>2026-04-19T08:54:07Z</time></trkpt><trkpt lat="43.720003111870206" lon="10.739719978870975"><ele>12.0</ele><time>2026-04-19T08:54:08Z</time></trkpt><trkpt lat="43.720089697270765" lon="10.740036691613902"><ele>12.5</ele><time>2026-04-19T08:54:09Z</time></trkpt><trkpt lat="43.72017804451737" lon="10.740369021276939"><ele>13.0</ele><time>2026-04-19T08:54:10Z</time></trkpt><trkpt lat="43.72026277921421" lon="10.740701574584357"><ele>13.0</ele><time>2026-04-19T08:54:11Z</time></trkpt><trkpt lat="43.72035380005261" lon="10.741045229461603"><ele>13.0</ele><time>2026-04-19T08:54:12Z</time></trkpt><trkpt lat="43.72044576348868" lon="10.741393982865672"><ele>13.0</ele><time>2026-04-19T08:54:13Z</time></trkpt><trkpt lat="43.72053649603279" lon="10.741740285576414"><ele>13.0</ele><time>2026-04-19T08:54:14Z</time></trkpt><trkpt lat="43.720611606606994" lon="10.741991050952633"><ele>13.0</ele><time>2026-04-19T08:54:15Z</time></trkpt><trkpt lat="43.720725857128265" lon="10.742371683606091"><ele>13.0</ele><time>2026-04-19T08:54:16Z</time></trkpt><trkpt lat="43.720807251510564" lon="10.742711008274927"><ele>13.5</ele><time>2026-04-19T08:54:17Z</time></trkpt><trkpt lat="43.72088684100049" lon="10.743036788055905"><ele>14.0</ele><time>2026-04-19T08:54:18Z</time></trkpt><trkpt lat="43.72097016957472" lon="10.743357562770582"><ele>14.0</ele><time>2026-04-19T08:54:19Z</time></trkpt><trkpt lat="43.72105165337581" lon="10.743673699378968"><ele>14.0</ele><time>2026-04-19T08:54:20Z</time></trkpt><trkpt lat="43.72113411794334" lon="10.743989706607039"><ele>14.0</ele><time>2026-04-19T08:54:21Z</time></trkpt><trkpt lat="43.721220836399645" lon="10.744323089312411"><ele>14.0</ele><time>2026-04-19T08:54:22Z</time></trkpt><trkpt lat="43.721315350317575" lon="10.744668799517271"><ele>13.5</ele><time>2026-04-19T08:54:23Z</time></trkpt><trkpt lat="43.72140915482688" lon="10.745016713373918"><ele>13.0</ele><time>2026-04-19T08:54:24Z</time></trkpt><trkpt lat="43.72149845879424" lon="10.745361125093085"><ele>13.0</ele><time>2026-04-19T08:54:25Z</time></trkpt><trkpt lat="43.721586794112675" lon="10.745684538726238"><ele>13.0</ele><time>2026-04-19T08:54:26Z</time></trkpt><trkpt lat="43.721669827194596" lon="10.745984691990264"><ele>13.0</ele><time>2026-04-19T08:54:27Z</time></trkpt><trkpt lat="43.72174502296978" lon="10.746280037948074"><ele>13.0</ele><time>2026-04-19T08:54:28Z</time></trkpt><trkpt lat="43.72182720433704" lon="10.74658309706308"><ele>13.333333333333332</ele><time>2026-04-19T08:54:29Z</time></trkpt><trkpt lat="43.721903621805716" lon="10.746870909363002"><ele>13.666666666666668</ele><time>2026-04-19T08:54:30Z</time></trkpt><trkpt lat="43.72197840915675" lon="10.747151135230043"><ele>14.0</ele><time>2026-04-19T08:54:31Z</time></trkpt><trkpt lat="43.72205847687013" lon="10.747443913683787"><ele>13.5</ele><time>2026-04-19T08:54:32Z</time></trkpt><trkpt lat="43.72214243634003" lon="10.747756209568912"><ele>13.0</ele><time>2026-04-19T08:54:33Z</time></trkpt><trkpt lat="43.72222236448596" lon="10.74805816082892"><ele>13.0</ele><time>2026-04-19T08:54:34Z</time></trkpt><trkpt lat="43.72229654372713" lon="10.748335072314038"><ele>13.0</ele><time>2026-04-19T08:54:35Z</time></trkpt><trkpt lat="43.72236380498477" lon="10.748588271033894"><ele>13.0</ele><time>2026-04-19T08:54:36Z</time></trkpt><trkpt lat="43.72242691612465" lon="10.748825072585621"><ele>13.333333333333332</ele><time>2026-04-19T08:54:37Z</time></trkpt><trkpt lat="43.7224815635596" lon="10.749041229914827"><ele>13.666666666666668</ele><time>2026-04-19T08:54:38Z</time></trkpt><trkpt lat="43.72253205540788" lon="10.749246496880932"><ele>14.0</ele><time>2026-04-19T08:54:39Z</time></trkpt><trkpt lat="43.72258126417649" lon="10.749441499070791"><ele>13.5</ele><time>2026-04-19T08:54:40Z</time></trkpt><trkpt lat="43.72262803970772" lon="10.749634266522909"><ele>13.0</ele><time>2026-04-19T08:54:41Z</time></trkpt><trkpt lat="43.7226709504754" lon="10.749818754866004"><ele>12.5</ele><time>2026-04-19T08:54:42Z</time></trkpt><trkpt lat="43.72270515740924" lon="10.7499823963592"><ele>12.0</ele><time>2026-04-19T08:54:43Z</time></trkpt><trkpt lat="43.72272945988829" lon="10.75012102732104"><ele>12.0</ele><time>2026-04-19T08:54:44Z</time></trkpt><trkpt lat="43.722751226791175" lon="10.750253592208924"><ele>12.0</ele><time>2026-04-19T08:54:45Z</time></trkpt><trkpt lat="43.72276604615262" lon="10.750381001767924"><ele>12.0</ele><time>2026-04-19T08:54:46Z</time></trkpt><trkpt lat="43.7227720123894" lon="10.750499932589475"><ele>12.0</ele><time>2026-04-19T08:54:47Z</time></trkpt><trkpt lat="43.72276732981478" lon="10.75061110198877"><ele>12.0</ele><time>2026-04-19T08:54:48Z</time></trkpt><trkpt lat="43.722744768246024" lon="10.750726143411795"><ele>12.0</ele><time>2026-04-19T08:54:49Z</time></trkpt><trkpt lat="43.72269822162735" lon="10.750850011659193"><ele>12.0</ele><time>2026-04-19T08:54:50Z</time></trkpt><trkpt lat="43.722645698282506" lon="10.7509612621169"><ele>12.0</ele><time>2026-04-19T08:54:51Z</time></trkpt><trkpt lat="43.72262686147675" lon="10.751079949069858"><ele>12.0</ele><time>2026-04-19T08:54:52Z</time></trkpt><trkpt lat="43.72263886883881" lon="10.751202113374314"><ele>12.0</ele><time>2026-04-19T08:54:53Z</time></trkpt><trkpt lat="43.722679500208706" lon="10.751322897657792"><ele>12.0</ele><time>2026-04-19T08:54:54Z</time></trkpt><trkpt lat="43.72275053863493" lon="10.751430134026068"><ele>12.25</ele><time>2026-04-19T08:54:55Z</time></trkpt><trkpt lat="43.72285069883034" lon="10.751518426754718"><ele>12.5</ele><time>2026-04-19T08:54:56Z</time></trkpt><trkpt lat="43.72296995960871" lon="10.751584410114676"><ele>12.75</ele><time>2026-04-19T08:54:57Z</time></trkpt><trkpt lat="43.723085132461044" lon="10.751653465256535"><ele>13.0</ele><time>2026-04-19T08:54:58Z</time></trkpt><trkpt lat="43.72319611116871" lon="10.751770220220282"><ele>13.666666666666666</ele><time>2026-04-19T08:54:59Z</time></trkpt><trkpt lat="43.72330400621003" lon="10.751955119118284"><ele>14.333333333333332</ele><time>2026-04-19T08:55:00Z</time></trkpt><trkpt lat="43.723400317740136" lon="10.75214582293223"><ele>15.0</ele><time>2026-04-19T08:55:01Z</time></trkpt><trkpt lat="43.72349582027048" lon="10.752331610775316"><ele>15.333333333333332</ele><time>2026-04-19T08:55:02Z</time></trkpt><trkpt lat="43.72360551792119" lon="10.752520914176902"><ele>15.666666666666666</ele><time>2026-04-19T08:55:03Z</time></trkpt><trkpt lat="43.723709081482895" lon="10.752687802614465"><ele>16.0</ele><time>2026-04-19T08:55:04Z</time></trkpt><trkpt lat="43.723813430927336" lon="10.752848888363408"><ele>16.25</ele><time>2026-04-19T08:55:05Z</time></trkpt><trkpt lat="43.72391199557918" lon="10.75300574971339"><ele>16.5</ele><time>2026-04-19T08:55:06Z</time></trkpt><trkpt lat="43.724005024407006" lon="10.753165765834568"><ele>16.75</ele><time>2026-04-19T08:55:07Z</time></trkpt><trkpt lat="43.72410053490321" lon="10.75331685567571"><ele>17.0</ele><time>2026-04-19T08:55:08Z</time></trkpt><trkpt lat="43.7241847801913" lon="10.753452363525442"><ele>16.6</ele><time>2026-04-19T08:55:09Z</time></trkpt><trkpt lat="43.72426313738894" lon="10.753571690295097"><ele>16.2</ele><time>2026-04-19T08:55:10Z</time></trkpt><trkpt lat="43.72432953301334" lon="10.75368966399175"><ele>15.8</ele><time>2026-04-19T08:55:11Z</time></trkpt><trkpt lat="43.72437920984266" lon="10.753812601234626"><ele>15.4</ele><time>2026-04-19T08:55:12Z</time></trkpt><trkpt lat="43.7244184564847" lon="10.753943440737645"><ele>15.0</ele><time>2026-04-19T08:55:13Z</time></trkpt><trkpt lat="43.7244689390615" lon="10.754051283553073"><ele>15.0</ele><time>2026-04-19T08:55:14Z</time></trkpt><trkpt lat="43.72447357928107" lon="10.75418571798478"><ele>15.0</ele><time>2026-04-19T08:55:15Z</time></trkpt><trkpt lat="43.7245206914451" lon="10.754281440418525"><ele>15.0</ele><time>2026-04-19T08:55:16Z</time></trkpt><trkpt lat="43.7245932958894" lon="10.754352734269249"><ele>15.0</ele><time>2026-04-19T08:55:17Z</time></trkpt><trkpt lat="43.72468634007332" lon="10.754415463921585"><ele>15.0</ele><time>2026-04-19T08:55:18Z</time></trkpt><trkpt lat="43.724796267842834" lon="10.754484894956095"><ele>15.5</ele><time>2026-04-19T08:55:19Z</time></trkpt><trkpt lat="43.72490524940661" lon="10.754578166548361"><ele>16.0</ele><time>2026-04-19T08:55:20Z</time></trkpt><trkpt lat="43.72500787936312" lon="10.754692652673738"><ele>16.5</ele><time>2026-04-19T08:55:21Z</time></trkpt><trkpt lat="43.72508532369041" lon="10.754834823409798"><ele>17.0</ele><time>2026-04-19T08:55:22Z</time></trkpt><trkpt lat="43.72517467846241" lon="10.754966809472029"><ele>17.0</ele><time>2026-04-19T08:55:23Z</time></trkpt><trkpt lat="43.72527916090454" lon="10.755117305215952"><ele>17.0</ele><time>2026-04-19T08:55:24Z</time></trkpt><trkpt lat="43.72538830606001" lon="10.755284146591974"><ele>17.0</ele><time>2026-04-19T08:55:25Z</time></trkpt><trkpt lat="43.72550181942202" lon="10.755456683056517"><ele>17.0</ele><time>2026-04-19T08:55:26Z</time></trkpt><trkpt lat="43.72563675197344" lon="10.755631735064908"><ele>17.0</ele><time>2026-04-19T08:55:27Z</time></trkpt><trkpt lat="43.72575334578359" lon="10.755841546252546"><ele>17.0</ele><time>2026-04-19T08:55:28Z</time></trkpt><trkpt lat="43.725877077700375" lon="10.756040331543653"><ele>16.333333333333336</ele><time>2026-04-19T08:55:29Z</time></trkpt><trkpt lat="43.726000742479975" lon="10.756227014983141"><ele>15.666666666666668</ele><time>2026-04-19T08:55:30Z</time></trkpt><trkpt lat="43.726121441912355" lon="10.756410485978295"><ele>15.0</ele><time>2026-04-19T08:55:31Z</time></trkpt><trkpt lat="43.72623484369576" lon="10.756580853210515"><ele>14.333333333333332</ele><time>2026-04-19T08:55:32Z</time></trkpt><trkpt lat="43.72634641078153" lon="10.75675247820415"><ele>13.666666666666666</ele><time>2026-04-19T08:55:33Z</time></trkpt><trkpt lat="43.726458502361005" lon="10.75692085814925"><ele>13.0</ele><time>2026-04-19T08:55:34Z</time></trkpt><trkpt lat="43.726571968982256" lon="10.757090136779002"><ele>13.0</ele><time>2026-04-19T08:55:35Z</time></trkpt><trkpt lat="43.72668817063711" lon="10.757262562247199"><ele>13.0</ele><time>2026-04-19T08:55:36Z</time></trkpt><trkpt lat="43.72681128982913" lon="10.757448893674411"><ele>13.0</ele><time>2026-04-19T08:55:37Z</time></trkpt><trkpt lat="43.7269361311617" lon="10.757641829395503"><ele>13.333333333333332</ele><time>2026-04-19T08:55:38Z</time></trkpt><trkpt lat="43.72706581980006" lon="10.757835156337602"><ele>13.666666666666668</ele><time>2026-04-19T08:55:39Z</time></trkpt><trkpt lat="43.727189064968265" lon="10.75801222752768"><ele>14.0</ele><time>2026-04-19T08:55:40Z</time></trkpt><trkpt lat="43.72730917504231" lon="10.758186285944507"><ele>14.0</ele><time>2026-04-19T08:55:41Z</time></trkpt><trkpt lat="43.72743307506227" lon="10.758359449671088"><ele>14.0</ele><time>2026-04-19T08:55:42Z</time></trkpt><trkpt lat="43.72756981642528" lon="10.758535413771698"><ele>14.0</ele><time>2026-04-19T08:55:43Z</time></trkpt><trkpt lat="43.72770788628588" lon="10.758713790305704"><ele>14.0</ele><time>2026-04-19T08:55:44Z</time></trkpt><trkpt lat="43.72783690783304" lon="10.758890191534059"><ele>14.0</ele><time>2026-04-19T08:55:45Z</time></trkpt><trkpt lat="43.72796242993603" lon="10.759068809933709"><ele>14.0</ele><time>2026-04-19T08:55:46Z</time></trkpt><trkpt lat="43.72808638770132" lon="10.759234068950835"><ele>13.333333333333334</ele><time>2026-04-19T08:55:47Z</time></trkpt><trkpt lat="43.72820829971274" lon="10.75939170266041"><ele>12.666666666666668</ele><time>2026-04-19T08:55:48Z</time></trkpt><trkpt lat="43.72832920423721" lon="10.759544590914182"><ele>12.0</ele><time>2026-04-19T08:55:49Z</time></trkpt><trkpt lat="43.72845530077992" lon="10.759712912135448"><ele>13.0</ele><time>2026-04-19T08:55:50Z</time></trkpt><trkpt lat="43.72858123774232" lon="10.759879922802034"><ele>14.0</ele><time>2026-04-19T08:55:51Z</time></trkpt><trkpt lat="43.72871677051159" lon="10.760056992570718"><ele>15.0</ele><time>2026-04-19T08:55:52Z</time></trkpt><trkpt lat="43.728850139845996" lon="10.760229359728708"><ele>15.0</ele><time>2026-04-19T08:55:53Z</time></trkpt><trkpt lat="43.72897370724911" lon="10.760390261528231"><ele>15.0</ele><time>2026-04-19T08:55:54Z</time></trkpt><trkpt lat="43.72908993840881" lon="10.760548057682529"><ele>15.0</ele><time>2026-04-19T08:55:55Z</time></trkpt><trkpt lat="43.72920348483011" lon="10.760702040894147"><ele>15.0</ele><time>2026-04-19T08:55:56Z</time></trkpt><trkpt lat="43.72933495415535" lon="10.76087278266376"><ele>15.0</ele><time>2026-04-19T08:55:57Z</time></trkpt><trkpt lat="43.72945696766051" lon="10.761050089173715"><ele>15.0</ele><time>2026-04-19T08:55:58Z</time></trkpt><trkpt lat="43.729571016737786" lon="10.76120002845962"><ele>15.25</ele><time>2026-04-19T08:55:59Z</time></trkpt><trkpt lat="43.729673705978264" lon="10.761334368178034"><ele>15.5</ele><time>2026-04-19T08:56:00Z</time></trkpt><trkpt lat="43.72976865526075" lon="10.761460731663146"><ele>15.75</ele><time>2026-04-19T08:56:01Z</time></trkpt><trkpt lat="43.72985612309232" lon="10.761582327051782"><ele>16.0</ele><time>2026-04-19T08:56:02Z</time></trkpt><trkpt lat="43.7299407341333" lon="10.761704353640315"><ele>16.0</ele><time>2026-04-19T08:56:03Z</time></trkpt><trkpt lat="43.730027041996145" lon="10.761828236172741"><ele>16.0</ele><time>2026-04-19T08:56:04Z</time></trkpt><trkpt lat="43.730111926958905" lon="10.761945295464947"><ele>16.0</ele><time>2026-04-19T08:56:05Z</time></trkpt><trkpt lat="43.73019030155512" lon="10.762051867077078"><ele>16.0</ele><time>2026-04-19T08:56:06Z</time></trkpt><trkpt lat="43.730264383159195" lon="10.762150444770908"><ele>15.600000000000001</ele><time>2026-04-19T08:56:07Z</time></trkpt><trkpt lat="43.730334115206176" lon="10.762239985622998"><ele>15.200000000000001</ele><time>2026-04-19T08:56:08Z</time></trkpt><trkpt lat="43.73040836001786" lon="10.762318954050931"><ele>14.799999999999999</ele><time>2026-04-19T08:56:09Z</time></trkpt><trkpt lat="43.730471606677185" lon="10.762381495516632"><ele>14.399999999999999</ele><time>2026-04-19T08:56:10Z</time></trkpt><trkpt lat="43.730548724309564" lon="10.762482360825652"><ele>14.0</ele><time>2026-04-19T08:56:12Z</time></trkpt><trkpt lat="43.730620218392566" lon="10.762575011461823"><ele>14.0</ele><time>2026-04-19T08:56:15Z</time></trkpt><trkpt lat="43.730678533594244" lon="10.76266206073947"><ele>13.999999999999998</ele><time>2026-04-19T08:56:17Z</time></trkpt><trkpt lat="43.73077094895622" lon="10.762789774088754"><ele>13.999999999999998</ele><time>2026-04-19T08:56:19Z</time></trkpt><trkpt lat="43.730828080554744" lon="10.762870504418991"><ele>14.0</ele><time>2026-04-19T08:56:20Z</time></trkpt><trkpt lat="43.730893647618196" lon="10.7629630627715"><ele>14.0</ele><time>2026-04-19T08:56:21Z</time></trkpt><trkpt lat="43.73096130936808" lon="10.763053666515257"><ele>14.2</ele><time>2026-04-19T08:56:22Z</time></trkpt><trkpt lat="43.7310190489136" lon="10.763132613510855"><ele>14.399999999999999</ele><time>2026-04-19T08:56:23Z</time></trkpt><trkpt lat="43.731077510882216" lon="10.763207603212056"><ele>14.6</ele><time>2026-04-19T08:56:24Z</time></trkpt><trkpt lat="43.731142729943855" lon="10.763303651365426"><ele>14.8</ele><time>2026-04-19T08:56:25Z</time></trkpt><trkpt lat="43.73121584107281" lon="10.763412436470427"><ele>15.0</ele><time>2026-04-19T08:56:26Z</time></trkpt><trkpt lat="43.73129290388554" lon="10.763524954053455"><ele>15.0</ele><time>2026-04-19T08:56:27Z</time></trkpt><trkpt lat="43.73138528022708" lon="10.763662416972863"><ele>15.0</ele><time>2026-04-19T08:56:28Z</time></trkpt><trkpt lat="43.73147079980579" lon="10.763798496517936"><ele>15.0</ele><time>2026-04-19T08:56:29Z</time></trkpt><trkpt lat="43.731544111286404" lon="10.763921102569856"><ele>15.0</ele><time>2026-04-19T08:56:30Z</time></trkpt><trkpt lat="43.731607937514326" lon="10.764021151570853"><ele>15.0</ele><time>2026-04-19T08:56:31Z</time></trkpt><trkpt lat="43.73166671141207" lon="10.764127189632537"><ele>15.0</ele><time>2026-04-19T08:56:32Z</time></trkpt><trkpt lat="43.73173368768174" lon="10.764251961764131"><ele>15.0</ele><time>2026-04-19T08:56:33Z</time></trkpt><trkpt lat="43.73180706770376" lon="10.764395095136521"><ele>15.0</ele><time>2026-04-19T08:56:34Z</time></trkpt><trkpt lat="43.731887000520146" lon="10.764547364545495"><ele>15.25</ele><time>2026-04-19T08:56:35Z</time></trkpt><trkpt lat="43.73196773527044" lon="10.764699696699292"><ele>15.5</ele><time>2026-04-19T08:56:36Z</time></trkpt><trkpt lat="43.732044630321916" lon="10.764836743156255"><ele>15.75</ele><time>2026-04-19T08:56:37Z</time></trkpt><trkpt lat="43.73212079477655" lon="10.76498238634812"><ele>16.0</ele><time>2026-04-19T08:56:38Z</time></trkpt><trkpt lat="43.73219270584387" lon="10.765133424286917"><ele>15.75</ele><time>2026-04-19T08:56:39Z</time></trkpt><trkpt lat="43.73226763916776" lon="10.765294986163548"><ele>15.5</ele><time>2026-04-19T08:56:40Z</time></trkpt><trkpt lat="43.732340101954506" lon="10.765468714452043"><ele>15.25</ele><time>2026-04-19T08:56:41Z</time></trkpt><trkpt lat="43.732416939566704" lon="10.765647985789336"><ele>15.0</ele><time>2026-04-19T08:56:42Z</time></trkpt><trkpt lat="43.73249767173176" lon="10.765840275958974"><ele>14.666666666666668</ele><time>2026-04-19T08:56:43Z</time></trkpt><trkpt lat="43.732579727054365" lon="10.766049858697718"><ele>14.333333333333334</ele><time>2026-04-19T08:56:44Z</time></trkpt><trkpt lat="43.73266639530185" lon="10.766272305658948"><ele>14.0</ele><time>2026-04-19T08:56:45Z</time></trkpt><trkpt lat="43.73275287075021" lon="10.7665028108299"><ele>14.0</ele><time>2026-04-19T08:56:46Z</time></trkpt><trkpt lat="43.73282696205521" lon="10.766715233927323"><ele>14.0</ele><time>2026-04-19T08:56:47Z</time></trkpt><trkpt lat="43.73290451772492" lon="10.766931035853085"><ele>14.0</ele><time>2026-04-19T08:56:48Z</time></trkpt><trkpt lat="43.732990803910546" lon="10.767159836385666"><ele>14.333333333333334</ele><time>2026-04-19T08:56:49Z</time></trkpt><trkpt lat="43.733080049198016" lon="10.767391809967863"><ele>14.666666666666668</ele><time>2026-04-19T08:56:50Z</time></trkpt><trkpt lat="43.733161737258726" lon="10.76761552135965"><ele>15.0</ele><time>2026-04-19T08:56:51Z</time></trkpt><trkpt lat="43.7332401811525" lon="10.767821138742205"><ele>15.0</ele><time>2026-04-19T08:56:52Z</time></trkpt><trkpt lat="43.733315964792425" lon="10.768035425087126"><ele>15.0</ele><time>2026-04-19T08:56:53Z</time></trkpt><trkpt lat="43.73340303162566" lon="10.768277293823918"><ele>15.0</ele><time>2026-04-19T08:56:54Z</time></trkpt><trkpt lat="43.733507908192095" lon="10.768530078360147"><ele>14.666666666666668</ele><time>2026-04-19T08:56:55Z</time></trkpt><trkpt lat="43.73358541127306" lon="10.768753036870622"><ele>14.333333333333334</ele><time>2026-04-19T08:56:56Z</time></trkpt><trkpt lat="43.7336724450488" lon="10.768981701420982"><ele>14.0</ele><time>2026-04-19T08:56:57Z</time></trkpt><trkpt lat="43.73375589839095" lon="10.76920420948061"><ele>14.333333333333334</ele><time>2026-04-19T08:56:58Z</time></trkpt><trkpt lat="43.73383422380516" lon="10.769427112528243"><ele>14.666666666666668</ele><time>2026-04-19T08:56:59Z</time></trkpt><trkpt lat="43.7339263426011" lon="10.769661408345794"><ele>15.0</ele><time>2026-04-19T08:57:00Z</time></trkpt><trkpt lat="43.73401248392734" lon="10.769900143925952"><ele>15.0</ele><time>2026-04-19T08:57:01Z</time></trkpt><trkpt lat="43.734096280128455" lon="10.770130965717106"><ele>15.0</ele><time>2026-04-19T08:57:02Z</time></trkpt><trkpt lat="43.73418612963798" lon="10.770364987929053"><ele>15.0</ele><time>2026-04-19T08:57:03Z</time></trkpt><trkpt lat="43.73427282106465" lon="10.770601234192346"><ele>14.666666666666668</ele><time>2026-04-19T08:57:04Z</time></trkpt><trkpt lat="43.734357513200926" lon="10.770827359619183"><ele>14.333333333333334</ele><time>2026-04-19T08:57:05Z</time></trkpt><trkpt lat="43.73444092115119" lon="10.771052270493914"><ele>14.0</ele><time>2026-04-19T08:57:06Z</time></trkpt><trkpt lat="43.73452137607177" lon="10.77127013344864"><ele>14.0</ele><time>2026-04-19T08:57:07Z</time></trkpt><trkpt lat="43.73460308862439" lon="10.771477706330586"><ele>14.0</ele><time>2026-04-19T08:57:08Z</time></trkpt><trkpt lat="43.73468383058735" lon="10.771690058801443"><ele>14.0</ele><time>2026-04-19T08:57:09Z</time></trkpt><trkpt lat="43.734755178492414" lon="10.771898256568305"><ele>14.0</ele><time>2026-04-19T08:57:10Z</time></trkpt><trkpt lat="43.734829231218306" lon="10.772102815498231"><ele>14.0</ele><time>2026-04-19T08:57:11Z</time></trkpt><trkpt lat="43.73491105980612" lon="10.77232077290693"><ele>14.0</ele><time>2026-04-19T08:57:12Z</time></trkpt><trkpt lat="43.73499041224609" lon="10.772534179676256"><ele>14.666666666666668</ele><time>2026-04-19T08:57:13Z</time></trkpt><trkpt lat="43.735061099514304" lon="10.772726751682312"><ele>15.333333333333332</ele><time>2026-04-19T08:57:14Z</time></trkpt><trkpt lat="43.73512907478202" lon="10.772917215227944"><ele>16.0</ele><time>2026-04-19T08:57:15Z</time></trkpt><trkpt lat="43.735192951429" lon="10.773092481587138"><ele>15.25</ele><time>2026-04-19T08:57:16Z</time></trkpt><trkpt lat="43.735257670852654" lon="10.773265608401207"><ele>14.5</ele><time>2026-04-19T08:57:17Z</time></trkpt><trkpt lat="43.73531600594387" lon="10.77342126310187"><ele>13.75</ele><time>2026-04-19T08:57:18Z</time></trkpt><trkpt lat="43.7353712710202" lon="10.773553637769329"><ele>13.0</ele><time>2026-04-19T08:57:19Z</time></trkpt><trkpt lat="43.73541737456329" lon="10.773676086322764"><ele>13.0</ele><time>2026-04-19T08:57:20Z</time></trkpt><trkpt lat="43.735458673211845" lon="10.773794393202596"><ele>13.0</ele><time>2026-04-19T08:57:21Z</time></trkpt><trkpt lat="43.73549443152341" lon="10.77393019017681"><ele>13.0</ele><time>2026-04-19T08:57:22Z</time></trkpt><trkpt lat="43.735517183308374" lon="10.774060748690747"><ele>13.0</ele><time>2026-04-19T08:57:23Z</time></trkpt><trkpt lat="43.735515723744" lon="10.774190022666673"><ele>13.0</ele><time>2026-04-19T08:57:24Z</time></trkpt><trkpt lat="43.735517552960914" lon="10.774320083291927"><ele>13.25</ele><time>2026-04-19T08:57:25Z</time></trkpt><trkpt lat="43.73554787849723" lon="10.77444342915748"><ele>13.5</ele><time>2026-04-19T08:57:26Z</time></trkpt><trkpt lat="43.73561694187471" lon="10.774564163401394"><ele>13.75</ele><time>2026-04-19T08:57:27Z</time></trkpt><trkpt lat="43.735732393100605" lon="10.774657996082137"><ele>14.0</ele><time>2026-04-19T08:57:28Z</time></trkpt><trkpt lat="43.73583266448842" lon="10.7747645748059"><ele>14.0</ele><time>2026-04-19T08:57:29Z</time></trkpt><trkpt lat="43.73592422078154" lon="10.774917454946786"><ele>14.0</ele><time>2026-04-19T08:57:30Z</time></trkpt><trkpt lat="43.73601552582305" lon="10.77511090185592"><ele>14.0</ele><time>2026-04-19T08:57:31Z</time></trkpt><trkpt lat="43.7361006813767" lon="10.775299789303155"><ele>14.333333333333334</ele><time>2026-04-19T08:57:32Z</time></trkpt><trkpt lat="43.73618160074278" lon="10.775471637374192"><ele>14.666666666666668</ele><time>2026-04-19T08:57:33Z</time></trkpt><trkpt lat="43.73626710574516" lon="10.775643932627146"><ele>15.0</ele><time>2026-04-19T08:57:34Z</time></trkpt><trkpt lat="43.73635887138717" lon="10.775821685703653"><ele>15.0</ele><time>2026-04-19T08:57:35Z</time></trkpt><trkpt lat="43.73646332098597" lon="10.77601829031918"><ele>15.0</ele><time>2026-04-19T08:57:36Z</time></trkpt><trkpt lat="43.73657928610337" lon="10.776224305109467"><ele>15.0</ele><time>2026-04-19T08:57:37Z</time></trkpt><trkpt lat="43.73669828434468" lon="10.77642427974538"><ele>15.0</ele><time>2026-04-19T08:57:38Z</time></trkpt><trkpt lat="43.7368094741947" lon="10.776618944288447"><ele>15.0</ele><time>2026-04-19T08:57:39Z</time></trkpt><trkpt lat="43.73691993857037" lon="10.77679207092364"><ele>15.0</ele><time>2026-04-19T08:57:40Z</time></trkpt><trkpt lat="43.737034902347716" lon="10.776976311085885"><ele>15.0</ele><time>2026-04-19T08:57:41Z</time></trkpt><trkpt lat="43.73717864681438" lon="10.77717957441307"><ele>15.0</ele><time>2026-04-19T08:57:42Z</time></trkpt><trkpt lat="43.73731666212816" lon="10.777367026956604"><ele>15.0</ele><time>2026-04-19T08:57:43Z</time></trkpt><trkpt lat="43.73743574777145" lon="10.777568556238233"><ele>15.0</ele><time>2026-04-19T08:57:44Z</time></trkpt><trkpt lat="43.73756167786569" lon="10.77774500574487"><ele>15.0</ele><time>2026-04-19T08:57:45Z</time></trkpt><trkpt lat="43.73768748719338" lon="10.777912626340742"><ele>15.0</ele><time>2026-04-19T08:57:46Z</time></trkpt><trkpt lat="43.73782344436075" lon="10.77809550551901"><ele>15.0</ele><time>2026-04-19T08:57:47Z</time></trkpt><trkpt lat="43.73796054272746" lon="10.778287637891726"><ele>15.0</ele><time>2026-04-19T08:57:48Z</time></trkpt><trkpt lat="43.73809152543594" lon="10.778458051414635"><ele>15.0</ele><time>2026-04-19T08:57:49Z</time></trkpt><trkpt lat="43.73821926581423" lon="10.77862724834662"><ele>15.333333333333332</ele><time>2026-04-19T08:57:50Z</time></trkpt><trkpt lat="43.73834706986508" lon="10.77879576126142"><ele>15.666666666666666</ele><time>2026-04-19T08:57:51Z</time></trkpt><trkpt lat="43.738489894994714" lon="10.778982100506354"><ele>16.0</ele><time>2026-04-19T08:57:52Z</time></trkpt><trkpt lat="43.738613976876614" lon="10.779156208192312"><ele>15.333333333333332</ele><time>2026-04-19T08:57:53Z</time></trkpt><trkpt lat="43.73872669778051" lon="10.779314671968999"><ele>14.666666666666668</ele><time>2026-04-19T08:57:54Z</time></trkpt><trkpt lat="43.73884497084592" lon="10.779481855469317"><ele>14.0</ele><time>2026-04-19T08:57:55Z</time></trkpt><trkpt lat="43.7389787887864" lon="10.779654259257178"><ele>14.0</ele><time>2026-04-19T08:57:56Z</time></trkpt><trkpt lat="43.73909648999327" lon="10.779815907337493"><ele>14.0</ele><time>2026-04-19T08:57:57Z</time></trkpt><trkpt lat="43.73920486371538" lon="10.779967634742249"><ele>14.0</ele><time>2026-04-19T08:57:58Z</time></trkpt><trkpt lat="43.739318321530234" lon="10.78012494394118"><ele>14.25</ele><time>2026-04-19T08:57:59Z</time></trkpt><trkpt lat="43.73941564422314" lon="10.780263107914568"><ele>14.5</ele><time>2026-04-19T08:58:00Z</time></trkpt><trkpt lat="43.739505444460555" lon="10.780398206210503"><ele>14.75</ele><time>2026-04-19T08:58:01Z</time></trkpt><trkpt lat="43.73959494348739" lon="10.780532315790584"><ele>15.0</ele><time>2026-04-19T08:58:02Z</time></trkpt><trkpt lat="43.73967965491884" lon="10.78065383129979"><ele>15.0</ele><time>2026-04-19T08:58:03Z</time></trkpt><trkpt lat="43.73975543033283" lon="10.780761120469451"><ele>15.0</ele><time>2026-04-19T08:58:04Z</time></trkpt><trkpt lat="43.73983687048512" lon="10.780871501774774"><ele>15.0</ele><time>2026-04-19T08:58:05Z</time></trkpt><trkpt lat="43.73989015624034" lon="10.780971348989379"><ele>15.0</ele><time>2026-04-19T08:58:06Z</time></trkpt><trkpt lat="43.73994492025674" lon="10.781066736981632"><ele>15.0</ele><time>2026-04-19T08:58:07Z</time></trkpt><trkpt lat="43.73996829634618" lon="10.781177108844886"><ele>15.4</ele><time>2026-04-19T08:58:08Z</time></trkpt><trkpt lat="43.739987191973476" lon="10.781333798608623"><ele>15.8</ele><time>2026-04-19T08:58:09Z</time></trkpt><trkpt lat="43.73998413090646" lon="10.781488633753579"><ele>16.2</ele><time>2026-04-19T08:58:10Z</time></trkpt><trkpt lat="43.740002901162256" lon="10.781607772628357"><ele>16.6</ele><time>2026-04-19T08:58:11Z</time></trkpt><trkpt lat="43.740077425213805" lon="10.781702546764974"><ele>17.0</ele><time>2026-04-19T08:58:12Z</time></trkpt><trkpt lat="43.740179264203995" lon="10.781758047791783"><ele>17.2</ele><time>2026-04-19T08:58:13Z</time></trkpt><trkpt lat="43.74029938524289" lon="10.781774476796846"><ele>17.4</ele><time>2026-04-19T08:58:14Z</time></trkpt><trkpt lat="43.74040730054893" lon="10.781764346570466"><ele>17.6</ele><time>2026-04-19T08:58:15Z</time></trkpt><trkpt lat="43.740497193620655" lon="10.781775052190865"><ele>17.8</ele><time>2026-04-19T08:58:16Z</time></trkpt><trkpt lat="43.74060824589647" lon="10.781866952276928"><ele>18.0</ele><time>2026-04-19T08:58:17Z</time></trkpt><trkpt lat="43.74070681562898" lon="10.782029562477744"><ele>18.0</ele><time>2026-04-19T08:58:18Z</time></trkpt><trkpt lat="43.7408260109846" lon="10.782166012372235"><ele>18.0</ele><time>2026-04-19T08:58:19Z</time></trkpt><trkpt lat="43.74092980243771" lon="10.782317744383255"><ele>18.0</ele><time>2026-04-19T08:58:20Z</time></trkpt><trkpt lat="43.74103500925455" lon="10.7824502100474"><ele>18.0</ele><time>2026-04-19T08:58:21Z</time></trkpt><trkpt lat="43.74114085016683" lon="10.78257859454332"><ele>17.75</ele><time>2026-04-19T08:58:22Z</time></trkpt><trkpt lat="43.74123054236175" lon="10.782729743409787"><ele>17.5</ele><time>2026-04-19T08:58:23Z</time></trkpt><trkpt lat="43.74132466756038" lon="10.782858821549794"><ele>17.25</ele><time>2026-04-19T08:58:24Z</time></trkpt><trkpt lat="43.741409379959485" lon="10.78295988224615"><ele>17.0</ele><time>2026-04-19T08:58:25Z</time></trkpt><trkpt lat="43.741492074012726" lon="10.783070119009299"><ele>17.0</ele><time>2026-04-19T08:58:26Z</time></trkpt><trkpt lat="43.74156687872387" lon="10.783169862079419"><ele>17.0</ele><time>2026-04-19T08:58:27Z</time></trkpt><trkpt lat="43.741627704677455" lon="10.783258508111265"><ele>17.0</ele><time>2026-04-19T08:58:28Z</time></trkpt><trkpt lat="43.741673250189315" lon="10.783346047382377"><ele>17.0</ele><time>2026-04-19T08:58:29Z</time></trkpt><trkpt lat="43.741691408984856" lon="10.78344866859589"><ele>17.0</ele><time>2026-04-19T08:58:30Z</time></trkpt><trkpt lat="43.741690798200835" lon="10.783570591208989"><ele>17.0</ele><time>2026-04-19T08:58:31Z</time></trkpt><trkpt lat="43.741670659341096" lon="10.783686055222265"><ele>16.8</ele><time>2026-04-19T08:58:32Z</time></trkpt><trkpt lat="43.74167132122365" lon="10.78380544230111"><ele>16.6</ele><time>2026-04-19T08:58:33Z</time></trkpt><trkpt lat="43.741706560202026" lon="10.78391528210858"><ele>16.400000000000002</ele><time>2026-04-19T08:58:34Z</time></trkpt><trkpt lat="43.74178946525667" lon="10.783998361348727"><ele>16.2</ele><time>2026-04-19T08:58:35Z</time></trkpt><trkpt lat="43.74190104121029" lon="10.784037527749962"><ele>16.0</ele><time>2026-04-19T08:58:36Z</time></trkpt><trkpt lat="43.741997268425386" lon="10.784057665485994"><ele>15.5</ele><time>2026-04-19T08:58:37Z</time></trkpt><trkpt lat="43.742099006814755" lon="10.78409266152943"><ele>15.0</ele><time>2026-04-19T08:58:38Z</time></trkpt><trkpt lat="43.74218403876591" lon="10.784207389421383"><ele>14.5</ele><time>2026-04-19T08:58:39Z</time></trkpt><trkpt lat="43.74222349609665" lon="10.784372538842746"><ele>14.0</ele><time>2026-04-19T08:58:40Z</time></trkpt><trkpt lat="43.742290861142884" lon="10.784543469570222"><ele>13.666666666666668</ele><time>2026-04-19T08:58:41Z</time></trkpt><trkpt lat="43.74237446846749" lon="10.784734369515178"><ele>13.333333333333332</ele><time>2026-04-19T08:58:42Z</time></trkpt><trkpt lat="43.74244028605117" lon="10.78493373041817"><ele>13.0</ele><time>2026-04-19T08:58:43Z</time></trkpt><trkpt lat="43.74249386709373" lon="10.78510968620828"><ele>12.75</ele><time>2026-04-19T08:58:44Z</time></trkpt><trkpt lat="43.74253859074118" lon="10.785283312924106"><ele>12.5</ele><time>2026-04-19T08:58:45Z</time></trkpt><trkpt lat="43.74258533319764" lon="10.785473302560188"><ele>12.25</ele><time>2026-04-19T08:58:46Z</time></trkpt><trkpt lat="43.7426288642299" lon="10.78567248881609"><ele>12.0</ele><time>2026-04-19T08:58:47Z</time></trkpt><trkpt lat="43.74266694002752" lon="10.785881676499274"><ele>12.0</ele><time>2026-04-19T08:58:48Z</time></trkpt><trkpt lat="43.7426969234871" lon="10.786115230604652"><ele>12.0</ele><time>2026-04-19T08:58:49Z</time></trkpt><trkpt lat="43.74273061583967" lon="10.786365408693113"><ele>12.0</ele><time>2026-04-19T08:58:50Z</time></trkpt><trkpt lat="43.74275289086824" lon="10.786629807345706"><ele>12.0</ele><time>2026-04-19T08:58:51Z</time></trkpt><trkpt lat="43.74276242763678" lon="10.786884364270025"><ele>12.0</ele><time>2026-04-19T08:58:52Z</time></trkpt><trkpt lat="43.74276785561622" lon="10.78711553518613"><ele>12.0</ele><time>2026-04-19T08:58:53Z</time></trkpt><trkpt lat="43.74276868454322" lon="10.787367227719267"><ele>12.0</ele><time>2026-04-19T08:58:54Z</time></trkpt><trkpt lat="43.74275133849157" lon="10.787628311515007"><ele>12.0</ele><time>2026-04-19T08:58:55Z</time></trkpt><trkpt lat="43.74273356609411" lon="10.787850666464069"><ele>12.0</ele><time>2026-04-19T08:58:56Z</time></trkpt><trkpt lat="43.74271853040869" lon="10.788093338589633"><ele>12.333333333333332</ele><time>2026-04-19T08:58:57Z</time></trkpt><trkpt lat="43.74268046013371" lon="10.788315794031378"><ele>12.666666666666666</ele><time>2026-04-19T08:58:58Z</time></trkpt><trkpt lat="43.74264057405828" lon="10.788539310640974"><ele>13.0</ele><time>2026-04-19T08:58:59Z</time></trkpt><trkpt lat="43.74259816164161" lon="10.7887639197316"><ele>13.333333333333332</ele><time>2026-04-19T08:59:00Z</time></trkpt><trkpt lat="43.742546024706996" lon="10.788986020819063"><ele>13.666666666666668</ele><time>2026-04-19T08:59:01Z</time></trkpt><trkpt lat="43.7424891144786" lon="10.789197554489895"><ele>14.0</ele><time>2026-04-19T08:59:02Z</time></trkpt><trkpt lat="43.74241467600453" lon="10.789415344334927"><ele>14.0</ele><time>2026-04-19T08:59:03Z</time></trkpt><trkpt lat="43.742334465111746" lon="10.7896589889847"><ele>14.0</ele><time>2026-04-19T08:59:04Z</time></trkpt><trkpt lat="43.74224799868653" lon="10.789878561362551"><ele>14.0</ele><time>2026-04-19T08:59:05Z</time></trkpt><trkpt lat="43.74216054800481" lon="10.790092391119673"><ele>13.666666666666668</ele><time>2026-04-19T08:59:06Z</time></trkpt><trkpt lat="43.742071218788894" lon="10.790298457727971"><ele>13.333333333333332</ele><time>2026-04-19T08:59:07Z</time></trkpt><trkpt lat="43.74197137296096" lon="10.790494293124546"><ele>13.0</ele><time>2026-04-19T08:59:08Z</time></trkpt><trkpt lat="43.74186231662123" lon="10.790684610971663"><ele>12.666666666666666</ele><time>2026-04-19T08:59:09Z</time></trkpt><trkpt lat="43.74174500309994" lon="10.790882405413148"><ele>12.333333333333332</ele><time>2026-04-19T08:59:10Z</time></trkpt><trkpt lat="43.74162284051159" lon="10.79108429871417"><ele>12.0</ele><time>2026-04-19T08:59:11Z</time></trkpt><trkpt lat="43.74150120736022" lon="10.791279988933299"><ele>12.0</ele><time>2026-04-19T08:59:12Z</time></trkpt><trkpt lat="43.741369808969644" lon="10.79149329692724"><ele>12.0</ele><time>2026-04-19T08:59:13Z</time></trkpt><trkpt lat="43.741248808645814" lon="10.791691709232166"><ele>12.0</ele><time>2026-04-19T08:59:14Z</time></trkpt><trkpt lat="43.741133600135115" lon="10.791891742721928"><ele>12.0</ele><time>2026-04-19T08:59:15Z</time></trkpt><trkpt lat="43.74101000237711" lon="10.792093775105393"><ele>12.0</ele><time>2026-04-19T08:59:16Z</time></trkpt><trkpt lat="43.740883359225194" lon="10.792298805663268"><ele>12.0</ele><time>2026-04-19T08:59:17Z</time></trkpt><trkpt lat="43.74076428301516" lon="10.79249785560155"><ele>12.333333333333332</ele><time>2026-04-19T08:59:18Z</time></trkpt><trkpt lat="43.74064333316902" lon="10.792698425681941"><ele>12.666666666666666</ele><time>2026-04-19T08:59:19Z</time></trkpt><trkpt lat="43.74051726715398" lon="10.79290311910862"><ele>13.0</ele><time>2026-04-19T08:59:20Z</time></trkpt><trkpt lat="43.740388005411646" lon="10.793114919443317"><ele>13.0</ele><time>2026-04-19T08:59:21Z</time></trkpt><trkpt lat="43.74025242369848" lon="10.793334902888866"><ele>13.0</ele><time>2026-04-19T08:59:22Z</time></trkpt><trkpt lat="43.740130037035755" lon="10.793543429713846"><ele>13.0</ele><time>2026-04-19T08:59:23Z</time></trkpt><trkpt lat="43.74001509711737" lon="10.793727551907203"><ele>13.0</ele><time>2026-04-19T08:59:24Z</time></trkpt><trkpt lat="43.73989670456254" lon="10.79392332369371"><ele>13.0</ele><time>2026-04-19T08:59:25Z</time></trkpt><trkpt lat="43.73977263865429" lon="10.794124980544568"><ele>13.0</ele><time>2026-04-19T08:59:26Z</time></trkpt><trkpt lat="43.73964644788194" lon="10.794328420019921"><ele>13.333333333333332</ele><time>2026-04-19T08:59:27Z</time></trkpt><trkpt lat="43.739525976585306" lon="10.794547179323446"><ele>13.666666666666668</ele><time>2026-04-19T08:59:28Z</time></trkpt><trkpt lat="43.73940263691794" lon="10.794750370930585"><ele>14.0</ele><time>2026-04-19T08:59:29Z</time></trkpt><trkpt lat="43.739277366617586" lon="10.794953977773394"><ele>14.0</ele><time>2026-04-19T08:59:30Z</time></trkpt><trkpt lat="43.73915941765259" lon="10.795156264335212"><ele>14.0</ele><time>2026-04-19T08:59:31Z</time></trkpt><trkpt lat="43.7390314136108" lon="10.795351359883986"><ele>14.0</ele><time>2026-04-19T08:59:32Z</time></trkpt><trkpt lat="43.738907728503584" lon="10.795545903480875"><ele>14.333333333333334</ele><time>2026-04-19T08:59:33Z</time></trkpt><trkpt lat="43.738793781146285" lon="10.79574682568258"><ele>14.666666666666668</ele><time>2026-04-19T08:59:34Z</time></trkpt><trkpt lat="43.73867447702731" lon="10.795950656097027"><ele>15.0</ele><time>2026-04-19T08:59:35Z</time></trkpt><trkpt lat="43.7385548374529" lon="10.796145589542318"><ele>15.0</ele><time>2026-04-19T08:59:36Z</time></trkpt><trkpt lat="43.7384392818865" lon="10.796338198070286"><ele>15.0</ele><time>2026-04-19T08:59:37Z</time></trkpt><trkpt lat="43.73831922866324" lon="10.796525198611613"><ele>15.0</ele><time>2026-04-19T08:59:38Z</time></trkpt><trkpt lat="43.73821075404051" lon="10.796705480811543"><ele>14.333333333333332</ele><time>2026-04-19T08:59:39Z</time></trkpt><trkpt lat="43.73810655275104" lon="10.796872746479021"><ele>13.666666666666666</ele><time>2026-04-19T08:59:40Z</time></trkpt><trkpt lat="43.73800669656232" lon="10.797043751960565"><ele>13.0</ele><time>2026-04-19T08:59:41Z</time></trkpt><trkpt lat="43.73790620511119" lon="10.797211021428138"><ele>13.0</ele><time>2026-04-19T08:59:42Z</time></trkpt><trkpt lat="43.73780461699908" lon="10.797375240107007"><ele>13.0</ele><time>2026-04-19T08:59:43Z</time></trkpt><trkpt lat="43.73770916172315" lon="10.797537431259105"><ele>13.0</ele><time>2026-04-19T08:59:44Z</time></trkpt><trkpt lat="43.737612115376635" lon="10.797709261840717"><ele>14.0</ele><time>2026-04-19T08:59:45Z</time></trkpt><trkpt lat="43.73751865292521" lon="10.797889619908016"><ele>15.0</ele><time>2026-04-19T08:59:46Z</time></trkpt><trkpt lat="43.73743779473731" lon="10.798077872623137"><ele>16.0</ele><time>2026-04-19T08:59:47Z</time></trkpt><trkpt lat="43.73736587649426" lon="10.798278550987396"><ele>16.0</ele><time>2026-04-19T08:59:48Z</time></trkpt><trkpt lat="43.7372983232787" lon="10.798484681935612"><ele>16.0</ele><time>2026-04-19T08:59:49Z</time></trkpt><trkpt lat="43.737234859748334" lon="10.798700659990821"><ele>16.0</ele><time>2026-04-19T08:59:50Z</time></trkpt><trkpt lat="43.73717617261392" lon="10.798928494803192"><ele>16.333333333333332</ele><time>2026-04-19T08:59:51Z</time></trkpt><trkpt lat="43.73713256304008" lon="10.799159604871983"><ele>16.666666666666668</ele><time>2026-04-19T08:59:52Z</time></trkpt><trkpt lat="43.73710355659039" lon="10.799396309603647"><ele>17.0</ele><time>2026-04-19T08:59:53Z</time></trkpt><trkpt lat="43.73709385171453" lon="10.79963228249328"><ele>17.0</ele><time>2026-04-19T08:59:54Z</time></trkpt><trkpt lat="43.73708882022649" lon="10.799847393049808"><ele>17.0</ele><time>2026-04-19T08:59:55Z</time></trkpt><trkpt lat="43.737090679560424" lon="10.800051163517784"><ele>17.0</ele><time>2026-04-19T08:59:56Z</time></trkpt><trkpt lat="43.737097742390574" lon="10.80023760837096"><ele>17.0</ele><time>2026-04-19T08:59:57Z</time></trkpt><trkpt lat="43.737105999355016" lon="10.800408471609211"><ele>17.0</ele><time>2026-04-19T08:59:58Z</time></trkpt><trkpt lat="43.73711631618982" lon="10.800574099492964"><ele>17.0</ele><time>2026-04-19T08:59:59Z</time></trkpt><trkpt lat="43.73712617145601" lon="10.800725871292398"><ele>17.0</ele><time>2026-04-19T09:00:00Z</time></trkpt><trkpt lat="43.73713933306812" lon="10.800862284389243"><ele>17.0</ele><time>2026-04-19T09:00:01Z</time></trkpt><trkpt lat="43.737150354924715" lon="10.80098814417139"><ele>17.0</ele><time>2026-04-19T09:00:02Z</time></trkpt><trkpt lat="43.7371580698862" lon="10.801108117127113"><ele>16.833333333333336</ele><time>2026-04-19T09:00:03Z</time></trkpt><trkpt lat="43.7371573413008" lon="10.801216979465652"><ele>16.666666666666668</ele><time>2026-04-19T09:00:04Z</time></trkpt><trkpt lat="43.737143554965634" lon="10.801315965777732"><ele>16.5</ele><time>2026-04-19T09:00:05Z</time></trkpt><trkpt lat="43.737113960075725" lon="10.801410087676379"><ele>16.333333333333332</ele><time>2026-04-19T09:00:06Z</time></trkpt><trkpt lat="43.73706622762697" lon="10.80150607146696"><ele>16.166666666666664</ele><time>2026-04-19T09:00:07Z</time></trkpt><trkpt lat="43.73703418858693" lon="10.801609763845105"><ele>16.0</ele><time>2026-04-19T09:00:08Z</time></trkpt><trkpt lat="43.737039166223944" lon="10.801725986576377"><ele>15.8</ele><time>2026-04-19T09:00:09Z</time></trkpt><trkpt lat="43.73708116535143" lon="10.801850758017208"><ele>15.600000000000001</ele><time>2026-04-19T09:00:10Z</time></trkpt><trkpt lat="43.73714307601275" lon="10.801968113877168"><ele>15.4</ele><time>2026-04-19T09:00:11Z</time></trkpt><trkpt lat="43.73720104563725" lon="10.802098412701275"><ele>15.2</ele><time>2026-04-19T09:00:12Z</time></trkpt><trkpt lat="43.73720844768176" lon="10.80225925278663"><ele>15.0</ele><time>2026-04-19T09:00:13Z</time></trkpt><trkpt lat="43.737216936498726" lon="10.802431613521684"><ele>15.0</ele><time>2026-04-19T09:00:14Z</time></trkpt><trkpt lat="43.73723505098924" lon="10.802607947911655"><ele>15.0</ele><time>2026-04-19T09:00:15Z</time></trkpt><trkpt lat="43.7372347900757" lon="10.802766032994116"><ele>15.0</ele><time>2026-04-19T09:00:16Z</time></trkpt><trkpt lat="43.73723952870709" lon="10.802918021492262"><ele>15.0</ele><time>2026-04-19T09:00:17Z</time></trkpt><trkpt lat="43.7372345990984" lon="10.80306597519338"><ele>15.0</ele><time>2026-04-19T09:00:18Z</time></trkpt><trkpt lat="43.737220649069" lon="10.80321972118909"><ele>15.0</ele><time>2026-04-19T09:00:19Z</time></trkpt><trkpt lat="43.73720506882911" lon="10.803387151690268"><ele>15.0</ele><time>2026-04-19T09:00:20Z</time></trkpt><trkpt lat="43.737186512736905" lon="10.803563385944358"><ele>15.0</ele><time>2026-04-19T09:00:21Z</time></trkpt><trkpt lat="43.73716074686095" lon="10.803738675585624"><ele>15.0</ele><time>2026-04-19T09:00:22Z</time></trkpt><trkpt lat="43.73713233728539" lon="10.803906752903623"><ele>15.0</ele><time>2026-04-19T09:00:23Z</time></trkpt><trkpt lat="43.73710208133693" lon="10.80405621759439"><ele>15.0</ele><time>2026-04-19T09:00:24Z</time></trkpt><trkpt lat="43.73706807918106" lon="10.804195774695291"><ele>15.0</ele><time>2026-04-19T09:00:25Z</time></trkpt><trkpt lat="43.737027783733744" lon="10.804336248304855"><ele>15.0</ele><time>2026-04-19T09:00:26Z</time></trkpt><trkpt lat="43.736982662955405" lon="10.80448311783984"><ele>15.0</ele><time>2026-04-19T09:00:27Z</time></trkpt><trkpt lat="43.73692609734089" lon="10.804640851197341"><ele>15.0</ele><time>2026-04-19T09:00:28Z</time></trkpt><trkpt lat="43.73686004189116" lon="10.804813108049231"><ele>15.0</ele><time>2026-04-19T09:00:29Z</time></trkpt><trkpt lat="43.7367878485799" lon="10.8049768167165"><ele>15.25</ele><time>2026-04-19T09:00:30Z</time></trkpt><trkpt lat="43.73671367537727" lon="10.805133848449447"><ele>15.5</ele><time>2026-04-19T09:00:31Z</time></trkpt><trkpt lat="43.73663298123245" lon="10.805288870816447"><ele>15.75</ele><time>2026-04-19T09:00:32Z</time></trkpt><trkpt lat="43.73655120400527" lon="10.805438812541889"><ele>16.0</ele><time>2026-04-19T09:00:33Z</time></trkpt><trkpt lat="43.736469382949956" lon="10.805577380321441"><ele>16.5</ele><time>2026-04-19T09:00:34Z</time></trkpt><trkpt lat="43.73638656974975" lon="10.80571020700053"><ele>17.0</ele><time>2026-04-19T09:00:35Z</time></trkpt><trkpt lat="43.7363027685552" lon="10.80584939403777"><ele>17.5</ele><time>2026-04-19T09:00:36Z</time></trkpt><trkpt lat="43.736218862134706" lon="10.805994699471395"><ele>18.0</ele><time>2026-04-19T09:00:37Z</time></trkpt><trkpt lat="43.73614014974779" lon="10.806138902168211"><ele>18.5</ele><time>2026-04-19T09:00:38Z</time></trkpt><trkpt lat="43.736062736574695" lon="10.806272588007692"><ele>19.0</ele><time>2026-04-19T09:00:39Z</time></trkpt><trkpt lat="43.73598006068817" lon="10.80641959066918"><ele>19.5</ele><time>2026-04-19T09:00:40Z</time></trkpt><trkpt lat="43.73586848419796" lon="10.806575547228716"><ele>20.0</ele><time>2026-04-19T09:00:41Z</time></trkpt><trkpt lat="43.73576913336724" lon="10.806742199034815"><ele>21.0</ele><time>2026-04-19T09:00:42Z</time></trkpt><trkpt lat="43.73569109071405" lon="10.806894494702814"><ele>22.0</ele><time>2026-04-19T09:00:43Z</time></trkpt><trkpt lat="43.735606376521915" lon="10.807019321828745"><ele>23.0</ele><time>2026-04-19T09:00:44Z</time></trkpt><trkpt lat="43.73554198926721" lon="10.807131226268407"><ele>24.0</ele><time>2026-04-19T09:00:45Z</time></trkpt><trkpt lat="43.735480724933176" lon="10.807238838762288"><ele>24.0</ele><time>2026-04-19T09:00:46Z</time></trkpt><trkpt lat="43.73541842918702" lon="10.807339281392519"><ele>24.0</ele><time>2026-04-19T09:00:47Z</time></trkpt><trkpt lat="43.73536795050127" lon="10.807430125739282"><ele>24.0</ele><time>2026-04-19T09:00:48Z</time></trkpt><trkpt lat="43.735325418221514" lon="10.807506580924864"><ele>24.0</ele><time>2026-04-19T09:00:49Z</time></trkpt><trkpt lat="43.73525488719985" lon="10.807620080612343"><ele>24.0</ele><time>2026-04-19T09:00:51Z</time></trkpt><trkpt lat="43.73519401603793" lon="10.807676533280395"><ele>24.0</ele><time>2026-04-19T09:00:53Z</time></trkpt><trkpt lat="43.73508063825142" lon="10.807699528131108"><ele>23.5</ele><time>2026-04-19T09:00:55Z</time></trkpt><trkpt lat="43.734957473334866" lon="10.807744048153783"><ele>23.0</ele><time>2026-04-19T09:00:57Z</time></trkpt><trkpt lat="43.734907733159766" lon="10.80780783770952"><ele>22.5</ele><time>2026-04-19T09:00:58Z</time></trkpt><trkpt lat="43.73487149733446" lon="10.80789229744137"><ele>22.0</ele><time>2026-04-19T09:00:59Z</time></trkpt><trkpt lat="43.73485667978998" lon="10.807987428979773"><ele>21.5</ele><time>2026-04-19T09:01:00Z</time></trkpt><trkpt lat="43.7348683824849" lon="10.808082082071577"><ele>21.0</ele><time>2026-04-19T09:01:01Z</time></trkpt><trkpt lat="43.73490182436213" lon="10.808171224706044"><ele>21.0</ele><time>2026-04-19T09:01:02Z</time></trkpt><trkpt lat="43.73495375137503" lon="10.808251326029444"><ele>21.0</ele><time>2026-04-19T09:01:03Z</time></trkpt><trkpt lat="43.73503362831451" lon="10.808298313972907"><ele>21.0</ele><time>2026-04-19T09:01:04Z</time></trkpt><trkpt lat="43.73512600001604" lon="10.80831985224961"><ele>21.0</ele><time>2026-04-19T09:01:05Z</time></trkpt><trkpt lat="43.73522736196661" lon="10.808322792992211"><ele>21.0</ele><time>2026-04-19T09:01:06Z</time></trkpt><trkpt lat="43.735319989484864" lon="10.808353413913503"><ele>21.200000000000003</ele><time>2026-04-19T09:01:07Z</time></trkpt><trkpt lat="43.73540331231866" lon="10.808422118635283"><ele>21.400000000000002</ele><time>2026-04-19T09:01:08Z</time></trkpt><trkpt lat="43.735483044303045" lon="10.808521297459052"><ele>21.6</ele><time>2026-04-19T09:01:09Z</time></trkpt><trkpt lat="43.73556100379895" lon="10.808624262832524"><ele>21.8</ele><time>2026-04-19T09:01:10Z</time></trkpt><trkpt lat="43.73564986241456" lon="10.808738135400176"><ele>22.0</ele><time>2026-04-19T09:01:11Z</time></trkpt><trkpt lat="43.73575251487887" lon="10.808867398292909"><ele>21.333333333333332</ele><time>2026-04-19T09:01:12Z</time></trkpt><trkpt lat="43.73587242478418" lon="10.809021827882846"><ele>20.666666666666668</ele><time>2026-04-19T09:01:13Z</time></trkpt><trkpt lat="43.73599837313115" lon="10.809188950121706"><ele>20.0</ele><time>2026-04-19T09:01:14Z</time></trkpt><trkpt lat="43.736121559048875" lon="10.809343653920262"><ele>20.0</ele><time>2026-04-19T09:01:15Z</time></trkpt><trkpt lat="43.736244790517944" lon="10.80950663681268"><ele>20.0</ele><time>2026-04-19T09:01:16Z</time></trkpt><trkpt lat="43.73637662792435" lon="10.809685467399982"><ele>20.0</ele><time>2026-04-19T09:01:17Z</time></trkpt><trkpt lat="43.73652294692359" lon="10.80987233903078"><ele>20.0</ele><time>2026-04-19T09:01:18Z</time></trkpt><trkpt lat="43.73667677182796" lon="10.810063415543352"><ele>20.0</ele><time>2026-04-19T09:01:19Z</time></trkpt><trkpt lat="43.736818535960175" lon="10.810237842243353"><ele>20.0</ele><time>2026-04-19T09:01:20Z</time></trkpt><trkpt lat="43.73694657594366" lon="10.810406421531074"><ele>19.333333333333336</ele><time>2026-04-19T09:01:21Z</time></trkpt><trkpt lat="43.73707959055901" lon="10.810578775151109"><ele>18.666666666666668</ele><time>2026-04-19T09:01:22Z</time></trkpt><trkpt lat="43.737232053047975" lon="10.810760774012413"><ele>18.0</ele><time>2026-04-19T09:01:23Z</time></trkpt><trkpt lat="43.737382503816136" lon="10.810949819226174"><ele>18.0</ele><time>2026-04-19T09:01:24Z</time></trkpt><trkpt lat="43.73752484410349" lon="10.811139053037838"><ele>18.0</ele><time>2026-04-19T09:01:25Z</time></trkpt><trkpt lat="43.73766061130954" lon="10.811315769500991"><ele>18.0</ele><time>2026-04-19T09:01:26Z</time></trkpt><trkpt lat="43.737786156352364" lon="10.811475080281788"><ele>18.0</ele><time>2026-04-19T09:01:27Z</time></trkpt><trkpt lat="43.73790980577949" lon="10.81163158766947"><ele>18.0</ele><time>2026-04-19T09:01:28Z</time></trkpt><trkpt lat="43.73803075150352" lon="10.811788311357152"><ele>18.0</ele><time>2026-04-19T09:01:29Z</time></trkpt><trkpt lat="43.738143421321375" lon="10.811929830469808"><ele>18.25</ele><time>2026-04-19T09:01:30Z</time></trkpt><trkpt lat="43.73825173403554" lon="10.81206323764948"><ele>18.5</ele><time>2026-04-19T09:01:31Z</time></trkpt><trkpt lat="43.73835626674921" lon="10.812199441383"><ele>18.75</ele><time>2026-04-19T09:01:32Z</time></trkpt><trkpt lat="43.73846320977889" lon="10.812336275311353"><ele>19.0</ele><time>2026-04-19T09:01:33Z</time></trkpt><trkpt lat="43.73857002578146" lon="10.81247212166069"><ele>18.75</ele><time>2026-04-19T09:01:34Z</time></trkpt><trkpt lat="43.73867417221246" lon="10.81260332393689"><ele>18.5</ele><time>2026-04-19T09:01:35Z</time></trkpt><trkpt lat="43.73877631997637" lon="10.812735039081813"><ele>18.25</ele><time>2026-04-19T09:01:36Z</time></trkpt><trkpt lat="43.738884284135025" lon="10.812873485418905"><ele>18.0</ele><time>2026-04-19T09:01:37Z</time></trkpt><trkpt lat="43.739002719176355" lon="10.813024059005635"><ele>18.0</ele><time>2026-04-19T09:01:38Z</time></trkpt><trkpt lat="43.739121801973546" lon="10.813177994543837"><ele>18.0</ele><time>2026-04-19T09:01:39Z</time></trkpt><trkpt lat="43.739239154238454" lon="10.813326589290037"><ele>18.0</ele><time>2026-04-19T09:01:40Z</time></trkpt><trkpt lat="43.7393530892959" lon="10.813469156372317"><ele>18.333333333333332</ele><time>2026-04-19T09:01:41Z</time></trkpt><trkpt lat="43.7394656673359" lon="10.813613773502032"><ele>18.666666666666664</ele><time>2026-04-19T09:01:42Z</time></trkpt><trkpt lat="43.73957769979284" lon="10.81375790796031"><ele>19.0</ele><time>2026-04-19T09:01:43Z</time></trkpt><trkpt lat="43.739688044823914" lon="10.813895686771337"><ele>19.0</ele><time>2026-04-19T09:01:44Z</time></trkpt><trkpt lat="43.73978485842755" lon="10.814021664473609"><ele>19.0</ele><time>2026-04-19T09:01:45Z</time></trkpt><trkpt lat="43.73987840275905" lon="10.814146421293982"><ele>19.0</ele><time>2026-04-19T09:01:46Z</time></trkpt><trkpt lat="43.73997764023095" lon="10.81426842619275"><ele>19.0</ele><time>2026-04-19T09:01:47Z</time></trkpt><trkpt lat="43.74007258415267" lon="10.814389574986512"><ele>19.25</ele><time>2026-04-19T09:01:48Z</time></trkpt><trkpt lat="43.74017089850655" lon="10.814512654482208"><ele>19.5</ele><time>2026-04-19T09:01:49Z</time></trkpt><trkpt lat="43.74027312746539" lon="10.814640821889702"><ele>19.75</ele><time>2026-04-19T09:01:50Z</time></trkpt><trkpt lat="43.74037970656571" lon="10.814775315557153"><ele>20.0</ele><time>2026-04-19T09:01:51Z</time></trkpt><trkpt lat="43.74048800108647" lon="10.814917106443177"><ele>19.333333333333336</ele><time>2026-04-19T09:01:52Z</time></trkpt><trkpt lat="43.74060077186802" lon="10.815061573356655"><ele>18.666666666666668</ele><time>2026-04-19T09:01:53Z</time></trkpt><trkpt lat="43.740712406486345" lon="10.81520112410618"><ele>18.0</ele><time>2026-04-19T09:01:54Z</time></trkpt><trkpt lat="43.74081996481625" lon="10.81534279680174"><ele>18.0</ele><time>2026-04-19T09:01:55Z</time></trkpt><trkpt lat="43.74092976269119" lon="10.815485497493654"><ele>18.0</ele><time>2026-04-19T09:01:56Z</time></trkpt><trkpt lat="43.741039167564004" lon="10.815623436518228"><ele>18.0</ele><time>2026-04-19T09:01:57Z</time></trkpt><trkpt lat="43.741147882536126" lon="10.815759073436231"><ele>18.0</ele><time>2026-04-19T09:01:58Z</time></trkpt><trkpt lat="43.74125629712909" lon="10.815894364901064"><ele>18.333333333333332</ele><time>2026-04-19T09:01:59Z</time></trkpt><trkpt lat="43.741362616763375" lon="10.816028148930242"><ele>18.666666666666664</ele><time>2026-04-19T09:02:00Z</time></trkpt><trkpt lat="43.74147301501357" lon="10.816173560165076"><ele>19.0</ele><time>2026-04-19T09:02:01Z</time></trkpt><trkpt lat="43.74159143109043" lon="10.81632291294449"><ele>19.0</ele><time>2026-04-19T09:02:02Z</time></trkpt><trkpt lat="43.74171862283977" lon="10.816482401022752"><ele>19.0</ele><time>2026-04-19T09:02:03Z</time></trkpt><trkpt lat="43.74185063503606" lon="10.816649377641195"><ele>19.0</ele><time>2026-04-19T09:02:04Z</time></trkpt><trkpt lat="43.7419777716848" lon="10.816811849806195"><ele>18.666666666666664</ele><time>2026-04-19T09:02:05Z</time></trkpt><trkpt lat="43.74210091239504" lon="10.816967150768209"><ele>18.333333333333332</ele><time>2026-04-19T09:02:06Z</time></trkpt><trkpt lat="43.74222074341578" lon="10.8171195053911"><ele>18.0</ele><time>2026-04-19T09:02:07Z</time></trkpt><trkpt lat="43.74233476366714" lon="10.817267983972867"><ele>18.0</ele><time>2026-04-19T09:02:08Z</time></trkpt><trkpt lat="43.74244354675963" lon="10.817407935998597"><ele>18.0</ele><time>2026-04-19T09:02:09Z</time></trkpt><trkpt lat="43.74254927248197" lon="10.817541962334111"><ele>18.0</ele><time>2026-04-19T09:02:10Z</time></trkpt><trkpt lat="43.74265476790535" lon="10.817679060260572"><ele>18.0</ele><time>2026-04-19T09:02:11Z</time></trkpt><trkpt lat="43.742764978696684" lon="10.817817039994118"><ele>18.666666666666668</ele><time>2026-04-19T09:02:12Z</time></trkpt><trkpt lat="43.74288230883874" lon="10.817948188828021"><ele>19.333333333333336</ele><time>2026-04-19T09:02:13Z</time></trkpt><trkpt lat="43.74300306831262" lon="10.818068837565852"><ele>20.0</ele><time>2026-04-19T09:02:14Z</time></trkpt><trkpt lat="43.74312882110063" lon="10.818183281948773"><ele>20.0</ele><time>2026-04-19T09:02:15Z</time></trkpt><trkpt lat="43.74326432378096" lon="10.818291332167625"><ele>20.0</ele><time>2026-04-19T09:02:16Z</time></trkpt><trkpt lat="43.74340212746184" lon="10.818394917697729"><ele>20.0</ele><time>2026-04-19T09:02:17Z</time></trkpt><trkpt lat="43.743539389808134" lon="10.818492583517427"><ele>20.333333333333336</ele><time>2026-04-19T09:02:18Z</time></trkpt><trkpt lat="43.74367727653119" lon="10.818583226677474"><ele>20.666666666666668</ele><time>2026-04-19T09:02:19Z</time></trkpt><trkpt lat="43.74381752961209" lon="10.818665985321742"><ele>21.0</ele><time>2026-04-19T09:02:20Z</time></trkpt><trkpt lat="43.74396121298398" lon="10.818734224083451"><ele>21.0</ele><time>2026-04-19T09:02:21Z</time></trkpt><trkpt lat="43.74410247284426" lon="10.818789363371536"><ele>21.0</ele><time>2026-04-19T09:02:22Z</time></trkpt><trkpt lat="43.74423454399719" lon="10.818833937590924"><ele>21.0</ele><time>2026-04-19T09:02:23Z</time></trkpt><trkpt lat="43.74437090193621" lon="10.818883929243645"><ele>21.0</ele><time>2026-04-19T09:02:24Z</time></trkpt><trkpt lat="43.74450993459031" lon="10.818929399696346"><ele>21.25</ele><time>2026-04-19T09:02:25Z</time></trkpt><trkpt lat="43.74464837819526" lon="10.818972108053504"><ele>21.5</ele><time>2026-04-19T09:02:26Z</time></trkpt><trkpt lat="43.74478937405288" lon="10.819015524324728"><ele>21.75</ele><time>2026-04-19T09:02:27Z</time></trkpt><trkpt lat="43.744933166796216" lon="10.819060754584914"><ele>22.0</ele><time>2026-04-19T09:02:28Z</time></trkpt><trkpt lat="43.74508333685429" lon="10.819108174206374"><ele>21.25</ele><time>2026-04-19T09:02:29Z</time></trkpt><trkpt lat="43.7452360123274" lon="10.819156318699418"><ele>20.5</ele><time>2026-04-19T09:02:30Z</time></trkpt><trkpt lat="43.74537026647353" lon="10.819201145642726"><ele>19.75</ele><time>2026-04-19T09:02:31Z</time></trkpt><trkpt lat="43.745511065819166" lon="10.81924374270747"><ele>19.0</ele><time>2026-04-19T09:02:32Z</time></trkpt><trkpt lat="43.74565352882245" lon="10.81928246152641"><ele>18.666666666666664</ele><time>2026-04-19T09:02:33.001Z</time></trkpt><trkpt lat="43.74580415756388" lon="10.819322272638951"><ele>18.333333333333332</ele><time>2026-04-19T09:02:34.001Z</time></trkpt><trkpt lat="43.745945919838675" lon="10.819367089031555"><ele>18.0</ele><time>2026-04-19T09:02:35.001Z</time></trkpt><trkpt lat="43.74610546428694" lon="10.819410292050225"><ele>18.0</ele><time>2026-04-19T09:02:36.001Z</time></trkpt><trkpt lat="43.746269281651706" lon="10.819483128166219"><ele>18.0</ele><time>2026-04-19T09:02:37.001Z</time></trkpt><trkpt lat="43.746423162971695" lon="10.819507760736602"><ele>18.0</ele><time>2026-04-19T09:02:38.001Z</time></trkpt><trkpt lat="43.74654218249321" lon="10.819543202569978"><ele>18.0</ele><time>2026-04-19T09:02:39.001Z</time></trkpt><trkpt lat="43.74665105268793" lon="10.819580315748926"><ele>18.0</ele><time>2026-04-19T09:02:40.001Z</time></trkpt><trkpt lat="43.74675960400185" lon="10.819619498636644"><ele>18.0</ele><time>2026-04-19T09:02:41.001Z</time></trkpt><trkpt lat="43.74689852411205" lon="10.81966619298574"><ele>18.0</ele><time>2026-04-19T09:02:42.001Z</time></trkpt><trkpt lat="43.747044105200864" lon="10.819712953893747"><ele>18.0</ele><time>2026-04-19T09:02:43.001Z</time></trkpt><trkpt lat="43.74718059909377" lon="10.81975776817322"><ele>17.666666666666668</ele><time>2026-04-19T09:02:44.001Z</time></trkpt><trkpt lat="43.74732783872465" lon="10.819804545375922"><ele>17.333333333333336</ele><time>2026-04-19T09:02:45.001Z</time></trkpt><trkpt lat="43.74748515317496" lon="10.819850048856553"><ele>17.0</ele><time>2026-04-19T09:02:46.001Z</time></trkpt><trkpt lat="43.74764578362438" lon="10.819898344799032"><ele>16.666666666666668</ele><time>2026-04-19T09:02:47.001Z</time></trkpt><trkpt lat="43.74779988664935" lon="10.819943515292412"><ele>16.333333333333332</ele><time>2026-04-19T09:02:48.001Z</time></trkpt><trkpt lat="43.747949227385455" lon="10.819990020034664"><ele>16.0</ele><time>2026-04-19T09:02:49.001Z</time></trkpt><trkpt lat="43.74809503111176" lon="10.820038497585287"><ele>16.0</ele><time>2026-04-19T09:02:50.001Z</time></trkpt><trkpt lat="43.74823788152351" lon="10.820084549012416"><ele>16.0</ele><time>2026-04-19T09:02:51.001Z</time></trkpt><trkpt lat="43.748387988242676" lon="10.820131395552444"><ele>16.0</ele><time>2026-04-19T09:02:52.001Z</time></trkpt><trkpt lat="43.748560619859916" lon="10.820185411814517"><ele>18.0</ele><time>2026-04-19T09:02:53.001Z</time></trkpt><trkpt lat="43.74874229322489" lon="10.820248643726636"><ele>20.0</ele><time>2026-04-19T09:02:54.001Z</time></trkpt><trkpt lat="43.74890484731785" lon="10.820316157240352"><ele>22.0</ele><time>2026-04-19T09:02:55.001Z</time></trkpt><trkpt lat="43.74905984889535" lon="10.820389851453536"><ele>22.0</ele><time>2026-04-19T09:02:56.001Z</time></trkpt><trkpt lat="43.74922104926772" lon="10.820399073153803"><ele>22.0</ele><time>2026-04-19T09:02:57.001Z</time></trkpt><trkpt lat="43.74936937287032" lon="10.820453283931167"><ele>22.0</ele><time>2026-04-19T09:02:58.001Z</time></trkpt><trkpt lat="43.749524133128425" lon="10.820502802063038"><ele>21.333333333333332</ele><time>2026-04-19T09:02:59.001Z</time></trkpt><trkpt lat="43.749685424727076" lon="10.82054320910485"><ele>20.666666666666668</ele><time>2026-04-19T09:03:00.001Z</time></trkpt><trkpt lat="43.74985487667594" lon="10.820602195626899"><ele>20.0</ele><time>2026-04-19T09:03:01.001Z</time></trkpt><trkpt lat="43.75002126483865" lon="10.820652764673875"><ele>20.0</ele><time>2026-04-19T09:03:02.001Z</time></trkpt><trkpt lat="43.75017685456875" lon="10.820695261632157"><ele>20.0</ele><time>2026-04-19T09:03:03.001Z</time></trkpt><trkpt lat="43.750325741655615" lon="10.820740810535547"><ele>20.0</ele><time>2026-04-19T09:03:04Z</time></trkpt><trkpt lat="43.750476877684804" lon="10.820796162208568"><ele>19.666666666666668</ele><time>2026-04-19T09:03:05Z</time></trkpt><trkpt lat="43.75064445316197" lon="10.820850868728707"><ele>19.333333333333332</ele><time>2026-04-19T09:03:06Z</time></trkpt><trkpt lat="43.750812012770446" lon="10.8208940357873"><ele>19.0</ele><time>2026-04-19T09:03:07Z</time></trkpt><trkpt lat="43.75096935980525" lon="10.820941992295786"><ele>19.25</ele><time>2026-04-19T09:03:08Z</time></trkpt><trkpt lat="43.7511220469604" lon="10.820986372769942"><ele>19.5</ele><time>2026-04-19T09:03:09Z</time></trkpt><trkpt lat="43.75126314603753" lon="10.82103364491791"><ele>19.75</ele><time>2026-04-19T09:03:10Z</time></trkpt><trkpt lat="43.7513886359635" lon="10.821079674910075"><ele>20.0</ele><time>2026-04-19T09:03:11Z</time></trkpt><trkpt lat="43.75152140040674" lon="10.821120868232422"><ele>20.0</ele><time>2026-04-19T09:03:12Z</time></trkpt><trkpt lat="43.75166266308971" lon="10.821162261739563"><ele>20.0</ele><time>2026-04-19T09:03:13Z</time></trkpt><trkpt lat="43.75180581453765" lon="10.821205267066544"><ele>20.0</ele><time>2026-04-19T09:03:14Z</time></trkpt><trkpt lat="43.75196067466945" lon="10.821252802658833"><ele>20.0</ele><time>2026-04-19T09:03:15Z</time></trkpt><trkpt lat="43.75212326873034" lon="10.821296763154065"><ele>19.666666666666668</ele><time>2026-04-19T09:03:16Z</time></trkpt><trkpt lat="43.75230800227093" lon="10.821374357102675"><ele>19.333333333333332</ele><time>2026-04-19T09:03:17Z</time></trkpt><trkpt lat="43.752513292734896" lon="10.821439540543711"><ele>19.0</ele><time>2026-04-19T09:03:18Z</time></trkpt><trkpt lat="43.75273309419373" lon="10.821509331475543"><ele>19.0</ele><time>2026-04-19T09:03:19Z</time></trkpt><trkpt lat="43.752978807899936" lon="10.821570819740254"><ele>19.0</ele><time>2026-04-19T09:03:20Z</time></trkpt><trkpt lat="43.75319464204532" lon="10.821644946380603"><ele>19.0</ele><time>2026-04-19T09:03:21Z</time></trkpt><trkpt lat="43.7534061772241" lon="10.821718657431436"><ele>19.0</ele><time>2026-04-19T09:03:22Z</time></trkpt><trkpt lat="43.75362920550257" lon="10.821789966007023"><ele>19.0</ele><time>2026-04-19T09:03:23Z</time></trkpt><trkpt lat="43.753863148096286" lon="10.8218623601287"><ele>18.5</ele><time>2026-04-19T09:03:24Z</time></trkpt><trkpt lat="43.7541027027289" lon="10.821940119342209"><ele>18.0</ele><time>2026-04-19T09:03:25Z</time></trkpt><trkpt lat="43.754338019945244" lon="10.822015071831709"><ele>18.0</ele><time>2026-04-19T09:03:26Z</time></trkpt><trkpt lat="43.754558176415124" lon="10.82208852539868"><ele>18.0</ele><time>2026-04-19T09:03:27Z</time></trkpt><trkpt lat="43.75476755876399" lon="10.822156417404537"><ele>18.0</ele><time>2026-04-19T09:03:28Z</time></trkpt><trkpt lat="43.754981716762316" lon="10.822225689958213"><ele>17.5</ele><time>2026-04-19T09:03:29Z</time></trkpt><trkpt lat="43.75520958245592" lon="10.82229710023148"><ele>17.0</ele><time>2026-04-19T09:03:30Z</time></trkpt><trkpt lat="43.7554467637352" lon="10.822369389187106"><ele>17.0</ele><time>2026-04-19T09:03:31Z</time></trkpt><trkpt lat="43.75568072611246" lon="10.82244319012736"><ele>17.0</ele><time>2026-04-19T09:03:32Z</time></trkpt><trkpt lat="43.75589383994631" lon="10.822513293215836"><ele>17.333333333333336</ele><time>2026-04-19T09:03:33Z</time></trkpt><trkpt lat="43.7560959312137" lon="10.822578865810721"><ele>17.666666666666668</ele><time>2026-04-19T09:03:34Z</time></trkpt><trkpt lat="43.75628873488803" lon="10.822642699518678"><ele>18.0</ele><time>2026-04-19T09:03:35Z</time></trkpt><trkpt lat="43.75648401548396" lon="10.822703698119001"><ele>18.5</ele><time>2026-04-19T09:03:36Z</time></trkpt><trkpt lat="43.75669964962344" lon="10.822762391761389"><ele>19.0</ele><time>2026-04-19T09:03:37Z</time></trkpt><trkpt lat="43.756923936311765" lon="10.822835854102234"><ele>19.0</ele><time>2026-04-19T09:03:38Z</time></trkpt><trkpt lat="43.75713766068131" lon="10.822910894258708"><ele>19.0</ele><time>2026-04-19T09:03:39Z</time></trkpt><trkpt lat="43.75733696798569" lon="10.822971938667001"><ele>19.0</ele><time>2026-04-19T09:03:40Z</time></trkpt><trkpt lat="43.757539954104715" lon="10.823036061490706"><ele>18.333333333333332</ele><time>2026-04-19T09:03:41Z</time></trkpt><trkpt lat="43.75775690836472" lon="10.82310551795783"><ele>17.666666666666668</ele><time>2026-04-19T09:03:42Z</time></trkpt><trkpt lat="43.75797477832984" lon="10.823177955594456"><ele>17.0</ele><time>2026-04-19T09:03:43Z</time></trkpt><trkpt lat="43.758175231761975" lon="10.823239187507054"><ele>17.0</ele><time>2026-04-19T09:03:44Z</time></trkpt><trkpt lat="43.75835728553685" lon="10.823297489476584"><ele>17.0</ele><time>2026-04-19T09:03:45Z</time></trkpt><trkpt lat="43.758529801359266" lon="10.823352341414894"><ele>17.0</ele><time>2026-04-19T09:03:46Z</time></trkpt><trkpt lat="43.75870091513607" lon="10.823408252355552"><ele>17.333333333333336</ele><time>2026-04-19T09:03:47Z</time></trkpt><trkpt lat="43.75886823827376" lon="10.823463176320606"><ele>17.666666666666668</ele><time>2026-04-19T09:03:48Z</time></trkpt><trkpt lat="43.75902779750196" lon="10.823514806952756"><ele>18.0</ele><time>2026-04-19T09:03:49Z</time></trkpt><trkpt lat="43.759190598619895" lon="10.823564888152532"><ele>18.333333333333332</ele><time>2026-04-19T09:03:50Z</time></trkpt><trkpt lat="43.75936056655537" lon="10.823617778403356"><ele>18.666666666666664</ele><time>2026-04-19T09:03:51Z</time></trkpt><trkpt lat="43.75953325371392" lon="10.823673787837327"><ele>19.0</ele><time>2026-04-19T09:03:52Z</time></trkpt><trkpt lat="43.75969753470805" lon="10.823727025140313"><ele>19.0</ele><time>2026-04-19T09:03:53Z</time></trkpt><trkpt lat="43.759854735367746" lon="10.823776421580806"><ele>19.0</ele><time>2026-04-19T09:03:54Z</time></trkpt><trkpt lat="43.76001923556723" lon="10.823825343498223"><ele>19.0</ele><time>2026-04-19T09:03:55Z</time></trkpt><trkpt lat="43.76018971293115" lon="10.823880996364615"><ele>18.75</ele><time>2026-04-19T09:03:56Z</time></trkpt><trkpt lat="43.76033029550734" lon="10.823930033633188"><ele>18.5</ele><time>2026-04-19T09:03:57Z</time></trkpt><trkpt lat="43.76045705507358" lon="10.823973213764353"><ele>18.25</ele><time>2026-04-19T09:03:58Z</time></trkpt><trkpt lat="43.76056768033814" lon="10.824010846908154"><ele>18.0</ele><time>2026-04-19T09:03:59Z</time></trkpt><trkpt lat="43.76067466182549" lon="10.824046952183119"><ele>18.0</ele><time>2026-04-19T09:04:00Z</time></trkpt><trkpt lat="43.76077772540763" lon="10.82407912780865"><ele>18.0</ele><time>2026-04-19T09:04:01Z</time></trkpt><trkpt lat="43.76088235449005" lon="10.824112058080004"><ele>18.0</ele><time>2026-04-19T09:04:02Z</time></trkpt><trkpt lat="43.760982689409005" lon="10.824142717782282"><ele>18.0</ele><time>2026-04-19T09:04:03Z</time></trkpt><trkpt lat="43.76107982951039" lon="10.824174542976506"><ele>18.0</ele><time>2026-04-19T09:04:04Z</time></trkpt><trkpt lat="43.76117822768816" lon="10.82420641896177"><ele>18.0</ele><time>2026-04-19T09:04:05Z</time></trkpt><trkpt lat="43.76128039661" lon="10.824238527593991"><ele>18.0</ele><time>2026-04-19T09:04:06Z</time></trkpt><trkpt lat="43.76138670500857" lon="10.824270639912895"><ele>18.0</ele><time>2026-04-19T09:04:07Z</time></trkpt><trkpt lat="43.76149573386754" lon="10.824305494589382"><ele>18.0</ele><time>2026-04-19T09:04:08Z</time></trkpt><trkpt lat="43.76161411313656" lon="10.8243434849016"><ele>18.0</ele><time>2026-04-19T09:04:09Z</time></trkpt><trkpt lat="43.76174826310798" lon="10.824386689445545"><ele>17.666666666666668</ele><time>2026-04-19T09:04:10Z</time></trkpt><trkpt lat="43.76190158309579" lon="10.82443401948166"><ele>17.333333333333336</ele><time>2026-04-19T09:04:11Z</time></trkpt><trkpt lat="43.76208824775955" lon="10.824492811626692"><ele>17.0</ele><time>2026-04-19T09:04:12.001Z</time></trkpt><trkpt lat="43.76225775475103" lon="10.824546723169263"><ele>17.0</ele><time>2026-04-19T09:04:13Z</time></trkpt><trkpt lat="43.762412056479455" lon="10.824596784884188"><ele>17.0</ele><time>2026-04-19T09:04:14Z</time></trkpt><trkpt lat="43.762564275483065" lon="10.824645470839934"><ele>17.0</ele><time>2026-04-19T09:04:15Z</time></trkpt><trkpt lat="43.762707374061435" lon="10.824691561960643"><ele>17.5</ele><time>2026-04-19T09:04:16Z</time></trkpt><trkpt lat="43.762846131022044" lon="10.824736696290007"><ele>18.0</ele><time>2026-04-19T09:04:17Z</time></trkpt><trkpt lat="43.762980593507486" lon="10.824780350242728"><ele>18.5</ele><time>2026-04-19T09:04:18Z</time></trkpt><trkpt lat="43.7631103093464" lon="10.824820826128013"><ele>19.0</ele><time>2026-04-19T09:04:19Z</time></trkpt><trkpt lat="43.76322302855671" lon="10.824861361460421"><ele>19.0</ele><time>2026-04-19T09:04:20Z</time></trkpt><trkpt lat="43.763326702858365" lon="10.824894213890225"><ele>19.0</ele><time>2026-04-19T09:04:21Z</time></trkpt><trkpt lat="43.76342419191688" lon="10.82492692160593"><ele>19.0</ele><time>2026-04-19T09:04:22Z</time></trkpt><trkpt lat="43.76352266152895" lon="10.824961486263488"><ele>19.0</ele><time>2026-04-19T09:04:23Z</time></trkpt><trkpt lat="43.76362285814976" lon="10.824987130592957"><ele>19.0</ele><time>2026-04-19T09:04:24Z</time></trkpt><trkpt lat="43.7637294115211" lon="10.825028195646077"><ele>18.75</ele><time>2026-04-19T09:04:25Z</time></trkpt><trkpt lat="43.76384122275214" lon="10.82506644247007"><ele>18.5</ele><time>2026-04-19T09:04:26Z</time></trkpt><trkpt lat="43.76395518667094" lon="10.825099184488579"><ele>18.25</ele><time>2026-04-19T09:04:27Z</time></trkpt><trkpt lat="43.7640675956495" lon="10.825136242101888"><ele>18.0</ele><time>2026-04-19T09:04:28Z</time></trkpt><trkpt lat="43.764182528178715" lon="10.82517359032987"><ele>18.0</ele><time>2026-04-19T09:04:29Z</time></trkpt><trkpt lat="43.764295060144725" lon="10.825212300357778"><ele>18.0</ele><time>2026-04-19T09:04:30Z</time></trkpt><trkpt lat="43.764406495160024" lon="10.825247270069227"><ele>18.0</ele><time>2026-04-19T09:04:31Z</time></trkpt><trkpt lat="43.764516032905526" lon="10.825282725787057"><ele>18.0</ele><time>2026-04-19T09:04:32Z</time></trkpt><trkpt lat="43.76462642686462" lon="10.825321226806704"><ele>18.0</ele><time>2026-04-19T09:04:33Z</time></trkpt><trkpt lat="43.764736957141125" lon="10.825357470235874"><ele>18.0</ele><time>2026-04-19T09:04:34Z</time></trkpt><trkpt lat="43.76484743248427" lon="10.825387795395692"><ele>18.0</ele><time>2026-04-19T09:04:35Z</time></trkpt><trkpt lat="43.76496071017888" lon="10.82542151487143"><ele>18.0</ele><time>2026-04-19T09:04:36Z</time></trkpt><trkpt lat="43.765073850430326" lon="10.825455468017505"><ele>18.0</ele><time>2026-04-19T09:04:37Z</time></trkpt><trkpt lat="43.765187560876875" lon="10.825489566515147"><ele>18.0</ele><time>2026-04-19T09:04:38Z</time></trkpt><trkpt lat="43.76530340017425" lon="10.825526017609048"><ele>18.0</ele><time>2026-04-19T09:04:39Z</time></trkpt><trkpt lat="43.76542442597483" lon="10.825564204510062"><ele>18.0</ele><time>2026-04-19T09:04:40Z</time></trkpt><trkpt lat="43.76554664800551" lon="10.825606785504917"><ele>18.25</ele><time>2026-04-19T09:04:41Z</time></trkpt><trkpt lat="43.76566836296827" lon="10.825649108621382"><ele>18.5</ele><time>2026-04-19T09:04:42Z</time></trkpt><trkpt lat="43.76578925686856" lon="10.825685422750118"><ele>18.75</ele><time>2026-04-19T09:04:43Z</time></trkpt><trkpt lat="43.76590708182149" lon="10.82572248293514"><ele>19.0</ele><time>2026-04-19T09:04:44Z</time></trkpt><trkpt lat="43.766022165656295" lon="10.825757263130223"><ele>19.25</ele><time>2026-04-19T09:04:45Z</time></trkpt><trkpt lat="43.76613609811069" lon="10.825792561446393"><ele>19.5</ele><time>2026-04-19T09:04:46Z</time></trkpt><trkpt lat="43.76624765999757" lon="10.825828326833618"><ele>19.75</ele><time>2026-04-19T09:04:47Z</time></trkpt><trkpt lat="43.76636125735334" lon="10.825863553295706"><ele>20.0</ele><time>2026-04-19T09:04:48Z</time></trkpt><trkpt lat="43.76646956276372" lon="10.825896669449214"><ele>20.0</ele><time>2026-04-19T09:04:49Z</time></trkpt><trkpt lat="43.76657571722544" lon="10.8259309842499"><ele>20.0</ele><time>2026-04-19T09:04:50Z</time></trkpt><trkpt lat="43.76668213016286" lon="10.82596576386821"><ele>20.0</ele><time>2026-04-19T09:04:51Z</time></trkpt><trkpt lat="43.76679681967329" lon="10.826006820832818"><ele>20.0</ele><time>2026-04-19T09:04:52Z</time></trkpt><trkpt lat="43.76693114454006" lon="10.826041133025146"><ele>19.75</ele><time>2026-04-19T09:04:53Z</time></trkpt><trkpt lat="43.76708083865355" lon="10.826087759899568"><ele>19.5</ele><time>2026-04-19T09:04:54Z</time></trkpt><trkpt lat="43.76722759051708" lon="10.82614196495001"><ele>19.25</ele><time>2026-04-19T09:04:55Z</time></trkpt><trkpt lat="43.767363928409985" lon="10.826181631873792"><ele>19.0</ele><time>2026-04-19T09:04:56Z</time></trkpt><trkpt lat="43.767490707504386" lon="10.826223517703307"><ele>19.0</ele><time>2026-04-19T09:04:57Z</time></trkpt><trkpt lat="43.767623633065654" lon="10.826263019422695"><ele>19.0</ele><time>2026-04-19T09:04:58Z</time></trkpt><trkpt lat="43.767763101401165" lon="10.826301442315897"><ele>19.0</ele><time>2026-04-19T09:04:59Z</time></trkpt><trkpt lat="43.7678989737367" lon="10.826344496132437"><ele>19.0</ele><time>2026-04-19T09:05:00Z</time></trkpt><trkpt lat="43.76802475394854" lon="10.826389126594961"><ele>18.75</ele><time>2026-04-19T09:05:01Z</time></trkpt><trkpt lat="43.76815208274737" lon="10.826434861348217"><ele>18.5</ele><time>2026-04-19T09:05:02Z</time></trkpt><trkpt lat="43.7682781744177" lon="10.826489630437296"><ele>18.25</ele><time>2026-04-19T09:05:03Z</time></trkpt><trkpt lat="43.76840178191333" lon="10.826552375365452"><ele>18.0</ele><time>2026-04-19T09:05:04Z</time></trkpt><trkpt lat="43.76851837959062" lon="10.826635715600315"><ele>18.0</ele><time>2026-04-19T09:05:05Z</time></trkpt><trkpt lat="43.768631168326586" lon="10.826724757094881"><ele>18.0</ele><time>2026-04-19T09:05:06Z</time></trkpt><trkpt lat="43.7687406830645" lon="10.82684996687677"><ele>18.0</ele><time>2026-04-19T09:05:07Z</time></trkpt><trkpt lat="43.76885340428696" lon="10.826994221843504"><ele>18.0</ele><time>2026-04-19T09:05:08Z</time></trkpt><trkpt lat="43.768962178006696" lon="10.82714250579042"><ele>18.666666666666668</ele><time>2026-04-19T09:05:09Z</time></trkpt><trkpt lat="43.76906928305961" lon="10.82731744408157"><ele>19.333333333333336</ele><time>2026-04-19T09:05:10Z</time></trkpt><trkpt lat="43.769180299177755" lon="10.827511820917925"><ele>20.0</ele><time>2026-04-19T09:05:11Z</time></trkpt><trkpt lat="43.76929179543384" lon="10.827697077806295"><ele>20.333333333333336</ele><time>2026-04-19T09:05:12Z</time></trkpt><trkpt lat="43.769406333393505" lon="10.82788161885538"><ele>20.666666666666668</ele><time>2026-04-19T09:05:13Z</time></trkpt><trkpt lat="43.769513324068036" lon="10.828055815126481"><ele>21.0</ele><time>2026-04-19T09:05:14Z</time></trkpt><trkpt lat="43.76961616901858" lon="10.828228413332948"><ele>21.0</ele><time>2026-04-19T09:05:15Z</time></trkpt><trkpt lat="43.76971540440025" lon="10.828398852143698"><ele>21.0</ele><time>2026-04-19T09:05:16Z</time></trkpt><trkpt lat="43.76981315897359" lon="10.8285607086768"><ele>21.0</ele><time>2026-04-19T09:05:17Z</time></trkpt><trkpt lat="43.769907277015385" lon="10.828712921507108"><ele>20.75</ele><time>2026-04-19T09:05:18Z</time></trkpt><trkpt lat="43.77000227990627" lon="10.82885579098069"><ele>20.5</ele><time>2026-04-19T09:05:19Z</time></trkpt><trkpt lat="43.770103401301974" lon="10.828991015099003"><ele>20.25</ele><time>2026-04-19T09:05:20Z</time></trkpt><trkpt lat="43.770202753097" lon="10.829118195031871"><ele>20.0</ele><time>2026-04-19T09:05:21Z</time></trkpt><trkpt lat="43.77030315294095" lon="10.829239678015963"><ele>20.0</ele><time>2026-04-19T09:05:22Z</time></trkpt><trkpt lat="43.77040300301411" lon="10.829345847879335"><ele>20.0</ele><time>2026-04-19T09:05:23Z</time></trkpt><trkpt lat="43.770511900512204" lon="10.829440969147266"><ele>20.0</ele><time>2026-04-19T09:05:24Z</time></trkpt><trkpt lat="43.77063350863187" lon="10.829530043557183"><ele>20.0</ele><time>2026-04-19T09:05:25Z</time></trkpt><trkpt lat="43.770779907667745" lon="10.829620258793126"><ele>20.0</ele><time>2026-04-19T09:05:26Z</time></trkpt><trkpt lat="43.77095090727224" lon="10.82970193946007"><ele>20.0</ele><time>2026-04-19T09:05:27Z</time></trkpt><trkpt lat="43.77113194562464" lon="10.82978073272139"><ele>20.0</ele><time>2026-04-19T09:05:28Z</time></trkpt><trkpt lat="43.771325588477254" lon="10.829860103566194"><ele>19.666666666666668</ele><time>2026-04-19T09:05:29Z</time></trkpt><trkpt lat="43.77150849492699" lon="10.829928583738996"><ele>19.333333333333332</ele><time>2026-04-19T09:05:30Z</time></trkpt><trkpt lat="43.771669168586115" lon="10.829993764955605"><ele>19.0</ele><time>2026-04-19T09:05:31Z</time></trkpt><trkpt lat="43.77182329753775" lon="10.830073500621747"><ele>18.75</ele><time>2026-04-19T09:05:32Z</time></trkpt><trkpt lat="43.77197033462875" lon="10.830112395237908"><ele>18.5</ele><time>2026-04-19T09:05:33Z</time></trkpt><trkpt lat="43.77210685119721" lon="10.830166467439794"><ele>18.25</ele><time>2026-04-19T09:05:34Z</time></trkpt><trkpt lat="43.772248530431796" lon="10.830224498478481"><ele>18.0</ele><time>2026-04-19T09:05:35Z</time></trkpt><trkpt lat="43.772383596542674" lon="10.830277011817055"><ele>18.0</ele><time>2026-04-19T09:05:36Z</time></trkpt><trkpt lat="43.772517994171295" lon="10.830330641178648"><ele>18.0</ele><time>2026-04-19T09:05:37Z</time></trkpt><trkpt lat="43.772652073533074" lon="10.830383443434332"><ele>18.0</ele><time>2026-04-19T09:05:38Z</time></trkpt><trkpt lat="43.77278590916889" lon="10.830432122504133"><ele>18.0</ele><time>2026-04-19T09:05:39Z</time></trkpt><trkpt lat="43.772915868956865" lon="10.83048179780419"><ele>18.25</ele><time>2026-04-19T09:05:40Z</time></trkpt><trkpt lat="43.773030184193395" lon="10.830522925404669"><ele>18.5</ele><time>2026-04-19T09:05:41Z</time></trkpt><trkpt lat="43.7731328249536" lon="10.830582325995998"><ele>18.75</ele><time>2026-04-19T09:05:42Z</time></trkpt><trkpt lat="43.773253233919284" lon="10.830628726333456"><ele>19.0</ele><time>2026-04-19T09:05:43Z</time></trkpt><trkpt lat="43.77337859661901" lon="10.830677002379637"><ele>19.0</ele><time>2026-04-19T09:05:44Z</time></trkpt><trkpt lat="43.773510369937625" lon="10.830708380551153"><ele>19.0</ele><time>2026-04-19T09:05:45Z</time></trkpt><trkpt lat="43.77364099394059" lon="10.830763431535892"><ele>19.0</ele><time>2026-04-19T09:05:46Z</time></trkpt><trkpt lat="43.77377143413296" lon="10.83081397838787"><ele>19.0</ele><time>2026-04-19T09:05:47Z</time></trkpt><trkpt lat="43.77392725288516" lon="10.830891334220276"><ele>19.75</ele><time>2026-04-19T09:05:48Z</time></trkpt><trkpt lat="43.77405169357765" lon="10.830932542647282"><ele>20.5</ele><time>2026-04-19T09:05:49Z</time></trkpt><trkpt lat="43.77418741296989" lon="10.830987081818495"><ele>21.25</ele><time>2026-04-19T09:05:50Z</time></trkpt><trkpt lat="43.77432264922638" lon="10.831040441967923"><ele>22.0</ele><time>2026-04-19T09:05:51Z</time></trkpt><trkpt lat="43.77446223781691" lon="10.83109831018607"><ele>23.666666666666664</ele><time>2026-04-19T09:05:52Z</time></trkpt><trkpt lat="43.77460869772849" lon="10.83115378210815"><ele>25.333333333333332</ele><time>2026-04-19T09:05:53Z</time></trkpt><trkpt lat="43.774754776531495" lon="10.831207649107034"><ele>27.0</ele><time>2026-04-19T09:05:54Z</time></trkpt><trkpt lat="43.774899204207706" lon="10.831262170035828"><ele>27.0</ele><time>2026-04-19T09:05:55Z</time></trkpt><trkpt lat="43.77505194451418" lon="10.831315633012897"><ele>27.0</ele><time>2026-04-19T09:05:56Z</time></trkpt><trkpt lat="43.77520870878844" lon="10.831371582681337"><ele>27.0</ele><time>2026-04-19T09:05:57Z</time></trkpt><trkpt lat="43.77536912707161" lon="10.831432849521468"><ele>26.333333333333336</ele><time>2026-04-19T09:05:58Z</time></trkpt><trkpt lat="43.77553817587304" lon="10.83150531275213"><ele>25.666666666666668</ele><time>2026-04-19T09:05:59Z</time></trkpt><trkpt lat="43.7756979927321" lon="10.831566734022315"><ele>25.0</ele><time>2026-04-19T09:06:00Z</time></trkpt><trkpt lat="43.775849799838674" lon="10.831623596721055"><ele>25.0</ele><time>2026-04-19T09:06:01Z</time></trkpt><trkpt lat="43.7759961253504" lon="10.831683262612282"><ele>25.0</ele><time>2026-04-19T09:06:02Z</time></trkpt><trkpt lat="43.77614342048151" lon="10.831740065298865"><ele>25.0</ele><time>2026-04-19T09:06:03Z</time></trkpt><trkpt lat="43.77629982875391" lon="10.831820807670459"><ele>26.0</ele><time>2026-04-19T09:06:04Z</time></trkpt><trkpt lat="43.776467560720405" lon="10.831865257741415"><ele>27.0</ele><time>2026-04-19T09:06:05Z</time></trkpt><trkpt lat="43.77663398940588" lon="10.831943993996651"><ele>28.0</ele><time>2026-04-19T09:06:06Z</time></trkpt><trkpt lat="43.776778645305875" lon="10.831993539199967"><ele>26.333333333333336</ele><time>2026-04-19T09:06:07Z</time></trkpt><trkpt lat="43.7769161157655" lon="10.832061738816732"><ele>24.666666666666668</ele><time>2026-04-19T09:06:08Z</time></trkpt><trkpt lat="43.77706856985391" lon="10.832101055001447"><ele>23.0</ele><time>2026-04-19T09:06:09Z</time></trkpt><trkpt lat="43.77722211614219" lon="10.832160294008705"><ele>23.0</ele><time>2026-04-19T09:06:10Z</time></trkpt><trkpt lat="43.777372552799065" lon="10.832223936224787"><ele>23.0</ele><time>2026-04-19T09:06:11Z</time></trkpt><trkpt lat="43.77751973383921" lon="10.832280369677239"><ele>23.0</ele><time>2026-04-19T09:06:12Z</time></trkpt><trkpt lat="43.77766285003242" lon="10.832347306949167"><ele>22.0</ele><time>2026-04-19T09:06:13Z</time></trkpt><trkpt lat="43.77779763808021" lon="10.832425386479471"><ele>21.0</ele><time>2026-04-19T09:06:14Z</time></trkpt><trkpt lat="43.777943844466456" lon="10.83252611069493"><ele>20.0</ele><time>2026-04-19T09:06:15Z</time></trkpt><trkpt lat="43.778096514301765" lon="10.832638535992729"><ele>21.0</ele><time>2026-04-19T09:06:16Z</time></trkpt><trkpt lat="43.778239434302726" lon="10.832764504630829"><ele>22.0</ele><time>2026-04-19T09:06:17Z</time></trkpt><trkpt lat="43.77837749990171" lon="10.832895997893532"><ele>23.0</ele><time>2026-04-19T09:06:18Z</time></trkpt><trkpt lat="43.77849964560647" lon="10.83301739350668"><ele>22.25</ele><time>2026-04-19T09:06:19Z</time></trkpt><trkpt lat="43.77860804332682" lon="10.833127366527759"><ele>21.5</ele><time>2026-04-19T09:06:20Z</time></trkpt><trkpt lat="43.77871173021673" lon="10.833232798417189"><ele>20.75</ele><time>2026-04-19T09:06:21Z</time></trkpt><trkpt lat="43.77881377641873" lon="10.833323788966705"><ele>20.0</ele><time>2026-04-19T09:06:22Z</time></trkpt><trkpt lat="43.77891233880792" lon="10.833430343848711"><ele>20.0</ele><time>2026-04-19T09:06:23Z</time></trkpt><trkpt lat="43.779012457717855" lon="10.833533720090434"><ele>20.0</ele><time>2026-04-19T09:06:24Z</time></trkpt><trkpt lat="43.779113565566924" lon="10.833632386859623"><ele>20.0</ele><time>2026-04-19T09:06:25Z</time></trkpt><trkpt lat="43.779215677333305" lon="10.833726955314274"><ele>20.0</ele><time>2026-04-19T09:06:26Z</time></trkpt><trkpt lat="43.77931240371427" lon="10.833819158478986"><ele>19.5</ele><time>2026-04-19T09:06:27Z</time></trkpt><trkpt lat="43.779403908808796" lon="10.833907830349302"><ele>19.0</ele><time>2026-04-19T09:06:28Z</time></trkpt><trkpt lat="43.779496549174326" lon="10.83399177389478"><ele>18.5</ele><time>2026-04-19T09:06:29Z</time></trkpt><trkpt lat="43.779602095710416" lon="10.834062841252665"><ele>18.0</ele><time>2026-04-19T09:06:30Z</time></trkpt><trkpt lat="43.77971414671803" lon="10.834106307005891"><ele>18.0</ele><time>2026-04-19T09:06:31Z</time></trkpt><trkpt lat="43.77982778489198" lon="10.834127191120453"><ele>18.0</ele><time>2026-04-19T09:06:32Z</time></trkpt><trkpt lat="43.77993181227351" lon="10.834131174574058"><ele>18.0</ele><time>2026-04-19T09:06:33Z</time></trkpt><trkpt lat="43.7800327859101" lon="10.834131035665486"><ele>18.0</ele><time>2026-04-19T09:06:34Z</time></trkpt><trkpt lat="43.78013495299629" lon="10.834109403730272"><ele>18.0</ele><time>2026-04-19T09:06:35Z</time></trkpt><trkpt lat="43.780230336984964" lon="10.83407680804139"><ele>18.0</ele><time>2026-04-19T09:06:36Z</time></trkpt><trkpt lat="43.7803135542431" lon="10.834027842768794"><ele>18.0</ele><time>2026-04-19T09:06:37Z</time></trkpt><trkpt lat="43.780386960569025" lon="10.833981466240209"><ele>18.0</ele><time>2026-04-19T09:06:38Z</time></trkpt><trkpt lat="43.78046747766206" lon="10.833934019487028"><ele>18.0</ele><time>2026-04-19T09:06:39Z</time></trkpt><trkpt lat="43.78055921621401" lon="10.833879434987223"><ele>18.0</ele><time>2026-04-19T09:06:40Z</time></trkpt><trkpt lat="43.780655858482675" lon="10.833825288236712"><ele>18.0</ele><time>2026-04-19T09:06:41Z</time></trkpt><trkpt lat="43.780755240700366" lon="10.83377537982535"><ele>18.0</ele><time>2026-04-19T09:06:42Z</time></trkpt><trkpt lat="43.780848136241" lon="10.833711423719247"><ele>18.0</ele><time>2026-04-19T09:06:43Z</time></trkpt><trkpt lat="43.78093983476325" lon="10.833656175026183"><ele>18.0</ele><time>2026-04-19T09:06:44Z</time></trkpt><trkpt lat="43.78102880298902" lon="10.833591213858927"><ele>18.0</ele><time>2026-04-19T09:06:45Z</time></trkpt><trkpt lat="43.78112307267357" lon="10.833517665242093"><ele>18.4</ele><time>2026-04-19T09:06:46Z</time></trkpt><trkpt lat="43.78121560377423" lon="10.833430534691216"><ele>18.8</ele><time>2026-04-19T09:06:47Z</time></trkpt><trkpt lat="43.78130327737966" lon="10.833352852840068"><ele>19.2</ele><time>2026-04-19T09:06:48Z</time></trkpt><trkpt lat="43.78138917729439" lon="10.833274481702"><ele>19.6</ele><time>2026-04-19T09:06:49Z</time></trkpt><trkpt lat="43.781476137137496" lon="10.833203865310423"><ele>20.0</ele><time>2026-04-19T09:06:50Z</time></trkpt><trkpt lat="43.78156223318523" lon="10.833126572331084"><ele>20.0</ele><time>2026-04-19T09:06:51Z</time></trkpt><trkpt lat="43.78165125373916" lon="10.83304416137147"><ele>20.0</ele><time>2026-04-19T09:06:52Z</time></trkpt><trkpt lat="43.781751909435286" lon="10.832973746715984"><ele>20.0</ele><time>2026-04-19T09:06:53Z</time></trkpt><trkpt lat="43.78183664935995" lon="10.832893748809724"><ele>20.0</ele><time>2026-04-19T09:06:54Z</time></trkpt><trkpt lat="43.78192821320259" lon="10.832815008845925"><ele>20.0</ele><time>2026-04-19T09:06:55Z</time></trkpt><trkpt lat="43.78201638147957" lon="10.832722744409063"><ele>20.0</ele><time>2026-04-19T09:06:56Z</time></trkpt><trkpt lat="43.782110621993624" lon="10.832647139636125"><ele>20.0</ele><time>2026-04-19T09:06:57Z</time></trkpt><trkpt lat="43.78221300389255" lon="10.832572457395422"><ele>20.0</ele><time>2026-04-19T09:06:58Z</time></trkpt><trkpt lat="43.782311090204075" lon="10.832489165831912"><ele>20.0</ele><time>2026-04-19T09:06:59Z</time></trkpt><trkpt lat="43.78240687673777" lon="10.832419554438417"><ele>20.0</ele><time>2026-04-19T09:07:00Z</time></trkpt><trkpt lat="43.78249770522067" lon="10.832334198439819"><ele>20.0</ele><time>2026-04-19T09:07:01Z</time></trkpt><trkpt lat="43.78259115520289" lon="10.83225234704859"><ele>20.0</ele><time>2026-04-19T09:07:02Z</time></trkpt><trkpt lat="43.78267454079409" lon="10.832151773954113"><ele>20.0</ele><time>2026-04-19T09:07:03Z</time></trkpt><trkpt lat="43.78276671574287" lon="10.832065827094949"><ele>20.0</ele><time>2026-04-19T09:07:04Z</time></trkpt><trkpt lat="43.782861104341926" lon="10.831978575360985"><ele>20.0</ele><time>2026-04-19T09:07:05Z</time></trkpt><trkpt lat="43.78297336828383" lon="10.831900394718176"><ele>19.75</ele><time>2026-04-19T09:07:06Z</time></trkpt><trkpt lat="43.78307706035998" lon="10.831809110148482"><ele>19.5</ele><time>2026-04-19T09:07:07Z</time></trkpt><trkpt lat="43.78318115251665" lon="10.831716659433553"><ele>19.25</ele><time>2026-04-19T09:07:08Z</time></trkpt><trkpt lat="43.783288095656886" lon="10.831622928136039"><ele>19.0</ele><time>2026-04-19T09:07:09Z</time></trkpt><trkpt lat="43.78339070938888" lon="10.831530821109093"><ele>19.0</ele><time>2026-04-19T09:07:10Z</time></trkpt><trkpt lat="43.783496356221605" lon="10.831436149813696"><ele>19.0</ele><time>2026-04-19T09:07:11Z</time></trkpt><trkpt lat="43.78359370216727" lon="10.831329537638188"><ele>19.0</ele><time>2026-04-19T09:07:12Z</time></trkpt><trkpt lat="43.78369039272291" lon="10.8312392391562"><ele>19.0</ele><time>2026-04-19T09:07:13Z</time></trkpt><trkpt lat="43.78379624211461" lon="10.831169364850634"><ele>19.0</ele><time>2026-04-19T09:07:14Z</time></trkpt><trkpt lat="43.78389256781957" lon="10.831083207298963"><ele>19.0</ele><time>2026-04-19T09:07:15Z</time></trkpt><trkpt lat="43.78397733515861" lon="10.83098161257809"><ele>19.0</ele><time>2026-04-19T09:07:16Z</time></trkpt><trkpt lat="43.78406457777519" lon="10.830910339621127"><ele>19.0</ele><time>2026-04-19T09:07:17Z</time></trkpt><trkpt lat="43.784146050361386" lon="10.83084414926003"><ele>19.0</ele><time>2026-04-19T09:07:18Z</time></trkpt><trkpt lat="43.78423797792644" lon="10.830769482719289"><ele>19.0</ele><time>2026-04-19T09:07:19Z</time></trkpt><trkpt lat="43.784336706715514" lon="10.83070580233812"><ele>19.0</ele><time>2026-04-19T09:07:20Z</time></trkpt><trkpt lat="43.78442761561152" lon="10.830668966930773"><ele>19.0</ele><time>2026-04-19T09:07:21Z</time></trkpt><trkpt lat="43.78452904474316" lon="10.830653089982546"><ele>19.0</ele><time>2026-04-19T09:07:22Z</time></trkpt><trkpt lat="43.784627135056326" lon="10.830666245992791"><ele>19.0</ele><time>2026-04-19T09:07:23Z</time></trkpt><trkpt lat="43.784724511056105" lon="10.830692069504446"><ele>19.0</ele><time>2026-04-19T09:07:24Z</time></trkpt><trkpt lat="43.78481106737987" lon="10.830732192706616"><ele>19.0</ele><time>2026-04-19T09:07:25Z</time></trkpt><trkpt lat="43.78489137248044" lon="10.83080618790929"><ele>19.0</ele><time>2026-04-19T09:07:26Z</time></trkpt><trkpt lat="43.784970495213436" lon="10.830924986954898"><ele>19.0</ele><time>2026-04-19T09:07:27Z</time></trkpt><trkpt lat="43.78504186456468" lon="10.831083063366897"><ele>19.0</ele><time>2026-04-19T09:07:28Z</time></trkpt><trkpt lat="43.78509303239616" lon="10.831237744982264"><ele>19.0</ele><time>2026-04-19T09:07:29Z</time></trkpt><trkpt lat="43.785143311042525" lon="10.831376102966313"><ele>19.0</ele><time>2026-04-19T09:07:30Z</time></trkpt><trkpt lat="43.78519782866834" lon="10.83152879215305"><ele>19.0</ele><time>2026-04-19T09:07:31Z</time></trkpt><trkpt lat="43.78524631294645" lon="10.8316836224376"><ele>19.0</ele><time>2026-04-19T09:07:32Z</time></trkpt><trkpt lat="43.78529247373074" lon="10.831837245161863"><ele>19.5</ele><time>2026-04-19T09:07:33Z</time></trkpt><trkpt lat="43.78533942019049" lon="10.831982561010005"><ele>20.0</ele><time>2026-04-19T09:07:34Z</time></trkpt><trkpt lat="43.785387201092796" lon="10.832124735747897"><ele>20.5</ele><time>2026-04-19T09:07:35Z</time></trkpt><trkpt lat="43.785433461216016" lon="10.832263247350458"><ele>21.0</ele><time>2026-04-19T09:07:36Z</time></trkpt><trkpt lat="43.785479210115575" lon="10.83240434242453"><ele>21.0</ele><time>2026-04-19T09:07:37Z</time></trkpt><trkpt lat="43.78552379027144" lon="10.832546161552562"><ele>21.0</ele><time>2026-04-19T09:07:38Z</time></trkpt><trkpt lat="43.7855692398026" lon="10.832689786183852"><ele>21.0</ele><time>2026-04-19T09:07:39Z</time></trkpt><trkpt lat="43.78561527172677" lon="10.832833505361535"><ele>21.0</ele><time>2026-04-19T09:07:40Z</time></trkpt><trkpt lat="43.78566121074622" lon="10.832979283839428"><ele>21.200000000000003</ele><time>2026-04-19T09:07:41Z</time></trkpt><trkpt lat="43.78570621374717" lon="10.833120475552231"><ele>21.400000000000002</ele><time>2026-04-19T09:07:42Z</time></trkpt><trkpt lat="43.78574538514925" lon="10.833239502668933"><ele>21.6</ele><time>2026-04-19T09:07:43Z</time></trkpt><trkpt lat="43.785781639323446" lon="10.833357023577353"><ele>21.8</ele><time>2026-04-19T09:07:44Z</time></trkpt><trkpt lat="43.78582169022387" lon="10.833477550000653"><ele>22.0</ele><time>2026-04-19T09:07:45Z</time></trkpt><trkpt lat="43.78586332362079" lon="10.833601907102585"><ele>22.0</ele><time>2026-04-19T09:07:46Z</time></trkpt><trkpt lat="43.78590470536504" lon="10.833713140395892"><ele>22.0</ele><time>2026-04-19T09:07:47Z</time></trkpt><trkpt lat="43.785946270783136" lon="10.833812450968267"><ele>22.0</ele><time>2026-04-19T09:07:48Z</time></trkpt><trkpt lat="43.78599257191849" lon="10.833905612111002"><ele>22.0</ele><time>2026-04-19T09:07:49Z</time></trkpt><trkpt lat="43.78604928744662" lon="10.833988443609861"><ele>22.0</ele><time>2026-04-19T09:07:50Z</time></trkpt><trkpt lat="43.78611577772836" lon="10.834042853728317"><ele>22.0</ele><time>2026-04-19T09:07:51Z</time></trkpt><trkpt lat="43.786205765459236" lon="10.834088637775142"><ele>22.0</ele><time>2026-04-19T09:07:52Z</time></trkpt><trkpt lat="43.78631465902722" lon="10.834112252347305"><ele>22.0</ele><time>2026-04-19T09:07:53Z</time></trkpt><trkpt lat="43.78643899986966" lon="10.834132455452414"><ele>22.0</ele><time>2026-04-19T09:07:54Z</time></trkpt><trkpt lat="43.78657249241336" lon="10.834154899440593"><ele>22.0</ele><time>2026-04-19T09:07:55Z</time></trkpt><trkpt lat="43.786705601675536" lon="10.83417614206386"><ele>22.0</ele><time>2026-04-19T09:07:56Z</time></trkpt><trkpt lat="43.78683154414964" lon="10.834200241139664"><ele>22.0</ele><time>2026-04-19T09:07:57Z</time></trkpt><trkpt lat="43.786958235206335" lon="10.834224815091991"><ele>22.0</ele><time>2026-04-19T09:07:58Z</time></trkpt><trkpt lat="43.78708744655533" lon="10.834250523260247"><ele>22.0</ele><time>2026-04-19T09:07:59Z</time></trkpt><trkpt lat="43.78722287921224" lon="10.834277109597787"><ele>22.0</ele><time>2026-04-19T09:08:00Z</time></trkpt><trkpt lat="43.78736757221946" lon="10.834298091774102"><ele>22.0</ele><time>2026-04-19T09:08:01Z</time></trkpt><trkpt lat="43.78751764527508" lon="10.834324592134468"><ele>22.0</ele><time>2026-04-19T09:08:02Z</time></trkpt><trkpt lat="43.787653283760484" lon="10.834351088577966"><ele>22.0</ele><time>2026-04-19T09:08:03Z</time></trkpt><trkpt lat="43.78778837415755" lon="10.834374454127829"><ele>22.0</ele><time>2026-04-19T09:08:04Z</time></trkpt><trkpt lat="43.78791296358633" lon="10.834410905433312"><ele>22.0</ele><time>2026-04-19T09:08:05Z</time></trkpt><trkpt lat="43.78802258410179" lon="10.834420635850044"><ele>22.0</ele><time>2026-04-19T09:08:06Z</time></trkpt><trkpt lat="43.78811569214226" lon="10.834443288051222"><ele>22.0</ele><time>2026-04-19T09:08:07Z</time></trkpt><trkpt lat="43.78819254328589" lon="10.834462459484248"><ele>22.0</ele><time>2026-04-19T09:08:08Z</time></trkpt><trkpt lat="43.7882646780987" lon="10.83447720184547"><ele>22.0</ele><time>2026-04-19T09:08:09Z</time></trkpt><trkpt lat="43.78833388807414" lon="10.834480572240503"><ele>22.0</ele><time>2026-04-19T09:08:10Z</time></trkpt><trkpt lat="43.78839752079958" lon="10.834490201493685"><ele>22.0</ele><time>2026-04-19T09:08:11Z</time></trkpt><trkpt lat="43.78846640938074" lon="10.834504964033236"><ele>22.0</ele><time>2026-04-19T09:08:12Z</time></trkpt><trkpt lat="43.788548870536296" lon="10.83451888647815"><ele>22.0</ele><time>2026-04-19T09:08:13Z</time></trkpt><trkpt lat="43.78864163347863" lon="10.834538501947028"><ele>22.0</ele><time>2026-04-19T09:08:14Z</time></trkpt><trkpt lat="43.78872593186557" lon="10.834563287151779"><ele>23.200000000000003</ele><time>2026-04-19T09:08:15Z</time></trkpt><trkpt lat="43.788809228097485" lon="10.834582414561083"><ele>24.4</ele><time>2026-04-19T09:08:16Z</time></trkpt><trkpt lat="43.78890042617566" lon="10.834599880119743"><ele>25.599999999999998</ele><time>2026-04-19T09:08:17Z</time></trkpt><trkpt lat="43.78899645128012" lon="10.83461928191576"><ele>26.799999999999997</ele><time>2026-04-19T09:08:18Z</time></trkpt><trkpt lat="43.789102120531766" lon="10.834638171704324"><ele>28.0</ele><time>2026-04-19T09:08:19Z</time></trkpt><trkpt lat="43.789210842401616" lon="10.834661599274542"><ele>28.0</ele><time>2026-04-19T09:08:20Z</time></trkpt><trkpt lat="43.78932620398377" lon="10.834687398987434"><ele>28.0</ele><time>2026-04-19T09:08:21Z</time></trkpt><trkpt lat="43.78944809177694" lon="10.834721147214578"><ele>28.0</ele><time>2026-04-19T09:08:22Z</time></trkpt><trkpt lat="43.78957049578927" lon="10.834782168442993"><ele>28.0</ele><time>2026-04-19T09:08:23Z</time></trkpt><trkpt lat="43.789672433373426" lon="10.834859852876496"><ele>28.0</ele><time>2026-04-19T09:08:24Z</time></trkpt><trkpt lat="43.78976543926768" lon="10.834941174201042"><ele>28.0</ele><time>2026-04-19T09:08:25Z</time></trkpt><trkpt lat="43.7898577151299" lon="10.835028989324101"><ele>28.0</ele><time>2026-04-19T09:08:26Z</time></trkpt><trkpt lat="43.78995224201336" lon="10.835112900683018"><ele>28.0</ele><time>2026-04-19T09:08:27Z</time></trkpt><trkpt lat="43.790059981997416" lon="10.835191623320284"><ele>28.0</ele><time>2026-04-19T09:08:28Z</time></trkpt><trkpt lat="43.79017242563556" lon="10.835257243267625"><ele>28.0</ele><time>2026-04-19T09:08:29Z</time></trkpt><trkpt lat="43.790296321882465" lon="10.83531962382855"><ele>28.0</ele><time>2026-04-19T09:08:30Z</time></trkpt><trkpt lat="43.790423448424555" lon="10.835369231438962"><ele>28.0</ele><time>2026-04-19T09:08:31Z</time></trkpt><trkpt lat="43.790548194864" lon="10.835409401919813"><ele>29.0</ele><time>2026-04-19T09:08:32Z</time></trkpt><trkpt lat="43.79067029986637" lon="10.835450063643231"><ele>30.0</ele><time>2026-04-19T09:08:33Z</time></trkpt><trkpt lat="43.790788906217635" lon="10.835484910131072"><ele>31.0</ele><time>2026-04-19T09:08:34Z</time></trkpt><trkpt lat="43.79091912346016" lon="10.835517391501917"><ele>32.0</ele><time>2026-04-19T09:08:35Z</time></trkpt><trkpt lat="43.791034015447124" lon="10.835556450310353"><ele>32.75</ele><time>2026-04-19T09:08:36Z</time></trkpt><trkpt lat="43.79114324629047" lon="10.835595599940905"><ele>33.5</ele><time>2026-04-19T09:08:37Z</time></trkpt><trkpt lat="43.79125204544452" lon="10.83563236018487"><ele>34.25</ele><time>2026-04-19T09:08:38Z</time></trkpt><trkpt lat="43.791364801774435" lon="10.835667812580615"><ele>35.0</ele><time>2026-04-19T09:08:39Z</time></trkpt><trkpt lat="43.79147804077728" lon="10.835708533674318"><ele>35.0</ele><time>2026-04-19T09:08:40Z</time></trkpt><trkpt lat="43.79159180831782" lon="10.835744514758085"><ele>35.0</ele><time>2026-04-19T09:08:41Z</time></trkpt><trkpt lat="43.79170315341878" lon="10.83578562096431"><ele>35.0</ele><time>2026-04-19T09:08:42Z</time></trkpt><trkpt lat="43.79181465831543" lon="10.8358265628898"><ele>35.0</ele><time>2026-04-19T09:08:43Z</time></trkpt><trkpt lat="43.79192199664354" lon="10.83586888802871"><ele>34.25</ele><time>2026-04-19T09:08:44Z</time></trkpt><trkpt lat="43.79203969903586" lon="10.835918293907357"><ele>33.5</ele><time>2026-04-19T09:08:45Z</time></trkpt><trkpt lat="43.79216570854106" lon="10.835980942290877"><ele>32.75</ele><time>2026-04-19T09:08:46Z</time></trkpt><trkpt lat="43.79228254340532" lon="10.83604733492123"><ele>32.0</ele><time>2026-04-19T09:08:47Z</time></trkpt><trkpt lat="43.79240224969645" lon="10.836120008973042"><ele>31.5</ele><time>2026-04-19T09:08:48Z</time></trkpt><trkpt lat="43.792518517239316" lon="10.836209647657373"><ele>31.0</ele><time>2026-04-19T09:08:49Z</time></trkpt><trkpt lat="43.79262666788312" lon="10.836319695004075"><ele>30.5</ele><time>2026-04-19T09:08:50Z</time></trkpt><trkpt lat="43.79273056106229" lon="10.836440824524544"><ele>30.0</ele><time>2026-04-19T09:08:51Z</time></trkpt><trkpt lat="43.79282187293348" lon="10.836578611752437"><ele>30.0</ele><time>2026-04-19T09:08:52Z</time></trkpt><trkpt lat="43.79290196455476" lon="10.836736782923449"><ele>30.0</ele><time>2026-04-19T09:08:53Z</time></trkpt><trkpt lat="43.792983781660006" lon="10.836917229866684"><ele>30.0</ele><time>2026-04-19T09:08:54Z</time></trkpt><trkpt lat="43.79305700430148" lon="10.837101959573173"><ele>30.0</ele><time>2026-04-19T09:08:55Z</time></trkpt><trkpt lat="43.79313608402818" lon="10.837286029577484"><ele>31.666666666666664</ele><time>2026-04-19T09:08:56Z</time></trkpt><trkpt lat="43.793220565735105" lon="10.837483024773382"><ele>33.33333333333333</ele><time>2026-04-19T09:08:57Z</time></trkpt><trkpt lat="43.79331740282627" lon="10.837692335243375"><ele>35.0</ele><time>2026-04-19T09:08:58Z</time></trkpt><trkpt lat="43.79343028171067" lon="10.837910190459265"><ele>35.666666666666664</ele><time>2026-04-19T09:08:59Z</time></trkpt><trkpt lat="43.79355545244181" lon="10.838119643834364"><ele>36.333333333333336</ele><time>2026-04-19T09:09:00Z</time></trkpt><trkpt lat="43.79367940198685" lon="10.83832191058094"><ele>37.0</ele><time>2026-04-19T09:09:01Z</time></trkpt><trkpt lat="43.79380687150355" lon="10.838514720444596"><ele>38.0</ele><time>2026-04-19T09:09:02Z</time></trkpt><trkpt lat="43.793938433726396" lon="10.838714577037825"><ele>39.0</ele><time>2026-04-19T09:09:03Z</time></trkpt><trkpt lat="43.794066179764044" lon="10.838908895557696"><ele>40.0</ele><time>2026-04-19T09:09:04Z</time></trkpt><trkpt lat="43.79419589329351" lon="10.839103832583202"><ele>39.0</ele><time>2026-04-19T09:09:05Z</time></trkpt><trkpt lat="43.79433177487547" lon="10.839316543903562"><ele>38.0</ele><time>2026-04-19T09:09:06Z</time></trkpt><trkpt lat="43.79447448191326" lon="10.83954143716479"><ele>37.0</ele><time>2026-04-19T09:09:07Z</time></trkpt><trkpt lat="43.79461356354782" lon="10.839763692043968"><ele>37.0</ele><time>2026-04-19T09:09:08Z</time></trkpt><trkpt lat="43.79474856711686" lon="10.839967480631161"><ele>37.0</ele><time>2026-04-19T09:09:09Z</time></trkpt><trkpt lat="43.79488794344902" lon="10.840174880079608"><ele>37.0</ele><time>2026-04-19T09:09:10Z</time></trkpt><trkpt lat="43.79502491941624" lon="10.840383504361242"><ele>37.66666666666667</ele><time>2026-04-19T09:09:11Z</time></trkpt><trkpt lat="43.795158182984295" lon="10.84059140572459"><ele>38.333333333333336</ele><time>2026-04-19T09:09:12Z</time></trkpt><trkpt lat="43.79529007550293" lon="10.840791282315791"><ele>39.0</ele><time>2026-04-19T09:09:13Z</time></trkpt><trkpt lat="43.79541508129541" lon="10.840981683630032"><ele>39.0</ele><time>2026-04-19T09:09:14Z</time></trkpt><trkpt lat="43.795539254938355" lon="10.84117291889418"><ele>39.0</ele><time>2026-04-19T09:09:15Z</time></trkpt><trkpt lat="43.79566812178428" lon="10.84136968022574"><ele>39.0</ele><time>2026-04-19T09:09:16Z</time></trkpt><trkpt lat="43.79579361111598" lon="10.841564744907107"><ele>39.0</ele><time>2026-04-19T09:09:17Z</time></trkpt><trkpt lat="43.795919547940436" lon="10.841757666981547"><ele>39.0</ele><time>2026-04-19T09:09:18Z</time></trkpt><trkpt lat="43.79604045498286" lon="10.841943617636801"><ele>39.0</ele><time>2026-04-19T09:09:19Z</time></trkpt><trkpt lat="43.79615625874447" lon="10.842123383559919"><ele>39.666666666666664</ele><time>2026-04-19T09:09:20Z</time></trkpt><trkpt lat="43.79627243182229" lon="10.84230263175578"><ele>40.33333333333333</ele><time>2026-04-19T09:09:21Z</time></trkpt><trkpt lat="43.79639418880411" lon="10.84248726803454"><ele>41.0</ele><time>2026-04-19T09:09:22Z</time></trkpt><trkpt lat="43.79652149418839" lon="10.842680014524168"><ele>41.0</ele><time>2026-04-19T09:09:23Z</time></trkpt><trkpt lat="43.796648083173224" lon="10.842868895039217"><ele>41.0</ele><time>2026-04-19T09:09:24Z</time></trkpt><trkpt lat="43.79676812535219" lon="10.843050823895453"><ele>41.0</ele><time>2026-04-19T09:09:25Z</time></trkpt><trkpt lat="43.79687538238367" lon="10.84321867295319"><ele>38.666666666666664</ele><time>2026-04-19T09:09:26Z</time></trkpt><trkpt lat="43.79698799296393" lon="10.843395241224545"><ele>36.333333333333336</ele><time>2026-04-19T09:09:27Z</time></trkpt><trkpt lat="43.797096066054706" lon="10.843554174066833"><ele>34.0</ele><time>2026-04-19T09:09:28Z</time></trkpt><trkpt lat="43.79720035574016" lon="10.843701566591577"><ele>33.75</ele><time>2026-04-19T09:09:29Z</time></trkpt><trkpt lat="43.7972882002242" lon="10.843862762753494"><ele>33.5</ele><time>2026-04-19T09:09:30Z</time></trkpt><trkpt lat="43.79737501824551" lon="10.84400763992595"><ele>33.25</ele><time>2026-04-19T09:09:31Z</time></trkpt><trkpt lat="43.7974689169082" lon="10.844163691109612"><ele>33.0</ele><time>2026-04-19T09:09:32Z</time></trkpt><trkpt lat="43.79757491033824" lon="10.844324852338996"><ele>31.333333333333336</ele><time>2026-04-19T09:09:33Z</time></trkpt><trkpt lat="43.79767851450931" lon="10.844480303933686"><ele>29.666666666666668</ele><time>2026-04-19T09:09:34Z</time></trkpt><trkpt lat="43.79779382919489" lon="10.844618546453168"><ele>28.0</ele><time>2026-04-19T09:09:35Z</time></trkpt><trkpt lat="43.79791789814242" lon="10.844752570077901"><ele>28.0</ele><time>2026-04-19T09:09:36Z</time></trkpt><trkpt lat="43.79805034894087" lon="10.84487600391678"><ele>28.0</ele><time>2026-04-19T09:09:37Z</time></trkpt><trkpt lat="43.798189881962415" lon="10.844975012705559"><ele>28.0</ele><time>2026-04-19T09:09:38Z</time></trkpt><trkpt lat="43.798321897686655" lon="10.8450585948621"><ele>27.25</ele><time>2026-04-19T09:09:39Z</time></trkpt><trkpt lat="43.79846244414631" lon="10.845144112541252"><ele>26.5</ele><time>2026-04-19T09:09:40Z</time></trkpt><trkpt lat="43.79859432271118" lon="10.845218935037982"><ele>25.75</ele><time>2026-04-19T09:09:41Z</time></trkpt><trkpt lat="43.79871306392661" lon="10.845292214506385"><ele>25.0</ele><time>2026-04-19T09:09:42Z</time></trkpt><trkpt lat="43.79882952297949" lon="10.845380955209494"><ele>25.0</ele><time>2026-04-19T09:09:43Z</time></trkpt><trkpt lat="43.79894219464018" lon="10.845491867343826"><ele>25.0</ele><time>2026-04-19T09:09:44Z</time></trkpt><trkpt lat="43.799045990419046" lon="10.845626252118194"><ele>25.0</ele><time>2026-04-19T09:09:45Z</time></trkpt><trkpt lat="43.79914336693458" lon="10.845790938140503"><ele>25.0</ele><time>2026-04-19T09:09:46Z</time></trkpt><trkpt lat="43.79923008924527" lon="10.84598719841176"><ele>25.5</ele><time>2026-04-19T09:09:47Z</time></trkpt><trkpt lat="43.79931009974669" lon="10.846176224601505"><ele>26.0</ele><time>2026-04-19T09:09:48Z</time></trkpt><trkpt lat="43.79938062671263" lon="10.84634448235778"><ele>26.5</ele><time>2026-04-19T09:09:49Z</time></trkpt><trkpt lat="43.79946239928345" lon="10.846510740298772"><ele>27.0</ele><time>2026-04-19T09:09:50Z</time></trkpt><trkpt lat="43.79956238306591" lon="10.846654254596583"><ele>25.333333333333332</ele><time>2026-04-19T09:09:51Z</time></trkpt><trkpt lat="43.79968723715489" lon="10.84678050161879"><ele>23.666666666666664</ele><time>2026-04-19T09:09:52Z</time></trkpt><trkpt lat="43.79982076095015" lon="10.846883757946374"><ele>22.0</ele><time>2026-04-19T09:09:53Z</time></trkpt><trkpt lat="43.79996860386884" lon="10.846968872213571"><ele>22.0</ele><time>2026-04-19T09:09:54Z</time></trkpt><trkpt lat="43.8001206859188" lon="10.847028197804105"><ele>22.0</ele><time>2026-04-19T09:09:55Z</time></trkpt><trkpt lat="43.800275618477805" lon="10.847071362421072"><ele>22.0</ele><time>2026-04-19T09:09:56Z</time></trkpt><trkpt lat="43.80044035658746" lon="10.847101921611191"><ele>21.666666666666664</ele><time>2026-04-19T09:09:57Z</time></trkpt><trkpt lat="43.80061386936898" lon="10.847128191722032"><ele>21.333333333333332</ele><time>2026-04-19T09:09:58Z</time></trkpt><trkpt lat="43.80078824032737" lon="10.847143965620699"><ele>21.0</ele><time>2026-04-19T09:09:59Z</time></trkpt><trkpt lat="43.800961594302514" lon="10.847162296222471"><ele>20.333333333333332</ele><time>2026-04-19T09:10:00Z</time></trkpt><trkpt lat="43.80114689365261" lon="10.847194043967244"><ele>19.666666666666664</ele><time>2026-04-19T09:10:01Z</time></trkpt><trkpt lat="43.80132506225144" lon="10.847223851702822"><ele>19.0</ele><time>2026-04-19T09:10:02Z</time></trkpt><trkpt lat="43.801478973927864" lon="10.847254307333891"><ele>19.0</ele><time>2026-04-19T09:10:03Z</time></trkpt><trkpt lat="43.801632870015226" lon="10.847277478214037"><ele>19.0</ele><time>2026-04-19T09:10:04Z</time></trkpt><trkpt lat="43.80178452854935" lon="10.84730191383647"><ele>19.0</ele><time>2026-04-19T09:10:05Z</time></trkpt><trkpt lat="43.80192646681383" lon="10.847326858148788"><ele>19.25</ele><time>2026-04-19T09:10:06Z</time></trkpt><trkpt lat="43.802059953051575" lon="10.84734962055631"><ele>19.5</ele><time>2026-04-19T09:10:07Z</time></trkpt><trkpt lat="43.802184884489876" lon="10.847370307358105"><ele>19.75</ele><time>2026-04-19T09:10:08Z</time></trkpt><trkpt lat="43.80230298652279" lon="10.847395426868939"><ele>20.0</ele><time>2026-04-19T09:10:09Z</time></trkpt><trkpt lat="43.802405919483704" lon="10.84741188589757"><ele>20.0</ele><time>2026-04-19T09:10:10Z</time></trkpt><trkpt lat="43.80249342682182" lon="10.847427217519158"><ele>20.0</ele><time>2026-04-19T09:10:11Z</time></trkpt><trkpt lat="43.80257269418949" lon="10.847438335588354"><ele>20.0</ele><time>2026-04-19T09:10:12Z</time></trkpt><trkpt lat="43.80264916415103" lon="10.847451390935833"><ele>20.0</ele><time>2026-04-19T09:10:13Z</time></trkpt><trkpt lat="43.80271437663007" lon="10.847493501930732"><ele>20.0</ele><time>2026-04-19T09:10:14Z</time></trkpt><trkpt lat="43.80276757414054" lon="10.847560750968873"><ele>20.0</ele><time>2026-04-19T09:10:15Z</time></trkpt><trkpt lat="43.80279300029712" lon="10.847787899349054"><ele>20.5</ele><time>2026-04-19T09:10:17Z</time></trkpt><trkpt lat="43.80282408428198" lon="10.847943371056628"><ele>21.0</ele><time>2026-04-19T09:10:18Z</time></trkpt><trkpt lat="43.802842219088305" lon="10.848129679536342"><ele>21.5</ele><time>2026-04-19T09:10:19Z</time></trkpt><trkpt lat="43.80287098159927" lon="10.84833543304036"><ele>22.0</ele><time>2026-04-19T09:10:20Z</time></trkpt><trkpt lat="43.802896866595724" lon="10.84853423402867"><ele>22.75</ele><time>2026-04-19T09:10:21Z</time></trkpt><trkpt lat="43.802915859716215" lon="10.848712130906764"><ele>23.5</ele><time>2026-04-19T09:10:22Z</time></trkpt><trkpt lat="43.80294082634763" lon="10.84889034469935"><ele>24.25</ele><time>2026-04-19T09:10:23Z</time></trkpt><trkpt lat="43.80296710998898" lon="10.849084111178685"><ele>25.0</ele><time>2026-04-19T09:10:24Z</time></trkpt><trkpt lat="43.80298943806219" lon="10.849259810075496"><ele>26.0</ele><time>2026-04-19T09:10:25Z</time></trkpt><trkpt lat="43.80301132084898" lon="10.849440435647631"><ele>27.0</ele><time>2026-04-19T09:10:26Z</time></trkpt><trkpt lat="43.803033684847826" lon="10.849618325904947"><ele>28.0</ele><time>2026-04-19T09:10:27Z</time></trkpt><trkpt lat="43.80305360794667" lon="10.84978381896936"><ele>29.0</ele><time>2026-04-19T09:10:28Z</time></trkpt><trkpt lat="43.80307131278594" lon="10.849934340938338"><ele>29.0</ele><time>2026-04-19T09:10:29Z</time></trkpt><trkpt lat="43.80309256754066" lon="10.850087116066945"><ele>29.0</ele><time>2026-04-19T09:10:30Z</time></trkpt><trkpt lat="43.803113038675605" lon="10.850262743269072"><ele>29.0</ele><time>2026-04-19T09:10:31Z</time></trkpt><trkpt lat="43.803132067046484" lon="10.850438587157855"><ele>29.0</ele><time>2026-04-19T09:10:32Z</time></trkpt><trkpt lat="43.803151500344605" lon="10.850606058180796"><ele>29.75</ele><time>2026-04-19T09:10:33Z</time></trkpt><trkpt lat="43.803170967847464" lon="10.850770377898286"><ele>30.5</ele><time>2026-04-19T09:10:34Z</time></trkpt><trkpt lat="43.80319508656427" lon="10.850936982596888"><ele>31.25</ele><time>2026-04-19T09:10:35Z</time></trkpt><trkpt lat="43.803231733730534" lon="10.851111383408163"><ele>32.0</ele><time>2026-04-19T09:10:36Z</time></trkpt><trkpt lat="43.803269072904484" lon="10.851280460553953"><ele>32.0</ele><time>2026-04-19T09:10:37Z</time></trkpt><trkpt lat="43.803309392078496" lon="10.851435159260182"><ele>32.0</ele><time>2026-04-19T09:10:38Z</time></trkpt><trkpt lat="43.80334600013285" lon="10.851567701445301"><ele>32.0</ele><time>2026-04-19T09:10:39Z</time></trkpt><trkpt lat="43.80338220965235" lon="10.851700122668339"><ele>32.0</ele><time>2026-04-19T09:10:40Z</time></trkpt><trkpt lat="43.80341976126723" lon="10.851856089972081"><ele>32.0</ele><time>2026-04-19T09:10:41Z</time></trkpt><trkpt lat="43.80345380117094" lon="10.852013786640914"><ele>32.5</ele><time>2026-04-19T09:10:42Z</time></trkpt><trkpt lat="43.80348138009123" lon="10.852166339853213"><ele>33.0</ele><time>2026-04-19T09:10:43Z</time></trkpt><trkpt lat="43.8034880117917" lon="10.852322536507142"><ele>33.5</ele><time>2026-04-19T09:10:44Z</time></trkpt><trkpt lat="43.80346852260795" lon="10.852486671286288"><ele>34.0</ele><time>2026-04-19T09:10:45Z</time></trkpt><trkpt lat="43.803437160232576" lon="10.852653135941747"><ele>34.5</ele><time>2026-04-19T09:10:46Z</time></trkpt><trkpt lat="43.80340342082703" lon="10.852815600566519"><ele>35.0</ele><time>2026-04-19T09:10:47Z</time></trkpt><trkpt lat="43.80336540932694" lon="10.852979875531897"><ele>35.5</ele><time>2026-04-19T09:10:48Z</time></trkpt><trkpt lat="43.80332288139266" lon="10.85314975437875"><ele>36.0</ele><time>2026-04-19T09:10:49Z</time></trkpt><trkpt lat="43.80328260821014" lon="10.853329221036512"><ele>36.5</ele><time>2026-04-19T09:10:50Z</time></trkpt><trkpt lat="43.80325117669959" lon="10.853507304344298"><ele>37.0</ele><time>2026-04-19T09:10:51Z</time></trkpt><trkpt lat="43.80321555203699" lon="10.853668318158249"><ele>37.5</ele><time>2026-04-19T09:10:52Z</time></trkpt><trkpt lat="43.80318188528169" lon="10.853825344623345"><ele>38.0</ele><time>2026-04-19T09:10:53Z</time></trkpt><trkpt lat="43.80315455391677" lon="10.853971746940825"><ele>38.0</ele><time>2026-04-19T09:10:54Z</time></trkpt><trkpt lat="43.803118629898634" lon="10.854125361585957"><ele>38.0</ele><time>2026-04-19T09:10:55Z</time></trkpt><trkpt lat="43.80308510753369" lon="10.854275700760372"><ele>38.0</ele><time>2026-04-19T09:10:56Z</time></trkpt><trkpt lat="43.803054528057245" lon="10.854440401071779"><ele>38.0</ele><time>2026-04-19T09:10:57Z</time></trkpt><trkpt lat="43.8030213209181" lon="10.85459186111183"><ele>38.199999999999996</ele><time>2026-04-19T09:10:58Z</time></trkpt><trkpt lat="43.802984448967045" lon="10.85471779294042"><ele>38.4</ele><time>2026-04-19T09:10:59Z</time></trkpt><trkpt lat="43.80295504844671" lon="10.854849230654995"><ele>38.599999999999994</ele><time>2026-04-19T09:11:00Z</time></trkpt><trkpt lat="43.80292431147722" lon="10.854983075999542"><ele>38.8</ele><time>2026-04-19T09:11:01Z</time></trkpt><trkpt lat="43.80290069340719" lon="10.855113261866007"><ele>39.0</ele><time>2026-04-19T09:11:02Z</time></trkpt><trkpt lat="43.80289423664625" lon="10.85524799164899"><ele>39.0</ele><time>2026-04-19T09:11:03Z</time></trkpt><trkpt lat="43.80290440835555" lon="10.855389259709435"><ele>39.0</ele><time>2026-04-19T09:11:04Z</time></trkpt><trkpt lat="43.80293590602239" lon="10.85553763313549"><ele>39.0</ele><time>2026-04-19T09:11:05Z</time></trkpt><trkpt lat="43.80299147487352" lon="10.85569057255742"><ele>39.0</ele><time>2026-04-19T09:11:06Z</time></trkpt><trkpt lat="43.80306383436404" lon="10.855846396862825"><ele>38.75</ele><time>2026-04-19T09:11:07Z</time></trkpt><trkpt lat="43.803150293384554" lon="10.856001781900693"><ele>38.5</ele><time>2026-04-19T09:11:08Z</time></trkpt><trkpt lat="43.803241126440476" lon="10.856144899548134"><ele>38.25</ele><time>2026-04-19T09:11:09Z</time></trkpt><trkpt lat="43.80332497181456" lon="10.85628979951225"><ele>38.0</ele><time>2026-04-19T09:11:10Z</time></trkpt><trkpt lat="43.803401745200254" lon="10.856434907594686"><ele>38.0</ele><time>2026-04-19T09:11:11Z</time></trkpt><trkpt lat="43.8034822851808" lon="10.856579142164954"><ele>38.0</ele><time>2026-04-19T09:11:12Z</time></trkpt><trkpt lat="43.8035518460106" lon="10.856714922177527"><ele>38.0</ele><time>2026-04-19T09:11:13Z</time></trkpt><trkpt lat="43.80360886750746" lon="10.856861267069236"><ele>38.0</ele><time>2026-04-19T09:11:14Z</time></trkpt><trkpt lat="43.803716617019425" lon="10.857035744437828"><ele>38.5</ele><time>2026-04-19T09:11:15Z</time></trkpt><trkpt lat="43.80379205678663" lon="10.857197955330417"><ele>39.0</ele><time>2026-04-19T09:11:16Z</time></trkpt><trkpt lat="43.80385783971722" lon="10.857365113509363"><ele>39.5</ele><time>2026-04-19T09:11:17Z</time></trkpt><trkpt lat="43.80392545573473" lon="10.857536599552864"><ele>40.0</ele><time>2026-04-19T09:11:18Z</time></trkpt><trkpt lat="43.80398915956116" lon="10.857701675307368"><ele>40.25</ele><time>2026-04-19T09:11:19Z</time></trkpt><trkpt lat="43.80404462802121" lon="10.857870067207356"><ele>40.5</ele><time>2026-04-19T09:11:20Z</time></trkpt><trkpt lat="43.80409671513222" lon="10.858027080392407"><ele>40.75</ele><time>2026-04-19T09:11:21Z</time></trkpt><trkpt lat="43.80414716009151" lon="10.85816667228531"><ele>41.0</ele><time>2026-04-19T09:11:22Z</time></trkpt><trkpt lat="43.80420233600402" lon="10.858313707663608"><ele>40.5</ele><time>2026-04-19T09:11:23Z</time></trkpt><trkpt lat="43.80425359946146" lon="10.858467714359193"><ele>40.0</ele><time>2026-04-19T09:11:24Z</time></trkpt><trkpt lat="43.80430514473496" lon="10.858622530784528"><ele>39.5</ele><time>2026-04-19T09:11:25Z</time></trkpt><trkpt lat="43.80435921906741" lon="10.85877613676371"><ele>39.0</ele><time>2026-04-19T09:11:26Z</time></trkpt><trkpt lat="43.804417747568955" lon="10.858926674602543"><ele>39.0</ele><time>2026-04-19T09:11:27Z</time></trkpt><trkpt lat="43.8044869821868" lon="10.859075329577138"><ele>39.0</ele><time>2026-04-19T09:11:28Z</time></trkpt><trkpt lat="43.80457215767514" lon="10.859216510443792"><ele>39.0</ele><time>2026-04-19T09:11:29Z</time></trkpt><trkpt lat="43.804667724668484" lon="10.859348964716778"><ele>39.0</ele><time>2026-04-19T09:11:30Z</time></trkpt><trkpt lat="43.804763689565625" lon="10.859472837068596"><ele>40.25</ele><time>2026-04-19T09:11:31Z</time></trkpt><trkpt lat="43.80486164907646" lon="10.859592530130623"><ele>41.5</ele><time>2026-04-19T09:11:32Z</time></trkpt><trkpt lat="43.80496304064342" lon="10.859717413430719"><ele>42.75</ele><time>2026-04-19T09:11:33Z</time></trkpt><trkpt lat="43.805067089722094" lon="10.859848161154636"><ele>44.0</ele><time>2026-04-19T09:11:34Z</time></trkpt><trkpt lat="43.80516921655103" lon="10.859968654548249"><ele>44.0</ele><time>2026-04-19T09:11:35Z</time></trkpt><trkpt lat="43.80526280654102" lon="10.86008425779506"><ele>44.0</ele><time>2026-04-19T09:11:36Z</time></trkpt><trkpt lat="43.80535655416323" lon="10.860200798013292"><ele>44.0</ele><time>2026-04-19T09:11:37Z</time></trkpt><trkpt lat="43.80544610956493" lon="10.860313212499491"><ele>44.0</ele><time>2026-04-19T09:11:38Z</time></trkpt><trkpt lat="43.80553148821631" lon="10.860423675463784"><ele>44.25</ele><time>2026-04-19T09:11:39Z</time></trkpt><trkpt lat="43.80562002357443" lon="10.860538813230406"><ele>44.5</ele><time>2026-04-19T09:11:40Z</time></trkpt><trkpt lat="43.80569641809818" lon="10.86063139322607"><ele>44.75</ele><time>2026-04-19T09:11:41Z</time></trkpt><trkpt lat="43.805785606486296" lon="10.860747691914046"><ele>45.0</ele><time>2026-04-19T09:11:42Z</time></trkpt><trkpt lat="43.805879370366526" lon="10.8608746822755"><ele>44.75</ele><time>2026-04-19T09:11:43Z</time></trkpt><trkpt lat="43.80597042988483" lon="10.861023127863103"><ele>44.5</ele><time>2026-04-19T09:11:44Z</time></trkpt><trkpt lat="43.80604462268041" lon="10.861176053661836"><ele>44.25</ele><time>2026-04-19T09:11:45Z</time></trkpt><trkpt lat="43.80610647183589" lon="10.861325023858363"><ele>44.0</ele><time>2026-04-19T09:11:46Z</time></trkpt><trkpt lat="43.80615807309394" lon="10.86147295147699"><ele>44.0</ele><time>2026-04-19T09:11:47Z</time></trkpt><trkpt lat="43.806195296061716" lon="10.861656222069636"><ele>44.0</ele><time>2026-04-19T09:11:48Z</time></trkpt><trkpt lat="43.806222538561" lon="10.86180204814315"><ele>44.0</ele><time>2026-04-19T09:11:49Z</time></trkpt><trkpt lat="43.80624693821406" lon="10.861963910788687"><ele>44.0</ele><time>2026-04-19T09:11:50Z</time></trkpt><trkpt lat="43.80630757478761" lon="10.862136341492752"><ele>44.0</ele><time>2026-04-19T09:11:51Z</time></trkpt><trkpt lat="43.806353643999934" lon="10.862289632803677"><ele>44.0</ele><time>2026-04-19T09:11:52Z</time></trkpt><trkpt lat="43.80640370368294" lon="10.862444698635134"><ele>44.0</ele><time>2026-04-19T09:11:53Z</time></trkpt><trkpt lat="43.80644928679165" lon="10.86261902028339"><ele>44.0</ele><time>2026-04-19T09:11:54Z</time></trkpt><trkpt lat="43.806497575816536" lon="10.86279633568306"><ele>44.25</ele><time>2026-04-19T09:11:55Z</time></trkpt><trkpt lat="43.80654288042086" lon="10.862963847132262"><ele>44.5</ele><time>2026-04-19T09:11:56Z</time></trkpt><trkpt lat="43.80658498293516" lon="10.863115873125478"><ele>44.75</ele><time>2026-04-19T09:11:57Z</time></trkpt><trkpt lat="43.80662962924071" lon="10.863264767648957"><ele>45.0</ele><time>2026-04-19T09:11:58Z</time></trkpt><trkpt lat="43.806676251107696" lon="10.863376529364663"><ele>45.25</ele><time>2026-04-19T09:11:59Z</time></trkpt><trkpt lat="43.80673526527178" lon="10.863533694415727"><ele>45.5</ele><time>2026-04-19T09:12:00Z</time></trkpt><trkpt lat="43.80677893287414" lon="10.863717711746828"><ele>45.75</ele><time>2026-04-19T09:12:01Z</time></trkpt><trkpt lat="43.80684330434905" lon="10.863887813372813"><ele>46.0</ele><time>2026-04-19T09:12:02Z</time></trkpt><trkpt lat="43.80690511537773" lon="10.864038521426414"><ele>46.0</ele><time>2026-04-19T09:12:03Z</time></trkpt><trkpt lat="43.806963958726705" lon="10.864182407576488"><ele>46.0</ele><time>2026-04-19T09:12:04Z</time></trkpt><trkpt lat="43.80702929723606" lon="10.864327427913071"><ele>46.0</ele><time>2026-04-19T09:12:05Z</time></trkpt><trkpt lat="43.80709400925776" lon="10.864459428551422"><ele>46.0</ele><time>2026-04-19T09:12:06Z</time></trkpt><trkpt lat="43.80714968094894" lon="10.864583726425408"><ele>45.8</ele><time>2026-04-19T09:12:07Z</time></trkpt><trkpt lat="43.80720638055411" lon="10.86470132193093"><ele>45.599999999999994</ele><time>2026-04-19T09:12:08Z</time></trkpt><trkpt lat="43.80725592615032" lon="10.864833924717871"><ele>45.4</ele><time>2026-04-19T09:12:09Z</time></trkpt><trkpt lat="43.8073128244308" lon="10.864963832341136"><ele>45.2</ele><time>2026-04-19T09:12:10Z</time></trkpt><trkpt lat="43.807346627691395" lon="10.86504420413891"><ele>45.0</ele><time>2026-04-19T09:12:11Z</time></trkpt><trkpt lat="43.8073817276391" lon="10.865137037554408"><ele>44.4</ele><time>2026-04-19T09:12:12Z</time></trkpt><trkpt lat="43.80740322549143" lon="10.865227425610593"><ele>43.8</ele><time>2026-04-19T09:12:13Z</time></trkpt><trkpt lat="43.80740855256054" lon="10.865384535098666"><ele>43.2</ele><time>2026-04-19T09:12:15Z</time></trkpt><trkpt lat="43.80741743210102" lon="10.865496313043108"><ele>42.6</ele><time>2026-04-19T09:12:17Z</time></trkpt><trkpt lat="43.80749110426179" lon="10.86564442877742"><ele>42.0</ele><time>2026-04-19T09:12:25Z</time></trkpt><trkpt lat="43.807539571740065" lon="10.865739366355852"><ele>42.0</ele><time>2026-04-19T09:12:26Z</time></trkpt><trkpt lat="43.80758662793352" lon="10.865853494022671"><ele>42.0</ele><time>2026-04-19T09:12:27Z</time></trkpt><trkpt lat="43.80763612615842" lon="10.865975680849324"><ele>42.0</ele><time>2026-04-19T09:12:28Z</time></trkpt><trkpt lat="43.807683512570335" lon="10.866120201269936"><ele>42.0</ele><time>2026-04-19T09:12:29Z</time></trkpt><trkpt lat="43.80772437778865" lon="10.866239371350742"><ele>42.0</ele><time>2026-04-19T09:12:30Z</time></trkpt><trkpt lat="43.8077787684282" lon="10.866344902355301"><ele>39.25</ele><time>2026-04-19T09:12:31Z</time></trkpt><trkpt lat="43.80784277304999" lon="10.866454314240933"><ele>36.5</ele><time>2026-04-19T09:12:32Z</time></trkpt><trkpt lat="43.807920739019515" lon="10.86657260105552"><ele>33.75</ele><time>2026-04-19T09:12:33Z</time></trkpt><trkpt lat="43.80802494867232" lon="10.866698567779435"><ele>31.0</ele><time>2026-04-19T09:12:34Z</time></trkpt><trkpt lat="43.80812609587546" lon="10.866819027688418"><ele>30.5</ele><time>2026-04-19T09:12:35Z</time></trkpt><trkpt lat="43.80821622885351" lon="10.866923835144522"><ele>30.0</ele><time>2026-04-19T09:12:36Z</time></trkpt><trkpt lat="43.80830708378698" lon="10.867049438268673"><ele>29.5</ele><time>2026-04-19T09:12:37Z</time></trkpt><trkpt lat="43.80839324505054" lon="10.867192052889049"><ele>29.0</ele><time>2026-04-19T09:12:38Z</time></trkpt><trkpt lat="43.80847787372889" lon="10.867348032232723"><ele>28.75</ele><time>2026-04-19T09:12:39Z</time></trkpt><trkpt lat="43.80854735398646" lon="10.867496449538024"><ele>28.5</ele><time>2026-04-19T09:12:40Z</time></trkpt><trkpt lat="43.808612964181805" lon="10.867655541166123"><ele>28.25</ele><time>2026-04-19T09:12:41Z</time></trkpt><trkpt lat="43.80867575323149" lon="10.867798618043114"><ele>28.0</ele><time>2026-04-19T09:12:42Z</time></trkpt><trkpt lat="43.80872237512304" lon="10.867930099428895"><ele>28.0</ele><time>2026-04-19T09:12:43Z</time></trkpt><trkpt lat="43.808765504484434" lon="10.868059736956953"><ele>27.999999999999996</ele><time>2026-04-19T09:12:44Z</time></trkpt><trkpt lat="43.80880693205826" lon="10.868159716344698"><ele>27.999999999999996</ele><time>2026-04-19T09:12:45Z</time></trkpt><trkpt lat="43.80885274293579" lon="10.868256705850122"><ele>28.0</ele><time>2026-04-19T09:12:46Z</time></trkpt><trkpt lat="43.8089101186626" lon="10.868349195067152"><ele>28.0</ele><time>2026-04-19T09:12:47Z</time></trkpt><trkpt lat="43.8090081111544" lon="10.868377030356774"><ele>28.0</ele><time>2026-04-19T09:12:48Z</time></trkpt><trkpt lat="43.80912440150938" lon="10.868411484466394"><ele>28.0</ele><time>2026-04-19T09:12:49Z</time></trkpt><trkpt lat="43.80927611781457" lon="10.868433267486232"><ele>28.0</ele><time>2026-04-19T09:12:50Z</time></trkpt><trkpt lat="43.809414107393756" lon="10.868449359249578"><ele>28.0</ele><time>2026-04-19T09:12:51Z</time></trkpt><trkpt lat="43.8095404635996" lon="10.86844255648208"><ele>28.0</ele><time>2026-04-19T09:12:52Z</time></trkpt><trkpt lat="43.809662959552504" lon="10.868441526678957"><ele>28.0</ele><time>2026-04-19T09:12:53Z</time></trkpt><trkpt lat="43.809793200026824" lon="10.868422912303709"><ele>28.0</ele><time>2026-04-19T09:12:54Z</time></trkpt><trkpt lat="43.80990904451401" lon="10.868418542557604"><ele>28.0</ele><time>2026-04-19T09:12:55Z</time></trkpt><trkpt lat="43.81000112850808" lon="10.868408086834833"><ele>28.000000000000004</ele><time>2026-04-19T09:12:56Z</time></trkpt><trkpt lat="43.81008995211536" lon="10.868402323319522"><ele>28.0</ele><time>2026-04-19T09:12:57Z</time></trkpt><trkpt lat="43.81016602216538" lon="10.868390496281298"><ele>28.0</ele><time>2026-04-19T09:12:58Z</time></trkpt><trkpt lat="43.810244323541276" lon="10.868350649701707"><ele>28.0</ele><time>2026-04-19T09:12:59Z</time></trkpt><trkpt lat="43.81031753148376" lon="10.86827222131307"><ele>28.000000000000004</ele><time>2026-04-19T09:13:00Z</time></trkpt><trkpt lat="43.81037920159725" lon="10.8681542944268"><ele>28.0</ele><time>2026-04-19T09:13:01Z</time></trkpt><trkpt lat="43.81043265173799" lon="10.868006802272129"><ele>29.0</ele><time>2026-04-19T09:13:02Z</time></trkpt><trkpt lat="43.81049639597902" lon="10.867830038864145"><ele>30.0</ele><time>2026-04-19T09:13:03Z</time></trkpt><trkpt lat="43.810581217531244" lon="10.867632714085065"><ele>31.0</ele><time>2026-04-19T09:13:04Z</time></trkpt><trkpt lat="43.810673434073365" lon="10.867430254550804"><ele>31.0</ele><time>2026-04-19T09:13:05Z</time></trkpt><trkpt lat="43.81076691694849" lon="10.867209135323389"><ele>31.0</ele><time>2026-04-19T09:13:06Z</time></trkpt><trkpt lat="43.810878182289464" lon="10.866965098215074"><ele>31.0</ele><time>2026-04-19T09:13:07Z</time></trkpt><trkpt lat="43.810973823553596" lon="10.866745751499836"><ele>30.200000000000003</ele><time>2026-04-19T09:13:08Z</time></trkpt><trkpt lat="43.811045440663946" lon="10.866587284717138"><ele>29.400000000000002</ele><time>2026-04-19T09:13:09Z</time></trkpt><trkpt lat="43.81109878030633" lon="10.86647304928557"><ele>28.6</ele><time>2026-04-19T09:13:10Z</time></trkpt><trkpt lat="43.81114620099181" lon="10.866376167948012"><ele>27.8</ele><time>2026-04-19T09:13:11Z</time></trkpt><trkpt lat="43.81119081798079" lon="10.866290564801075"><ele>27.0</ele><time>2026-04-19T09:13:12Z</time></trkpt><trkpt lat="43.81123461661674" lon="10.86622476068164"><ele>27.0</ele><time>2026-04-19T09:13:13Z</time></trkpt><trkpt lat="43.81128764367079" lon="10.866177369826191"><ele>27.000000000000004</ele><time>2026-04-19T09:13:14Z</time></trkpt><trkpt lat="43.81134447480264" lon="10.866098944539221"><ele>27.000000000000004</ele><time>2026-04-19T09:13:16Z</time></trkpt><trkpt lat="43.81147334643688" lon="10.866222069957727"><ele>27.0</ele><time>2026-04-19T09:13:17Z</time></trkpt><trkpt lat="43.81152273519492" lon="10.86630678704017"><ele>27.0</ele><time>2026-04-19T09:13:18Z</time></trkpt><trkpt lat="43.81155288089623" lon="10.866434178719379"><ele>27.0</ele><time>2026-04-19T09:13:19Z</time></trkpt><trkpt lat="43.81158108645109" lon="10.866566334298438"><ele>27.0</ele><time>2026-04-19T09:13:20Z</time></trkpt><trkpt lat="43.81161147237145" lon="10.866755065352303"><ele>27.0</ele><time>2026-04-19T09:13:21Z</time></trkpt><trkpt lat="43.81164892706617" lon="10.866935276962291"><ele>27.0</ele><time>2026-04-19T09:13:22Z</time></trkpt><trkpt lat="43.811683009780474" lon="10.86710550712811"><ele>27.5</ele><time>2026-04-19T09:13:23Z</time></trkpt><trkpt lat="43.811699486373904" lon="10.867251191355809"><ele>28.0</ele><time>2026-04-19T09:13:24Z</time></trkpt><trkpt lat="43.8116866874472" lon="10.867404698831294"><ele>28.5</ele><time>2026-04-19T09:13:25Z</time></trkpt><trkpt lat="43.8117029661216" lon="10.86758005612889"><ele>29.0</ele><time>2026-04-19T09:13:26Z</time></trkpt><trkpt lat="43.81171400423882" lon="10.867767262286689"><ele>29.0</ele><time>2026-04-19T09:13:27Z</time></trkpt><trkpt lat="43.81174212540982" lon="10.867944784471046"><ele>29.0</ele><time>2026-04-19T09:13:28Z</time></trkpt><trkpt lat="43.81177089856352" lon="10.868088820079755"><ele>29.0</ele><time>2026-04-19T09:13:29Z</time></trkpt><trkpt lat="43.81178775404346" lon="10.868216037610711"><ele>29.0</ele><time>2026-04-19T09:13:30Z</time></trkpt><trkpt lat="43.8118025833159" lon="10.868348529320473"><ele>29.0</ele><time>2026-04-19T09:13:31Z</time></trkpt><trkpt lat="43.81179793270108" lon="10.868483713462718"><ele>29.2</ele><time>2026-04-19T09:13:32Z</time></trkpt><trkpt lat="43.811772493159104" lon="10.868631944775245"><ele>29.4</ele><time>2026-04-19T09:13:33Z</time></trkpt><trkpt lat="43.811723339929664" lon="10.868761190302246"><ele>29.6</ele><time>2026-04-19T09:13:34Z</time></trkpt><trkpt lat="43.81168006761862" lon="10.868879480789388"><ele>29.8</ele><time>2026-04-19T09:13:35Z</time></trkpt><trkpt lat="43.81166837900332" lon="10.868982267845231"><ele>30.0</ele><time>2026-04-19T09:13:36Z</time></trkpt><trkpt lat="43.811685526834474" lon="10.869096060943154"><ele>30.0</ele><time>2026-04-19T09:13:37Z</time></trkpt><trkpt lat="43.81172429840137" lon="10.869210522973587"><ele>30.0</ele><time>2026-04-19T09:13:38Z</time></trkpt><trkpt lat="43.81176926089004" lon="10.869308601675813"><ele>30.0</ele><time>2026-04-19T09:13:39Z</time></trkpt><trkpt lat="43.811790833632145" lon="10.869396755265432"><ele>30.0</ele><time>2026-04-19T09:13:40Z</time></trkpt><trkpt lat="43.811794185645645" lon="10.86950467851949"><ele>30.0</ele><time>2026-04-19T09:13:41Z</time></trkpt><trkpt lat="43.811788948869285" lon="10.869625797851064"><ele>30.0</ele><time>2026-04-19T09:13:42Z</time></trkpt><trkpt lat="43.811748543841276" lon="10.869746847806478"><ele>30.25</ele><time>2026-04-19T09:13:43Z</time></trkpt><trkpt lat="43.81171712342671" lon="10.86989485585526"><ele>30.5</ele><time>2026-04-19T09:13:44Z</time></trkpt><trkpt lat="43.811647692941875" lon="10.870059470779594"><ele>30.75</ele><time>2026-04-19T09:13:45Z</time></trkpt><trkpt lat="43.81158799997331" lon="10.870216587471862"><ele>31.0</ele><time>2026-04-19T09:13:46Z</time></trkpt><trkpt lat="43.811533532588946" lon="10.870358351692563"><ele>31.6</ele><time>2026-04-19T09:13:47Z</time></trkpt><trkpt lat="43.811488416046586" lon="10.870488819253342"><ele>32.2</ele><time>2026-04-19T09:13:48Z</time></trkpt><trkpt lat="43.81145074645096" lon="10.87060251820713"><ele>32.8</ele><time>2026-04-19T09:13:49Z</time></trkpt><trkpt lat="43.811423405212764" lon="10.870720246366218"><ele>33.4</ele><time>2026-04-19T09:13:50Z</time></trkpt><trkpt lat="43.81141644104365" lon="10.870856765437901"><ele>34.0</ele><time>2026-04-19T09:13:51Z</time></trkpt><trkpt lat="43.81143110707182" lon="10.8710359163098"><ele>34.0</ele><time>2026-04-19T09:13:52Z</time></trkpt><trkpt lat="43.81146007658975" lon="10.87125570453213"><ele>34.0</ele><time>2026-04-19T09:13:53Z</time></trkpt><trkpt lat="43.81148115312248" lon="10.871479814115782"><ele>34.0</ele><time>2026-04-19T09:13:54Z</time></trkpt><trkpt lat="43.811500157424206" lon="10.871698365145566"><ele>35.0</ele><time>2026-04-19T09:13:55Z</time></trkpt><trkpt lat="43.81152214664259" lon="10.871923315708951"><ele>36.0</ele><time>2026-04-19T09:13:56Z</time></trkpt><trkpt lat="43.81154537439315" lon="10.87214838221458"><ele>37.0</ele><time>2026-04-19T09:13:57Z</time></trkpt><trkpt lat="43.81156807723753" lon="10.872373209860687"><ele>37.0</ele><time>2026-04-19T09:13:58Z</time></trkpt><trkpt lat="43.811589520920975" lon="10.872581781653397"><ele>37.0</ele><time>2026-04-19T09:13:59Z</time></trkpt><trkpt lat="43.81160714241418" lon="10.87277426083288"><ele>37.0</ele><time>2026-04-19T09:14:00Z</time></trkpt><trkpt lat="43.81164091338961" lon="10.872959632434373"><ele>37.0</ele><time>2026-04-19T09:14:01Z</time></trkpt><trkpt lat="43.81166969295701" lon="10.87312755997453"><ele>37.0</ele><time>2026-04-19T09:14:02Z</time></trkpt><trkpt lat="43.81171590956463" lon="10.873291227992253"><ele>37.0</ele><time>2026-04-19T09:14:03Z</time></trkpt><trkpt lat="43.811780498397994" lon="10.873471071108321"><ele>37.0</ele><time>2026-04-19T09:14:04Z</time></trkpt><trkpt lat="43.81183843197153" lon="10.873674758843045"><ele>37.0</ele><time>2026-04-19T09:14:05Z</time></trkpt><trkpt lat="43.811911243007096" lon="10.873871737919242"><ele>38.0</ele><time>2026-04-19T09:14:06Z</time></trkpt><trkpt lat="43.81197295671554" lon="10.874038694852283"><ele>39.0</ele><time>2026-04-19T09:14:07Z</time></trkpt><trkpt lat="43.8120384802512" lon="10.874197054070978"><ele>40.0</ele><time>2026-04-19T09:14:08Z</time></trkpt><trkpt lat="43.81208232420042" lon="10.874376969866159"><ele>41.0</ele><time>2026-04-19T09:14:09Z</time></trkpt><trkpt lat="43.812108062361744" lon="10.874557258881959"><ele>41.0</ele><time>2026-04-19T09:14:10Z</time></trkpt><trkpt lat="43.81214348100479" lon="10.874713994767651"><ele>41.0</ele><time>2026-04-19T09:14:11Z</time></trkpt><trkpt lat="43.81217112895054" lon="10.874899263416182"><ele>41.0</ele><time>2026-04-19T09:14:12Z</time></trkpt><trkpt lat="43.81219855656163" lon="10.875085369427104"><ele>41.0</ele><time>2026-04-19T09:14:13Z</time></trkpt><trkpt lat="43.81221756183026" lon="10.875266570355198"><ele>41.25</ele><time>2026-04-19T09:14:14Z</time></trkpt><trkpt lat="43.81222671080319" lon="10.875450312129514"><ele>41.5</ele><time>2026-04-19T09:14:15Z</time></trkpt><trkpt lat="43.81221266865865" lon="10.87562520062328"><ele>41.75</ele><time>2026-04-19T09:14:16Z</time></trkpt><trkpt lat="43.81216756667565" lon="10.87579854067427"><ele>42.0</ele><time>2026-04-19T09:14:17Z</time></trkpt><trkpt lat="43.81212679279873" lon="10.875957287085543"><ele>42.0</ele><time>2026-04-19T09:14:18Z</time></trkpt><trkpt lat="43.81208645656638" lon="10.87608082737017"><ele>42.0</ele><time>2026-04-19T09:14:19Z</time></trkpt><trkpt lat="43.81205850757265" lon="10.876226546248265"><ele>42.0</ele><time>2026-04-19T09:14:20Z</time></trkpt><trkpt lat="43.8120461942956" lon="10.876411650747334"><ele>42.0</ele><time>2026-04-19T09:14:21Z</time></trkpt><trkpt lat="43.812041272493595" lon="10.876602362722076"><ele>42.0</ele><time>2026-04-19T09:14:22Z</time></trkpt><trkpt lat="43.81203773561129" lon="10.876762325392201"><ele>42.0</ele><time>2026-04-19T09:14:23Z</time></trkpt><trkpt lat="43.81203645301069" lon="10.876893571275394"><ele>42.0</ele><time>2026-04-19T09:14:24Z</time></trkpt><trkpt lat="43.81203009795329" lon="10.876989613732501"><ele>42.0</ele><time>2026-04-19T09:14:25Z</time></trkpt><trkpt lat="43.812009577902366" lon="10.877174702306997"><ele>42.0</ele><time>2026-04-19T09:14:27Z</time></trkpt><trkpt lat="43.81196947911288" lon="10.877273396150407"><ele>42.0</ele><time>2026-04-19T09:14:28Z</time></trkpt><trkpt lat="43.811937293513935" lon="10.877386192295994"><ele>42.0</ele><time>2026-04-19T09:14:29Z</time></trkpt><trkpt lat="43.811904944709845" lon="10.877524527511953"><ele>42.0</ele><time>2026-04-19T09:14:30Z</time></trkpt><trkpt lat="43.81188183791873" lon="10.877706022035305"><ele>42.0</ele><time>2026-04-19T09:14:31Z</time></trkpt><trkpt lat="43.81185497947048" lon="10.877940492601311"><ele>42.0</ele><time>2026-04-19T09:14:32Z</time></trkpt><trkpt lat="43.81182686586283" lon="10.87815985840395"><ele>42.0</ele><time>2026-04-19T09:14:33Z</time></trkpt><trkpt lat="43.81180159151172" lon="10.878347603044697"><ele>42.0</ele><time>2026-04-19T09:14:34Z</time></trkpt><trkpt lat="43.81178593516703" lon="10.878566033039082"><ele>42.0</ele><time>2026-04-19T09:14:35Z</time></trkpt><trkpt lat="43.81174457323297" lon="10.878771150277231"><ele>42.0</ele><time>2026-04-19T09:14:36Z</time></trkpt><trkpt lat="43.81172215736844" lon="10.878965535423005"><ele>42.0</ele><time>2026-04-19T09:14:37Z</time></trkpt><trkpt lat="43.811704746696044" lon="10.879141095730144"><ele>42.0</ele><time>2026-04-19T09:14:38Z</time></trkpt><trkpt lat="43.811704763726325" lon="10.879304316035599"><ele>41.5</ele><time>2026-04-19T09:14:39Z</time></trkpt><trkpt lat="43.8116927260974" lon="10.879467092676636"><ele>41.0</ele><time>2026-04-19T09:14:40Z</time></trkpt><trkpt lat="43.811684778600345" lon="10.879628465186377"><ele>40.5</ele><time>2026-04-19T09:14:41Z</time></trkpt><trkpt lat="43.811684639865035" lon="10.879785862373186"><ele>40.0</ele><time>2026-04-19T09:14:42Z</time></trkpt><trkpt lat="43.81168812202122" lon="10.879931127007394"><ele>40.0</ele><time>2026-04-19T09:14:43Z</time></trkpt><trkpt lat="43.811697215570895" lon="10.880076147110014"><ele>40.0</ele><time>2026-04-19T09:14:44Z</time></trkpt><trkpt lat="43.81172397644435" lon="10.880231699453683"><ele>40.0</ele><time>2026-04-19T09:14:45Z</time></trkpt><trkpt lat="43.81176996835401" lon="10.880392135514589"><ele>40.0</ele><time>2026-04-19T09:14:46Z</time></trkpt><trkpt lat="43.81182878908534" lon="10.88054844601844"><ele>40.25</ele><time>2026-04-19T09:14:47Z</time></trkpt><trkpt lat="43.81189944765863" lon="10.880705942753751"><ele>40.5</ele><time>2026-04-19T09:14:48Z</time></trkpt><trkpt lat="43.811964199515636" lon="10.88087020596151"><ele>40.75</ele><time>2026-04-19T09:14:49Z</time></trkpt><trkpt lat="43.81201920698466" lon="10.881035104099178"><ele>41.0</ele><time>2026-04-19T09:14:50Z</time></trkpt><trkpt lat="43.81206674578097" lon="10.881211156553483"><ele>41.0</ele><time>2026-04-19T09:14:51Z</time></trkpt><trkpt lat="43.812109715998545" lon="10.881409115094513"><ele>41.0</ele><time>2026-04-19T09:14:52Z</time></trkpt><trkpt lat="43.812141656614514" lon="10.881627972137181"><ele>41.0</ele><time>2026-04-19T09:14:53Z</time></trkpt><trkpt lat="43.812144707742604" lon="10.88186535273099"><ele>40.33333333333333</ele><time>2026-04-19T09:14:54Z</time></trkpt><trkpt lat="43.81215058737787" lon="10.882122273448259"><ele>39.666666666666664</ele><time>2026-04-19T09:14:55Z</time></trkpt><trkpt lat="43.81216901974058" lon="10.882387798263368"><ele>39.0</ele><time>2026-04-19T09:14:56Z</time></trkpt><trkpt lat="43.81216884633464" lon="10.882637131734075"><ele>39.0</ele><time>2026-04-19T09:14:57Z</time></trkpt><trkpt lat="43.81217220359141" lon="10.882870559109893"><ele>39.0</ele><time>2026-04-19T09:14:58Z</time></trkpt><trkpt lat="43.81218026985425" lon="10.883109507231378"><ele>39.0</ele><time>2026-04-19T09:14:59Z</time></trkpt><trkpt lat="43.812180126994164" lon="10.883330544409194"><ele>39.25</ele><time>2026-04-19T09:15:00Z</time></trkpt><trkpt lat="43.81217919015902" lon="10.883538630401256"><ele>39.5</ele><time>2026-04-19T09:15:01Z</time></trkpt><trkpt lat="43.812178093826205" lon="10.883736020077668"><ele>39.75</ele><time>2026-04-19T09:15:02Z</time></trkpt><trkpt lat="43.812176836549234" lon="10.883905613851818"><ele>40.0</ele><time>2026-04-19T09:15:03Z</time></trkpt><trkpt lat="43.812176478935484" lon="10.884053457973485"><ele>40.0</ele><time>2026-04-19T09:15:04Z</time></trkpt><trkpt lat="43.8121734082931" lon="10.884182975345725"><ele>40.0</ele><time>2026-04-19T09:15:05Z</time></trkpt><trkpt lat="43.81214156782482" lon="10.884286830861784"><ele>40.0</ele><time>2026-04-19T09:15:06Z</time></trkpt><trkpt lat="43.81210978118985" lon="10.88438907134921"><ele>40.0</ele><time>2026-04-19T09:15:07Z</time></trkpt><trkpt lat="43.8120726672387" lon="10.884515013875177"><ele>40.0</ele><time>2026-04-19T09:15:08Z</time></trkpt><trkpt lat="43.81199962951595" lon="10.884628758720599"><ele>39.8</ele><time>2026-04-19T09:15:09Z</time></trkpt><trkpt lat="43.81190202007314" lon="10.884713536214615"><ele>39.6</ele><time>2026-04-19T09:15:10Z</time></trkpt><trkpt lat="43.811835332146366" lon="10.884829889769975"><ele>39.4</ele><time>2026-04-19T09:15:11Z</time></trkpt><trkpt lat="43.81176560696381" lon="10.884931799362707"><ele>39.2</ele><time>2026-04-19T09:15:12Z</time></trkpt><trkpt lat="43.81169978076048" lon="10.885024514004776"><ele>39.0</ele><time>2026-04-19T09:15:13Z</time></trkpt><trkpt lat="43.811654152949124" lon="10.885144581158604"><ele>38.8</ele><time>2026-04-19T09:15:14Z</time></trkpt><trkpt lat="43.81163129313993" lon="10.885276070307134"><ele>38.599999999999994</ele><time>2026-04-19T09:15:15Z</time></trkpt><trkpt lat="43.81160478692405" lon="10.885401948969445"><ele>38.4</ele><time>2026-04-19T09:15:16Z</time></trkpt><trkpt lat="43.8115841240468" lon="10.885539517403426"><ele>38.199999999999996</ele><time>2026-04-19T09:15:17Z</time></trkpt><trkpt lat="43.81155976115054" lon="10.885694268095612"><ele>38.0</ele><time>2026-04-19T09:15:18Z</time></trkpt><trkpt lat="43.81153396208498" lon="10.885842031683605"><ele>39.8</ele><time>2026-04-19T09:15:19Z</time></trkpt><trkpt lat="43.81151878382516" lon="10.885990039860076"><ele>41.599999999999994</ele><time>2026-04-19T09:15:20Z</time></trkpt><trkpt lat="43.811527158795265" lon="10.88612464371027"><ele>43.400000000000006</ele><time>2026-04-19T09:15:21Z</time></trkpt><trkpt lat="43.81156004757523" lon="10.886275715704484"><ele>45.2</ele><time>2026-04-19T09:15:22Z</time></trkpt><trkpt lat="43.81159900448518" lon="10.886396662426021"><ele>47.0</ele><time>2026-04-19T09:15:23Z</time></trkpt><trkpt lat="43.8116177313991" lon="10.886505169135985"><ele>47.0</ele><time>2026-04-19T09:15:24Z</time></trkpt><trkpt lat="43.811639601819344" lon="10.88659123430325"><ele>47.0</ele><time>2026-04-19T09:15:25Z</time></trkpt><trkpt lat="43.81163971996576" lon="10.88676027839828"><ele>47.0</ele><time>2026-04-19T09:15:27Z</time></trkpt><trkpt lat="43.81157540825904" lon="10.886823233749617"><ele>47.0</ele><time>2026-04-19T09:15:28Z</time></trkpt><trkpt lat="43.811510286491576" lon="10.886886585254507"><ele>47.0</ele><time>2026-04-19T09:15:29Z</time></trkpt><trkpt lat="43.81142808601121" lon="10.886939262262255"><ele>47.0</ele><time>2026-04-19T09:15:30Z</time></trkpt><trkpt lat="43.81136166633058" lon="10.886998913992"><ele>48.400000000000006</ele><time>2026-04-19T09:15:31Z</time></trkpt><trkpt lat="43.81130406254017" lon="10.887064231874005"><ele>49.800000000000004</ele><time>2026-04-19T09:15:32Z</time></trkpt><trkpt lat="43.81124162139577" lon="10.887208174461376"><ele>51.2</ele><time>2026-04-19T09:15:34Z</time></trkpt><trkpt lat="43.81122519036054" lon="10.887321850739097"><ele>52.6</ele><time>2026-04-19T09:15:35Z</time></trkpt><trkpt lat="43.81121436608116" lon="10.887464172901728"><ele>54.0</ele><time>2026-04-19T09:15:36Z</time></trkpt><trkpt lat="43.81120700718797" lon="10.887617320490728"><ele>55.0</ele><time>2026-04-19T09:15:37Z</time></trkpt><trkpt lat="43.81119362384221" lon="10.887786539306607"><ele>56.0</ele><time>2026-04-19T09:15:38Z</time></trkpt><trkpt lat="43.81118203818456" lon="10.888013665446335"><ele>57.0</ele><time>2026-04-19T09:15:39Z</time></trkpt><trkpt lat="43.811158622879475" lon="10.888254396150687"><ele>57.0</ele><time>2026-04-19T09:15:40Z</time></trkpt><trkpt lat="43.811126031056986" lon="10.888453203697324"><ele>57.0</ele><time>2026-04-19T09:15:41Z</time></trkpt><trkpt lat="43.811107899039385" lon="10.888642825511385"><ele>57.0</ele><time>2026-04-19T09:15:42Z</time></trkpt><trkpt lat="43.8110894098271" lon="10.888836182811533"><ele>57.0</ele><time>2026-04-19T09:15:43Z</time></trkpt><trkpt lat="43.811082317870316" lon="10.88896157508904"><ele>57.0</ele><time>2026-04-19T09:15:44Z</time></trkpt><trkpt lat="43.81107187303656" lon="10.88911988253012"><ele>57.0</ele><time>2026-04-19T09:15:45Z</time></trkpt><trkpt lat="43.81103988265343" lon="10.889239424394788"><ele>57.0</ele><time>2026-04-19T09:15:46Z</time></trkpt><trkpt lat="43.81103603715577" lon="10.889345529546098"><ele>57.0</ele><time>2026-04-19T09:15:47Z</time></trkpt><trkpt lat="43.811034122920745" lon="10.889435524658985"><ele>57.0</ele><time>2026-04-19T09:15:48Z</time></trkpt><trkpt lat="43.81105997122199" lon="10.889528953361951"><ele>57.0</ele><time>2026-04-19T09:15:49Z</time></trkpt><trkpt lat="43.81112321208879" lon="10.889640520212684"><ele>56.75</ele><time>2026-04-19T09:15:50Z</time></trkpt><trkpt lat="43.81121165738911" lon="10.88975279234306"><ele>56.5</ele><time>2026-04-19T09:15:51Z</time></trkpt><trkpt lat="43.811322837660605" lon="10.88988053124978"><ele>56.25</ele><time>2026-04-19T09:15:52Z</time></trkpt><trkpt lat="43.81144468170007" lon="10.890020882066933"><ele>56.0</ele><time>2026-04-19T09:15:53Z</time></trkpt><trkpt lat="43.811555235912266" lon="10.890161418817069"><ele>56.0</ele><time>2026-04-19T09:15:54Z</time></trkpt><trkpt lat="43.811674622614184" lon="10.89030817115698"><ele>56.0</ele><time>2026-04-19T09:15:55Z</time></trkpt><trkpt lat="43.81180847876121" lon="10.890472263181934"><ele>56.0</ele><time>2026-04-19T09:15:56Z</time></trkpt><trkpt lat="43.81195242385024" lon="10.890655838133245"><ele>57.333333333333336</ele><time>2026-04-19T09:15:57Z</time></trkpt><trkpt lat="43.812086234964745" lon="10.890824470731278"><ele>58.66666666666667</ele><time>2026-04-19T09:15:58Z</time></trkpt><trkpt lat="43.81220349624912" lon="10.890972587711316"><ele>60.0</ele><time>2026-04-19T09:15:59Z</time></trkpt><trkpt lat="43.81231967227304" lon="10.891120767623045"><ele>60.0</ele><time>2026-04-19T09:16:00Z</time></trkpt><trkpt lat="43.812430363201955" lon="10.891267199229468"><ele>60.0</ele><time>2026-04-19T09:16:01Z</time></trkpt><trkpt lat="43.812528202152315" lon="10.89139747940493"><ele>60.0</ele><time>2026-04-19T09:16:02Z</time></trkpt><trkpt lat="43.812623826313946" lon="10.891521437946066"><ele>60.0</ele><time>2026-04-19T09:16:03Z</time></trkpt><trkpt lat="43.81272554190726" lon="10.891645347250341"><ele>61.0</ele><time>2026-04-19T09:16:04Z</time></trkpt><trkpt lat="43.81281828775101" lon="10.891766798863548"><ele>62.0</ele><time>2026-04-19T09:16:05Z</time></trkpt><trkpt lat="43.812881720692836" lon="10.891871685109754"><ele>63.0</ele><time>2026-04-19T09:16:06Z</time></trkpt><trkpt lat="43.81294332323933" lon="10.891965903470682"><ele>64.0</ele><time>2026-04-19T09:16:07Z</time></trkpt><trkpt lat="43.812982257748736" lon="10.892038066456537"><ele>65.0</ele><time>2026-04-19T09:16:08Z</time></trkpt><trkpt lat="43.81303309595042" lon="10.892148233218418"><ele>65.0</ele><time>2026-04-19T09:16:10Z</time></trkpt><trkpt lat="43.81308642791351" lon="10.892275144172652"><ele>65.0</ele><time>2026-04-19T09:16:12Z</time></trkpt><trkpt lat="43.81321076394893" lon="10.892316417437256"><ele>65.0</ele><time>2026-04-19T09:16:13Z</time></trkpt><trkpt lat="43.813318791164946" lon="10.892408430309645"><ele>65.0</ele><time>2026-04-19T09:16:14Z</time></trkpt><trkpt lat="43.813429041527" lon="10.89252187506069"><ele>64.5</ele><time>2026-04-19T09:16:15Z</time></trkpt><trkpt lat="43.81353242384548" lon="10.892628423879232"><ele>64.0</ele><time>2026-04-19T09:16:16Z</time></trkpt><trkpt lat="43.81362633743197" lon="10.892736038183804"><ele>63.5</ele><time>2026-04-19T09:16:17Z</time></trkpt><trkpt lat="43.813724355432925" lon="10.892845243877098"><ele>63.0</ele><time>2026-04-19T09:16:18Z</time></trkpt><trkpt lat="43.81383548727934" lon="10.892960022000238"><ele>63.0</ele><time>2026-04-19T09:16:19Z</time></trkpt><trkpt lat="43.813945205449265" lon="10.89308003438601"><ele>63.0</ele><time>2026-04-19T09:16:20Z</time></trkpt><trkpt lat="43.81404844121336" lon="10.893203901742606"><ele>63.0</ele><time>2026-04-19T09:16:21Z</time></trkpt><trkpt lat="43.814156622888255" lon="10.893317477134204"><ele>63.0</ele><time>2026-04-19T09:16:22Z</time></trkpt><trkpt lat="43.814268015011365" lon="10.893440792185377"><ele>63.66666666666667</ele><time>2026-04-19T09:16:23Z</time></trkpt><trkpt lat="43.81438431245505" lon="10.893578104532793"><ele>64.33333333333334</ele><time>2026-04-19T09:16:24Z</time></trkpt><trkpt lat="43.814501941344346" lon="10.893719526154367"><ele>65.0</ele><time>2026-04-19T09:16:25Z</time></trkpt><trkpt lat="43.814612084817504" lon="10.89384752688884"><ele>65.0</ele><time>2026-04-19T09:16:26Z</time></trkpt><trkpt lat="43.81472353310661" lon="10.8939744856585"><ele>65.0</ele><time>2026-04-19T09:16:27Z</time></trkpt><trkpt lat="43.81482972546085" lon="10.894090527017758"><ele>65.0</ele><time>2026-04-19T09:16:28Z</time></trkpt><trkpt lat="43.81491977260527" lon="10.894196917056222"><ele>65.0</ele><time>2026-04-19T09:16:29Z</time></trkpt><trkpt lat="43.81501197289261" lon="10.894303405361235"><ele>65.0</ele><time>2026-04-19T09:16:30Z</time></trkpt><trkpt lat="43.81511127558145" lon="10.894414600034173"><ele>65.0</ele><time>2026-04-19T09:16:31Z</time></trkpt><trkpt lat="43.81520933558884" lon="10.894518457764079"><ele>65.0</ele><time>2026-04-19T09:16:32Z</time></trkpt><trkpt lat="43.81530838113061" lon="10.89462485213223"><ele>65.0</ele><time>2026-04-19T09:16:33Z</time></trkpt><trkpt lat="43.81541526825506" lon="10.894736410600919"><ele>64.75</ele><time>2026-04-19T09:16:34Z</time></trkpt><trkpt lat="43.81551525227413" lon="10.894834559324147"><ele>64.5</ele><time>2026-04-19T09:16:35Z</time></trkpt><trkpt lat="43.81562040785774" lon="10.894931385554907"><ele>64.25</ele><time>2026-04-19T09:16:36Z</time></trkpt><trkpt lat="43.81572949005034" lon="10.89502684195231"><ele>64.0</ele><time>2026-04-19T09:16:37Z</time></trkpt><trkpt lat="43.815852816121364" lon="10.895113859374408"><ele>64.25</ele><time>2026-04-19T09:16:38Z</time></trkpt><trkpt lat="43.81597681767033" lon="10.895193839366339"><ele>64.5</ele><time>2026-04-19T09:16:39Z</time></trkpt><trkpt lat="43.816099315653545" lon="10.895253665039569"><ele>64.75</ele><time>2026-04-19T09:16:40Z</time></trkpt><trkpt lat="43.816234788045016" lon="10.895300345200845"><ele>65.0</ele><time>2026-04-19T09:16:41Z</time></trkpt><trkpt lat="43.81635178896755" lon="10.89533248526519"><ele>65.0</ele><time>2026-04-19T09:16:42Z</time></trkpt><trkpt lat="43.81645273550865" lon="10.895360618503911"><ele>65.0</ele><time>2026-04-19T09:16:43Z</time></trkpt><trkpt lat="43.81654933066713" lon="10.895384352051998"><ele>65.0</ele><time>2026-04-19T09:16:44Z</time></trkpt><trkpt lat="43.81664035004023" lon="10.895410995786222"><ele>65.0</ele><time>2026-04-19T09:16:45Z</time></trkpt><trkpt lat="43.81671570403323" lon="10.895440118795731"><ele>65.0</ele><time>2026-04-19T09:16:46Z</time></trkpt><trkpt lat="43.816780513430466" lon="10.895488852958705"><ele>65.0</ele><time>2026-04-19T09:16:47Z</time></trkpt><trkpt lat="43.81683582865059" lon="10.89557290082922"><ele>64.8</ele><time>2026-04-19T09:16:48Z</time></trkpt><trkpt lat="43.816876034832276" lon="10.895690159706485"><ele>64.6</ele><time>2026-04-19T09:16:49Z</time></trkpt><trkpt lat="43.81690040710385" lon="10.895830716675702"><ele>64.4</ele><time>2026-04-19T09:16:50Z</time></trkpt><trkpt lat="43.81690875033212" lon="10.895937290399777"><ele>64.2</ele><time>2026-04-19T09:16:51Z</time></trkpt><trkpt lat="43.81691747046766" lon="10.896023718106548"><ele>64.0</ele><time>2026-04-19T09:16:52Z</time></trkpt><trkpt lat="43.81691668956989" lon="10.896192100571989"><ele>64.83333333333333</ele><time>2026-04-19T09:16:54Z</time></trkpt><trkpt lat="43.816896218830344" lon="10.89627545779762"><ele>65.66666666666666</ele><time>2026-04-19T09:16:55Z</time></trkpt><trkpt lat="43.81687610335692" lon="10.896390378244696"><ele>66.5</ele><time>2026-04-19T09:16:57Z</time></trkpt><trkpt lat="43.81692172900477" lon="10.896491148487863"><ele>67.33333333333333</ele><time>2026-04-19T09:16:59Z</time></trkpt><trkpt lat="43.81697065283753" lon="10.896555768206504"><ele>68.16666666666667</ele><time>2026-04-19T09:17:00Z</time></trkpt><trkpt lat="43.817025006451736" lon="10.896636674087263"><ele>69.0</ele><time>2026-04-19T09:17:01Z</time></trkpt><trkpt lat="43.81708611936518" lon="10.896755503977507"><ele>70.5</ele><time>2026-04-19T09:17:02Z</time></trkpt><trkpt lat="43.817147171839956" lon="10.896900308532535"><ele>72.0</ele><time>2026-04-19T09:17:03Z</time></trkpt><trkpt lat="43.81719861295044" lon="10.897088434236819"><ele>73.5</ele><time>2026-04-19T09:17:04Z</time></trkpt><trkpt lat="43.817271027849245" lon="10.897270099295731"><ele>75.0</ele><time>2026-04-19T09:17:05Z</time></trkpt><trkpt lat="43.817331195150985" lon="10.897439760795452"><ele>75.75</ele><time>2026-04-19T09:17:06Z</time></trkpt><trkpt lat="43.817379540845316" lon="10.897607012307185"><ele>76.5</ele><time>2026-04-19T09:17:07Z</time></trkpt><trkpt lat="43.81742022157014" lon="10.897776942727273"><ele>77.25</ele><time>2026-04-19T09:17:08Z</time></trkpt><trkpt lat="43.817436670672656" lon="10.897966398716903"><ele>78.0</ele><time>2026-04-19T09:17:09Z</time></trkpt><trkpt lat="43.81745367010785" lon="10.898152096647319"><ele>78.0</ele><time>2026-04-19T09:17:10Z</time></trkpt><trkpt lat="43.81744994455218" lon="10.898321394890257"><ele>78.0</ele><time>2026-04-19T09:17:11Z</time></trkpt><trkpt lat="43.81748476996752" lon="10.898538110661537"><ele>78.0</ele><time>2026-04-19T09:17:12Z</time></trkpt><trkpt lat="43.81753805372716" lon="10.898713102705283"><ele>78.0</ele><time>2026-04-19T09:17:13Z</time></trkpt><trkpt lat="43.81756127751526" lon="10.898902739683507"><ele>77.75</ele><time>2026-04-19T09:17:14Z</time></trkpt><trkpt lat="43.81758659474753" lon="10.899089337351759"><ele>77.5</ele><time>2026-04-19T09:17:15Z</time></trkpt><trkpt lat="43.8175942750805" lon="10.89926401201919"><ele>77.25</ele><time>2026-04-19T09:17:16Z</time></trkpt><trkpt lat="43.81769506510975" lon="10.899469616105907"><ele>77.0</ele><time>2026-04-19T09:17:17Z</time></trkpt><trkpt lat="43.81775521669727" lon="10.899659058044824"><ele>79.66666666666667</ele><time>2026-04-19T09:17:18Z</time></trkpt><trkpt lat="43.81782635678196" lon="10.899863597159152"><ele>82.33333333333333</ele><time>2026-04-19T09:17:19Z</time></trkpt><trkpt lat="43.81791751137928" lon="10.900077788850552"><ele>85.0</ele><time>2026-04-19T09:17:20Z</time></trkpt><trkpt lat="43.8180002798084" lon="10.900285330017995"><ele>85.0</ele><time>2026-04-19T09:17:21Z</time></trkpt><trkpt lat="43.818078616833425" lon="10.900478002334598"><ele>85.0</ele><time>2026-04-19T09:17:22Z</time></trkpt><trkpt lat="43.81816083518303" lon="10.900671781400865"><ele>85.0</ele><time>2026-04-19T09:17:23Z</time></trkpt><trkpt lat="43.81823648290042" lon="10.900848812130697"><ele>84.5</ele><time>2026-04-19T09:17:24Z</time></trkpt><trkpt lat="43.818301212988196" lon="10.901009911568323"><ele>84.0</ele><time>2026-04-19T09:17:25Z</time></trkpt><trkpt lat="43.818348522694656" lon="10.901178412786233"><ele>83.5</ele><time>2026-04-19T09:17:26Z</time></trkpt><trkpt lat="43.81842758092922" lon="10.901345844140163"><ele>83.0</ele><time>2026-04-19T09:17:27Z</time></trkpt><trkpt lat="43.81849839167567" lon="10.901506459353211"><ele>85.33333333333334</ele><time>2026-04-19T09:17:28Z</time></trkpt><trkpt lat="43.8185935851999" lon="10.901673959356623"><ele>87.66666666666667</ele><time>2026-04-19T09:17:29Z</time></trkpt><trkpt lat="43.81871269278904" lon="10.901846252124631"><ele>90.0</ele><time>2026-04-19T09:17:30Z</time></trkpt><trkpt lat="43.81883714240248" lon="10.902023572491787"><ele>90.66666666666667</ele><time>2026-04-19T09:17:31Z</time></trkpt><trkpt lat="43.818949118042234" lon="10.902188154309513"><ele>91.33333333333334</ele><time>2026-04-19T09:17:32Z</time></trkpt><trkpt lat="43.819056623343954" lon="10.902339350405981"><ele>92.0</ele><time>2026-04-19T09:17:33Z</time></trkpt><trkpt lat="43.81916184067418" lon="10.902490649098734"><ele>92.0</ele><time>2026-04-19T09:17:34Z</time></trkpt><trkpt lat="43.81926539780062" lon="10.902636805031396"><ele>92.0</ele><time>2026-04-19T09:17:35Z</time></trkpt><trkpt lat="43.81936048853552" lon="10.902799494246013"><ele>92.0</ele><time>2026-04-19T09:17:36Z</time></trkpt><trkpt lat="43.819449394234844" lon="10.902982471684522"><ele>94.66666666666667</ele><time>2026-04-19T09:17:37Z</time></trkpt><trkpt lat="43.81952687651809" lon="10.903170190002708"><ele>97.33333333333334</ele><time>2026-04-19T09:17:38Z</time></trkpt><trkpt lat="43.81960569727231" lon="10.903366846343731"><ele>100.0</ele><time>2026-04-19T09:17:39Z</time></trkpt><trkpt lat="43.81969065768754" lon="10.90356284073284"><ele>100.25</ele><time>2026-04-19T09:17:40Z</time></trkpt><trkpt lat="43.81976599429335" lon="10.90373357297703"><ele>100.5</ele><time>2026-04-19T09:17:41Z</time></trkpt><trkpt lat="43.81983944343752" lon="10.903898650694153"><ele>100.75</ele><time>2026-04-19T09:17:42Z</time></trkpt><trkpt lat="43.819913582056465" lon="10.904062240866315"><ele>101.0</ele><time>2026-04-19T09:17:43Z</time></trkpt><trkpt lat="43.819974482569" lon="10.904205579349185"><ele>100.5</ele><time>2026-04-19T09:17:44Z</time></trkpt><trkpt lat="43.82002314434716" lon="10.904355485473367"><ele>100.0</ele><time>2026-04-19T09:17:45Z</time></trkpt><trkpt lat="43.820057537515034" lon="10.904526267711834"><ele>99.5</ele><time>2026-04-19T09:17:46Z</time></trkpt><trkpt lat="43.82006257631544" lon="10.904701751755775"><ele>99.0</ele><time>2026-04-19T09:17:47Z</time></trkpt><trkpt lat="43.8200400351166" lon="10.904817931471818"><ele>99.0</ele><time>2026-04-19T09:17:48Z</time></trkpt><trkpt lat="43.82008378137115" lon="10.905003905247499"><ele>99.0</ele><time>2026-04-19T09:17:49Z</time></trkpt><trkpt lat="43.82015768725147" lon="10.905203330720326"><ele>99.0</ele><time>2026-04-19T09:17:50Z</time></trkpt><trkpt lat="43.820238369185354" lon="10.905334923543471"><ele>99.0</ele><time>2026-04-19T09:17:51Z</time></trkpt><trkpt lat="43.82033661209307" lon="10.905473760420074"><ele>101.25</ele><time>2026-04-19T09:17:52Z</time></trkpt><trkpt lat="43.82042138251023" lon="10.905596318682221"><ele>103.5</ele><time>2026-04-19T09:17:53Z</time></trkpt><trkpt lat="43.820493657423384" lon="10.905724928378632"><ele>105.75</ele><time>2026-04-19T09:17:54Z</time></trkpt><trkpt lat="43.8205467360309" lon="10.905878011407285"><ele>108.0</ele><time>2026-04-19T09:17:55Z</time></trkpt><trkpt lat="43.82057174794264" lon="10.906061067501255"><ele>108.0</ele><time>2026-04-19T09:17:56Z</time></trkpt><trkpt lat="43.82057999796461" lon="10.906239321925785"><ele>108.0</ele><time>2026-04-19T09:17:57Z</time></trkpt><trkpt lat="43.82061204795623" lon="10.906399963498087"><ele>108.0</ele><time>2026-04-19T09:17:58Z</time></trkpt><trkpt lat="43.82067047700481" lon="10.906552578576534"><ele>108.0</ele><time>2026-04-19T09:17:59Z</time></trkpt><trkpt lat="43.820752439496594" lon="10.906684158740614"><ele>106.0</ele><time>2026-04-19T09:18:00Z</time></trkpt><trkpt lat="43.82086378398789" lon="10.906792104205955"><ele>104.0</ele><time>2026-04-19T09:18:01Z</time></trkpt><trkpt lat="43.82098378191642" lon="10.90689287391665"><ele>102.0</ele><time>2026-04-19T09:18:02Z</time></trkpt><trkpt lat="43.821099497814366" lon="10.906953772540716"><ele>100.0</ele><time>2026-04-19T09:18:03Z</time></trkpt><trkpt lat="43.821176571689406" lon="10.907058395521032"><ele>104.5</ele><time>2026-04-19T09:18:04Z</time></trkpt><trkpt lat="43.82125358279821" lon="10.907175572359726"><ele>109.0</ele><time>2026-04-19T09:18:05Z</time></trkpt><trkpt lat="43.821323468535056" lon="10.907337264152194"><ele>113.5</ele><time>2026-04-19T09:18:06Z</time></trkpt><trkpt lat="43.82140249556319" lon="10.907524960227125"><ele>118.0</ele><time>2026-04-19T09:18:07Z</time></trkpt><trkpt lat="43.821457227310965" lon="10.907746025229729"><ele>118.0</ele><time>2026-04-19T09:18:08Z</time></trkpt><trkpt lat="43.82150845645008" lon="10.907961911103628"><ele>118.0</ele><time>2026-04-19T09:18:09Z</time></trkpt><trkpt lat="43.82155758790751" lon="10.908162125166783"><ele>118.0</ele><time>2026-04-19T09:18:10Z</time></trkpt><trkpt lat="43.82159992444441" lon="10.9083283136507"><ele>118.0</ele><time>2026-04-19T09:18:11Z</time></trkpt><trkpt lat="43.82164008465682" lon="10.908485494789499"><ele>116.75</ele><time>2026-04-19T09:18:12Z</time></trkpt><trkpt lat="43.82167928270944" lon="10.908636723800583"><ele>115.5</ele><time>2026-04-19T09:18:13Z</time></trkpt><trkpt lat="43.82173556068857" lon="10.908773375507762"><ele>114.25</ele><time>2026-04-19T09:18:14Z</time></trkpt><trkpt lat="43.82181759465372" lon="10.908896245445833"><ele>113.0</ele><time>2026-04-19T09:18:15Z</time></trkpt><trkpt lat="43.82193331264346" lon="10.908992823180755"><ele>117.33333333333333</ele><time>2026-04-19T09:18:16Z</time></trkpt><trkpt lat="43.82206342951953" lon="10.909087625347794"><ele>121.66666666666666</ele><time>2026-04-19T09:18:17Z</time></trkpt><trkpt lat="43.82220550754822" lon="10.909182102049176"><ele>126.0</ele><time>2026-04-19T09:18:18Z</time></trkpt><trkpt lat="43.8223519032507" lon="10.909286660291764"><ele>126.0</ele><time>2026-04-19T09:18:19Z</time></trkpt><trkpt lat="43.82251131148542" lon="10.909397866658649"><ele>126.0</ele><time>2026-04-19T09:18:20Z</time></trkpt><trkpt lat="43.82267974271304" lon="10.909517152557582"><ele>126.0</ele><time>2026-04-19T09:18:21Z</time></trkpt><trkpt lat="43.82284303550334" lon="10.909632366048157"><ele>132.66666666666666</ele><time>2026-04-19T09:18:22Z</time></trkpt><trkpt lat="43.822990777820635" lon="10.909763347695723"><ele>139.33333333333331</ele><time>2026-04-19T09:18:23Z</time></trkpt><trkpt lat="43.82314993388086" lon="10.909853779721043"><ele>146.0</ele><time>2026-04-19T09:18:24Z</time></trkpt><trkpt lat="43.823304889343525" lon="10.90996718818158"><ele>145.66666666666666</ele><time>2026-04-19T09:18:25Z</time></trkpt><trkpt lat="43.82346083993699" lon="10.910083493976224"><ele>145.33333333333334</ele><time>2026-04-19T09:18:26Z</time></trkpt><trkpt lat="43.82361167655528" lon="10.910204569247059"><ele>145.0</ele><time>2026-04-19T09:18:27Z</time></trkpt><trkpt lat="43.82374545248476" lon="10.910303003305568"><ele>148.0</ele><time>2026-04-19T09:18:28Z</time></trkpt><trkpt lat="43.823880978111795" lon="10.910399928499102"><ele>151.0</ele><time>2026-04-19T09:18:29Z</time></trkpt><trkpt lat="43.82402271359838" lon="10.910478791894835"><ele>154.0</ele><time>2026-04-19T09:18:30Z</time></trkpt><trkpt lat="43.824163740708606" lon="10.910583613720673"><ele>154.0</ele><time>2026-04-19T09:18:31Z</time></trkpt><trkpt lat="43.824273444347256" lon="10.910697125114504"><ele>154.0</ele><time>2026-04-19T09:18:32Z</time></trkpt><trkpt lat="43.824380019562085" lon="10.910800282512314"><ele>154.0</ele><time>2026-04-19T09:18:33Z</time></trkpt><trkpt lat="43.82449813769686" lon="10.91091547529125"><ele>154.0</ele><time>2026-04-19T09:18:34Z</time></trkpt><trkpt lat="43.82461108029639" lon="10.911060870177455"><ele>157.5</ele><time>2026-04-19T09:18:35Z</time></trkpt><trkpt lat="43.82471214714275" lon="10.911186810709944"><ele>161.0</ele><time>2026-04-19T09:18:36Z</time></trkpt><trkpt lat="43.82480107872088" lon="10.911308519164148"><ele>164.5</ele><time>2026-04-19T09:18:37Z</time></trkpt><trkpt lat="43.82489037926314" lon="10.911409163363263"><ele>168.0</ele><time>2026-04-19T09:18:38Z</time></trkpt><trkpt lat="43.82496806481082" lon="10.911498048231294"><ele>168.0</ele><time>2026-04-19T09:18:39Z</time></trkpt><trkpt lat="43.8250430578032" lon="10.911584384179713"><ele>168.0</ele><time>2026-04-19T09:18:40Z</time></trkpt><trkpt lat="43.82509421380031" lon="10.91169181352202"><ele>168.0</ele><time>2026-04-19T09:18:41Z</time></trkpt><trkpt lat="43.82514315320435" lon="10.911797343476895"><ele>168.0</ele><time>2026-04-19T09:18:42Z</time></trkpt><trkpt lat="43.825172215873124" lon="10.91191959695008"><ele>168.0</ele><time>2026-04-19T09:18:43Z</time></trkpt><trkpt lat="43.82517832355719" lon="10.91205865720863"><ele>170.0</ele><time>2026-04-19T09:18:44Z</time></trkpt><trkpt lat="43.825162743516834" lon="10.912164271392005"><ele>172.0</ele><time>2026-04-19T09:18:45Z</time></trkpt><trkpt lat="43.825118441552114" lon="10.912336647936277"><ele>174.0</ele><time>2026-04-19T09:18:46Z</time></trkpt><trkpt lat="43.82506573751182" lon="10.912463346304135"><ele>176.0</ele><time>2026-04-19T09:18:47Z</time></trkpt><trkpt lat="43.82500499783519" lon="10.912588774778818"><ele>178.0</ele><time>2026-04-19T09:18:48Z</time></trkpt><trkpt lat="43.82491665323071" lon="10.912655329023453"><ele>182.0</ele><time>2026-04-19T09:18:49Z</time></trkpt><trkpt lat="43.82481990023082" lon="10.912703576976753"><ele>186.0</ele><time>2026-04-19T09:18:50Z</time></trkpt><trkpt lat="43.82470430347804" lon="10.91268560283507"><ele>190.0</ele><time>2026-04-19T09:18:51Z</time></trkpt><trkpt lat="43.82457238328675" lon="10.912681165692607"><ele>194.0</ele><time>2026-04-19T09:18:52Z</time></trkpt><trkpt lat="43.82446535374342" lon="10.912677079586809"><ele>194.00000000000003</ele><time>2026-04-19T09:18:53Z</time></trkpt><trkpt lat="43.82439391480306" lon="10.912672721135774"><ele>194.0</ele><time>2026-04-19T09:18:54Z</time></trkpt><trkpt lat="43.824325885833844" lon="10.912677874562153"><ele>194.0</ele><time>2026-04-19T09:18:55Z</time></trkpt><trkpt lat="43.82426362083107" lon="10.91270629842204"><ele>194.0</ele><time>2026-04-19T09:18:56Z</time></trkpt><trkpt lat="43.824204230356514" lon="10.912765256198819"><ele>194.00000000000003</ele><time>2026-04-19T09:18:57Z</time></trkpt><trkpt lat="43.824156561270584" lon="10.912877482466673"><ele>194.0</ele><time>2026-04-19T09:18:58Z</time></trkpt><trkpt lat="43.82412717170396" lon="10.913009577510206"><ele>193.0</ele><time>2026-04-19T09:18:59Z</time></trkpt><trkpt lat="43.824129555755086" lon="10.913136988901199"><ele>192.0</ele><time>2026-04-19T09:19:00Z</time></trkpt><trkpt lat="43.82416776226208" lon="10.913246603779235"><ele>191.0</ele><time>2026-04-19T09:19:01Z</time></trkpt><trkpt lat="43.82423937611713" lon="10.913347007878405"><ele>190.0</ele><time>2026-04-19T09:19:02Z</time></trkpt><trkpt lat="43.824348044966115" lon="10.91343265176982"><ele>189.0</ele><time>2026-04-19T09:19:03Z</time></trkpt><trkpt lat="43.82447342334375" lon="10.913507652334818"><ele>189.0</ele><time>2026-04-19T09:19:04Z</time></trkpt><trkpt lat="43.824590857871925" lon="10.913583768531568"><ele>189.0</ele><time>2026-04-19T09:19:05Z</time></trkpt><trkpt lat="43.82471992887884" lon="10.913696918950494"><ele>189.0</ele><time>2026-04-19T09:19:06Z</time></trkpt><trkpt lat="43.82485809169087" lon="10.913819821007214"><ele>189.0</ele><time>2026-04-19T09:19:07Z</time></trkpt><trkpt lat="43.82498835551317" lon="10.913929588941114"><ele>189.0</ele><time>2026-04-19T09:19:08Z</time></trkpt><trkpt lat="43.82511076130238" lon="10.914034057104962"><ele>189.0</ele><time>2026-04-19T09:19:09Z</time></trkpt><trkpt lat="43.82523089262644" lon="10.914122490855167"><ele>189.0</ele><time>2026-04-19T09:19:10Z</time></trkpt><trkpt lat="43.82535995578566" lon="10.914202910886791"><ele>189.0</ele><time>2026-04-19T09:19:11Z</time></trkpt><trkpt lat="43.825507770244826" lon="10.914264638199743"><ele>189.75</ele><time>2026-04-19T09:19:12Z</time></trkpt><trkpt lat="43.82566173470634" lon="10.914306576890345"><ele>190.5</ele><time>2026-04-19T09:19:13Z</time></trkpt><trkpt lat="43.82581308394525" lon="10.914320242083575"><ele>191.25</ele><time>2026-04-19T09:19:14Z</time></trkpt><trkpt lat="43.82594074109751" lon="10.914335945653614"><ele>192.0</ele><time>2026-04-19T09:19:15Z</time></trkpt><trkpt lat="43.82604887658407" lon="10.91439515774425"><ele>198.0</ele><time>2026-04-19T09:19:16Z</time></trkpt><trkpt lat="43.826144542241494" lon="10.914431447290735"><ele>204.0</ele><time>2026-04-19T09:19:17Z</time></trkpt><trkpt lat="43.826233392701475" lon="10.914456728590894"><ele>210.0</ele><time>2026-04-19T09:19:18Z</time></trkpt><trkpt lat="43.82631186607207" lon="10.914532848618837"><ele>216.0</ele><time>2026-04-19T09:19:19Z</time></trkpt><trkpt lat="43.82636834619933" lon="10.914640481612352"><ele>222.0</ele><time>2026-04-19T09:19:20Z</time></trkpt><trkpt lat="43.826406793371284" lon="10.914766765400366"><ele>222.0</ele><time>2026-04-19T09:19:21Z</time></trkpt><trkpt lat="43.826416972374474" lon="10.914910699872658"><ele>222.0</ele><time>2026-04-19T09:19:22Z</time></trkpt><trkpt lat="43.82639838343949" lon="10.915061635565243"><ele>222.0</ele><time>2026-04-19T09:19:23Z</time></trkpt><trkpt lat="43.826363922117594" lon="10.91520880774611"><ele>222.0</ele><time>2026-04-19T09:19:24Z</time></trkpt><trkpt lat="43.826338120366444" lon="10.915342284848142"><ele>222.0</ele><time>2026-04-19T09:19:25Z</time></trkpt><trkpt lat="43.8263406438538" lon="10.915472093281059"><ele>220.75</ele><time>2026-04-19T09:19:26Z</time></trkpt><trkpt lat="43.8263683742909" lon="10.915605095907736"><ele>219.5</ele><time>2026-04-19T09:19:27Z</time></trkpt><trkpt lat="43.8264221659235" lon="10.915727804516255"><ele>218.25</ele><time>2026-04-19T09:19:28Z</time></trkpt><trkpt lat="43.82651340639029" lon="10.915845718330399"><ele>217.0</ele><time>2026-04-19T09:19:29Z</time></trkpt><trkpt lat="43.826619543376324" lon="10.915946636534015"><ele>219.0</ele><time>2026-04-19T09:19:30Z</time></trkpt><trkpt lat="43.826736757482244" lon="10.91602597796381"><ele>221.0</ele><time>2026-04-19T09:19:31Z</time></trkpt><trkpt lat="43.8268517086704" lon="10.91607778359596"><ele>223.0</ele><time>2026-04-19T09:19:32Z</time></trkpt><trkpt lat="43.82697219380395" lon="10.916087507453906"><ele>225.0</ele><time>2026-04-19T09:19:33Z</time></trkpt><trkpt lat="43.82709455801245" lon="10.91606117676617"><ele>225.0</ele><time>2026-04-19T09:19:34Z</time></trkpt><trkpt lat="43.82719285121746" lon="10.916024404228752"><ele>225.0</ele><time>2026-04-19T09:19:35Z</time></trkpt><trkpt lat="43.827286860530336" lon="10.916026656445318"><ele>225.0</ele><time>2026-04-19T09:19:36Z</time></trkpt><trkpt lat="43.82737245422935" lon="10.915996053844868"><ele>225.0</ele><time>2026-04-19T09:19:37Z</time></trkpt><trkpt lat="43.82743705510535" lon="10.916018852811979"><ele>225.0</ele><time>2026-04-19T09:19:38Z</time></trkpt><trkpt lat="43.82753333327705" lon="10.916143837129912"><ele>225.0</ele><time>2026-04-19T09:19:40Z</time></trkpt><trkpt lat="43.82756405239004" lon="10.916266419397632"><ele>225.0</ele><time>2026-04-19T09:19:41Z</time></trkpt><trkpt lat="43.82758654923529" lon="10.916406080405466"><ele>225.0</ele><time>2026-04-19T09:19:42Z</time></trkpt><trkpt lat="43.827603905663054" lon="10.916544214557096"><ele>225.0</ele><time>2026-04-19T09:19:43Z</time></trkpt><trkpt lat="43.82761304082423" lon="10.916674206593907"><ele>225.0</ele><time>2026-04-19T09:19:44Z</time></trkpt><trkpt lat="43.827607565563106" lon="10.916798766679602"><ele>224.5</ele><time>2026-04-19T09:19:45Z</time></trkpt><trkpt lat="43.82757972890414" lon="10.916909033045203"><ele>224.0</ele><time>2026-04-19T09:19:46Z</time></trkpt><trkpt lat="43.8275377793019" lon="10.917005822198174"><ele>223.5</ele><time>2026-04-19T09:19:47Z</time></trkpt><trkpt lat="43.82750795995485" lon="10.917097454668614"><ele>223.0</ele><time>2026-04-19T09:19:48Z</time></trkpt><trkpt lat="43.82751098609396" lon="10.917194893230125"><ele>222.5</ele><time>2026-04-19T09:19:49Z</time></trkpt><trkpt lat="43.8275459826919" lon="10.91729458845291"><ele>222.0</ele><time>2026-04-19T09:19:50Z</time></trkpt><trkpt lat="43.82760824866088" lon="10.917375052115748"><ele>225.66666666666666</ele><time>2026-04-19T09:19:51Z</time></trkpt><trkpt lat="43.82768961516209" lon="10.917433574857291"><ele>229.33333333333331</ele><time>2026-04-19T09:19:52Z</time></trkpt><trkpt lat="43.827774384289256" lon="10.91747592468065"><ele>233.0</ele><time>2026-04-19T09:19:53Z</time></trkpt><trkpt lat="43.827861182701305" lon="10.917506057880972"><ele>236.66666666666666</ele><time>2026-04-19T09:19:54Z</time></trkpt><trkpt lat="43.82794224596015" lon="10.917521664493893"><ele>240.33333333333331</ele><time>2026-04-19T09:19:55Z</time></trkpt><trkpt lat="43.828017176412295" lon="10.91751505197492"><ele>244.0</ele><time>2026-04-19T09:19:56Z</time></trkpt><trkpt lat="43.828083418424214" lon="10.917488778658848"><ele>243.99999999999997</ele><time>2026-04-19T09:19:57Z</time></trkpt><trkpt lat="43.82813365231891" lon="10.917428867352358"><ele>244.0</ele><time>2026-04-19T09:19:58Z</time></trkpt><trkpt lat="43.82817096722872" lon="10.917340135742535"><ele>244.0</ele><time>2026-04-19T09:19:59Z</time></trkpt><trkpt lat="43.82818172561543" lon="10.917227646569344"><ele>244.0</ele><time>2026-04-19T09:20:00Z</time></trkpt><trkpt lat="43.828152222491205" lon="10.917100979904498"><ele>243.99999999999997</ele><time>2026-04-19T09:20:01Z</time></trkpt><trkpt lat="43.82810994845879" lon="10.916969855582666"><ele>244.0</ele><time>2026-04-19T09:20:02Z</time></trkpt><trkpt lat="43.8280875719854" lon="10.91682513116769"><ele>245.49999999999997</ele><time>2026-04-19T09:20:03Z</time></trkpt><trkpt lat="43.82806680875525" lon="10.916691103251924"><ele>247.0</ele><time>2026-04-19T09:20:04Z</time></trkpt><trkpt lat="43.828036133938966" lon="10.916568789085982"><ele>248.5</ele><time>2026-04-19T09:20:05Z</time></trkpt><trkpt lat="43.82803144841419" lon="10.916443114123604"><ele>250.0</ele><time>2026-04-19T09:20:06Z</time></trkpt><trkpt lat="43.828035522883795" lon="10.91634930586231"><ele>251.49999999999997</ele><time>2026-04-19T09:20:07Z</time></trkpt><trkpt lat="43.82805067118288" lon="10.916249048547483"><ele>253.0</ele><time>2026-04-19T09:20:08Z</time></trkpt><trkpt lat="43.82809337220646" lon="10.916153945674816"><ele>253.0</ele><time>2026-04-19T09:20:09Z</time></trkpt><trkpt lat="43.8281649045388" lon="10.916065518357861"><ele>253.0</ele><time>2026-04-19T09:20:10Z</time></trkpt><trkpt lat="43.82825494373299" lon="10.915986276766725"><ele>253.0</ele><time>2026-04-19T09:20:11Z</time></trkpt><trkpt lat="43.828355308786485" lon="10.91593306548146"><ele>253.0</ele><time>2026-04-19T09:20:12Z</time></trkpt><trkpt lat="43.82845120263356" lon="10.915900893738138"><ele>253.0</ele><time>2026-04-19T09:20:13Z</time></trkpt><trkpt lat="43.82853407537764" lon="10.915860094824104"><ele>255.83333333333331</ele><time>2026-04-19T09:20:14Z</time></trkpt><trkpt lat="43.82860226625265" lon="10.915795089011482"><ele>258.66666666666663</ele><time>2026-04-19T09:20:15Z</time></trkpt><trkpt lat="43.82865658375565" lon="10.915708766046928"><ele>261.5</ele><time>2026-04-19T09:20:16Z</time></trkpt><trkpt lat="43.828693974635186" lon="10.91560599466768"><ele>264.3333333333333</ele><time>2026-04-19T09:20:17Z</time></trkpt><trkpt lat="43.82870812091468" lon="10.915486725600609"><ele>267.1666666666667</ele><time>2026-04-19T09:20:18Z</time></trkpt><trkpt lat="43.828705276399624" lon="10.915357290723493"><ele>270.0</ele><time>2026-04-19T09:20:19Z</time></trkpt><trkpt lat="43.82867266167721" lon="10.915226977832155"><ele>270.0</ele><time>2026-04-19T09:20:20Z</time></trkpt><trkpt lat="43.828620135405394" lon="10.91512111821345"><ele>270.0</ele><time>2026-04-19T09:20:21Z</time></trkpt><trkpt lat="43.82857473987196" lon="10.915054992794444"><ele>270.0</ele><time>2026-04-19T09:20:22Z</time></trkpt><trkpt lat="43.82851946211294" lon="10.914928682860895"><ele>270.0</ele><time>2026-04-19T09:20:24Z</time></trkpt><trkpt lat="43.828544330721584" lon="10.914771516367379"><ele>270.0</ele><time>2026-04-19T09:20:26Z</time></trkpt><trkpt lat="43.82866051391606" lon="10.914684802721268"><ele>270.0</ele><time>2026-04-19T09:20:28Z</time></trkpt><trkpt lat="43.82872397767983" lon="10.914700081162993"><ele>270.0</ele><time>2026-04-19T09:20:29Z</time></trkpt><trkpt lat="43.828787752640416" lon="10.914755702020845"><ele>270.0</ele><time>2026-04-19T09:20:30Z</time></trkpt><trkpt lat="43.82883596516294" lon="10.914859858741117"><ele>270.0</ele><time>2026-04-19T09:20:31Z</time></trkpt><trkpt lat="43.82891350521393" lon="10.914932076328482"><ele>270.0</ele><time>2026-04-19T09:20:32Z</time></trkpt><trkpt lat="43.829018286267065" lon="10.915018791669194"><ele>270.0</ele><time>2026-04-19T09:20:33Z</time></trkpt><trkpt lat="43.829129851399" lon="10.915085306063444"><ele>270.0</ele><time>2026-04-19T09:20:34Z</time></trkpt><trkpt lat="43.82924276895069" lon="10.915133198550928"><ele>270.0</ele><time>2026-04-19T09:20:35Z</time></trkpt><trkpt lat="43.82935649670928" lon="10.915166525346613"><ele>270.0</ele><time>2026-04-19T09:20:36Z</time></trkpt><trkpt lat="43.82947468905408" lon="10.915186838588184"><ele>270.0</ele><time>2026-04-19T09:20:37Z</time></trkpt><trkpt lat="43.82958311248349" lon="10.915190156336585"><ele>271.2</ele><time>2026-04-19T09:20:38Z</time></trkpt><trkpt lat="43.82968854822794" lon="10.915188514552128"><ele>272.4</ele><time>2026-04-19T09:20:39Z</time></trkpt><trkpt lat="43.82977248060511" lon="10.915202509239668"><ele>273.6</ele><time>2026-04-19T09:20:40Z</time></trkpt><trkpt lat="43.82984505518319" lon="10.915244595119557"><ele>274.8</ele><time>2026-04-19T09:20:41Z</time></trkpt><trkpt lat="43.829915056069495" lon="10.915316289326277"><ele>276.0</ele><time>2026-04-19T09:20:42Z</time></trkpt><trkpt lat="43.82999606232668" lon="10.915432454385106"><ele>276.0</ele><time>2026-04-19T09:20:43Z</time></trkpt><trkpt lat="43.83008192325481" lon="10.91557123464152"><ele>276.0</ele><time>2026-04-19T09:20:44Z</time></trkpt><trkpt lat="43.830171078693056" lon="10.91570352760433"><ele>276.0</ele><time>2026-04-19T09:20:45Z</time></trkpt><trkpt lat="43.83026139300328" lon="10.915815043466779"><ele>276.0</ele><time>2026-04-19T09:20:46Z</time></trkpt><trkpt lat="43.83035145198939" lon="10.915913039063946"><ele>278.5</ele><time>2026-04-19T09:20:47Z</time></trkpt><trkpt lat="43.83044257152103" lon="10.916005772104626"><ele>281.0</ele><time>2026-04-19T09:20:48Z</time></trkpt><trkpt lat="43.83055026871156" lon="10.916097559620427"><ele>283.5</ele><time>2026-04-19T09:20:49Z</time></trkpt><trkpt lat="43.83066784350114" lon="10.91616381779488"><ele>286.0</ele><time>2026-04-19T09:20:50Z</time></trkpt><trkpt lat="43.83077394725154" lon="10.916198032772108"><ele>286.0</ele><time>2026-04-19T09:20:51Z</time></trkpt><trkpt lat="43.830871156992224" lon="10.916224591575684"><ele>286.0</ele><time>2026-04-19T09:20:52Z</time></trkpt><trkpt lat="43.830955960552345" lon="10.916251421687699"><ele>286.0</ele><time>2026-04-19T09:20:53Z</time></trkpt><trkpt lat="43.83103490418672" lon="10.916291623017077"><ele>286.0</ele><time>2026-04-19T09:20:54Z</time></trkpt><trkpt lat="43.8311243929305" lon="10.916365914796181"><ele>286.0</ele><time>2026-04-19T09:20:55Z</time></trkpt><trkpt lat="43.83120884567427" lon="10.916461290219749"><ele>285.0</ele><time>2026-04-19T09:20:56Z</time></trkpt><trkpt lat="43.83130022914736" lon="10.91656951713572"><ele>284.0</ele><time>2026-04-19T09:20:57Z</time></trkpt><trkpt lat="43.83141215285195" lon="10.91669210027745"><ele>283.0</ele><time>2026-04-19T09:20:58Z</time></trkpt><trkpt lat="43.831535104701615" lon="10.916823648362401"><ele>282.0</ele><time>2026-04-19T09:20:59Z</time></trkpt><trkpt lat="43.831648618550425" lon="10.916942243752864"><ele>286.0</ele><time>2026-04-19T09:21:00Z</time></trkpt><trkpt lat="43.831750197024434" lon="10.917057657916308"><ele>290.0</ele><time>2026-04-19T09:21:01Z</time></trkpt><trkpt lat="43.83185061054459" lon="10.917165999906656"><ele>294.0</ele><time>2026-04-19T09:21:02Z</time></trkpt><trkpt lat="43.831940122041495" lon="10.91725991363642"><ele>298.0</ele><time>2026-04-19T09:21:03Z</time></trkpt><trkpt lat="43.832026781190905" lon="10.91734706030938"><ele>298.0</ele><time>2026-04-19T09:21:04Z</time></trkpt><trkpt lat="43.83211858873859" lon="10.917418970304368"><ele>298.0</ele><time>2026-04-19T09:21:05Z</time></trkpt><trkpt lat="43.83221352459158" lon="10.917462447009076"><ele>298.0</ele><time>2026-04-19T09:21:06Z</time></trkpt><trkpt lat="43.832303920875944" lon="10.917489599918849"><ele>298.0</ele><time>2026-04-19T09:21:07Z</time></trkpt><trkpt lat="43.83239428709679" lon="10.917480481909633"><ele>298.0</ele><time>2026-04-19T09:21:08Z</time></trkpt><trkpt lat="43.83247471446175" lon="10.917434385060819"><ele>298.0</ele><time>2026-04-19T09:21:09Z</time></trkpt><trkpt lat="43.83253762083326" lon="10.917365644755492"><ele>298.0</ele><time>2026-04-19T09:21:10Z</time></trkpt><trkpt lat="43.83259350790525" lon="10.917324644091291"><ele>298.0</ele><time>2026-04-19T09:21:11Z</time></trkpt><trkpt lat="43.83272288684908" lon="10.917357816039912"><ele>298.0</ele><time>2026-04-19T09:21:13Z</time></trkpt><trkpt lat="43.83279285247576" lon="10.917430215566114"><ele>298.0</ele><time>2026-04-19T09:21:14Z</time></trkpt><trkpt lat="43.8328801504169" lon="10.917487011163523"><ele>296.66666666666663</ele><time>2026-04-19T09:21:15Z</time></trkpt><trkpt lat="43.83295422051878" lon="10.91756743570728"><ele>295.3333333333333</ele><time>2026-04-19T09:21:16Z</time></trkpt><trkpt lat="43.833024833772" lon="10.9176254994327"><ele>294.0</ele><time>2026-04-19T09:21:17Z</time></trkpt><trkpt lat="43.83309012899039" lon="10.917651965870423"><ele>292.6666666666667</ele><time>2026-04-19T09:21:18Z</time></trkpt><trkpt lat="43.83318558510147" lon="10.917687741200602"><ele>291.33333333333337</ele><time>2026-04-19T09:21:20Z</time></trkpt><trkpt lat="43.833243113450095" lon="10.91779086871029"><ele>290.0</ele><time>2026-04-19T09:21:22Z</time></trkpt><trkpt lat="43.833210119870586" lon="10.917935730210205"><ele>293.6666666666667</ele><time>2026-04-19T09:21:24Z</time></trkpt><trkpt lat="43.83314504982414" lon="10.917943383623262"><ele>297.33333333333337</ele><time>2026-04-19T09:21:25Z</time></trkpt><trkpt lat="43.833037550913666" lon="10.917889652067881"><ele>301.0</ele><time>2026-04-19T09:21:27Z</time></trkpt><trkpt lat="43.83295372375999" lon="10.917857581892541"><ele>304.6666666666667</ele><time>2026-04-19T09:21:28Z</time></trkpt><trkpt lat="43.832871474042015" lon="10.917800303298147"><ele>308.3333333333333</ele><time>2026-04-19T09:21:29Z</time></trkpt><trkpt lat="43.83278813421203" lon="10.91776301836961"><ele>312.0</ele><time>2026-04-19T09:21:30Z</time></trkpt><trkpt lat="43.832703909369" lon="10.91776159108095"><ele>312.8</ele><time>2026-04-19T09:21:31Z</time></trkpt><trkpt lat="43.832612929349914" lon="10.917788254048888"><ele>313.6</ele><time>2026-04-19T09:21:32Z</time></trkpt><trkpt lat="43.83251938167692" lon="10.917825255077249"><ele>314.40000000000003</ele><time>2026-04-19T09:21:33Z</time></trkpt><trkpt lat="43.83243162300435" lon="10.917881631912046"><ele>315.2</ele><time>2026-04-19T09:21:34Z</time></trkpt><trkpt lat="43.832344248282716" lon="10.917947972850271"><ele>316.0</ele><time>2026-04-19T09:21:35Z</time></trkpt><trkpt lat="43.83226693663498" lon="10.918000687114104"><ele>316.0</ele><time>2026-04-19T09:21:36Z</time></trkpt><trkpt lat="43.83218422269805" lon="10.918063728649027"><ele>316.0</ele><time>2026-04-19T09:21:37Z</time></trkpt><trkpt lat="43.83210687611759" lon="10.918126421790038"><ele>316.0</ele><time>2026-04-19T09:21:38Z</time></trkpt><trkpt lat="43.83205542343058" lon="10.91820208954355"><ele>316.0</ele><time>2026-04-19T09:21:39Z</time></trkpt><trkpt lat="43.832016967476534" lon="10.918305077826739"><ele>316.0</ele><time>2026-04-19T09:21:40Z</time></trkpt><trkpt lat="43.83199094224235" lon="10.918436957309186"><ele>316.0</ele><time>2026-04-19T09:21:41Z</time></trkpt><trkpt lat="43.831988993166256" lon="10.918571210311676"><ele>316.66666666666663</ele><time>2026-04-19T09:21:42Z</time></trkpt><trkpt lat="43.8320083031516" lon="10.918701693807076"><ele>317.3333333333333</ele><time>2026-04-19T09:21:43Z</time></trkpt><trkpt lat="43.83204215906191" lon="10.918814873796485"><ele>318.0</ele><time>2026-04-19T09:21:44Z</time></trkpt><trkpt lat="43.8320857073851" lon="10.918894603576916"><ele>318.6666666666667</ele><time>2026-04-19T09:21:45Z</time></trkpt><trkpt lat="43.83215235238761" lon="10.91895693742744"><ele>319.33333333333337</ele><time>2026-04-19T09:21:46Z</time></trkpt><trkpt lat="43.83224289961081" lon="10.918998946201159"><ele>320.0</ele><time>2026-04-19T09:21:47Z</time></trkpt><trkpt lat="43.83235218409914" lon="10.91900583941727"><ele>320.0</ele><time>2026-04-19T09:21:48Z</time></trkpt><trkpt lat="43.832471424384856" lon="10.918993298977234"><ele>320.0</ele><time>2026-04-19T09:21:49Z</time></trkpt><trkpt lat="43.832581380644434" lon="10.918979690261411"><ele>320.0</ele><time>2026-04-19T09:21:50Z</time></trkpt><trkpt lat="43.83268058209042" lon="10.918977919869057"><ele>320.0</ele><time>2026-04-19T09:21:51Z</time></trkpt><trkpt lat="43.832782168380085" lon="10.918985510943594"><ele>320.0</ele><time>2026-04-19T09:21:52Z</time></trkpt><trkpt lat="43.83287956295185" lon="10.919002994553304"><ele>319.25</ele><time>2026-04-19T09:21:53Z</time></trkpt><trkpt lat="43.83298049393684" lon="10.919055454643052"><ele>318.5</ele><time>2026-04-19T09:21:54Z</time></trkpt><trkpt lat="43.83309278358137" lon="10.919149422255865"><ele>317.75</ele><time>2026-04-19T09:21:55Z</time></trkpt><trkpt lat="43.833199098580856" lon="10.91925067087694"><ele>317.0</ele><time>2026-04-19T09:21:56Z</time></trkpt><trkpt lat="43.833278418737386" lon="10.919323688061878"><ele>317.0</ele><time>2026-04-19T09:21:57Z</time></trkpt><trkpt lat="43.833339954828" lon="10.919379605094136"><ele>317.0</ele><time>2026-04-19T09:21:58Z</time></trkpt><trkpt lat="43.83341555093108" lon="10.91944595187075"><ele>317.0</ele><time>2026-04-19T09:21:59Z</time></trkpt><trkpt lat="43.83349094182121" lon="10.91950781311285"><ele>317.0</ele><time>2026-04-19T09:22:00Z</time></trkpt><trkpt lat="43.83355391330631" lon="10.919563335032025"><ele>317.0</ele><time>2026-04-19T09:22:01Z</time></trkpt><trkpt lat="43.83361861200577" lon="10.919620133783436"><ele>317.0</ele><time>2026-04-19T09:22:02Z</time></trkpt><trkpt lat="43.83368296611885" lon="10.91967420866114"><ele>320.6666666666667</ele><time>2026-04-19T09:22:03Z</time></trkpt><trkpt lat="43.833744227383995" lon="10.91971420059358"><ele>324.33333333333337</ele><time>2026-04-19T09:22:04Z</time></trkpt><trkpt lat="43.833813530801635" lon="10.91971896391972"><ele>328.0</ele><time>2026-04-19T09:22:05Z</time></trkpt><trkpt lat="43.83388999784089" lon="10.919680775395186"><ele>331.6666666666667</ele><time>2026-04-19T09:22:06Z</time></trkpt><trkpt lat="43.83395557166007" lon="10.919596962945036"><ele>335.3333333333333</ele><time>2026-04-19T09:22:07Z</time></trkpt><trkpt lat="43.834004371301816" lon="10.919498420767596"><ele>339.0</ele><time>2026-04-19T09:22:08Z</time></trkpt><trkpt lat="43.83404695907184" lon="10.919407568653641"><ele>339.0</ele><time>2026-04-19T09:22:09Z</time></trkpt><trkpt lat="43.83411731014983" lon="10.91935280493749"><ele>339.0</ele><time>2026-04-19T09:22:10Z</time></trkpt><trkpt lat="43.83419301898163" lon="10.919324395166015"><ele>339.0</ele><time>2026-04-19T09:22:11Z</time></trkpt><trkpt lat="43.834262681979524" lon="10.91929541631351"><ele>339.0</ele><time>2026-04-19T09:22:12Z</time></trkpt><trkpt lat="43.834323427257985" lon="10.91925938321789"><ele>339.0</ele><time>2026-04-19T09:22:13Z</time></trkpt><trkpt lat="43.83438796682114" lon="10.919222594150245"><ele>339.0</ele><time>2026-04-19T09:22:14Z</time></trkpt><trkpt lat="43.83445869098175" lon="10.91918685327617"><ele>339.0</ele><time>2026-04-19T09:22:15Z</time></trkpt><trkpt lat="43.834536720715505" lon="10.91914187876844"><ele>341.4</ele><time>2026-04-19T09:22:16Z</time></trkpt><trkpt lat="43.83463255523943" lon="10.919091017489151"><ele>343.79999999999995</ele><time>2026-04-19T09:22:17Z</time></trkpt><trkpt lat="43.834723992543154" lon="10.919036111086493"><ele>346.20000000000005</ele><time>2026-04-19T09:22:18Z</time></trkpt><trkpt lat="43.83480997473811" lon="10.918981118100353"><ele>348.6</ele><time>2026-04-19T09:22:19Z</time></trkpt><trkpt lat="43.83489159726627" lon="10.918934606004823"><ele>351.0</ele><time>2026-04-19T09:22:20Z</time></trkpt><trkpt lat="43.83497464838391" lon="10.918881445585493"><ele>351.0</ele><time>2026-04-19T09:22:21Z</time></trkpt><trkpt lat="43.83505773352008" lon="10.91882984855262"><ele>351.0</ele><time>2026-04-19T09:22:22Z</time></trkpt><trkpt lat="43.8351291957429" lon="10.91878559594208"><ele>351.0</ele><time>2026-04-19T09:22:23Z</time></trkpt><trkpt lat="43.83519444311441" lon="10.918740506486065"><ele>351.0</ele><time>2026-04-19T09:22:24Z</time></trkpt><trkpt lat="43.83525755662027" lon="10.918706740971407"><ele>351.0</ele><time>2026-04-19T09:22:25Z</time></trkpt><trkpt lat="43.83537528385201" lon="10.91867526309331"><ele>351.0</ele><time>2026-04-19T09:22:27Z</time></trkpt><trkpt lat="43.83546619956436" lon="10.918693517045698"><ele>351.3333333333333</ele><time>2026-04-19T09:22:29Z</time></trkpt><trkpt lat="43.835559228768204" lon="10.918740387167903"><ele>351.6666666666667</ele><time>2026-04-19T09:22:31Z</time></trkpt><trkpt lat="43.83562530937865" lon="10.918785962139989"><ele>352.0</ele><time>2026-04-19T09:22:32Z</time></trkpt><trkpt lat="43.835697495080986" lon="10.918844667340657"><ele>352.33333333333337</ele><time>2026-04-19T09:22:33Z</time></trkpt><trkpt lat="43.83576347903023" lon="10.918914457322622"><ele>352.6666666666667</ele><time>2026-04-19T09:22:34Z</time></trkpt><trkpt lat="43.83583750302352" lon="10.918966764218203"><ele>353.0</ele><time>2026-04-19T09:22:35Z</time></trkpt><trkpt lat="43.83590880567877" lon="10.919007821633304"><ele>351.83333333333337</ele><time>2026-04-19T09:22:36Z</time></trkpt><trkpt lat="43.835988426891205" lon="10.91903590801084"><ele>350.6666666666667</ele><time>2026-04-19T09:22:37Z</time></trkpt><trkpt lat="43.83607507585254" lon="10.919039702337344"><ele>349.5</ele><time>2026-04-19T09:22:38Z</time></trkpt><trkpt lat="43.83616027047883" lon="10.919028100371408"><ele>348.3333333333333</ele><time>2026-04-19T09:22:39Z</time></trkpt><trkpt lat="43.836251012349116" lon="10.919024701103691"><ele>347.16666666666663</ele><time>2026-04-19T09:22:40Z</time></trkpt><trkpt lat="43.83633191198183" lon="10.919032008467918"><ele>346.0</ele><time>2026-04-19T09:22:41Z</time></trkpt><trkpt lat="43.836427595764526" lon="10.91903648872584"><ele>346.0</ele><time>2026-04-19T09:22:42Z</time></trkpt><trkpt lat="43.83651607826565" lon="10.919063283711608"><ele>346.0</ele><time>2026-04-19T09:22:43Z</time></trkpt><trkpt lat="43.836593728664916" lon="10.919109610553882"><ele>346.0</ele><time>2026-04-19T09:22:44Z</time></trkpt><trkpt lat="43.83666677248165" lon="10.919163356319377"><ele>346.0</ele><time>2026-04-19T09:22:45Z</time></trkpt><trkpt lat="43.83673685778621" lon="10.91921857775525"><ele>346.0</ele><time>2026-04-19T09:22:46Z</time></trkpt><trkpt lat="43.836801934126" lon="10.919268724590815"><ele>346.0</ele><time>2026-04-19T09:22:47Z</time></trkpt><trkpt lat="43.83688148398612" lon="10.919299228213744"><ele>345.8</ele><time>2026-04-19T09:22:48Z</time></trkpt><trkpt lat="43.836947034796545" lon="10.919304735091206"><ele>345.6</ele><time>2026-04-19T09:22:49Z</time></trkpt><trkpt lat="43.83705726901212" lon="10.919225063595528"><ele>345.4</ele><time>2026-04-19T09:22:50Z</time></trkpt><trkpt lat="43.83716552914813" lon="10.919174486101943"><ele>345.2</ele><time>2026-04-19T09:22:51Z</time></trkpt><trkpt lat="43.83722738898602" lon="10.919142628551315"><ele>345.0</ele><time>2026-04-19T09:22:52Z</time></trkpt><trkpt lat="43.83730627681293" lon="10.919116803945096"><ele>345.0</ele><time>2026-04-19T09:22:53Z</time></trkpt><trkpt lat="43.83740300704821" lon="10.919110700367524"><ele>345.0</ele><time>2026-04-19T09:22:54Z</time></trkpt><trkpt lat="43.83751536172809" lon="10.919137263474493"><ele>345.0</ele><time>2026-04-19T09:22:55Z</time></trkpt><trkpt lat="43.837626465141035" lon="10.919167562896876"><ele>345.0</ele><time>2026-04-19T09:22:56Z</time></trkpt><trkpt lat="43.83772386555935" lon="10.919197341498782"><ele>345.0</ele><time>2026-04-19T09:22:57Z</time></trkpt><trkpt lat="43.837805286909884" lon="10.919223526441508"><ele>349.2</ele><time>2026-04-19T09:22:58Z</time></trkpt><trkpt lat="43.83790181715074" lon="10.919254570383288"><ele>353.4</ele><time>2026-04-19T09:22:59Z</time></trkpt><trkpt lat="43.838004944338664" lon="10.919269725558914"><ele>357.6</ele><time>2026-04-19T09:23:00Z</time></trkpt><trkpt lat="43.83811644014826" lon="10.919308955425409"><ele>361.8</ele><time>2026-04-19T09:23:01Z</time></trkpt><trkpt lat="43.83822049615556" lon="10.919335564615206"><ele>366.0</ele><time>2026-04-19T09:23:02Z</time></trkpt><trkpt lat="43.838321327159086" lon="10.919366377150416"><ele>366.0</ele><time>2026-04-19T09:23:03Z</time></trkpt><trkpt lat="43.83841749809339" lon="10.91939935105197"><ele>366.0</ele><time>2026-04-19T09:23:04Z</time></trkpt><trkpt lat="43.838509088164564" lon="10.919431127014493"><ele>366.0</ele><time>2026-04-19T09:23:05Z</time></trkpt><trkpt lat="43.83859900475926" lon="10.9194628324131"><ele>366.0</ele><time>2026-04-19T09:23:06Z</time></trkpt><trkpt lat="43.83868727020469" lon="10.919489517299425"><ele>366.0</ele><time>2026-04-19T09:23:07Z</time></trkpt><trkpt lat="43.83879150437993" lon="10.919519056146031"><ele>364.1666666666667</ele><time>2026-04-19T09:23:08Z</time></trkpt><trkpt lat="43.83889492188303" lon="10.91955785568759"><ele>362.3333333333333</ele><time>2026-04-19T09:23:09Z</time></trkpt><trkpt lat="43.838986038086865" lon="10.91958990208589"><ele>360.5</ele><time>2026-04-19T09:23:10Z</time></trkpt><trkpt lat="43.83907236982641" lon="10.91962230471319"><ele>358.66666666666663</ele><time>2026-04-19T09:23:11Z</time></trkpt><trkpt lat="43.83915156962565" lon="10.919647245545821"><ele>356.8333333333333</ele><time>2026-04-19T09:23:12Z</time></trkpt><trkpt lat="43.83922318706586" lon="10.919669081842434"><ele>355.0</ele><time>2026-04-19T09:23:13Z</time></trkpt><trkpt lat="43.83930362901031" lon="10.919681138444602"><ele>351.66666666666663</ele><time>2026-04-19T09:23:14Z</time></trkpt><trkpt lat="43.839388123485364" lon="10.919663036978168"><ele>348.3333333333333</ele><time>2026-04-19T09:23:15Z</time></trkpt><trkpt lat="43.8394797637609" lon="10.919646033652919"><ele>345.0</ele><time>2026-04-19T09:23:16Z</time></trkpt><trkpt lat="43.8395502859674" lon="10.919605753764007"><ele>341.6666666666667</ele><time>2026-04-19T09:23:17Z</time></trkpt><trkpt lat="43.839608592359745" lon="10.91954006392345"><ele>338.33333333333337</ele><time>2026-04-19T09:23:18Z</time></trkpt><trkpt lat="43.83966176874414" lon="10.91945852457718"><ele>335.0</ele><time>2026-04-19T09:23:19Z</time></trkpt><trkpt lat="43.839705037309194" lon="10.919352921246281"><ele>335.0</ele><time>2026-04-19T09:23:20Z</time></trkpt><trkpt lat="43.83974471974034" lon="10.919242114126073"><ele>335.0</ele><time>2026-04-19T09:23:21Z</time></trkpt><trkpt lat="43.83978493077989" lon="10.91912575731705"><ele>335.0</ele><time>2026-04-19T09:23:22Z</time></trkpt><trkpt lat="43.83982474523814" lon="10.919012711628806"><ele>335.0</ele><time>2026-04-19T09:23:23Z</time></trkpt><trkpt lat="43.8398929196581" lon="10.918861634148312"><ele>335.0</ele><time>2026-04-19T09:23:25Z</time></trkpt><trkpt lat="43.839953936678" lon="10.918826353052374"><ele>334.2</ele><time>2026-04-19T09:23:26Z</time></trkpt><trkpt lat="43.84002320930817" lon="10.918800940369122"><ele>333.4</ele><time>2026-04-19T09:23:27Z</time></trkpt><trkpt lat="43.84010775588053" lon="10.918807745870152"><ele>332.6</ele><time>2026-04-19T09:23:28Z</time></trkpt><trkpt lat="43.84020042542657" lon="10.918851029210302"><ele>331.8</ele><time>2026-04-19T09:23:29Z</time></trkpt><trkpt lat="43.84029869296749" lon="10.918922772174659"><ele>331.0</ele><time>2026-04-19T09:23:30Z</time></trkpt><trkpt lat="43.84039597897683" lon="10.918992766135899"><ele>329.75</ele><time>2026-04-19T09:23:31Z</time></trkpt><trkpt lat="43.84050083018985" lon="10.919067768856333"><ele>328.5</ele><time>2026-04-19T09:23:32Z</time></trkpt><trkpt lat="43.840635506143066" lon="10.919099735573873"><ele>327.25</ele><time>2026-04-19T09:23:33Z</time></trkpt><trkpt lat="43.84076153925958" lon="10.919130700747113"><ele>326.0</ele><time>2026-04-19T09:23:34Z</time></trkpt><trkpt lat="43.84089701084921" lon="10.919162493982357"><ele>326.0</ele><time>2026-04-19T09:23:35Z</time></trkpt><trkpt lat="43.84101619142381" lon="10.91917512423085"><ele>326.0</ele><time>2026-04-19T09:23:36Z</time></trkpt><trkpt lat="43.841137349768765" lon="10.919191928523746"><ele>326.0</ele><time>2026-04-19T09:23:37Z</time></trkpt><trkpt lat="43.84124473464042" lon="10.91924866077698"><ele>326.0</ele><time>2026-04-19T09:23:38Z</time></trkpt><trkpt lat="43.84137236094453" lon="10.919325389179784"><ele>322.0</ele><time>2026-04-19T09:23:39Z</time></trkpt><trkpt lat="43.841486529503364" lon="10.919379839074338"><ele>318.0</ele><time>2026-04-19T09:23:40Z</time></trkpt><trkpt lat="43.841600773746784" lon="10.919445202690317"><ele>314.0</ele><time>2026-04-19T09:23:41Z</time></trkpt><trkpt lat="43.84172016647092" lon="10.919529881007595"><ele>310.0</ele><time>2026-04-19T09:23:42Z</time></trkpt><trkpt lat="43.84182849920981" lon="10.919611985503368"><ele>310.0</ele><time>2026-04-19T09:23:43Z</time></trkpt><trkpt lat="43.841927850404915" lon="10.919672447414372"><ele>310.0</ele><time>2026-04-19T09:23:44Z</time></trkpt><trkpt lat="43.842018652784354" lon="10.919736654395548"><ele>310.0</ele><time>2026-04-19T09:23:45Z</time></trkpt><trkpt lat="43.842103726235806" lon="10.919801558105467"><ele>310.0</ele><time>2026-04-19T09:23:46Z</time></trkpt><trkpt lat="43.842185449820306" lon="10.919859480173184"><ele>310.0</ele><time>2026-04-19T09:23:47Z</time></trkpt><trkpt lat="43.842253682810764" lon="10.919921879916725"><ele>310.0</ele><time>2026-04-19T09:23:48Z</time></trkpt><trkpt lat="43.84231473278309" lon="10.91997345521152"><ele>310.0</ele><time>2026-04-19T09:23:49Z</time></trkpt><trkpt lat="43.842387680105126" lon="10.92001595288698"><ele>310.0</ele><time>2026-04-19T09:23:50Z</time></trkpt><trkpt lat="43.84244442122759" lon="10.920054837071255"><ele>310.0</ele><time>2026-04-19T09:23:51Z</time></trkpt><trkpt lat="43.8425635944566" lon="10.920057738484527"><ele>310.0</ele><time>2026-04-19T09:23:53Z</time></trkpt><trkpt lat="43.84262055641145" lon="10.91999241276482"><ele>310.0</ele><time>2026-04-19T09:23:54Z</time></trkpt><trkpt lat="43.84264759360165" lon="10.91981961887974"><ele>310.0</ele><time>2026-04-19T09:23:56Z</time></trkpt><trkpt lat="43.84261807821583" lon="10.91970954232196"><ele>310.0</ele><time>2026-04-19T09:23:57Z</time></trkpt><trkpt lat="43.84255000161834" lon="10.919601489696477"><ele>310.0</ele><time>2026-04-19T09:23:58Z</time></trkpt><trkpt lat="43.84246855408887" lon="10.919493580618196"><ele>310.0</ele><time>2026-04-19T09:23:59Z</time></trkpt><trkpt lat="43.84238800621522" lon="10.919369052961384"><ele>310.0</ele><time>2026-04-19T09:24:00Z</time></trkpt><trkpt lat="43.842309831975236" lon="10.9192071184712"><ele>308.8</ele><time>2026-04-19T09:24:01Z</time></trkpt><trkpt lat="43.84226083271042" lon="10.919047460393182"><ele>307.6</ele><time>2026-04-19T09:24:02Z</time></trkpt><trkpt lat="43.842211562365414" lon="10.918913807659553"><ele>306.4</ele><time>2026-04-19T09:24:03Z</time></trkpt><trkpt lat="43.842163836642044" lon="10.918788604044149"><ele>305.2</ele><time>2026-04-19T09:24:04Z</time></trkpt><trkpt lat="43.842116467752874" lon="10.918664336556866"><ele>304.0</ele><time>2026-04-19T09:24:05Z</time></trkpt><trkpt lat="43.84207081667639" lon="10.918549880278944"><ele>304.0</ele><time>2026-04-19T09:24:06Z</time></trkpt><trkpt lat="43.842029180826756" lon="10.918445691055306"><ele>304.0</ele><time>2026-04-19T09:24:07Z</time></trkpt><trkpt lat="43.84199443869303" lon="10.918352690650915"><ele>304.0</ele><time>2026-04-19T09:24:08Z</time></trkpt><trkpt lat="43.84195005390032" lon="10.918209805429198"><ele>304.0</ele><time>2026-04-19T09:24:10Z</time></trkpt><trkpt lat="43.841958659698705" lon="10.918070902816405"><ele>304.0</ele><time>2026-04-19T09:24:12Z</time></trkpt><trkpt lat="43.84201192663103" lon="10.918010188914092"><ele>304.0</ele><time>2026-04-19T09:24:13Z</time></trkpt><trkpt lat="43.84209169164571" lon="10.917977460826895"><ele>304.25</ele><time>2026-04-19T09:24:14Z</time></trkpt><trkpt lat="43.842193195585" lon="10.917982148078273"><ele>304.5</ele><time>2026-04-19T09:24:15Z</time></trkpt><trkpt lat="43.84232451545156" lon="10.918021035010602"><ele>304.75</ele><time>2026-04-19T09:24:16Z</time></trkpt><trkpt lat="43.84245754504921" lon="10.91801904487352"><ele>305.0</ele><time>2026-04-19T09:24:17Z</time></trkpt><trkpt lat="43.842605747370065" lon="10.918024246605786"><ele>302.25</ele><time>2026-04-19T09:24:18Z</time></trkpt><trkpt lat="43.84273873494254" lon="10.918045697658597"><ele>299.5</ele><time>2026-04-19T09:24:19Z</time></trkpt><trkpt lat="43.842863007823105" lon="10.918059700101994"><ele>296.75</ele><time>2026-04-19T09:24:20Z</time></trkpt><trkpt lat="43.84299492407113" lon="10.918069144330731"><ele>294.0</ele><time>2026-04-19T09:24:21Z</time></trkpt><trkpt lat="43.84311361391912" lon="10.918083372409601"><ele>294.0</ele><time>2026-04-19T09:24:22Z</time></trkpt><trkpt lat="43.84322709905558" lon="10.918095424778858"><ele>294.0</ele><time>2026-04-19T09:24:23Z</time></trkpt><trkpt lat="43.84333866768587" lon="10.918113020686839"><ele>294.0</ele><time>2026-04-19T09:24:24Z</time></trkpt><trkpt lat="43.84344663605003" lon="10.918141599887369"><ele>294.0</ele><time>2026-04-19T09:24:25Z</time></trkpt><trkpt lat="43.8435486308435" lon="10.918198041301448"><ele>294.0</ele><time>2026-04-19T09:24:26Z</time></trkpt><trkpt lat="43.84364271070679" lon="10.918276849534251"><ele>293.4</ele><time>2026-04-19T09:24:27Z</time></trkpt><trkpt lat="43.843734816298465" lon="10.918367384070912"><ele>292.79999999999995</ele><time>2026-04-19T09:24:28Z</time></trkpt><trkpt lat="43.843820794852085" lon="10.918451859311954"><ele>292.20000000000005</ele><time>2026-04-19T09:24:29Z</time></trkpt><trkpt lat="43.84390313002913" lon="10.91852724547785"><ele>291.6</ele><time>2026-04-19T09:24:30Z</time></trkpt><trkpt lat="43.843979191898185" lon="10.91859448165366"><ele>291.0</ele><time>2026-04-19T09:24:31Z</time></trkpt><trkpt lat="43.8440451261061" lon="10.918653473120555"><ele>287.8</ele><time>2026-04-19T09:24:32Z</time></trkpt><trkpt lat="43.84411470134022" lon="10.918709424740326"><ele>284.6</ele><time>2026-04-19T09:24:33Z</time></trkpt><trkpt lat="43.84418274570167" lon="10.918761402820767"><ele>281.4</ele><time>2026-04-19T09:24:34Z</time></trkpt><trkpt lat="43.844289982069995" lon="10.918812008781691"><ele>278.2</ele><time>2026-04-19T09:24:36Z</time></trkpt><trkpt lat="43.844408617557214" lon="10.918759684603813"><ele>275.0</ele><time>2026-04-19T09:24:38Z</time></trkpt><trkpt lat="43.844455422433704" lon="10.918681568227065"><ele>275.0</ele><time>2026-04-19T09:24:39Z</time></trkpt><trkpt lat="43.84447989048343" lon="10.918582835009051"><ele>275.0</ele><time>2026-04-19T09:24:40Z</time></trkpt><trkpt lat="43.84447030472622" lon="10.918489244716435"><ele>275.0</ele><time>2026-04-19T09:24:41Z</time></trkpt><trkpt lat="43.84444196697197" lon="10.918378707889953"><ele>275.0</ele><time>2026-04-19T09:24:42Z</time></trkpt><trkpt lat="43.844374033899285" lon="10.918277676851503"><ele>275.0</ele><time>2026-04-19T09:24:43Z</time></trkpt><trkpt lat="43.84430700218066" lon="10.918181714271785"><ele>275.0</ele><time>2026-04-19T09:24:44Z</time></trkpt><trkpt lat="43.84422418884989" lon="10.91809383640292"><ele>276.75</ele><time>2026-04-19T09:24:45Z</time></trkpt><trkpt lat="43.84414155853115" lon="10.917969382706717"><ele>278.5</ele><time>2026-04-19T09:24:46Z</time></trkpt><trkpt lat="43.844072909057424" lon="10.917832243965245"><ele>280.25</ele><time>2026-04-19T09:24:47Z</time></trkpt><trkpt lat="43.84401357092521" lon="10.91766236079178"><ele>282.0</ele><time>2026-04-19T09:24:48Z</time></trkpt><trkpt lat="43.843971344986564" lon="10.91749189293836"><ele>282.0</ele><time>2026-04-19T09:24:49Z</time></trkpt><trkpt lat="43.8439416050488" lon="10.917339533749859"><ele>282.0</ele><time>2026-04-19T09:24:50Z</time></trkpt><trkpt lat="43.84390390878437" lon="10.917201012092745"><ele>282.0</ele><time>2026-04-19T09:24:51Z</time></trkpt><trkpt lat="43.84385665057493" lon="10.91705773379561"><ele>282.0</ele><time>2026-04-19T09:24:52Z</time></trkpt><trkpt lat="43.843790020072305" lon="10.916960112240371"><ele>282.0</ele><time>2026-04-19T09:24:53Z</time></trkpt><trkpt lat="43.84376785903494" lon="10.916825030774394"><ele>280.6</ele><time>2026-04-19T09:24:54Z</time></trkpt><trkpt lat="43.843780837388195" lon="10.916652211100867"><ele>279.2</ele><time>2026-04-19T09:24:55Z</time></trkpt><trkpt lat="43.84382190684871" lon="10.91648213890394"><ele>277.8</ele><time>2026-04-19T09:24:56Z</time></trkpt><trkpt lat="43.84382539419995" lon="10.916316264040018"><ele>276.4</ele><time>2026-04-19T09:24:57Z</time></trkpt><trkpt lat="43.84376050103705" lon="10.91627660269458"><ele>275.0</ele><time>2026-04-19T09:24:58Z</time></trkpt><trkpt lat="43.843747089230334" lon="10.916144121340366"><ele>275.0</ele><time>2026-04-19T09:24:59Z</time></trkpt><trkpt lat="43.84371700494342" lon="10.916029757467669"><ele>275.0</ele><time>2026-04-19T09:25:00Z</time></trkpt><trkpt lat="43.84367763473215" lon="10.915935248257771"><ele>275.0</ele><time>2026-04-19T09:25:01Z</time></trkpt><trkpt lat="43.84364495925199" lon="10.91585928822265"><ele>275.0</ele><time>2026-04-19T09:25:02Z</time></trkpt><trkpt lat="43.843617267561314" lon="10.915776634060308"><ele>275.0</ele><time>2026-04-19T09:25:03Z</time></trkpt><trkpt lat="43.84363995661071" lon="10.915628694820159"><ele>275.0</ele><time>2026-04-19T09:25:05Z</time></trkpt><trkpt lat="43.843719108518805" lon="10.915538619556958"><ele>278.8</ele><time>2026-04-19T09:25:07Z</time></trkpt><trkpt lat="43.843782446976" lon="10.915529031983207"><ele>282.6</ele><time>2026-04-19T09:25:08Z</time></trkpt><trkpt lat="43.84386484055753" lon="10.915557093795991"><ele>286.4</ele><time>2026-04-19T09:25:09Z</time></trkpt><trkpt lat="43.843950386488" lon="10.91566528697167"><ele>290.2</ele><time>2026-04-19T09:25:10Z</time></trkpt><trkpt lat="43.84407181464705" lon="10.915743120470683"><ele>294.0</ele><time>2026-04-19T09:25:11Z</time></trkpt><trkpt lat="43.84418428907987" lon="10.915836390219182"><ele>285.25</ele><time>2026-04-19T09:25:12Z</time></trkpt><trkpt lat="43.844300820903506" lon="10.915922665979535"><ele>276.5</ele><time>2026-04-19T09:25:13Z</time></trkpt><trkpt lat="43.844417978169155" lon="10.916006611911577"><ele>267.75</ele><time>2026-04-19T09:25:14Z</time></trkpt><trkpt lat="43.844522588393076" lon="10.916084469411192"><ele>259.0</ele><time>2026-04-19T09:25:15Z</time></trkpt><trkpt lat="43.844609830371596" lon="10.916152120892443"><ele>259.0</ele><time>2026-04-19T09:25:16Z</time></trkpt><trkpt lat="43.84468991322861" lon="10.916200506322202"><ele>259.0</ele><time>2026-04-19T09:25:17Z</time></trkpt><trkpt lat="43.844752307349715" lon="10.916239762632356"><ele>259.0</ele><time>2026-04-19T09:25:18Z</time></trkpt><trkpt lat="43.844814736194465" lon="10.916273436463024"><ele>259.0</ele><time>2026-04-19T09:25:19Z</time></trkpt><trkpt lat="43.844878104467156" lon="10.916272435415413"><ele>259.0</ele><time>2026-04-19T09:25:20Z</time></trkpt><trkpt lat="43.84493597175341" lon="10.916220746979258"><ele>259.0</ele><time>2026-04-19T09:25:21Z</time></trkpt><trkpt lat="43.84499129549486" lon="10.916145798855927"><ele>259.0</ele><time>2026-04-19T09:25:22Z</time></trkpt><trkpt lat="43.8450269778524" lon="10.916031301964672"><ele>264.0</ele><time>2026-04-19T09:25:23Z</time></trkpt><trkpt lat="43.8450437883189" lon="10.915877443579712"><ele>269.0</ele><time>2026-04-19T09:25:24Z</time></trkpt><trkpt lat="43.84504783963682" lon="10.915698635934973"><ele>274.0</ele><time>2026-04-19T09:25:25Z</time></trkpt><trkpt lat="43.84507411232623" lon="10.915528932226685"><ele>279.0</ele><time>2026-04-19T09:25:26Z</time></trkpt><trkpt lat="43.84509220083721" lon="10.915374977200523"><ele>279.0</ele><time>2026-04-19T09:25:27Z</time></trkpt><trkpt lat="43.84511440442047" lon="10.915202394098976"><ele>279.0</ele><time>2026-04-19T09:25:28Z</time></trkpt><trkpt lat="43.845188571618856" lon="10.915046346972991"><ele>279.0</ele><time>2026-04-19T09:25:29Z</time></trkpt><trkpt lat="43.84523357551921" lon="10.914893035229204"><ele>279.0</ele><time>2026-04-19T09:25:30Z</time></trkpt><trkpt lat="43.84528742855181" lon="10.914762986468077"><ele>277.2</ele><time>2026-04-19T09:25:31Z</time></trkpt><trkpt lat="43.845340282104814" lon="10.91462835267392"><ele>275.4</ele><time>2026-04-19T09:25:32Z</time></trkpt><trkpt lat="43.845388078976534" lon="10.914511104531226"><ele>273.6</ele><time>2026-04-19T09:25:33Z</time></trkpt><trkpt lat="43.84542488058452" lon="10.914424605464767"><ele>271.8</ele><time>2026-04-19T09:25:34Z</time></trkpt><trkpt lat="43.845499066620214" lon="10.914306356159898"><ele>270.0</ele><time>2026-04-19T09:25:36Z</time></trkpt><trkpt lat="43.84560145931749" lon="10.914261383186073"><ele>270.0</ele><time>2026-04-19T09:25:38Z</time></trkpt><trkpt lat="43.84571488700388" lon="10.914358796525935"><ele>270.0</ele><time>2026-04-19T09:25:40Z</time></trkpt><trkpt lat="43.84573218335127" lon="10.914481500162927"><ele>270.0</ele><time>2026-04-19T09:25:41Z</time></trkpt><trkpt lat="43.845781462749194" lon="10.914616943414744"><ele>270.0</ele><time>2026-04-19T09:25:42Z</time></trkpt><trkpt lat="43.84581167312128" lon="10.914791834957503"><ele>270.0</ele><time>2026-04-19T09:25:43Z</time></trkpt><trkpt lat="43.845850974686485" lon="10.914980801172968"><ele>270.0</ele><time>2026-04-19T09:25:44Z</time></trkpt><trkpt lat="43.84589568008801" lon="10.91516587712224"><ele>270.0</ele><time>2026-04-19T09:25:45Z</time></trkpt><trkpt lat="43.84594417525852" lon="10.915336402013832"><ele>270.0</ele><time>2026-04-19T09:25:46Z</time></trkpt><trkpt lat="43.84598410299582" lon="10.915491425544975"><ele>271.75</ele><time>2026-04-19T09:25:47Z</time></trkpt><trkpt lat="43.84602275521379" lon="10.915654160823992"><ele>273.5</ele><time>2026-04-19T09:25:48Z</time></trkpt><trkpt lat="43.84606027027217" lon="10.915821086673509"><ele>275.25</ele><time>2026-04-19T09:25:49Z</time></trkpt><trkpt lat="43.846099112444215" lon="10.915973700539089"><ele>277.0</ele><time>2026-04-19T09:25:50Z</time></trkpt><trkpt lat="43.846136076990064" lon="10.916122529120587"><ele>272.2</ele><time>2026-04-19T09:25:51Z</time></trkpt><trkpt lat="43.846165403586966" lon="10.916259869480957"><ele>267.4</ele><time>2026-04-19T09:25:52Z</time></trkpt><trkpt lat="43.8461959196892" lon="10.916383823881473"><ele>262.6</ele><time>2026-04-19T09:25:53Z</time></trkpt><trkpt lat="43.84624506068332" lon="10.916498604289444"><ele>257.8</ele><time>2026-04-19T09:25:54Z</time></trkpt><trkpt lat="43.84631375276426" lon="10.916607797012785"><ele>253.0</ele><time>2026-04-19T09:25:55Z</time></trkpt><trkpt lat="43.846397921857026" lon="10.91668796947517"><ele>248.60000000000002</ele><time>2026-04-19T09:25:56Z</time></trkpt><trkpt lat="43.846510499052954" lon="10.916739096023603"><ele>244.20000000000002</ele><time>2026-04-19T09:25:57Z</time></trkpt><trkpt lat="43.84662783000318" lon="10.916757028285534"><ele>239.8</ele><time>2026-04-19T09:25:58Z</time></trkpt><trkpt lat="43.84673688582104" lon="10.916752733781156"><ele>235.4</ele><time>2026-04-19T09:25:59Z</time></trkpt><trkpt lat="43.846834979585395" lon="10.916765508722243"><ele>231.0</ele><time>2026-04-19T09:26:00Z</time></trkpt><trkpt lat="43.8469248713681" lon="10.916842232294746"><ele>231.0</ele><time>2026-04-19T09:26:01Z</time></trkpt><trkpt lat="43.84701573695137" lon="10.916940329205842"><ele>231.0</ele><time>2026-04-19T09:26:02Z</time></trkpt><trkpt lat="43.847116748179" lon="10.917027307350056"><ele>231.0</ele><time>2026-04-19T09:26:03Z</time></trkpt><trkpt lat="43.84723036073894" lon="10.917073281515803"><ele>231.0</ele><time>2026-04-19T09:26:04Z</time></trkpt><trkpt lat="43.847357399853166" lon="10.91708798062084"><ele>231.0</ele><time>2026-04-19T09:26:05Z</time></trkpt><trkpt lat="43.84746216363206" lon="10.917107480352811"><ele>231.00000000000003</ele><time>2026-04-19T09:26:06Z</time></trkpt><trkpt lat="43.847564766027745" lon="10.917146864402715"><ele>231.00000000000003</ele><time>2026-04-19T09:26:07Z</time></trkpt><trkpt lat="43.847665388628464" lon="10.917202394254018"><ele>231.0</ele><time>2026-04-19T09:26:08Z</time></trkpt><trkpt lat="43.84774549901414" lon="10.917287078877088"><ele>231.0</ele><time>2026-04-19T09:26:09Z</time></trkpt><trkpt lat="43.847817597243356" lon="10.917396807235066"><ele>230.16666666666666</ele><time>2026-04-19T09:26:10Z</time></trkpt><trkpt lat="43.8478734168428" lon="10.917508995136203"><ele>229.33333333333331</ele><time>2026-04-19T09:26:11Z</time></trkpt><trkpt lat="43.8479237527191" lon="10.917626783799692"><ele>228.5</ele><time>2026-04-19T09:26:12Z</time></trkpt><trkpt lat="43.8479630311045" lon="10.917742139250345"><ele>227.66666666666666</ele><time>2026-04-19T09:26:13Z</time></trkpt><trkpt lat="43.8479922804886" lon="10.91784539122533"><ele>226.83333333333331</ele><time>2026-04-19T09:26:14Z</time></trkpt><trkpt lat="43.848023297081845" lon="10.91792322566743"><ele>226.0</ele><time>2026-04-19T09:26:15Z</time></trkpt><trkpt lat="43.848097578759685" lon="10.918020292420032"><ele>224.8</ele><time>2026-04-19T09:26:17Z</time></trkpt><trkpt lat="43.848201392319574" lon="10.918014596315018"><ele>223.60000000000002</ele><time>2026-04-19T09:26:19Z</time></trkpt><trkpt lat="43.8482745142996" lon="10.917891454490936"><ele>222.4</ele><time>2026-04-19T09:26:21Z</time></trkpt><trkpt lat="43.84826581696244" lon="10.917796265244405"><ele>221.2</ele><time>2026-04-19T09:26:22Z</time></trkpt><trkpt lat="43.84822302884161" lon="10.917693137665651"><ele>220.0</ele><time>2026-04-19T09:26:23Z</time></trkpt><trkpt lat="43.84816083618108" lon="10.917584521411762"><ele>221.5</ele><time>2026-04-19T09:26:24Z</time></trkpt><trkpt lat="43.84811472195762" lon="10.917441725724421"><ele>223.0</ele><time>2026-04-19T09:26:25Z</time></trkpt><trkpt lat="43.84806507368146" lon="10.917294078669975"><ele>224.5</ele><time>2026-04-19T09:26:26Z</time></trkpt><trkpt lat="43.84801073829482" lon="10.917147982077388"><ele>226.0</ele><time>2026-04-19T09:26:27Z</time></trkpt><trkpt lat="43.84797306113427" lon="10.91699992408075"><ele>226.0</ele><time>2026-04-19T09:26:28Z</time></trkpt><trkpt lat="43.84793207621667" lon="10.916855458374084"><ele>226.00000000000003</ele><time>2026-04-19T09:26:29Z</time></trkpt><trkpt lat="43.84789543922711" lon="10.916724210583293"><ele>226.00000000000003</ele><time>2026-04-19T09:26:30Z</time></trkpt><trkpt lat="43.84786338379935" lon="10.916600330267682"><ele>226.0</ele><time>2026-04-19T09:26:31Z</time></trkpt><trkpt lat="43.84783721482815" lon="10.916492205706701"><ele>226.0</ele><time>2026-04-19T09:26:32Z</time></trkpt><trkpt lat="43.84781522487362" lon="10.916393565181096"><ele>225.20000000000002</ele><time>2026-04-19T09:26:33Z</time></trkpt><trkpt lat="43.84779374728968" lon="10.91629964249702"><ele>224.40000000000003</ele><time>2026-04-19T09:26:34Z</time></trkpt><trkpt lat="43.84779284496306" lon="10.91614166085488"><ele>223.6</ele><time>2026-04-19T09:26:36Z</time></trkpt><trkpt lat="43.84788479313214" lon="10.916020594609535"><ele>222.8</ele><time>2026-04-19T09:26:38Z</time></trkpt><trkpt lat="43.84796968492694" lon="10.915995586258001"><ele>222.0</ele><time>2026-04-19T09:26:39Z</time></trkpt><trkpt lat="43.8480722181773" lon="10.916006939711608"><ele>222.0</ele><time>2026-04-19T09:26:40Z</time></trkpt><trkpt lat="43.8481741219608" lon="10.916052906900187"><ele>222.0</ele><time>2026-04-19T09:26:41Z</time></trkpt><trkpt lat="43.84825907758778" lon="10.916098736345972"><ele>222.0</ele><time>2026-04-19T09:26:42Z</time></trkpt><trkpt lat="43.848337241098456" lon="10.916126307390023"><ele>222.0</ele><time>2026-04-19T09:26:43Z</time></trkpt><trkpt lat="43.84840469761158" lon="10.916118971301708"><ele>222.0</ele><time>2026-04-19T09:26:44Z</time></trkpt><trkpt lat="43.848467495777435" lon="10.916088770156206"><ele>222.0</ele><time>2026-04-19T09:26:45Z</time></trkpt><trkpt lat="43.84851721711149" lon="10.916023064564571"><ele>223.6</ele><time>2026-04-19T09:26:46Z</time></trkpt><trkpt lat="43.848540937903074" lon="10.915937552853913"><ele>225.2</ele><time>2026-04-19T09:26:47Z</time></trkpt><trkpt lat="43.84854627415369" lon="10.915830398980049"><ele>226.8</ele><time>2026-04-19T09:26:48Z</time></trkpt><trkpt lat="43.84852344617999" lon="10.915700445202692"><ele>228.4</ele><time>2026-04-19T09:26:49Z</time></trkpt><trkpt lat="43.84847798897148" lon="10.915547754395044"><ele>230.0</ele><time>2026-04-19T09:26:50Z</time></trkpt><trkpt lat="43.848432068817495" lon="10.915392006588675"><ele>230.0</ele><time>2026-04-19T09:26:51Z</time></trkpt><trkpt lat="43.848419500839086" lon="10.91525067754259"><ele>230.0</ele><time>2026-04-19T09:26:52Z</time></trkpt><trkpt lat="43.84838614154603" lon="10.915121163620926"><ele>230.0</ele><time>2026-04-19T09:26:53Z</time></trkpt><trkpt lat="43.84839279926984" lon="10.914976977452435"><ele>230.0</ele><time>2026-04-19T09:26:54Z</time></trkpt><trkpt lat="43.848389997842126" lon="10.914854272174352"><ele>230.0</ele><time>2026-04-19T09:26:55Z</time></trkpt><trkpt lat="43.8483888497018" lon="10.914747489129516"><ele>230.66666666666669</ele><time>2026-04-19T09:26:56Z</time></trkpt><trkpt lat="43.84837257767694" lon="10.914638102019481"><ele>231.33333333333334</ele><time>2026-04-19T09:26:57Z</time></trkpt><trkpt lat="43.84838063851108" lon="10.914540483688135"><ele>232.0</ele><time>2026-04-19T09:26:58Z</time></trkpt><trkpt lat="43.84842665173342" lon="10.9144084234629"><ele>232.66666666666669</ele><time>2026-04-19T09:27:00Z</time></trkpt><trkpt lat="43.848518351507636" lon="10.914339029388298"><ele>233.33333333333334</ele><time>2026-04-19T09:27:02Z</time></trkpt><trkpt lat="43.84858514521193" lon="10.914342127060046"><ele>234.0</ele><time>2026-04-19T09:27:03Z</time></trkpt><trkpt lat="43.84865728286997" lon="10.914389542702125"><ele>230.66666666666666</ele><time>2026-04-19T09:27:04Z</time></trkpt><trkpt lat="43.84872073727068" lon="10.914489632232646"><ele>227.33333333333331</ele><time>2026-04-19T09:27:05Z</time></trkpt><trkpt lat="43.84877784533687" lon="10.914617653136725"><ele>224.0</ele><time>2026-04-19T09:27:06Z</time></trkpt><trkpt lat="43.848828652339954" lon="10.914730266939822"><ele>220.66666666666666</ele><time>2026-04-19T09:27:07Z</time></trkpt><trkpt lat="43.84887494533511" lon="10.914806996544534"><ele>217.33333333333331</ele><time>2026-04-19T09:27:08Z</time></trkpt><trkpt lat="43.84893617126308" lon="10.914864263076753"><ele>214.0</ele><time>2026-04-19T09:27:09Z</time></trkpt><trkpt lat="43.84901625200645" lon="10.914886460049102"><ele>214.0</ele><time>2026-04-19T09:27:10Z</time></trkpt><trkpt lat="43.849115193326185" lon="10.914861316844922"><ele>214.0</ele><time>2026-04-19T09:27:11Z</time></trkpt><trkpt lat="43.849220308623686" lon="10.914785961106315"><ele>214.0</ele><time>2026-04-19T09:27:12Z</time></trkpt><trkpt lat="43.84932299551864" lon="10.914686359791117"><ele>214.0</ele><time>2026-04-19T09:27:13Z</time></trkpt><trkpt lat="43.849422924230105" lon="10.91455711389765"><ele>212.0</ele><time>2026-04-19T09:27:14Z</time></trkpt><trkpt lat="43.84952060735545" lon="10.914399720607747"><ele>210.0</ele><time>2026-04-19T09:27:15Z</time></trkpt><trkpt lat="43.84960943960933" lon="10.91426519384937"><ele>208.0</ele><time>2026-04-19T09:27:16Z</time></trkpt><trkpt lat="43.84968157746565" lon="10.914136658327504"><ele>206.0</ele><time>2026-04-19T09:27:17Z</time></trkpt><trkpt lat="43.84973110352702" lon="10.914016145020385"><ele>206.00000000000003</ele><time>2026-04-19T09:27:18Z</time></trkpt><trkpt lat="43.84976868525439" lon="10.91391335872207"><ele>206.0</ele><time>2026-04-19T09:27:19Z</time></trkpt><trkpt lat="43.849800454279936" lon="10.91382199172284"><ele>206.0</ele><time>2026-04-19T09:27:20Z</time></trkpt><trkpt lat="43.84985372268984" lon="10.91373950331502"><ele>206.0</ele><time>2026-04-19T09:27:21Z</time></trkpt><trkpt lat="43.84993831411051" lon="10.913668566922818"><ele>206.00000000000003</ele><time>2026-04-19T09:27:22Z</time></trkpt><trkpt lat="43.85004101031775" lon="10.913629123285489"><ele>206.0</ele><time>2026-04-19T09:27:23Z</time></trkpt><trkpt lat="43.85014810445212" lon="10.91361446823314"><ele>206.0</ele><time>2026-04-19T09:27:24Z</time></trkpt><trkpt lat="43.850246823736356" lon="10.913563074771819"><ele>206.0</ele><time>2026-04-19T09:27:25Z</time></trkpt><trkpt lat="43.85035009600517" lon="10.913468453512522"><ele>206.0</ele><time>2026-04-19T09:27:26Z</time></trkpt><trkpt lat="43.85046790233406" lon="10.913341609397088"><ele>206.0</ele><time>2026-04-19T09:27:27Z</time></trkpt><trkpt lat="43.85058553304103" lon="10.913227238972548"><ele>206.0</ele><time>2026-04-19T09:27:28Z</time></trkpt><trkpt lat="43.85069719900273" lon="10.913142956362078"><ele>206.0</ele><time>2026-04-19T09:27:29Z</time></trkpt><trkpt lat="43.85079602472105" lon="10.913050322583251"><ele>206.0</ele><time>2026-04-19T09:27:30Z</time></trkpt><trkpt lat="43.850875581630525" lon="10.912908382796985"><ele>206.0</ele><time>2026-04-19T09:27:31Z</time></trkpt><trkpt lat="43.850954945506786" lon="10.91273396557792"><ele>200.0</ele><time>2026-04-19T09:27:32Z</time></trkpt><trkpt lat="43.8510181616389" lon="10.912593744945443"><ele>194.0</ele><time>2026-04-19T09:27:33Z</time></trkpt><trkpt lat="43.85107922758762" lon="10.912459764582216"><ele>188.0</ele><time>2026-04-19T09:27:34Z</time></trkpt><trkpt lat="43.85113075149424" lon="10.912319564115416"><ele>182.0</ele><time>2026-04-19T09:27:35Z</time></trkpt><trkpt lat="43.851168628822144" lon="10.912172010178223"><ele>181.8</ele><time>2026-04-19T09:27:36Z</time></trkpt><trkpt lat="43.85118748597165" lon="10.912025291590592"><ele>181.6</ele><time>2026-04-19T09:27:37Z</time></trkpt><trkpt lat="43.851196645187834" lon="10.911883393007548"><ele>181.4</ele><time>2026-04-19T09:27:38Z</time></trkpt><trkpt lat="43.85119696080683" lon="10.91174499423274"><ele>181.20000000000002</ele><time>2026-04-19T09:27:39Z</time></trkpt><trkpt lat="43.85118215247803" lon="10.91161863887221"><ele>181.0</ele><time>2026-04-19T09:27:40Z</time></trkpt><trkpt lat="43.85115775202137" lon="10.911491560211674"><ele>182.5</ele><time>2026-04-19T09:27:41Z</time></trkpt><trkpt lat="43.85113049710776" lon="10.9113869639247"><ele>184.0</ele><time>2026-04-19T09:27:42Z</time></trkpt><trkpt lat="43.85110483316899" lon="10.91129482885838"><ele>185.5</ele><time>2026-04-19T09:27:43Z</time></trkpt><trkpt lat="43.85090533392282" lon="10.911067412671992"><ele>187.0</ele><time>2026-04-19T09:27:45Z</time></trkpt><trkpt lat="43.85087159225888" lon="10.91098937676334"><ele>189.66666666666669</ele><time>2026-04-19T09:27:46Z</time></trkpt><trkpt lat="43.850858724190246" lon="10.910902072544493"><ele>192.33333333333334</ele><time>2026-04-19T09:27:47Z</time></trkpt><trkpt lat="43.85087952270754" lon="10.91081770100413"><ele>195.0</ele><time>2026-04-19T09:27:48Z</time></trkpt><trkpt lat="43.85092629101802" lon="10.910758718045512"><ele>197.66666666666669</ele><time>2026-04-19T09:27:49Z</time></trkpt><trkpt lat="43.85099803762768" lon="10.910733506517278"><ele>200.33333333333334</ele><time>2026-04-19T09:27:50Z</time></trkpt><trkpt lat="43.851074936618275" lon="10.91073410329568"><ele>203.0</ele><time>2026-04-19T09:27:51Z</time></trkpt><trkpt lat="43.85116521398862" lon="10.910835909486524"><ele>203.0</ele><time>2026-04-19T09:27:52Z</time></trkpt><trkpt lat="43.85126589669853" lon="10.910905259758561"><ele>203.0</ele><time>2026-04-19T09:27:53Z</time></trkpt><trkpt lat="43.85136795019918" lon="10.910971198498475"><ele>203.0</ele><time>2026-04-19T09:27:54Z</time></trkpt><trkpt lat="43.85149866018519" lon="10.91102106229448"><ele>203.0</ele><time>2026-04-19T09:27:55Z</time></trkpt><trkpt lat="43.85162759447305" lon="10.911085940712322"><ele>199.0</ele><time>2026-04-19T09:27:56Z</time></trkpt><trkpt lat="43.851742209212496" lon="10.911141153941248"><ele>195.0</ele><time>2026-04-19T09:27:57Z</time></trkpt><trkpt lat="43.85184698690548" lon="10.911182039877653"><ele>191.0</ele><time>2026-04-19T09:27:58Z</time></trkpt><trkpt lat="43.85196307362513" lon="10.911232750919591"><ele>187.0</ele><time>2026-04-19T09:27:59Z</time></trkpt><trkpt lat="43.85208626882855" lon="10.911284769652438"><ele>185.75</ele><time>2026-04-19T09:28:00Z</time></trkpt><trkpt lat="43.85220462769192" lon="10.911357016162594"><ele>184.5</ele><time>2026-04-19T09:28:01Z</time></trkpt><trkpt lat="43.852310279933135" lon="10.91143560717116"><ele>183.25</ele><time>2026-04-19T09:28:02Z</time></trkpt><trkpt lat="43.852413475840535" lon="10.911505781062102"><ele>182.0</ele><time>2026-04-19T09:28:03Z</time></trkpt><trkpt lat="43.85251262840588" lon="10.91157221783106"><ele>182.0</ele><time>2026-04-19T09:28:04Z</time></trkpt><trkpt lat="43.85260862525999" lon="10.911648131921844"><ele>182.0</ele><time>2026-04-19T09:28:05Z</time></trkpt><trkpt lat="43.852711255749696" lon="10.911727479864398"><ele>182.0</ele><time>2026-04-19T09:28:06Z</time></trkpt><trkpt lat="43.85283253834336" lon="10.911806978706444"><ele>182.0</ele><time>2026-04-19T09:28:07Z</time></trkpt><trkpt lat="43.85293735640868" lon="10.911882728033609"><ele>180.25</ele><time>2026-04-19T09:28:08Z</time></trkpt><trkpt lat="43.853030744123984" lon="10.911955596873778"><ele>178.5</ele><time>2026-04-19T09:28:09Z</time></trkpt><trkpt lat="43.85312865181588" lon="10.912031764629232"><ele>176.75</ele><time>2026-04-19T09:28:10Z</time></trkpt><trkpt lat="43.8532321185129" lon="10.912111447246051"><ele>175.0</ele><time>2026-04-19T09:28:11Z</time></trkpt><trkpt lat="43.85333515087946" lon="10.912186940304318"><ele>175.0</ele><time>2026-04-19T09:28:12Z</time></trkpt><trkpt lat="43.8534329416811" lon="10.912262280998913"><ele>175.0</ele><time>2026-04-19T09:28:13Z</time></trkpt><trkpt lat="43.853521495953274" lon="10.912333379416111"><ele>175.0</ele><time>2026-04-19T09:28:14Z</time></trkpt><trkpt lat="43.853608940627964" lon="10.912403457391422"><ele>175.0</ele><time>2026-04-19T09:28:15Z</time></trkpt><trkpt lat="43.853700464691286" lon="10.912484718265313"><ele>175.0</ele><time>2026-04-19T09:28:16Z</time></trkpt><trkpt lat="43.85379951834607" lon="10.912568492028612"><ele>171.75</ele><time>2026-04-19T09:28:17Z</time></trkpt><trkpt lat="43.853899226603865" lon="10.912653507512188"><ele>168.5</ele><time>2026-04-19T09:28:18Z</time></trkpt><trkpt lat="43.85399449258593" lon="10.912738670731484"><ele>165.25</ele><time>2026-04-19T09:28:19Z</time></trkpt><trkpt lat="43.85410350283156" lon="10.912821027096724"><ele>162.0</ele><time>2026-04-19T09:28:20Z</time></trkpt><trkpt lat="43.85419788459618" lon="10.912909396919392"><ele>162.0</ele><time>2026-04-19T09:28:21Z</time></trkpt><trkpt lat="43.854284283202105" lon="10.912988461449055"><ele>162.0</ele><time>2026-04-19T09:28:22Z</time></trkpt><trkpt lat="43.854377648164935" lon="10.913064388529666"><ele>162.0</ele><time>2026-04-19T09:28:23Z</time></trkpt><trkpt lat="43.854474505901244" lon="10.913144460546931"><ele>162.0</ele><time>2026-04-19T09:28:24Z</time></trkpt><trkpt lat="43.85456529729327" lon="10.913220355945324"><ele>162.0</ele><time>2026-04-19T09:28:25Z</time></trkpt><trkpt lat="43.8546595143011" lon="10.913298636387001"><ele>161.6</ele><time>2026-04-19T09:28:26Z</time></trkpt><trkpt lat="43.854748237585376" lon="10.913376630488115"><ele>161.2</ele><time>2026-04-19T09:28:27Z</time></trkpt><trkpt lat="43.8548314657456" lon="10.913457451018338"><ele>160.8</ele><time>2026-04-19T09:28:28Z</time></trkpt><trkpt lat="43.85490820562352" lon="10.913557347561289"><ele>160.4</ele><time>2026-04-19T09:28:29Z</time></trkpt><trkpt lat="43.85498451549025" lon="10.913684916089139"><ele>160.0</ele><time>2026-04-19T09:28:30Z</time></trkpt><trkpt lat="43.8550504483678" lon="10.913851949541167"><ele>159.5</ele><time>2026-04-19T09:28:31Z</time></trkpt><trkpt lat="43.85510956286707" lon="10.914032465139446"><ele>159.0</ele><time>2026-04-19T09:28:32Z</time></trkpt><trkpt lat="43.85516209089589" lon="10.914204110117529"><ele>158.5</ele><time>2026-04-19T09:28:33Z</time></trkpt><trkpt lat="43.85521071813687" lon="10.914358019018803"><ele>158.0</ele><time>2026-04-19T09:28:34Z</time></trkpt><trkpt lat="43.85525556792191" lon="10.914497852396654"><ele>158.0</ele><time>2026-04-19T09:28:35Z</time></trkpt><trkpt lat="43.85529516598083" lon="10.914644308768525"><ele>158.0</ele><time>2026-04-19T09:28:36Z</time></trkpt><trkpt lat="43.855333737833824" lon="10.914784625916734"><ele>158.0</ele><time>2026-04-19T09:28:37Z</time></trkpt><trkpt lat="43.85536942630502" lon="10.91490589804579"><ele>158.0</ele><time>2026-04-19T09:28:38Z</time></trkpt><trkpt lat="43.85541797078123" lon="10.915008096820161"><ele>158.0</ele><time>2026-04-19T09:28:39Z</time></trkpt><trkpt lat="43.855488979544056" lon="10.915095629492887"><ele>153.75</ele><time>2026-04-19T09:28:40Z</time></trkpt><trkpt lat="43.855577993783434" lon="10.915157635945748"><ele>149.5</ele><time>2026-04-19T09:28:41Z</time></trkpt><trkpt lat="43.85569427858912" lon="10.915186198982266"><ele>145.25</ele><time>2026-04-19T09:28:42Z</time></trkpt><trkpt lat="43.85583086640798" lon="10.915183893654172"><ele>141.0</ele><time>2026-04-19T09:28:43Z</time></trkpt><trkpt lat="43.85598300635141" lon="10.915167367097393"><ele>141.0</ele><time>2026-04-19T09:28:44Z</time></trkpt><trkpt lat="43.85612941970479" lon="10.915140230900795"><ele>141.0</ele><time>2026-04-19T09:28:45Z</time></trkpt><trkpt lat="43.85626088596591" lon="10.915132113978064"><ele>141.0</ele><time>2026-04-19T09:28:46Z</time></trkpt><trkpt lat="43.85638465887123" lon="10.915127103064352"><ele>141.0</ele><time>2026-04-19T09:28:47Z</time></trkpt><trkpt lat="43.85650858482281" lon="10.915117854452035"><ele>141.0</ele><time>2026-04-19T09:28:48Z</time></trkpt><trkpt lat="43.856625000812" lon="10.915107298985674"><ele>141.0</ele><time>2026-04-19T09:28:49Z</time></trkpt><trkpt lat="43.856736476668154" lon="10.915130422528826"><ele>141.0</ele><time>2026-04-19T09:28:50Z</time></trkpt><trkpt lat="43.8568439325098" lon="10.91514239276581"><ele>141.0</ele><time>2026-04-19T09:28:51Z</time></trkpt><trkpt lat="43.85694246817311" lon="10.915203283920773"><ele>141.0</ele><time>2026-04-19T09:28:52Z</time></trkpt><trkpt lat="43.85704330070107" lon="10.915292464443947"><ele>141.6</ele><time>2026-04-19T09:28:53Z</time></trkpt><trkpt lat="43.85713280002503" lon="10.91539451139857"><ele>142.2</ele><time>2026-04-19T09:28:54Z</time></trkpt><trkpt lat="43.85719777137194" lon="10.915507793678099"><ele>142.8</ele><time>2026-04-19T09:28:55Z</time></trkpt><trkpt lat="43.85724293674222" lon="10.915627715968427"><ele>143.4</ele><time>2026-04-19T09:28:56Z</time></trkpt><trkpt lat="43.857280460736284" lon="10.915759383071306"><ele>144.0</ele><time>2026-04-19T09:28:57Z</time></trkpt><trkpt lat="43.85730482677568" lon="10.91591544127522"><ele>144.0</ele><time>2026-04-19T09:28:58Z</time></trkpt><trkpt lat="43.85730679190449" lon="10.91609253376529"><ele>144.0</ele><time>2026-04-19T09:28:59Z</time></trkpt><trkpt lat="43.857294166153075" lon="10.916259215616023"><ele>144.0</ele><time>2026-04-19T09:29:00Z</time></trkpt><trkpt lat="43.857283386022964" lon="10.916404516430282"><ele>144.0</ele><time>2026-04-19T09:29:01Z</time></trkpt><trkpt lat="43.85728034241646" lon="10.916538068621573"><ele>144.0</ele><time>2026-04-19T09:29:02Z</time></trkpt><trkpt lat="43.857292012259975" lon="10.916668566384114"><ele>144.0</ele><time>2026-04-19T09:29:03Z</time></trkpt><trkpt lat="43.85732800388655" lon="10.916806700614055"><ele>144.0</ele><time>2026-04-19T09:29:04Z</time></trkpt><trkpt lat="43.857380256454626" lon="10.916931075182484"><ele>144.0</ele><time>2026-04-19T09:29:05Z</time></trkpt><trkpt lat="43.857457738724804" lon="10.917056093734443"><ele>144.0</ele><time>2026-04-19T09:29:06Z</time></trkpt><trkpt lat="43.857568907240434" lon="10.917174457537305"><ele>144.0</ele><time>2026-04-19T09:29:07Z</time></trkpt><trkpt lat="43.85766960356264" lon="10.91728757999898"><ele>144.0</ele><time>2026-04-19T09:29:08Z</time></trkpt><trkpt lat="43.85774926693397" lon="10.917398249946988"><ele>144.0</ele><time>2026-04-19T09:29:09Z</time></trkpt><trkpt lat="43.857820736162786" lon="10.917501700337427"><ele>144.0</ele><time>2026-04-19T09:29:10Z</time></trkpt><trkpt lat="43.8578639177178" lon="10.917628095132796"><ele>144.0</ele><time>2026-04-19T09:29:11Z</time></trkpt><trkpt lat="43.85790698458528" lon="10.917764622724217"><ele>144.0</ele><time>2026-04-19T09:29:12Z</time></trkpt><trkpt lat="43.857952120175874" lon="10.917900394389076"><ele>144.0</ele><time>2026-04-19T09:29:13Z</time></trkpt><trkpt lat="43.85796470228472" lon="10.918041388772986"><ele>144.0</ele><time>2026-04-19T09:29:14Z</time></trkpt><trkpt lat="43.85796974094422" lon="10.91818638773581"><ele>144.0</ele><time>2026-04-19T09:29:15Z</time></trkpt><trkpt lat="43.857934672619315" lon="10.918337256593786"><ele>144.0</ele><time>2026-04-19T09:29:16Z</time></trkpt><trkpt lat="43.8579137367903" lon="10.91849592868261"><ele>142.66666666666666</ele><time>2026-04-19T09:29:17Z</time></trkpt><trkpt lat="43.857876859994654" lon="10.918623877283018"><ele>141.33333333333334</ele><time>2026-04-19T09:29:18Z</time></trkpt><trkpt lat="43.85785273926465" lon="10.91874417219678"><ele>140.0</ele><time>2026-04-19T09:29:19Z</time></trkpt><trkpt lat="43.85784299848161" lon="10.91886122455192"><ele>138.66666666666669</ele><time>2026-04-19T09:29:20Z</time></trkpt><trkpt lat="43.857855327325204" lon="10.918971815541822"><ele>137.33333333333334</ele><time>2026-04-19T09:29:21Z</time></trkpt><trkpt lat="43.85788787999649" lon="10.919071853507557"><ele>136.0</ele><time>2026-04-19T09:29:22Z</time></trkpt><trkpt lat="43.85793434821411" lon="10.919170834509536"><ele>132.5</ele><time>2026-04-19T09:29:23Z</time></trkpt><trkpt lat="43.85800547611867" lon="10.919258434326252"><ele>129.0</ele><time>2026-04-19T09:29:24Z</time></trkpt><trkpt lat="43.85810358493786" lon="10.919323169079107"><ele>125.5</ele><time>2026-04-19T09:29:25Z</time></trkpt><trkpt lat="43.858230296354705" lon="10.919361505956404"><ele>122.0</ele><time>2026-04-19T09:29:26Z</time></trkpt><trkpt lat="43.85835228380544" lon="10.919395097673037"><ele>124.25</ele><time>2026-04-19T09:29:27Z</time></trkpt><trkpt lat="43.8584599435116" lon="10.91945405726683"><ele>126.5</ele><time>2026-04-19T09:29:28Z</time></trkpt><trkpt lat="43.858556647219984" lon="10.919540389989729"><ele>128.75</ele><time>2026-04-19T09:29:29Z</time></trkpt><trkpt lat="43.858638849626644" lon="10.919641807432741"><ele>131.0</ele><time>2026-04-19T09:29:30Z</time></trkpt><trkpt lat="43.85871740575637" lon="10.919771503445066"><ele>131.0</ele><time>2026-04-19T09:29:31Z</time></trkpt><trkpt lat="43.858782584666734" lon="10.919931350901642"><ele>131.0</ele><time>2026-04-19T09:29:32Z</time></trkpt><trkpt lat="43.858829278195095" lon="10.920086297029547"><ele>131.0</ele><time>2026-04-19T09:29:33Z</time></trkpt><trkpt lat="43.85886812781334" lon="10.9202611886905"><ele>131.0</ele><time>2026-04-19T09:29:34Z</time></trkpt><trkpt lat="43.858920760882576" lon="10.92037393261972"><ele>129.4</ele><time>2026-04-19T09:29:35Z</time></trkpt><trkpt lat="43.85898550605052" lon="10.920485893164154"><ele>127.8</ele><time>2026-04-19T09:29:36Z</time></trkpt><trkpt lat="43.85905822703859" lon="10.920584397613164"><ele>126.20000000000002</ele><time>2026-04-19T09:29:37Z</time></trkpt><trkpt lat="43.85914737213478" lon="10.920668627911084"><ele>124.60000000000001</ele><time>2026-04-19T09:29:38Z</time></trkpt><trkpt lat="43.859252598981506" lon="10.920716448229946"><ele>123.0</ele><time>2026-04-19T09:29:39Z</time></trkpt><trkpt lat="43.859389009931164" lon="10.92076126041444"><ele>123.0</ele><time>2026-04-19T09:29:40Z</time></trkpt><trkpt lat="43.85951330984424" lon="10.920772288242746"><ele>123.00000000000001</ele><time>2026-04-19T09:29:41Z</time></trkpt><trkpt lat="43.85962021464583" lon="10.920780763215062"><ele>123.00000000000001</ele><time>2026-04-19T09:29:42Z</time></trkpt><trkpt lat="43.859715637367195" lon="10.920817368939527"><ele>123.0</ele><time>2026-04-19T09:29:43Z</time></trkpt><trkpt lat="43.85980253006958" lon="10.920886122927648"><ele>123.0</ele><time>2026-04-19T09:29:44Z</time></trkpt><trkpt lat="43.859877381269506" lon="10.920988951589962"><ele>120.25</ele><time>2026-04-19T09:29:45Z</time></trkpt><trkpt lat="43.85993092628671" lon="10.921129762136633"><ele>117.5</ele><time>2026-04-19T09:29:46Z</time></trkpt><trkpt lat="43.85996795119006" lon="10.921289117500372"><ele>114.75</ele><time>2026-04-19T09:29:47Z</time></trkpt><trkpt lat="43.85999883882192" lon="10.921458445326552"><ele>112.0</ele><time>2026-04-19T09:29:48Z</time></trkpt><trkpt lat="43.86003314550471" lon="10.921594479651635"><ele>112.0</ele><time>2026-04-19T09:29:49Z</time></trkpt><trkpt lat="43.86008271794481" lon="10.921725694366536"><ele>112.0</ele><time>2026-04-19T09:29:50Z</time></trkpt><trkpt lat="43.86015624721286" lon="10.92184802261367"><ele>112.0</ele><time>2026-04-19T09:29:51Z</time></trkpt><trkpt lat="43.86025934451143" lon="10.921970349710355"><ele>112.0</ele><time>2026-04-19T09:29:52Z</time></trkpt><trkpt lat="43.860396505988234" lon="10.922090206368255"><ele>110.25</ele><time>2026-04-19T09:29:53Z</time></trkpt><trkpt lat="43.86054410633132" lon="10.922205713442507"><ele>108.5</ele><time>2026-04-19T09:29:54Z</time></trkpt><trkpt lat="43.86066896701219" lon="10.922307373217578"><ele>106.75</ele><time>2026-04-19T09:29:55Z</time></trkpt><trkpt lat="43.86077954669794" lon="10.92239970641154"><ele>105.0</ele><time>2026-04-19T09:29:56Z</time></trkpt><trkpt lat="43.86088893193953" lon="10.922475089350641"><ele>104.75</ele><time>2026-04-19T09:29:57Z</time></trkpt><trkpt lat="43.860994004061986" lon="10.922556090304342"><ele>104.5</ele><time>2026-04-19T09:29:58Z</time></trkpt><trkpt lat="43.86108565987769" lon="10.922638202329594"><ele>104.25</ele><time>2026-04-19T09:29:59Z</time></trkpt><trkpt lat="43.861168477045204" lon="10.922735975017513"><ele>104.0</ele><time>2026-04-19T09:30:00Z</time></trkpt><trkpt lat="43.861244564501746" lon="10.922861133940607"><ele>104.0</ele><time>2026-04-19T09:30:01Z</time></trkpt><trkpt lat="43.86131014041616" lon="10.923001882453843"><ele>104.0</ele><time>2026-04-19T09:30:02Z</time></trkpt><trkpt lat="43.86136493643444" lon="10.923132069911523"><ele>104.0</ele><time>2026-04-19T09:30:03Z</time></trkpt><trkpt lat="43.86141806406182" lon="10.92324406627182"><ele>104.0</ele><time>2026-04-19T09:30:04Z</time></trkpt><trkpt lat="43.86148775945467" lon="10.923348666562728"><ele>104.0</ele><time>2026-04-19T09:30:05Z</time></trkpt><trkpt lat="43.86159117303254" lon="10.923443071668412"><ele>101.25</ele><time>2026-04-19T09:30:06Z</time></trkpt><trkpt lat="43.86172454652738" lon="10.923509918723594"><ele>98.5</ele><time>2026-04-19T09:30:07Z</time></trkpt><trkpt lat="43.861861687923685" lon="10.923550461882089"><ele>95.75</ele><time>2026-04-19T09:30:08Z</time></trkpt><trkpt lat="43.86197918997911" lon="10.923569136264783"><ele>93.0</ele><time>2026-04-19T09:30:09Z</time></trkpt><trkpt lat="43.86208251866954" lon="10.923602716387283"><ele>93.0</ele><time>2026-04-19T09:30:10Z</time></trkpt><trkpt lat="43.86218043209964" lon="10.923639972749717"><ele>93.0</ele><time>2026-04-19T09:30:11Z</time></trkpt><trkpt lat="43.862278242234154" lon="10.92365781667171"><ele>93.0</ele><time>2026-04-19T09:30:12Z</time></trkpt><trkpt lat="43.862369892031204" lon="10.923654517432249"><ele>93.0</ele><time>2026-04-19T09:30:13.001Z</time></trkpt><trkpt lat="43.86246674996161" lon="10.92360930382305"><ele>93.0</ele><time>2026-04-19T09:30:14.001Z</time></trkpt><trkpt lat="43.86256011082963" lon="10.923534991909571"><ele>92.0</ele><time>2026-04-19T09:30:15.001Z</time></trkpt><trkpt lat="43.862629107383896" lon="10.923461917191997"><ele>91.0</ele><time>2026-04-19T09:30:16.001Z</time></trkpt><trkpt lat="43.86266902656679" lon="10.923376693783455"><ele>90.0</ele><time>2026-04-19T09:30:17.001Z</time></trkpt><trkpt lat="43.862705237138236" lon="10.923272868599444"><ele>89.0</ele><time>2026-04-19T09:30:18.001Z</time></trkpt><trkpt lat="43.86271533424866" lon="10.923146198515024"><ele>88.0</ele><time>2026-04-19T09:30:19.001Z</time></trkpt><trkpt lat="43.862689052099526" lon="10.923010571569163"><ele>87.0</ele><time>2026-04-19T09:30:20.001Z</time></trkpt><trkpt lat="43.862625095657855" lon="10.922870121588756"><ele>89.0</ele><time>2026-04-19T09:30:21.001Z</time></trkpt><trkpt lat="43.86254784477755" lon="10.922723271737276"><ele>91.0</ele><time>2026-04-19T09:30:22.001Z</time></trkpt><trkpt lat="43.86246565707017" lon="10.922560692523842"><ele>93.0</ele><time>2026-04-19T09:30:23.001Z</time></trkpt><trkpt lat="43.862386607418046" lon="10.922396661943647"><ele>95.0</ele><time>2026-04-19T09:30:24.001Z</time></trkpt><trkpt lat="43.86230645933395" lon="10.92224517813104"><ele>95.0</ele><time>2026-04-19T09:30:25Z</time></trkpt><trkpt lat="43.862233729778346" lon="10.922082144898893"><ele>95.0</ele><time>2026-04-19T09:30:26Z</time></trkpt><trkpt lat="43.86214981070378" lon="10.92192370316995"><ele>95.0</ele><time>2026-04-19T09:30:27Z</time></trkpt><trkpt lat="43.862042283428735" lon="10.921761606442326"><ele>95.0</ele><time>2026-04-19T09:30:28Z</time></trkpt><trkpt lat="43.86195573788822" lon="10.92160430187733"><ele>95.75</ele><time>2026-04-19T09:30:29Z</time></trkpt><trkpt lat="43.86187997206615" lon="10.92146396134468"><ele>96.5</ele><time>2026-04-19T09:30:30Z</time></trkpt><trkpt lat="43.86182289013401" lon="10.921317005169431"><ele>97.25</ele><time>2026-04-19T09:30:31Z</time></trkpt><trkpt lat="43.861758838872845" lon="10.921193590782813"><ele>98.0</ele><time>2026-04-19T09:30:32Z</time></trkpt><trkpt lat="43.86170208990827" lon="10.92108319855494"><ele>97.99999999999999</ele><time>2026-04-19T09:30:33Z</time></trkpt><trkpt lat="43.861652456828594" lon="10.920981187131842"><ele>98.0</ele><time>2026-04-19T09:30:34Z</time></trkpt><trkpt lat="43.86159630681308" lon="10.920894419928976"><ele>98.0</ele><time>2026-04-19T09:30:35Z</time></trkpt><trkpt lat="43.86158010785252" lon="10.920804260869494"><ele>98.0</ele><time>2026-04-19T09:30:36Z</time></trkpt><trkpt lat="43.86155903139258" lon="10.920717408349791"><ele>97.99999999999999</ele><time>2026-04-19T09:30:37Z</time></trkpt><trkpt lat="43.86154365264976" lon="10.920624676401317"><ele>98.0</ele><time>2026-04-19T09:30:38Z</time></trkpt><trkpt lat="43.86156916206592" lon="10.920507781497822"><ele>95.60000000000001</ele><time>2026-04-19T09:30:39Z</time></trkpt><trkpt lat="43.86160024900682" lon="10.920429913185963"><ele>93.2</ele><time>2026-04-19T09:30:40Z</time></trkpt><trkpt lat="43.8616529357763" lon="10.920334828528839"><ele>90.8</ele><time>2026-04-19T09:30:41Z</time></trkpt><trkpt lat="43.8617269756555" lon="10.920271914520331"><ele>88.4</ele><time>2026-04-19T09:30:42Z</time></trkpt><trkpt lat="43.86180523248105" lon="10.92019387562944"><ele>86.0</ele><time>2026-04-19T09:30:43Z</time></trkpt><trkpt lat="43.86192081313695" lon="10.920212678483827"><ele>84.25</ele><time>2026-04-19T09:30:44Z</time></trkpt><trkpt lat="43.86203926709835" lon="10.920235960457903"><ele>82.5</ele><time>2026-04-19T09:30:45Z</time></trkpt><trkpt lat="43.862147764277246" lon="10.920286710869163"><ele>80.75</ele><time>2026-04-19T09:30:46Z</time></trkpt><trkpt lat="43.862275824100976" lon="10.92033599697085"><ele>79.0</ele><time>2026-04-19T09:30:47Z</time></trkpt><trkpt lat="43.862403978303725" lon="10.920416269902793"><ele>79.0</ele><time>2026-04-19T09:30:48Z</time></trkpt><trkpt lat="43.86251269251708" lon="10.920479708246573"><ele>79.0</ele><time>2026-04-19T09:30:49Z</time></trkpt><trkpt lat="43.862612739140815" lon="10.920538701315529"><ele>79.0</ele><time>2026-04-19T09:30:50Z</time></trkpt><trkpt lat="43.86272203854403" lon="10.92059989225126"><ele>79.0</ele><time>2026-04-19T09:30:51Z</time></trkpt><trkpt lat="43.862828970253844" lon="10.920662834581847"><ele>79.25</ele><time>2026-04-19T09:30:52Z</time></trkpt><trkpt lat="43.862935546135645" lon="10.92072790018169"><ele>79.5</ele><time>2026-04-19T09:30:53Z</time></trkpt><trkpt lat="43.863055307613784" lon="10.920786837783846"><ele>79.75</ele><time>2026-04-19T09:30:54Z</time></trkpt><trkpt lat="43.863177609608734" lon="10.920849317393687"><ele>80.0</ele><time>2026-04-19T09:30:55Z</time></trkpt><trkpt lat="43.86329612757457" lon="10.920912912056785"><ele>79.25</ele><time>2026-04-19T09:30:56Z</time></trkpt><trkpt lat="43.8634120693451" lon="10.920975839610545"><ele>78.5</ele><time>2026-04-19T09:30:57Z</time></trkpt><trkpt lat="43.86351709325726" lon="10.921035007699736"><ele>77.75</ele><time>2026-04-19T09:30:58Z</time></trkpt><trkpt lat="43.86362905945928" lon="10.921101560182565"><ele>77.0</ele><time>2026-04-19T09:30:59Z</time></trkpt><trkpt lat="43.86374164290939" lon="10.921181359315389"><ele>77.0</ele><time>2026-04-19T09:31:00Z</time></trkpt><trkpt lat="43.86385249176608" lon="10.921296858297419"><ele>77.0</ele><time>2026-04-19T09:31:01Z</time></trkpt><trkpt lat="43.86394900941632" lon="10.921431061236405"><ele>77.0</ele><time>2026-04-19T09:31:02Z</time></trkpt><trkpt lat="43.86403019767856" lon="10.921568423840455"><ele>77.0</ele><time>2026-04-19T09:31:03Z</time></trkpt><trkpt lat="43.86410727541537" lon="10.921698405626538"><ele>77.6</ele><time>2026-04-19T09:31:04Z</time></trkpt><trkpt lat="43.86416937929125" lon="10.921838258296845"><ele>78.2</ele><time>2026-04-19T09:31:05Z</time></trkpt><trkpt lat="43.86421862684045" lon="10.921965881602757"><ele>78.8</ele><time>2026-04-19T09:31:06Z</time></trkpt><trkpt lat="43.86426163516837" lon="10.922078232233437"><ele>79.4</ele><time>2026-04-19T09:31:07Z</time></trkpt><trkpt lat="43.864313762929676" lon="10.922200155001239"><ele>80.0</ele><time>2026-04-19T09:31:08Z</time></trkpt><trkpt lat="43.864367191937745" lon="10.922329003425293"><ele>80.0</ele><time>2026-04-19T09:31:09Z</time></trkpt><trkpt lat="43.86441456955241" lon="10.922440374548247"><ele>80.0</ele><time>2026-04-19T09:31:10Z</time></trkpt><trkpt lat="43.86445211452213" lon="10.92254045246535"><ele>80.0</ele><time>2026-04-19T09:31:11Z</time></trkpt><trkpt lat="43.86449042696916" lon="10.922642062193658"><ele>80.0</ele><time>2026-04-19T09:31:12Z</time></trkpt><trkpt lat="43.864532301105285" lon="10.922749095694805"><ele>80.0</ele><time>2026-04-19T09:31:13Z</time></trkpt><trkpt lat="43.864579740423565" lon="10.922858834962053"><ele>80.0</ele><time>2026-04-19T09:31:14Z</time></trkpt><trkpt lat="43.86462308410593" lon="10.922965609060665"><ele>78.2</ele><time>2026-04-19T09:31:15Z</time></trkpt><trkpt lat="43.864664654935254" lon="10.923071249308263"><ele>76.4</ele><time>2026-04-19T09:31:16Z</time></trkpt><trkpt lat="43.86471494154169" lon="10.923194728195611"><ele>74.6</ele><time>2026-04-19T09:31:17Z</time></trkpt><trkpt lat="43.86477373887204" lon="10.923327150910264"><ele>72.8</ele><time>2026-04-19T09:31:18Z</time></trkpt><trkpt lat="43.86483836129987" lon="10.923461410796348"><ele>71.0</ele><time>2026-04-19T09:31:19Z</time></trkpt><trkpt lat="43.86490132041298" lon="10.923591660680906"><ele>70.0</ele><time>2026-04-19T09:31:20Z</time></trkpt><trkpt lat="43.86496850785803" lon="10.923727729144389"><ele>69.0</ele><time>2026-04-19T09:31:21Z</time></trkpt><trkpt lat="43.865049627522694" lon="10.923875114082012"><ele>68.0</ele><time>2026-04-19T09:31:22Z</time></trkpt><trkpt lat="43.865125312896126" lon="10.924001224407244"><ele>67.0</ele><time>2026-04-19T09:31:23Z</time></trkpt><trkpt lat="43.86519102818561" lon="10.924108504452278"><ele>67.0</ele><time>2026-04-19T09:31:24Z</time></trkpt><trkpt lat="43.865263390125165" lon="10.924223351030475"><ele>67.0</ele><time>2026-04-19T09:31:25Z</time></trkpt><trkpt lat="43.8653575351396" lon="10.924354396243212"><ele>67.0</ele><time>2026-04-19T09:31:26Z</time></trkpt><trkpt lat="43.86545213740424" lon="10.924486629557615"><ele>67.0</ele><time>2026-04-19T09:31:27Z</time></trkpt><trkpt lat="43.86552817000674" lon="10.924599579872503"><ele>66.0</ele><time>2026-04-19T09:31:28Z</time></trkpt><trkpt lat="43.86560140832252" lon="10.924707192070564"><ele>65.0</ele><time>2026-04-19T09:31:29Z</time></trkpt><trkpt lat="43.86566729682132" lon="10.924805194983751"><ele>64.0</ele><time>2026-04-19T09:31:30Z</time></trkpt><trkpt lat="43.8657340884939" lon="10.924895301746561"><ele>63.0</ele><time>2026-04-19T09:31:31Z</time></trkpt><trkpt lat="43.86580009809655" lon="10.924982367069946"><ele>62.0</ele><time>2026-04-19T09:31:32Z</time></trkpt><trkpt lat="43.86586274237311" lon="10.925072110263503"><ele>62.0</ele><time>2026-04-19T09:31:33Z</time></trkpt><trkpt lat="43.865925971191714" lon="10.925163068533726"><ele>62.0</ele><time>2026-04-19T09:31:34Z</time></trkpt><trkpt lat="43.86598763862535" lon="10.925252422868645"><ele>62.0</ele><time>2026-04-19T09:31:35Z</time></trkpt><trkpt lat="43.86604873063753" lon="10.925341157184112"><ele>62.0</ele><time>2026-04-19T09:31:36Z</time></trkpt><trkpt lat="43.86611092157298" lon="10.925426208002417"><ele>62.0</ele><time>2026-04-19T09:31:37Z</time></trkpt><trkpt lat="43.86617612168134" lon="10.925521307609612"><ele>62.00000000000001</ele><time>2026-04-19T09:31:38Z</time></trkpt><trkpt lat="43.866241620045024" lon="10.925618767456465"><ele>62.0</ele><time>2026-04-19T09:31:39Z</time></trkpt><trkpt lat="43.86630841874366" lon="10.925716034718402"><ele>62.0</ele><time>2026-04-19T09:31:40Z</time></trkpt><trkpt lat="43.866374979469875" lon="10.925806098015999"><ele>62.0</ele><time>2026-04-19T09:31:41Z</time></trkpt><trkpt lat="43.86643254252341" lon="10.925886826774287"><ele>62.00000000000001</ele><time>2026-04-19T09:31:42Z</time></trkpt><trkpt lat="43.86648464323418" lon="10.925962027592712"><ele>62.0</ele><time>2026-04-19T09:31:43Z</time></trkpt><trkpt lat="43.8665390819473" lon="10.926038627531767"><ele>61.50000000000001</ele><time>2026-04-19T09:31:44Z</time></trkpt><trkpt lat="43.86659216980736" lon="10.926111621579269"><ele>61.0</ele><time>2026-04-19T09:31:45Z</time></trkpt><trkpt lat="43.86664978085874" lon="10.926197077290295"><ele>60.5</ele><time>2026-04-19T09:31:46Z</time></trkpt><trkpt lat="43.866704652982186" lon="10.926272663716325"><ele>60.0</ele><time>2026-04-19T09:31:47Z</time></trkpt><trkpt lat="43.86676804441222" lon="10.9263658138581"><ele>59.50000000000001</ele><time>2026-04-19T09:31:48Z</time></trkpt><trkpt lat="43.86684895503689" lon="10.92648266498205"><ele>59.0</ele><time>2026-04-19T09:31:49Z</time></trkpt><trkpt lat="43.866942276498534" lon="10.926608720034652"><ele>59.0</ele><time>2026-04-19T09:31:50Z</time></trkpt><trkpt lat="43.86702506479978" lon="10.926724664765045"><ele>59.0</ele><time>2026-04-19T09:31:51Z</time></trkpt><trkpt lat="43.86710552570433" lon="10.92684370599934"><ele>59.0</ele><time>2026-04-19T09:31:52Z</time></trkpt><trkpt lat="43.86718175203852" lon="10.926955120260358"><ele>59.0</ele><time>2026-04-19T09:31:53Z</time></trkpt><trkpt lat="43.867256803759204" lon="10.927058653950608"><ele>58.5</ele><time>2026-04-19T09:31:54Z</time></trkpt><trkpt lat="43.86733372423171" lon="10.927166913840555"><ele>58.0</ele><time>2026-04-19T09:31:55Z</time></trkpt><trkpt lat="43.86741719387541" lon="10.927283349364446"><ele>57.5</ele><time>2026-04-19T09:31:56Z</time></trkpt><trkpt lat="43.86751152535098" lon="10.927414215419564"><ele>57.0</ele><time>2026-04-19T09:31:57Z</time></trkpt><trkpt lat="43.86760231977851" lon="10.927541089247937"><ele>56.0</ele><time>2026-04-19T09:31:58Z</time></trkpt><trkpt lat="43.86767908303738" lon="10.927651672240227"><ele>55.0</ele><time>2026-04-19T09:31:59Z</time></trkpt><trkpt lat="43.867756773052726" lon="10.927764616009956"><ele>54.0</ele><time>2026-04-19T09:32:00Z</time></trkpt><trkpt lat="43.867833637049365" lon="10.927873062756827"><ele>53.0</ele><time>2026-04-19T09:32:01Z</time></trkpt><trkpt lat="43.867904175317776" lon="10.927976672141517"><ele>52.0</ele><time>2026-04-19T09:32:02Z</time></trkpt><trkpt lat="43.867974743324034" lon="10.928076654286103"><ele>52.0</ele><time>2026-04-19T09:32:03Z</time></trkpt><trkpt lat="43.86805858552549" lon="10.928190202632107"><ele>52.0</ele><time>2026-04-19T09:32:04Z</time></trkpt><trkpt lat="43.86815144594042" lon="10.92831658072039"><ele>52.0</ele><time>2026-04-19T09:32:05Z</time></trkpt><trkpt lat="43.86823975153202" lon="10.928443184166293"><ele>52.0</ele><time>2026-04-19T09:32:06Z</time></trkpt><trkpt lat="43.86831954681676" lon="10.928552007655787"><ele>52.0</ele><time>2026-04-19T09:32:07Z</time></trkpt><trkpt lat="43.86839975336643" lon="10.928692401488563"><ele>52.0</ele><time>2026-04-19T09:32:08Z</time></trkpt><trkpt lat="43.86851346788427" lon="10.928844008255219"><ele>52.0</ele><time>2026-04-19T09:32:09Z</time></trkpt><trkpt lat="43.86863993300914" lon="10.928981249783208"><ele>52.0</ele><time>2026-04-19T09:32:10Z</time></trkpt><trkpt lat="43.86874376430043" lon="10.929102804753944"><ele>52.0</ele><time>2026-04-19T09:32:11Z</time></trkpt><trkpt lat="43.86884306237096" lon="10.929208095166395"><ele>52.0</ele><time>2026-04-19T09:32:12Z</time></trkpt><trkpt lat="43.86894814969529" lon="10.929308614179355"><ele>52.0</ele><time>2026-04-19T09:32:13Z</time></trkpt><trkpt lat="43.86904999268863" lon="10.929407635225322"><ele>52.0</ele><time>2026-04-19T09:32:14Z</time></trkpt><trkpt lat="43.86914613441207" lon="10.929499634252151"><ele>52.0</ele><time>2026-04-19T09:32:15Z</time></trkpt><trkpt lat="43.869234059073065" lon="10.929575374642127"><ele>52.0</ele><time>2026-04-19T09:32:16Z</time></trkpt><trkpt lat="43.86932226541971" lon="10.929651501602319"><ele>52.0</ele><time>2026-04-19T09:32:17Z</time></trkpt><trkpt lat="43.86940298951193" lon="10.929723075268564"><ele>52.0</ele><time>2026-04-19T09:32:18Z</time></trkpt><trkpt lat="43.86946356382292" lon="10.929779842094801"><ele>52.0</ele><time>2026-04-19T09:32:19Z</time></trkpt><trkpt lat="43.8695341169503" lon="10.92985209938375"><ele>52.0</ele><time>2026-04-19T09:32:21Z</time></trkpt><trkpt lat="43.869608119784466" lon="10.929921551389821"><ele>52.0</ele><time>2026-04-19T09:32:23Z</time></trkpt><trkpt lat="43.86964759789417" lon="10.92999022575551"><ele>52.0</ele><time>2026-04-19T09:32:24Z</time></trkpt><trkpt lat="43.86970335220914" lon="10.93006523857021"><ele>52.0</ele><time>2026-04-19T09:32:25Z</time></trkpt><trkpt lat="43.86975757108798" lon="10.930161932212627"><ele>52.0</ele><time>2026-04-19T09:32:26Z</time></trkpt><trkpt lat="43.8697185828734" lon="10.930356332380402"><ele>52.0</ele><time>2026-04-19T09:32:27Z</time></trkpt><trkpt lat="43.86973086921313" lon="10.930527143068563"><ele>52.0</ele><time>2026-04-19T09:32:28Z</time></trkpt><trkpt lat="43.86973441238789" lon="10.930697416543179"><ele>52.0</ele><time>2026-04-19T09:32:29Z</time></trkpt><trkpt lat="43.86973553298554" lon="10.930886102527188"><ele>52.0</ele><time>2026-04-19T09:32:30Z</time></trkpt><trkpt lat="43.86973096125449" lon="10.931054941246556"><ele>51.5</ele><time>2026-04-19T09:32:31Z</time></trkpt><trkpt lat="43.86972281736184" lon="10.931243943757034"><ele>51.0</ele><time>2026-04-19T09:32:32Z</time></trkpt><trkpt lat="43.869710818811626" lon="10.931449491466237"><ele>50.5</ele><time>2026-04-19T09:32:33Z</time></trkpt><trkpt lat="43.86970804951598" lon="10.931632277261485"><ele>50.0</ele><time>2026-04-19T09:32:34Z</time></trkpt><trkpt lat="43.86970308979365" lon="10.93179648916431"><ele>49.5</ele><time>2026-04-19T09:32:35Z</time></trkpt><trkpt lat="43.8697017406345" lon="10.931979230601028"><ele>49.0</ele><time>2026-04-19T09:32:36Z</time></trkpt><trkpt lat="43.86970437728276" lon="10.932170026597353"><ele>48.5</ele><time>2026-04-19T09:32:37Z</time></trkpt><trkpt lat="43.869697733037356" lon="10.932349311966911"><ele>48.0</ele><time>2026-04-19T09:32:38Z</time></trkpt><trkpt lat="43.869690975691846" lon="10.932537897382815"><ele>48.66666666666667</ele><time>2026-04-19T09:32:39Z</time></trkpt><trkpt lat="43.86967749703156" lon="10.932749417563219"><ele>49.333333333333336</ele><time>2026-04-19T09:32:40Z</time></trkpt><trkpt lat="43.86964451989242" lon="10.932962792483432"><ele>50.0</ele><time>2026-04-19T09:32:41Z</time></trkpt><trkpt lat="43.869602568969086" lon="10.933180367184178"><ele>51.333333333333336</ele><time>2026-04-19T09:32:42Z</time></trkpt><trkpt lat="43.86954899569217" lon="10.93341298144444"><ele>52.66666666666667</ele><time>2026-04-19T09:32:43Z</time></trkpt><trkpt lat="43.86950455716631" lon="10.933611691347842"><ele>54.0</ele><time>2026-04-19T09:32:44Z</time></trkpt><trkpt lat="43.86946030693668" lon="10.933797222517738"><ele>54.0</ele><time>2026-04-19T09:32:45Z</time></trkpt><trkpt lat="43.869414140411195" lon="10.933983875093872"><ele>54.0</ele><time>2026-04-19T09:32:46Z</time></trkpt><trkpt lat="43.869368772633244" lon="10.934175474558176"><ele>54.0</ele><time>2026-04-19T09:32:47Z</time></trkpt><trkpt lat="43.869322140908885" lon="10.934357221740107"><ele>54.0</ele><time>2026-04-19T09:32:48Z</time></trkpt><trkpt lat="43.86927755859001" lon="10.934533262306063"><ele>53.75</ele><time>2026-04-19T09:32:49Z</time></trkpt><trkpt lat="43.86922894849856" lon="10.934701414568211"><ele>53.5</ele><time>2026-04-19T09:32:50Z</time></trkpt><trkpt lat="43.86916979742574" lon="10.934859936071739"><ele>53.25</ele><time>2026-04-19T09:32:51Z</time></trkpt><trkpt lat="43.869094695044645" lon="10.934989293732958"><ele>53.0</ele><time>2026-04-19T09:32:52Z</time></trkpt><trkpt lat="43.869013246417374" lon="10.935099941785246"><ele>53.0</ele><time>2026-04-19T09:32:53Z</time></trkpt><trkpt lat="43.86891972564012" lon="10.935201839120984"><ele>53.0</ele><time>2026-04-19T09:32:54Z</time></trkpt><trkpt lat="43.86881163796882" lon="10.935290377275019"><ele>53.0</ele><time>2026-04-19T09:32:55Z</time></trkpt><trkpt lat="43.86868183110884" lon="10.93536561711727"><ele>53.0</ele><time>2026-04-19T09:32:56Z</time></trkpt><trkpt lat="43.868522595522656" lon="10.93543952762347"><ele>53.0</ele><time>2026-04-19T09:32:57Z</time></trkpt><trkpt lat="43.86835424349402" lon="10.935502981212732"><ele>53.0</ele><time>2026-04-19T09:32:58Z</time></trkpt><trkpt lat="43.86820410827276" lon="10.93556339879806"><ele>53.0</ele><time>2026-04-19T09:32:59Z</time></trkpt><trkpt lat="43.86804525322901" lon="10.935624366736642"><ele>53.0</ele><time>2026-04-19T09:33:00Z</time></trkpt><trkpt lat="43.86789807167087" lon="10.935684360333354"><ele>53.0</ele><time>2026-04-19T09:33:01Z</time></trkpt><trkpt lat="43.86775440767008" lon="10.935739723326751"><ele>53.0</ele><time>2026-04-19T09:33:02Z</time></trkpt><trkpt lat="43.86758615326036" lon="10.935806689528345"><ele>52.333333333333336</ele><time>2026-04-19T09:33:03Z</time></trkpt><trkpt lat="43.86741816212047" lon="10.935871903091344"><ele>51.66666666666667</ele><time>2026-04-19T09:33:04Z</time></trkpt><trkpt lat="43.867269037418005" lon="10.935932266653246"><ele>51.0</ele><time>2026-04-19T09:33:05Z</time></trkpt><trkpt lat="43.867132116646765" lon="10.935987891874658"><ele>50.66666666666667</ele><time>2026-04-19T09:33:06Z</time></trkpt><trkpt lat="43.866995637371545" lon="10.936051924013137"><ele>50.333333333333336</ele><time>2026-04-19T09:33:07Z</time></trkpt><trkpt lat="43.8668493963808" lon="10.936138583735929"><ele>50.0</ele><time>2026-04-19T09:33:08Z</time></trkpt><trkpt lat="43.86671744005458" lon="10.936234994221502"><ele>50.0</ele><time>2026-04-19T09:33:09Z</time></trkpt><trkpt lat="43.86659060849526" lon="10.93633793909196"><ele>50.0</ele><time>2026-04-19T09:33:10Z</time></trkpt><trkpt lat="43.86647290864496" lon="10.93645337388862"><ele>50.0</ele><time>2026-04-19T09:33:11Z</time></trkpt><trkpt lat="43.86635199785963" lon="10.936602609092525"><ele>50.333333333333336</ele><time>2026-04-19T09:33:12Z</time></trkpt><trkpt lat="43.86623019687334" lon="10.936773488827761"><ele>50.66666666666667</ele><time>2026-04-19T09:33:13Z</time></trkpt><trkpt lat="43.8661231123899" lon="10.936929301915722"><ele>51.0</ele><time>2026-04-19T09:33:14Z</time></trkpt><trkpt lat="43.86602601248938" lon="10.9370707667645"><ele>51.5</ele><time>2026-04-19T09:33:15Z</time></trkpt><trkpt lat="43.86593352179439" lon="10.937211140310973"><ele>52.0</ele><time>2026-04-19T09:33:16Z</time></trkpt><trkpt lat="43.86584062491517" lon="10.937355734486609"><ele>52.5</ele><time>2026-04-19T09:33:17Z</time></trkpt><trkpt lat="43.86574414222032" lon="10.937505022718737"><ele>53.0</ele><time>2026-04-19T09:33:18Z</time></trkpt><trkpt lat="43.865638067888405" lon="10.937674675399398"><ele>54.333333333333336</ele><time>2026-04-19T09:33:19Z</time></trkpt><trkpt lat="43.865528911293886" lon="10.937840633111003"><ele>55.66666666666667</ele><time>2026-04-19T09:33:20Z</time></trkpt><trkpt lat="43.865421108995804" lon="10.938004281535326"><ele>57.0</ele><time>2026-04-19T09:33:21Z</time></trkpt><trkpt lat="43.86531353654579" lon="10.938179386138042"><ele>57.0</ele><time>2026-04-19T09:33:22Z</time></trkpt><trkpt lat="43.865206852670056" lon="10.938345517737298"><ele>57.0</ele><time>2026-04-19T09:33:23Z</time></trkpt><trkpt lat="43.865111469985266" lon="10.938489992451398"><ele>57.0</ele><time>2026-04-19T09:33:24Z</time></trkpt><trkpt lat="43.86502340149375" lon="10.938628512067858"><ele>57.0</ele><time>2026-04-19T09:33:25Z</time></trkpt><trkpt lat="43.864934156071975" lon="10.938770120101566"><ele>56.0</ele><time>2026-04-19T09:33:26Z</time></trkpt><trkpt lat="43.86484042442367" lon="10.938906110353322"><ele>55.0</ele><time>2026-04-19T09:33:27Z</time></trkpt><trkpt lat="43.86473701311116" lon="10.939039731332853"><ele>54.0</ele><time>2026-04-19T09:33:28Z</time></trkpt><trkpt lat="43.86464964020796" lon="10.939206457555867"><ele>53.0</ele><time>2026-04-19T09:33:29Z</time></trkpt><trkpt lat="43.86456036554388" lon="10.939348061556979"><ele>52.8</ele><time>2026-04-19T09:33:30Z</time></trkpt><trkpt lat="43.864481948039014" lon="10.939477255828455"><ele>52.599999999999994</ele><time>2026-04-19T09:33:31Z</time></trkpt><trkpt lat="43.86441163803708" lon="10.939585388295221"><ele>52.400000000000006</ele><time>2026-04-19T09:33:32Z</time></trkpt><trkpt lat="43.86435362437767" lon="10.939681575942812"><ele>52.2</ele><time>2026-04-19T09:33:33Z</time></trkpt><trkpt lat="43.86429455583952" lon="10.939771435344909"><ele>52.0</ele><time>2026-04-19T09:33:34Z</time></trkpt><trkpt lat="43.864245106766596" lon="10.939854315040398"><ele>52.33333333333333</ele><time>2026-04-19T09:33:35Z</time></trkpt><trkpt lat="43.864200333036564" lon="10.939928437839956"><ele>52.666666666666664</ele><time>2026-04-19T09:33:36Z</time></trkpt><trkpt lat="43.86415046524272" lon="10.940004606825752"><ele>53.0</ele><time>2026-04-19T09:33:37Z</time></trkpt><trkpt lat="43.86410510711025" lon="10.940074300891999"><ele>53.33333333333333</ele><time>2026-04-19T09:33:38Z</time></trkpt><trkpt lat="43.864067615970974" lon="10.940148056414815"><ele>53.666666666666664</ele><time>2026-04-19T09:33:39Z</time></trkpt><trkpt lat="43.864024164125546" lon="10.940227248401667"><ele>54.0</ele><time>2026-04-19T09:33:40Z</time></trkpt><trkpt lat="43.8639571664139" lon="10.940370391764453"><ele>54.0</ele><time>2026-04-19T09:33:42Z</time></trkpt><trkpt lat="43.863901329907726" lon="10.940506558264358"><ele>54.00000000000001</ele><time>2026-04-19T09:33:44Z</time></trkpt><trkpt lat="43.86383960345864" lon="10.940630886551025"><ele>54.00000000000001</ele><time>2026-04-19T09:33:46Z</time></trkpt><trkpt lat="43.86378514147002" lon="10.940773000341917"><ele>54.0</ele><time>2026-04-19T09:33:48Z</time></trkpt><trkpt lat="43.863741819618596" lon="10.940874280901093"><ele>54.0</ele><time>2026-04-19T09:33:49Z</time></trkpt><trkpt lat="43.86369054910841" lon="10.940973532970604"><ele>53.75</ele><time>2026-04-19T09:33:50Z</time></trkpt><trkpt lat="43.86364732860308" lon="10.94111126732409"><ele>53.5</ele><time>2026-04-19T09:33:51Z</time></trkpt><trkpt lat="43.863589766451526" lon="10.941234317013052"><ele>53.25</ele><time>2026-04-19T09:33:52Z</time></trkpt><trkpt lat="43.86354690788786" lon="10.94133901146881"><ele>53.0</ele><time>2026-04-19T09:33:53Z</time></trkpt><trkpt lat="43.863473127713746" lon="10.941563005485419"><ele>53.75</ele><time>2026-04-19T09:33:54Z</time></trkpt><trkpt lat="43.863397690335105" lon="10.941699560359773"><ele>54.5</ele><time>2026-04-19T09:33:55Z</time></trkpt><trkpt lat="43.8633329270984" lon="10.941867709979723"><ele>55.25</ele><time>2026-04-19T09:33:56Z</time></trkpt><trkpt lat="43.86325903127178" lon="10.942027756106162"><ele>56.0</ele><time>2026-04-19T09:33:57Z</time></trkpt><trkpt lat="43.863206552620994" lon="10.94214812351651"><ele>56.0</ele><time>2026-04-19T09:33:58Z</time></trkpt><trkpt lat="43.863126981414396" lon="10.942334654588622"><ele>56.0</ele><time>2026-04-19T09:33:59Z</time></trkpt><trkpt lat="43.863039147477885" lon="10.942544470019072"><ele>56.0</ele><time>2026-04-19T09:34:00Z</time></trkpt><trkpt lat="43.86296657944196" lon="10.942746232964002"><ele>55.25</ele><time>2026-04-19T09:34:01Z</time></trkpt><trkpt lat="43.862889352871534" lon="10.942932332342927"><ele>54.5</ele><time>2026-04-19T09:34:02Z</time></trkpt><trkpt lat="43.86281397645963" lon="10.943104757461496"><ele>53.75</ele><time>2026-04-19T09:34:03Z</time></trkpt><trkpt lat="43.86273689655232" lon="10.943274827974863"><ele>53.0</ele><time>2026-04-19T09:34:04Z</time></trkpt><trkpt lat="43.86266457621456" lon="10.943446969360496"><ele>54.333333333333336</ele><time>2026-04-19T09:34:05Z</time></trkpt><trkpt lat="43.862594234337024" lon="10.943619901411157"><ele>55.66666666666667</ele><time>2026-04-19T09:34:06Z</time></trkpt><trkpt lat="43.86252107770467" lon="10.943800601668283"><ele>57.0</ele><time>2026-04-19T09:34:07Z</time></trkpt><trkpt lat="43.862434370903216" lon="10.944007749504582"><ele>57.33333333333333</ele><time>2026-04-19T09:34:08Z</time></trkpt><trkpt lat="43.8623461325245" lon="10.944235769855519"><ele>57.666666666666664</ele><time>2026-04-19T09:34:09Z</time></trkpt><trkpt lat="43.862255198686974" lon="10.944467359920871"><ele>58.0</ele><time>2026-04-19T09:34:10Z</time></trkpt><trkpt lat="43.8621751474837" lon="10.944658560259448"><ele>58.0</ele><time>2026-04-19T09:34:11Z</time></trkpt><trkpt lat="43.86210101987949" lon="10.944844355854345"><ele>58.0</ele><time>2026-04-19T09:34:12Z</time></trkpt><trkpt lat="43.86202389111541" lon="10.94501229792726"><ele>58.0</ele><time>2026-04-19T09:34:13Z</time></trkpt><trkpt lat="43.86195687367622" lon="10.945193359548446"><ele>58.0</ele><time>2026-04-19T09:34:14Z</time></trkpt><trkpt lat="43.86189902110713" lon="10.945340114525061"><ele>58.5</ele><time>2026-04-19T09:34:15Z</time></trkpt><trkpt lat="43.861848539238096" lon="10.945448912160426"><ele>59.0</ele><time>2026-04-19T09:34:16Z</time></trkpt><trkpt lat="43.861795716766196" lon="10.945588454926243"><ele>59.5</ele><time>2026-04-19T09:34:17Z</time></trkpt><trkpt lat="43.86173393960455" lon="10.945741993197903"><ele>60.0</ele><time>2026-04-19T09:34:18Z</time></trkpt><trkpt lat="43.86167134175095" lon="10.94590079927651"><ele>60.25</ele><time>2026-04-19T09:34:19Z</time></trkpt><trkpt lat="43.861599169498696" lon="10.946062070144048"><ele>60.5</ele><time>2026-04-19T09:34:20Z</time></trkpt><trkpt lat="43.861528488379896" lon="10.94622364136765"><ele>60.75</ele><time>2026-04-19T09:34:21Z</time></trkpt><trkpt lat="43.86145958790142" lon="10.94638510081871"><ele>61.0</ele><time>2026-04-19T09:34:22Z</time></trkpt><trkpt lat="43.86138974167317" lon="10.946550082897685"><ele>61.5</ele><time>2026-04-19T09:34:23Z</time></trkpt><trkpt lat="43.86131447502753" lon="10.9467250619036"><ele>62.0</ele><time>2026-04-19T09:34:24Z</time></trkpt><trkpt lat="43.86124410724699" lon="10.946896098398543"><ele>62.5</ele><time>2026-04-19T09:34:25Z</time></trkpt><trkpt lat="43.86116913619519" lon="10.947061863638366"><ele>63.0</ele><time>2026-04-19T09:34:26Z</time></trkpt><trkpt lat="43.861089418091325" lon="10.947260242230422"><ele>63.0</ele><time>2026-04-19T09:34:27Z</time></trkpt><trkpt lat="43.86101196429706" lon="10.947450069020423"><ele>63.0</ele><time>2026-04-19T09:34:28Z</time></trkpt><trkpt lat="43.86094029806219" lon="10.947620852288699"><ele>63.0</ele><time>2026-04-19T09:34:29Z</time></trkpt><trkpt lat="43.860873473947954" lon="10.947783743675295"><ele>63.0</ele><time>2026-04-19T09:34:30Z</time></trkpt><trkpt lat="43.86080587666999" lon="10.947941195403756"><ele>64.5</ele><time>2026-04-19T09:34:31Z</time></trkpt><trkpt lat="43.860742229475285" lon="10.9481000863644"><ele>66.0</ele><time>2026-04-19T09:34:32Z</time></trkpt><trkpt lat="43.86067752393255" lon="10.948251144961494"><ele>67.5</ele><time>2026-04-19T09:34:33Z</time></trkpt><trkpt lat="43.86062267169814" lon="10.948407743515109"><ele>69.0</ele><time>2026-04-19T09:34:34Z</time></trkpt><trkpt lat="43.86057780801611" lon="10.948571435672756"><ele>69.33333333333333</ele><time>2026-04-19T09:34:35Z</time></trkpt><trkpt lat="43.86054548081886" lon="10.948762677093104"><ele>69.66666666666666</ele><time>2026-04-19T09:34:36Z</time></trkpt><trkpt lat="43.86051196035134" lon="10.948982071055285"><ele>70.0</ele><time>2026-04-19T09:34:37Z</time></trkpt><trkpt lat="43.86048472243541" lon="10.949218177696677"><ele>69.33333333333333</ele><time>2026-04-19T09:34:38Z</time></trkpt><trkpt lat="43.86045762465706" lon="10.949451058732738"><ele>68.66666666666667</ele><time>2026-04-19T09:34:39Z</time></trkpt><trkpt lat="43.86042552960357" lon="10.949689295776304"><ele>68.0</ele><time>2026-04-19T09:34:40Z</time></trkpt><trkpt lat="43.860387213117946" lon="10.949936102478727"><ele>67.0</ele><time>2026-04-19T09:34:41Z</time></trkpt><trkpt lat="43.86034670528702" lon="10.950183799208022"><ele>66.0</ele><time>2026-04-19T09:34:42Z</time></trkpt><trkpt lat="43.86029723080392" lon="10.950449400412529"><ele>65.0</ele><time>2026-04-19T09:34:43Z</time></trkpt><trkpt lat="43.86024992188682" lon="10.950712097512161"><ele>64.66666666666667</ele><time>2026-04-19T09:34:44Z</time></trkpt><trkpt lat="43.86020161203185" lon="10.950955613220295"><ele>64.33333333333333</ele><time>2026-04-19T09:34:45Z</time></trkpt><trkpt lat="43.860156025607765" lon="10.951188888628103"><ele>64.0</ele><time>2026-04-19T09:34:46Z</time></trkpt><trkpt lat="43.86010512955694" lon="10.951416092691137"><ele>64.0</ele><time>2026-04-19T09:34:47Z</time></trkpt><trkpt lat="43.86004983787911" lon="10.951652404845666"><ele>64.0</ele><time>2026-04-19T09:34:48Z</time></trkpt><trkpt lat="43.85998134054932" lon="10.951890812647324"><ele>64.0</ele><time>2026-04-19T09:34:49Z</time></trkpt><trkpt lat="43.85989153731014" lon="10.952148601569219"><ele>63.33333333333333</ele><time>2026-04-19T09:34:50Z</time></trkpt><trkpt lat="43.859795364307544" lon="10.95241671499474"><ele>62.66666666666667</ele><time>2026-04-19T09:34:51Z</time></trkpt><trkpt lat="43.859705160313034" lon="10.952686482243111"><ele>62.0</ele><time>2026-04-19T09:34:52Z</time></trkpt><trkpt lat="43.859625749713615" lon="10.952925148585427"><ele>62.0</ele><time>2026-04-19T09:34:53Z</time></trkpt><trkpt lat="43.85954955664148" lon="10.95314511392221"><ele>62.0</ele><time>2026-04-19T09:34:54Z</time></trkpt><trkpt lat="43.85947283234612" lon="10.953367849013585"><ele>62.0</ele><time>2026-04-19T09:34:55Z</time></trkpt><trkpt lat="43.85939903540975" lon="10.953593585666603"><ele>60.66666666666667</ele><time>2026-04-19T09:34:56Z</time></trkpt><trkpt lat="43.859328958735475" lon="10.95382136587361"><ele>59.33333333333333</ele><time>2026-04-19T09:34:57Z</time></trkpt><trkpt lat="43.85926125380303" lon="10.954060921815374"><ele>58.0</ele><time>2026-04-19T09:34:58Z</time></trkpt><trkpt lat="43.85920380570782" lon="10.954303541592306"><ele>56.666666666666664</ele><time>2026-04-19T09:34:59Z</time></trkpt><trkpt lat="43.85915770501073" lon="10.954556804243"><ele>55.33333333333333</ele><time>2026-04-19T09:35:00Z</time></trkpt><trkpt lat="43.859114585592806" lon="10.954817596443194"><ele>54.0</ele><time>2026-04-19T09:35:01Z</time></trkpt><trkpt lat="43.859079690187855" lon="10.955078354924725"><ele>53.33333333333333</ele><time>2026-04-19T09:35:02Z</time></trkpt><trkpt lat="43.859049544041326" lon="10.955331699656334"><ele>52.666666666666664</ele><time>2026-04-19T09:35:03Z</time></trkpt><trkpt lat="43.8590217228537" lon="10.955548061872012"><ele>52.0</ele><time>2026-04-19T09:35:04Z</time></trkpt><trkpt lat="43.85899256093292" lon="10.955764899414028"><ele>52.0</ele><time>2026-04-19T09:35:05Z</time></trkpt><trkpt lat="43.8589582577916" lon="10.955992217810346"><ele>52.0</ele><time>2026-04-19T09:35:06Z</time></trkpt><trkpt lat="43.85892204706713" lon="10.95621849680723"><ele>52.0</ele><time>2026-04-19T09:35:07Z</time></trkpt><trkpt lat="43.85888984974139" lon="10.956429680977408"><ele>52.0</ele><time>2026-04-19T09:35:08Z</time></trkpt><trkpt lat="43.858866246793255" lon="10.95664174363204"><ele>52.0</ele><time>2026-04-19T09:35:09Z</time></trkpt><trkpt lat="43.85883493690434" lon="10.956867559676288"><ele>52.0</ele><time>2026-04-19T09:35:10Z</time></trkpt><trkpt lat="43.858802080695206" lon="10.9571339471339"><ele>51.33333333333333</ele><time>2026-04-19T09:35:11Z</time></trkpt><trkpt lat="43.85876081739339" lon="10.957433368704027"><ele>50.66666666666667</ele><time>2026-04-19T09:35:12Z</time></trkpt><trkpt lat="43.85871266523766" lon="10.957740646092947"><ele>50.0</ele><time>2026-04-19T09:35:13Z</time></trkpt><trkpt lat="43.85867053530824" lon="10.958017790096013"><ele>50.0</ele><time>2026-04-19T09:35:14Z</time></trkpt><trkpt lat="43.85863578163526" lon="10.95826649017176"><ele>50.0</ele><time>2026-04-19T09:35:15Z</time></trkpt><trkpt lat="43.858599550906064" lon="10.95850948869364"><ele>50.0</ele><time>2026-04-19T09:35:16Z</time></trkpt><trkpt lat="43.85856490177524" lon="10.958765223500757"><ele>49.66666666666667</ele><time>2026-04-19T09:35:17Z</time></trkpt><trkpt lat="43.85852707832885" lon="10.959048537267766"><ele>49.33333333333333</ele><time>2026-04-19T09:35:18Z</time></trkpt><trkpt lat="43.8584856900474" lon="10.95935436225574"><ele>49.0</ele><time>2026-04-19T09:35:19Z</time></trkpt><trkpt lat="43.8584422327904" lon="10.959660551739404"><ele>49.666666666666664</ele><time>2026-04-19T09:35:20Z</time></trkpt><trkpt lat="43.85840623933624" lon="10.959939537111815"><ele>50.33333333333333</ele><time>2026-04-19T09:35:21Z</time></trkpt><trkpt lat="43.858367394012156" lon="10.960203687248669"><ele>51.0</ele><time>2026-04-19T09:35:22Z</time></trkpt><trkpt lat="43.85832635277185" lon="10.9604632928978"><ele>51.0</ele><time>2026-04-19T09:35:23Z</time></trkpt><trkpt lat="43.858289772437985" lon="10.96072143426626"><ele>51.0</ele><time>2026-04-19T09:35:24Z</time></trkpt><trkpt lat="43.85825359063041" lon="10.960987887289447"><ele>51.0</ele><time>2026-04-19T09:35:25Z</time></trkpt><trkpt lat="43.85821623580094" lon="10.961260715592134"><ele>50.66666666666667</ele><time>2026-04-19T09:35:26Z</time></trkpt><trkpt lat="43.858178835240544" lon="10.961544749038403"><ele>50.333333333333336</ele><time>2026-04-19T09:35:27Z</time></trkpt><trkpt lat="43.858138873853285" lon="10.96183028070736"><ele>50.0</ele><time>2026-04-19T09:35:28Z</time></trkpt><trkpt lat="43.858098581227864" lon="10.962109913967861"><ele>49.66666666666667</ele><time>2026-04-19T09:35:29Z</time></trkpt><trkpt lat="43.85805934998124" lon="10.962383835533643"><ele>49.33333333333333</ele><time>2026-04-19T09:35:30Z</time></trkpt><trkpt lat="43.85801531900169" lon="10.962668989584737"><ele>49.0</ele><time>2026-04-19T09:35:31Z</time></trkpt><trkpt lat="43.85797481420277" lon="10.962946461423408"><ele>49.0</ele><time>2026-04-19T09:35:32Z</time></trkpt><trkpt lat="43.857931428714195" lon="10.963235776708423"><ele>49.0</ele><time>2026-04-19T09:35:33Z</time></trkpt><trkpt lat="43.85788500879847" lon="10.96353864506962"><ele>49.0</ele><time>2026-04-19T09:35:34Z</time></trkpt><trkpt lat="43.85784611013561" lon="10.963816944611013"><ele>49.0</ele><time>2026-04-19T09:35:35Z</time></trkpt><trkpt lat="43.85780454344055" lon="10.96406657074572"><ele>49.0</ele><time>2026-04-19T09:35:36Z</time></trkpt><trkpt lat="43.85776231537205" lon="10.964326502497235"><ele>49.0</ele><time>2026-04-19T09:35:37Z</time></trkpt><trkpt lat="43.85771923489756" lon="10.964600552255305"><ele>49.0</ele><time>2026-04-19T09:35:38Z</time></trkpt><trkpt lat="43.85767701811908" lon="10.964873094658014"><ele>49.0</ele><time>2026-04-19T09:35:39Z</time></trkpt><trkpt lat="43.85763367077502" lon="10.965150151976207"><ele>49.0</ele><time>2026-04-19T09:35:40Z</time></trkpt><trkpt lat="43.85759244102676" lon="10.965418542805997"><ele>49.33333333333333</ele><time>2026-04-19T09:35:41Z</time></trkpt><trkpt lat="43.85755383719462" lon="10.965673078374074"><ele>49.66666666666667</ele><time>2026-04-19T09:35:42Z</time></trkpt><trkpt lat="43.857515734665846" lon="10.965924786767198"><ele>50.0</ele><time>2026-04-19T09:35:43Z</time></trkpt><trkpt lat="43.85747195601602" lon="10.966186211659013"><ele>50.0</ele><time>2026-04-19T09:35:44Z</time></trkpt><trkpt lat="43.85742707630759" lon="10.96644699928329"><ele>50.0</ele><time>2026-04-19T09:35:45Z</time></trkpt><trkpt lat="43.85738186046709" lon="10.966688385764744"><ele>50.0</ele><time>2026-04-19T09:35:46Z</time></trkpt><trkpt lat="43.857341330813995" lon="10.96690802057987"><ele>49.0</ele><time>2026-04-19T09:35:47Z</time></trkpt><trkpt lat="43.85730054393655" lon="10.967114965362464"><ele>48.0</ele><time>2026-04-19T09:35:48Z</time></trkpt><trkpt lat="43.85726567157722" lon="10.967310500513978"><ele>47.0</ele><time>2026-04-19T09:35:49Z</time></trkpt><trkpt lat="43.857226827861766" lon="10.967511012446154"><ele>46.5</ele><time>2026-04-19T09:35:50Z</time></trkpt><trkpt lat="43.85718961341768" lon="10.967698860648106"><ele>46.0</ele><time>2026-04-19T09:35:51Z</time></trkpt><trkpt lat="43.8571591486842" lon="10.967883741422044"><ele>45.5</ele><time>2026-04-19T09:35:52Z</time></trkpt><trkpt lat="43.85711220780058" lon="10.96807815000682"><ele>45.0</ele><time>2026-04-19T09:35:53Z</time></trkpt><trkpt lat="43.85708003848391" lon="10.968268324890257"><ele>44.75</ele><time>2026-04-19T09:35:54Z</time></trkpt><trkpt lat="43.85704391695482" lon="10.968483348013033"><ele>44.5</ele><time>2026-04-19T09:35:55Z</time></trkpt><trkpt lat="43.857028738443596" lon="10.968673221315617"><ele>44.25</ele><time>2026-04-19T09:35:56Z</time></trkpt><trkpt lat="43.85700151830758" lon="10.968821207461465"><ele>44.0</ele><time>2026-04-19T09:35:57Z</time></trkpt><trkpt lat="43.85697447477081" lon="10.9689569897646"><ele>44.0</ele><time>2026-04-19T09:35:58Z</time></trkpt><trkpt lat="43.856953214937946" lon="10.96908037297205"><ele>44.0</ele><time>2026-04-19T09:35:59Z</time></trkpt><trkpt lat="43.85693184349717" lon="10.969184865971254"><ele>44.0</ele><time>2026-04-19T09:36:00Z</time></trkpt><trkpt lat="43.856900941995576" lon="10.969273635604567"><ele>44.0</ele><time>2026-04-19T09:36:01Z</time></trkpt><trkpt lat="43.85686363581269" lon="10.969344745769558"><ele>44.0</ele><time>2026-04-19T09:36:02Z</time></trkpt><trkpt lat="43.85683412492496" lon="10.969424166375859"><ele>44.0</ele><time>2026-04-19T09:36:03Z</time></trkpt><trkpt lat="43.856734130024975" lon="10.969500768946032"><ele>43.5</ele><time>2026-04-19T09:36:04Z</time></trkpt><trkpt lat="43.8566500198532" lon="10.969616815689488"><ele>43.0</ele><time>2026-04-19T09:36:05Z</time></trkpt><trkpt lat="43.856589018796676" lon="10.969791532418817"><ele>42.5</ele><time>2026-04-19T09:36:06Z</time></trkpt><trkpt lat="43.85655721059032" lon="10.969948516257928"><ele>42.0</ele><time>2026-04-19T09:36:07Z</time></trkpt><trkpt lat="43.8565288037452" lon="10.970099127183982"><ele>42.0</ele><time>2026-04-19T09:36:08Z</time></trkpt><trkpt lat="43.85648985910702" lon="10.970247449097585"><ele>42.0</ele><time>2026-04-19T09:36:09Z</time></trkpt><trkpt lat="43.856435681823584" lon="10.970382874206898"><ele>42.0</ele><time>2026-04-19T09:36:10Z</time></trkpt><trkpt lat="43.85636704485674" lon="10.97050818703429"><ele>42.0</ele><time>2026-04-19T09:36:11Z</time></trkpt><trkpt lat="43.85629078274542" lon="10.970628030804718"><ele>42.0</ele><time>2026-04-19T09:36:12Z</time></trkpt><trkpt lat="43.85621162765279" lon="10.970740532441376"><ele>42.0</ele><time>2026-04-19T09:36:13Z</time></trkpt><trkpt lat="43.85613621692224" lon="10.970837276195699"><ele>42.0</ele><time>2026-04-19T09:36:14Z</time></trkpt><trkpt lat="43.85606426356972" lon="10.970915485057855"><ele>42.0</ele><time>2026-04-19T09:36:15Z</time></trkpt><trkpt lat="43.85600973351329" lon="10.971001663757255"><ele>42.0</ele><time>2026-04-19T09:36:16Z</time></trkpt><trkpt lat="43.85596404012145" lon="10.97109554793598"><ele>42.25</ele><time>2026-04-19T09:36:17Z</time></trkpt><trkpt lat="43.85599854316337" lon="10.971249917613799"><ele>42.5</ele><time>2026-04-19T09:36:18Z</time></trkpt><trkpt lat="43.85604340959317" lon="10.97140325789849"><ele>42.75</ele><time>2026-04-19T09:36:19Z</time></trkpt><trkpt lat="43.85611724298388" lon="10.971549401886818"><ele>43.0</ele><time>2026-04-19T09:36:20Z</time></trkpt><trkpt lat="43.856174979313195" lon="10.971691341646238"><ele>43.25</ele><time>2026-04-19T09:36:21Z</time></trkpt><trkpt lat="43.85620286466743" lon="10.971857491163062"><ele>43.5</ele><time>2026-04-19T09:36:22Z</time></trkpt><trkpt lat="43.856206555988166" lon="10.972047546145012"><ele>43.75</ele><time>2026-04-19T09:36:23Z</time></trkpt><trkpt lat="43.85619676394464" lon="10.97224126331984"><ele>44.0</ele><time>2026-04-19T09:36:24Z</time></trkpt><trkpt lat="43.85616847571261" lon="10.972432209276251"><ele>43.75</ele><time>2026-04-19T09:36:25Z</time></trkpt><trkpt lat="43.85612858577864" lon="10.972612484190922"><ele>43.5</ele><time>2026-04-19T09:36:26Z</time></trkpt><trkpt lat="43.856070549622636" lon="10.972797426124599"><ele>43.25</ele><time>2026-04-19T09:36:27Z</time></trkpt><trkpt lat="43.85602676519045" lon="10.972966804276124"><ele>43.0</ele><time>2026-04-19T09:36:28Z</time></trkpt><trkpt lat="43.85599466599622" lon="10.973134909585992"><ele>43.5</ele><time>2026-04-19T09:36:29Z</time></trkpt><trkpt lat="43.85594713457935" lon="10.973309817571812"><ele>44.0</ele><time>2026-04-19T09:36:30Z</time></trkpt><trkpt lat="43.855901838285895" lon="10.973485703918136"><ele>44.5</ele><time>2026-04-19T09:36:31Z</time></trkpt><trkpt lat="43.85585849902487" lon="10.973649885903246"><ele>45.0</ele><time>2026-04-19T09:36:32Z</time></trkpt><trkpt lat="43.855820559200865" lon="10.973810428318425"><ele>45.0</ele><time>2026-04-19T09:36:33Z</time></trkpt><trkpt lat="43.85578179351499" lon="10.973970767295611"><ele>45.0</ele><time>2026-04-19T09:36:34Z</time></trkpt><trkpt lat="43.85573891665188" lon="10.974136823612112"><ele>45.0</ele><time>2026-04-19T09:36:35Z</time></trkpt><trkpt lat="43.855695436192086" lon="10.974300364698138"><ele>45.0</ele><time>2026-04-19T09:36:36Z</time></trkpt><trkpt lat="43.85565459970866" lon="10.974458268785364"><ele>44.75</ele><time>2026-04-19T09:36:37Z</time></trkpt><trkpt lat="43.855611165194276" lon="10.974616557502031"><ele>44.5</ele><time>2026-04-19T09:36:38Z</time></trkpt><trkpt lat="43.855565257551646" lon="10.974779754177503"><ele>44.25</ele><time>2026-04-19T09:36:39Z</time></trkpt><trkpt lat="43.855517632003455" lon="10.974947472955945"><ele>44.0</ele><time>2026-04-19T09:36:40Z</time></trkpt><trkpt lat="43.8554698277658" lon="10.97512394084688"><ele>43.33333333333333</ele><time>2026-04-19T09:36:41Z</time></trkpt><trkpt lat="43.85541764245757" lon="10.975324479067165"><ele>42.666666666666664</ele><time>2026-04-19T09:36:42Z</time></trkpt><trkpt lat="43.85536569700346" lon="10.975520688099884"><ele>42.0</ele><time>2026-04-19T09:36:43Z</time></trkpt><trkpt lat="43.85531276365246" lon="10.97571789595033"><ele>41.666666666666664</ele><time>2026-04-19T09:36:44Z</time></trkpt><trkpt lat="43.85525575811783" lon="10.975936945771489"><ele>41.33333333333333</ele><time>2026-04-19T09:36:45Z</time></trkpt><trkpt lat="43.855200458549504" lon="10.976155392037198"><ele>41.0</ele><time>2026-04-19T09:36:46Z</time></trkpt><trkpt lat="43.85514838788639" lon="10.976352180616631"><ele>42.0</ele><time>2026-04-19T09:36:47Z</time></trkpt><trkpt lat="43.8550971262793" lon="10.976537064735755"><ele>43.0</ele><time>2026-04-19T09:36:48Z</time></trkpt><trkpt lat="43.855052444204176" lon="10.976727848487501"><ele>44.0</ele><time>2026-04-19T09:36:49Z</time></trkpt><trkpt lat="43.855005075927345" lon="10.976927957516116"><ele>45.0</ele><time>2026-04-19T09:36:50Z</time></trkpt><trkpt lat="43.8549534263808" lon="10.977128073540813"><ele>45.25</ele><time>2026-04-19T09:36:51Z</time></trkpt><trkpt lat="43.85490299737286" lon="10.97732573032785"><ele>45.5</ele><time>2026-04-19T09:36:52Z</time></trkpt><trkpt lat="43.85485865996209" lon="10.977501911293945"><ele>45.75</ele><time>2026-04-19T09:36:53Z</time></trkpt><trkpt lat="43.854816215110304" lon="10.977671511487857"><ele>46.0</ele><time>2026-04-19T09:36:54Z</time></trkpt><trkpt lat="43.854774412617836" lon="10.977836749141023"><ele>46.199999999999996</ele><time>2026-04-19T09:36:55Z</time></trkpt><trkpt lat="43.85473448783908" lon="10.978000414169879"><ele>46.4</ele><time>2026-04-19T09:36:56Z</time></trkpt><trkpt lat="43.85469905048485" lon="10.978141190359578"><ele>46.6</ele><time>2026-04-19T09:36:57Z</time></trkpt><trkpt lat="43.85466261742997" lon="10.97827353156557"><ele>46.8</ele><time>2026-04-19T09:36:58Z</time></trkpt><trkpt lat="43.85462273114471" lon="10.978412948060905"><ele>47.0</ele><time>2026-04-19T09:36:59Z</time></trkpt><trkpt lat="43.85458991740146" lon="10.978550951870194"><ele>47.0</ele><time>2026-04-19T09:37:00Z</time></trkpt><trkpt lat="43.85455689835139" lon="10.978676444832443"><ele>47.0</ele><time>2026-04-19T09:37:01Z</time></trkpt><trkpt lat="43.85452187177826" lon="10.978800306135058"><ele>47.0</ele><time>2026-04-19T09:37:02Z</time></trkpt><trkpt lat="43.854480490384184" lon="10.978915414639628"><ele>47.0</ele><time>2026-04-19T09:37:03Z</time></trkpt><trkpt lat="43.854417217045814" lon="10.979034690173542"><ele>47.0</ele><time>2026-04-19T09:37:04Z</time></trkpt><trkpt lat="43.85434157356255" lon="10.979144242001754"><ele>47.0</ele><time>2026-04-19T09:37:05Z</time></trkpt><trkpt lat="43.85426651108117" lon="10.97923136910989"><ele>47.0</ele><time>2026-04-19T09:37:06Z</time></trkpt><trkpt lat="43.854185425780116" lon="10.979309811540542"><ele>47.0</ele><time>2026-04-19T09:37:07Z</time></trkpt><trkpt lat="43.854107306089844" lon="10.97939743883943"><ele>47.0</ele><time>2026-04-19T09:37:08Z</time></trkpt><trkpt lat="43.854035099394565" lon="10.979488180764632"><ele>47.0</ele><time>2026-04-19T09:37:09Z</time></trkpt><trkpt lat="43.85397151496422" lon="10.979582196061637"><ele>47.0</ele><time>2026-04-19T09:37:10Z</time></trkpt><trkpt lat="43.853913313629796" lon="10.979691930488407"><ele>47.0</ele><time>2026-04-19T09:37:11Z</time></trkpt><trkpt lat="43.85386225343511" lon="10.97981739524452"><ele>47.0</ele><time>2026-04-19T09:37:12Z</time></trkpt><trkpt lat="43.8538199903088" lon="10.979954335671813"><ele>47.0</ele><time>2026-04-19T09:37:13Z</time></trkpt><trkpt lat="43.853778661518966" lon="10.98007119260935"><ele>47.0</ele><time>2026-04-19T09:37:14Z</time></trkpt><trkpt lat="43.85375150360946" lon="10.980186019606679"><ele>46.666666666666664</ele><time>2026-04-19T09:37:15Z</time></trkpt><trkpt lat="43.85372966031613" lon="10.980306379983814"><ele>46.33333333333333</ele><time>2026-04-19T09:37:16Z</time></trkpt><trkpt lat="43.85370922223938" lon="10.980403760375406"><ele>46.0</ele><time>2026-04-19T09:37:17Z</time></trkpt><trkpt lat="43.85368759692963" lon="10.980513131293948"><ele>45.666666666666664</ele><time>2026-04-19T09:37:18Z</time></trkpt><trkpt lat="43.853656041720086" lon="10.980612133079218"><ele>45.333333333333336</ele><time>2026-04-19T09:37:19Z</time></trkpt><trkpt lat="43.85362643833695" lon="10.980696800988815"><ele>45.0</ele><time>2026-04-19T09:37:20Z</time></trkpt><trkpt lat="43.853587154895" lon="10.98078042999568"><ele>45.0</ele><time>2026-04-19T09:37:21Z</time></trkpt><trkpt lat="43.85354137577355" lon="10.980876942209923"><ele>45.0</ele><time>2026-04-19T09:37:22Z</time></trkpt><trkpt lat="43.853483068284255" lon="10.980973723570434"><ele>45.0</ele><time>2026-04-19T09:37:23Z</time></trkpt><trkpt lat="43.8534203826016" lon="10.98107532422719"><ele>45.0</ele><time>2026-04-19T09:37:24Z</time></trkpt><trkpt lat="43.853366091765395" lon="10.981167792062655"><ele>45.0</ele><time>2026-04-19T09:37:25Z</time></trkpt><trkpt lat="43.85331781393754" lon="10.981243426448424"><ele>45.0</ele><time>2026-04-19T09:37:26Z</time></trkpt><trkpt lat="43.853260828708635" lon="10.981315795812279"><ele>45.0</ele><time>2026-04-19T09:37:27Z</time></trkpt><trkpt lat="43.853184337414675" lon="10.981405912088464"><ele>45.0</ele><time>2026-04-19T09:37:28Z</time></trkpt><trkpt lat="43.853094547911745" lon="10.98147733278286"><ele>45.0</ele><time>2026-04-19T09:37:29Z</time></trkpt><trkpt lat="43.852985257576606" lon="10.981538495354721"><ele>45.0</ele><time>2026-04-19T09:37:30Z</time></trkpt><trkpt lat="43.85288058465602" lon="10.981613204580931"><ele>45.0</ele><time>2026-04-19T09:37:31Z</time></trkpt><trkpt lat="43.85280375151127" lon="10.981690252224652"><ele>44.833333333333336</ele><time>2026-04-19T09:37:32Z</time></trkpt><trkpt lat="43.85272926033995" lon="10.981771295606372"><ele>44.666666666666664</ele><time>2026-04-19T09:37:33Z</time></trkpt><trkpt lat="43.85264846182849" lon="10.981839700640005"><ele>44.5</ele><time>2026-04-19T09:37:34Z</time></trkpt><trkpt lat="43.85258532681039" lon="10.981888579015385"><ele>44.33333333333333</ele><time>2026-04-19T09:37:35Z</time></trkpt><trkpt lat="43.85251964816216" lon="10.981930586348172"><ele>44.166666666666664</ele><time>2026-04-19T09:37:36Z</time></trkpt><trkpt lat="43.85245633385202" lon="10.98196372394866"><ele>44.0</ele><time>2026-04-19T09:37:37Z</time></trkpt><trkpt lat="43.85238808264297" lon="10.982007570188097"><ele>44.0</ele><time>2026-04-19T09:37:38Z</time></trkpt><trkpt lat="43.852322310509024" lon="10.982063256734051"><ele>44.0</ele><time>2026-04-19T09:37:39Z</time></trkpt><trkpt lat="43.85225671546708" lon="10.982117112971771"><ele>44.0</ele><time>2026-04-19T09:37:40Z</time></trkpt><trkpt lat="43.85217797324493" lon="10.98219441717296"><ele>44.0</ele><time>2026-04-19T09:37:41Z</time></trkpt><trkpt lat="43.852101466350916" lon="10.982280807574181"><ele>44.0</ele><time>2026-04-19T09:37:42Z</time></trkpt><trkpt lat="43.8520346078204" lon="10.982379348863015"><ele>44.0</ele><time>2026-04-19T09:37:43Z</time></trkpt><trkpt lat="43.85196757093357" lon="10.982498624880499"><ele>44.0</ele><time>2026-04-19T09:37:44Z</time></trkpt><trkpt lat="43.85189043722404" lon="10.982611692509046"><ele>44.0</ele><time>2026-04-19T09:37:45Z</time></trkpt><trkpt lat="43.85181918193446" lon="10.982743430412333"><ele>44.0</ele><time>2026-04-19T09:37:46Z</time></trkpt><trkpt lat="43.851749124122136" lon="10.982909242598499"><ele>44.0</ele><time>2026-04-19T09:37:47Z</time></trkpt><trkpt lat="43.85166779712661" lon="10.98306692895694"><ele>44.0</ele><time>2026-04-19T09:37:48Z</time></trkpt><trkpt lat="43.85159949531761" lon="10.983222393234524"><ele>44.0</ele><time>2026-04-19T09:37:49Z</time></trkpt><trkpt lat="43.85153416513371" lon="10.983372517608649"><ele>44.0</ele><time>2026-04-19T09:37:50Z</time></trkpt><trkpt lat="43.851464311653004" lon="10.983518072288227"><ele>44.0</ele><time>2026-04-19T09:37:51Z</time></trkpt><trkpt lat="43.85139566142476" lon="10.983663578369557"><ele>43.75</ele><time>2026-04-19T09:37:52Z</time></trkpt><trkpt lat="43.85132942289401" lon="10.983807767702437"><ele>43.5</ele><time>2026-04-19T09:37:53Z</time></trkpt><trkpt lat="43.85126218144322" lon="10.983943584659114"><ele>43.25</ele><time>2026-04-19T09:37:54Z</time></trkpt><trkpt lat="43.851192496442344" lon="10.98407219513756"><ele>43.0</ele><time>2026-04-19T09:37:55Z</time></trkpt><trkpt lat="43.8511311450297" lon="10.984188444815041"><ele>43.0</ele><time>2026-04-19T09:37:56Z</time></trkpt><trkpt lat="43.85107234284709" lon="10.984296948758717"><ele>43.0</ele><time>2026-04-19T09:37:57Z</time></trkpt><trkpt lat="43.85100713026017" lon="10.98440121338883"><ele>43.0</ele><time>2026-04-19T09:37:58Z</time></trkpt><trkpt lat="43.85094451808009" lon="10.984501795132225"><ele>43.0</ele><time>2026-04-19T09:37:59Z</time></trkpt><trkpt lat="43.85088044199482" lon="10.984599270308076"><ele>43.0</ele><time>2026-04-19T09:38:00Z</time></trkpt><trkpt lat="43.85081730839288" lon="10.984690478420813"><ele>42.8</ele><time>2026-04-19T09:38:01Z</time></trkpt><trkpt lat="43.85076615663569" lon="10.984761027312079"><ele>42.599999999999994</ele><time>2026-04-19T09:38:02Z</time></trkpt><trkpt lat="43.85067130970846" lon="10.984855908071333"><ele>42.400000000000006</ele><time>2026-04-19T09:38:04Z</time></trkpt><trkpt lat="43.850567655277715" lon="10.984784451559857"><ele>42.2</ele><time>2026-04-19T09:38:06Z</time></trkpt><trkpt lat="43.85048659651528" lon="10.98471388816135"><ele>42.0</ele><time>2026-04-19T09:38:07Z</time></trkpt><trkpt lat="43.850374544911595" lon="10.984637512982326"><ele>42.0</ele><time>2026-04-19T09:38:08Z</time></trkpt><trkpt lat="43.85027582464149" lon="10.98454142062854"><ele>42.0</ele><time>2026-04-19T09:38:09Z</time></trkpt><trkpt lat="43.85019589874439" lon="10.984472350994563"><ele>42.0</ele><time>2026-04-19T09:38:10Z</time></trkpt><trkpt lat="43.85011183983259" lon="10.984403834036922"><ele>42.0</ele><time>2026-04-19T09:38:11Z</time></trkpt><trkpt lat="43.85002533117657" lon="10.984327161669812"><ele>42.0</ele><time>2026-04-19T09:38:12Z</time></trkpt><trkpt lat="43.84992290176757" lon="10.984232286897775"><ele>43.0</ele><time>2026-04-19T09:38:13Z</time></trkpt><trkpt lat="43.84981645331926" lon="10.984131045162485"><ele>44.0</ele><time>2026-04-19T09:38:14Z</time></trkpt><trkpt lat="43.84972540507493" lon="10.984043787356317"><ele>45.0</ele><time>2026-04-19T09:38:15Z</time></trkpt><trkpt lat="43.84963474885871" lon="10.983958899847018"><ele>46.0</ele><time>2026-04-19T09:38:16Z</time></trkpt><trkpt lat="43.84954530113332" lon="10.983874019439451"><ele>46.0</ele><time>2026-04-19T09:38:17Z</time></trkpt><trkpt lat="43.8494537106005" lon="10.98379028363325"><ele>46.0</ele><time>2026-04-19T09:38:18Z</time></trkpt><trkpt lat="43.84936085648413" lon="10.983706506604609"><ele>46.0</ele><time>2026-04-19T09:38:19Z</time></trkpt><trkpt lat="43.84925893447877" lon="10.983622560144168"><ele>46.0</ele><time>2026-04-19T09:38:20Z</time></trkpt><trkpt lat="43.8491768443087" lon="10.983550757703771"><ele>46.0</ele><time>2026-04-19T09:38:21Z</time></trkpt><trkpt lat="43.849103220844235" lon="10.983489406804548"><ele>46.25</ele><time>2026-04-19T09:38:22Z</time></trkpt><trkpt lat="43.84903010637461" lon="10.983423419632055"><ele>46.5</ele><time>2026-04-19T09:38:23Z</time></trkpt><trkpt lat="43.84896311233119" lon="10.983366189713738"><ele>46.75</ele><time>2026-04-19T09:38:24Z</time></trkpt><trkpt lat="43.84889092494849" lon="10.98330933062332"><ele>47.0</ele><time>2026-04-19T09:38:26Z</time></trkpt><trkpt lat="43.84874390265083" lon="10.983519581375921"><ele>47.0</ele><time>2026-04-19T09:38:29Z</time></trkpt><trkpt lat="43.84872392261501" lon="10.983617053148178"><ele>47.0</ele><time>2026-04-19T09:38:30Z</time></trkpt><trkpt lat="43.84869627038851" lon="10.983697000775694"><ele>47.0</ele><time>2026-04-19T09:38:31Z</time></trkpt><trkpt lat="43.84865953698339" lon="10.983776587283744"><ele>47.0</ele><time>2026-04-19T09:38:32Z</time></trkpt><trkpt lat="43.84862713923839" lon="10.983853596298323"><ele>47.0</ele><time>2026-04-19T09:38:33Z</time></trkpt><trkpt lat="43.8485663714285" lon="10.983957676982868"><ele>47.0</ele><time>2026-04-19T09:38:35Z</time></trkpt><trkpt lat="43.84853011651356" lon="10.98404245204139"><ele>47.0</ele><time>2026-04-19T09:38:47Z</time></trkpt><trkpt lat="43.84848728620943" lon="10.984156071896724"><ele>47.166666666666664</ele><time>2026-04-19T09:38:49Z</time></trkpt><trkpt lat="43.84844782804002" lon="10.984260300827533"><ele>47.33333333333333</ele><time>2026-04-19T09:38:51Z</time></trkpt><trkpt lat="43.848399091922985" lon="10.984350431632395"><ele>47.5</ele><time>2026-04-19T09:38:53Z</time></trkpt><trkpt lat="43.84836908686714" lon="10.984432510599163"><ele>47.666666666666664</ele><time>2026-04-19T09:38:58Z</time></trkpt><trkpt lat="43.84826400030931" lon="10.98434956173597"><ele>47.833333333333336</ele><time>2026-04-19T09:38:59Z</time></trkpt><trkpt lat="43.84821385043023" lon="10.984256718510027"><ele>48.0</ele><time>2026-04-19T09:39:00Z</time></trkpt><trkpt lat="43.84815530698421" lon="10.984159415080322"><ele>48.599999999999994</ele><time>2026-04-19T09:39:01Z</time></trkpt><trkpt lat="43.848074242001445" lon="10.984053810753943"><ele>49.199999999999996</ele><time>2026-04-19T09:39:02Z</time></trkpt><trkpt lat="43.847992541545786" lon="10.983959030382684"><ele>49.8</ele><time>2026-04-19T09:39:03Z</time></trkpt><trkpt lat="43.84791313370857" lon="10.983886023996321"><ele>50.4</ele><time>2026-04-19T09:39:04Z</time></trkpt><trkpt lat="43.84783228740176" lon="10.983828776823115"><ele>51.0</ele><time>2026-04-19T09:39:05Z</time></trkpt><trkpt lat="43.847742983629196" lon="10.983786213070115"><ele>51.0</ele><time>2026-04-19T09:39:06Z</time></trkpt><trkpt lat="43.84764874659214" lon="10.983748669257091"><ele>51.0</ele><time>2026-04-19T09:39:07Z</time></trkpt><trkpt lat="43.84755377706774" lon="10.98371214288232"><ele>51.0</ele><time>2026-04-19T09:39:08Z</time></trkpt><trkpt lat="43.84743581191158" lon="10.983665150707592"><ele>51.0</ele><time>2026-04-19T09:39:09Z</time></trkpt><trkpt lat="43.84731585525721" lon="10.98361628962474"><ele>51.0</ele><time>2026-04-19T09:39:10Z</time></trkpt><trkpt lat="43.8472173686618" lon="10.983573234096285"><ele>51.0</ele><time>2026-04-19T09:39:11Z</time></trkpt><trkpt lat="43.847121859857594" lon="10.983525954676663"><ele>51.0</ele><time>2026-04-19T09:39:12Z</time></trkpt><trkpt lat="43.84703319697832" lon="10.983487685256863"><ele>51.0</ele><time>2026-04-19T09:39:13Z</time></trkpt><trkpt lat="43.846960473184375" lon="10.98345719445516"><ele>51.0</ele><time>2026-04-19T09:39:14Z</time></trkpt><trkpt lat="43.84686707832289" lon="10.983402563202137"><ele>51.0</ele><time>2026-04-19T09:39:16Z</time></trkpt><trkpt lat="43.84677562491781" lon="10.98339716731615"><ele>50.8</ele><time>2026-04-19T09:39:27Z</time></trkpt><trkpt lat="43.84673988860327" lon="10.983505592944686"><ele>50.599999999999994</ele><time>2026-04-19T09:39:28Z</time></trkpt><trkpt lat="43.84669593337933" lon="10.983610936993303"><ele>50.4</ele><time>2026-04-19T09:39:29Z</time></trkpt><trkpt lat="43.84664137152304" lon="10.983736307741822"><ele>50.2</ele><time>2026-04-19T09:39:30Z</time></trkpt><trkpt lat="43.84658188293332" lon="10.983863575456716"><ele>50.0</ele><time>2026-04-19T09:39:31Z</time></trkpt><trkpt lat="43.846509791812394" lon="10.98399695020904"><ele>50.0</ele><time>2026-04-19T09:39:32Z</time></trkpt><trkpt lat="43.84643086090447" lon="10.984134781875657"><ele>50.0</ele><time>2026-04-19T09:39:33Z</time></trkpt><trkpt lat="43.846356256616254" lon="10.98425822386476"><ele>50.0</ele><time>2026-04-19T09:39:34Z</time></trkpt><trkpt lat="43.84626896419688" lon="10.984394449891308"><ele>50.0</ele><time>2026-04-19T09:39:35Z</time></trkpt><trkpt lat="43.84617315736493" lon="10.984537594104985"><ele>49.5</ele><time>2026-04-19T09:39:36Z</time></trkpt><trkpt lat="43.84607191740307" lon="10.984666465839405"><ele>49.0</ele><time>2026-04-19T09:39:37Z</time></trkpt><trkpt lat="43.84597537783779" lon="10.984780286313336"><ele>48.5</ele><time>2026-04-19T09:39:38Z</time></trkpt><trkpt lat="43.845881719284165" lon="10.984880854298043"><ele>48.0</ele><time>2026-04-19T09:39:39Z</time></trkpt><trkpt lat="43.8457943812713" lon="10.984983038044556"><ele>47.8</ele><time>2026-04-19T09:39:40Z</time></trkpt><trkpt lat="43.845704023912894" lon="10.98508976183895"><ele>47.599999999999994</ele><time>2026-04-19T09:39:41Z</time></trkpt><trkpt lat="43.8456136769214" lon="10.985187911941312"><ele>47.400000000000006</ele><time>2026-04-19T09:39:42Z</time></trkpt><trkpt lat="43.84552339471514" lon="10.985261130328789"><ele>47.2</ele><time>2026-04-19T09:39:43Z</time></trkpt><trkpt lat="43.84544357344673" lon="10.985314209898062"><ele>47.0</ele><time>2026-04-19T09:39:44Z</time></trkpt><trkpt lat="43.845371855230354" lon="10.985362762536665"><ele>47.0</ele><time>2026-04-19T09:39:45Z</time></trkpt><trkpt lat="43.84530606682485" lon="10.985405632468606"><ele>47.0</ele><time>2026-04-19T09:39:46Z</time></trkpt><trkpt lat="43.84520013833083" lon="10.98546604926689"><ele>47.0</ele><time>2026-04-19T09:39:48Z</time></trkpt><trkpt lat="43.84511307689641" lon="10.985474161909798"><ele>47.0</ele><time>2026-04-19T09:39:49Z</time></trkpt><trkpt lat="43.845032392914696" lon="10.98557532046688"><ele>47.0</ele><time>2026-04-19T09:39:50Z</time></trkpt><trkpt lat="43.84492900392128" lon="10.98570467820189"><ele>47.33333333333333</ele><time>2026-04-19T09:39:51Z</time></trkpt><trkpt lat="43.84478616578892" lon="10.985838726941342"><ele>47.666666666666664</ele><time>2026-04-19T09:39:52Z</time></trkpt><trkpt lat="43.84463519248778" lon="10.985948502262838"><ele>48.0</ele><time>2026-04-19T09:39:53Z</time></trkpt><trkpt lat="43.844498181748705" lon="10.986055388707769"><ele>48.0</ele><time>2026-04-19T09:39:54Z</time></trkpt><trkpt lat="43.84436923101337" lon="10.986165133881565"><ele>48.0</ele><time>2026-04-19T09:39:55Z</time></trkpt><trkpt lat="43.844242266597604" lon="10.98626786490877"><ele>48.0</ele><time>2026-04-19T09:39:56Z</time></trkpt><trkpt lat="43.84412531425519" lon="10.986363695744924"><ele>48.0</ele><time>2026-04-19T09:39:57Z</time></trkpt><trkpt lat="43.84401770843653" lon="10.986460603123057"><ele>48.599999999999994</ele><time>2026-04-19T09:39:58Z</time></trkpt><trkpt lat="43.8439237624947" lon="10.986548282540012"><ele>49.199999999999996</ele><time>2026-04-19T09:39:59Z</time></trkpt><trkpt lat="43.8438383714513" lon="10.98663476033298"><ele>49.8</ele><time>2026-04-19T09:40:00Z</time></trkpt><trkpt lat="43.843763624298056" lon="10.986736690882616"><ele>50.4</ele><time>2026-04-19T09:40:01Z</time></trkpt><trkpt lat="43.843704183213895" lon="10.98686003334704"><ele>51.0</ele><time>2026-04-19T09:40:02Z</time></trkpt><trkpt lat="43.84365829120008" lon="10.98699187171617"><ele>51.0</ele><time>2026-04-19T09:40:03Z</time></trkpt><trkpt lat="43.84363273641726" lon="10.987129071888836"><ele>51.0</ele><time>2026-04-19T09:40:04Z</time></trkpt><trkpt lat="43.843620824968326" lon="10.987274507346767"><ele>51.0</ele><time>2026-04-19T09:40:05Z</time></trkpt><trkpt lat="43.84360485467629" lon="10.987388603177651"><ele>51.0</ele><time>2026-04-19T09:40:06Z</time></trkpt><trkpt lat="43.84363253999731" lon="10.98751477372355"><ele>51.0</ele><time>2026-04-19T09:40:07Z</time></trkpt><trkpt lat="43.84367790504911" lon="10.987618601543355"><ele>50.75</ele><time>2026-04-19T09:40:08Z</time></trkpt><trkpt lat="43.84374343814806" lon="10.987728543219722"><ele>50.5</ele><time>2026-04-19T09:40:09Z</time></trkpt><trkpt lat="43.84382747344479" lon="10.987858486511085"><ele>50.25</ele><time>2026-04-19T09:40:10Z</time></trkpt><trkpt lat="43.84393733349376" lon="10.988004598533964"><ele>50.0</ele><time>2026-04-19T09:40:11Z</time></trkpt><trkpt lat="43.84406297413682" lon="10.988153849309949"><ele>50.0</ele><time>2026-04-19T09:40:12Z</time></trkpt><trkpt lat="43.84419085675074" lon="10.98829109258252"><ele>50.0</ele><time>2026-04-19T09:40:13Z</time></trkpt><trkpt lat="43.844348639226226" lon="10.988437584229263"><ele>50.0</ele><time>2026-04-19T09:40:14Z</time></trkpt><trkpt lat="43.84450548331442" lon="10.98857293044019"><ele>49.25</ele><time>2026-04-19T09:40:15Z</time></trkpt><trkpt lat="43.84462508329853" lon="10.988681138989628"><ele>48.5</ele><time>2026-04-19T09:40:16Z</time></trkpt><trkpt lat="43.84473244660664" lon="10.98878635781118"><ele>47.75</ele><time>2026-04-19T09:40:17Z</time></trkpt><trkpt lat="43.84482714008288" lon="10.988875455639283"><ele>47.0</ele><time>2026-04-19T09:40:18Z</time></trkpt><trkpt lat="43.84493275250826" lon="10.988972907242356"><ele>47.0</ele><time>2026-04-19T09:40:19Z</time></trkpt><trkpt lat="43.84504215979366" lon="10.989067535699057"><ele>47.0</ele><time>2026-04-19T09:40:20Z</time></trkpt><trkpt lat="43.84513869248195" lon="10.989151742056347"><ele>47.0</ele><time>2026-04-19T09:40:21Z</time></trkpt><trkpt lat="43.845223343931316" lon="10.9892204849006"><ele>47.0</ele><time>2026-04-19T09:40:22Z</time></trkpt><trkpt lat="43.845290008836535" lon="10.989280835410462"><ele>47.0</ele><time>2026-04-19T09:40:23Z</time></trkpt><trkpt lat="43.84536199107994" lon="10.98934181087398"><ele>47.2</ele><time>2026-04-19T09:40:24Z</time></trkpt><trkpt lat="43.84542449534763" lon="10.989394186664503"><ele>47.400000000000006</ele><time>2026-04-19T09:40:25Z</time></trkpt><trkpt lat="43.84551948413034" lon="10.989478908432279"><ele>47.599999999999994</ele><time>2026-04-19T09:40:27Z</time></trkpt><trkpt lat="43.845600170343815" lon="10.98953361113658"><ele>47.8</ele><time>2026-04-19T09:40:30Z</time></trkpt><trkpt lat="43.8456796648811" lon="10.989588714138039"><ele>48.0</ele><time>2026-04-19T09:40:33Z</time></trkpt><trkpt lat="43.845779576347105" lon="10.989671196692573"><ele>48.0</ele><time>2026-04-19T09:40:35Z</time></trkpt><trkpt lat="43.845872850523264" lon="10.989748800953127"><ele>48.0</ele><time>2026-04-19T09:40:36Z</time></trkpt><trkpt lat="43.84599472003201" lon="10.989861731155582"><ele>48.0</ele><time>2026-04-19T09:40:37Z</time></trkpt><trkpt lat="43.84611289103241" lon="10.98997367612036"><ele>48.0</ele><time>2026-04-19T09:40:38Z</time></trkpt><trkpt lat="43.84621601704262" lon="10.990073412163069"><ele>48.0</ele><time>2026-04-19T09:40:39Z</time></trkpt><trkpt lat="43.84630256959155" lon="10.990165371745437"><ele>48.0</ele><time>2026-04-19T09:40:40Z</time></trkpt><trkpt lat="43.84639359968972" lon="10.990258955726354"><ele>48.0</ele><time>2026-04-19T09:40:41Z</time></trkpt><trkpt lat="43.846485001100234" lon="10.990350657469923"><ele>48.0</ele><time>2026-04-19T09:40:42Z</time></trkpt><trkpt lat="43.8465689523426" lon="10.990430948120979"><ele>48.0</ele><time>2026-04-19T09:40:43Z</time></trkpt><trkpt lat="43.84664352471791" lon="10.990504365412654"><ele>48.0</ele><time>2026-04-19T09:40:44Z</time></trkpt><trkpt lat="43.8467062962106" lon="10.990572572556959"><ele>48.0</ele><time>2026-04-19T09:40:45Z</time></trkpt><trkpt lat="43.84676250374797" lon="10.990638750891412"><ele>48.0</ele><time>2026-04-19T09:40:46Z</time></trkpt><trkpt lat="43.84682229154445" lon="10.990697563545746"><ele>48.0</ele><time>2026-04-19T09:40:47Z</time></trkpt><trkpt lat="43.84688886844636" lon="10.99074332212859"><ele>48.0</ele><time>2026-04-19T09:40:48Z</time></trkpt><trkpt lat="43.84695674764904" lon="10.990769679016143"><ele>48.0</ele><time>2026-04-19T09:40:49Z</time></trkpt><trkpt lat="43.84706873627189" lon="10.990771480618472"><ele>47.2</ele><time>2026-04-19T09:40:51Z</time></trkpt><trkpt lat="43.8471662133007" lon="10.990759052545354"><ele>46.4</ele><time>2026-04-19T09:40:53Z</time></trkpt><trkpt lat="43.84727494695866" lon="10.990769558238991"><ele>45.6</ele><time>2026-04-19T09:40:55Z</time></trkpt><trkpt lat="43.84736360829354" lon="10.99084875676202"><ele>44.800000000000004</ele><time>2026-04-19T09:40:57Z</time></trkpt><trkpt lat="43.847414229698096" lon="10.991022479244755"><ele>44.0</ele><time>2026-04-19T09:40:59Z</time></trkpt><trkpt lat="43.84741006689372" lon="10.991162401292947"><ele>43.75</ele><time>2026-04-19T09:41:00Z</time></trkpt><trkpt lat="43.84742615596163" lon="10.991335038956457"><ele>43.5</ele><time>2026-04-19T09:41:01Z</time></trkpt><trkpt lat="43.847444043608824" lon="10.991530923339823"><ele>43.25</ele><time>2026-04-19T09:41:02Z</time></trkpt><trkpt lat="43.84747802298603" lon="10.991725217940582"><ele>43.0</ele><time>2026-04-19T09:41:03Z</time></trkpt><trkpt lat="43.84748631343632" lon="10.99191923394966"><ele>43.0</ele><time>2026-04-19T09:41:04Z</time></trkpt><trkpt lat="43.84749379174971" lon="10.992100225807658"><ele>43.0</ele><time>2026-04-19T09:41:05Z</time></trkpt><trkpt lat="43.84749705786436" lon="10.99226048646441"><ele>43.0</ele><time>2026-04-19T09:41:06Z</time></trkpt><trkpt lat="43.84750108838465" lon="10.992408792604861"><ele>43.0</ele><time>2026-04-19T09:41:07Z</time></trkpt><trkpt lat="43.84750111683574" lon="10.992555029432301"><ele>42.5</ele><time>2026-04-19T09:41:08Z</time></trkpt><trkpt lat="43.84748948899587" lon="10.99270084366298"><ele>42.0</ele><time>2026-04-19T09:41:09Z</time></trkpt><trkpt lat="43.84745218734183" lon="10.992858057688741"><ele>41.5</ele><time>2026-04-19T09:41:10Z</time></trkpt><trkpt lat="43.84737153079009" lon="10.993029255719534"><ele>41.0</ele><time>2026-04-19T09:41:11Z</time></trkpt><trkpt lat="43.84730988642024" lon="10.993233391326717"><ele>40.5</ele><time>2026-04-19T09:41:12Z</time></trkpt><trkpt lat="43.84723999954706" lon="10.993416578728764"><ele>40.0</ele><time>2026-04-19T09:41:13Z</time></trkpt><trkpt lat="43.8471800341586" lon="10.993585465275615"><ele>39.5</ele><time>2026-04-19T09:41:14Z</time></trkpt><trkpt lat="43.84711196338182" lon="10.993760835340044"><ele>39.0</ele><time>2026-04-19T09:41:15Z</time></trkpt><trkpt lat="43.8470313121148" lon="10.993978098402412"><ele>39.25</ele><time>2026-04-19T09:41:16Z</time></trkpt><trkpt lat="43.846955953750516" lon="10.994193991968103"><ele>39.5</ele><time>2026-04-19T09:41:17Z</time></trkpt><trkpt lat="43.846888344947686" lon="10.994370027156465"><ele>39.75</ele><time>2026-04-19T09:41:18Z</time></trkpt><trkpt lat="43.84682356279589" lon="10.994527533111395"><ele>40.0</ele><time>2026-04-19T09:41:19Z</time></trkpt><trkpt lat="43.84676653716686" lon="10.9946799452852"><ele>40.6</ele><time>2026-04-19T09:41:20Z</time></trkpt><trkpt lat="43.846713998789525" lon="10.99482735441265"><ele>41.2</ele><time>2026-04-19T09:41:21Z</time></trkpt><trkpt lat="43.846670180575444" lon="10.994962900411402"><ele>41.8</ele><time>2026-04-19T09:41:22Z</time></trkpt><trkpt lat="43.84664315626004" lon="10.995080153069418"><ele>42.4</ele><time>2026-04-19T09:41:23Z</time></trkpt><trkpt lat="43.84662957313095" lon="10.995193614726537"><ele>43.0</ele><time>2026-04-19T09:41:24Z</time></trkpt><trkpt lat="43.846634549622465" lon="10.995309870543496"><ele>43.4</ele><time>2026-04-19T09:41:25Z</time></trkpt><trkpt lat="43.846656390721776" lon="10.995436053255979"><ele>43.8</ele><time>2026-04-19T09:41:26Z</time></trkpt><trkpt lat="43.84667694539602" lon="10.995574660010275"><ele>44.2</ele><time>2026-04-19T09:41:27Z</time></trkpt><trkpt lat="43.84669411598944" lon="10.995719858290837"><ele>44.6</ele><time>2026-04-19T09:41:28Z</time></trkpt><trkpt lat="43.84670899614348" lon="10.995877956410277"><ele>45.0</ele><time>2026-04-19T09:41:29Z</time></trkpt><trkpt lat="43.846727140266744" lon="10.996019166287637"><ele>44.4</ele><time>2026-04-19T09:41:30Z</time></trkpt><trkpt lat="43.84674444702543" lon="10.996145785504226"><ele>43.8</ele><time>2026-04-19T09:41:31Z</time></trkpt><trkpt lat="43.84676125570401" lon="10.996282022770263"><ele>43.2</ele><time>2026-04-19T09:41:32Z</time></trkpt><trkpt lat="43.84678367021942" lon="10.996429063483994"><ele>42.6</ele><time>2026-04-19T09:41:33Z</time></trkpt><trkpt lat="43.84680163004285" lon="10.99655842239506"><ele>42.0</ele><time>2026-04-19T09:41:34Z</time></trkpt><trkpt lat="43.84681241927465" lon="10.996684208458268"><ele>43.166666666666664</ele><time>2026-04-19T09:41:35Z</time></trkpt><trkpt lat="43.84683157134707" lon="10.996810805745625"><ele>44.33333333333333</ele><time>2026-04-19T09:41:36Z</time></trkpt><trkpt lat="43.84685368169119" lon="10.996931288232744"><ele>45.5</ele><time>2026-04-19T09:41:37Z</time></trkpt><trkpt lat="43.84686727374323" lon="10.997039983677507"><ele>46.666666666666664</ele><time>2026-04-19T09:41:38Z</time></trkpt><trkpt lat="43.84687473438178" lon="10.997132660105567"><ele>47.83333333333333</ele><time>2026-04-19T09:41:39Z</time></trkpt><trkpt lat="43.84689519505563" lon="10.997294223168042"><ele>49.0</ele><time>2026-04-19T09:41:41Z</time></trkpt><trkpt lat="43.846890632999106" lon="10.997420859869502"><ele>49.49999999999999</ele><time>2026-04-19T09:41:43Z</time></trkpt><trkpt lat="43.84682613149194" lon="10.997538947006856"><ele>50.0</ele><time>2026-04-19T09:41:45Z</time></trkpt><trkpt lat="43.84676982163852" lon="10.997582335557356"><ele>50.5</ele><time>2026-04-19T09:41:47Z</time></trkpt><trkpt lat="43.84670477218119" lon="10.997630368038337"><ele>51.0</ele><time>2026-04-19T09:41:56Z</time></trkpt><trkpt lat="43.846671412841715" lon="10.997708677624038"><ele>51.49999999999999</ele><time>2026-04-19T09:42:04Z</time></trkpt><trkpt lat="43.84662808131778" lon="10.99778368464335"><ele>52.0</ele><time>2026-04-19T09:43:08Z</time></trkpt><trkpt lat="43.84667253933244" lon="10.997698968363972"><ele>52.0</ele><time>2026-04-19T09:43:54Z</time></trkpt><trkpt lat="43.84672017907623" lon="10.997636861123642"><ele>52.0</ele><time>2026-04-19T09:43:59Z</time></trkpt><trkpt lat="43.846764496690675" lon="10.99755932481337"><ele>52.0</ele><time>2026-04-19T09:44:04Z</time></trkpt><trkpt lat="43.846810900744416" lon="10.99747962057546"><ele>52.0</ele><time>2026-04-19T09:44:10Z</time></trkpt><trkpt lat="43.84684307198274" lon="10.997401418787806"><ele>52.0</ele><time>2026-04-19T09:44:16Z</time></trkpt><trkpt lat="43.84680875759796" lon="10.997476309846098"><ele>52.0</ele><time>2026-04-19T09:44:36Z</time></trkpt><trkpt lat="43.84675454896246" lon="10.99753044794412"><ele>52.0</ele><time>2026-04-19T09:44:42Z</time></trkpt><trkpt lat="43.8467169094637" lon="10.997602481823089"><ele>52.0</ele><time>2026-04-19T09:44:47Z</time></trkpt><trkpt lat="43.84664983144917" lon="10.997653347430628"><ele>52.0</ele><time>2026-04-19T09:44:53Z</time></trkpt><trkpt lat="43.84664638432647" lon="10.997742389080425"><ele>52.0</ele><time>2026-04-19T09:48:17Z</time></trkpt><trkpt lat="43.84671242116313" lon="10.997749594819947"><ele>52.0</ele><time>2026-04-19T09:48:23Z</time></trkpt><trkpt lat="43.846771691929135" lon="10.997671759772377"><ele>52.0</ele><time>2026-04-19T09:48:25Z</time></trkpt><trkpt lat="43.846807678982756" lon="10.997585684855057"><ele>52.0</ele><time>2026-04-19T09:48:27Z</time></trkpt><trkpt lat="43.846855270239075" lon="10.997518905415454"><ele>52.0</ele><time>2026-04-19T09:48:29Z</time></trkpt><trkpt lat="43.84689195401065" lon="10.997434747767091"><ele>51.400000000000006</ele><time>2026-04-19T09:48:31Z</time></trkpt><trkpt lat="43.84690815238024" lon="10.99733302305819"><ele>50.800000000000004</ele><time>2026-04-19T09:48:33Z</time></trkpt><trkpt lat="43.84690051311056" lon="10.997209878164437"><ele>50.2</ele><time>2026-04-19T09:48:35Z</time></trkpt><trkpt lat="43.846885339456875" lon="10.99707915718721"><ele>49.6</ele><time>2026-04-19T09:48:37Z</time></trkpt><trkpt lat="43.846863612053056" lon="10.996928092038438"><ele>49.0</ele><time>2026-04-19T09:48:39Z</time></trkpt><trkpt lat="43.84683872350105" lon="10.996759819479667"><ele>49.0</ele><time>2026-04-19T09:48:41Z</time></trkpt><trkpt lat="43.84682653112948" lon="10.99667194172812"><ele>49.0</ele><time>2026-04-19T09:48:42Z</time></trkpt><trkpt lat="43.84681492517408" lon="10.996581330793315"><ele>49.0</ele><time>2026-04-19T09:48:43Z</time></trkpt><trkpt lat="43.846806286731564" lon="10.996486376240988"><ele>49.0</ele><time>2026-04-19T09:48:44Z</time></trkpt><trkpt lat="43.84679507815773" lon="10.996385730577984"><ele>49.0</ele><time>2026-04-19T09:48:45Z</time></trkpt><trkpt lat="43.84678192894312" lon="10.996281346100238"><ele>49.0</ele><time>2026-04-19T09:48:46Z</time></trkpt><trkpt lat="43.84677109701833" lon="10.99617927700064"><ele>49.0</ele><time>2026-04-19T09:48:47Z</time></trkpt><trkpt lat="43.8467668118665" lon="10.996078488263054"><ele>49.2</ele><time>2026-04-19T09:48:48Z</time></trkpt><trkpt lat="43.84677111970874" lon="10.995975062660282"><ele>49.400000000000006</ele><time>2026-04-19T09:48:49Z</time></trkpt><trkpt lat="43.8467324649107" lon="10.995896269197729"><ele>49.6</ele><time>2026-04-19T09:48:50Z</time></trkpt><trkpt lat="43.846714288063716" lon="10.995776714162984"><ele>49.8</ele><time>2026-04-19T09:48:52Z</time></trkpt><trkpt lat="43.84669563304809" lon="10.995584779646373"><ele>50.0</ele><time>2026-04-19T09:48:54Z</time></trkpt><trkpt lat="43.84668483422674" lon="10.995466476534856"><ele>49.16666666666667</ele><time>2026-04-19T09:48:55Z</time></trkpt><trkpt lat="43.8466673011537" lon="10.995366815700585"><ele>48.333333333333336</ele><time>2026-04-19T09:48:56Z</time></trkpt><trkpt lat="43.84665104353422" lon="10.995230051397373"><ele>47.5</ele><time>2026-04-19T09:48:58Z</time></trkpt><trkpt lat="43.8465728102912" lon="10.995193311353706"><ele>46.66666666666667</ele><time>2026-04-19T09:49:03Z</time></trkpt><trkpt lat="43.84653596700954" lon="10.995302795228225"><ele>45.833333333333336</ele><time>2026-04-19T09:49:55Z</time></trkpt><trkpt lat="43.84649789737743" lon="10.995434656325969"><ele>45.0</ele><time>2026-04-19T09:49:57Z</time></trkpt><trkpt lat="43.84643957676312" lon="10.99558941904865"><ele>45.0</ele><time>2026-04-19T09:49:59Z</time></trkpt><trkpt lat="43.84638449433433" lon="10.995741867185695"><ele>45.0</ele><time>2026-04-19T09:50:01Z</time></trkpt><trkpt lat="43.84633939108114" lon="10.995876232858294"><ele>45.0</ele><time>2026-04-19T09:50:03Z</time></trkpt><trkpt lat="43.84630988463069" lon="10.995955533658549"><ele>45.0</ele><time>2026-04-19T09:50:04Z</time></trkpt><trkpt lat="43.84628149486003" lon="10.996036776649047"><ele>45.0</ele><time>2026-04-19T09:50:05Z</time></trkpt><trkpt lat="43.8462334345075" lon="10.996174552130206"><ele>46.0</ele><time>2026-04-19T09:50:07Z</time></trkpt><trkpt lat="43.84618072692043" lon="10.996312980045987"><ele>47.0</ele><time>2026-04-19T09:50:09Z</time></trkpt><trkpt lat="43.84613888690577" lon="10.996440017065085"><ele>48.0</ele><time>2026-04-19T09:50:11Z</time></trkpt><trkpt lat="43.846102272546105" lon="10.996545110897653"><ele>49.0</ele><time>2026-04-19T09:50:13Z</time></trkpt><trkpt lat="43.84606656448768" lon="10.99661732085227"><ele>50.0</ele><time>2026-04-19T09:50:21Z</time></trkpt><trkpt lat="43.845949637923944" lon="10.996411622683977"><ele>50.00000000000001</ele><time>2026-04-19T09:50:55Z</time></trkpt><trkpt lat="43.845982415884414" lon="10.996296645329695"><ele>50.0</ele><time>2026-04-19T09:50:59Z</time></trkpt><trkpt lat="43.846034020419125" lon="10.996200561132724"><ele>50.0</ele><time>2026-04-19T09:51:02Z</time></trkpt><trkpt lat="43.84599404181882" lon="10.996116002402198"><ele>50.0</ele><time>2026-04-19T09:51:05Z</time></trkpt><trkpt lat="43.84592348540193" lon="10.996087258521923"><ele>50.00000000000001</ele><time>2026-04-19T09:51:08Z</time></trkpt><trkpt lat="43.845902828423505" lon="10.996172445960772"><ele>50.0</ele><time>2026-04-19T09:54:16Z</time></trkpt><trkpt lat="43.845925365774804" lon="10.996263811695528"><ele>50.00000000000001</ele><time>2026-04-19T09:54:22Z</time></trkpt><trkpt lat="43.845927369475156" lon="10.99635627624292"><ele>50.0</ele><time>2026-04-19T09:54:28Z</time></trkpt><trkpt lat="43.845942312114275" lon="10.996453147880617"><ele>50.0</ele><time>2026-04-19T09:54:34Z</time></trkpt><trkpt lat="43.84596323075766" lon="10.996556859823052"><ele>50.0</ele><time>2026-04-19T09:54:41Z</time></trkpt><trkpt lat="43.84602429435549" lon="10.996606724562811"><ele>50.0</ele><time>2026-04-19T09:54:46Z</time></trkpt><trkpt lat="43.846012290686616" lon="10.996702426958517"><ele>50.00000000000001</ele><time>2026-04-19T09:54:55Z</time></trkpt><trkpt lat="43.84599097120476" lon="10.996803644986866"><ele>50.0</ele><time>2026-04-19T09:55:01Z</time></trkpt><trkpt lat="43.84595890582796" lon="10.996885471052265"><ele>51.71428571428572</ele><time>2026-04-19T09:55:07Z</time></trkpt><trkpt lat="43.84593639549963" lon="10.996971396266314"><ele>53.42857142857143</ele><time>2026-04-19T09:55:16Z</time></trkpt><trkpt lat="43.845920457026104" lon="10.99706401323493"><ele>55.142857142857146</ele><time>2026-04-19T09:55:26Z</time></trkpt><trkpt lat="43.84588990122797" lon="10.997144759672825"><ele>56.85714285714286</ele><time>2026-04-19T09:55:33Z</time></trkpt><trkpt lat="43.84583752507728" lon="10.997219667535889"><ele>58.57142857142858</ele><time>2026-04-19T09:55:38Z</time></trkpt><trkpt lat="43.845804030029015" lon="10.99729687314124"><ele>60.28571428571429</ele><time>2026-04-19T09:55:43Z</time></trkpt><trkpt lat="43.84578609080324" lon="10.99738332518742"><ele>62.0</ele><time>2026-04-19T09:55:52Z</time></trkpt><trkpt lat="43.845830034677036" lon="10.997455819534297"><ele>62.0</ele><time>2026-04-19T09:56:02Z</time></trkpt><trkpt lat="43.84579987965142" lon="10.997540676696943"><ele>62.00000000000001</ele><time>2026-04-19T09:56:08Z</time></trkpt><trkpt lat="43.845739671285656" lon="10.997580498035813"><ele>62.0</ele><time>2026-04-19T09:56:16Z</time></trkpt><trkpt lat="43.84570817250177" lon="10.997665219493062"><ele>62.0</ele><time>2026-04-19T09:56:26Z</time></trkpt><trkpt lat="43.845744176931085" lon="10.997586858874131"><ele>62.00000000000001</ele><time>2026-04-19T10:08:06Z</time></trkpt><trkpt lat="43.84577088795611" lon="10.99750034891936"><ele>62.0</ele><time>2026-04-19T10:08:13Z</time></trkpt><trkpt lat="43.84577439577693" lon="10.99740886936205"><ele>62.0</ele><time>2026-04-19T10:08:22Z</time></trkpt><trkpt lat="43.845815447677985" lon="10.997331193715222"><ele>62.00000000000001</ele><time>2026-04-19T10:08:30Z</time></trkpt><trkpt lat="43.84581540691166" lon="10.997225757063461"><ele>62.0</ele><time>2026-04-19T10:08:45Z</time></trkpt><trkpt lat="43.84588910957041" lon="10.997143785788928"><ele>62.0</ele><time>2026-04-19T10:08:57.06Z</time></trkpt><trkpt lat="43.84591956969232" lon="10.997311785996386"><ele>62.0</ele><time>2026-04-19T10:09:03.059Z</time></trkpt><trkpt lat="43.845959894532655" lon="10.99723565117978"><ele>62.00000000000001</ele><time>2026-04-19T10:09:10Z</time></trkpt><trkpt lat="43.845949259340216" lon="10.997130480438981"><ele>62.0</ele><time>2026-04-19T10:09:25Z</time></trkpt><trkpt lat="43.846018906048045" lon="10.997087059285283"><ele>62.00000000000001</ele><time>2026-04-19T10:09:30Z</time></trkpt><trkpt lat="43.84607895739093" lon="10.997049410092155"><ele>62.0</ele><time>2026-04-19T10:09:39Z</time></trkpt><trkpt lat="43.846033818970646" lon="10.997136188399208"><ele>62.0</ele><time>2026-04-19T10:09:51Z</time></trkpt><trkpt lat="43.84598711534555" lon="10.997203706329948"><ele>62.0</ele><time>2026-04-19T10:09:53Z</time></trkpt><trkpt lat="43.8460132236509" lon="10.997320350459828"><ele>62.00000000000001</ele><time>2026-04-19T10:10:03Z</time></trkpt><trkpt lat="43.84593511765383" lon="10.997400000963529"><ele>62.0</ele><time>2026-04-19T10:10:18Z</time></trkpt><trkpt lat="43.84595887775472" lon="10.997313318146658"><ele>62.0</ele><time>2026-04-19T10:10:42Z</time></trkpt><trkpt lat="43.84589689524813" lon="10.997368474736504"><ele>62.00000000000001</ele><time>2026-04-19T10:11:12Z</time></trkpt><trkpt lat="43.84593340286657" lon="10.997268142441314"><ele>62.0</ele><time>2026-04-19T10:11:47Z</time></trkpt><trkpt lat="43.845995469417886" lon="10.997222570862021"><ele>62.0</ele><time>2026-04-19T10:12:07Z</time></trkpt><trkpt lat="43.846025735816134" lon="10.997135209176058"><ele>62.00000000000001</ele><time>2026-04-19T10:12:23.064Z</time></trkpt><trkpt lat="43.84597091978359" lon="10.997083508283456"><ele>62.0</ele><time>2026-04-19T10:12:27Z</time></trkpt><trkpt lat="43.845920618542216" lon="10.997011696412013"><ele>62.0</ele><time>2026-04-19T10:12:31Z</time></trkpt><trkpt lat="43.84587553405885" lon="10.996936567643605"><ele>62.00000000000001</ele><time>2026-04-19T10:12:40Z</time></trkpt><trkpt lat="43.84589682995847" lon="10.99685289542519"><ele>62.0</ele><time>2026-04-19T10:12:44Z</time></trkpt><trkpt lat="43.845946947369804" lon="10.996946446064833"><ele>62.0</ele><time>2026-04-19T10:12:47Z</time></trkpt><trkpt lat="43.84590326673713" lon="10.997090595827945"><ele>62.0</ele><time>2026-04-19T10:12:52Z</time></trkpt><trkpt lat="43.84587726949505" lon="10.997200942459893"><ele>62.00000000000001</ele><time>2026-04-19T10:12:54Z</time></trkpt><trkpt lat="43.84594376831297" lon="10.99723309906426"><ele>62.0</ele><time>2026-04-19T10:12:57Z</time></trkpt><trkpt lat="43.84595126901747" lon="10.997320085755069"><ele>62.00000000000001</ele><time>2026-04-19T10:13:00Z</time></trkpt><trkpt lat="43.84587674724331" lon="10.997451090737156"><ele>62.0</ele><time>2026-04-19T10:14:59Z</time></trkpt><trkpt lat="43.84590163996491" lon="10.997369993489913"><ele>62.0</ele><time>2026-04-19T10:16:44Z</time></trkpt><trkpt lat="43.84598184767944" lon="10.997285430424695"><ele>62.0</ele><time>2026-04-19T10:16:52Z</time></trkpt><trkpt lat="43.845991009191366" lon="10.997178680455265"><ele>62.00000000000001</ele><time>2026-04-19T10:18:11.999Z</time></trkpt><trkpt lat="43.84605047586721" lon="10.99723066701416"><ele>62.0</ele><time>2026-04-19T10:19:20Z</time></trkpt><trkpt lat="43.8459869715572" lon="10.997299337761033"><ele>62.00000000000001</ele><time>2026-04-19T10:19:39Z</time></trkpt><trkpt lat="43.84591957621495" lon="10.997361957321164"><ele>62.0</ele><time>2026-04-19T10:20:09Z</time></trkpt><trkpt lat="43.846035989241294" lon="10.99735755716751"><ele>62.0</ele><time>2026-04-19T12:43:27Z</time></trkpt><trkpt lat="43.845936287006076" lon="10.997366887703182"><ele>62.0</ele><time>2026-04-19T12:52:58Z</time></trkpt><trkpt lat="43.8460016991416" lon="10.997331094224755"><ele>62.00000000000001</ele><time>2026-04-19T12:53:31Z</time></trkpt><trkpt lat="43.84593876790844" lon="10.997355048518099"><ele>62.0</ele><time>2026-04-19T12:56:21Z</time></trkpt><trkpt lat="43.845908537776225" lon="10.997507132928417"><ele>62.00000000000001</ele><time>2026-04-19T12:57:15Z</time></trkpt><trkpt lat="43.84591009912201" lon="10.997695950996627"><ele>62.0</ele><time>2026-04-19T12:57:44Z</time></trkpt><trkpt lat="43.84596005102294" lon="10.997572623136334"><ele>62.0</ele><time>2026-04-19T12:58:14Z</time></trkpt><trkpt lat="43.845949055690696" lon="10.997477009555906"><ele>62.0</ele><time>2026-04-19T12:58:34.001Z</time></trkpt><trkpt lat="43.84589787877177" lon="10.997413779800086"><ele>62.00000000000001</ele><time>2026-04-19T12:58:39.001Z</time></trkpt><trkpt lat="43.8459271272719" lon="10.997330544752092"><ele>62.0</ele><time>2026-04-19T13:00:32Z</time></trkpt><trkpt lat="43.84600635064963" lon="10.997262897183068"><ele>62.0</ele><time>2026-04-19T13:00:44.069Z</time></trkpt><trkpt lat="43.84603783227078" lon="10.997178957898587"><ele>62.0</ele><time>2026-04-19T13:00:47.064Z</time></trkpt><trkpt lat="43.845901849566076" lon="10.997126539419105"><ele>62.0</ele><time>2026-04-19T13:02:09.017Z</time></trkpt><trkpt lat="43.8459422557389" lon="10.997404872697695"><ele>62.0</ele><time>2026-04-19T13:10:16.001Z</time></trkpt><trkpt lat="43.845903846104555" lon="10.99732571634164"><ele>62.0</ele><time>2026-04-19T13:10:17.001Z</time></trkpt><trkpt lat="43.846021125667214" lon="10.997307718322988"><ele>62.0</ele><time>2026-04-19T13:37:33Z</time></trkpt><trkpt lat="43.84596779337257" lon="10.997260355627223"><ele>62.0</ele><time>2026-04-19T13:38:04Z</time></trkpt><trkpt lat="43.84575197080628" lon="10.997082289378032"><ele>62.0</ele><time>2026-04-19T13:39:23.803Z</time></trkpt><trkpt lat="43.84604371685908" lon="10.997459179043636"><ele>62.0</ele><time>2026-04-19T13:40:28.011Z</time></trkpt><trkpt lat="43.84598714243877" lon="10.997418284009978"><ele>62.00000000000001</ele><time>2026-04-19T13:40:30.011Z</time></trkpt><trkpt lat="43.8459311480721" lon="10.997365380876303"><ele>62.0</ele><time>2026-04-19T13:40:31.012Z</time></trkpt><trkpt lat="43.84586069086056" lon="10.997382181758914"><ele>62.0</ele><time>2026-04-19T13:40:37Z</time></trkpt><trkpt lat="43.84581836322211" lon="10.997449023104435"><ele>62.00000000000001</ele><time>2026-04-19T13:40:42Z</time></trkpt><trkpt lat="43.845813107809406" lon="10.997545928928322"><ele>62.0</ele><time>2026-04-19T13:40:54Z</time></trkpt><trkpt lat="43.84577122575207" lon="10.997616662037329"><ele>62.0</ele><time>2026-04-19T13:41:05Z</time></trkpt><trkpt lat="43.84573549213777" lon="10.997692107940878"><ele>61.0</ele><time>2026-04-19T13:41:17Z</time></trkpt><trkpt lat="43.84566973907964" lon="10.997744251313806"><ele>60.00000000000001</ele><time>2026-04-19T13:41:41Z</time></trkpt><trkpt lat="43.84561703531206" lon="10.997692931837152"><ele>59.0</ele><time>2026-04-19T13:41:50Z</time></trkpt><trkpt lat="43.8455342594995" lon="10.997626164691333"><ele>58.0</ele><time>2026-04-19T13:42:34Z</time></trkpt><trkpt lat="43.845560294186754" lon="10.997540610253072"><ele>57.0</ele><time>2026-04-19T13:43:05Z</time></trkpt><trkpt lat="43.845615956542474" lon="10.997598951501763"><ele>56.0</ele><time>2026-04-19T13:43:14Z</time></trkpt><trkpt lat="43.84566611968853" lon="10.997542841209565"><ele>55.0</ele><time>2026-04-19T13:43:22Z</time></trkpt><trkpt lat="43.845736792021086" lon="10.997568430958923"><ele>54.99999999999999</ele><time>2026-04-19T13:43:42Z</time></trkpt><trkpt lat="43.84580566154934" lon="10.997578670894972"><ele>55.0</ele><time>2026-04-19T13:43:50Z</time></trkpt><trkpt lat="43.8458757061061" lon="10.997550992182108"><ele>55.0</ele><time>2026-04-19T13:43:58Z</time></trkpt><trkpt lat="43.845946028506425" lon="10.99753476723271"><ele>55.0</ele><time>2026-04-19T13:44:05Z</time></trkpt><trkpt lat="43.84601077640072" lon="10.997500672464584"><ele>55.0</ele><time>2026-04-19T13:44:19Z</time></trkpt><trkpt lat="43.8460786104564" lon="10.99748640270792"><ele>54.99999999999999</ele><time>2026-04-19T13:44:29Z</time></trkpt><trkpt lat="43.84614203893427" lon="10.997488332319366"><ele>55.0</ele><time>2026-04-19T13:44:37Z</time></trkpt><trkpt lat="43.84619842551982" lon="10.997448964742938"><ele>55.166666666666664</ele><time>2026-04-19T13:44:46Z</time></trkpt><trkpt lat="43.846247913156624" lon="10.997377694703813"><ele>55.33333333333333</ele><time>2026-04-19T13:44:55Z</time></trkpt><trkpt lat="43.846278575461426" lon="10.997291412741106"><ele>55.5</ele><time>2026-04-19T13:45:05Z</time></trkpt><trkpt lat="43.84619584373322" lon="10.997296148148331"><ele>55.66666666666667</ele><time>2026-04-19T13:45:47Z</time></trkpt><trkpt lat="43.846273308498475" lon="10.997256475955954"><ele>55.833333333333336</ele><time>2026-04-19T13:50:24Z</time></trkpt><trkpt lat="43.846178211064235" lon="10.997262892981677"><ele>56.0</ele><time>2026-04-19T15:07:08Z</time></trkpt><trkpt lat="43.84611573760287" lon="10.99724340033363"><ele>56.0</ele><time>2026-04-19T15:07:13Z</time></trkpt><trkpt lat="43.84605368701037" lon="10.99727329061759"><ele>56.0</ele><time>2026-04-19T15:07:22Z</time></trkpt><trkpt lat="43.84600214058426" lon="10.997328065321298"><ele>56.0</ele><time>2026-04-19T15:07:29Z</time></trkpt><trkpt lat="43.84596331856115" lon="10.99740758336012"><ele>56.0</ele><time>2026-04-19T15:07:38Z</time></trkpt><trkpt lat="43.84592253688601" lon="10.997489363671669"><ele>56.0</ele><time>2026-04-19T15:07:47Z</time></trkpt><trkpt lat="43.84585547284899" lon="10.997458689372284"><ele>56.0</ele><time>2026-04-19T15:07:57Z</time></trkpt><trkpt lat="43.845813876779886" lon="10.997392651837169"><ele>56.0</ele><time>2026-04-19T15:08:09Z</time></trkpt><trkpt lat="43.84585574025105" lon="10.997318591867005"><ele>56.00000000000001</ele><time>2026-04-19T15:08:16Z</time></trkpt><trkpt lat="43.84594554996366" lon="10.997296711956198"><ele>56.0</ele><time>2026-04-19T15:08:34Z</time></trkpt><trkpt lat="43.84601462284468" lon="10.997315607674798"><ele>56.0</ele><time>2026-04-19T15:08:37Z</time></trkpt><trkpt lat="43.84596525216939" lon="10.99737439000512"><ele>56.0</ele><time>2026-04-19T15:08:59Z</time></trkpt><trkpt lat="43.84603739697602" lon="10.997202963719003"><ele>56.00000000000001</ele><time>2026-04-19T15:09:07Z</time></trkpt><trkpt lat="43.845970185649655" lon="10.997251989378846"><ele>56.0</ele><time>2026-04-19T15:09:11Z</time></trkpt><trkpt lat="43.84590736620733" lon="10.99731354052829"><ele>56.0</ele><time>2026-04-19T15:09:14Z</time></trkpt><trkpt lat="43.845946086812724" lon="10.99712272379633"><ele>56.0</ele><time>2026-04-19T16:52:07.104Z</time></trkpt><trkpt lat="43.84615666116919" lon="10.996674999512738"><ele>56.0</ele><time>2026-04-19T16:52:11Z</time></trkpt><trkpt lat="43.846018879334856" lon="10.996832022356276"><ele>55.99999999999999</ele><time>2026-04-19T16:52:13Z</time></trkpt><trkpt lat="43.846049291872525" lon="10.996734757984294"><ele>55.99999999999999</ele><time>2026-04-19T16:52:28Z</time></trkpt><trkpt lat="43.846065995155314" lon="10.996650180889247"><ele>56.0</ele><time>2026-04-19T16:52:35Z</time></trkpt><trkpt lat="43.846004612953664" lon="10.996595364685245"><ele>56.0</ele><time>2026-04-19T16:52:41Z</time></trkpt><trkpt lat="43.845960837368274" lon="10.996515938528328"><ele>56.57142857142857</ele><time>2026-04-19T16:52:45Z</time></trkpt><trkpt lat="43.845947530997165" lon="10.996415886987833"><ele>57.14285714285714</ele><time>2026-04-19T16:52:51Z</time></trkpt><trkpt lat="43.84593268077025" lon="10.996317754951622"><ele>57.714285714285715</ele><time>2026-04-19T16:52:57Z</time></trkpt><trkpt lat="43.84592756521233" lon="10.996226140650826"><ele>58.285714285714285</ele><time>2026-04-19T16:53:02Z</time></trkpt><trkpt lat="43.84591820271433" lon="10.996133230913696"><ele>58.857142857142854</ele><time>2026-04-19T16:53:07Z</time></trkpt><trkpt lat="43.8459253338998" lon="10.996230620749424"><ele>59.42857142857143</ele><time>2026-04-19T16:56:02Z</time></trkpt><trkpt lat="43.84594924807972" lon="10.99635955093902"><ele>60.0</ele><time>2026-04-19T16:56:04Z</time></trkpt><trkpt lat="43.84594596608444" lon="10.996474501991306"><ele>58.0</ele><time>2026-04-19T16:56:06Z</time></trkpt><trkpt lat="43.84598698881873" lon="10.996589894342284"><ele>56.0</ele><time>2026-04-19T16:56:09Z</time></trkpt><trkpt lat="43.84605042226142" lon="10.996644231068956"><ele>54.0</ele><time>2026-04-19T16:56:12Z</time></trkpt><trkpt lat="43.846117363486215" lon="10.996591947303694"><ele>52.0</ele><time>2026-04-19T16:56:15Z</time></trkpt><trkpt lat="43.846177387652986" lon="10.996444106279247"><ele>50.0</ele><time>2026-04-19T16:56:17Z</time></trkpt><trkpt lat="43.846208448397505" lon="10.996311821910519"><ele>50.0</ele><time>2026-04-19T16:56:19Z</time></trkpt><trkpt lat="43.84625122806821" lon="10.99619989976768"><ele>50.0</ele><time>2026-04-19T16:56:21Z</time></trkpt><trkpt lat="43.84628844021579" lon="10.99609017451148"><ele>50.0</ele><time>2026-04-19T16:56:22Z</time></trkpt><trkpt lat="43.846334130565786" lon="10.99596259036433"><ele>50.0</ele><time>2026-04-19T16:56:24Z</time></trkpt><trkpt lat="43.846367238288146" lon="10.995827382611525"><ele>50.0</ele><time>2026-04-19T16:56:26Z</time></trkpt><trkpt lat="43.8464188240544" lon="10.995685675329495"><ele>49.16666666666667</ele><time>2026-04-19T16:56:28Z</time></trkpt><trkpt lat="43.846463910554064" lon="10.99556138707776"><ele>48.333333333333336</ele><time>2026-04-19T16:56:30Z</time></trkpt><trkpt lat="43.846498223461346" lon="10.995468730266737"><ele>47.5</ele><time>2026-04-19T16:56:32Z</time></trkpt><trkpt lat="43.84652491613462" lon="10.995375850686504"><ele>46.66666666666667</ele><time>2026-04-19T16:56:34Z</time></trkpt><trkpt lat="43.84656320808397" lon="10.995270697739205"><ele>45.833333333333336</ele><time>2026-04-19T16:56:37Z</time></trkpt><trkpt lat="43.84660589922119" lon="10.99518687500416"><ele>45.0</ele><time>2026-04-19T16:56:40Z</time></trkpt><trkpt lat="43.84659482502907" lon="10.995098319119982"><ele>45.0</ele><time>2026-04-19T16:56:49Z</time></trkpt><trkpt lat="43.84665921266452" lon="10.995119016787019"><ele>45.0</ele><time>2026-04-19T17:05:57Z</time></trkpt><trkpt lat="43.84660284308913" lon="10.995074373335045"><ele>45.0</ele><time>2026-04-19T17:11:17Z</time></trkpt><trkpt lat="43.84670216109124" lon="10.994953797141012"><ele>45.0</ele><time>2026-04-19T17:13:25Z</time></trkpt><trkpt lat="43.84674443664405" lon="10.994858099861428"><ele>45.0</ele><time>2026-04-19T17:13:26Z</time></trkpt><trkpt lat="43.84679023515393" lon="10.994729884819538"><ele>45.0</ele><time>2026-04-19T17:13:27Z</time></trkpt><trkpt lat="43.84684375982003" lon="10.9945772667121"><ele>43.75</ele><time>2026-04-19T17:13:28Z</time></trkpt><trkpt lat="43.84689961951488" lon="10.994420712397815"><ele>42.5</ele><time>2026-04-19T17:13:29Z</time></trkpt><trkpt lat="43.84695451074022" lon="10.994267335275996"><ele>41.25</ele><time>2026-04-19T17:13:30Z</time></trkpt><trkpt lat="43.84701946393014" lon="10.99409331557869"><ele>40.0</ele><time>2026-04-19T17:13:31Z</time></trkpt><trkpt lat="43.84709220395323" lon="10.993895195222292"><ele>39.75</ele><time>2026-04-19T17:13:32Z</time></trkpt><trkpt lat="43.8471583902441" lon="10.993706571324381"><ele>39.5</ele><time>2026-04-19T17:13:33Z</time></trkpt><trkpt lat="43.8472151589793" lon="10.993547129583899"><ele>39.25</ele><time>2026-04-19T17:13:34Z</time></trkpt><trkpt lat="43.84727490567301" lon="10.993383602065466"><ele>39.0</ele><time>2026-04-19T17:13:35Z</time></trkpt><trkpt lat="43.84733646867125" lon="10.99321994931638"><ele>39.4</ele><time>2026-04-19T17:13:36Z</time></trkpt><trkpt lat="43.84739015521222" lon="10.9930743765282"><ele>39.8</ele><time>2026-04-19T17:13:37Z</time></trkpt><trkpt lat="43.847437966033624" lon="10.992946622530011"><ele>40.199999999999996</ele><time>2026-04-19T17:13:38Z</time></trkpt><trkpt lat="43.847479804852924" lon="10.99282881324242"><ele>40.599999999999994</ele><time>2026-04-19T17:13:39Z</time></trkpt><trkpt lat="43.84751237295117" lon="10.992709897454056"><ele>41.0</ele><time>2026-04-19T17:13:40Z</time></trkpt><trkpt lat="43.84752931980354" lon="10.992574228693572"><ele>41.5</ele><time>2026-04-19T17:13:41Z</time></trkpt><trkpt lat="43.84752987971636" lon="10.992399482999254"><ele>42.0</ele><time>2026-04-19T17:13:42Z</time></trkpt><trkpt lat="43.847521893274916" lon="10.992195163326507"><ele>42.5</ele><time>2026-04-19T17:13:43Z</time></trkpt><trkpt lat="43.84750997901979" lon="10.991985652503914"><ele>43.0</ele><time>2026-04-19T17:13:44Z</time></trkpt><trkpt lat="43.84749484288286" lon="10.99178895890067"><ele>42.75</ele><time>2026-04-19T17:13:45Z</time></trkpt><trkpt lat="43.84748114254487" lon="10.991613649456951"><ele>42.5</ele><time>2026-04-19T17:13:46Z</time></trkpt><trkpt lat="43.847466735173704" lon="10.991452503831386"><ele>42.25</ele><time>2026-04-19T17:13:47Z</time></trkpt><trkpt lat="43.847453332353865" lon="10.991306388177382"><ele>42.0</ele><time>2026-04-19T17:13:48Z</time></trkpt><trkpt lat="43.847442217408336" lon="10.991169472161632"><ele>42.0</ele><time>2026-04-19T17:13:49Z</time></trkpt><trkpt lat="43.847434430160774" lon="10.991052840471307"><ele>42.0</ele><time>2026-04-19T17:13:50Z</time></trkpt><trkpt lat="43.84742233282324" lon="10.990950094627744"><ele>42.0</ele><time>2026-04-19T17:13:51Z</time></trkpt><trkpt lat="43.84736268075733" lon="10.990807805925924"><ele>42.0</ele><time>2026-04-19T17:13:53Z</time></trkpt><trkpt lat="43.84730188839873" lon="10.990750667240688"><ele>42.0</ele><time>2026-04-19T17:13:54Z</time></trkpt><trkpt lat="43.84721516058901" lon="10.990723404194345"><ele>42.0</ele><time>2026-04-19T17:13:55Z</time></trkpt><trkpt lat="43.84712230974981" lon="10.990726106065694"><ele>42.400000000000006</ele><time>2026-04-19T17:13:56Z</time></trkpt><trkpt lat="43.84702692169053" lon="10.990748873249743"><ele>42.800000000000004</ele><time>2026-04-19T17:13:57Z</time></trkpt><trkpt lat="43.846948194234" lon="10.990754908765084"><ele>43.2</ele><time>2026-04-19T17:13:58Z</time></trkpt><trkpt lat="43.84687364076286" lon="10.990716694294887"><ele>43.6</ele><time>2026-04-19T17:13:59Z</time></trkpt><trkpt lat="43.84678813999231" lon="10.990627173721961"><ele>44.0</ele><time>2026-04-19T17:14:00Z</time></trkpt><trkpt lat="43.8466864386399" lon="10.990512952539193"><ele>45.0</ele><time>2026-04-19T17:14:01Z</time></trkpt><trkpt lat="43.84658032174851" lon="10.990401182046085"><ele>46.0</ele><time>2026-04-19T17:14:02Z</time></trkpt><trkpt lat="43.84647664151956" lon="10.990307786158645"><ele>47.0</ele><time>2026-04-19T17:14:03Z</time></trkpt><trkpt lat="43.84639068660402" lon="10.990198591395526"><ele>48.0</ele><time>2026-04-19T17:14:04Z</time></trkpt><trkpt lat="43.84628958484509" lon="10.99012387173523"><ele>48.0</ele><time>2026-04-19T17:14:05Z</time></trkpt><trkpt lat="43.8461855136328" lon="10.99000804570434"><ele>48.0</ele><time>2026-04-19T17:14:06Z</time></trkpt><trkpt lat="43.8460638439589" lon="10.989881893311344"><ele>48.0</ele><time>2026-04-19T17:14:07Z</time></trkpt><trkpt lat="43.845936421104646" lon="10.989764491442559"><ele>48.0</ele><time>2026-04-19T17:14:08Z</time></trkpt><trkpt lat="43.8458092212922" lon="10.989656514279234"><ele>48.0</ele><time>2026-04-19T17:14:09Z</time></trkpt><trkpt lat="43.84566765426572" lon="10.98954449840459"><ele>48.0</ele><time>2026-04-19T17:14:10Z</time></trkpt><trkpt lat="43.84550695271101" lon="10.989421864035746"><ele>48.0</ele><time>2026-04-19T17:14:11Z</time></trkpt><trkpt lat="43.845336782419025" lon="10.989284995105493"><ele>47.666666666666664</ele><time>2026-04-19T17:14:12Z</time></trkpt><trkpt lat="43.845168906706604" lon="10.989140265368656"><ele>47.33333333333333</ele><time>2026-04-19T17:14:13Z</time></trkpt><trkpt lat="43.84502378981942" lon="10.98901047048105"><ele>47.0</ele><time>2026-04-19T17:14:14Z</time></trkpt><trkpt lat="43.84488898595747" lon="10.988888324935845"><ele>47.0</ele><time>2026-04-19T17:14:15Z</time></trkpt><trkpt lat="43.844757142627515" lon="10.988765731055318"><ele>47.0</ele><time>2026-04-19T17:14:16Z</time></trkpt><trkpt lat="43.84462405000963" lon="10.988643045548079"><ele>47.0</ele><time>2026-04-19T17:14:17Z</time></trkpt><trkpt lat="43.84448420461551" lon="10.988514599416915"><ele>47.0</ele><time>2026-04-19T17:14:18Z</time></trkpt><trkpt lat="43.84434691213845" lon="10.988386757047232"><ele>47.0</ele><time>2026-04-19T17:14:19Z</time></trkpt><trkpt lat="43.84421917310678" lon="10.98826666518207"><ele>47.0</ele><time>2026-04-19T17:14:20Z</time></trkpt><trkpt lat="43.84410960851941" lon="10.988158986539183"><ele>47.6</ele><time>2026-04-19T17:14:21Z</time></trkpt><trkpt lat="43.8440146915036" lon="10.988050894947904"><ele>48.2</ele><time>2026-04-19T17:14:22Z</time></trkpt><trkpt lat="43.84393220961805" lon="10.987918293161595"><ele>48.8</ele><time>2026-04-19T17:14:23Z</time></trkpt><trkpt lat="43.84385754719034" lon="10.987814331371164"><ele>49.4</ele><time>2026-04-19T17:14:24Z</time></trkpt><trkpt lat="43.84379186952223" lon="10.987721826989064"><ele>50.0</ele><time>2026-04-19T17:14:25Z</time></trkpt><trkpt lat="43.84374506178266" lon="10.987645617488164"><ele>50.00000000000001</ele><time>2026-04-19T17:14:26Z</time></trkpt><trkpt lat="43.84370913860128" lon="10.987569264781161"><ele>50.0</ele><time>2026-04-19T17:14:27Z</time></trkpt><trkpt lat="43.8436759436203" lon="10.987476604569883"><ele>50.0</ele><time>2026-04-19T17:14:28Z</time></trkpt><trkpt lat="43.84365665524801" lon="10.987373505257493"><ele>50.0</ele><time>2026-04-19T17:14:29Z</time></trkpt><trkpt lat="43.84364837553292" lon="10.987259060508295"><ele>50.00000000000001</ele><time>2026-04-19T17:14:30Z</time></trkpt><trkpt lat="43.84366151904033" lon="10.987135736690474"><ele>50.0</ele><time>2026-04-19T17:14:31Z</time></trkpt><trkpt lat="43.84368819227588" lon="10.987020588171529"><ele>50.2</ele><time>2026-04-19T17:14:32Z</time></trkpt><trkpt lat="43.84372210822189" lon="10.986916373300822"><ele>50.4</ele><time>2026-04-19T17:14:33Z</time></trkpt><trkpt lat="43.843760720286305" lon="10.986822165077305"><ele>50.599999999999994</ele><time>2026-04-19T17:14:34Z</time></trkpt><trkpt lat="43.84381152871719" lon="10.986724084203278"><ele>50.8</ele><time>2026-04-19T17:14:35Z</time></trkpt><trkpt lat="43.843881625799874" lon="10.986625531961488"><ele>51.0</ele><time>2026-04-19T17:14:36Z</time></trkpt><trkpt lat="43.84397384913507" lon="10.98653449421269"><ele>51.0</ele><time>2026-04-19T17:14:37Z</time></trkpt><trkpt lat="43.84408264250347" lon="10.986440993742082"><ele>51.0</ele><time>2026-04-19T17:14:38Z</time></trkpt><trkpt lat="43.84419149018096" lon="10.98634961148805"><ele>51.0</ele><time>2026-04-19T17:14:39Z</time></trkpt><trkpt lat="43.84428109688597" lon="10.986272279661605"><ele>51.0</ele><time>2026-04-19T17:14:40Z</time></trkpt><trkpt lat="43.84436872967414" lon="10.986199897396615"><ele>50.4</ele><time>2026-04-19T17:14:41Z</time></trkpt><trkpt lat="43.84446415396394" lon="10.986125788610396"><ele>49.8</ele><time>2026-04-19T17:14:42Z</time></trkpt><trkpt lat="43.84456249508779" lon="10.98605189978203"><ele>49.199999999999996</ele><time>2026-04-19T17:14:43Z</time></trkpt><trkpt lat="43.844665152392444" lon="10.985972674532698"><ele>48.599999999999994</ele><time>2026-04-19T17:14:44Z</time></trkpt><trkpt lat="43.844754077686915" lon="10.98590310616251"><ele>48.0</ele><time>2026-04-19T17:14:45Z</time></trkpt><trkpt lat="43.844840377118395" lon="10.985838828570387"><ele>48.0</ele><time>2026-04-19T17:14:46Z</time></trkpt><trkpt lat="43.844923158540496" lon="10.98578213316297"><ele>48.0</ele><time>2026-04-19T17:14:47Z</time></trkpt><trkpt lat="43.844983680049715" lon="10.9857366099766"><ele>48.0</ele><time>2026-04-19T17:14:48Z</time></trkpt><trkpt lat="43.84506570804224" lon="10.985698873590065"><ele>48.0</ele><time>2026-04-19T17:14:50Z</time></trkpt><trkpt lat="43.845161623383305" lon="10.985731743273293"><ele>48.0</ele><time>2026-04-19T17:14:52Z</time></trkpt><trkpt lat="43.84524315391849" lon="10.985792018641146"><ele>48.0</ele><time>2026-04-19T17:14:54Z</time></trkpt><trkpt lat="43.84531113634784" lon="10.985845083492963"><ele>47.75</ele><time>2026-04-19T17:16:17.998Z</time></trkpt><trkpt lat="43.84544171521909" lon="10.985937233626073"><ele>47.5</ele><time>2026-04-19T17:16:19.998Z</time></trkpt><trkpt lat="43.84554823681753" lon="10.986016930048015"><ele>47.25</ele><time>2026-04-19T17:16:20.998Z</time></trkpt><trkpt lat="43.84566676813083" lon="10.986105847965305"><ele>47.0</ele><time>2026-04-19T17:16:21.998Z</time></trkpt><trkpt lat="43.84577920457678" lon="10.986190241690249"><ele>47.0</ele><time>2026-04-19T17:16:22.998Z</time></trkpt><trkpt lat="43.845902782585526" lon="10.98628182671086"><ele>47.0</ele><time>2026-04-19T17:16:23.998Z</time></trkpt><trkpt lat="43.846022793773436" lon="10.986374928893017"><ele>47.0</ele><time>2026-04-19T17:16:24.998Z</time></trkpt><trkpt lat="43.846140833507306" lon="10.986468703687136"><ele>47.0</ele><time>2026-04-19T17:16:25.998Z</time></trkpt><trkpt lat="43.84626074184092" lon="10.986566038093326"><ele>45.666666666666664</ele><time>2026-04-19T17:16:26.998Z</time></trkpt><trkpt lat="43.84638347827907" lon="10.98666135636996"><ele>44.333333333333336</ele><time>2026-04-19T17:16:27.998Z</time></trkpt><trkpt lat="43.84651623709152" lon="10.986765759351359"><ele>43.0</ele><time>2026-04-19T17:16:28.998Z</time></trkpt><trkpt lat="43.846660220507886" lon="10.986877910815618"><ele>43.333333333333336</ele><time>2026-04-19T17:16:29.998Z</time></trkpt><trkpt lat="43.84680145385791" lon="10.986987732074278"><ele>43.666666666666664</ele><time>2026-04-19T17:16:30.998Z</time></trkpt><trkpt lat="43.84694469961001" lon="10.98709985399026"><ele>44.0</ele><time>2026-04-19T17:16:31.998Z</time></trkpt><trkpt lat="43.84709386197335" lon="10.987215779558515"><ele>44.0</ele><time>2026-04-19T17:16:32.998Z</time></trkpt><trkpt lat="43.847252265388" lon="10.98733704027094"><ele>44.0</ele><time>2026-04-19T17:16:33.998Z</time></trkpt><trkpt lat="43.847404546375586" lon="10.98745221210691"><ele>44.0</ele><time>2026-04-19T17:16:34.998Z</time></trkpt><trkpt lat="43.847548803532504" lon="10.987562657973513"><ele>43.666666666666664</ele><time>2026-04-19T17:16:35.998Z</time></trkpt><trkpt lat="43.84768605902123" lon="10.98767017597992"><ele>43.333333333333336</ele><time>2026-04-19T17:16:36.998Z</time></trkpt><trkpt lat="43.84781816098022" lon="10.987774473965917"><ele>43.0</ele><time>2026-04-19T17:16:37.998Z</time></trkpt><trkpt lat="43.847949774448104" lon="10.98787972084803"><ele>43.0</ele><time>2026-04-19T17:16:38.998Z</time></trkpt><trkpt lat="43.84808871973499" lon="10.98799033556602"><ele>43.0</ele><time>2026-04-19T17:16:39.998Z</time></trkpt><trkpt lat="43.84823228152168" lon="10.98810393454811"><ele>43.0</ele><time>2026-04-19T17:16:40.998Z</time></trkpt><trkpt lat="43.84836872530796" lon="10.988208394141562"><ele>43.333333333333336</ele><time>2026-04-19T17:16:41.998Z</time></trkpt><trkpt lat="43.84849598654445" lon="10.988307861752059"><ele>43.666666666666664</ele><time>2026-04-19T17:16:42.998Z</time></trkpt><trkpt lat="43.848621565465244" lon="10.988413881357316"><ele>44.0</ele><time>2026-04-19T17:16:43.998Z</time></trkpt><trkpt lat="43.84875801469804" lon="10.988521063599437"><ele>43.33333333333333</ele><time>2026-04-19T17:16:44.998Z</time></trkpt><trkpt lat="43.84889479165861" lon="10.98862377490534"><ele>42.666666666666664</ele><time>2026-04-19T17:16:45.998Z</time></trkpt><trkpt lat="43.849031149514" lon="10.988727733820545"><ele>42.0</ele><time>2026-04-19T17:16:46.998Z</time></trkpt><trkpt lat="43.84916264834585" lon="10.988831164352442"><ele>42.333333333333336</ele><time>2026-04-19T17:16:47.998Z</time></trkpt><trkpt lat="43.84930151646772" lon="10.988940341528394"><ele>42.66666666666667</ele><time>2026-04-19T17:16:48.998Z</time></trkpt><trkpt lat="43.84943683373362" lon="10.98904416156961"><ele>43.0</ele><time>2026-04-19T17:16:49.998Z</time></trkpt><trkpt lat="43.84957054587769" lon="10.989146512782428"><ele>42.5</ele><time>2026-04-19T17:16:50.998Z</time></trkpt><trkpt lat="43.849702597514316" lon="10.989248802124235"><ele>42.0</ele><time>2026-04-19T17:16:51.998Z</time></trkpt><trkpt lat="43.849833220298734" lon="10.989350841783114"><ele>41.5</ele><time>2026-04-19T17:16:52.998Z</time></trkpt><trkpt lat="43.849960968667055" lon="10.989451711638104"><ele>41.0</ele><time>2026-04-19T17:16:53.998Z</time></trkpt><trkpt lat="43.85008259229757" lon="10.989547629345402"><ele>41.25</ele><time>2026-04-19T17:16:54.998Z</time></trkpt><trkpt lat="43.850201348552055" lon="10.9896405563277"><ele>41.5</ele><time>2026-04-19T17:16:55.998Z</time></trkpt><trkpt lat="43.850317774502855" lon="10.989730806481957"><ele>41.75</ele><time>2026-04-19T17:16:56.998Z</time></trkpt><trkpt lat="43.85042986986232" lon="10.989820042072893"><ele>42.0</ele><time>2026-04-19T17:16:57.998Z</time></trkpt><trkpt lat="43.85054802863287" lon="10.989913802432287"><ele>42.0</ele><time>2026-04-19T17:16:58.998Z</time></trkpt><trkpt lat="43.85067992167826" lon="10.99001543353143"><ele>42.0</ele><time>2026-04-19T17:16:59.998Z</time></trkpt><trkpt lat="43.850822320175716" lon="10.990121072345989"><ele>42.0</ele><time>2026-04-19T17:17:00.998Z</time></trkpt><trkpt lat="43.85098044807249" lon="10.990241093933747"><ele>42.0</ele><time>2026-04-19T17:17:01.998Z</time></trkpt><trkpt lat="43.85114241272985" lon="10.990365219824602"><ele>42.0</ele><time>2026-04-19T17:17:02.998Z</time></trkpt><trkpt lat="43.85130012394377" lon="10.990488941372254"><ele>42.0</ele><time>2026-04-19T17:17:03.998Z</time></trkpt><trkpt lat="43.851460203487655" lon="10.990612199680276"><ele>42.0</ele><time>2026-04-19T17:17:04.998Z</time></trkpt><trkpt lat="43.851617028630805" lon="10.990732567953447"><ele>42.0</ele><time>2026-04-19T17:17:05.998Z</time></trkpt><trkpt lat="43.851773671905775" lon="10.99085142459649"><ele>42.0</ele><time>2026-04-19T17:17:06.998Z</time></trkpt><trkpt lat="43.8519397620944" lon="10.990983397047485"><ele>41.333333333333336</ele><time>2026-04-19T17:17:07.998Z</time></trkpt><trkpt lat="43.85209958103964" lon="10.99110880655054"><ele>40.66666666666667</ele><time>2026-04-19T17:17:08.998Z</time></trkpt><trkpt lat="43.85225305180897" lon="10.991227440444638"><ele>40.0</ele><time>2026-04-19T17:17:09.998Z</time></trkpt><trkpt lat="43.85239667891078" lon="10.991338981684258"><ele>40.0</ele><time>2026-04-19T17:17:10.998Z</time></trkpt><trkpt lat="43.85253208368344" lon="10.991449591797014"><ele>40.0</ele><time>2026-04-19T17:17:11.998Z</time></trkpt><trkpt lat="43.85266533116795" lon="10.991552737541653"><ele>40.0</ele><time>2026-04-19T17:17:12.998Z</time></trkpt><trkpt lat="43.85279530633319" lon="10.991648389805611"><ele>40.25</ele><time>2026-04-19T17:17:13.998Z</time></trkpt><trkpt lat="43.852913014155554" lon="10.991738537958836"><ele>40.5</ele><time>2026-04-19T17:17:14.998Z</time></trkpt><trkpt lat="43.85302889693848" lon="10.99182772122571"><ele>40.75</ele><time>2026-04-19T17:17:15.998Z</time></trkpt><trkpt lat="43.853135027065015" lon="10.991907479006658"><ele>41.0</ele><time>2026-04-19T17:17:16.998Z</time></trkpt><trkpt lat="43.85323346208989" lon="10.991986232932991"><ele>41.0</ele><time>2026-04-19T17:17:17.998Z</time></trkpt><trkpt lat="43.853325002826736" lon="10.992062160829807"><ele>41.0</ele><time>2026-04-19T17:17:18.998Z</time></trkpt><trkpt lat="43.85341585183647" lon="10.992137369028121"><ele>41.0</ele><time>2026-04-19T17:17:19.998Z</time></trkpt><trkpt lat="43.85349702761606" lon="10.99220123448135"><ele>41.0</ele><time>2026-04-19T17:17:20.998Z</time></trkpt><trkpt lat="43.85357154872939" lon="10.992259083927443"><ele>41.0</ele><time>2026-04-19T17:17:21.998Z</time></trkpt><trkpt lat="43.85363802472089" lon="10.99230023699129"><ele>40.8</ele><time>2026-04-19T17:17:22.998Z</time></trkpt><trkpt lat="43.85373003185261" lon="10.992351835901884"><ele>40.599999999999994</ele><time>2026-04-19T17:17:24.998Z</time></trkpt><trkpt lat="43.85382149194314" lon="10.992448349219469"><ele>40.4</ele><time>2026-04-19T17:17:26.998Z</time></trkpt><trkpt lat="43.853868524951004" lon="10.992511712709744"><ele>40.2</ele><time>2026-04-19T17:17:27.998Z</time></trkpt><trkpt lat="43.8539005260675" lon="10.99259444468349"><ele>40.0</ele><time>2026-04-19T17:17:28.998Z</time></trkpt><trkpt lat="43.85384951188957" lon="10.992778134442217"><ele>40.0</ele><time>2026-04-19T17:17:29.998Z</time></trkpt><trkpt lat="43.853836397788385" lon="10.992935243675118"><ele>40.0</ele><time>2026-04-19T17:17:30.999Z</time></trkpt><trkpt lat="43.85382368043751" lon="10.993103973875849"><ele>40.0</ele><time>2026-04-19T17:17:31.999Z</time></trkpt><trkpt lat="43.85381527297024" lon="10.993276561553344"><ele>40.0</ele><time>2026-04-19T17:17:32.999Z</time></trkpt><trkpt lat="43.853809496986415" lon="10.993433063625538"><ele>40.0</ele><time>2026-04-19T17:17:33.999Z</time></trkpt><trkpt lat="43.85380834677754" lon="10.993580395070781"><ele>40.0</ele><time>2026-04-19T17:17:34.999Z</time></trkpt><trkpt lat="43.853826650726276" lon="10.993731677313876"><ele>40.0</ele><time>2026-04-19T17:17:35.999Z</time></trkpt><trkpt lat="43.85387143883812" lon="10.993892891339934"><ele>40.0</ele><time>2026-04-19T17:17:36.999Z</time></trkpt><trkpt lat="43.85393265153614" lon="10.994051640553304"><ele>40.0</ele><time>2026-04-19T17:17:37.999Z</time></trkpt><trkpt lat="43.85399589410091" lon="10.994202361645367"><ele>40.0</ele><time>2026-04-19T17:17:38.999Z</time></trkpt><trkpt lat="43.85404935558741" lon="10.994339065805754"><ele>40.0</ele><time>2026-04-19T17:17:39.999Z</time></trkpt><trkpt lat="43.85409308203578" lon="10.994448185211072"><ele>40.0</ele><time>2026-04-19T17:17:40.999Z</time></trkpt><trkpt lat="43.85412669207531" lon="10.99453328004439"><ele>40.0</ele><time>2026-04-19T17:17:41.999Z</time></trkpt><trkpt lat="43.85415725527639" lon="10.994632366275443"><ele>40.0</ele><time>2026-04-19T17:17:44Z</time></trkpt><trkpt lat="43.85419719423879" lon="10.994751243034484"><ele>40.0</ele><time>2026-04-19T17:17:47Z</time></trkpt><trkpt lat="43.854266241260724" lon="10.994884172869213"><ele>40.0</ele><time>2026-04-19T17:17:49Z</time></trkpt><trkpt lat="43.85430958847465" lon="10.994988467001761"><ele>40.0</ele><time>2026-04-19T17:17:51Z</time></trkpt><trkpt lat="43.85430365888442" lon="10.995085478504368"><ele>40.0</ele><time>2026-04-19T17:19:11Z</time></trkpt><trkpt lat="43.85439109747857" lon="10.995162442403155"><ele>39.833333333333336</ele><time>2026-04-19T17:19:14Z</time></trkpt><trkpt lat="43.85445760764126" lon="10.995180100874766"><ele>39.66666666666667</ele><time>2026-04-19T17:19:15Z</time></trkpt><trkpt lat="43.85453989450314" lon="10.995206615587236"><ele>39.5</ele><time>2026-04-19T17:19:16Z</time></trkpt><trkpt lat="43.85462703753419" lon="10.995236770931195"><ele>39.333333333333336</ele><time>2026-04-19T17:19:17Z</time></trkpt><trkpt lat="43.85469731091172" lon="10.995299682464626"><ele>39.166666666666664</ele><time>2026-04-19T17:19:18Z</time></trkpt><trkpt lat="43.854754447086364" lon="10.995397571038971"><ele>39.0</ele><time>2026-04-19T17:19:19Z</time></trkpt><trkpt lat="43.85480566805268" lon="10.995506482343126"><ele>39.0</ele><time>2026-04-19T17:19:20Z</time></trkpt><trkpt lat="43.85485098073592" lon="10.995602932022436"><ele>39.0</ele><time>2026-04-19T17:19:21Z</time></trkpt><trkpt lat="43.85489294917362" lon="10.995689786103359"><ele>39.0</ele><time>2026-04-19T17:19:22Z</time></trkpt><trkpt lat="43.85493786598585" lon="10.99579034747167"><ele>39.0</ele><time>2026-04-19T17:19:23Z</time></trkpt><trkpt lat="43.8549767133611" lon="10.99590025497447"><ele>39.0</ele><time>2026-04-19T17:19:24Z</time></trkpt><trkpt lat="43.85499029189842" lon="10.996008313892824"><ele>39.0</ele><time>2026-04-19T17:19:25Z</time></trkpt><trkpt lat="43.854972584475895" lon="10.996129272281438"><ele>38.75</ele><time>2026-04-19T17:19:26Z</time></trkpt><trkpt lat="43.854931401134834" lon="10.996277687187224"><ele>38.5</ele><time>2026-04-19T17:19:27Z</time></trkpt><trkpt lat="43.85487404077156" lon="10.99640004418279"><ele>38.25</ele><time>2026-04-19T17:19:28Z</time></trkpt><trkpt lat="43.85480392259676" lon="10.996537622560437"><ele>38.0</ele><time>2026-04-19T17:19:29Z</time></trkpt><trkpt lat="43.854728929789964" lon="10.996683873771929"><ele>37.5</ele><time>2026-04-19T17:19:30Z</time></trkpt><trkpt lat="43.854666053618715" lon="10.996832750481051"><ele>37.0</ele><time>2026-04-19T17:19:31Z</time></trkpt><trkpt lat="43.85462095019731" lon="10.997005114181487"><ele>36.5</ele><time>2026-04-19T17:19:32Z</time></trkpt><trkpt lat="43.85459041017037" lon="10.997211331284861"><ele>36.0</ele><time>2026-04-19T17:19:33Z</time></trkpt><trkpt lat="43.85455735284004" lon="10.997414255950282"><ele>36.0</ele><time>2026-04-19T17:19:34Z</time></trkpt><trkpt lat="43.85453159016476" lon="10.99756153467669"><ele>36.0</ele><time>2026-04-19T17:19:35Z</time></trkpt><trkpt lat="43.85449924591628" lon="10.997703160625166"><ele>36.0</ele><time>2026-04-19T17:19:36Z</time></trkpt><trkpt lat="43.854466171025045" lon="10.997856930177472"><ele>36.0</ele><time>2026-04-19T17:19:37Z</time></trkpt><trkpt lat="43.85443380474035" lon="10.998013294018005"><ele>36.0</ele><time>2026-04-19T17:19:38Z</time></trkpt><trkpt lat="43.85440268042067" lon="10.9981787387303"><ele>36.5</ele><time>2026-04-19T17:19:39Z</time></trkpt><trkpt lat="43.85436544421661" lon="10.998345028836985"><ele>37.0</ele><time>2026-04-19T17:19:40Z</time></trkpt><trkpt lat="43.854329461819155" lon="10.998500105451319"><ele>37.5</ele><time>2026-04-19T17:19:41Z</time></trkpt><trkpt lat="43.85429582092756" lon="10.998646357919512"><ele>38.0</ele><time>2026-04-19T17:19:42Z</time></trkpt><trkpt lat="43.85426651726728" lon="10.998774149110057"><ele>38.0</ele><time>2026-04-19T17:19:43Z</time></trkpt><trkpt lat="43.854241955233995" lon="10.998912672460161"><ele>38.0</ele><time>2026-04-19T17:19:44Z</time></trkpt><trkpt lat="43.85423848360541" lon="10.999049943051363"><ele>38.0</ele><time>2026-04-19T17:19:45Z</time></trkpt><trkpt lat="43.854260342648494" lon="10.999184580362758"><ele>38.0</ele><time>2026-04-19T17:19:46Z</time></trkpt><trkpt lat="43.854303473334774" lon="10.999310888325581"><ele>38.0</ele><time>2026-04-19T17:19:47Z</time></trkpt><trkpt lat="43.85436807221165" lon="10.999417262047041"><ele>38.166666666666664</ele><time>2026-04-19T17:19:48Z</time></trkpt><trkpt lat="43.854451257403774" lon="10.999508143621666"><ele>38.33333333333333</ele><time>2026-04-19T17:19:49Z</time></trkpt><trkpt lat="43.85453368556442" lon="10.999594617515234"><ele>38.5</ele><time>2026-04-19T17:19:50Z</time></trkpt><trkpt lat="43.85460127964926" lon="10.999660391134823"><ele>38.666666666666664</ele><time>2026-04-19T17:19:51Z</time></trkpt><trkpt lat="43.85466541976547" lon="10.999727207272851"><ele>38.833333333333336</ele><time>2026-04-19T17:19:52Z</time></trkpt><trkpt lat="43.85471136164134" lon="10.999795638587706"><ele>39.0</ele><time>2026-04-19T17:19:53Z</time></trkpt><trkpt lat="43.854743175700186" lon="10.999894435867178"><ele>39.0</ele><time>2026-04-19T17:19:54Z</time></trkpt><trkpt lat="43.85475459212643" lon="10.999998576819122"><ele>39.0</ele><time>2026-04-19T17:19:55Z</time></trkpt><trkpt lat="43.854727570113624" lon="11.000110675682745"><ele>39.0</ele><time>2026-04-19T17:19:56Z</time></trkpt><trkpt lat="43.85468652245842" lon="11.000221629356695"><ele>39.0</ele><time>2026-04-19T17:19:57Z</time></trkpt><trkpt lat="43.85464101153197" lon="11.000354461163978"><ele>39.0</ele><time>2026-04-19T17:19:58Z</time></trkpt><trkpt lat="43.854585168024414" lon="11.000472145562512"><ele>39.0</ele><time>2026-04-19T17:19:59Z</time></trkpt><trkpt lat="43.854538431457" lon="11.00057866970469"><ele>39.0</ele><time>2026-04-19T17:20:00Z</time></trkpt><trkpt lat="43.85449376989803" lon="11.000689060800791"><ele>39.0</ele><time>2026-04-19T17:20:01Z</time></trkpt><trkpt lat="43.85444873416424" lon="11.000793655044124"><ele>39.0</ele><time>2026-04-19T17:20:02Z</time></trkpt><trkpt lat="43.85441988810537" lon="11.000885121768158"><ele>39.0</ele><time>2026-04-19T17:20:03Z</time></trkpt><trkpt lat="43.8543916118376" lon="11.000989646292147"><ele>39.0</ele><time>2026-04-19T17:20:04Z</time></trkpt><trkpt lat="43.8544083281118" lon="11.001120787651937"><ele>38.75</ele><time>2026-04-19T17:20:05Z</time></trkpt><trkpt lat="43.854497833033264" lon="11.001228858159118"><ele>38.5</ele><time>2026-04-19T17:20:06Z</time></trkpt><trkpt lat="43.85458474577102" lon="11.00135716048667"><ele>38.25</ele><time>2026-04-19T17:20:07Z</time></trkpt><trkpt lat="43.85468783261278" lon="11.001498961584351"><ele>38.0</ele><time>2026-04-19T17:20:08Z</time></trkpt><trkpt lat="43.85478638641278" lon="11.001630198482545"><ele>38.0</ele><time>2026-04-19T17:20:09Z</time></trkpt><trkpt lat="43.85489081231175" lon="11.001748930820057"><ele>38.0</ele><time>2026-04-19T17:20:10Z</time></trkpt><trkpt lat="43.85499852510684" lon="11.001861924974595"><ele>38.0</ele><time>2026-04-19T17:20:11Z</time></trkpt><trkpt lat="43.85509095991446" lon="11.001962068878342"><ele>38.0</ele><time>2026-04-19T17:20:12Z</time></trkpt><trkpt lat="43.85517399148206" lon="11.002049544712525"><ele>38.0</ele><time>2026-04-19T17:20:13Z</time></trkpt><trkpt lat="43.85525768426033" lon="11.002143226225572"><ele>38.0</ele><time>2026-04-19T17:20:14Z</time></trkpt><trkpt lat="43.855336603300074" lon="11.002238704175925"><ele>38.0</ele><time>2026-04-19T17:20:15Z</time></trkpt><trkpt lat="43.85540981343213" lon="11.002337353087785"><ele>38.0</ele><time>2026-04-19T17:20:16Z</time></trkpt><trkpt lat="43.85547844982501" lon="11.002428836959563"><ele>38.0</ele><time>2026-04-19T17:20:17Z</time></trkpt><trkpt lat="43.85554282593607" lon="11.002521680640521"><ele>38.0</ele><time>2026-04-19T17:20:18Z</time></trkpt><trkpt lat="43.85561438627435" lon="11.002600693225997"><ele>38.0</ele><time>2026-04-19T17:20:19Z</time></trkpt><trkpt lat="43.85567719138845" lon="11.002681917580764"><ele>38.0</ele><time>2026-04-19T17:20:20Z</time></trkpt><trkpt lat="43.85574273634749" lon="11.002757414825263"><ele>38.0</ele><time>2026-04-19T17:20:21Z</time></trkpt><trkpt lat="43.85580310299939" lon="11.002832025048143"><ele>38.0</ele><time>2026-04-19T17:20:22Z</time></trkpt><trkpt lat="43.85588173441852" lon="11.002932477522252"><ele>38.0</ele><time>2026-04-19T17:20:24Z</time></trkpt><trkpt lat="43.85596490602096" lon="11.003034458081421"><ele>38.0</ele><time>2026-04-19T17:20:26Z</time></trkpt><trkpt lat="43.856020763209806" lon="11.003094471249117"><ele>38.0</ele><time>2026-04-19T17:20:27Z</time></trkpt><trkpt lat="43.85606835034363" lon="11.003180211812934"><ele>38.0</ele><time>2026-04-19T17:20:28Z</time></trkpt><trkpt lat="43.85612493974529" lon="11.003248564638485"><ele>38.0</ele><time>2026-04-19T17:20:29Z</time></trkpt><trkpt lat="43.856223992729085" lon="11.003368208130949"><ele>38.0</ele><time>2026-04-19T17:20:31Z</time></trkpt><trkpt lat="43.85630128139434" lon="11.003461530185826"><ele>38.0</ele><time>2026-04-19T17:20:33Z</time></trkpt><trkpt lat="43.856348846388876" lon="11.003520626642057"><ele>38.0</ele><time>2026-04-19T17:20:36Z</time></trkpt><trkpt lat="43.85637960237327" lon="11.003600512235057"><ele>38.0</ele><time>2026-04-19T17:20:45Z</time></trkpt><trkpt lat="43.85634516240678" lon="11.003685895338021"><ele>38.0</ele><time>2026-04-19T17:20:47Z</time></trkpt><trkpt lat="43.85628342810863" lon="11.003729276634443"><ele>38.0</ele><time>2026-04-19T17:20:48Z</time></trkpt><trkpt lat="43.85622570424683" lon="11.003822174209978"><ele>38.0</ele><time>2026-04-19T17:20:49Z</time></trkpt><trkpt lat="43.85614801649478" lon="11.003913983669875"><ele>38.0</ele><time>2026-04-19T17:20:50Z</time></trkpt><trkpt lat="43.856076217337055" lon="11.004011400579053"><ele>38.0</ele><time>2026-04-19T17:20:51Z</time></trkpt><trkpt lat="43.85599545795072" lon="11.004113358630697"><ele>38.0</ele><time>2026-04-19T17:20:52Z</time></trkpt><trkpt lat="43.85590672154769" lon="11.004217350714448"><ele>38.0</ele><time>2026-04-19T17:20:53Z</time></trkpt><trkpt lat="43.8558092863786" lon="11.004335100444397"><ele>37.75</ele><time>2026-04-19T17:20:54Z</time></trkpt><trkpt lat="43.855702908754886" lon="11.004466231315726"><ele>37.5</ele><time>2026-04-19T17:20:55Z</time></trkpt><trkpt lat="43.85559347342847" lon="11.00460310564569"><ele>37.25</ele><time>2026-04-19T17:20:56Z</time></trkpt><trkpt lat="43.85548382510079" lon="11.004740854439014"><ele>37.0</ele><time>2026-04-19T17:20:57Z</time></trkpt><trkpt lat="43.855366762274606" lon="11.004888091498941"><ele>37.0</ele><time>2026-04-19T17:20:58Z</time></trkpt><trkpt lat="43.85524555959583" lon="11.005037162333922"><ele>37.0</ele><time>2026-04-19T17:20:59Z</time></trkpt><trkpt lat="43.85513172353892" lon="11.005177003545251"><ele>37.0</ele><time>2026-04-19T17:21:00Z</time></trkpt><trkpt lat="43.855014094170436" lon="11.005329399968995"><ele>37.0</ele><time>2026-04-19T17:21:01Z</time></trkpt><trkpt lat="43.854890480677476" lon="11.00548701670182"><ele>37.0</ele><time>2026-04-19T17:21:02Z</time></trkpt><trkpt lat="43.8547749582149" lon="11.005630318029015"><ele>37.0</ele><time>2026-04-19T17:21:03Z</time></trkpt><trkpt lat="43.85466526967912" lon="11.005761815874912"><ele>37.0</ele><time>2026-04-19T17:21:04Z</time></trkpt><trkpt lat="43.85456826320237" lon="11.005882443848618"><ele>37.0</ele><time>2026-04-19T17:21:05Z</time></trkpt><trkpt lat="43.854473005661575" lon="11.00600142665841"><ele>37.0</ele><time>2026-04-19T17:21:06Z</time></trkpt><trkpt lat="43.85438172890641" lon="11.006121300747672"><ele>37.0</ele><time>2026-04-19T17:21:07Z</time></trkpt><trkpt lat="43.85427518358708" lon="11.006228052851563"><ele>37.25</ele><time>2026-04-19T17:21:08Z</time></trkpt><trkpt lat="43.85418152927131" lon="11.006346176821765"><ele>37.5</ele><time>2026-04-19T17:21:09Z</time></trkpt><trkpt lat="43.85409440222508" lon="11.006456065561347"><ele>37.75</ele><time>2026-04-19T17:21:10Z</time></trkpt><trkpt lat="43.85400199252366" lon="11.006571375082283"><ele>38.0</ele><time>2026-04-19T17:21:11Z</time></trkpt><trkpt lat="43.853917136618456" lon="11.00671424582593"><ele>38.0</ele><time>2026-04-19T17:21:12Z</time></trkpt><trkpt lat="43.85381877495937" lon="11.006829960068048"><ele>38.0</ele><time>2026-04-19T17:21:13Z</time></trkpt><trkpt lat="43.85371937103236" lon="11.00694630624985"><ele>38.0</ele><time>2026-04-19T17:21:14Z</time></trkpt><trkpt lat="43.85362982676798" lon="11.007053432503719"><ele>38.0</ele><time>2026-04-19T17:21:15Z</time></trkpt><trkpt lat="43.85353454583342" lon="11.007132133232355"><ele>38.199999999999996</ele><time>2026-04-19T17:21:16Z</time></trkpt><trkpt lat="43.853449806442484" lon="11.007227472294602"><ele>38.4</ele><time>2026-04-19T17:21:17Z</time></trkpt><trkpt lat="43.853376621942324" lon="11.007330819837579"><ele>38.599999999999994</ele><time>2026-04-19T17:21:18Z</time></trkpt><trkpt lat="43.85329253667947" lon="11.007393871976326"><ele>38.8</ele><time>2026-04-19T17:21:19Z</time></trkpt><trkpt lat="43.85318531838675" lon="11.007439265843116"><ele>39.0</ele><time>2026-04-19T17:21:20Z</time></trkpt><trkpt lat="43.85307093482624" lon="11.007480727519427"><ele>39.0</ele><time>2026-04-19T17:21:21Z</time></trkpt><trkpt lat="43.852950611435325" lon="11.00751136072538"><ele>39.0</ele><time>2026-04-19T17:21:22Z</time></trkpt><trkpt lat="43.85283916609902" lon="11.007611278991883"><ele>39.0</ele><time>2026-04-19T17:21:23Z</time></trkpt><trkpt lat="43.85272238212656" lon="11.007720001839644"><ele>39.0</ele><time>2026-04-19T17:21:24Z</time></trkpt><trkpt lat="43.85260408913184" lon="11.007844807935488"><ele>39.0</ele><time>2026-04-19T17:21:25Z</time></trkpt><trkpt lat="43.852487971111834" lon="11.007971493947798"><ele>39.0</ele><time>2026-04-19T17:21:26Z</time></trkpt><trkpt lat="43.85235389104039" lon="11.008102913439476"><ele>39.0</ele><time>2026-04-19T17:21:27Z</time></trkpt><trkpt lat="43.85221083052317" lon="11.008239809775676"><ele>39.0</ele><time>2026-04-19T17:21:28Z</time></trkpt><trkpt lat="43.85208529848216" lon="11.008356542145785"><ele>39.0</ele><time>2026-04-19T17:21:29Z</time></trkpt><trkpt lat="43.851967672266184" lon="11.008461624666305"><ele>39.0</ele><time>2026-04-19T17:21:30Z</time></trkpt><trkpt lat="43.85183440183162" lon="11.008578197584995"><ele>39.0</ele><time>2026-04-19T17:21:31Z</time></trkpt><trkpt lat="43.85169400060532" lon="11.008706410585745"><ele>39.0</ele><time>2026-04-19T17:21:32Z</time></trkpt><trkpt lat="43.851539011142286" lon="11.008841030180434"><ele>39.0</ele><time>2026-04-19T17:21:33Z</time></trkpt><trkpt lat="43.85138512337433" lon="11.008979696896416"><ele>39.0</ele><time>2026-04-19T17:21:34Z</time></trkpt><trkpt lat="43.851224146756394" lon="11.009121695792922"><ele>39.333333333333336</ele><time>2026-04-19T17:21:35Z</time></trkpt><trkpt lat="43.85106808339604" lon="11.009260677012144"><ele>39.66666666666667</ele><time>2026-04-19T17:21:36Z</time></trkpt><trkpt lat="43.850917942625856" lon="11.009389747978926"><ele>40.0</ele><time>2026-04-19T17:21:37Z</time></trkpt><trkpt lat="43.850775867243605" lon="11.009511447987654"><ele>39.0</ele><time>2026-04-19T17:21:38Z</time></trkpt><trkpt lat="43.850634642171265" lon="11.009633470139425"><ele>38.0</ele><time>2026-04-19T17:21:39Z</time></trkpt><trkpt lat="43.850493591524156" lon="11.009755088470095"><ele>37.0</ele><time>2026-04-19T17:21:40Z</time></trkpt><trkpt lat="43.85035648311026" lon="11.009876054990105"><ele>37.0</ele><time>2026-04-19T17:21:41Z</time></trkpt><trkpt lat="43.85020301002487" lon="11.010005637975661"><ele>37.0</ele><time>2026-04-19T17:21:42Z</time></trkpt><trkpt lat="43.850054693404545" lon="11.01013329111381"><ele>37.0</ele><time>2026-04-19T17:21:43Z</time></trkpt><trkpt lat="43.84991128886183" lon="11.010257843944007"><ele>37.333333333333336</ele><time>2026-04-19T17:21:44Z</time></trkpt><trkpt lat="43.849765717447845" lon="11.01038470243719"><ele>37.666666666666664</ele><time>2026-04-19T17:21:45Z</time></trkpt><trkpt lat="43.849620116555776" lon="11.010512371409492"><ele>38.0</ele><time>2026-04-19T17:21:46Z</time></trkpt><trkpt lat="43.84947315286797" lon="11.010638274917156"><ele>38.0</ele><time>2026-04-19T17:21:47Z</time></trkpt><trkpt lat="43.849339387048644" lon="11.010755039374322"><ele>38.0</ele><time>2026-04-19T17:21:48Z</time></trkpt><trkpt lat="43.84921336082211" lon="11.010868677950825"><ele>38.0</ele><time>2026-04-19T17:21:49Z</time></trkpt><trkpt lat="43.84908900867172" lon="11.010978372590964"><ele>37.75</ele><time>2026-04-19T17:21:50Z</time></trkpt><trkpt lat="43.84896436158674" lon="11.01108868123054"><ele>37.5</ele><time>2026-04-19T17:21:51Z</time></trkpt><trkpt lat="43.84883822598869" lon="11.011195392910055"><ele>37.25</ele><time>2026-04-19T17:21:52Z</time></trkpt><trkpt lat="43.84871356539245" lon="11.011302881557663"><ele>37.0</ele><time>2026-04-19T17:21:53Z</time></trkpt><trkpt lat="43.848603912449455" lon="11.011398960669961"><ele>37.0</ele><time>2026-04-19T17:21:54Z</time></trkpt><trkpt lat="43.84848954286113" lon="11.011497210959964"><ele>37.0</ele><time>2026-04-19T17:21:55Z</time></trkpt><trkpt lat="43.848370927432" lon="11.011602409932022"><ele>37.0</ele><time>2026-04-19T17:21:56Z</time></trkpt><trkpt lat="43.848249021243156" lon="11.011707237701547"><ele>37.0</ele><time>2026-04-19T17:21:57Z</time></trkpt><trkpt lat="43.848124440500904" lon="11.01180994929508"><ele>37.25</ele><time>2026-04-19T17:21:58Z</time></trkpt><trkpt lat="43.847999117052" lon="11.011912287844984"><ele>37.5</ele><time>2026-04-19T17:21:59Z</time></trkpt><trkpt lat="43.84787510583772" lon="11.012019938020872"><ele>37.75</ele><time>2026-04-19T17:22:00Z</time></trkpt><trkpt lat="43.84775206685729" lon="11.012129986961494"><ele>38.0</ele><time>2026-04-19T17:22:01Z</time></trkpt><trkpt lat="43.84762849197337" lon="11.012239682266637"><ele>38.33333333333333</ele><time>2026-04-19T17:22:02Z</time></trkpt><trkpt lat="43.847502649607925" lon="11.012348116368738"><ele>38.666666666666664</ele><time>2026-04-19T17:22:03Z</time></trkpt><trkpt lat="43.84737532146862" lon="11.012457151520909"><ele>39.0</ele><time>2026-04-19T17:22:04Z</time></trkpt><trkpt lat="43.84724279596243" lon="11.012571045099307"><ele>39.0</ele><time>2026-04-19T17:22:05Z</time></trkpt><trkpt lat="43.84710504014589" lon="11.012689502397132"><ele>39.0</ele><time>2026-04-19T17:22:06Z</time></trkpt><trkpt lat="43.84697186358128" lon="11.012803050849163"><ele>39.0</ele><time>2026-04-19T17:22:07Z</time></trkpt><trkpt lat="43.84684319030634" lon="11.012912526799239"><ele>39.333333333333336</ele><time>2026-04-19T17:22:08Z</time></trkpt><trkpt lat="43.84671413950454" lon="11.013022766909156"><ele>39.66666666666667</ele><time>2026-04-19T17:22:09Z</time></trkpt><trkpt lat="43.84658516937327" lon="11.013133945683837"><ele>40.0</ele><time>2026-04-19T17:22:10Z</time></trkpt><trkpt lat="43.84645774698231" lon="11.01324565491487"><ele>40.0</ele><time>2026-04-19T17:22:11Z</time></trkpt><trkpt lat="43.846331503838144" lon="11.013354817190047"><ele>40.0</ele><time>2026-04-19T17:22:12Z</time></trkpt><trkpt lat="43.846206061966974" lon="11.01346401572669"><ele>40.0</ele><time>2026-04-19T17:22:13Z</time></trkpt><trkpt lat="43.846082136385284" lon="11.013573931401032"><ele>40.0</ele><time>2026-04-19T17:22:14Z</time></trkpt><trkpt lat="43.84595962592222" lon="11.013680943540495"><ele>40.25</ele><time>2026-04-19T17:22:15Z</time></trkpt><trkpt lat="43.84584121820213" lon="11.013783906797409"><ele>40.5</ele><time>2026-04-19T17:22:16Z</time></trkpt><trkpt lat="43.8457239183175" lon="11.01388376438953"><ele>40.75</ele><time>2026-04-19T17:22:17Z</time></trkpt><trkpt lat="43.84560926581354" lon="11.013982931893118"><ele>41.0</ele><time>2026-04-19T17:22:18Z</time></trkpt><trkpt lat="43.845495902990834" lon="11.014081631131628"><ele>40.75</ele><time>2026-04-19T17:22:19Z</time></trkpt><trkpt lat="43.84538479584234" lon="11.014178512463754"><ele>40.5</ele><time>2026-04-19T17:22:20Z</time></trkpt><trkpt lat="43.845268715373656" lon="11.014279449065889"><ele>40.25</ele><time>2026-04-19T17:22:21Z</time></trkpt><trkpt lat="43.84514501868791" lon="11.014388814118329"><ele>40.0</ele><time>2026-04-19T17:22:22Z</time></trkpt><trkpt lat="43.84501868451995" lon="11.014498052184612"><ele>40.0</ele><time>2026-04-19T17:22:23Z</time></trkpt><trkpt lat="43.844894155045615" lon="11.014607248004964"><ele>40.0</ele><time>2026-04-19T17:22:24Z</time></trkpt><trkpt lat="43.84477333621221" lon="11.014712817570482"><ele>40.0</ele><time>2026-04-19T17:22:25Z</time></trkpt><trkpt lat="43.844655261875594" lon="11.014814381294956"><ele>40.0</ele><time>2026-04-19T17:22:26Z</time></trkpt><trkpt lat="43.844538873693686" lon="11.014912566199124"><ele>39.5</ele><time>2026-04-19T17:22:27Z</time></trkpt><trkpt lat="43.84442613087414" lon="11.015008568061276"><ele>39.0</ele><time>2026-04-19T17:22:28Z</time></trkpt><trkpt lat="43.844314341639034" lon="11.015105228757104"><ele>38.5</ele><time>2026-04-19T17:22:29Z</time></trkpt><trkpt lat="43.84420146512085" lon="11.015203167877075"><ele>38.0</ele><time>2026-04-19T17:22:30Z</time></trkpt><trkpt lat="43.84408189390243" lon="11.015306076004139"><ele>38.0</ele><time>2026-04-19T17:22:31Z</time></trkpt><trkpt lat="43.84397239892245" lon="11.015401910878083"><ele>38.0</ele><time>2026-04-19T17:22:32Z</time></trkpt><trkpt lat="43.84385880923802" lon="11.015495289575762"><ele>38.0</ele><time>2026-04-19T17:22:33Z</time></trkpt><trkpt lat="43.84374714094555" lon="11.015589633873963"><ele>38.0</ele><time>2026-04-19T17:22:34Z</time></trkpt><trkpt lat="43.843643399222294" lon="11.01567621135835"><ele>38.0</ele><time>2026-04-19T17:22:35Z</time></trkpt><trkpt lat="43.843546867639816" lon="11.015758936694386"><ele>38.0</ele><time>2026-04-19T17:22:36Z</time></trkpt><trkpt lat="43.8434430143824" lon="11.015846780245095"><ele>38.0</ele><time>2026-04-19T17:22:37Z</time></trkpt><trkpt lat="43.843334938240766" lon="11.015938685797055"><ele>38.0</ele><time>2026-04-19T17:22:38Z</time></trkpt><trkpt lat="43.8432259883888" lon="11.01603112835472"><ele>38.0</ele><time>2026-04-19T17:22:39Z</time></trkpt><trkpt lat="43.84311997516324" lon="11.016119970348965"><ele>38.0</ele><time>2026-04-19T17:22:40Z</time></trkpt><trkpt lat="43.84301868096102" lon="11.016205386917571"><ele>38.0</ele><time>2026-04-19T17:22:41Z</time></trkpt><trkpt lat="43.84293007727414" lon="11.016283542984338"><ele>38.0</ele><time>2026-04-19T17:22:42Z</time></trkpt><trkpt lat="43.84284827644623" lon="11.016356770089722"><ele>38.0</ele><time>2026-04-19T17:22:43Z</time></trkpt><trkpt lat="43.84277058470383" lon="11.01642551756842"><ele>38.0</ele><time>2026-04-19T17:22:44Z</time></trkpt><trkpt lat="43.842690403970735" lon="11.016496510805899"><ele>38.0</ele><time>2026-04-19T17:22:45Z</time></trkpt><trkpt lat="43.84260660896208" lon="11.016577858451175"><ele>38.0</ele><time>2026-04-19T17:22:46Z</time></trkpt><trkpt lat="43.842503453135876" lon="11.016656925562312"><ele>38.0</ele><time>2026-04-19T17:22:47Z</time></trkpt><trkpt lat="43.842435340409715" lon="11.01676377194753"><ele>38.0</ele><time>2026-04-19T17:22:48Z</time></trkpt><trkpt lat="43.84234585061604" lon="11.016848917586026"><ele>38.25</ele><time>2026-04-19T17:22:49Z</time></trkpt><trkpt lat="43.842259881023516" lon="11.016967050134978"><ele>38.5</ele><time>2026-04-19T17:22:50Z</time></trkpt><trkpt lat="43.842164498016295" lon="11.017109399434027"><ele>38.75</ele><time>2026-04-19T17:22:51Z</time></trkpt><trkpt lat="43.842082629480856" lon="11.017275308982292"><ele>39.0</ele><time>2026-04-19T17:22:52Z</time></trkpt><trkpt lat="43.841989566299134" lon="11.017422358661873"><ele>38.666666666666664</ele><time>2026-04-19T17:22:53Z</time></trkpt><trkpt lat="43.841888917735" lon="11.017588134374051"><ele>38.33333333333333</ele><time>2026-04-19T17:22:54Z</time></trkpt><trkpt lat="43.84177641283167" lon="11.017769749162762"><ele>38.0</ele><time>2026-04-19T17:22:55Z</time></trkpt><trkpt lat="43.841665149630536" lon="11.017952470818614"><ele>38.0</ele><time>2026-04-19T17:22:56Z</time></trkpt><trkpt lat="43.84154889584667" lon="11.01813835936123"><ele>38.0</ele><time>2026-04-19T17:22:57Z</time></trkpt><trkpt lat="43.84143179463957" lon="11.01832290113233"><ele>38.0</ele><time>2026-04-19T17:22:58Z</time></trkpt><trkpt lat="43.84131532155925" lon="11.018505056005008"><ele>38.0</ele><time>2026-04-19T17:22:59Z</time></trkpt><trkpt lat="43.8412097063071" lon="11.01866736515537"><ele>38.0</ele><time>2026-04-19T17:23:00Z</time></trkpt><trkpt lat="43.84111392856013" lon="11.018809622171334"><ele>38.0</ele><time>2026-04-19T17:23:01Z</time></trkpt><trkpt lat="43.841025337651864" lon="11.018948892917185"><ele>38.0</ele><time>2026-04-19T17:23:02Z</time></trkpt><trkpt lat="43.840935200841976" lon="11.01908549972202"><ele>38.0</ele><time>2026-04-19T17:23:03Z</time></trkpt><trkpt lat="43.84083993695762" lon="11.019228397566232"><ele>38.0</ele><time>2026-04-19T17:23:04Z</time></trkpt><trkpt lat="43.84073952488065" lon="11.019377235920144"><ele>38.0</ele><time>2026-04-19T17:23:05Z</time></trkpt><trkpt lat="43.840633746810404" lon="11.019535581889897"><ele>38.0</ele><time>2026-04-19T17:23:06Z</time></trkpt><trkpt lat="43.84052250663819" lon="11.01970516349928"><ele>38.0</ele><time>2026-04-19T17:23:07Z</time></trkpt><trkpt lat="43.84041686997824" lon="11.019867132233793"><ele>38.0</ele><time>2026-04-19T17:23:08Z</time></trkpt><trkpt lat="43.84032019950447" lon="11.020011877080183"><ele>38.0</ele><time>2026-04-19T17:23:09Z</time></trkpt><trkpt lat="43.84022951899453" lon="11.02014773058801"><ele>38.0</ele><time>2026-04-19T17:23:10Z</time></trkpt><trkpt lat="43.84014231405588" lon="11.020280842671125"><ele>38.0</ele><time>2026-04-19T17:23:11Z</time></trkpt><trkpt lat="43.84006085327039" lon="11.020408612371583"><ele>38.0</ele><time>2026-04-19T17:23:12Z</time></trkpt><trkpt lat="43.83998478941806" lon="11.020527951922814"><ele>38.0</ele><time>2026-04-19T17:23:13Z</time></trkpt><trkpt lat="43.83990574096693" lon="11.020648259449963"><ele>38.0</ele><time>2026-04-19T17:23:14Z</time></trkpt><trkpt lat="43.839822431272" lon="11.020778361026704"><ele>38.0</ele><time>2026-04-19T17:23:15Z</time></trkpt><trkpt lat="43.839739060059706" lon="11.020909950465839"><ele>38.0</ele><time>2026-04-19T17:23:16Z</time></trkpt><trkpt lat="43.839656426840584" lon="11.021040488213607"><ele>38.0</ele><time>2026-04-19T17:23:17Z</time></trkpt><trkpt lat="43.83957362446048" lon="11.021170355186943"><ele>38.0</ele><time>2026-04-19T17:23:18Z</time></trkpt><trkpt lat="43.839490898175306" lon="11.021300247240665"><ele>38.0</ele><time>2026-04-19T17:23:19Z</time></trkpt><trkpt lat="43.83940434012041" lon="11.021434631514776"><ele>38.0</ele><time>2026-04-19T17:23:20Z</time></trkpt><trkpt lat="43.83931609640288" lon="11.021574108226275"><ele>38.0</ele><time>2026-04-19T17:23:21Z</time></trkpt><trkpt lat="43.83922450383128" lon="11.021718511458504"><ele>38.0</ele><time>2026-04-19T17:23:22Z</time></trkpt><trkpt lat="43.839124623039595" lon="11.021874897151106"><ele>37.5</ele><time>2026-04-19T17:23:23Z</time></trkpt><trkpt lat="43.839027115337345" lon="11.0220294884815"><ele>37.0</ele><time>2026-04-19T17:23:24Z</time></trkpt><trkpt lat="43.838931173460594" lon="11.02218048529652"><ele>36.5</ele><time>2026-04-19T17:23:25Z</time></trkpt><trkpt lat="43.83883581489132" lon="11.022328035191121"><ele>36.0</ele><time>2026-04-19T17:23:26Z</time></trkpt><trkpt lat="43.83874331245324" lon="11.022472864564444"><ele>36.5</ele><time>2026-04-19T17:23:27Z</time></trkpt><trkpt lat="43.83865063935862" lon="11.022625862563075"><ele>37.0</ele><time>2026-04-19T17:23:28Z</time></trkpt><trkpt lat="43.83855027552002" lon="11.022783085613565"><ele>37.5</ele><time>2026-04-19T17:23:29Z</time></trkpt><trkpt lat="43.83845130652878" lon="11.022937052725021"><ele>38.0</ele><time>2026-04-19T17:23:30Z</time></trkpt><trkpt lat="43.83835209006796" lon="11.023086126087493"><ele>38.0</ele><time>2026-04-19T17:23:31Z</time></trkpt><trkpt lat="43.838256351831575" lon="11.023238252043642"><ele>38.0</ele><time>2026-04-19T17:23:32Z</time></trkpt><trkpt lat="43.83815730868617" lon="11.023392459788445"><ele>38.0</ele><time>2026-04-19T17:23:33Z</time></trkpt><trkpt lat="43.83805328493384" lon="11.023554972721106"><ele>38.0</ele><time>2026-04-19T17:23:34Z</time></trkpt><trkpt lat="43.83794489757583" lon="11.0237228038549"><ele>38.0</ele><time>2026-04-19T17:23:35Z</time></trkpt><trkpt lat="43.83783213501522" lon="11.023895067844192"><ele>38.0</ele><time>2026-04-19T17:23:36Z</time></trkpt><trkpt lat="43.8377109137159" lon="11.024089911789082"><ele>38.0</ele><time>2026-04-19T17:23:37Z</time></trkpt><trkpt lat="43.837597061459256" lon="11.02427634027231"><ele>38.0</ele><time>2026-04-19T17:23:38Z</time></trkpt><trkpt lat="43.83749227200212" lon="11.024442823156722"><ele>38.0</ele><time>2026-04-19T17:23:39Z</time></trkpt><trkpt lat="43.837393543905506" lon="11.024598227956165"><ele>38.0</ele><time>2026-04-19T17:23:40Z</time></trkpt><trkpt lat="43.83729190855322" lon="11.024753004767488"><ele>38.0</ele><time>2026-04-19T17:23:41Z</time></trkpt><trkpt lat="43.83718700830091" lon="11.024907513165408"><ele>38.0</ele><time>2026-04-19T17:23:42Z</time></trkpt><trkpt lat="43.83707959212883" lon="11.025070422841882"><ele>37.75</ele><time>2026-04-19T17:23:43Z</time></trkpt><trkpt lat="43.83697842609681" lon="11.025225831157943"><ele>37.5</ele><time>2026-04-19T17:23:44Z</time></trkpt><trkpt lat="43.836885158903186" lon="11.025367198422611"><ele>37.25</ele><time>2026-04-19T17:23:45Z</time></trkpt><trkpt lat="43.83679753706889" lon="11.025502650351672"><ele>37.0</ele><time>2026-04-19T17:23:46Z</time></trkpt><trkpt lat="43.83671078119948" lon="11.025640353935836"><ele>37.0</ele><time>2026-04-19T17:23:47Z</time></trkpt><trkpt lat="43.83662109402957" lon="11.025775888600192"><ele>37.0</ele><time>2026-04-19T17:23:48Z</time></trkpt><trkpt lat="43.83653747841382" lon="11.025901938420498"><ele>37.0</ele><time>2026-04-19T17:23:49Z</time></trkpt><trkpt lat="43.83645773807958" lon="11.0260231791652"><ele>37.0</ele><time>2026-04-19T17:23:50Z</time></trkpt><trkpt lat="43.8363745952746" lon="11.026147077241097"><ele>37.2</ele><time>2026-04-19T17:23:51Z</time></trkpt><trkpt lat="43.836295439080416" lon="11.02625110585288"><ele>37.400000000000006</ele><time>2026-04-19T17:23:52Z</time></trkpt><trkpt lat="43.836209515040174" lon="11.026331866671873"><ele>37.599999999999994</ele><time>2026-04-19T17:23:53Z</time></trkpt><trkpt lat="43.836122480306045" lon="11.026387297332384"><ele>37.8</ele><time>2026-04-19T17:23:54Z</time></trkpt><trkpt lat="43.83605467830748" lon="11.026422624429586"><ele>38.0</ele><time>2026-04-19T17:23:55Z</time></trkpt><trkpt lat="43.83598309921815" lon="11.02643281737664"><ele>38.14285714285714</ele><time>2026-04-19T17:23:58Z</time></trkpt><trkpt lat="43.83587315858954" lon="11.02643048623018"><ele>38.28571428571429</ele><time>2026-04-19T17:24:05Z</time></trkpt><trkpt lat="43.835807599521985" lon="11.02644855144286"><ele>38.42857142857143</ele><time>2026-04-19T17:24:06Z</time></trkpt><trkpt lat="43.835745902787394" lon="11.026470566095412"><ele>38.57142857142857</ele><time>2026-04-19T17:24:07Z</time></trkpt><trkpt lat="43.835679885443504" lon="11.026491565580487"><ele>38.71428571428571</ele><time>2026-04-19T17:24:08Z</time></trkpt><trkpt lat="43.83561089556893" lon="11.026485159738396"><ele>38.85714285714286</ele><time>2026-04-19T17:24:09Z</time></trkpt><trkpt lat="43.83554279470257" lon="11.026484761969584"><ele>39.0</ele><time>2026-04-19T17:24:10Z</time></trkpt><trkpt lat="43.835479292910684" lon="11.02639149614276"><ele>39.0</ele><time>2026-04-19T17:24:11Z</time></trkpt><trkpt lat="43.83540377483019" lon="11.026320853847672"><ele>39.0</ele><time>2026-04-19T17:24:12Z</time></trkpt><trkpt lat="43.83532022938492" lon="11.026213106481999"><ele>39.0</ele><time>2026-04-19T17:24:13Z</time></trkpt><trkpt lat="43.83523754680479" lon="11.026099050014947"><ele>39.0</ele><time>2026-04-19T17:24:14Z</time></trkpt><trkpt lat="43.83515944763007" lon="11.025978971287072"><ele>39.0</ele><time>2026-04-19T17:24:15Z</time></trkpt><trkpt lat="43.83508956218566" lon="11.025861972720252"><ele>39.166666666666664</ele><time>2026-04-19T17:24:16Z</time></trkpt><trkpt lat="43.83502427541274" lon="11.025758623638122"><ele>39.333333333333336</ele><time>2026-04-19T17:24:17Z</time></trkpt><trkpt lat="43.83496917168276" lon="11.025669039366035"><ele>39.5</ele><time>2026-04-19T17:24:18Z</time></trkpt><trkpt lat="43.83492637301569" lon="11.025596493837796"><ele>39.66666666666667</ele><time>2026-04-19T17:24:19Z</time></trkpt><trkpt lat="43.834882736002186" lon="11.02552726749262"><ele>39.833333333333336</ele><time>2026-04-19T17:24:21Z</time></trkpt><trkpt lat="43.834801762858106" lon="11.025444357782131"><ele>40.0</ele><time>2026-04-19T17:25:57Z</time></trkpt><trkpt lat="43.834743175946684" lon="11.02536358467887"><ele>40.0</ele><time>2026-04-19T17:25:58Z</time></trkpt><trkpt lat="43.83467282162395" lon="11.025269729280993"><ele>40.0</ele><time>2026-04-19T17:25:59Z</time></trkpt><trkpt lat="43.83457996290982" lon="11.02513934130401"><ele>40.0</ele><time>2026-04-19T17:26:00Z</time></trkpt><trkpt lat="43.834493080601554" lon="11.025020810116258"><ele>40.0</ele><time>2026-04-19T17:26:01Z</time></trkpt><trkpt lat="43.83439765198195" lon="11.024886933417172"><ele>39.5</ele><time>2026-04-19T17:26:02Z</time></trkpt><trkpt lat="43.83429293299081" lon="11.024739930483301"><ele>39.0</ele><time>2026-04-19T17:26:03Z</time></trkpt><trkpt lat="43.83419048742062" lon="11.024593906039145"><ele>38.5</ele><time>2026-04-19T17:26:04Z</time></trkpt><trkpt lat="43.834095880254495" lon="11.024461133607213"><ele>38.0</ele><time>2026-04-19T17:26:05Z</time></trkpt><trkpt lat="43.83399185823785" lon="11.024321182974647"><ele>38.0</ele><time>2026-04-19T17:26:06Z</time></trkpt><trkpt lat="43.83388616756778" lon="11.024175891392579"><ele>38.0</ele><time>2026-04-19T17:26:07Z</time></trkpt><trkpt lat="43.8337841269602" lon="11.02403842084898"><ele>38.0</ele><time>2026-04-19T17:26:08Z</time></trkpt><trkpt lat="43.83367812479061" lon="11.023896581105028"><ele>38.0</ele><time>2026-04-19T17:26:09Z</time></trkpt><trkpt lat="43.8335673517056" lon="11.023748886218696"><ele>38.25</ele><time>2026-04-19T17:26:10Z</time></trkpt><trkpt lat="43.8334698013563" lon="11.023624676607588"><ele>38.5</ele><time>2026-04-19T17:26:11Z</time></trkpt><trkpt lat="43.83338668960187" lon="11.023508168721714"><ele>38.75</ele><time>2026-04-19T17:26:12Z</time></trkpt><trkpt lat="43.8333032002199" lon="11.023399899189751"><ele>39.0</ele><time>2026-04-19T17:26:13Z</time></trkpt><trkpt lat="43.833216021342785" lon="11.02328225446486"><ele>39.333333333333336</ele><time>2026-04-19T17:26:14Z</time></trkpt><trkpt lat="43.833111739405716" lon="11.023143233045406"><ele>39.66666666666667</ele><time>2026-04-19T17:26:15Z</time></trkpt><trkpt lat="43.8329964123087" lon="11.022977742672483"><ele>40.0</ele><time>2026-04-19T17:26:16Z</time></trkpt><trkpt lat="43.83287395330786" lon="11.022789960114148"><ele>40.0</ele><time>2026-04-19T17:26:17Z</time></trkpt><trkpt lat="43.83275644205179" lon="11.022602117519082"><ele>40.0</ele><time>2026-04-19T17:26:18Z</time></trkpt><trkpt lat="43.832645751566574" lon="11.022428842737384"><ele>40.0</ele><time>2026-04-19T17:26:19Z</time></trkpt><trkpt lat="43.83253746336784" lon="11.022256282432005"><ele>39.75</ele><time>2026-04-19T17:26:20Z</time></trkpt><trkpt lat="43.832436057076485" lon="11.022087580315581"><ele>39.5</ele><time>2026-04-19T17:26:21Z</time></trkpt><trkpt lat="43.832346906281664" lon="11.021936802749602"><ele>39.25</ele><time>2026-04-19T17:26:22Z</time></trkpt><trkpt lat="43.83226281329798" lon="11.021790065484327"><ele>39.0</ele><time>2026-04-19T17:26:23Z</time></trkpt><trkpt lat="43.83217812506135" lon="11.021647248689524"><ele>39.4</ele><time>2026-04-19T17:26:24Z</time></trkpt><trkpt lat="43.83209916448695" lon="11.021523716067831"><ele>39.8</ele><time>2026-04-19T17:26:25Z</time></trkpt><trkpt lat="43.8320314957223" lon="11.021412702321596"><ele>40.199999999999996</ele><time>2026-04-19T17:26:26Z</time></trkpt><trkpt lat="43.83196744817941" lon="11.021314785663215"><ele>40.599999999999994</ele><time>2026-04-19T17:26:27Z</time></trkpt><trkpt lat="43.83191307243348" lon="11.021233771834833"><ele>41.0</ele><time>2026-04-19T17:26:28Z</time></trkpt><trkpt lat="43.83185832686374" lon="11.021098474249431"><ele>41.0</ele><time>2026-04-19T17:26:30Z</time></trkpt><trkpt lat="43.831840247202" lon="11.020915205959472"><ele>41.0</ele><time>2026-04-19T17:26:32Z</time></trkpt><trkpt lat="43.8319305171567" lon="11.020816922333303"><ele>41.0</ele><time>2026-04-19T17:26:34Z</time></trkpt><trkpt lat="43.831972307298386" lon="11.020739453008408"><ele>41.0</ele><time>2026-04-19T17:26:36Z</time></trkpt><trkpt lat="43.83183923413935" lon="11.020596410196008"><ele>41.0</ele><time>2026-04-19T17:26:40Z</time></trkpt><trkpt lat="43.83175931098158" lon="11.020580277095478"><ele>41.0</ele><time>2026-04-19T17:26:41Z</time></trkpt><trkpt lat="43.83169359444073" lon="11.020552810019057"><ele>41.0</ele><time>2026-04-19T17:26:42Z</time></trkpt><trkpt lat="43.83159150468098" lon="11.020510345577508"><ele>41.0</ele><time>2026-04-19T17:26:44Z</time></trkpt><trkpt lat="43.8316013674267" lon="11.020331085762464"><ele>41.0</ele><time>2026-04-19T17:26:45Z</time></trkpt><trkpt lat="43.83157115235951" lon="11.020198135434653"><ele>41.0</ele><time>2026-04-19T17:26:46Z</time></trkpt><trkpt lat="43.83156235158716" lon="11.020023549835916"><ele>41.0</ele><time>2026-04-19T17:26:47Z</time></trkpt><trkpt lat="43.83154854476027" lon="11.019853358632018"><ele>41.0</ele><time>2026-04-19T17:26:48Z</time></trkpt><trkpt lat="43.83153079575795" lon="11.01969916191745"><ele>41.0</ele><time>2026-04-19T17:26:49Z</time></trkpt><trkpt lat="43.83151605273838" lon="11.019547514056638"><ele>41.0</ele><time>2026-04-19T17:26:50Z</time></trkpt><trkpt lat="43.83150517750903" lon="11.019407543248004"><ele>41.0</ele><time>2026-04-19T17:26:51Z</time></trkpt><trkpt lat="43.83149375456927" lon="11.019272920747373"><ele>41.0</ele><time>2026-04-19T17:26:52Z</time></trkpt><trkpt lat="43.831476527162756" lon="11.019147920815987"><ele>41.0</ele><time>2026-04-19T17:26:53Z</time></trkpt><trkpt lat="43.83145826226542" lon="11.019046541023503"><ele>41.0</ele><time>2026-04-19T17:26:54Z</time></trkpt><trkpt lat="43.831456698447035" lon="11.018953332948337"><ele>41.0</ele><time>2026-04-19T17:26:55Z</time></trkpt><trkpt lat="43.83142341833322" lon="11.018875501833552"><ele>40.599999999999994</ele><time>2026-04-19T17:26:56Z</time></trkpt><trkpt lat="43.83135818777138" lon="11.018806770823009"><ele>40.199999999999996</ele><time>2026-04-19T17:26:57Z</time></trkpt><trkpt lat="43.83126320448379" lon="11.01877546215648"><ele>39.8</ele><time>2026-04-19T17:26:58Z</time></trkpt><trkpt lat="43.83115196483247" lon="11.018831634924299"><ele>39.4</ele><time>2026-04-19T17:26:59Z</time></trkpt><trkpt lat="43.83104346168531" lon="11.018854856986513"><ele>39.0</ele><time>2026-04-19T17:27:00Z</time></trkpt><trkpt lat="43.83093857795489" lon="11.018887371601583"><ele>39.833333333333336</ele><time>2026-04-19T17:27:01Z</time></trkpt><trkpt lat="43.83084762833401" lon="11.01890827321702"><ele>40.666666666666664</ele><time>2026-04-19T17:27:02Z</time></trkpt><trkpt lat="43.830758467993796" lon="11.018911527725178"><ele>41.5</ele><time>2026-04-19T17:27:03Z</time></trkpt><trkpt lat="43.830673914323825" lon="11.018894461929815"><ele>42.33333333333333</ele><time>2026-04-19T17:27:04Z</time></trkpt><trkpt lat="43.83059615512712" lon="11.01886305941939"><ele>43.166666666666664</ele><time>2026-04-19T17:27:05Z</time></trkpt><trkpt lat="43.830532211448606" lon="11.018828653753658"><ele>44.0</ele><time>2026-04-19T17:27:06Z</time></trkpt><trkpt lat="43.83046915902879" lon="11.018797551647062"><ele>44.0</ele><time>2026-04-19T17:27:07Z</time></trkpt><trkpt lat="43.8303922472845" lon="11.01876423652596"><ele>44.0</ele><time>2026-04-19T17:27:08Z</time></trkpt><trkpt lat="43.8303040597537" lon="11.018715697056503"><ele>44.0</ele><time>2026-04-19T17:27:09Z</time></trkpt><trkpt lat="43.83020051242959" lon="11.018649895947336"><ele>44.0</ele><time>2026-04-19T17:27:10Z</time></trkpt><trkpt lat="43.830091797505524" lon="11.018585542898931"><ele>44.0</ele><time>2026-04-19T17:27:11Z</time></trkpt><trkpt lat="43.82999605607298" lon="11.018530085078552"><ele>44.166666666666664</ele><time>2026-04-19T17:27:12Z</time></trkpt><trkpt lat="43.82991436099015" lon="11.018483936231162"><ele>44.33333333333333</ele><time>2026-04-19T17:27:13Z</time></trkpt><trkpt lat="43.829844370523574" lon="11.018437569489747"><ele>44.5</ele><time>2026-04-19T17:27:14Z</time></trkpt><trkpt lat="43.82977937468135" lon="11.018384085770535"><ele>44.666666666666664</ele><time>2026-04-19T17:27:15Z</time></trkpt><trkpt lat="43.82972567050806" lon="11.018315498763513"><ele>44.833333333333336</ele><time>2026-04-19T17:27:16Z</time></trkpt><trkpt lat="43.82967474075677" lon="11.01823720179339"><ele>45.0</ele><time>2026-04-19T17:27:17Z</time></trkpt><trkpt lat="43.82960740291655" lon="11.018129342749877"><ele>45.0</ele><time>2026-04-19T17:27:19Z</time></trkpt><trkpt lat="43.8295642429661" lon="11.018057144003825"><ele>45.0</ele><time>2026-04-19T17:27:21Z</time></trkpt><trkpt lat="43.82951246535485" lon="11.018131411697537"><ele>45.0</ele><time>2026-04-19T17:28:04Z</time></trkpt><trkpt lat="43.82951892559637" lon="11.018347039637918"><ele>45.0</ele><time>2026-04-19T17:28:05Z</time></trkpt><trkpt lat="43.82956896426204" lon="11.018413441922688"><ele>45.0</ele><time>2026-04-19T17:28:06Z</time></trkpt><trkpt lat="43.82964595086353" lon="11.01851501175156"><ele>45.0</ele><time>2026-04-19T17:28:08Z</time></trkpt><trkpt lat="43.82976698848039" lon="11.018428253200655"><ele>45.0</ele><time>2026-04-19T17:28:09Z</time></trkpt><trkpt lat="43.829777414901024" lon="11.018545706941703"><ele>45.0</ele><time>2026-04-19T17:28:11Z</time></trkpt><trkpt lat="43.8297507555591" lon="11.018626527559341"><ele>45.0</ele><time>2026-04-19T17:28:12Z</time></trkpt><trkpt lat="43.82967725279994" lon="11.01867384750084"><ele>45.0</ele><time>2026-04-19T17:28:13Z</time></trkpt><trkpt lat="43.829637976497956" lon="11.018742214406222"><ele>45.0</ele><time>2026-04-19T17:28:14Z</time></trkpt><trkpt lat="43.8295871244749" lon="11.01882644465202"><ele>45.0</ele><time>2026-04-19T17:28:16Z</time></trkpt><trkpt lat="43.82963541828328" lon="11.018953072417743"><ele>45.0</ele><time>2026-04-19T17:28:18Z</time></trkpt><trkpt lat="43.82970646993817" lon="11.019043842536595"><ele>45.0</ele><time>2026-04-19T17:28:20Z</time></trkpt><trkpt lat="43.82976788505435" lon="11.01913069793474"><ele>45.0</ele><time>2026-04-19T17:29:00Z</time></trkpt><trkpt lat="43.82986971859524" lon="11.019265444889847"><ele>45.0</ele><time>2026-04-19T17:29:02Z</time></trkpt><trkpt lat="43.82994589260236" lon="11.019335053739221"><ele>45.166666666666664</ele><time>2026-04-19T17:29:03Z</time></trkpt><trkpt lat="43.83000750974967" lon="11.019374569315453"><ele>45.333333333333336</ele><time>2026-04-19T17:29:04Z</time></trkpt><trkpt lat="43.83009790446914" lon="11.019408799281162"><ele>45.5</ele><time>2026-04-19T17:29:06Z</time></trkpt><trkpt lat="43.83016264075792" lon="11.019429385638944"><ele>45.66666666666667</ele><time>2026-04-19T17:29:09Z</time></trkpt><trkpt lat="43.83012154997189" lon="11.019544771205272"><ele>45.833333333333336</ele><time>2026-04-19T17:29:10Z</time></trkpt><trkpt lat="43.83009594850863" lon="11.019636283027411"><ele>46.0</ele><time>2026-04-19T17:29:11Z</time></trkpt><trkpt lat="43.83007136141036" lon="11.019725507141178"><ele>46.0</ele><time>2026-04-19T17:29:12Z</time></trkpt><trkpt lat="43.83003544396668" lon="11.019812784010496"><ele>46.0</ele><time>2026-04-19T17:29:15Z</time></trkpt><trkpt lat="43.82994186679378" lon="11.019832134074152"><ele>46.0</ele><time>2026-04-19T17:29:18Z</time></trkpt><trkpt lat="43.82987684292121" lon="11.019779269365882"><ele>46.0</ele><time>2026-04-19T17:29:19Z</time></trkpt><trkpt lat="43.82979026429536" lon="11.019732687476981"><ele>46.0</ele><time>2026-04-19T17:29:20Z</time></trkpt><trkpt lat="43.82971587438885" lon="11.019672159236647"><ele>46.0</ele><time>2026-04-19T17:29:21Z</time></trkpt><trkpt lat="43.82962411185044" lon="11.019617851384846"><ele>46.0</ele><time>2026-04-19T17:29:23Z</time></trkpt><trkpt lat="43.829544326381864" lon="11.019554067290139"><ele>46.0</ele><time>2026-04-19T17:29:25Z</time></trkpt><trkpt lat="43.82947096953532" lon="11.01950923468835"><ele>46.0</ele><time>2026-04-19T17:29:33Z</time></trkpt><trkpt lat="43.829366127864304" lon="11.019427811873863"><ele>46.0</ele><time>2026-04-19T17:29:35Z</time></trkpt><trkpt lat="43.82931538399069" lon="11.01936776932219"><ele>46.0</ele><time>2026-04-19T17:29:37Z</time></trkpt><trkpt lat="43.829256097669955" lon="11.01930791119167"><ele>46.0</ele><time>2026-04-19T17:29:40Z</time></trkpt><trkpt lat="43.82920949480386" lon="11.019409585846516"><ele>46.4</ele><time>2026-04-19T17:29:41Z</time></trkpt><trkpt lat="43.82915862165139" lon="11.019528946417495"><ele>46.8</ele><time>2026-04-19T17:29:49Z</time></trkpt><trkpt lat="43.8290963582228" lon="11.01959761769637"><ele>47.199999999999996</ele><time>2026-04-19T17:29:50Z</time></trkpt><trkpt lat="43.82900164787139" lon="11.019679869423756"><ele>47.599999999999994</ele><time>2026-04-19T17:29:51Z</time></trkpt><trkpt lat="43.82890757001709" lon="11.019781297158822"><ele>48.0</ele><time>2026-04-19T17:29:52Z</time></trkpt><trkpt lat="43.828808357603414" lon="11.019883646669845"><ele>48.0</ele><time>2026-04-19T17:29:53Z</time></trkpt><trkpt lat="43.82871005852557" lon="11.019982759864176"><ele>48.0</ele><time>2026-04-19T17:29:54Z</time></trkpt><trkpt lat="43.828594470826346" lon="11.02006908545779"><ele>48.0</ele><time>2026-04-19T17:29:55Z</time></trkpt><trkpt lat="43.82850108821462" lon="11.020179709935181"><ele>48.0</ele><time>2026-04-19T17:29:56Z</time></trkpt><trkpt lat="43.828395940672145" lon="11.02027481316601"><ele>47.75</ele><time>2026-04-19T17:29:57Z</time></trkpt><trkpt lat="43.8282925008321" lon="11.020369089505106"><ele>47.5</ele><time>2026-04-19T17:29:58Z</time></trkpt><trkpt lat="43.82818830907192" lon="11.020439225093353"><ele>47.25</ele><time>2026-04-19T17:29:59Z</time></trkpt><trkpt lat="43.82809705017646" lon="11.02052136966413"><ele>47.0</ele><time>2026-04-19T17:30:00Z</time></trkpt><trkpt lat="43.82800865492479" lon="11.020601419124635"><ele>47.0</ele><time>2026-04-19T17:30:01Z</time></trkpt><trkpt lat="43.827928603543405" lon="11.020701678035191"><ele>47.0</ele><time>2026-04-19T17:30:02Z</time></trkpt><trkpt lat="43.8278159485238" lon="11.020783636797873"><ele>47.0</ele><time>2026-04-19T17:30:03Z</time></trkpt><trkpt lat="43.827704274278624" lon="11.020888825521968"><ele>47.0</ele><time>2026-04-19T17:30:04Z</time></trkpt><trkpt lat="43.82760170260246" lon="11.020981022238802"><ele>47.2</ele><time>2026-04-19T17:30:05Z</time></trkpt><trkpt lat="43.827515793255074" lon="11.02105011605857"><ele>47.400000000000006</ele><time>2026-04-19T17:30:06Z</time></trkpt><trkpt lat="43.82741975392127" lon="11.021120103973109"><ele>47.599999999999994</ele><time>2026-04-19T17:30:07Z</time></trkpt><trkpt lat="43.82732364346394" lon="11.02117878844373"><ele>47.8</ele><time>2026-04-19T17:30:08Z</time></trkpt><trkpt lat="43.827226042959325" lon="11.021222849551208"><ele>48.0</ele><time>2026-04-19T17:30:09Z</time></trkpt><trkpt lat="43.82712566511607" lon="11.021275823364004"><ele>48.0</ele><time>2026-04-19T17:30:10Z</time></trkpt><trkpt lat="43.82701517396385" lon="11.021305055187318"><ele>48.0</ele><time>2026-04-19T17:30:11Z</time></trkpt><trkpt lat="43.826913294384426" lon="11.021327310105558"><ele>48.0</ele><time>2026-04-19T17:30:12Z</time></trkpt><trkpt lat="43.82681774258291" lon="11.021341633985124"><ele>48.0</ele><time>2026-04-19T17:30:13Z</time></trkpt><trkpt lat="43.82671329353799" lon="11.0213451081565"><ele>48.0</ele><time>2026-04-19T17:30:14Z</time></trkpt><trkpt lat="43.82660397080133" lon="11.021372666091207"><ele>48.0</ele><time>2026-04-19T17:30:15Z</time></trkpt><trkpt lat="43.826497925084546" lon="11.021403370344636"><ele>48.0</ele><time>2026-04-19T17:30:16Z</time></trkpt><trkpt lat="43.82640564407886" lon="11.021450164968213"><ele>48.0</ele><time>2026-04-19T17:30:17Z</time></trkpt><trkpt lat="43.826330846435916" lon="11.021520336306319"><ele>48.0</ele><time>2026-04-19T17:30:18Z</time></trkpt><trkpt lat="43.82626184855411" lon="11.0216228433255"><ele>48.0</ele><time>2026-04-19T17:30:19Z</time></trkpt><trkpt lat="43.82619679520994" lon="11.021769502643346"><ele>48.0</ele><time>2026-04-19T17:30:20Z</time></trkpt><trkpt lat="43.826136085035564" lon="11.021938632830906"><ele>48.0</ele><time>2026-04-19T17:30:21Z</time></trkpt><trkpt lat="43.82607924077552" lon="11.022081738859741"><ele>48.0</ele><time>2026-04-19T17:30:22Z</time></trkpt><trkpt lat="43.82602680947689" lon="11.022193749535365"><ele>48.0</ele><time>2026-04-19T17:30:23Z</time></trkpt><trkpt lat="43.8259937849381" lon="11.022303710562351"><ele>48.0</ele><time>2026-04-19T17:30:24Z</time></trkpt><trkpt lat="43.826008818077476" lon="11.022432449422032"><ele>48.0</ele><time>2026-04-19T17:30:25Z</time></trkpt><trkpt lat="43.82602502027873" lon="11.02255917406479"><ele>48.0</ele><time>2026-04-19T17:30:26Z</time></trkpt><trkpt lat="43.82608534031281" lon="11.022691764066264"><ele>48.0</ele><time>2026-04-19T17:30:27Z</time></trkpt><trkpt lat="43.826143989270285" lon="11.02282214136977"><ele>48.0</ele><time>2026-04-19T17:30:28Z</time></trkpt><trkpt lat="43.826230054637854" lon="11.022929496905052"><ele>48.0</ele><time>2026-04-19T17:30:29Z</time></trkpt><trkpt lat="43.82625862103982" lon="11.023043480404588"><ele>48.0</ele><time>2026-04-19T17:30:30Z</time></trkpt><trkpt lat="43.826315708019855" lon="11.023123911911526"><ele>48.0</ele><time>2026-04-19T17:30:31Z</time></trkpt><trkpt lat="43.826355118589724" lon="11.02319386745764"><ele>48.0</ele><time>2026-04-19T17:30:32Z</time></trkpt><trkpt lat="43.82637563899396" lon="11.023332068951662"><ele>48.0</ele><time>2026-04-19T17:30:34Z</time></trkpt><trkpt lat="43.82634354871427" lon="11.023422520863296"><ele>48.0</ele><time>2026-04-19T17:30:35Z</time></trkpt><trkpt lat="43.826295615574466" lon="11.02349686411594"><ele>48.0</ele><time>2026-04-19T17:30:36Z</time></trkpt><trkpt lat="43.82622361995304" lon="11.023516277764717"><ele>48.666666666666664</ele><time>2026-04-19T17:30:37Z</time></trkpt><trkpt lat="43.82615191603826" lon="11.023551803314088"><ele>49.33333333333333</ele><time>2026-04-19T17:30:38Z</time></trkpt><trkpt lat="43.826067780405126" lon="11.02351791687087"><ele>50.0</ele><time>2026-04-19T17:30:39Z</time></trkpt><trkpt lat="43.82600421014057" lon="11.023417355185694"><ele>50.666666666666664</ele><time>2026-04-19T17:30:40Z</time></trkpt><trkpt lat="43.825924505489546" lon="11.023353815658227"><ele>51.33333333333333</ele><time>2026-04-19T17:30:41Z</time></trkpt><trkpt lat="43.825862930815546" lon="11.023270235560334"><ele>52.0</ele><time>2026-04-19T17:30:42Z</time></trkpt><trkpt lat="43.82579636864946" lon="11.02321369974972"><ele>52.0</ele><time>2026-04-19T17:30:43Z</time></trkpt><trkpt lat="43.82570255622686" lon="11.02316281129926"><ele>52.0</ele><time>2026-04-19T17:30:44Z</time></trkpt><trkpt lat="43.82560778695095" lon="11.02314287627265"><ele>52.0</ele><time>2026-04-19T17:30:45Z</time></trkpt><trkpt lat="43.82551491424561" lon="11.02314237254417"><ele>52.0</ele><time>2026-04-19T17:30:46Z</time></trkpt><trkpt lat="43.82541563256988" lon="11.023160785341279"><ele>52.0</ele><time>2026-04-19T17:30:47Z</time></trkpt><trkpt lat="43.82532140720752" lon="11.023194919365821"><ele>51.99999999999999</ele><time>2026-04-19T17:30:48Z</time></trkpt><trkpt lat="43.82523761926308" lon="11.023242038735455"><ele>52.0</ele><time>2026-04-19T17:30:49Z</time></trkpt><trkpt lat="43.82516691920751" lon="11.02329108873068"><ele>52.0</ele><time>2026-04-19T17:30:50Z</time></trkpt><trkpt lat="43.825108514588635" lon="11.023367094498807"><ele>52.0</ele><time>2026-04-19T17:30:51Z</time></trkpt><trkpt lat="43.82505305801736" lon="11.023465273506316"><ele>51.99999999999999</ele><time>2026-04-19T17:30:52Z</time></trkpt><trkpt lat="43.825008713596056" lon="11.023595262366616"><ele>52.0</ele><time>2026-04-19T17:30:53Z</time></trkpt><trkpt lat="43.82497428683712" lon="11.02373458352491"><ele>54.5</ele><time>2026-04-19T17:30:54Z</time></trkpt><trkpt lat="43.82495320596131" lon="11.023874155012349"><ele>57.0</ele><time>2026-04-19T17:30:55Z</time></trkpt><trkpt lat="43.82493003405135" lon="11.024035191863295"><ele>59.5</ele><time>2026-04-19T17:30:56Z</time></trkpt><trkpt lat="43.824904413630044" lon="11.024209561459902"><ele>62.0</ele><time>2026-04-19T17:30:57Z</time></trkpt><trkpt lat="43.82487896625453" lon="11.02438609255536"><ele>64.25</ele><time>2026-04-19T17:30:58Z</time></trkpt><trkpt lat="43.82484888093757" lon="11.024543926391162"><ele>66.5</ele><time>2026-04-19T17:30:59Z</time></trkpt><trkpt lat="43.824808808266496" lon="11.02468354934008"><ele>68.75</ele><time>2026-04-19T17:31:00Z</time></trkpt><trkpt lat="43.82475100469824" lon="11.024821673133564"><ele>71.0</ele><time>2026-04-19T17:31:01Z</time></trkpt><trkpt lat="43.82467931750844" lon="11.024954532888664"><ele>72.0</ele><time>2026-04-19T17:31:02Z</time></trkpt><trkpt lat="43.82459144778023" lon="11.025083877415073"><ele>73.0</ele><time>2026-04-19T17:31:03Z</time></trkpt><trkpt lat="43.82449202376735" lon="11.025203025919856"><ele>74.0</ele><time>2026-04-19T17:31:04Z</time></trkpt><trkpt lat="43.824388320958015" lon="11.025301931343847"><ele>75.0</ele><time>2026-04-19T17:31:05Z</time></trkpt><trkpt lat="43.82428856183394" lon="11.025373980424227"><ele>75.0</ele><time>2026-04-19T17:31:06Z</time></trkpt><trkpt lat="43.82419105232456" lon="11.025438608019684"><ele>75.0</ele><time>2026-04-19T17:31:07Z</time></trkpt><trkpt lat="43.82410390067424" lon="11.025488491190718"><ele>75.0</ele><time>2026-04-19T17:31:08Z</time></trkpt><trkpt lat="43.824008786149754" lon="11.025513165891207"><ele>75.0</ele><time>2026-04-19T17:31:09Z</time></trkpt><trkpt lat="43.823920832516706" lon="11.025503662039112"><ele>75.0</ele><time>2026-04-19T17:31:10Z</time></trkpt><trkpt lat="43.82383261821064" lon="11.025475672973375"><ele>75.0</ele><time>2026-04-19T17:31:11Z</time></trkpt><trkpt lat="43.82373642670172" lon="11.025394420912265"><ele>75.0</ele><time>2026-04-19T17:31:12Z</time></trkpt><trkpt lat="43.82362973205935" lon="11.025281826765022"><ele>75.0</ele><time>2026-04-19T17:31:13Z</time></trkpt><trkpt lat="43.823524127392105" lon="11.025170458605757"><ele>75.0</ele><time>2026-04-19T17:31:14Z</time></trkpt><trkpt lat="43.82343177950083" lon="11.025076728577075"><ele>74.6</ele><time>2026-04-19T17:31:15Z</time></trkpt><trkpt lat="43.82335200605662" lon="11.024996687673195"><ele>74.2</ele><time>2026-04-19T17:31:16Z</time></trkpt><trkpt lat="43.8232668887878" lon="11.024932076290149"><ele>73.8</ele><time>2026-04-19T17:31:17Z</time></trkpt><trkpt lat="43.823179068552015" lon="11.024898608328591"><ele>73.4</ele><time>2026-04-19T17:31:18Z</time></trkpt><trkpt lat="43.823095798956786" lon="11.024891112156423"><ele>73.0</ele><time>2026-04-19T17:31:19Z</time></trkpt><trkpt lat="43.82301060203396" lon="11.024903906602557"><ele>73.0</ele><time>2026-04-19T17:31:20Z</time></trkpt><trkpt lat="43.82291870816447" lon="11.024942690906162"><ele>73.0</ele><time>2026-04-19T17:31:21Z</time></trkpt><trkpt lat="43.82280928760847" lon="11.025010814750294"><ele>73.0</ele><time>2026-04-19T17:31:22Z</time></trkpt><trkpt lat="43.8226829227621" lon="11.025092630917968"><ele>73.0</ele><time>2026-04-19T17:31:23Z</time></trkpt><trkpt lat="43.82254857457507" lon="11.025169328908174"><ele>76.25</ele><time>2026-04-19T17:31:24Z</time></trkpt><trkpt lat="43.822421524573954" lon="11.025237084963576"><ele>79.5</ele><time>2026-04-19T17:31:25Z</time></trkpt><trkpt lat="43.82230269343806" lon="11.025294013369875"><ele>82.75</ele><time>2026-04-19T17:31:26Z</time></trkpt><trkpt lat="43.82218561284569" lon="11.025337978913582"><ele>86.0</ele><time>2026-04-19T17:31:27Z</time></trkpt><trkpt lat="43.822059623492805" lon="11.025360395555628"><ele>86.0</ele><time>2026-04-19T17:31:28Z</time></trkpt><trkpt lat="43.821935117253545" lon="11.025370801310906"><ele>86.0</ele><time>2026-04-19T17:31:29Z</time></trkpt><trkpt lat="43.82181679552613" lon="11.025380423820387"><ele>86.0</ele><time>2026-04-19T17:31:30Z</time></trkpt><trkpt lat="43.821703133028485" lon="11.025374598755063"><ele>86.0</ele><time>2026-04-19T17:31:31Z</time></trkpt><trkpt lat="43.821592198699335" lon="11.025345881102442"><ele>87.75</ele><time>2026-04-19T17:31:32Z</time></trkpt><trkpt lat="43.82148529238687" lon="11.025282739969413"><ele>89.5</ele><time>2026-04-19T17:31:33Z</time></trkpt><trkpt lat="43.82138031314646" lon="11.02519251859624"><ele>91.25</ele><time>2026-04-19T17:31:34Z</time></trkpt><trkpt lat="43.8212851535986" lon="11.025102366499318"><ele>93.0</ele><time>2026-04-19T17:31:35Z</time></trkpt><trkpt lat="43.821183449059006" lon="11.02500933897044"><ele>93.25</ele><time>2026-04-19T17:31:36Z</time></trkpt><trkpt lat="43.821057612361066" lon="11.024954926285425"><ele>93.5</ele><time>2026-04-19T17:31:37Z</time></trkpt><trkpt lat="43.82091494338665" lon="11.02491300552257"><ele>93.75</ele><time>2026-04-19T17:31:38Z</time></trkpt><trkpt lat="43.82077574987615" lon="11.024866520425643"><ele>94.0</ele><time>2026-04-19T17:31:39Z</time></trkpt><trkpt lat="43.82064949432155" lon="11.024830287430733"><ele>94.0</ele><time>2026-04-19T17:31:40Z</time></trkpt><trkpt lat="43.82054591260274" lon="11.024805344337343"><ele>94.0</ele><time>2026-04-19T17:31:41Z</time></trkpt><trkpt lat="43.82044178984579" lon="11.024793811771065"><ele>94.0</ele><time>2026-04-19T17:31:42Z</time></trkpt><trkpt lat="43.820336534949064" lon="11.02479401912225"><ele>94.0</ele><time>2026-04-19T17:31:43Z</time></trkpt><trkpt lat="43.820230596574426" lon="11.02480719898608"><ele>94.0</ele><time>2026-04-19T17:31:44Z</time></trkpt><trkpt lat="43.820129088201824" lon="11.024785922248899"><ele>97.25</ele><time>2026-04-19T17:31:45Z</time></trkpt><trkpt lat="43.82002935321482" lon="11.024771781401867"><ele>100.5</ele><time>2026-04-19T17:31:46Z</time></trkpt><trkpt lat="43.8199235606564" lon="11.024755683259167"><ele>103.75</ele><time>2026-04-19T17:31:47Z</time></trkpt><trkpt lat="43.81982767112426" lon="11.024633088134538"><ele>107.0</ele><time>2026-04-19T17:31:48Z</time></trkpt><trkpt lat="43.81970633476795" lon="11.024504612860357"><ele>107.0</ele><time>2026-04-19T17:31:49Z</time></trkpt><trkpt lat="43.81958046731267" lon="11.024388960455347"><ele>107.0</ele><time>2026-04-19T17:31:50Z</time></trkpt><trkpt lat="43.819483536139714" lon="11.024272234021678"><ele>107.0</ele><time>2026-04-19T17:31:51Z</time></trkpt><trkpt lat="43.81939231943935" lon="11.024171748664271"><ele>107.0</ele><time>2026-04-19T17:31:52Z</time></trkpt><trkpt lat="43.81931545541642" lon="11.024080197767917"><ele>110.39999999999999</ele><time>2026-04-19T17:31:53Z</time></trkpt><trkpt lat="43.81926984532338" lon="11.02396914704632"><ele>113.79999999999998</ele><time>2026-04-19T17:31:54Z</time></trkpt><trkpt lat="43.819226790766514" lon="11.023858697068878"><ele>117.2</ele><time>2026-04-19T17:31:55Z</time></trkpt><trkpt lat="43.81919049144337" lon="11.023741813501944"><ele>120.6</ele><time>2026-04-19T17:31:56Z</time></trkpt><trkpt lat="43.81920087256786" lon="11.023589768666422"><ele>124.0</ele><time>2026-04-19T17:31:57Z</time></trkpt><trkpt lat="43.81923983594504" lon="11.023428535225467"><ele>124.25</ele><time>2026-04-19T17:31:58Z</time></trkpt><trkpt lat="43.8193026045453" lon="11.023281497799536"><ele>124.5</ele><time>2026-04-19T17:31:59Z</time></trkpt><trkpt lat="43.8194019388175" lon="11.023171877465822"><ele>124.75</ele><time>2026-04-19T17:32:00Z</time></trkpt><trkpt lat="43.81949889577079" lon="11.02301943196527"><ele>125.0</ele><time>2026-04-19T17:32:01Z</time></trkpt><trkpt lat="43.819623739105154" lon="11.02287963384446"><ele>125.0</ele><time>2026-04-19T17:32:02Z</time></trkpt><trkpt lat="43.81973647429775" lon="11.022742439067244"><ele>125.0</ele><time>2026-04-19T17:32:03Z</time></trkpt><trkpt lat="43.81984885166938" lon="11.02260701532371"><ele>125.0</ele><time>2026-04-19T17:32:04Z</time></trkpt><trkpt lat="43.81995170706831" lon="11.022498482476113"><ele>125.0</ele><time>2026-04-19T17:32:05Z</time></trkpt><trkpt lat="43.82005668924071" lon="11.022391722696252"><ele>126.0</ele><time>2026-04-19T17:32:06Z</time></trkpt><trkpt lat="43.820156850955364" lon="11.022296790684397"><ele>127.0</ele><time>2026-04-19T17:32:07Z</time></trkpt><trkpt lat="43.82029916011344" lon="11.022183168498794"><ele>128.0</ele><time>2026-04-19T17:32:08Z</time></trkpt><trkpt lat="43.82038408677916" lon="11.02208436227316"><ele>129.0</ele><time>2026-04-19T17:32:09Z</time></trkpt><trkpt lat="43.820488109726845" lon="11.021982412223226"><ele>129.0</ele><time>2026-04-19T17:32:10Z</time></trkpt><trkpt lat="43.82056586046135" lon="11.02188952395423"><ele>129.0</ele><time>2026-04-19T17:32:11Z</time></trkpt><trkpt lat="43.82064393807921" lon="11.021808671200077"><ele>129.0</ele><time>2026-04-19T17:32:12Z</time></trkpt><trkpt lat="43.82071357342746" lon="11.021729702836652"><ele>129.0</ele><time>2026-04-19T17:32:13Z</time></trkpt><trkpt lat="43.820771099925956" lon="11.021655814575887"><ele>129.0</ele><time>2026-04-19T17:32:14Z</time></trkpt><trkpt lat="43.8208190706885" lon="11.021589313808004"><ele>129.0</ele><time>2026-04-19T17:32:15Z</time></trkpt><trkpt lat="43.82085774410231" lon="11.02149807769778"><ele>130.66666666666666</ele><time>2026-04-19T17:32:16Z</time></trkpt><trkpt lat="43.82090320751704" lon="11.021388885169838"><ele>132.33333333333334</ele><time>2026-04-19T17:32:17Z</time></trkpt><trkpt lat="43.820926904522516" lon="11.021287149086014"><ele>134.0</ele><time>2026-04-19T17:32:18Z</time></trkpt><trkpt lat="43.820940391247596" lon="11.021192927139278"><ele>135.66666666666669</ele><time>2026-04-19T17:32:19Z</time></trkpt><trkpt lat="43.8209500122822" lon="11.02108098711285"><ele>137.33333333333334</ele><time>2026-04-19T17:32:20Z</time></trkpt><trkpt lat="43.82090824511097" lon="11.020951126295923"><ele>139.0</ele><time>2026-04-19T17:32:21Z</time></trkpt><trkpt lat="43.820848193608434" lon="11.020831044890178"><ele>138.0</ele><time>2026-04-19T17:32:22Z</time></trkpt><trkpt lat="43.820779969697696" lon="11.02070720069901"><ele>137.0</ele><time>2026-04-19T17:32:23Z</time></trkpt><trkpt lat="43.8207129968915" lon="11.020582608134768"><ele>136.0</ele><time>2026-04-19T17:32:24Z</time></trkpt><trkpt lat="43.82064483609643" lon="11.020470394182219"><ele>135.0</ele><time>2026-04-19T17:32:25Z</time></trkpt><trkpt lat="43.820559055699164" lon="11.020373570013634"><ele>134.0</ele><time>2026-04-19T17:32:26Z</time></trkpt><trkpt lat="43.8204632321234" lon="11.020286041381663"><ele>134.0</ele><time>2026-04-19T17:32:27Z</time></trkpt><trkpt lat="43.82036660260708" lon="11.020211834398205"><ele>134.0</ele><time>2026-04-19T17:32:28Z</time></trkpt><trkpt lat="43.82027572360328" lon="11.02014528908568"><ele>134.0</ele><time>2026-04-19T17:32:29Z</time></trkpt><trkpt lat="43.8201975495231" lon="11.020086178731908"><ele>134.0</ele><time>2026-04-19T17:32:30Z</time></trkpt><trkpt lat="43.820125385214574" lon="11.020038013868806"><ele>134.0</ele><time>2026-04-19T17:32:31Z</time></trkpt><trkpt lat="43.82005854074121" lon="11.02001150532844"><ele>136.16666666666666</ele><time>2026-04-19T17:32:32Z</time></trkpt><trkpt lat="43.819995153209824" lon="11.020002244743143"><ele>138.33333333333331</ele><time>2026-04-19T17:32:33Z</time></trkpt><trkpt lat="43.819919852978096" lon="11.019990001389367"><ele>140.5</ele><time>2026-04-19T17:32:34Z</time></trkpt><trkpt lat="43.81984194970729" lon="11.020027392891302"><ele>142.66666666666666</ele><time>2026-04-19T17:32:35Z</time></trkpt><trkpt lat="43.819771721440425" lon="11.020120949987882"><ele>144.83333333333334</ele><time>2026-04-19T17:32:36Z</time></trkpt><trkpt lat="43.81971094676709" lon="11.020228948880973"><ele>147.0</ele><time>2026-04-19T17:32:37Z</time></trkpt><trkpt lat="43.819643885371256" lon="11.020330757383551"><ele>147.0</ele><time>2026-04-19T17:32:38Z</time></trkpt><trkpt lat="43.81958129277032" lon="11.020432372596465"><ele>147.0</ele><time>2026-04-19T17:32:39Z</time></trkpt><trkpt lat="43.81951805392824" lon="11.020540667195606"><ele>147.0</ele><time>2026-04-19T17:32:40Z</time></trkpt><trkpt lat="43.81944614734621" lon="11.020626760510677"><ele>147.0</ele><time>2026-04-19T17:32:41Z</time></trkpt><trkpt lat="43.819372021240326" lon="11.020691309816257"><ele>147.0</ele><time>2026-04-19T17:32:42Z</time></trkpt><trkpt lat="43.81928993036506" lon="11.020738843029816"><ele>144.75</ele><time>2026-04-19T17:32:43Z</time></trkpt><trkpt lat="43.81918790209449" lon="11.020768574096916"><ele>142.5</ele><time>2026-04-19T17:32:44Z</time></trkpt><trkpt lat="43.81906709098301" lon="11.020780337830043"><ele>140.25</ele><time>2026-04-19T17:32:45Z</time></trkpt><trkpt lat="43.81892592505385" lon="11.020775515423482"><ele>138.0</ele><time>2026-04-19T17:32:46Z</time></trkpt><trkpt lat="43.81876918302287" lon="11.020762458973346"><ele>138.0</ele><time>2026-04-19T17:32:47Z</time></trkpt><trkpt lat="43.818638884781684" lon="11.02074745417061"><ele>138.0</ele><time>2026-04-19T17:32:48Z</time></trkpt><trkpt lat="43.81852557391877" lon="11.02073011043776"><ele>138.0</ele><time>2026-04-19T17:32:49Z</time></trkpt><trkpt lat="43.81841791247295" lon="11.020703017652467"><ele>138.0</ele><time>2026-04-19T17:32:50Z</time></trkpt><trkpt lat="43.81832934829496" lon="11.02067277030795"><ele>138.0</ele><time>2026-04-19T17:32:51Z</time></trkpt><trkpt lat="43.818262755922824" lon="11.02064864754118"><ele>138.16666666666666</ele><time>2026-04-19T17:32:52Z</time></trkpt><trkpt lat="43.818196457053396" lon="11.020641415984969"><ele>138.33333333333334</ele><time>2026-04-19T17:32:53Z</time></trkpt><trkpt lat="43.81813320995039" lon="11.020663051408727"><ele>138.5</ele><time>2026-04-19T17:32:54Z</time></trkpt><trkpt lat="43.81807330706488" lon="11.02072340747897"><ele>138.66666666666669</ele><time>2026-04-19T17:32:55Z</time></trkpt><trkpt lat="43.81802205839005" lon="11.020821487267913"><ele>138.83333333333334</ele><time>2026-04-19T17:32:56Z</time></trkpt><trkpt lat="43.817963629583616" lon="11.020940717969314"><ele>139.0</ele><time>2026-04-19T17:32:57Z</time></trkpt><trkpt lat="43.8179008577712" lon="11.021048926070046"><ele>142.16666666666669</ele><time>2026-04-19T17:32:58Z</time></trkpt><trkpt lat="43.817832521471026" lon="11.021136193520872"><ele>145.33333333333334</ele><time>2026-04-19T17:32:59Z</time></trkpt><trkpt lat="43.817757776173465" lon="11.021193603263324"><ele>148.5</ele><time>2026-04-19T17:33:00Z</time></trkpt><trkpt lat="43.817695878195615" lon="11.021236664355825"><ele>151.66666666666666</ele><time>2026-04-19T17:33:01Z</time></trkpt><trkpt lat="43.81762805246098" lon="11.021243117489014"><ele>154.83333333333331</ele><time>2026-04-19T17:33:02Z</time></trkpt><trkpt lat="43.81755030198929" lon="11.02122006116399"><ele>158.0</ele><time>2026-04-19T17:33:03Z</time></trkpt><trkpt lat="43.81746688488251" lon="11.021158479754908"><ele>158.60000000000002</ele><time>2026-04-19T17:33:04Z</time></trkpt><trkpt lat="43.81738982821334" lon="11.021071124488234"><ele>159.20000000000002</ele><time>2026-04-19T17:33:05Z</time></trkpt><trkpt lat="43.8173300932094" lon="11.020978632497453"><ele>159.8</ele><time>2026-04-19T17:33:06Z</time></trkpt><trkpt lat="43.81728105092281" lon="11.020914828374314"><ele>160.4</ele><time>2026-04-19T17:33:07Z</time></trkpt><trkpt lat="43.81716667219035" lon="11.020878838273909"><ele>161.0</ele><time>2026-04-19T17:33:09Z</time></trkpt><trkpt lat="43.81708549259389" lon="11.020917932840112"><ele>161.0</ele><time>2026-04-19T17:33:11Z</time></trkpt><trkpt lat="43.817005523939365" lon="11.020961267940063"><ele>161.0</ele><time>2026-04-19T17:33:14Z</time></trkpt><trkpt lat="43.81693107501307" lon="11.021027151892689"><ele>161.0</ele><time>2026-04-19T17:33:16Z</time></trkpt><trkpt lat="43.81686923653924" lon="11.021075977673355"><ele>161.0</ele><time>2026-04-19T17:33:17Z</time></trkpt><trkpt lat="43.81678557399008" lon="11.021135360978283"><ele>161.0</ele><time>2026-04-19T17:33:18Z</time></trkpt><trkpt lat="43.816700744701684" lon="11.021191887147058"><ele>161.0</ele><time>2026-04-19T17:33:19Z</time></trkpt><trkpt lat="43.81662578143033" lon="11.021241225453608"><ele>161.60000000000002</ele><time>2026-04-19T17:33:20Z</time></trkpt><trkpt lat="43.81656661666253" lon="11.021276012389892"><ele>162.2</ele><time>2026-04-19T17:33:21Z</time></trkpt><trkpt lat="43.816440918977115" lon="11.02128407372371"><ele>162.8</ele><time>2026-04-19T17:33:23Z</time></trkpt><trkpt lat="43.81636595378706" lon="11.02123778993018"><ele>163.39999999999998</ele><time>2026-04-19T17:33:24Z</time></trkpt><trkpt lat="43.81627650614725" lon="11.021152514731343"><ele>164.0</ele><time>2026-04-19T17:33:25Z</time></trkpt><trkpt lat="43.81618114203402" lon="11.021047912672369"><ele>164.0</ele><time>2026-04-19T17:33:26Z</time></trkpt><trkpt lat="43.816105309985396" lon="11.020949643494447"><ele>164.0</ele><time>2026-04-19T17:33:27Z</time></trkpt><trkpt lat="43.81603063002519" lon="11.02082892164308"><ele>164.0</ele><time>2026-04-19T17:33:28Z</time></trkpt><trkpt lat="43.81596502426965" lon="11.020697788626695"><ele>164.0</ele><time>2026-04-19T17:33:29Z</time></trkpt><trkpt lat="43.8159029155826" lon="11.020573383408859"><ele>164.0</ele><time>2026-04-19T17:33:30Z</time></trkpt><trkpt lat="43.815836105519715" lon="11.020442535814317"><ele>165.25</ele><time>2026-04-19T17:33:31Z</time></trkpt><trkpt lat="43.815760270238826" lon="11.020303930385113"><ele>166.5</ele><time>2026-04-19T17:33:32Z</time></trkpt><trkpt lat="43.81568635601357" lon="11.02018797957722"><ele>167.75</ele><time>2026-04-19T17:33:33Z</time></trkpt><trkpt lat="43.81560373716712" lon="11.020075208050798"><ele>169.0</ele><time>2026-04-19T17:33:34Z</time></trkpt><trkpt lat="43.81550433101978" lon="11.019968748463796"><ele>171.5</ele><time>2026-04-19T17:33:35Z</time></trkpt><trkpt lat="43.8153931201124" lon="11.019870834484436"><ele>174.0</ele><time>2026-04-19T17:33:36Z</time></trkpt><trkpt lat="43.815282855628666" lon="11.019780024014109"><ele>176.5</ele><time>2026-04-19T17:33:37Z</time></trkpt><trkpt lat="43.81517959100878" lon="11.019695991387339"><ele>179.0</ele><time>2026-04-19T17:33:38Z</time></trkpt><trkpt lat="43.81508387988748" lon="11.019618366814058"><ele>179.0</ele><time>2026-04-19T17:33:39Z</time></trkpt><trkpt lat="43.81499162390863" lon="11.019546049571163"><ele>179.0</ele><time>2026-04-19T17:33:40Z</time></trkpt><trkpt lat="43.814898119186694" lon="11.019480655640013"><ele>179.0</ele><time>2026-04-19T17:33:41Z</time></trkpt><trkpt lat="43.81482267388461" lon="11.019433989499705"><ele>179.0</ele><time>2026-04-19T17:33:42Z</time></trkpt><trkpt lat="43.814749082397135" lon="11.019394893084591"><ele>179.0</ele><time>2026-04-19T17:33:43Z</time></trkpt><trkpt lat="43.81468168979421" lon="11.019367751736983"><ele>179.0</ele><time>2026-04-19T17:33:44Z</time></trkpt><trkpt lat="43.814607658646445" lon="11.01936683634983"><ele>179.0</ele><time>2026-04-19T17:33:45Z</time></trkpt><trkpt lat="43.81454367127977" lon="11.019374407911984"><ele>179.0</ele><time>2026-04-19T17:33:46Z</time></trkpt><trkpt lat="43.814479625488524" lon="11.019383541948333"><ele>179.0</ele><time>2026-04-19T17:33:47Z</time></trkpt><trkpt lat="43.814386838263424" lon="11.019415574536707"><ele>179.0</ele><time>2026-04-19T17:33:49Z</time></trkpt><trkpt lat="43.81432486214655" lon="11.01945751960302"><ele>179.0</ele><time>2026-04-19T17:33:52Z</time></trkpt><trkpt lat="43.81436701366414" lon="11.019648805079239"><ele>179.0</ele><time>2026-04-19T17:33:56Z</time></trkpt><trkpt lat="43.81439745117509" lon="11.019749510360445"><ele>179.0</ele><time>2026-04-19T17:33:57Z</time></trkpt><trkpt lat="43.814437535659565" lon="11.019857428369646"><ele>179.0</ele><time>2026-04-19T17:33:58Z</time></trkpt><trkpt lat="43.814399158076164" lon="11.020030360879241"><ele>179.0</ele><time>2026-04-19T17:33:59Z</time></trkpt><trkpt lat="43.8144221166473" lon="11.020164314858645"><ele>179.0</ele><time>2026-04-19T17:34:00Z</time></trkpt><trkpt lat="43.81444239532477" lon="11.020294901376888"><ele>179.0</ele><time>2026-04-19T17:34:01Z</time></trkpt><trkpt lat="43.81445757009388" lon="11.020421367545893"><ele>180.0</ele><time>2026-04-19T17:34:02Z</time></trkpt><trkpt lat="43.81446237936901" lon="11.020574449617946"><ele>181.0</ele><time>2026-04-19T17:34:03Z</time></trkpt><trkpt lat="43.814458666169934" lon="11.0207287013607"><ele>182.0</ele><time>2026-04-19T17:34:04Z</time></trkpt><trkpt lat="43.81445100237392" lon="11.020872395253184"><ele>183.0</ele><time>2026-04-19T17:34:05Z</time></trkpt><trkpt lat="43.814435397909435" lon="11.021024299070648"><ele>184.0</ele><time>2026-04-19T17:34:06Z</time></trkpt><trkpt lat="43.814406703825135" lon="11.021179634338235"><ele>185.0</ele><time>2026-04-19T17:34:07Z</time></trkpt><trkpt lat="43.814371723448566" lon="11.021319479434284"><ele>186.0</ele><time>2026-04-19T17:34:08Z</time></trkpt><trkpt lat="43.81433034907373" lon="11.021446773801516"><ele>187.0</ele><time>2026-04-19T17:34:09Z</time></trkpt><trkpt lat="43.81428190612339" lon="11.02157300583654"><ele>188.0</ele><time>2026-04-19T17:34:10Z</time></trkpt><trkpt lat="43.814220617369905" lon="11.021702411557854"><ele>189.0</ele><time>2026-04-19T17:34:11Z</time></trkpt><trkpt lat="43.81415596957238" lon="11.02181728957129"><ele>186.0</ele><time>2026-04-19T17:34:12Z</time></trkpt><trkpt lat="43.81409042445369" lon="11.02191773153449"><ele>183.0</ele><time>2026-04-19T17:34:13Z</time></trkpt><trkpt lat="43.814023646608895" lon="11.022004584370906"><ele>180.0</ele><time>2026-04-19T17:34:14Z</time></trkpt><trkpt lat="43.81394833354433" lon="11.022078882997171"><ele>177.0</ele><time>2026-04-19T17:34:15Z</time></trkpt><trkpt lat="43.813868361935384" lon="11.022142828775875"><ele>174.0</ele><time>2026-04-19T17:34:16Z</time></trkpt><trkpt lat="43.813787160692" lon="11.022186207668993"><ele>174.0</ele><time>2026-04-19T17:34:17Z</time></trkpt><trkpt lat="43.81368641642091" lon="11.022220568227917"><ele>174.0</ele><time>2026-04-19T17:34:18Z</time></trkpt><trkpt lat="43.813570223043996" lon="11.022235133467625"><ele>174.0</ele><time>2026-04-19T17:34:19Z</time></trkpt><trkpt lat="43.813444800811205" lon="11.022239908133166"><ele>174.0</ele><time>2026-04-19T17:34:20Z</time></trkpt><trkpt lat="43.81333116457573" lon="11.022234978779316"><ele>171.0</ele><time>2026-04-19T17:34:21Z</time></trkpt><trkpt lat="43.81322131903156" lon="11.022231364636742"><ele>168.0</ele><time>2026-04-19T17:34:22Z</time></trkpt><trkpt lat="43.81310502458609" lon="11.022222046343"><ele>165.0</ele><time>2026-04-19T17:34:23Z</time></trkpt><trkpt lat="43.81298013589701" lon="11.022209133326902"><ele>162.0</ele><time>2026-04-19T17:34:24Z</time></trkpt><trkpt lat="43.81285379498564" lon="11.022185686482459"><ele>162.0</ele><time>2026-04-19T17:34:25Z</time></trkpt><trkpt lat="43.81273988024083" lon="11.022138696014148"><ele>162.0</ele><time>2026-04-19T17:34:26Z</time></trkpt><trkpt lat="43.812631772202636" lon="11.022088145755022"><ele>162.0</ele><time>2026-04-19T17:34:27Z</time></trkpt><trkpt lat="43.812526470364176" lon="11.022026310467565"><ele>162.0</ele><time>2026-04-19T17:34:28Z</time></trkpt><trkpt lat="43.81242310751409" lon="11.021939287200173"><ele>161.25</ele><time>2026-04-19T17:34:29Z</time></trkpt><trkpt lat="43.812328618798965" lon="11.021841193080453"><ele>160.5</ele><time>2026-04-19T17:34:30Z</time></trkpt><trkpt lat="43.81223822477995" lon="11.021732168776989"><ele>159.75</ele><time>2026-04-19T17:34:31Z</time></trkpt><trkpt lat="43.81215386705057" lon="11.02163335853024"><ele>159.0</ele><time>2026-04-19T17:34:32Z</time></trkpt><trkpt lat="43.81206273878749" lon="11.021536008355733"><ele>157.4</ele><time>2026-04-19T17:34:33Z</time></trkpt><trkpt lat="43.81196712007731" lon="11.021451068611082"><ele>155.8</ele><time>2026-04-19T17:34:34Z</time></trkpt><trkpt lat="43.81187672851339" lon="11.021390508307315"><ele>154.2</ele><time>2026-04-19T17:34:35Z</time></trkpt><trkpt lat="43.81178647618114" lon="11.021343414068264"><ele>152.6</ele><time>2026-04-19T17:34:36Z</time></trkpt><trkpt lat="43.811690982623894" lon="11.021307131340176"><ele>151.0</ele><time>2026-04-19T17:34:37Z</time></trkpt><trkpt lat="43.81159857746205" lon="11.021280999539915"><ele>150.16666666666669</ele><time>2026-04-19T17:34:38Z</time></trkpt><trkpt lat="43.81151163471685" lon="11.021264856837393"><ele>149.33333333333334</ele><time>2026-04-19T17:34:39Z</time></trkpt><trkpt lat="43.81142964781149" lon="11.021277896681204"><ele>148.5</ele><time>2026-04-19T17:34:40Z</time></trkpt><trkpt lat="43.81134290264082" lon="11.021325338000432"><ele>147.66666666666666</ele><time>2026-04-19T17:34:41Z</time></trkpt><trkpt lat="43.81125986314772" lon="11.021397903135707"><ele>146.83333333333331</ele><time>2026-04-19T17:34:42Z</time></trkpt><trkpt lat="43.811195166988504" lon="11.021455722135517"><ele>146.0</ele><time>2026-04-19T17:34:43Z</time></trkpt><trkpt lat="43.81113313940403" lon="11.021503215556129"><ele>146.0</ele><time>2026-04-19T17:34:44Z</time></trkpt><trkpt lat="43.811058325395514" lon="11.021526049759842"><ele>146.0</ele><time>2026-04-19T17:34:45Z</time></trkpt><trkpt lat="43.81098346305417" lon="11.021505182065749"><ele>146.0</ele><time>2026-04-19T17:34:46Z</time></trkpt><trkpt lat="43.81090684829504" lon="11.021448753841621"><ele>146.0</ele><time>2026-04-19T17:34:47Z</time></trkpt><trkpt lat="43.81083926986527" lon="11.021352118057763"><ele>146.0</ele><time>2026-04-19T17:34:48Z</time></trkpt><trkpt lat="43.81077874360422" lon="11.021243401759088"><ele>146.0</ele><time>2026-04-19T17:34:49Z</time></trkpt><trkpt lat="43.81072136278041" lon="11.021163402873993"><ele>145.66666666666666</ele><time>2026-04-19T17:34:50Z</time></trkpt><trkpt lat="43.81065316633992" lon="11.02110815488698"><ele>145.33333333333331</ele><time>2026-04-19T17:34:51Z</time></trkpt><trkpt lat="43.810562363478965" lon="11.021071552174794"><ele>145.0</ele><time>2026-04-19T17:34:52Z</time></trkpt><trkpt lat="43.81046927159401" lon="11.021067407432454"><ele>144.66666666666666</ele><time>2026-04-19T17:34:53Z</time></trkpt><trkpt lat="43.810379377582976" lon="11.021085948061891"><ele>144.33333333333334</ele><time>2026-04-19T17:34:54Z</time></trkpt><trkpt lat="43.810298329832605" lon="11.02111308211539"><ele>144.0</ele><time>2026-04-19T17:34:55Z</time></trkpt><trkpt lat="43.810224552801294" lon="11.021160736164221"><ele>143.0</ele><time>2026-04-19T17:34:56Z</time></trkpt><trkpt lat="43.81015547174404" lon="11.021228287493663"><ele>142.0</ele><time>2026-04-19T17:34:57Z</time></trkpt><trkpt lat="43.81009297275929" lon="11.021333244145653"><ele>141.0</ele><time>2026-04-19T17:34:58Z</time></trkpt><trkpt lat="43.8100279318207" lon="11.021485887703932"><ele>140.0</ele><time>2026-04-19T17:34:59Z</time></trkpt><trkpt lat="43.80994684867288" lon="11.021660995218193"><ele>143.25</ele><time>2026-04-19T17:35:00Z</time></trkpt><trkpt lat="43.80985928088505" lon="11.021829365239256"><ele>146.5</ele><time>2026-04-19T17:35:01Z</time></trkpt><trkpt lat="43.80977998784896" lon="11.021970884676684"><ele>149.75</ele><time>2026-04-19T17:35:02Z</time></trkpt><trkpt lat="43.80969144842093" lon="11.022109266014223"><ele>153.0</ele><time>2026-04-19T17:35:03Z</time></trkpt><trkpt lat="43.809599410967635" lon="11.022253066312874"><ele>153.0</ele><time>2026-04-19T17:35:04Z</time></trkpt><trkpt lat="43.80949729505083" lon="11.022416026006265"><ele>153.0</ele><time>2026-04-19T17:35:05Z</time></trkpt><trkpt lat="43.8094010188339" lon="11.022601919041094"><ele>153.0</ele><time>2026-04-19T17:35:06Z</time></trkpt><trkpt lat="43.80930609807027" lon="11.022757551366514"><ele>151.5</ele><time>2026-04-19T17:35:07Z</time></trkpt><trkpt lat="43.8092325063218" lon="11.02291703213559"><ele>150.0</ele><time>2026-04-19T17:35:08Z</time></trkpt><trkpt lat="43.80915752144022" lon="11.02306652020933"><ele>148.5</ele><time>2026-04-19T17:35:09Z</time></trkpt><trkpt lat="43.809093181597284" lon="11.023213044139593"><ele>147.0</ele><time>2026-04-19T17:35:10Z</time></trkpt><trkpt lat="43.8089974231938" lon="11.023333898832478"><ele>147.0</ele><time>2026-04-19T17:35:11Z</time></trkpt><trkpt lat="43.808887061587285" lon="11.023443419479232"><ele>147.0</ele><time>2026-04-19T17:35:12Z</time></trkpt><trkpt lat="43.80875872868202" lon="11.023552199524826"><ele>147.0</ele><time>2026-04-19T17:35:13Z</time></trkpt><trkpt lat="43.808640021080116" lon="11.023647418367013"><ele>147.0</ele><time>2026-04-19T17:35:14Z</time></trkpt><trkpt lat="43.80853188135307" lon="11.023736151155733"><ele>144.0</ele><time>2026-04-19T17:35:15Z</time></trkpt><trkpt lat="43.808419774219566" lon="11.023814897809489"><ele>141.0</ele><time>2026-04-19T17:35:16Z</time></trkpt><trkpt lat="43.80830146533083" lon="11.023874399435607"><ele>138.0</ele><time>2026-04-19T17:35:17Z</time></trkpt><trkpt lat="43.8081921855794" lon="11.023919520362755"><ele>135.0</ele><time>2026-04-19T17:35:18Z</time></trkpt><trkpt lat="43.80808733331408" lon="11.023964273487088"><ele>135.0</ele><time>2026-04-19T17:35:19Z</time></trkpt><trkpt lat="43.80799694452478" lon="11.024018514415381"><ele>135.0</ele><time>2026-04-19T17:35:20Z</time></trkpt><trkpt lat="43.80790626217828" lon="11.02410364393162"><ele>135.0</ele><time>2026-04-19T17:35:21Z</time></trkpt><trkpt lat="43.80782689405413" lon="11.024207263070165"><ele>135.0</ele><time>2026-04-19T17:35:22Z</time></trkpt><trkpt lat="43.80775476675083" lon="11.024328347425635"><ele>135.0</ele><time>2026-04-19T17:35:23Z</time></trkpt><trkpt lat="43.807692730947906" lon="11.024475336981197"><ele>135.33333333333334</ele><time>2026-04-19T17:35:24Z</time></trkpt><trkpt lat="43.80764108570688" lon="11.024667492205346"><ele>135.66666666666669</ele><time>2026-04-19T17:35:25Z</time></trkpt><trkpt lat="43.80757583525734" lon="11.02487811606763"><ele>136.0</ele><time>2026-04-19T17:35:26Z</time></trkpt><trkpt lat="43.80753057410824" lon="11.025078861626291"><ele>136.25</ele><time>2026-04-19T17:35:27Z</time></trkpt><trkpt lat="43.807496461603634" lon="11.025263253565788"><ele>136.5</ele><time>2026-04-19T17:35:28Z</time></trkpt><trkpt lat="43.807435588797375" lon="11.025423283137092"><ele>136.75</ele><time>2026-04-19T17:35:29Z</time></trkpt><trkpt lat="43.8073492476063" lon="11.025596470481966"><ele>137.0</ele><time>2026-04-19T17:35:30Z</time></trkpt><trkpt lat="43.80723815989654" lon="11.025768470103996"><ele>135.66666666666666</ele><time>2026-04-19T17:35:31Z</time></trkpt><trkpt lat="43.80710660159789" lon="11.025939973438001"><ele>134.33333333333334</ele><time>2026-04-19T17:35:32Z</time></trkpt><trkpt lat="43.8069715113954" lon="11.02610433054477"><ele>133.0</ele><time>2026-04-19T17:35:33Z</time></trkpt><trkpt lat="43.80683149003961" lon="11.026274852322757"><ele>133.0</ele><time>2026-04-19T17:35:34Z</time></trkpt><trkpt lat="43.80668151724548" lon="11.026430865546832"><ele>133.0</ele><time>2026-04-19T17:35:35Z</time></trkpt><trkpt lat="43.806545893543735" lon="11.026600655584632"><ele>133.0</ele><time>2026-04-19T17:35:36Z</time></trkpt><trkpt lat="43.80641076937553" lon="11.026801110317189"><ele>132.66666666666669</ele><time>2026-04-19T17:35:37Z</time></trkpt><trkpt lat="43.80627227253758" lon="11.026976857495445"><ele>132.33333333333334</ele><time>2026-04-19T17:35:38Z</time></trkpt><trkpt lat="43.80614713004469" lon="11.027133110783057"><ele>132.0</ele><time>2026-04-19T17:35:39Z</time></trkpt><trkpt lat="43.80603313328544" lon="11.027275970589095"><ele>132.25</ele><time>2026-04-19T17:35:40Z</time></trkpt><trkpt lat="43.80593164847571" lon="11.027408755146952"><ele>132.5</ele><time>2026-04-19T17:35:41Z</time></trkpt><trkpt lat="43.80583950448109" lon="11.027534621539889"><ele>132.75</ele><time>2026-04-19T17:35:42Z</time></trkpt><trkpt lat="43.80575709858395" lon="11.027655536341987"><ele>133.0</ele><time>2026-04-19T17:35:43Z</time></trkpt><trkpt lat="43.80568697095352" lon="11.027772259788959"><ele>133.6</ele><time>2026-04-19T17:35:44Z</time></trkpt><trkpt lat="43.80562574715982" lon="11.027889054080834"><ele>134.20000000000002</ele><time>2026-04-19T17:35:45Z</time></trkpt><trkpt lat="43.80557036668324" lon="11.027998684268905"><ele>134.8</ele><time>2026-04-19T17:35:46Z</time></trkpt><trkpt lat="43.80551809990395" lon="11.028104585136788"><ele>135.4</ele><time>2026-04-19T17:35:47Z</time></trkpt><trkpt lat="43.805469130264235" lon="11.02820182982985"><ele>136.0</ele><time>2026-04-19T17:35:48Z</time></trkpt><trkpt lat="43.80541627940739" lon="11.028307494286874"><ele>136.5</ele><time>2026-04-19T17:35:49Z</time></trkpt><trkpt lat="43.80536111336125" lon="11.028416623580672"><ele>137.0</ele><time>2026-04-19T17:35:50Z</time></trkpt><trkpt lat="43.80530922387944" lon="11.028521726725161"><ele>137.5</ele><time>2026-04-19T17:35:51Z</time></trkpt><trkpt lat="43.805264213755954" lon="11.02861036727188"><ele>138.0</ele><time>2026-04-19T17:35:52Z</time></trkpt><trkpt lat="43.80522068659658" lon="11.028694616669522"><ele>138.5</ele><time>2026-04-19T17:35:53Z</time></trkpt><trkpt lat="43.805177499555235" lon="11.028777021206881"><ele>139.0</ele><time>2026-04-19T17:35:54Z</time></trkpt><trkpt lat="43.80513122847031" lon="11.028866759668668"><ele>138.66666666666669</ele><time>2026-04-19T17:35:55Z</time></trkpt><trkpt lat="43.805082673838385" lon="11.02896338096046"><ele>138.33333333333334</ele><time>2026-04-19T17:35:56Z</time></trkpt><trkpt lat="43.805036933884956" lon="11.029054427950875"><ele>138.0</ele><time>2026-04-19T17:35:57Z</time></trkpt><trkpt lat="43.80500092384856" lon="11.02912690989116"><ele>137.66666666666666</ele><time>2026-04-19T17:35:58Z</time></trkpt><trkpt lat="43.8049543417628" lon="11.029224567568107"><ele>137.33333333333331</ele><time>2026-04-19T17:36:00Z</time></trkpt><trkpt lat="43.80489722535701" lon="11.029319773975768"><ele>137.0</ele><time>2026-04-19T17:37:48Z</time></trkpt><trkpt lat="43.80485399821634" lon="11.029471679235066"><ele>137.0</ele><time>2026-04-19T17:38:18Z</time></trkpt><trkpt lat="43.804828366385905" lon="11.029574466371553"><ele>137.0</ele><time>2026-04-19T17:38:19Z</time></trkpt><trkpt lat="43.80479684711818" lon="11.029684553565305"><ele>137.0</ele><time>2026-04-19T17:38:20Z</time></trkpt><trkpt lat="43.80477358060232" lon="11.029774163662614"><ele>137.0</ele><time>2026-04-19T17:38:21Z</time></trkpt><trkpt lat="43.80474363232012" lon="11.02989705978972"><ele>137.0</ele><time>2026-04-19T17:38:23Z</time></trkpt><trkpt lat="43.804709981329324" lon="11.030031685432913"><ele>137.0</ele><time>2026-04-19T17:38:25Z</time></trkpt><trkpt lat="43.80467645306573" lon="11.03021604209078"><ele>135.83333333333331</ele><time>2026-04-19T17:38:27Z</time></trkpt><trkpt lat="43.804667516899485" lon="11.030306869070237"><ele>134.66666666666666</ele><time>2026-04-19T17:38:28Z</time></trkpt><trkpt lat="43.80463139808546" lon="11.030387447067277"><ele>133.5</ele><time>2026-04-19T17:38:29Z</time></trkpt><trkpt lat="43.80458102341574" lon="11.030474534335676"><ele>132.33333333333334</ele><time>2026-04-19T17:38:30Z</time></trkpt><trkpt lat="43.804513007742464" lon="11.030575111701319"><ele>131.16666666666669</ele><time>2026-04-19T17:38:31Z</time></trkpt><trkpt lat="43.804450906881385" lon="11.030675984677876"><ele>130.0</ele><time>2026-04-19T17:38:32Z</time></trkpt><trkpt lat="43.804402587152204" lon="11.030753657608027"><ele>129.8</ele><time>2026-04-19T17:38:33Z</time></trkpt><trkpt lat="43.80434187276253" lon="11.030838190699484"><ele>129.6</ele><time>2026-04-19T17:38:34Z</time></trkpt><trkpt lat="43.80426955598284" lon="11.0309297748185"><ele>129.4</ele><time>2026-04-19T17:38:35Z</time></trkpt><trkpt lat="43.80419093130497" lon="11.031013299143384"><ele>129.2</ele><time>2026-04-19T17:38:36Z</time></trkpt><trkpt lat="43.80409637896202" lon="11.031097111229908"><ele>129.0</ele><time>2026-04-19T17:38:37Z</time></trkpt><trkpt lat="43.80398713799303" lon="11.031182504880924"><ele>130.0</ele><time>2026-04-19T17:38:38Z</time></trkpt><trkpt lat="43.80386336892957" lon="11.031270564042504"><ele>131.0</ele><time>2026-04-19T17:38:39Z</time></trkpt><trkpt lat="43.80375478661909" lon="11.031348282189143"><ele>132.0</ele><time>2026-04-19T17:38:40Z</time></trkpt><trkpt lat="43.803657838164405" lon="11.031419534852482"><ele>133.0</ele><time>2026-04-19T17:38:41Z</time></trkpt><trkpt lat="43.80355471714255" lon="11.031498445630127"><ele>132.75</ele><time>2026-04-19T17:38:42Z</time></trkpt><trkpt lat="43.80343631891047" lon="11.031578775554859"><ele>132.5</ele><time>2026-04-19T17:38:43Z</time></trkpt><trkpt lat="43.803325272962276" lon="11.0316477366836"><ele>132.25</ele><time>2026-04-19T17:38:44Z</time></trkpt><trkpt lat="43.80322732008943" lon="11.031699069276998"><ele>132.0</ele><time>2026-04-19T17:38:45Z</time></trkpt><trkpt lat="43.80312933205611" lon="11.031745601499066"><ele>132.0</ele><time>2026-04-19T17:38:46Z</time></trkpt><trkpt lat="43.80302919728814" lon="11.031782563641604"><ele>132.0</ele><time>2026-04-19T17:38:47Z</time></trkpt><trkpt lat="43.80292626101331" lon="11.031807882023163"><ele>132.0</ele><time>2026-04-19T17:38:48Z</time></trkpt><trkpt lat="43.8028037850311" lon="11.031829213440718"><ele>132.0</ele><time>2026-04-19T17:38:49Z</time></trkpt><trkpt lat="43.80266085753898" lon="11.031857835637984"><ele>131.5</ele><time>2026-04-19T17:38:50Z</time></trkpt><trkpt lat="43.802519197205775" lon="11.031897449904127"><ele>131.0</ele><time>2026-04-19T17:38:51Z</time></trkpt><trkpt lat="43.80239816911806" lon="11.031937797991404"><ele>130.5</ele><time>2026-04-19T17:38:52Z</time></trkpt><trkpt lat="43.80228251360222" lon="11.031983427699265"><ele>130.0</ele><time>2026-04-19T17:38:53Z</time></trkpt><trkpt lat="43.80217422464527" lon="11.032025303309979"><ele>130.0</ele><time>2026-04-19T17:38:54Z</time></trkpt><trkpt lat="43.802069865080384" lon="11.032046373744292"><ele>130.0</ele><time>2026-04-19T17:38:55Z</time></trkpt><trkpt lat="43.80195140139869" lon="11.032070156911143"><ele>130.0</ele><time>2026-04-19T17:38:56Z</time></trkpt><trkpt lat="43.80182599560606" lon="11.032070572705754"><ele>130.0</ele><time>2026-04-19T17:38:57Z</time></trkpt><trkpt lat="43.80169335591554" lon="11.032061488043674"><ele>129.8</ele><time>2026-04-19T17:38:58Z</time></trkpt><trkpt lat="43.80157334075641" lon="11.032039890960766"><ele>129.6</ele><time>2026-04-19T17:38:59Z</time></trkpt><trkpt lat="43.801470089376615" lon="11.032021951632478"><ele>129.4</ele><time>2026-04-19T17:39:00Z</time></trkpt><trkpt lat="43.801377871601204" lon="11.032001314668287"><ele>129.2</ele><time>2026-04-19T17:39:01Z</time></trkpt><trkpt lat="43.80127051913161" lon="11.031966477346712"><ele>129.0</ele><time>2026-04-19T17:39:02Z</time></trkpt><trkpt lat="43.80115065718154" lon="11.031909332975532"><ele>129.0</ele><time>2026-04-19T17:39:03Z</time></trkpt><trkpt lat="43.801025726382726" lon="11.031833967237034"><ele>129.0</ele><time>2026-04-19T17:39:04Z</time></trkpt><trkpt lat="43.800907834133845" lon="11.031751012436375"><ele>129.0</ele><time>2026-04-19T17:39:05Z</time></trkpt><trkpt lat="43.80078303278313" lon="11.031675737315663"><ele>129.0</ele><time>2026-04-19T17:39:06Z</time></trkpt><trkpt lat="43.80067249757694" lon="11.031611316359092"><ele>128.75</ele><time>2026-04-19T17:39:07Z</time></trkpt><trkpt lat="43.8005530047311" lon="11.03154596572282"><ele>128.5</ele><time>2026-04-19T17:39:08Z</time></trkpt><trkpt lat="43.800409224651084" lon="11.031489858806125"><ele>128.25</ele><time>2026-04-19T17:39:09Z</time></trkpt><trkpt lat="43.800267097188566" lon="11.031450672249191"><ele>128.0</ele><time>2026-04-19T17:39:10Z</time></trkpt><trkpt lat="43.80013588153772" lon="11.031422377325853"><ele>128.0</ele><time>2026-04-19T17:39:11Z</time></trkpt><trkpt lat="43.79999926187552" lon="11.031405395670891"><ele>128.0</ele><time>2026-04-19T17:39:12Z</time></trkpt><trkpt lat="43.79985595522734" lon="11.031403844903384"><ele>128.0</ele><time>2026-04-19T17:39:13Z</time></trkpt><trkpt lat="43.79971171808806" lon="11.031432364898345"><ele>128.0</ele><time>2026-04-19T17:39:14Z</time></trkpt><trkpt lat="43.79957113564168" lon="11.031471933593258"><ele>128.0</ele><time>2026-04-19T17:39:15Z</time></trkpt><trkpt lat="43.79943237104227" lon="11.0314963486487"><ele>128.0</ele><time>2026-04-19T17:39:16Z</time></trkpt><trkpt lat="43.79928514598506" lon="11.031509265497847"><ele>128.0</ele><time>2026-04-19T17:39:17Z</time></trkpt><trkpt lat="43.79915564852016" lon="11.031515296284832"><ele>128.0</ele><time>2026-04-19T17:39:18.001Z</time></trkpt><trkpt lat="43.799036874032524" lon="11.031521566244974"><ele>127.5</ele><time>2026-04-19T17:39:19.001Z</time></trkpt><trkpt lat="43.7989239462398" lon="11.031538491465524"><ele>127.0</ele><time>2026-04-19T17:39:20.001Z</time></trkpt><trkpt lat="43.798806698117716" lon="11.03157108108413"><ele>126.5</ele><time>2026-04-19T17:39:21.001Z</time></trkpt><trkpt lat="43.798699579583435" lon="11.03161083037647"><ele>126.0</ele><time>2026-04-19T17:39:22.001Z</time></trkpt><trkpt lat="43.79858935005595" lon="11.031682549865145"><ele>126.5</ele><time>2026-04-19T17:39:23.001Z</time></trkpt><trkpt lat="43.79846286266441" lon="11.031775205866408"><ele>127.0</ele><time>2026-04-19T17:39:24.001Z</time></trkpt><trkpt lat="43.798341651614194" lon="11.031900333777413"><ele>127.5</ele><time>2026-04-19T17:39:25.001Z</time></trkpt><trkpt lat="43.798225524615304" lon="11.03204286737629"><ele>128.0</ele><time>2026-04-19T17:39:26.001Z</time></trkpt><trkpt lat="43.798119276609945" lon="11.032224043007433"><ele>128.0</ele><time>2026-04-19T17:39:27.001Z</time></trkpt><trkpt lat="43.79798741963523" lon="11.032388835957237"><ele>128.0</ele><time>2026-04-19T17:39:28.001Z</time></trkpt><trkpt lat="43.797882512033546" lon="11.032547128825502"><ele>128.0</ele><time>2026-04-19T17:39:29.001Z</time></trkpt><trkpt lat="43.797783799288" lon="11.032698091903107"><ele>128.0</ele><time>2026-04-19T17:39:30.001Z</time></trkpt><trkpt lat="43.79770323525845" lon="11.032870171608774"><ele>128.0</ele><time>2026-04-19T17:39:31.001Z</time></trkpt><trkpt lat="43.79762407800367" lon="11.033007296494173"><ele>128.0</ele><time>2026-04-19T17:39:32.001Z</time></trkpt><trkpt lat="43.79755036771077" lon="11.033137849080383"><ele>128.0</ele><time>2026-04-19T17:39:33.001Z</time></trkpt><trkpt lat="43.79748469328761" lon="11.033249879866476"><ele>126.66666666666666</ele><time>2026-04-19T17:39:34.001Z</time></trkpt><trkpt lat="43.79741879742715" lon="11.033367958276198"><ele>125.33333333333333</ele><time>2026-04-19T17:39:35.001Z</time></trkpt><trkpt lat="43.79736139525908" lon="11.033473568684972"><ele>124.0</ele><time>2026-04-19T17:39:36.001Z</time></trkpt><trkpt lat="43.797298355769804" lon="11.033549307945442"><ele>122.66666666666666</ele><time>2026-04-19T17:39:37.001Z</time></trkpt><trkpt lat="43.7972761064279" lon="11.03365443763626"><ele>121.33333333333333</ele><time>2026-04-19T17:39:38.001Z</time></trkpt><trkpt lat="43.79723893267049" lon="11.033751868890073"><ele>120.0</ele><time>2026-04-19T17:39:39.001Z</time></trkpt><trkpt lat="43.79725292852963" lon="11.033895425401699"><ele>120.0</ele><time>2026-04-19T17:39:40.001Z</time></trkpt><trkpt lat="43.79729591373429" lon="11.034050920059581"><ele>120.0</ele><time>2026-04-19T17:39:41.001Z</time></trkpt><trkpt lat="43.79737815026361" lon="11.034195569879154"><ele>120.0</ele><time>2026-04-19T17:39:42.001Z</time></trkpt><trkpt lat="43.79746034655733" lon="11.034369899565508"><ele>120.0</ele><time>2026-04-19T17:39:43.001Z</time></trkpt><trkpt lat="43.79753893626623" lon="11.034531416979798"><ele>120.5</ele><time>2026-04-19T17:39:44.001Z</time></trkpt><trkpt lat="43.797597087812775" lon="11.034689034557312"><ele>121.0</ele><time>2026-04-19T17:39:45.001Z</time></trkpt><trkpt lat="43.79766093815922" lon="11.034830587163018"><ele>121.5</ele><time>2026-04-19T17:39:46.001Z</time></trkpt><trkpt lat="43.797716582215465" lon="11.03496990791657"><ele>122.0</ele><time>2026-04-19T17:39:47.001Z</time></trkpt><trkpt lat="43.79778070644332" lon="11.035121784203403"><ele>120.25</ele><time>2026-04-19T17:39:48.001Z</time></trkpt><trkpt lat="43.797813496568246" lon="11.035274616123386"><ele>118.5</ele><time>2026-04-19T17:39:49.001Z</time></trkpt><trkpt lat="43.797818394422386" lon="11.035432176952938"><ele>116.75</ele><time>2026-04-19T17:39:50.001Z</time></trkpt><trkpt lat="43.79782134991254" lon="11.03561306776155"><ele>115.0</ele><time>2026-04-19T17:39:51.001Z</time></trkpt><trkpt lat="43.79782460657422" lon="11.035807180579399"><ele>115.0</ele><time>2026-04-19T17:39:52.001Z</time></trkpt><trkpt lat="43.7978029656522" lon="11.035989791027317"><ele>115.0</ele><time>2026-04-19T17:39:53.001Z</time></trkpt><trkpt lat="43.797769596564486" lon="11.036170852650072"><ele>115.0</ele><time>2026-04-19T17:39:54.001Z</time></trkpt><trkpt lat="43.79770269560619" lon="11.036334133978638"><ele>115.0</ele><time>2026-04-19T17:39:55.001Z</time></trkpt><trkpt lat="43.7976481842787" lon="11.036489406742797"><ele>118.25</ele><time>2026-04-19T17:39:56.001Z</time></trkpt><trkpt lat="43.797610024499676" lon="11.03663351245641"><ele>121.5</ele><time>2026-04-19T17:39:57.001Z</time></trkpt><trkpt lat="43.797542994716245" lon="11.036768300434474"><ele>124.75</ele><time>2026-04-19T17:39:58.001Z</time></trkpt><trkpt lat="43.797499494604885" lon="11.036919625723701"><ele>128.0</ele><time>2026-04-19T17:39:59.001Z</time></trkpt><trkpt lat="43.79751061183008" lon="11.037118530075162"><ele>128.0</ele><time>2026-04-19T17:40:00.001Z</time></trkpt><trkpt lat="43.79749950303428" lon="11.037343357220365"><ele>128.0</ele><time>2026-04-19T17:40:01.001Z</time></trkpt><trkpt lat="43.79750640673897" lon="11.037571320597948"><ele>128.0</ele><time>2026-04-19T17:40:02.001Z</time></trkpt><trkpt lat="43.797514466463554" lon="11.037764516931675"><ele>127.25</ele><time>2026-04-19T17:40:03.001Z</time></trkpt><trkpt lat="43.79753101746549" lon="11.03795222322691"><ele>126.5</ele><time>2026-04-19T17:40:04.001Z</time></trkpt><trkpt lat="43.797524353457675" lon="11.038123490202958"><ele>125.75</ele><time>2026-04-19T17:40:05.001Z</time></trkpt><trkpt lat="43.79751652892393" lon="11.038290980898141"><ele>125.0</ele><time>2026-04-19T17:40:06.001Z</time></trkpt><trkpt lat="43.79751012772732" lon="11.038452140045596"><ele>125.0</ele><time>2026-04-19T17:40:07.001Z</time></trkpt><trkpt lat="43.79750902753977" lon="11.038606216756488"><ele>125.0</ele><time>2026-04-19T17:40:08.001Z</time></trkpt><trkpt lat="43.79751751953231" lon="11.038742429981045"><ele>125.0</ele><time>2026-04-19T17:40:09.001Z</time></trkpt><trkpt lat="43.79753332003189" lon="11.038872424057208"><ele>125.0</ele><time>2026-04-19T17:40:10.001Z</time></trkpt><trkpt lat="43.7975734702862" lon="11.03902601381718"><ele>125.0</ele><time>2026-04-19T17:40:11.001Z</time></trkpt><trkpt lat="43.79763403443391" lon="11.039174539738207"><ele>127.4</ele><time>2026-04-19T17:40:12.001Z</time></trkpt><trkpt lat="43.797702538693216" lon="11.039295928234777"><ele>129.8</ele><time>2026-04-19T17:40:13.001Z</time></trkpt><trkpt lat="43.79776487919941" lon="11.039410914798863"><ele>132.2</ele><time>2026-04-19T17:40:14.001Z</time></trkpt><trkpt lat="43.79780943048123" lon="11.039537676918522"><ele>134.6</ele><time>2026-04-19T17:40:15.001Z</time></trkpt><trkpt lat="43.79782935519934" lon="11.039671526365018"><ele>137.0</ele><time>2026-04-19T17:40:16.001Z</time></trkpt><trkpt lat="43.79782598451967" lon="11.039807875159937"><ele>137.0</ele><time>2026-04-19T17:40:17.001Z</time></trkpt><trkpt lat="43.797800337490514" lon="11.039923817220751"><ele>137.0</ele><time>2026-04-19T17:40:18.001Z</time></trkpt><trkpt lat="43.79774534751811" lon="11.040041883180551"><ele>137.0</ele><time>2026-04-19T17:40:19.001Z</time></trkpt><trkpt lat="43.797657627065334" lon="11.040155065106998"><ele>137.0</ele><time>2026-04-19T17:40:20.001Z</time></trkpt><trkpt lat="43.79754111599685" lon="11.040262993361004"><ele>137.0</ele><time>2026-04-19T17:40:21.001Z</time></trkpt><trkpt lat="43.7974367093081" lon="11.04034782529854"><ele>134.0</ele><time>2026-04-19T17:40:22.001Z</time></trkpt><trkpt lat="43.797342414218036" lon="11.04044139149015"><ele>131.0</ele><time>2026-04-19T17:40:23.001Z</time></trkpt><trkpt lat="43.79725318189782" lon="11.040558019145635"><ele>128.0</ele><time>2026-04-19T17:40:24.001Z</time></trkpt><trkpt lat="43.79718382468769" lon="11.040680973044246"><ele>125.0</ele><time>2026-04-19T17:40:25.001Z</time></trkpt><trkpt lat="43.79713347164017" lon="11.04082296714099"><ele>125.0</ele><time>2026-04-19T17:40:26.001Z</time></trkpt><trkpt lat="43.797098988437554" lon="11.040969064811017"><ele>125.0</ele><time>2026-04-19T17:40:27.001Z</time></trkpt><trkpt lat="43.79708602575829" lon="11.041122779848417"><ele>125.0</ele><time>2026-04-19T17:40:28.001Z</time></trkpt><trkpt lat="43.79710285573837" lon="11.041289266146197"><ele>125.0</ele><time>2026-04-19T17:40:29.001Z</time></trkpt><trkpt lat="43.79714954190408" lon="11.041468490641284"><ele>125.0</ele><time>2026-04-19T17:40:30Z</time></trkpt><trkpt lat="43.79719713338682" lon="11.041619118383014"><ele>125.0</ele><time>2026-04-19T17:40:31Z</time></trkpt><trkpt lat="43.79722977161781" lon="11.041783573535263"><ele>125.0</ele><time>2026-04-19T17:40:32Z</time></trkpt><trkpt lat="43.79724263998208" lon="11.041955458960224"><ele>125.0</ele><time>2026-04-19T17:40:33Z</time></trkpt><trkpt lat="43.797239967947" lon="11.04210016468834"><ele>125.4</ele><time>2026-04-19T17:40:34Z</time></trkpt><trkpt lat="43.79722396584641" lon="11.042229108548469"><ele>125.8</ele><time>2026-04-19T17:40:35Z</time></trkpt><trkpt lat="43.79718565643082" lon="11.042358965278456"><ele>126.19999999999999</ele><time>2026-04-19T17:40:36Z</time></trkpt><trkpt lat="43.79712054745722" lon="11.042466238495473"><ele>126.6</ele><time>2026-04-19T17:40:37Z</time></trkpt><trkpt lat="43.79702855899002" lon="11.042551230971917"><ele>127.0</ele><time>2026-04-19T17:40:38Z</time></trkpt><trkpt lat="43.79694781113419" lon="11.042637391313624"><ele>127.6</ele><time>2026-04-19T17:40:39Z</time></trkpt><trkpt lat="43.796888128854924" lon="11.04274847120383"><ele>128.2</ele><time>2026-04-19T17:40:40Z</time></trkpt><trkpt lat="43.79683952269461" lon="11.042879646469329"><ele>128.8</ele><time>2026-04-19T17:40:41Z</time></trkpt><trkpt lat="43.7968066330648" lon="11.043002055652122"><ele>129.4</ele><time>2026-04-19T17:40:42Z</time></trkpt><trkpt lat="43.7967703691473" lon="11.043137262996897"><ele>130.0</ele><time>2026-04-19T17:40:43Z</time></trkpt><trkpt lat="43.79679427048475" lon="11.04330672697081"><ele>128.75</ele><time>2026-04-19T17:40:44Z</time></trkpt><trkpt lat="43.79682702573228" lon="11.043504670144157"><ele>127.5</ele><time>2026-04-19T17:40:45Z</time></trkpt><trkpt lat="43.7968669039531" lon="11.043700138980903"><ele>126.25</ele><time>2026-04-19T17:40:46Z</time></trkpt><trkpt lat="43.796889834928926" lon="11.043872638597442"><ele>125.0</ele><time>2026-04-19T17:40:47Z</time></trkpt><trkpt lat="43.79690232470032" lon="11.044033306406913"><ele>123.75</ele><time>2026-04-19T17:40:48Z</time></trkpt><trkpt lat="43.79690079874228" lon="11.044198699360022"><ele>122.5</ele><time>2026-04-19T17:40:49Z</time></trkpt><trkpt lat="43.796874597363484" lon="11.044377196947027"><ele>121.25</ele><time>2026-04-19T17:40:50Z</time></trkpt><trkpt lat="43.79684149608295" lon="11.044537968973707"><ele>120.0</ele><time>2026-04-19T17:40:51Z</time></trkpt><trkpt lat="43.79678683823283" lon="11.044677918433488"><ele>118.25</ele><time>2026-04-19T17:40:52Z</time></trkpt><trkpt lat="43.79675489875886" lon="11.044814798855763"><ele>116.5</ele><time>2026-04-19T17:40:53Z</time></trkpt><trkpt lat="43.79668834137405" lon="11.044934680921795"><ele>114.75</ele><time>2026-04-19T17:40:54Z</time></trkpt><trkpt lat="43.79659226242617" lon="11.04506797430443"><ele>113.0</ele><time>2026-04-19T17:40:55Z</time></trkpt><trkpt lat="43.79648771501393" lon="11.045191789549005"><ele>113.0</ele><time>2026-04-19T17:40:56Z</time></trkpt><trkpt lat="43.79638833830268" lon="11.045312499373017"><ele>113.0</ele><time>2026-04-19T17:40:57Z</time></trkpt><trkpt lat="43.79629179761293" lon="11.045458427665485"><ele>113.0</ele><time>2026-04-19T17:40:58Z</time></trkpt><trkpt lat="43.79619894013333" lon="11.04563106756796"><ele>113.0</ele><time>2026-04-19T17:40:59Z</time></trkpt><trkpt lat="43.79611845213935" lon="11.04579773940026"><ele>113.25</ele><time>2026-04-19T17:41:00Z</time></trkpt><trkpt lat="43.79604349029076" lon="11.045966616335358"><ele>113.5</ele><time>2026-04-19T17:41:01Z</time></trkpt><trkpt lat="43.79596316138618" lon="11.046103048619294"><ele>113.75</ele><time>2026-04-19T17:41:02Z</time></trkpt><trkpt lat="43.79591709379992" lon="11.046249786391835"><ele>114.0</ele><time>2026-04-19T17:41:03Z</time></trkpt><trkpt lat="43.795871048338675" lon="11.046403597373978"><ele>114.25</ele><time>2026-04-19T17:41:04Z</time></trkpt><trkpt lat="43.79584674437898" lon="11.046575207930774"><ele>114.5</ele><time>2026-04-19T17:41:05Z</time></trkpt><trkpt lat="43.795843121762495" lon="11.046780668474755"><ele>114.75</ele><time>2026-04-19T17:41:06Z</time></trkpt><trkpt lat="43.795856500246735" lon="11.047007991720204"><ele>115.0</ele><time>2026-04-19T17:41:07Z</time></trkpt><trkpt lat="43.79588296536189" lon="11.04724315207573"><ele>113.66666666666667</ele><time>2026-04-19T17:41:08Z</time></trkpt><trkpt lat="43.795918909718154" lon="11.047462168433903"><ele>112.33333333333334</ele><time>2026-04-19T17:41:09Z</time></trkpt><trkpt lat="43.79593475442649" lon="11.04766418917603"><ele>111.0</ele><time>2026-04-19T17:41:10Z</time></trkpt><trkpt lat="43.795982836257984" lon="11.047858250868593"><ele>109.5</ele><time>2026-04-19T17:41:11Z</time></trkpt><trkpt lat="43.79602182733852" lon="11.048061452343417"><ele>108.0</ele><time>2026-04-19T17:41:12Z</time></trkpt><trkpt lat="43.79606394781134" lon="11.048248645228472"><ele>106.5</ele><time>2026-04-19T17:41:13Z</time></trkpt><trkpt lat="43.79609463978953" lon="11.048441199983749"><ele>105.0</ele><time>2026-04-19T17:41:14Z</time></trkpt><trkpt lat="43.79615246074411" lon="11.048593716040367"><ele>105.0</ele><time>2026-04-19T17:41:15Z</time></trkpt><trkpt lat="43.796191565267186" lon="11.048746968195385"><ele>105.0</ele><time>2026-04-19T17:41:16Z</time></trkpt><trkpt lat="43.79622428400151" lon="11.04888899988688"><ele>105.0</ele><time>2026-04-19T17:41:17Z</time></trkpt><trkpt lat="43.7962449516667" lon="11.049017202600698"><ele>105.0</ele><time>2026-04-19T17:41:18Z</time></trkpt><trkpt lat="43.79625679485373" lon="11.04914906186249"><ele>105.0</ele><time>2026-04-19T17:41:19Z</time></trkpt><trkpt lat="43.79625635389938" lon="11.04928214246185"><ele>105.0</ele><time>2026-04-19T17:41:20Z</time></trkpt><trkpt lat="43.79624691708997" lon="11.049381047702978"><ele>105.0</ele><time>2026-04-19T17:41:21Z</time></trkpt><trkpt lat="43.7962358151187" lon="11.049474414643042"><ele>105.0</ele><time>2026-04-19T17:41:22Z</time></trkpt><trkpt lat="43.796208468408466" lon="11.049566761268023"><ele>105.0</ele><time>2026-04-19T17:41:23Z</time></trkpt><trkpt lat="43.796192550699104" lon="11.049705223718087"><ele>105.0</ele><time>2026-04-19T17:41:25Z</time></trkpt><trkpt lat="43.796176309778325" lon="11.04985270307187"><ele>105.0</ele><time>2026-04-19T17:41:27Z</time></trkpt><trkpt lat="43.79615748230003" lon="11.050029538144031"><ele>105.0</ele><time>2026-04-19T17:41:29Z</time></trkpt><trkpt lat="43.79614253912188" lon="11.050118903549272"><ele>105.0</ele><time>2026-04-19T17:41:30Z</time></trkpt><trkpt lat="43.796116373998395" lon="11.050255910257949"><ele>105.0</ele><time>2026-04-19T17:41:32Z</time></trkpt><trkpt lat="43.796096006132586" lon="11.0503993802774"><ele>105.0</ele><time>2026-04-19T17:41:34Z</time></trkpt><trkpt lat="43.796081740182665" lon="11.050487353334022"><ele>105.0</ele><time>2026-04-19T17:41:35Z</time></trkpt><trkpt lat="43.79607348345126" lon="11.050577074104602"><ele>105.0</ele><time>2026-04-19T17:41:36Z</time></trkpt><trkpt lat="43.79605786172714" lon="11.050741794294206"><ele>104.4</ele><time>2026-04-19T17:41:38Z</time></trkpt><trkpt lat="43.796045698601965" lon="11.050868522840593"><ele>103.8</ele><time>2026-04-19T17:41:40Z</time></trkpt><trkpt lat="43.79603576315136" lon="11.051001848836242"><ele>103.19999999999999</ele><time>2026-04-19T17:41:42Z</time></trkpt><trkpt lat="43.79601605970507" lon="11.051193965440225"><ele>102.6</ele><time>2026-04-19T17:41:44Z</time></trkpt><trkpt lat="43.79599366133214" lon="11.051318018999357"><ele>102.0</ele><time>2026-04-19T17:41:45Z</time></trkpt><trkpt lat="43.79597574706046" lon="11.051441550246706"><ele>102.0</ele><time>2026-04-19T17:41:46Z</time></trkpt><trkpt lat="43.79596288617554" lon="11.051557235448668"><ele>102.0</ele><time>2026-04-19T17:41:47Z</time></trkpt><trkpt lat="43.7959572804928" lon="11.051651716917345"><ele>102.0</ele><time>2026-04-19T17:41:48Z</time></trkpt><trkpt lat="43.79595483773816" lon="11.051771342467118"><ele>102.0</ele><time>2026-04-19T17:41:49Z</time></trkpt><trkpt lat="43.7959551691675" lon="11.051898395496583"><ele>102.0</ele><time>2026-04-19T17:41:50Z</time></trkpt><trkpt lat="43.795952208905526" lon="11.052027071154772"><ele>102.0</ele><time>2026-04-19T17:41:51Z</time></trkpt><trkpt lat="43.795941872491404" lon="11.052143488733531"><ele>101.5</ele><time>2026-04-19T17:41:52Z</time></trkpt><trkpt lat="43.79592597941936" lon="11.052263726097678"><ele>101.0</ele><time>2026-04-19T17:41:53Z</time></trkpt><trkpt lat="43.795904503546886" lon="11.052395102165386"><ele>100.5</ele><time>2026-04-19T17:41:54Z</time></trkpt><trkpt lat="43.79587897193596" lon="11.052525471507401"><ele>100.0</ele><time>2026-04-19T17:41:55Z</time></trkpt><trkpt lat="43.795853665393125" lon="11.052639178208091"><ele>99.5</ele><time>2026-04-19T17:41:56Z</time></trkpt><trkpt lat="43.79582876324864" lon="11.052744238733993"><ele>99.0</ele><time>2026-04-19T17:41:57Z</time></trkpt><trkpt lat="43.79580452240185" lon="11.052845100175144"><ele>98.2</ele><time>2026-04-19T17:41:58Z</time></trkpt><trkpt lat="43.7957744389947" lon="11.052962638467019"><ele>97.4</ele><time>2026-04-19T17:41:59Z</time></trkpt><trkpt lat="43.79574461215417" lon="11.05308278796935"><ele>96.6</ele><time>2026-04-19T17:42:00Z</time></trkpt><trkpt lat="43.79571302115855" lon="11.053201109501178"><ele>95.8</ele><time>2026-04-19T17:42:01Z</time></trkpt><trkpt lat="43.79566986655289" lon="11.05332779441903"><ele>95.0</ele><time>2026-04-19T17:42:02Z</time></trkpt><trkpt lat="43.795623654227036" lon="11.053456376249134"><ele>94.0</ele><time>2026-04-19T17:42:03Z</time></trkpt><trkpt lat="43.7955815055963" lon="11.053572102219105"><ele>93.0</ele><time>2026-04-19T17:42:04Z</time></trkpt><trkpt lat="43.795537033444724" lon="11.053693790371332"><ele>92.0</ele><time>2026-04-19T17:42:05Z</time></trkpt><trkpt lat="43.79548587469065" lon="11.053809242585462"><ele>91.0</ele><time>2026-04-19T17:42:06Z</time></trkpt><trkpt lat="43.79548679758977" lon="11.053963575212972"><ele>90.0</ele><time>2026-04-19T17:42:07Z</time></trkpt><trkpt lat="43.7954867105229" lon="11.05410230163011"><ele>89.6</ele><time>2026-04-19T17:42:08Z</time></trkpt><trkpt lat="43.79549023750206" lon="11.05424429499195"><ele>89.2</ele><time>2026-04-19T17:42:09Z</time></trkpt><trkpt lat="43.795488877193634" lon="11.054389952043346"><ele>88.80000000000001</ele><time>2026-04-19T17:42:10Z</time></trkpt><trkpt lat="43.79547526612284" lon="11.054527765596857"><ele>88.4</ele><time>2026-04-19T17:42:11Z</time></trkpt><trkpt lat="43.795446937528965" lon="11.054672190497095"><ele>88.0</ele><time>2026-04-19T17:42:12Z</time></trkpt><trkpt lat="43.79540418244598" lon="11.054823150586778"><ele>87.60000000000001</ele><time>2026-04-19T17:42:13Z</time></trkpt><trkpt lat="43.795353360364814" lon="11.05495488697016"><ele>87.2</ele><time>2026-04-19T17:42:14Z</time></trkpt><trkpt lat="43.7953011012737" lon="11.055071905780528"><ele>86.8</ele><time>2026-04-19T17:42:15Z</time></trkpt><trkpt lat="43.79525249983691" lon="11.055176102676512"><ele>86.4</ele><time>2026-04-19T17:42:16Z</time></trkpt><trkpt lat="43.795207859097374" lon="11.055266338606026"><ele>86.0</ele><time>2026-04-19T17:42:17Z</time></trkpt><trkpt lat="43.795163416142984" lon="11.055350251399917"><ele>85.16666666666667</ele><time>2026-04-19T17:42:18Z</time></trkpt><trkpt lat="43.795122479256705" lon="11.055420918251228"><ele>84.33333333333334</ele><time>2026-04-19T17:42:19Z</time></trkpt><trkpt lat="43.79506808163383" lon="11.055512728028933"><ele>83.5</ele><time>2026-04-19T17:42:21Z</time></trkpt><trkpt lat="43.79503114209276" lon="11.055618035811737"><ele>82.66666666666667</ele><time>2026-04-19T17:44:01Z</time></trkpt><trkpt lat="43.795014131900466" lon="11.055716269262595"><ele>81.83333333333333</ele><time>2026-04-19T17:44:03Z</time></trkpt><trkpt lat="43.79494974963644" lon="11.055773185832653"><ele>81.0</ele><time>2026-04-19T17:44:05Z</time></trkpt><trkpt lat="43.7948310991252" lon="11.0557274729236"><ele>81.0</ele><time>2026-04-19T17:44:07Z</time></trkpt><trkpt lat="43.794756149557564" lon="11.05566467701843"><ele>81.0</ele><time>2026-04-19T17:44:08Z</time></trkpt><trkpt lat="43.794680323255946" lon="11.055603552901133"><ele>81.0</ele><time>2026-04-19T17:44:09Z</time></trkpt><trkpt lat="43.79461097231047" lon="11.055528528316929"><ele>81.0</ele><time>2026-04-19T17:44:10Z</time></trkpt><trkpt lat="43.79453853344378" lon="11.055437438053216"><ele>81.0</ele><time>2026-04-19T17:44:11Z</time></trkpt><trkpt lat="43.794463147901126" lon="11.055350252644637"><ele>81.0</ele><time>2026-04-19T17:44:12Z</time></trkpt><trkpt lat="43.79438666753539" lon="11.05526317748248"><ele>81.0</ele><time>2026-04-19T17:44:13Z</time></trkpt><trkpt lat="43.79432315607024" lon="11.055188700323939"><ele>81.0</ele><time>2026-04-19T17:44:14Z</time></trkpt><trkpt lat="43.79425991747154" lon="11.055115613401362"><ele>81.0</ele><time>2026-04-19T17:44:15Z</time></trkpt><trkpt lat="43.79418517291394" lon="11.05502705492403"><ele>81.0</ele><time>2026-04-19T17:44:16Z</time></trkpt><trkpt lat="43.79410454656354" lon="11.054934289244175"><ele>80.83333333333333</ele><time>2026-04-19T17:44:17Z</time></trkpt><trkpt lat="43.79403876166885" lon="11.05485303219539"><ele>80.66666666666667</ele><time>2026-04-19T17:44:18Z</time></trkpt><trkpt lat="43.7939650990672" lon="11.054779326321635"><ele>80.5</ele><time>2026-04-19T17:44:19Z</time></trkpt><trkpt lat="43.793880174039636" lon="11.054728771291215"><ele>80.33333333333334</ele><time>2026-04-19T17:44:20Z</time></trkpt><trkpt lat="43.7937892225256" lon="11.054703051631735"><ele>80.16666666666667</ele><time>2026-04-19T17:44:21Z</time></trkpt><trkpt lat="43.793705405889334" lon="11.054700040298483"><ele>80.0</ele><time>2026-04-19T17:44:22Z</time></trkpt><trkpt lat="43.79362712464958" lon="11.05470598286362"><ele>80.0</ele><time>2026-04-19T17:44:23Z</time></trkpt><trkpt lat="43.79355712447362" lon="11.054703742730943"><ele>80.0</ele><time>2026-04-19T17:44:24Z</time></trkpt><trkpt lat="43.79344721048608" lon="11.054701969952694"><ele>80.0</ele><time>2026-04-19T17:44:26Z</time></trkpt><trkpt lat="43.79339658044569" lon="11.054992410044228"><ele>80.0</ele><time>2026-04-19T17:44:29Z</time></trkpt><trkpt lat="43.79339573612721" lon="11.055129642821772"><ele>79.25</ele><time>2026-04-19T17:44:30Z</time></trkpt><trkpt lat="43.793394335168145" lon="11.055288724991774"><ele>78.5</ele><time>2026-04-19T17:44:31Z</time></trkpt><trkpt lat="43.793390374696216" lon="11.055461451203305"><ele>77.75</ele><time>2026-04-19T17:44:32Z</time></trkpt><trkpt lat="43.79338086573868" lon="11.055631318749706"><ele>77.0</ele><time>2026-04-19T17:44:33Z</time></trkpt><trkpt lat="43.79337246336994" lon="11.055790255805322"><ele>76.4</ele><time>2026-04-19T17:44:34Z</time></trkpt><trkpt lat="43.79336037335569" lon="11.055948012557177"><ele>75.80000000000001</ele><time>2026-04-19T17:44:35Z</time></trkpt><trkpt lat="43.79335186177465" lon="11.05609265012898"><ele>75.2</ele><time>2026-04-19T17:44:36Z</time></trkpt><trkpt lat="43.79334436410153" lon="11.056221442525839"><ele>74.60000000000001</ele><time>2026-04-19T17:44:37Z</time></trkpt><trkpt lat="43.79333784260862" lon="11.056351532627554"><ele>74.0</ele><time>2026-04-19T17:44:38Z</time></trkpt><trkpt lat="43.79333054445362" lon="11.05648914085167"><ele>73.8</ele><time>2026-04-19T17:44:39Z</time></trkpt><trkpt lat="43.79331929626543" lon="11.056637067149454"><ele>73.60000000000001</ele><time>2026-04-19T17:44:40Z</time></trkpt><trkpt lat="43.79330785724656" lon="11.056779417290478"><ele>73.4</ele><time>2026-04-19T17:44:41Z</time></trkpt><trkpt lat="43.7932792376034" lon="11.056900564161058"><ele>73.2</ele><time>2026-04-19T17:44:42Z</time></trkpt><trkpt lat="43.7932700609792" lon="11.057016900198045"><ele>73.0</ele><time>2026-04-19T17:44:43Z</time></trkpt><trkpt lat="43.79326132467258" lon="11.057127653903526"><ele>73.0</ele><time>2026-04-19T17:44:44Z</time></trkpt><trkpt lat="43.793251967293415" lon="11.057246281773628"><ele>73.0</ele><time>2026-04-19T17:44:45Z</time></trkpt><trkpt lat="43.793243529508786" lon="11.057354931562495"><ele>73.0</ele><time>2026-04-19T17:44:46Z</time></trkpt><trkpt lat="43.79324884337754" lon="11.057461279105876"><ele>73.0</ele><time>2026-04-19T17:44:47Z</time></trkpt><trkpt lat="43.79324191563982" lon="11.05756244806765"><ele>73.0</ele><time>2026-04-19T17:44:48Z</time></trkpt><trkpt lat="43.793230795129844" lon="11.057710441432377"><ele>73.0</ele><time>2026-04-19T17:44:50Z</time></trkpt><trkpt lat="43.79321434169835" lon="11.057814583905323"><ele>72.4</ele><time>2026-04-19T17:44:52Z</time></trkpt><trkpt lat="43.79320447417036" lon="11.05792402960538"><ele>71.8</ele><time>2026-04-19T17:47:34Z</time></trkpt><trkpt lat="43.79318097398292" lon="11.058082369717225"><ele>71.2</ele><time>2026-04-19T17:47:36Z</time></trkpt><trkpt lat="43.79306960716259" lon="11.05813631988795"><ele>70.6</ele><time>2026-04-19T17:47:37Z</time></trkpt><trkpt lat="43.792998361781876" lon="11.05822174387794"><ele>70.0</ele><time>2026-04-19T17:47:38Z</time></trkpt><trkpt lat="43.79293186767085" lon="11.058300399871538"><ele>69.5</ele><time>2026-04-19T17:47:39Z</time></trkpt><trkpt lat="43.792876677656494" lon="11.058353409830598"><ele>69.0</ele><time>2026-04-19T17:47:40Z</time></trkpt><trkpt lat="43.79280113853103" lon="11.058420019416596"><ele>68.5</ele><time>2026-04-19T17:47:42Z</time></trkpt><trkpt lat="43.792729451012306" lon="11.058497119796833"><ele>68.0</ele><time>2026-04-19T17:47:44Z</time></trkpt><trkpt lat="43.79265509548964" lon="11.05854049479383"><ele>67.5</ele><time>2026-04-19T17:47:46Z</time></trkpt><trkpt lat="43.79258775940408" lon="11.05855087858617"><ele>67.0</ele><time>2026-04-19T17:47:48Z</time></trkpt><trkpt lat="43.7924896670588" lon="11.058456367846853"><ele>66.6</ele><time>2026-04-19T17:47:51Z</time></trkpt><trkpt lat="43.792435463305594" lon="11.05836967218215"><ele>66.2</ele><time>2026-04-19T17:47:52Z</time></trkpt><trkpt lat="43.792367645159885" lon="11.058254140023804"><ele>65.8</ele><time>2026-04-19T17:47:53Z</time></trkpt><trkpt lat="43.792294809697154" lon="11.058151099226395"><ele>65.4</ele><time>2026-04-19T17:47:54Z</time></trkpt><trkpt lat="43.792230213151" lon="11.058062051115154"><ele>65.0</ele><time>2026-04-19T17:47:55Z</time></trkpt><trkpt lat="43.79217942267661" lon="11.057988987696472"><ele>65.8</ele><time>2026-04-19T17:47:56Z</time></trkpt><trkpt lat="43.79208316410883" lon="11.057881112631149"><ele>66.6</ele><time>2026-04-19T17:47:58Z</time></trkpt><trkpt lat="43.7919952473559" lon="11.057839810926323"><ele>67.4</ele><time>2026-04-19T17:47:59Z</time></trkpt><trkpt lat="43.79188558780134" lon="11.057813813971867"><ele>68.2</ele><time>2026-04-19T17:48:00Z</time></trkpt><trkpt lat="43.79177944457411" lon="11.057802209937412"><ele>69.0</ele><time>2026-04-19T17:48:01Z</time></trkpt><trkpt lat="43.79166262771242" lon="11.057784566713227"><ele>70.2</ele><time>2026-04-19T17:48:02Z</time></trkpt><trkpt lat="43.79153442437183" lon="11.057765413508953"><ele>71.4</ele><time>2026-04-19T17:48:03Z</time></trkpt><trkpt lat="43.7914295786739" lon="11.057745752243877"><ele>72.6</ele><time>2026-04-19T17:48:04Z</time></trkpt><trkpt lat="43.79134869440458" lon="11.057731162094102"><ele>73.8</ele><time>2026-04-19T17:48:05Z</time></trkpt><trkpt lat="43.791285872681456" lon="11.057713657981765"><ele>75.0</ele><time>2026-04-19T17:48:06Z</time></trkpt><trkpt lat="43.791203073787855" lon="11.05767249741689"><ele>75.0</ele><time>2026-04-19T17:48:07Z</time></trkpt><trkpt lat="43.79111428952346" lon="11.057606760311469"><ele>75.0</ele><time>2026-04-19T17:48:08Z</time></trkpt><trkpt lat="43.79102949875452" lon="11.057544049186358"><ele>75.0</ele><time>2026-04-19T17:48:09Z</time></trkpt><trkpt lat="43.790945550203" lon="11.057484933994541"><ele>75.0</ele><time>2026-04-19T17:48:10Z</time></trkpt><trkpt lat="43.79085935328951" lon="11.057445345879866"><ele>75.0</ele><time>2026-04-19T17:48:11Z</time></trkpt><trkpt lat="43.79076975883018" lon="11.057422739273358"><ele>76.16666666666667</ele><time>2026-04-19T17:48:12Z</time></trkpt><trkpt lat="43.79067113154868" lon="11.057425864213316"><ele>77.33333333333333</ele><time>2026-04-19T17:48:13Z</time></trkpt><trkpt lat="43.79057029993798" lon="11.057447077673263"><ele>78.5</ele><time>2026-04-19T17:48:14Z</time></trkpt><trkpt lat="43.79048550034834" lon="11.057476002172365"><ele>79.66666666666666</ele><time>2026-04-19T17:48:15Z</time></trkpt><trkpt lat="43.79041743179101" lon="11.057501425484777"><ele>80.83333333333333</ele><time>2026-04-19T17:48:16Z</time></trkpt><trkpt lat="43.79033382940647" lon="11.0575268078361"><ele>82.0</ele><time>2026-04-19T17:48:17Z</time></trkpt><trkpt lat="43.79025985062672" lon="11.057540657752993"><ele>81.0</ele><time>2026-04-19T17:48:18Z</time></trkpt><trkpt lat="43.79018592272014" lon="11.057528051512119"><ele>80.0</ele><time>2026-04-19T17:48:19Z</time></trkpt><trkpt lat="43.79011876650867" lon="11.057491808699284"><ele>79.0</ele><time>2026-04-19T17:48:20Z</time></trkpt><trkpt lat="43.790046948204" lon="11.057435069878697"><ele>78.0</ele><time>2026-04-19T17:48:21Z</time></trkpt><trkpt lat="43.789965120024675" lon="11.057370346668902"><ele>77.0</ele><time>2026-04-19T17:48:22Z</time></trkpt><trkpt lat="43.78987952990635" lon="11.05730794213227"><ele>76.0</ele><time>2026-04-19T17:48:23Z</time></trkpt><trkpt lat="43.78978673202255" lon="11.057264199366571"><ele>76.0</ele><time>2026-04-19T17:48:24Z</time></trkpt><trkpt lat="43.78968423389058" lon="11.057223965486575"><ele>76.0</ele><time>2026-04-19T17:48:25Z</time></trkpt><trkpt lat="43.78958839319893" lon="11.057190438327423"><ele>76.0</ele><time>2026-04-19T17:48:26Z</time></trkpt><trkpt lat="43.78950580807884" lon="11.0571534710976"><ele>76.0</ele><time>2026-04-19T17:48:27Z</time></trkpt><trkpt lat="43.7894212705908" lon="11.05713981802518"><ele>76.0</ele><time>2026-04-19T17:48:28Z</time></trkpt><trkpt lat="43.78934870741975" lon="11.057135209919105"><ele>74.0</ele><time>2026-04-19T17:48:29Z</time></trkpt><trkpt lat="43.78926996699965" lon="11.057155871082296"><ele>72.0</ele><time>2026-04-19T17:48:30Z</time></trkpt><trkpt lat="43.78918948195095" lon="11.057193414927841"><ele>70.0</ele><time>2026-04-19T17:48:31Z</time></trkpt><trkpt lat="43.789101389976935" lon="11.05724153314237"><ele>68.0</ele><time>2026-04-19T17:48:32Z</time></trkpt><trkpt lat="43.789014919487634" lon="11.057310832100082"><ele>66.0</ele><time>2026-04-19T17:48:33Z</time></trkpt><trkpt lat="43.7889331882056" lon="11.057401770286459"><ele>65.0</ele><time>2026-04-19T17:48:34Z</time></trkpt><trkpt lat="43.788857728581554" lon="11.057515270720916"><ele>63.99999999999999</ele><time>2026-04-19T17:48:35Z</time></trkpt><trkpt lat="43.78876560811971" lon="11.057619206361975"><ele>62.99999999999999</ele><time>2026-04-19T17:48:36Z</time></trkpt><trkpt lat="43.788701922731484" lon="11.0577263531617"><ele>62.0</ele><time>2026-04-19T17:48:37Z</time></trkpt><trkpt lat="43.78864332933519" lon="11.057826457576654"><ele>61.0</ele><time>2026-04-19T17:48:38Z</time></trkpt><trkpt lat="43.78858770100632" lon="11.057921247788443"><ele>60.99999999999999</ele><time>2026-04-19T17:48:39Z</time></trkpt><trkpt lat="43.788530935764264" lon="11.058001307835381"><ele>61.0</ele><time>2026-04-19T17:48:40Z</time></trkpt><trkpt lat="43.78848249446947" lon="11.058084366444138"><ele>61.0</ele><time>2026-04-19T17:48:41Z</time></trkpt><trkpt lat="43.788411940246895" lon="11.058132631216132"><ele>61.0</ele><time>2026-04-19T17:48:42Z</time></trkpt><trkpt lat="43.78833897788602" lon="11.058157848643127"><ele>60.99999999999999</ele><time>2026-04-19T17:48:43Z</time></trkpt><trkpt lat="43.78825423178413" lon="11.058169537378621"><ele>61.0</ele><time>2026-04-19T17:48:44Z</time></trkpt><trkpt lat="43.78816493794365" lon="11.058168945079352"><ele>61.166666666666664</ele><time>2026-04-19T17:48:45Z</time></trkpt><trkpt lat="43.78807099665123" lon="11.058150087727682"><ele>61.33333333333333</ele><time>2026-04-19T17:48:46Z</time></trkpt><trkpt lat="43.787986121613265" lon="11.058113315966429"><ele>61.5</ele><time>2026-04-19T17:48:47Z</time></trkpt><trkpt lat="43.7879056310693" lon="11.058056202010402"><ele>61.66666666666667</ele><time>2026-04-19T17:48:48Z</time></trkpt><trkpt lat="43.7878370533676" lon="11.057988740056214"><ele>61.833333333333336</ele><time>2026-04-19T17:48:49Z</time></trkpt><trkpt lat="43.78777735248589" lon="11.057905886929026"><ele>62.0</ele><time>2026-04-19T17:48:50Z</time></trkpt><trkpt lat="43.787731511945466" lon="11.057828765542148"><ele>62.00000000000001</ele><time>2026-04-19T17:48:51Z</time></trkpt><trkpt lat="43.78769759839812" lon="11.057734327301427"><ele>62.0</ele><time>2026-04-19T17:48:52Z</time></trkpt><trkpt lat="43.787671605560824" lon="11.057635292288412"><ele>62.0</ele><time>2026-04-19T17:48:53Z</time></trkpt><trkpt lat="43.78765988538413" lon="11.057513572661188"><ele>62.0</ele><time>2026-04-19T17:48:54Z</time></trkpt><trkpt lat="43.78766244517542" lon="11.05737660754415"><ele>62.00000000000001</ele><time>2026-04-19T17:48:55Z</time></trkpt><trkpt lat="43.787678600059586" lon="11.057228532085187"><ele>62.0</ele><time>2026-04-19T17:48:56Z</time></trkpt><trkpt lat="43.787703592228674" lon="11.057082125785504"><ele>60.8</ele><time>2026-04-19T17:48:57Z</time></trkpt><trkpt lat="43.78772633610987" lon="11.056950843469416"><ele>59.6</ele><time>2026-04-19T17:48:58Z</time></trkpt><trkpt lat="43.78775149305328" lon="11.05681661225636"><ele>58.39999999999999</ele><time>2026-04-19T17:48:59Z</time></trkpt><trkpt lat="43.787782016520914" lon="11.056705414810434"><ele>57.199999999999996</ele><time>2026-04-19T17:49:00Z</time></trkpt><trkpt lat="43.787834877987656" lon="11.056600183324354"><ele>56.0</ele><time>2026-04-19T17:49:01Z</time></trkpt><trkpt lat="43.78790811104449" lon="11.056496230408362"><ele>53.75</ele><time>2026-04-19T17:49:02Z</time></trkpt><trkpt lat="43.78800562204358" lon="11.05638474078711"><ele>51.5</ele><time>2026-04-19T17:49:03Z</time></trkpt><trkpt lat="43.788115908473344" lon="11.056266287766972"><ele>49.25</ele><time>2026-04-19T17:49:04Z</time></trkpt><trkpt lat="43.78822005675918" lon="11.056150445046573"><ele>47.0</ele><time>2026-04-19T17:49:05Z</time></trkpt><trkpt lat="43.78831029197458" lon="11.056044247289393"><ele>47.0</ele><time>2026-04-19T17:49:06Z</time></trkpt><trkpt lat="43.78840115961198" lon="11.05594470810664"><ele>47.0</ele><time>2026-04-19T17:49:07Z</time></trkpt><trkpt lat="43.7884921367234" lon="11.055852029480087"><ele>47.0</ele><time>2026-04-19T17:49:08Z</time></trkpt><trkpt lat="43.788569135194074" lon="11.055769430931962"><ele>47.0</ele><time>2026-04-19T17:49:09Z</time></trkpt><trkpt lat="43.78863557095461" lon="11.055695246688705"><ele>47.0</ele><time>2026-04-19T17:49:10Z</time></trkpt><trkpt lat="43.7886884198996" lon="11.055621870095916"><ele>47.2</ele><time>2026-04-19T17:49:11Z</time></trkpt><trkpt lat="43.788725183954384" lon="11.055527757759794"><ele>47.400000000000006</ele><time>2026-04-19T17:49:12Z</time></trkpt><trkpt lat="43.78874672927818" lon="11.055405366112135"><ele>47.599999999999994</ele><time>2026-04-19T17:49:13Z</time></trkpt><trkpt lat="43.78875497329055" lon="11.055276276997448"><ele>47.8</ele><time>2026-04-19T17:49:14Z</time></trkpt><trkpt lat="43.7887398881764" lon="11.055124771995164"><ele>48.0</ele><time>2026-04-19T17:49:15Z</time></trkpt><trkpt lat="43.788704548295634" lon="11.054947516954352"><ele>48.0</ele><time>2026-04-19T17:49:16Z</time></trkpt><trkpt lat="43.788664138160925" lon="11.054763206599112"><ele>48.0</ele><time>2026-04-19T17:49:17Z</time></trkpt><trkpt lat="43.788623675156416" lon="11.05458647109962"><ele>48.0</ele><time>2026-04-19T17:49:18Z</time></trkpt><trkpt lat="43.78858841886506" lon="11.05442913689607"><ele>48.0</ele><time>2026-04-19T17:49:19Z</time></trkpt><trkpt lat="43.78856011401625" lon="11.054272553771561"><ele>45.5</ele><time>2026-04-19T17:49:20Z</time></trkpt><trkpt lat="43.788527086101205" lon="11.054102950874178"><ele>43.0</ele><time>2026-04-19T17:49:21Z</time></trkpt><trkpt lat="43.788486723124755" lon="11.053942337504854"><ele>40.5</ele><time>2026-04-19T17:49:22Z</time></trkpt><trkpt lat="43.78844697350721" lon="11.053800564121314"><ele>38.0</ele><time>2026-04-19T17:49:23Z</time></trkpt><trkpt lat="43.788408312389635" lon="11.05366253575519"><ele>37.83333333333333</ele><time>2026-04-19T17:49:24Z</time></trkpt><trkpt lat="43.788366643805" lon="11.053526593059539"><ele>37.666666666666664</ele><time>2026-04-19T17:49:25Z</time></trkpt><trkpt lat="43.78832734005807" lon="11.053411830801688"><ele>37.5</ele><time>2026-04-19T17:49:26Z</time></trkpt><trkpt lat="43.78829116560447" lon="11.053312080082293"><ele>37.333333333333336</ele><time>2026-04-19T17:49:27Z</time></trkpt><trkpt lat="43.7882544816721" lon="11.053225489612473"><ele>37.16666666666667</ele><time>2026-04-19T17:49:28Z</time></trkpt><trkpt lat="43.78820417178809" lon="11.053156628463466"><ele>37.0</ele><time>2026-04-19T17:49:29Z</time></trkpt><trkpt lat="43.78814068916605" lon="11.05311092138942"><ele>38.0</ele><time>2026-04-19T17:49:30Z</time></trkpt><trkpt lat="43.78807856051554" lon="11.053055489766079"><ele>39.0</ele><time>2026-04-19T17:49:31Z</time></trkpt><trkpt lat="43.78798760170345" lon="11.05311652866363"><ele>40.0</ele><time>2026-04-19T17:49:32Z</time></trkpt><trkpt lat="43.78789020756155" lon="11.053162749257838"><ele>41.0</ele><time>2026-04-19T17:49:33Z</time></trkpt><trkpt lat="43.787772667071934" lon="11.053226476422921"><ele>42.0</ele><time>2026-04-19T17:49:34Z</time></trkpt><trkpt lat="43.787635895206684" lon="11.053302365422843"><ele>42.0</ele><time>2026-04-19T17:49:35Z</time></trkpt><trkpt lat="43.78749275779278" lon="11.053385895117826"><ele>42.0</ele><time>2026-04-19T17:49:36Z</time></trkpt><trkpt lat="43.7873572189321" lon="11.053466719958477"><ele>42.0</ele><time>2026-04-19T17:49:37Z</time></trkpt><trkpt lat="43.78721873566919" lon="11.05354990303611"><ele>42.0</ele><time>2026-04-19T17:49:38Z</time></trkpt><trkpt lat="43.78707244562411" lon="11.053642969756668"><ele>42.0</ele><time>2026-04-19T17:49:39Z</time></trkpt><trkpt lat="43.78691483351931" lon="11.05372703197748"><ele>42.0</ele><time>2026-04-19T17:49:40Z</time></trkpt><trkpt lat="43.78676979980865" lon="11.053851298152823"><ele>49.33333333333333</ele><time>2026-04-19T17:49:41Z</time></trkpt><trkpt lat="43.786625107796375" lon="11.05394757179661"><ele>56.666666666666664</ele><time>2026-04-19T17:49:42Z</time></trkpt><trkpt lat="43.786488749694826" lon="11.054035900177826"><ele>64.0</ele><time>2026-04-19T17:49:43Z</time></trkpt><trkpt lat="43.78635974217098" lon="11.054117846161894"><ele>59.75</ele><time>2026-04-19T17:49:44Z</time></trkpt><trkpt lat="43.78623466681259" lon="11.054185354670425"><ele>55.5</ele><time>2026-04-19T17:49:45Z</time></trkpt><trkpt lat="43.78609847449591" lon="11.05425152103547"><ele>51.25</ele><time>2026-04-19T17:49:46Z</time></trkpt><trkpt lat="43.78594591723806" lon="11.054314196591784"><ele>47.0</ele><time>2026-04-19T17:49:47Z</time></trkpt><trkpt lat="43.78577330626492" lon="11.05435954652278"><ele>47.0</ele><time>2026-04-19T17:49:48Z</time></trkpt><trkpt lat="43.78559850048478" lon="11.054396911991127"><ele>47.0</ele><time>2026-04-19T17:49:49Z</time></trkpt><trkpt lat="43.78542881121382" lon="11.054430767171146"><ele>47.0</ele><time>2026-04-19T17:49:50Z</time></trkpt><trkpt lat="43.785265552938206" lon="11.05447040928707"><ele>46.0</ele><time>2026-04-19T17:49:51Z</time></trkpt><trkpt lat="43.78511434589307" lon="11.054512000882278"><ele>45.0</ele><time>2026-04-19T17:49:52Z</time></trkpt><trkpt lat="43.78496954177516" lon="11.05455278833016"><ele>44.0</ele><time>2026-04-19T17:49:53Z</time></trkpt><trkpt lat="43.784832239969376" lon="11.054591507100195"><ele>43.0</ele><time>2026-04-19T17:49:54Z</time></trkpt><trkpt lat="43.78468034732266" lon="11.054643717415972"><ele>43.0</ele><time>2026-04-19T17:49:55Z</time></trkpt><trkpt lat="43.784514340288524" lon="11.054696586979642"><ele>43.0</ele><time>2026-04-19T17:49:56Z</time></trkpt><trkpt lat="43.78435457626964" lon="11.054800338996245"><ele>43.0</ele><time>2026-04-19T17:49:57Z</time></trkpt><trkpt lat="43.784213380575345" lon="11.054893929105122"><ele>41.0</ele><time>2026-04-19T17:49:58Z</time></trkpt><trkpt lat="43.78408797567516" lon="11.054993161606607"><ele>39.0</ele><time>2026-04-19T17:49:59Z</time></trkpt><trkpt lat="43.78394843321719" lon="11.055060951480096"><ele>37.0</ele><time>2026-04-19T17:50:00Z</time></trkpt><trkpt lat="43.78380086919254" lon="11.055124948173507"><ele>35.0</ele><time>2026-04-19T17:50:01Z</time></trkpt><trkpt lat="43.78366635435597" lon="11.055177278006926"><ele>35.0</ele><time>2026-04-19T17:50:02Z</time></trkpt><trkpt lat="43.78354280064679" lon="11.055225306171607"><ele>35.0</ele><time>2026-04-19T17:50:03Z</time></trkpt><trkpt lat="43.78341629487208" lon="11.055276596927314"><ele>35.0</ele><time>2026-04-19T17:50:04Z</time></trkpt><trkpt lat="43.78330175545497" lon="11.055387217439934"><ele>35.0</ele><time>2026-04-19T17:50:05Z</time></trkpt><trkpt lat="43.783211938276615" lon="11.055517806216228"><ele>35.0</ele><time>2026-04-19T17:50:06Z</time></trkpt><trkpt lat="43.78314865870235" lon="11.055626683586501"><ele>35.0</ele><time>2026-04-19T17:50:07Z</time></trkpt><trkpt lat="43.78309342862279" lon="11.05573632177455"><ele>35.0</ele><time>2026-04-19T17:50:08Z</time></trkpt><trkpt lat="43.78305003503167" lon="11.055809962852427"><ele>35.0</ele><time>2026-04-19T17:50:09Z</time></trkpt><trkpt lat="43.7829978240968" lon="11.055875370551655"><ele>35.0</ele><time>2026-04-19T17:50:10Z</time></trkpt><trkpt lat="43.782934543100005" lon="11.055931335842528"><ele>35.0</ele><time>2026-04-19T17:50:11Z</time></trkpt><trkpt lat="43.78285058368428" lon="11.055929968410858"><ele>34.75</ele><time>2026-04-19T17:50:12Z</time></trkpt><trkpt lat="43.78274729705688" lon="11.055882328016546"><ele>34.5</ele><time>2026-04-19T17:50:13Z</time></trkpt><trkpt lat="43.78263421820015" lon="11.0557981860622"><ele>34.25</ele><time>2026-04-19T17:50:14Z</time></trkpt><trkpt lat="43.78252135566331" lon="11.055719647618227"><ele>34.0</ele><time>2026-04-19T17:50:15Z</time></trkpt><trkpt lat="43.78239217152868" lon="11.055671194856577"><ele>34.0</ele><time>2026-04-19T17:50:16Z</time></trkpt><trkpt lat="43.782260610627205" lon="11.055642170154517"><ele>34.0</ele><time>2026-04-19T17:50:17Z</time></trkpt><trkpt lat="43.782119283864986" lon="11.055639446805298"><ele>34.0</ele><time>2026-04-19T17:50:18Z</time></trkpt><trkpt lat="43.781966529744" lon="11.055665192965284"><ele>34.0</ele><time>2026-04-19T17:50:19Z</time></trkpt><trkpt lat="43.78181942725659" lon="11.055694634300956"><ele>35.66666666666667</ele><time>2026-04-19T17:50:20Z</time></trkpt><trkpt lat="43.781657469456796" lon="11.05572785991046"><ele>37.333333333333336</ele><time>2026-04-19T17:50:21Z</time></trkpt><trkpt lat="43.78149531932078" lon="11.055754391265143"><ele>39.0</ele><time>2026-04-19T17:50:22Z</time></trkpt><trkpt lat="43.781346536179825" lon="11.055764756756147"><ele>39.0</ele><time>2026-04-19T17:50:23Z</time></trkpt><trkpt lat="43.7812007283619" lon="11.055770643800887"><ele>39.0</ele><time>2026-04-19T17:50:24Z</time></trkpt><trkpt lat="43.78105806086217" lon="11.055774994447201"><ele>39.0</ele><time>2026-04-19T17:50:25Z</time></trkpt><trkpt lat="43.78090946566043" lon="11.055779152878992"><ele>39.0</ele><time>2026-04-19T17:50:26Z</time></trkpt><trkpt lat="43.780771663310055" lon="11.055791035299022"><ele>38.5</ele><time>2026-04-19T17:50:27Z</time></trkpt><trkpt lat="43.78063600094047" lon="11.055817792976894"><ele>38.0</ele><time>2026-04-19T17:50:28Z</time></trkpt><trkpt lat="43.78049977034715" lon="11.055868361955872"><ele>37.5</ele><time>2026-04-19T17:50:29Z</time></trkpt><trkpt lat="43.78037078353186" lon="11.055938387938143"><ele>37.0</ele><time>2026-04-19T17:50:30Z</time></trkpt><trkpt lat="43.78026173038881" lon="11.05600405268247"><ele>41.5</ele><time>2026-04-19T17:50:31Z</time></trkpt><trkpt lat="43.78014803232803" lon="11.056065890746165"><ele>46.0</ele><time>2026-04-19T17:50:32Z</time></trkpt><trkpt lat="43.78005366783818" lon="11.0561972339396"><ele>50.5</ele><time>2026-04-19T17:50:33Z</time></trkpt><trkpt lat="43.77995547582512" lon="11.05634003470481"><ele>55.0</ele><time>2026-04-19T17:50:34Z</time></trkpt><trkpt lat="43.77984315701357" lon="11.056494347185524"><ele>50.0</ele><time>2026-04-19T17:50:35Z</time></trkpt><trkpt lat="43.779744983442434" lon="11.056683057353924"><ele>45.0</ele><time>2026-04-19T17:50:36Z</time></trkpt><trkpt lat="43.77966926403042" lon="11.056868076429641"><ele>40.0</ele><time>2026-04-19T17:50:37Z</time></trkpt><trkpt lat="43.77958301639993" lon="11.057027074955043"><ele>40.0</ele><time>2026-04-19T17:50:38Z</time></trkpt><trkpt lat="43.7794827348112" lon="11.057189409930448"><ele>40.0</ele><time>2026-04-19T17:50:39Z</time></trkpt><trkpt lat="43.77935930325686" lon="11.057354121166336"><ele>40.0</ele><time>2026-04-19T17:50:40Z</time></trkpt><trkpt lat="43.77921760599002" lon="11.057501111904326"><ele>40.66666666666667</ele><time>2026-04-19T17:50:41Z</time></trkpt><trkpt lat="43.77909074776519" lon="11.057626903218432"><ele>41.333333333333336</ele><time>2026-04-19T17:50:42Z</time></trkpt><trkpt lat="43.7789688267768" lon="11.057759075052735"><ele>42.0</ele><time>2026-04-19T17:50:43Z</time></trkpt><trkpt lat="43.778851610304706" lon="11.057900639556026"><ele>42.0</ele><time>2026-04-19T17:50:44Z</time></trkpt><trkpt lat="43.77874475837866" lon="11.058053247410648"><ele>42.0</ele><time>2026-04-19T17:50:45Z</time></trkpt><trkpt lat="43.77862890250871" lon="11.05822327607374"><ele>42.0</ele><time>2026-04-19T17:50:46Z</time></trkpt><trkpt lat="43.778527829145396" lon="11.058443413118761"><ele>45.0</ele><time>2026-04-19T17:50:47Z</time></trkpt><trkpt lat="43.77843617205086" lon="11.058671319553145"><ele>48.0</ele><time>2026-04-19T17:50:48Z</time></trkpt><trkpt lat="43.778351838222996" lon="11.058878238936092"><ele>51.0</ele><time>2026-04-19T17:50:49Z</time></trkpt><trkpt lat="43.778267774224446" lon="11.059060697446926"><ele>48.666666666666664</ele><time>2026-04-19T17:50:50Z</time></trkpt><trkpt lat="43.77818853825987" lon="11.059252769030888"><ele>46.33333333333333</ele><time>2026-04-19T17:50:51Z</time></trkpt><trkpt lat="43.778116172876324" lon="11.059460895118265"><ele>44.0</ele><time>2026-04-19T17:50:52Z</time></trkpt><trkpt lat="43.77805373248919" lon="11.059658845023105"><ele>44.0</ele><time>2026-04-19T17:50:53Z</time></trkpt><trkpt lat="43.77799591303243" lon="11.059837027002121"><ele>44.0</ele><time>2026-04-19T17:50:54Z</time></trkpt><trkpt lat="43.77795656246405" lon="11.060018626377758"><ele>44.0</ele><time>2026-04-19T17:50:55Z</time></trkpt><trkpt lat="43.77790582605118" lon="11.060173682099592"><ele>44.0</ele><time>2026-04-19T17:50:56Z</time></trkpt><trkpt lat="43.77786371951743" lon="11.060317507045054"><ele>42.75</ele><time>2026-04-19T17:50:57Z</time></trkpt><trkpt lat="43.77781071608647" lon="11.060449890071025"><ele>41.5</ele><time>2026-04-19T17:50:58Z</time></trkpt><trkpt lat="43.777778276246956" lon="11.060594875078488"><ele>40.25</ele><time>2026-04-19T17:50:59Z</time></trkpt><trkpt lat="43.77777259569087" lon="11.06075827178616"><ele>39.0</ele><time>2026-04-19T17:51:00Z</time></trkpt><trkpt lat="43.777759627402645" lon="11.060925721497942"><ele>38.75</ele><time>2026-04-19T17:51:01Z</time></trkpt><trkpt lat="43.777754766577154" lon="11.061107512990386"><ele>38.5</ele><time>2026-04-19T17:51:02Z</time></trkpt><trkpt lat="43.77775140002139" lon="11.061304313669801"><ele>38.25</ele><time>2026-04-19T17:51:03Z</time></trkpt><trkpt lat="43.77774851412044" lon="11.061480214550778"><ele>38.0</ele><time>2026-04-19T17:51:04Z</time></trkpt><trkpt lat="43.77775099616623" lon="11.06164000891717"><ele>38.0</ele><time>2026-04-19T17:51:05Z</time></trkpt><trkpt lat="43.77774727658568" lon="11.061787945173856"><ele>38.0</ele><time>2026-04-19T17:51:06Z</time></trkpt><trkpt lat="43.77774744545488" lon="11.061931350151465"><ele>38.0</ele><time>2026-04-19T17:51:07Z</time></trkpt><trkpt lat="43.77774592062727" lon="11.06207162899314"><ele>38.0</ele><time>2026-04-19T17:51:08Z</time></trkpt><trkpt lat="43.77774141502609" lon="11.062195676076678"><ele>38.0</ele><time>2026-04-19T17:51:09Z</time></trkpt><trkpt lat="43.777727449631996" lon="11.06231635111843"><ele>38.0</ele><time>2026-04-19T17:51:10Z</time></trkpt><trkpt lat="43.77769618545047" lon="11.062423773708879"><ele>38.0</ele><time>2026-04-19T17:51:11Z</time></trkpt><trkpt lat="43.77764666515684" lon="11.062540081652745"><ele>38.0</ele><time>2026-04-19T17:51:12Z</time></trkpt><trkpt lat="43.777590876437706" lon="11.06265874440935"><ele>38.0</ele><time>2026-04-19T17:51:13Z</time></trkpt><trkpt lat="43.77754898892324" lon="11.062771101805543"><ele>38.0</ele><time>2026-04-19T17:51:14Z</time></trkpt><trkpt lat="43.77751886708266" lon="11.062879175046948"><ele>38.4</ele><time>2026-04-19T17:51:15Z</time></trkpt><trkpt lat="43.777494977051084" lon="11.063006680261891"><ele>38.8</ele><time>2026-04-19T17:51:16Z</time></trkpt><trkpt lat="43.7774683017642" lon="11.063138307747694"><ele>39.2</ele><time>2026-04-19T17:51:17Z</time></trkpt><trkpt lat="43.77744330941376" lon="11.06326949593713"><ele>39.6</ele><time>2026-04-19T17:51:18Z</time></trkpt><trkpt lat="43.777414349791684" lon="11.063391125884902"><ele>40.0</ele><time>2026-04-19T17:51:19Z</time></trkpt><trkpt lat="43.777385515851016" lon="11.0634951431335"><ele>40.0</ele><time>2026-04-19T17:51:20Z</time></trkpt><trkpt lat="43.777347248040506" lon="11.06359481144189"><ele>40.0</ele><time>2026-04-19T17:51:21Z</time></trkpt><trkpt lat="43.77729357922866" lon="11.063685545934948"><ele>40.0</ele><time>2026-04-19T17:51:22Z</time></trkpt><trkpt lat="43.777229015049286" lon="11.063774022570957"><ele>40.0</ele><time>2026-04-19T17:51:23Z</time></trkpt><trkpt lat="43.77714630002246" lon="11.063857901608129"><ele>40.0</ele><time>2026-04-19T17:51:24Z</time></trkpt><trkpt lat="43.77706623892487" lon="11.063925041541317"><ele>40.0</ele><time>2026-04-19T17:51:25Z</time></trkpt><trkpt lat="43.77698863479129" lon="11.06397347239027"><ele>40.0</ele><time>2026-04-19T17:51:26Z</time></trkpt><trkpt lat="43.776912383388684" lon="11.064006413410208"><ele>40.0</ele><time>2026-04-19T17:51:27Z</time></trkpt><trkpt lat="43.7768123525202" lon="11.064038651073506"><ele>40.0</ele><time>2026-04-19T17:51:29Z</time></trkpt><trkpt lat="43.77674336561365" lon="11.064115476527196"><ele>40.0</ele><time>2026-04-19T17:51:31Z</time></trkpt><trkpt lat="43.776757229411835" lon="11.064264349396586"><ele>39.6</ele><time>2026-04-19T17:51:33Z</time></trkpt><trkpt lat="43.776803134108704" lon="11.064351824509771"><ele>39.2</ele><time>2026-04-19T17:51:34Z</time></trkpt><trkpt lat="43.77685722867849" lon="11.06445954488533"><ele>38.8</ele><time>2026-04-19T17:51:35Z</time></trkpt><trkpt lat="43.77691025302256" lon="11.064581519432924"><ele>38.4</ele><time>2026-04-19T17:51:36Z</time></trkpt><trkpt lat="43.77695241353836" lon="11.064708733813998"><ele>38.0</ele><time>2026-04-19T17:51:37Z</time></trkpt><trkpt lat="43.777007775630025" lon="11.064855237287606"><ele>37.25</ele><time>2026-04-19T17:51:38Z</time></trkpt><trkpt lat="43.7770638368786" lon="11.065004745493157"><ele>36.5</ele><time>2026-04-19T17:51:39Z</time></trkpt><trkpt lat="43.777104130758616" lon="11.065155048134523"><ele>35.75</ele><time>2026-04-19T17:51:40Z</time></trkpt><trkpt lat="43.77715655465577" lon="11.065298748001059"><ele>35.0</ele><time>2026-04-19T17:51:41Z</time></trkpt><trkpt lat="43.7772170154452" lon="11.065441709167045"><ele>35.0</ele><time>2026-04-19T17:51:42Z</time></trkpt><trkpt lat="43.77728341948867" lon="11.065585093534335"><ele>35.0</ele><time>2026-04-19T17:51:43Z</time></trkpt><trkpt lat="43.777363701697254" lon="11.065739980147832"><ele>35.0</ele><time>2026-04-19T17:51:44Z</time></trkpt><trkpt lat="43.777454034684425" lon="11.06589904694294"><ele>35.0</ele><time>2026-04-19T17:51:45Z</time></trkpt><trkpt lat="43.77754502298375" lon="11.066042574960411"><ele>36.75</ele><time>2026-04-19T17:51:46Z</time></trkpt><trkpt lat="43.77763212810336" lon="11.066181196802704"><ele>38.5</ele><time>2026-04-19T17:51:47Z</time></trkpt><trkpt lat="43.77771448124848" lon="11.066322360549195"><ele>40.25</ele><time>2026-04-19T17:51:48Z</time></trkpt><trkpt lat="43.77779187889084" lon="11.066459520403587"><ele>42.0</ele><time>2026-04-19T17:51:49Z</time></trkpt><trkpt lat="43.77786799905576" lon="11.066591265542709"><ele>44.8</ele><time>2026-04-19T17:51:50Z</time></trkpt><trkpt lat="43.7779405252296" lon="11.066711901346496"><ele>47.6</ele><time>2026-04-19T17:51:51Z</time></trkpt><trkpt lat="43.778004309051155" lon="11.066816655434144"><ele>50.39999999999999</ele><time>2026-04-19T17:51:52Z</time></trkpt><trkpt lat="43.77806851652738" lon="11.066923982134895"><ele>53.199999999999996</ele><time>2026-04-19T17:51:53Z</time></trkpt><trkpt lat="43.778132409873926" lon="11.067026083761691"><ele>56.0</ele><time>2026-04-19T17:51:54Z</time></trkpt><trkpt lat="43.77821197053604" lon="11.067124625455893"><ele>56.0</ele><time>2026-04-19T17:51:55Z</time></trkpt><trkpt lat="43.778317783760386" lon="11.067222526309227"><ele>56.0</ele><time>2026-04-19T17:51:56Z</time></trkpt><trkpt lat="43.778448348530816" lon="11.06731432738771"><ele>56.0</ele><time>2026-04-19T17:51:57Z</time></trkpt><trkpt lat="43.77859001261554" lon="11.067364945788889"><ele>56.0</ele><time>2026-04-19T17:51:58Z</time></trkpt><trkpt lat="43.77876541375679" lon="11.067463607959176"><ele>54.333333333333336</ele><time>2026-04-19T17:51:59Z</time></trkpt><trkpt lat="43.77893715024603" lon="11.067540884428574"><ele>52.66666666666667</ele><time>2026-04-19T17:52:00Z</time></trkpt><trkpt lat="43.7791249225908" lon="11.067622542468397"><ele>51.0</ele><time>2026-04-19T17:52:01Z</time></trkpt><trkpt lat="43.77929156979664" lon="11.067695737604593"><ele>54.0</ele><time>2026-04-19T17:52:02Z</time></trkpt><trkpt lat="43.77945193011278" lon="11.067767867383283"><ele>57.0</ele><time>2026-04-19T17:52:03Z</time></trkpt><trkpt lat="43.77961280242991" lon="11.067835614805368"><ele>60.0</ele><time>2026-04-19T17:52:04Z</time></trkpt><trkpt lat="43.77976263612962" lon="11.067909268025716"><ele>60.0</ele><time>2026-04-19T17:52:05Z</time></trkpt><trkpt lat="43.7799142539076" lon="11.06798510718703"><ele>60.0</ele><time>2026-04-19T17:52:06Z</time></trkpt><trkpt lat="43.780079526278165" lon="11.068058720915783"><ele>60.0</ele><time>2026-04-19T17:52:07Z</time></trkpt><trkpt lat="43.78024533673423" lon="11.068127063890445"><ele>57.66666666666667</ele><time>2026-04-19T17:52:08Z</time></trkpt><trkpt lat="43.78039450841457" lon="11.068191492310119"><ele>55.333333333333336</ele><time>2026-04-19T17:52:09Z</time></trkpt><trkpt lat="43.7805516607857" lon="11.06825973387079"><ele>53.0</ele><time>2026-04-19T17:52:10Z</time></trkpt><trkpt lat="43.7807075967962" lon="11.068332482181132"><ele>53.0</ele><time>2026-04-19T17:52:11Z</time></trkpt><trkpt lat="43.78085748933087" lon="11.06840588623114"><ele>53.0</ele><time>2026-04-19T17:52:12Z</time></trkpt><trkpt lat="43.78100834529024" lon="11.068473387407366"><ele>53.0</ele><time>2026-04-19T17:52:13Z</time></trkpt><trkpt lat="43.781165292022735" lon="11.06854123539806"><ele>53.0</ele><time>2026-04-19T17:52:14Z</time></trkpt><trkpt lat="43.781322433699856" lon="11.068607475418448"><ele>53.0</ele><time>2026-04-19T17:52:15Z</time></trkpt><trkpt lat="43.78148755909867" lon="11.06867343180608"><ele>53.0</ele><time>2026-04-19T17:52:16Z</time></trkpt><trkpt lat="43.78165041331833" lon="11.068748637453801"><ele>53.0</ele><time>2026-04-19T17:52:17Z</time></trkpt><trkpt lat="43.78181854620978" lon="11.068833340162719"><ele>53.0</ele><time>2026-04-19T17:52:18Z</time></trkpt><trkpt lat="43.78199098256328" lon="11.06892301647756"><ele>53.0</ele><time>2026-04-19T17:52:19Z</time></trkpt><trkpt lat="43.78215716669026" lon="11.06901751859351"><ele>52.0</ele><time>2026-04-19T17:52:20Z</time></trkpt><trkpt lat="43.78232034705578" lon="11.069116423160377"><ele>51.0</ele><time>2026-04-19T17:52:21Z</time></trkpt><trkpt lat="43.782471563086524" lon="11.069210455715385"><ele>50.0</ele><time>2026-04-19T17:52:22Z</time></trkpt><trkpt lat="43.78260779921129" lon="11.069291261288656"><ele>52.25</ele><time>2026-04-19T17:52:23Z</time></trkpt><trkpt lat="43.782740221234384" lon="11.069371797432668"><ele>54.5</ele><time>2026-04-19T17:52:24Z</time></trkpt><trkpt lat="43.78286226601818" lon="11.06944076486477"><ele>56.75</ele><time>2026-04-19T17:52:25Z</time></trkpt><trkpt lat="43.78296686498401" lon="11.069496208418565"><ele>59.0</ele><time>2026-04-19T17:52:26Z</time></trkpt><trkpt lat="43.783056650677" lon="11.069551068898923"><ele>59.00000000000001</ele><time>2026-04-19T17:52:27Z</time></trkpt><trkpt lat="43.78314281829075" lon="11.069603289470638"><ele>59.0</ele><time>2026-04-19T17:52:28Z</time></trkpt><trkpt lat="43.783233746359016" lon="11.069656815989946"><ele>59.0</ele><time>2026-04-19T17:52:29Z</time></trkpt><trkpt lat="43.78331262890173" lon="11.069700145831522"><ele>59.0</ele><time>2026-04-19T17:52:30Z</time></trkpt><trkpt lat="43.7833859550268" lon="11.06974482427518"><ele>59.00000000000001</ele><time>2026-04-19T17:52:31Z</time></trkpt><trkpt lat="43.78344329881163" lon="11.069782673851703"><ele>59.0</ele><time>2026-04-19T17:52:32Z</time></trkpt><trkpt lat="43.78352297531416" lon="11.069837228676928"><ele>60.0</ele><time>2026-04-19T17:52:34Z</time></trkpt><trkpt lat="43.783617975885555" lon="11.06987933992319"><ele>61.00000000000001</ele><time>2026-04-19T17:52:46Z</time></trkpt><trkpt lat="43.78369174513339" lon="11.06991869302814"><ele>62.00000000000001</ele><time>2026-04-19T17:52:47Z</time></trkpt><trkpt lat="43.78378668666689" lon="11.069977264481002"><ele>63.0</ele><time>2026-04-19T17:52:48Z</time></trkpt><trkpt lat="43.7838825484297" lon="11.070034066440865"><ele>64.0</ele><time>2026-04-19T17:52:49Z</time></trkpt><trkpt lat="43.783989319174474" lon="11.070093560127004"><ele>64.0</ele><time>2026-04-19T17:52:50Z</time></trkpt><trkpt lat="43.784103571717985" lon="11.07016442094438"><ele>64.0</ele><time>2026-04-19T17:52:51Z</time></trkpt><trkpt lat="43.78421072187191" lon="11.070240787280232"><ele>64.0</ele><time>2026-04-19T17:52:52Z</time></trkpt><trkpt lat="43.784312223179825" lon="11.070323981907054"><ele>64.0</ele><time>2026-04-19T17:52:53Z</time></trkpt><trkpt lat="43.78440782841728" lon="11.07042393912659"><ele>64.75</ele><time>2026-04-19T17:52:54Z</time></trkpt><trkpt lat="43.784501193245845" lon="11.070556354728035"><ele>65.5</ele><time>2026-04-19T17:52:55Z</time></trkpt><trkpt lat="43.78458527845804" lon="11.070692125745747"><ele>66.25</ele><time>2026-04-19T17:52:56Z</time></trkpt><trkpt lat="43.78465814251854" lon="11.070825206822855"><ele>67.0</ele><time>2026-04-19T17:52:57Z</time></trkpt><trkpt lat="43.78472000993735" lon="11.070958133657198"><ele>67.0</ele><time>2026-04-19T17:52:58Z</time></trkpt><trkpt lat="43.78477027147314" lon="11.071099376372269"><ele>67.0</ele><time>2026-04-19T17:52:59Z</time></trkpt><trkpt lat="43.7848158633976" lon="11.071240664116006"><ele>67.0</ele><time>2026-04-19T17:53:00Z</time></trkpt><trkpt lat="43.784859717887066" lon="11.071370969317973"><ele>67.0</ele><time>2026-04-19T17:53:01Z</time></trkpt><trkpt lat="43.78490286176071" lon="11.071503697577572"><ele>67.0</ele><time>2026-04-19T17:53:02Z</time></trkpt><trkpt lat="43.78493896817529" lon="11.071641789786094"><ele>66.6</ele><time>2026-04-19T17:53:03Z</time></trkpt><trkpt lat="43.78496435421526" lon="11.071787854448536"><ele>66.2</ele><time>2026-04-19T17:53:04Z</time></trkpt><trkpt lat="43.784974820346164" lon="11.071918145059316"><ele>65.8</ele><time>2026-04-19T17:53:05Z</time></trkpt><trkpt lat="43.784977247602086" lon="11.072054189448043"><ele>65.4</ele><time>2026-04-19T17:53:06Z</time></trkpt><trkpt lat="43.78496753035491" lon="11.072211391465224"><ele>65.0</ele><time>2026-04-19T17:53:07Z</time></trkpt><trkpt lat="43.78495008829436" lon="11.072372064225346"><ele>65.75</ele><time>2026-04-19T17:53:08Z</time></trkpt><trkpt lat="43.78490455308444" lon="11.072515663034352"><ele>66.5</ele><time>2026-04-19T17:53:09Z</time></trkpt><trkpt lat="43.78486390665535" lon="11.07266024142074"><ele>67.25</ele><time>2026-04-19T17:53:10Z</time></trkpt><trkpt lat="43.78482411650583" lon="11.07282457511339"><ele>68.0</ele><time>2026-04-19T17:53:11Z</time></trkpt><trkpt lat="43.78476044894133" lon="11.072989869394629"><ele>68.0</ele><time>2026-04-19T17:53:12Z</time></trkpt><trkpt lat="43.7847095252528" lon="11.07313333448493"><ele>68.0</ele><time>2026-04-19T17:53:13Z</time></trkpt><trkpt lat="43.78464968199107" lon="11.073261434658011"><ele>68.0</ele><time>2026-04-19T17:53:14Z</time></trkpt><trkpt lat="43.78463488538635" lon="11.073411593468329"><ele>68.0</ele><time>2026-04-19T17:53:15Z</time></trkpt><trkpt lat="43.78460117599395" lon="11.073542710998684"><ele>68.0</ele><time>2026-04-19T17:53:16Z</time></trkpt><trkpt lat="43.78459844971505" lon="11.073695853974792"><ele>69.5</ele><time>2026-04-19T17:53:17Z</time></trkpt><trkpt lat="43.784620224195635" lon="11.073872803544944"><ele>71.0</ele><time>2026-04-19T17:53:18Z</time></trkpt><trkpt lat="43.784649661586826" lon="11.074046269595884"><ele>72.5</ele><time>2026-04-19T17:53:19Z</time></trkpt><trkpt lat="43.78467109087031" lon="11.074220652017825"><ele>74.0</ele><time>2026-04-19T17:53:20Z</time></trkpt><trkpt lat="43.78468050701916" lon="11.074399833223058"><ele>74.25</ele><time>2026-04-19T17:53:21Z</time></trkpt><trkpt lat="43.78466354351618" lon="11.074597422659533"><ele>74.5</ele><time>2026-04-19T17:53:22Z</time></trkpt><trkpt lat="43.78464151830941" lon="11.07481294579345"><ele>74.75</ele><time>2026-04-19T17:53:23Z</time></trkpt><trkpt lat="43.78462414690824" lon="11.07500816394324"><ele>75.0</ele><time>2026-04-19T17:53:24Z</time></trkpt><trkpt lat="43.78460839057476" lon="11.075185232085227"><ele>75.25</ele><time>2026-04-19T17:53:25Z</time></trkpt><trkpt lat="43.78459425409951" lon="11.075371841236343"><ele>75.5</ele><time>2026-04-19T17:53:26Z</time></trkpt><trkpt lat="43.78459052366026" lon="11.075576587872204"><ele>75.75</ele><time>2026-04-19T17:53:27Z</time></trkpt><trkpt lat="43.7845941621486" lon="11.075784054380078"><ele>76.0</ele><time>2026-04-19T17:53:28Z</time></trkpt><trkpt lat="43.78459982722539" lon="11.07597612391583"><ele>76.0</ele><time>2026-04-19T17:53:29Z</time></trkpt><trkpt lat="43.78460619545679" lon="11.07617815041708"><ele>76.0</ele><time>2026-04-19T17:53:30Z</time></trkpt><trkpt lat="43.78461367036142" lon="11.076393950071244"><ele>76.0</ele><time>2026-04-19T17:53:31Z</time></trkpt><trkpt lat="43.78462148645941" lon="11.076605674285558"><ele>76.0</ele><time>2026-04-19T17:53:32Z</time></trkpt><trkpt lat="43.7846449311279" lon="11.076792159451102"><ele>76.0</ele><time>2026-04-19T17:53:33Z</time></trkpt><trkpt lat="43.78464548333879" lon="11.076960051197196"><ele>76.0</ele><time>2026-04-19T17:53:34Z</time></trkpt><trkpt lat="43.784642266167054" lon="11.077108209106674"><ele>76.0</ele><time>2026-04-19T17:53:35Z</time></trkpt><trkpt lat="43.78463754924083" lon="11.077242721358994"><ele>76.0</ele><time>2026-04-19T17:53:36Z</time></trkpt><trkpt lat="43.78462976578934" lon="11.077356756253037"><ele>76.0</ele><time>2026-04-19T17:53:37Z</time></trkpt><trkpt lat="43.784621401374224" lon="11.077480631510847"><ele>76.0</ele><time>2026-04-19T17:53:38Z</time></trkpt><trkpt lat="43.78458537211345" lon="11.07762756324239"><ele>76.0</ele><time>2026-04-19T17:53:39Z</time></trkpt><trkpt lat="43.784556304839924" lon="11.077788399453954"><ele>76.0</ele><time>2026-04-19T17:53:40Z</time></trkpt><trkpt lat="43.78452324445866" lon="11.077919946716372"><ele>75.75</ele><time>2026-04-19T17:53:41Z</time></trkpt><trkpt lat="43.78447788902985" lon="11.078051228555212"><ele>75.5</ele><time>2026-04-19T17:53:42Z</time></trkpt><trkpt lat="43.78441578037062" lon="11.07819989527001"><ele>75.25</ele><time>2026-04-19T17:53:43Z</time></trkpt><trkpt lat="43.78435016143311" lon="11.078344884932397"><ele>75.0</ele><time>2026-04-19T17:53:44Z</time></trkpt><trkpt lat="43.784292302283816" lon="11.078488090889003"><ele>75.0</ele><time>2026-04-19T17:53:45Z</time></trkpt><trkpt lat="43.78425151609242" lon="11.07864877053281"><ele>75.0</ele><time>2026-04-19T17:53:46Z</time></trkpt><trkpt lat="43.78418768936252" lon="11.078778956526854"><ele>75.0</ele><time>2026-04-19T17:53:47Z</time></trkpt><trkpt lat="43.78414434353815" lon="11.078910379802439"><ele>75.0</ele><time>2026-04-19T17:53:48Z</time></trkpt><trkpt lat="43.78410701969755" lon="11.079036141111485"><ele>75.0</ele><time>2026-04-19T17:53:49Z</time></trkpt><trkpt lat="43.78407622201002" lon="11.079148301061762"><ele>75.66666666666667</ele><time>2026-04-19T17:53:50Z</time></trkpt><trkpt lat="43.78406815451591" lon="11.079246077112892"><ele>76.33333333333333</ele><time>2026-04-19T17:53:51Z</time></trkpt><trkpt lat="43.78404578396466" lon="11.079338007848838"><ele>77.0</ele><time>2026-04-19T17:53:52Z</time></trkpt><trkpt lat="43.78401847412299" lon="11.079418027954077"><ele>77.66666666666666</ele><time>2026-04-19T17:53:53Z</time></trkpt><trkpt lat="43.78398041677922" lon="11.079501154518764"><ele>78.33333333333333</ele><time>2026-04-19T17:53:54Z</time></trkpt><trkpt lat="43.783880338725126" lon="11.07964087530987"><ele>79.0</ele><time>2026-04-19T17:53:56Z</time></trkpt><trkpt lat="43.78379560257921" lon="11.079739870253537"><ele>79.0</ele><time>2026-04-19T17:53:57Z</time></trkpt><trkpt lat="43.78368622346755" lon="11.079829667570548"><ele>79.0</ele><time>2026-04-19T17:53:58Z</time></trkpt><trkpt lat="43.78358498733504" lon="11.079936933930634"><ele>79.0</ele><time>2026-04-19T17:53:59Z</time></trkpt><trkpt lat="43.78348677055003" lon="11.080041001114877"><ele>79.0</ele><time>2026-04-19T17:54:00Z</time></trkpt><trkpt lat="43.78339335172642" lon="11.080139129358894"><ele>77.25</ele><time>2026-04-19T17:54:01Z</time></trkpt><trkpt lat="43.7832904536984" lon="11.080245783305402"><ele>75.5</ele><time>2026-04-19T17:54:02Z</time></trkpt><trkpt lat="43.78319547742258" lon="11.080372813690433"><ele>73.75</ele><time>2026-04-19T17:54:03Z</time></trkpt><trkpt lat="43.78308780004721" lon="11.080482804986763"><ele>72.0</ele><time>2026-04-19T17:54:04Z</time></trkpt><trkpt lat="43.78298370700488" lon="11.080587376262013"><ele>72.0</ele><time>2026-04-19T17:54:05Z</time></trkpt><trkpt lat="43.782881980431775" lon="11.08068832392401"><ele>72.0</ele><time>2026-04-19T17:54:06Z</time></trkpt><trkpt lat="43.78278802066884" lon="11.080786256256598"><ele>72.0</ele><time>2026-04-19T17:54:07Z</time></trkpt><trkpt lat="43.78269675340774" lon="11.08088279558496"><ele>72.0</ele><time>2026-04-19T17:54:08Z</time></trkpt><trkpt lat="43.782598684387615" lon="11.080985620410232"><ele>70.25</ele><time>2026-04-19T17:54:09Z</time></trkpt><trkpt lat="43.782490149127085" lon="11.081097599326744"><ele>68.5</ele><time>2026-04-19T17:54:10Z</time></trkpt><trkpt lat="43.782384345340965" lon="11.081209420820219"><ele>66.75</ele><time>2026-04-19T17:54:11Z</time></trkpt><trkpt lat="43.782278218688724" lon="11.0813207357671"><ele>65.0</ele><time>2026-04-19T17:54:12Z</time></trkpt><trkpt lat="43.78218056257768" lon="11.081422197966523"><ele>65.0</ele><time>2026-04-19T17:54:13Z</time></trkpt><trkpt lat="43.78208120380183" lon="11.081528277596874"><ele>65.0</ele><time>2026-04-19T17:54:14Z</time></trkpt><trkpt lat="43.781980292312376" lon="11.081634248253373"><ele>65.0</ele><time>2026-04-19T17:54:15Z</time></trkpt><trkpt lat="43.781870671506816" lon="11.081747980571997"><ele>65.0</ele><time>2026-04-19T17:54:16Z</time></trkpt><trkpt lat="43.781745317128504" lon="11.081881068210343"><ele>62.333333333333336</ele><time>2026-04-19T17:54:17Z</time></trkpt><trkpt lat="43.78162393598098" lon="11.082009551702452"><ele>59.66666666666667</ele><time>2026-04-19T17:54:18Z</time></trkpt><trkpt lat="43.78149911606294" lon="11.082134474082936"><ele>57.0</ele><time>2026-04-19T17:54:19Z</time></trkpt><trkpt lat="43.78137581125011" lon="11.082260902530196"><ele>57.0</ele><time>2026-04-19T17:54:20Z</time></trkpt><trkpt lat="43.78125924103318" lon="11.082383529339333"><ele>57.0</ele><time>2026-04-19T17:54:21Z</time></trkpt><trkpt lat="43.78113731036041" lon="11.082513236348705"><ele>57.0</ele><time>2026-04-19T17:54:22Z</time></trkpt><trkpt lat="43.78100901151647" lon="11.082645755142078"><ele>54.0</ele><time>2026-04-19T17:54:23Z</time></trkpt><trkpt lat="43.78088341735514" lon="11.082772698521746"><ele>51.0</ele><time>2026-04-19T17:54:24Z</time></trkpt><trkpt lat="43.78076148909816" lon="11.082897699834596"><ele>48.0</ele><time>2026-04-19T17:54:25Z</time></trkpt><trkpt lat="43.780633735390886" lon="11.083029696647147"><ele>48.0</ele><time>2026-04-19T17:54:26Z</time></trkpt><trkpt lat="43.78050200323993" lon="11.083171006031483"><ele>48.0</ele><time>2026-04-19T17:54:27Z</time></trkpt><trkpt lat="43.780380402579425" lon="11.083299467820694"><ele>48.0</ele><time>2026-04-19T17:54:28Z</time></trkpt><trkpt lat="43.780277340099694" lon="11.083402873992606"><ele>48.0</ele><time>2026-04-19T17:54:29Z</time></trkpt><trkpt lat="43.78018907707503" lon="11.083496604997281"><ele>47.25</ele><time>2026-04-19T17:54:30Z</time></trkpt><trkpt lat="43.780105633337385" lon="11.083586101419552"><ele>46.5</ele><time>2026-04-19T17:54:31Z</time></trkpt><trkpt lat="43.780014398966635" lon="11.08367602638053"><ele>45.75</ele><time>2026-04-19T17:54:32Z</time></trkpt><trkpt lat="43.77991543659195" lon="11.083776076189212"><ele>45.0</ele><time>2026-04-19T17:54:33Z</time></trkpt><trkpt lat="43.779803019536125" lon="11.083867554000443"><ele>45.0</ele><time>2026-04-19T17:54:34Z</time></trkpt><trkpt lat="43.779683579049525" lon="11.084006096138294"><ele>45.0</ele><time>2026-04-19T17:54:35Z</time></trkpt><trkpt lat="43.77958547459207" lon="11.084149918100968"><ele>45.0</ele><time>2026-04-19T17:54:36Z</time></trkpt><trkpt lat="43.77948522817943" lon="11.08430552256139"><ele>45.0</ele><time>2026-04-19T17:54:37Z</time></trkpt><trkpt lat="43.77939360785383" lon="11.084452949522845"><ele>44.75</ele><time>2026-04-19T17:54:38Z</time></trkpt><trkpt lat="43.77930499460587" lon="11.084590849355893"><ele>44.5</ele><time>2026-04-19T17:54:39Z</time></trkpt><trkpt lat="43.779206937921586" lon="11.084734183873545"><ele>44.25</ele><time>2026-04-19T17:54:40Z</time></trkpt><trkpt lat="43.77910345788744" lon="11.084872870229894"><ele>44.0</ele><time>2026-04-19T17:54:41Z</time></trkpt><trkpt lat="43.779004983545036" lon="11.085002533501003"><ele>46.75</ele><time>2026-04-19T17:54:42Z</time></trkpt><trkpt lat="43.77889469332649" lon="11.085139533358085"><ele>49.5</ele><time>2026-04-19T17:54:43Z</time></trkpt><trkpt lat="43.778792718778526" lon="11.085266117828866"><ele>52.25</ele><time>2026-04-19T17:54:44Z</time></trkpt><trkpt lat="43.778698036217435" lon="11.085383600919883"><ele>55.0</ele><time>2026-04-19T17:54:45Z</time></trkpt><trkpt lat="43.77860625290648" lon="11.085515819463618"><ele>53.0</ele><time>2026-04-19T17:54:46Z</time></trkpt><trkpt lat="43.77850785953488" lon="11.085634031632194"><ele>51.0</ele><time>2026-04-19T17:54:47Z</time></trkpt><trkpt lat="43.77842247343968" lon="11.085743112217582"><ele>49.0</ele><time>2026-04-19T17:54:48Z</time></trkpt><trkpt lat="43.77834668531799" lon="11.085835725920218"><ele>47.0</ele><time>2026-04-19T17:54:49Z</time></trkpt><trkpt lat="43.77828245407949" lon="11.085918298748354"><ele>45.0</ele><time>2026-04-19T17:54:50Z</time></trkpt><trkpt lat="43.778225869109" lon="11.085999758338584"><ele>45.0</ele><time>2026-04-19T17:54:51Z</time></trkpt><trkpt lat="43.778160315944085" lon="11.086055778669897"><ele>45.0</ele><time>2026-04-19T17:54:52Z</time></trkpt><trkpt lat="43.778105267889714" lon="11.086131378648286"><ele>45.0</ele><time>2026-04-19T17:54:53Z</time></trkpt><trkpt lat="43.77805364349281" lon="11.086202276886247"><ele>45.0</ele><time>2026-04-19T17:54:54Z</time></trkpt><trkpt lat="43.77798539090959" lon="11.086296016409017"><ele>45.0</ele><time>2026-04-19T17:54:56Z</time></trkpt><trkpt lat="43.77790884150611" lon="11.086353698003714"><ele>45.0</ele><time>2026-04-19T17:54:59Z</time></trkpt><trkpt lat="43.77786029024063" lon="11.086449404041616"><ele>45.0</ele><time>2026-04-19T17:55:01Z</time></trkpt><trkpt lat="43.777807170974185" lon="11.086526966446964"><ele>45.0</ele><time>2026-04-19T17:55:02Z</time></trkpt><trkpt lat="43.77776333596802" lon="11.0866116620782"><ele>45.0</ele><time>2026-04-19T17:55:03Z</time></trkpt><trkpt lat="43.77770895261339" lon="11.086725634157027"><ele>45.0</ele><time>2026-04-19T17:55:04Z</time></trkpt><trkpt lat="43.77761234928208" lon="11.086864703346297"><ele>45.0</ele><time>2026-04-19T17:55:05Z</time></trkpt><trkpt lat="43.77751639621983" lon="11.08700106882921"><ele>44.75</ele><time>2026-04-19T17:55:06Z</time></trkpt><trkpt lat="43.77740874100261" lon="11.087153593522821"><ele>44.5</ele><time>2026-04-19T17:55:07Z</time></trkpt><trkpt lat="43.77731898236979" lon="11.087275428363672"><ele>44.25</ele><time>2026-04-19T17:55:08Z</time></trkpt><trkpt lat="43.77722199015746" lon="11.087395393390471"><ele>44.0</ele><time>2026-04-19T17:55:09Z</time></trkpt><trkpt lat="43.777145786126525" lon="11.087543700929624"><ele>44.0</ele><time>2026-04-19T17:55:10Z</time></trkpt><trkpt lat="43.77706033575662" lon="11.087714705663018"><ele>44.0</ele><time>2026-04-19T17:55:11Z</time></trkpt><trkpt lat="43.77698686340516" lon="11.087911474324473"><ele>44.0</ele><time>2026-04-19T17:55:12Z</time></trkpt><trkpt lat="43.7769188618237" lon="11.088111791489586"><ele>43.0</ele><time>2026-04-19T17:55:13Z</time></trkpt><trkpt lat="43.7768575928481" lon="11.088312179909856"><ele>42.0</ele><time>2026-04-19T17:55:14Z</time></trkpt><trkpt lat="43.776792006731746" lon="11.088523217663878"><ele>41.0</ele><time>2026-04-19T17:55:15Z</time></trkpt><trkpt lat="43.776726390921944" lon="11.088760098252646"><ele>41.0</ele><time>2026-04-19T17:55:16Z</time></trkpt><trkpt lat="43.77666358508493" lon="11.08902267252879"><ele>41.0</ele><time>2026-04-19T17:55:17Z</time></trkpt><trkpt lat="43.77660518738627" lon="11.089272873189064"><ele>41.0</ele><time>2026-04-19T17:55:18Z</time></trkpt><trkpt lat="43.77655633804559" lon="11.089515078683037"><ele>42.0</ele><time>2026-04-19T17:55:19Z</time></trkpt><trkpt lat="43.7764947773029" lon="11.089760693477835"><ele>43.0</ele><time>2026-04-19T17:55:20Z</time></trkpt><trkpt lat="43.77647300542234" lon="11.089995473654355"><ele>44.0</ele><time>2026-04-19T17:55:21Z</time></trkpt><trkpt lat="43.77643701038616" lon="11.090255165400494"><ele>44.0</ele><time>2026-04-19T17:55:22Z</time></trkpt><trkpt lat="43.77640416332317" lon="11.090545641029445"><ele>44.0</ele><time>2026-04-19T17:55:23Z</time></trkpt><trkpt lat="43.77637193019452" lon="11.090810049489818"><ele>44.0</ele><time>2026-04-19T17:55:24Z</time></trkpt><trkpt lat="43.7763451164203" lon="11.091032777599558"><ele>45.0</ele><time>2026-04-19T17:55:25Z</time></trkpt><trkpt lat="43.77631848943182" lon="11.091241654347165"><ele>46.0</ele><time>2026-04-19T17:55:26Z</time></trkpt><trkpt lat="43.77629717613887" lon="11.09144072465826"><ele>47.0</ele><time>2026-04-19T17:55:27Z</time></trkpt><trkpt lat="43.77628526016353" lon="11.091610432883193"><ele>48.0</ele><time>2026-04-19T17:55:28Z</time></trkpt><trkpt lat="43.77626964989803" lon="11.091763923271415"><ele>49.0</ele><time>2026-04-19T17:55:29Z</time></trkpt><trkpt lat="43.77625870537991" lon="11.091894035672505"><ele>50.0</ele><time>2026-04-19T17:55:30Z</time></trkpt><trkpt lat="43.77625402660692" lon="11.09199508065796"><ele>51.0</ele><time>2026-04-19T17:55:31Z</time></trkpt><trkpt lat="43.77624681569387" lon="11.092090845077143"><ele>52.0</ele><time>2026-04-19T17:55:32Z</time></trkpt><trkpt lat="43.77623926396993" lon="11.092195504178688"><ele>53.0</ele><time>2026-04-19T17:55:33Z</time></trkpt><trkpt lat="43.776229816782354" lon="11.092314623065686"><ele>54.0</ele><time>2026-04-19T17:55:34Z</time></trkpt><trkpt lat="43.77621684447522" lon="11.092436559215804"><ele>54.666666666666664</ele><time>2026-04-19T17:55:35Z</time></trkpt><trkpt lat="43.776207094719155" lon="11.092540713875644"><ele>55.33333333333333</ele><time>2026-04-19T17:55:36Z</time></trkpt><trkpt lat="43.77619981841153" lon="11.092645787546362"><ele>56.0</ele><time>2026-04-19T17:55:37Z</time></trkpt><trkpt lat="43.7761959984528" lon="11.092742278814937"><ele>56.666666666666664</ele><time>2026-04-19T17:55:38Z</time></trkpt><trkpt lat="43.77618779340005" lon="11.092885473172508"><ele>57.33333333333333</ele><time>2026-04-19T17:55:40Z</time></trkpt><trkpt lat="43.77616165893297" lon="11.092995231002059"><ele>58.0</ele><time>2026-04-19T17:55:43Z</time></trkpt><trkpt lat="43.77615855326156" lon="11.093098101476883"><ele>58.0</ele><time>2026-04-19T17:56:08Z</time></trkpt><trkpt lat="43.77603798265925" lon="11.093055561669544"><ele>58.0</ele><time>2026-04-19T17:56:09Z</time></trkpt><trkpt lat="43.77597043789257" lon="11.093061336548375"><ele>58.0</ele><time>2026-04-19T17:56:10Z</time></trkpt><trkpt lat="43.77587701591986" lon="11.093069014869357"><ele>58.0</ele><time>2026-04-19T17:56:11Z</time></trkpt><trkpt lat="43.77579565593057" lon="11.093075243638856"><ele>58.0</ele><time>2026-04-19T17:56:12Z</time></trkpt><trkpt lat="43.7757076162404" lon="11.093081365514672"><ele>54.599999999999994</ele><time>2026-04-19T17:56:13Z</time></trkpt><trkpt lat="43.77562137042862" lon="11.093085198619866"><ele>51.199999999999996</ele><time>2026-04-19T17:56:14Z</time></trkpt><trkpt lat="43.775540637158855" lon="11.09308834323566"><ele>47.8</ele><time>2026-04-19T17:56:15Z</time></trkpt><trkpt lat="43.775408092794805" lon="11.093078250502336"><ele>44.4</ele><time>2026-04-19T17:56:17Z</time></trkpt><trkpt lat="43.775330734445454" lon="11.093062480927754"><ele>41.0</ele><time>2026-04-19T17:56:18Z</time></trkpt><trkpt lat="43.775259329718956" lon="11.093054339014808"><ele>41.0</ele><time>2026-04-19T17:56:19Z</time></trkpt><trkpt lat="43.775175813099175" lon="11.093048862579934"><ele>41.0</ele><time>2026-04-19T17:56:20Z</time></trkpt><trkpt lat="43.775098744741605" lon="11.0930849439083"><ele>41.0</ele><time>2026-04-19T17:56:21Z</time></trkpt><trkpt lat="43.775023551492495" lon="11.093068009169263"><ele>41.0</ele><time>2026-04-19T17:56:22Z</time></trkpt><trkpt lat="43.77492900637179" lon="11.093043851809657"><ele>41.0</ele><time>2026-04-19T17:56:23Z</time></trkpt><trkpt lat="43.77483713970472" lon="11.09301123466773"><ele>41.0</ele><time>2026-04-19T17:56:24Z</time></trkpt><trkpt lat="43.774749233397564" lon="11.092974092160732"><ele>41.0</ele><time>2026-04-19T17:56:25Z</time></trkpt><trkpt lat="43.77466550555583" lon="11.092937051296238"><ele>41.0</ele><time>2026-04-19T17:56:26Z</time></trkpt><trkpt lat="43.77458763974859" lon="11.092892965648392"><ele>41.0</ele><time>2026-04-19T17:56:27Z</time></trkpt><trkpt lat="43.77451326955341" lon="11.092857147091122"><ele>41.0</ele><time>2026-04-19T17:56:28Z</time></trkpt><trkpt lat="43.77444694893438" lon="11.092820605923206"><ele>41.0</ele><time>2026-04-19T17:56:29Z</time></trkpt><trkpt lat="43.77438065086314" lon="11.092790035907282"><ele>41.0</ele><time>2026-04-19T17:56:30Z</time></trkpt><trkpt lat="43.774318149940314" lon="11.092775538740916"><ele>40.599999999999994</ele><time>2026-04-19T17:56:31Z</time></trkpt><trkpt lat="43.774194518644435" lon="11.092846248638015"><ele>40.199999999999996</ele><time>2026-04-19T17:56:33Z</time></trkpt><trkpt lat="43.77413583366543" lon="11.092901539454083"><ele>39.8</ele><time>2026-04-19T17:56:34Z</time></trkpt><trkpt lat="43.77407797250207" lon="11.092952863312973"><ele>39.4</ele><time>2026-04-19T17:56:35Z</time></trkpt><trkpt lat="43.773968404394125" lon="11.093051521441371"><ele>39.0</ele><time>2026-04-19T17:56:37Z</time></trkpt><trkpt lat="43.77390860634648" lon="11.093105645189512"><ele>39.0</ele><time>2026-04-19T17:56:38Z</time></trkpt><trkpt lat="43.773852523683296" lon="11.09315884742846"><ele>39.0</ele><time>2026-04-19T17:56:39Z</time></trkpt><trkpt lat="43.773800727303595" lon="11.09321132651439"><ele>39.0</ele><time>2026-04-19T17:56:40Z</time></trkpt><trkpt lat="43.77372623768615" lon="11.093351049337853"><ele>39.0</ele><time>2026-04-19T17:56:42Z</time></trkpt><trkpt lat="43.77367176079397" lon="11.093403918924897"><ele>39.0</ele><time>2026-04-19T17:56:43Z</time></trkpt><trkpt lat="43.77370370923281" lon="11.093571743527429"><ele>39.0</ele><time>2026-04-19T17:56:44Z</time></trkpt><trkpt lat="43.77370038241026" lon="11.093695938765928"><ele>38.833333333333336</ele><time>2026-04-19T17:56:45Z</time></trkpt><trkpt lat="43.773700688680826" lon="11.093816413230705"><ele>38.666666666666664</ele><time>2026-04-19T17:56:46Z</time></trkpt><trkpt lat="43.77370203559445" lon="11.09394015868654"><ele>38.5</ele><time>2026-04-19T17:56:47Z</time></trkpt><trkpt lat="43.77370174713706" lon="11.09406413124916"><ele>38.33333333333333</ele><time>2026-04-19T17:56:48Z</time></trkpt><trkpt lat="43.773702801387664" lon="11.094190104726728"><ele>38.166666666666664</ele><time>2026-04-19T17:56:49Z</time></trkpt><trkpt lat="43.77370497633024" lon="11.094313393643779"><ele>38.0</ele><time>2026-04-19T17:56:50Z</time></trkpt><trkpt lat="43.77370585249333" lon="11.094435351737445"><ele>38.0</ele><time>2026-04-19T17:56:51Z</time></trkpt><trkpt lat="43.77370715308201" lon="11.094553131403277"><ele>38.0</ele><time>2026-04-19T17:56:52Z</time></trkpt><trkpt lat="43.77370812939315" lon="11.094659363968374"><ele>38.0</ele><time>2026-04-19T17:56:53Z</time></trkpt><trkpt lat="43.773709819401496" lon="11.09474923823993"><ele>38.0</ele><time>2026-04-19T17:56:54Z</time></trkpt><trkpt lat="43.77370864415603" lon="11.094904765955201"><ele>38.0</ele><time>2026-04-19T17:56:56Z</time></trkpt><trkpt lat="43.77370997831449" lon="11.095026855070492"><ele>38.0</ele><time>2026-04-19T17:56:58Z</time></trkpt><trkpt lat="43.77371159497818" lon="11.095142321159088"><ele>38.199999999999996</ele><time>2026-04-19T17:57:00Z</time></trkpt><trkpt lat="43.773700612021855" lon="11.095335080005638"><ele>38.4</ele><time>2026-04-19T17:57:02Z</time></trkpt><trkpt lat="43.773688947629964" lon="11.095477155439971"><ele>38.599999999999994</ele><time>2026-04-19T17:57:03Z</time></trkpt><trkpt lat="43.77366733471601" lon="11.095609732646631"><ele>38.8</ele><time>2026-04-19T17:57:04Z</time></trkpt><trkpt lat="43.773664768312706" lon="11.095724866856473"><ele>39.0</ele><time>2026-04-19T17:57:05Z</time></trkpt><trkpt lat="43.77367761781776" lon="11.095833468405175"><ele>39.142857142857146</ele><time>2026-04-19T17:57:06Z</time></trkpt><trkpt lat="43.77366739712563" lon="11.095925147110297"><ele>39.285714285714285</ele><time>2026-04-19T17:57:07Z</time></trkpt><trkpt lat="43.77360715694866" lon="11.096040994719067"><ele>39.42857142857143</ele><time>2026-04-19T17:57:09Z</time></trkpt><trkpt lat="43.77354668959838" lon="11.096071324481523"><ele>39.57142857142857</ele><time>2026-04-19T17:57:10Z</time></trkpt><trkpt lat="43.773479025442136" lon="11.096075104339857"><ele>39.714285714285715</ele><time>2026-04-19T17:57:11Z</time></trkpt><trkpt lat="43.77340633180235" lon="11.096073526495681"><ele>39.857142857142854</ele><time>2026-04-19T17:57:12Z</time></trkpt><trkpt lat="43.77333176533149" lon="11.096071928841164"><ele>40.0</ele><time>2026-04-19T17:57:13Z</time></trkpt><trkpt lat="43.77323301120331" lon="11.09607438670176"><ele>38.66666666666667</ele><time>2026-04-19T17:57:14Z</time></trkpt><trkpt lat="43.77313462669384" lon="11.096071958265147"><ele>37.333333333333336</ele><time>2026-04-19T17:57:15Z</time></trkpt><trkpt lat="43.77303987807117" lon="11.096068975987668"><ele>36.0</ele><time>2026-04-19T17:57:16Z</time></trkpt><trkpt lat="43.772958651861025" lon="11.096066952848965"><ele>34.666666666666664</ele><time>2026-04-19T17:57:17Z</time></trkpt><trkpt lat="43.77288282741611" lon="11.096067370031253"><ele>33.33333333333333</ele><time>2026-04-19T17:57:18Z</time></trkpt><trkpt lat="43.772806537047266" lon="11.096066342166306"><ele>32.0</ele><time>2026-04-19T17:57:19Z</time></trkpt><trkpt lat="43.77273168684326" lon="11.096064201342939"><ele>32.14285714285714</ele><time>2026-04-19T17:57:20Z</time></trkpt><trkpt lat="43.7726577279759" lon="11.096064851253125"><ele>32.285714285714285</ele><time>2026-04-19T17:57:21Z</time></trkpt><trkpt lat="43.77258422059263" lon="11.096067499851461"><ele>32.42857142857143</ele><time>2026-04-19T17:57:22Z</time></trkpt><trkpt lat="43.772511655379205" lon="11.096069764080966"><ele>32.57142857142857</ele><time>2026-04-19T17:57:23Z</time></trkpt><trkpt lat="43.772439791139305" lon="11.096071157806001"><ele>32.714285714285715</ele><time>2026-04-19T17:57:24Z</time></trkpt><trkpt lat="43.77236927281075" lon="11.096070139960021"><ele>32.857142857142854</ele><time>2026-04-19T17:57:25Z</time></trkpt><trkpt lat="43.772297640951564" lon="11.096069364060185"><ele>33.0</ele><time>2026-04-19T17:57:26Z</time></trkpt><trkpt lat="43.77222042512154" lon="11.09606946105284"><ele>33.0</ele><time>2026-04-19T17:57:27Z</time></trkpt><trkpt lat="43.772111032417165" lon="11.096071003664742"><ele>33.0</ele><time>2026-04-19T17:57:29Z</time></trkpt><trkpt lat="43.772026679303835" lon="11.096080359330854"><ele>33.0</ele><time>2026-04-19T17:57:31Z</time></trkpt><trkpt lat="43.77196216973485" lon="11.096081026673971"><ele>33.0</ele><time>2026-04-19T17:57:33Z</time></trkpt><trkpt lat="43.771828928063734" lon="11.09606748440862"><ele>33.0</ele><time>2026-04-19T17:57:35Z</time></trkpt><trkpt lat="43.77176189279411" lon="11.096058398483384"><ele>34.599999999999994</ele><time>2026-04-19T17:57:36Z</time></trkpt><trkpt lat="43.77164273825114" lon="11.096033490121302"><ele>36.199999999999996</ele><time>2026-04-19T17:57:38Z</time></trkpt><trkpt lat="43.77156464798943" lon="11.096013002467739"><ele>37.8</ele><time>2026-04-19T17:57:40Z</time></trkpt><trkpt lat="43.77148724353103" lon="11.095988652214606"><ele>39.4</ele><time>2026-04-19T17:58:36Z</time></trkpt><trkpt lat="43.77142166637206" lon="11.095967436118059"><ele>41.0</ele><time>2026-04-19T17:58:38Z</time></trkpt><trkpt lat="43.77141838249237" lon="11.09618907771623"><ele>41.0</ele><time>2026-04-19T17:58:40Z</time></trkpt><trkpt lat="43.771315969757175" lon="11.096303779566144"><ele>41.0</ele><time>2026-04-19T17:58:41Z</time></trkpt><trkpt lat="43.771294104887666" lon="11.096462987381072"><ele>41.0</ele><time>2026-04-19T17:58:42Z</time></trkpt><trkpt lat="43.77127311017347" lon="11.096619237668943"><ele>41.0</ele><time>2026-04-19T17:58:43Z</time></trkpt><trkpt lat="43.771249837306385" lon="11.096787017625"><ele>41.25</ele><time>2026-04-19T17:58:44Z</time></trkpt><trkpt lat="43.7712300196894" lon="11.09694668248639"><ele>41.5</ele><time>2026-04-19T17:58:45Z</time></trkpt><trkpt lat="43.771208367867004" lon="11.097108410141347"><ele>41.75</ele><time>2026-04-19T17:58:46Z</time></trkpt><trkpt lat="43.77118518236794" lon="11.0972726476714"><ele>42.0</ele><time>2026-04-19T17:58:47Z</time></trkpt><trkpt lat="43.771166536298765" lon="11.097445116417184"><ele>42.25</ele><time>2026-04-19T17:58:48Z</time></trkpt><trkpt lat="43.771145724416485" lon="11.097632251794934"><ele>42.5</ele><time>2026-04-19T17:58:49Z</time></trkpt><trkpt lat="43.77111831786686" lon="11.097813234959405"><ele>42.75</ele><time>2026-04-19T17:58:50Z</time></trkpt><trkpt lat="43.771092570699906" lon="11.097990614260015"><ele>43.0</ele><time>2026-04-19T17:58:51Z</time></trkpt><trkpt lat="43.7710609801385" lon="11.098178509344493"><ele>42.5</ele><time>2026-04-19T17:58:52Z</time></trkpt><trkpt lat="43.771026935796826" lon="11.098366994816221"><ele>42.0</ele><time>2026-04-19T17:58:53Z</time></trkpt><trkpt lat="43.77099088669909" lon="11.098557023067107"><ele>41.5</ele><time>2026-04-19T17:58:54Z</time></trkpt><trkpt lat="43.7709516444174" lon="11.09876063531678"><ele>41.0</ele><time>2026-04-19T17:58:55Z</time></trkpt><trkpt lat="43.77091178124237" lon="11.098968033553533"><ele>42.0</ele><time>2026-04-19T17:58:56Z</time></trkpt><trkpt lat="43.77085845869139" lon="11.099217979302052"><ele>43.0</ele><time>2026-04-19T17:58:57Z</time></trkpt><trkpt lat="43.77081286045961" lon="11.099437527667853"><ele>44.0</ele><time>2026-04-19T17:58:58Z</time></trkpt><trkpt lat="43.770770563732256" lon="11.099637734365924"><ele>44.0</ele><time>2026-04-19T17:58:59Z</time></trkpt><trkpt lat="43.770731431934855" lon="11.099837033364723"><ele>44.0</ele><time>2026-04-19T17:59:00Z</time></trkpt><trkpt lat="43.77069063868712" lon="11.100024218682028"><ele>44.0</ele><time>2026-04-19T17:59:01Z</time></trkpt><trkpt lat="43.77065675716628" lon="11.100208158969219"><ele>44.0</ele><time>2026-04-19T17:59:02Z</time></trkpt><trkpt lat="43.77062700447939" lon="11.100410502893961"><ele>44.33333333333333</ele><time>2026-04-19T17:59:03Z</time></trkpt><trkpt lat="43.7705910138306" lon="11.1006242213239"><ele>44.666666666666664</ele><time>2026-04-19T17:59:04Z</time></trkpt><trkpt lat="43.770556475044856" lon="11.10083381128212"><ele>45.0</ele><time>2026-04-19T17:59:05Z</time></trkpt><trkpt lat="43.7705238515086" lon="11.101040274571846"><ele>45.0</ele><time>2026-04-19T17:59:06Z</time></trkpt><trkpt lat="43.77049348605467" lon="11.10122762031176"><ele>45.0</ele><time>2026-04-19T17:59:07Z</time></trkpt><trkpt lat="43.770465742071444" lon="11.101414175514483"><ele>45.0</ele><time>2026-04-19T17:59:08Z</time></trkpt><trkpt lat="43.77043407898444" lon="11.101605402517674"><ele>45.0</ele><time>2026-04-19T17:59:09Z</time></trkpt><trkpt lat="43.77040893419644" lon="11.101782713989133"><ele>44.5</ele><time>2026-04-19T17:59:10Z</time></trkpt><trkpt lat="43.77038179650106" lon="11.101962026346595"><ele>44.0</ele><time>2026-04-19T17:59:11Z</time></trkpt><trkpt lat="43.77035433541497" lon="11.10213747483497"><ele>43.5</ele><time>2026-04-19T17:59:12Z</time></trkpt><trkpt lat="43.77032472023065" lon="11.102315917784313"><ele>43.0</ele><time>2026-04-19T17:59:13Z</time></trkpt><trkpt lat="43.77029477869708" lon="11.102484732371341"><ele>41.5</ele><time>2026-04-19T17:59:14Z</time></trkpt><trkpt lat="43.77026913116017" lon="11.102638591835037"><ele>40.0</ele><time>2026-04-19T17:59:15Z</time></trkpt><trkpt lat="43.77024548969758" lon="11.10279227839311"><ele>38.5</ele><time>2026-04-19T17:59:16Z</time></trkpt><trkpt lat="43.770215325156855" lon="11.102953283728974"><ele>37.0</ele><time>2026-04-19T17:59:17Z</time></trkpt><trkpt lat="43.77018344714653" lon="11.10312628775441"><ele>37.0</ele><time>2026-04-19T17:59:18Z</time></trkpt><trkpt lat="43.770154046134095" lon="11.103314250816073"><ele>37.0</ele><time>2026-04-19T17:59:19Z</time></trkpt><trkpt lat="43.770129423195925" lon="11.103485460528576"><ele>37.0</ele><time>2026-04-19T17:59:20Z</time></trkpt><trkpt lat="43.770107977980125" lon="11.103644106826852"><ele>37.0</ele><time>2026-04-19T17:59:21Z</time></trkpt><trkpt lat="43.770082840406104" lon="11.103792958378127"><ele>37.0</ele><time>2026-04-19T17:59:22Z</time></trkpt><trkpt lat="43.77005795830685" lon="11.103924996129683"><ele>37.0</ele><time>2026-04-19T17:59:23Z</time></trkpt><trkpt lat="43.770036132817914" lon="11.104049093143217"><ele>37.0</ele><time>2026-04-19T17:59:24Z</time></trkpt><trkpt lat="43.770015875617375" lon="11.104161435398401"><ele>37.0</ele><time>2026-04-19T17:59:25Z</time></trkpt><trkpt lat="43.769997701321245" lon="11.104267624647772"><ele>37.0</ele><time>2026-04-19T17:59:26Z</time></trkpt><trkpt lat="43.76998439092874" lon="11.104355927920789"><ele>37.0</ele><time>2026-04-19T17:59:27Z</time></trkpt><trkpt lat="43.7699458676735" lon="11.104523426174904"><ele>37.4</ele><time>2026-04-19T17:59:29Z</time></trkpt><trkpt lat="43.76992531901141" lon="11.104634509326095"><ele>37.800000000000004</ele><time>2026-04-19T17:59:31Z</time></trkpt><trkpt lat="43.76991875076559" lon="11.104725420994352"><ele>38.2</ele><time>2026-04-19T17:59:36Z</time></trkpt><trkpt lat="43.76988666498386" lon="11.104892385050228"><ele>38.6</ele><time>2026-04-19T17:59:38Z</time></trkpt><trkpt lat="43.76986572807196" lon="11.105029977973329"><ele>39.0</ele><time>2026-04-19T17:59:39Z</time></trkpt><trkpt lat="43.76983417320664" lon="11.105189727887733"><ele>39.2</ele><time>2026-04-19T17:59:40Z</time></trkpt><trkpt lat="43.769803254949274" lon="11.105337321258364"><ele>39.4</ele><time>2026-04-19T17:59:41Z</time></trkpt><trkpt lat="43.76977550576312" lon="11.10546772358843"><ele>39.6</ele><time>2026-04-19T17:59:42Z</time></trkpt><trkpt lat="43.76974960771032" lon="11.105593107643774"><ele>39.8</ele><time>2026-04-19T17:59:43Z</time></trkpt><trkpt lat="43.76972356448359" lon="11.10570864981688"><ele>40.0</ele><time>2026-04-19T17:59:44Z</time></trkpt><trkpt lat="43.76969103780302" lon="11.105825206382395"><ele>40.6</ele><time>2026-04-19T17:59:45Z</time></trkpt><trkpt lat="43.7696579361147" lon="11.105942094952182"><ele>41.2</ele><time>2026-04-19T17:59:46Z</time></trkpt><trkpt lat="43.76962827302955" lon="11.106072733604496"><ele>41.8</ele><time>2026-04-19T17:59:47Z</time></trkpt><trkpt lat="43.76960329864769" lon="11.106240305515996"><ele>42.4</ele><time>2026-04-19T17:59:48Z</time></trkpt><trkpt lat="43.76957151372428" lon="11.106416467589332"><ele>43.0</ele><time>2026-04-19T17:59:49Z</time></trkpt><trkpt lat="43.76954300285972" lon="11.106577298861039"><ele>42.5</ele><time>2026-04-19T17:59:50Z</time></trkpt><trkpt lat="43.76951115609439" lon="11.106730287053633"><ele>42.0</ele><time>2026-04-19T17:59:51Z</time></trkpt><trkpt lat="43.76947010879232" lon="11.106884964305936"><ele>41.5</ele><time>2026-04-19T17:59:52Z</time></trkpt><trkpt lat="43.76941737379067" lon="11.107035740397718"><ele>41.0</ele><time>2026-04-19T17:59:53Z</time></trkpt><trkpt lat="43.76936836239858" lon="11.107168655412922"><ele>41.199999999999996</ele><time>2026-04-19T17:59:54Z</time></trkpt><trkpt lat="43.76932190448477" lon="11.107305813132006"><ele>41.4</ele><time>2026-04-19T17:59:55Z</time></trkpt><trkpt lat="43.76929471071096" lon="11.107447712974269"><ele>41.6</ele><time>2026-04-19T17:59:56Z</time></trkpt><trkpt lat="43.76928733078771" lon="11.107596999251948"><ele>41.8</ele><time>2026-04-19T17:59:57Z</time></trkpt><trkpt lat="43.769295688405286" lon="11.107749226531075"><ele>42.0</ele><time>2026-04-19T17:59:58Z</time></trkpt><trkpt lat="43.76931560260012" lon="11.107912161923576"><ele>42.0</ele><time>2026-04-19T17:59:59Z</time></trkpt><trkpt lat="43.76934149932679" lon="11.108090118562439"><ele>42.0</ele><time>2026-04-19T18:00:00Z</time></trkpt><trkpt lat="43.769368609044065" lon="11.108275263211038"><ele>42.0</ele><time>2026-04-19T18:00:01Z</time></trkpt><trkpt lat="43.769392927434716" lon="11.108459772169812"><ele>42.0</ele><time>2026-04-19T18:00:02Z</time></trkpt><trkpt lat="43.76942057212595" lon="11.108656286016394"><ele>41.0</ele><time>2026-04-19T18:00:03Z</time></trkpt><trkpt lat="43.769451063005384" lon="11.108849435314827"><ele>40.0</ele><time>2026-04-19T18:00:04Z</time></trkpt><trkpt lat="43.76948080839339" lon="11.109058205704956"><ele>39.0</ele><time>2026-04-19T18:00:05Z</time></trkpt><trkpt lat="43.769509748145516" lon="11.109255768854204"><ele>38.0</ele><time>2026-04-19T18:00:06Z</time></trkpt><trkpt lat="43.76953640420673" lon="11.109433743370536"><ele>38.0</ele><time>2026-04-19T18:00:07Z</time></trkpt><trkpt lat="43.769562894403116" lon="11.109609976615378"><ele>38.0</ele><time>2026-04-19T18:00:08Z</time></trkpt><trkpt lat="43.76958838063206" lon="11.109785101860908"><ele>38.0</ele><time>2026-04-19T18:00:09Z</time></trkpt><trkpt lat="43.769611951793124" lon="11.109956204131993"><ele>38.0</ele><time>2026-04-19T18:00:10Z</time></trkpt><trkpt lat="43.76963508390478" lon="11.110103892436616"><ele>38.0</ele><time>2026-04-19T18:00:11Z</time></trkpt><trkpt lat="43.769661183134716" lon="11.11025566983104"><ele>38.0</ele><time>2026-04-19T18:00:12Z</time></trkpt><trkpt lat="43.769691684581666" lon="11.110429573851441"><ele>38.0</ele><time>2026-04-19T18:00:13Z</time></trkpt><trkpt lat="43.769721941812925" lon="11.110635491948809"><ele>38.0</ele><time>2026-04-19T18:00:14Z</time></trkpt><trkpt lat="43.76974543673915" lon="11.110840473360017"><ele>37.75</ele><time>2026-04-19T18:00:15Z</time></trkpt><trkpt lat="43.76977702265681" lon="11.111041828975235"><ele>37.5</ele><time>2026-04-19T18:00:16Z</time></trkpt><trkpt lat="43.76981015482188" lon="11.111240364880702"><ele>37.25</ele><time>2026-04-19T18:00:17Z</time></trkpt><trkpt lat="43.76983455897462" lon="11.111420958253904"><ele>37.0</ele><time>2026-04-19T18:00:18Z</time></trkpt><trkpt lat="43.76986024465247" lon="11.11162086838869"><ele>37.0</ele><time>2026-04-19T18:00:19Z</time></trkpt><trkpt lat="43.76989776634424" lon="11.111839982769098"><ele>37.0</ele><time>2026-04-19T18:00:20Z</time></trkpt><trkpt lat="43.769929053474776" lon="11.11203668655359"><ele>37.0</ele><time>2026-04-19T18:00:21Z</time></trkpt><trkpt lat="43.769954830732644" lon="11.11221408775867"><ele>37.0</ele><time>2026-04-19T18:00:22Z</time></trkpt><trkpt lat="43.76998010213469" lon="11.112382261934803"><ele>37.0</ele><time>2026-04-19T18:00:23Z</time></trkpt><trkpt lat="43.770005747537056" lon="11.112545124229841"><ele>37.0</ele><time>2026-04-19T18:00:24Z</time></trkpt><trkpt lat="43.77002649055106" lon="11.11270010247249"><ele>37.0</ele><time>2026-04-19T18:00:25Z</time></trkpt><trkpt lat="43.770045450883536" lon="11.11285528884205"><ele>37.0</ele><time>2026-04-19T18:00:26Z</time></trkpt><trkpt lat="43.77006325696761" lon="11.113006308304701"><ele>37.0</ele><time>2026-04-19T18:00:27Z</time></trkpt><trkpt lat="43.77007710308247" lon="11.113167532804422"><ele>37.0</ele><time>2026-04-19T18:00:28Z</time></trkpt><trkpt lat="43.770082674535765" lon="11.113326096919035"><ele>37.0</ele><time>2026-04-19T18:00:29Z</time></trkpt><trkpt lat="43.77007866033863" lon="11.113487190929085"><ele>37.0</ele><time>2026-04-19T18:00:30Z</time></trkpt><trkpt lat="43.77006650260189" lon="11.113651330454195"><ele>37.25</ele><time>2026-04-19T18:00:31Z</time></trkpt><trkpt lat="43.77004473843456" lon="11.113810597112346"><ele>37.5</ele><time>2026-04-19T18:00:32Z</time></trkpt><trkpt lat="43.77000999307482" lon="11.113966100669973"><ele>37.75</ele><time>2026-04-19T18:00:33Z</time></trkpt><trkpt lat="43.769968190090886" lon="11.114128772668554"><ele>38.0</ele><time>2026-04-19T18:00:34Z</time></trkpt><trkpt lat="43.76993141862207" lon="11.11428388865482"><ele>38.25</ele><time>2026-04-19T18:00:35Z</time></trkpt><trkpt lat="43.76989879489099" lon="11.11443115891245"><ele>38.5</ele><time>2026-04-19T18:00:36Z</time></trkpt><trkpt lat="43.76986931503012" lon="11.114581103446794"><ele>38.75</ele><time>2026-04-19T18:00:37Z</time></trkpt><trkpt lat="43.76984384237079" lon="11.114742668804514"><ele>39.0</ele><time>2026-04-19T18:00:38Z</time></trkpt><trkpt lat="43.76982450715677" lon="11.114923548620164"><ele>38.25</ele><time>2026-04-19T18:00:39Z</time></trkpt><trkpt lat="43.76980792950836" lon="11.1151146095346"><ele>37.5</ele><time>2026-04-19T18:00:40Z</time></trkpt><trkpt lat="43.76979887438486" lon="11.115309222616611"><ele>36.75</ele><time>2026-04-19T18:00:41Z</time></trkpt><trkpt lat="43.769793406133" lon="11.115496874708025"><ele>36.0</ele><time>2026-04-19T18:00:42Z</time></trkpt><trkpt lat="43.769787670327766" lon="11.115696169875847"><ele>36.25</ele><time>2026-04-19T18:00:43Z</time></trkpt><trkpt lat="43.76978111635956" lon="11.115901577409096"><ele>36.5</ele><time>2026-04-19T18:00:44Z</time></trkpt><trkpt lat="43.76977670849416" lon="11.11610065495776"><ele>36.75</ele><time>2026-04-19T18:00:45Z</time></trkpt><trkpt lat="43.769770697834915" lon="11.116296567661767"><ele>37.0</ele><time>2026-04-19T18:00:46Z</time></trkpt><trkpt lat="43.7697645562201" lon="11.116489027124347"><ele>37.0</ele><time>2026-04-19T18:00:47Z</time></trkpt><trkpt lat="43.76976119019001" lon="11.116669537968386"><ele>37.0</ele><time>2026-04-19T18:00:48Z</time></trkpt><trkpt lat="43.76975896377288" lon="11.116832517901225"><ele>37.0</ele><time>2026-04-19T18:00:49Z</time></trkpt><trkpt lat="43.769754668983836" lon="11.116992006635884"><ele>37.0</ele><time>2026-04-19T18:00:50Z</time></trkpt><trkpt lat="43.769749815297814" lon="11.117151297197891"><ele>37.0</ele><time>2026-04-19T18:00:51Z</time></trkpt><trkpt lat="43.76974629453873" lon="11.117301187352588"><ele>37.0</ele><time>2026-04-19T18:00:52Z</time></trkpt><trkpt lat="43.76974503404826" lon="11.117438051810618"><ele>37.0</ele><time>2026-04-19T18:00:53Z</time></trkpt><trkpt lat="43.76974244931992" lon="11.117579716756984"><ele>37.0</ele><time>2026-04-19T18:00:54Z</time></trkpt><trkpt lat="43.76973875802584" lon="11.117740204972472"><ele>37.0</ele><time>2026-04-19T18:00:55Z</time></trkpt><trkpt lat="43.76973538137083" lon="11.11790630253241"><ele>36.75</ele><time>2026-04-19T18:00:56Z</time></trkpt><trkpt lat="43.769731192892934" lon="11.11807263454132"><ele>36.5</ele><time>2026-04-19T18:00:57Z</time></trkpt><trkpt lat="43.76972612294672" lon="11.118258614036195"><ele>36.25</ele><time>2026-04-19T18:00:58Z</time></trkpt><trkpt lat="43.769718052867155" lon="11.118474951023343"><ele>36.0</ele><time>2026-04-19T18:00:59Z</time></trkpt><trkpt lat="43.76971111467227" lon="11.118675272265499"><ele>36.0</ele><time>2026-04-19T18:01:00Z</time></trkpt><trkpt lat="43.76970183199651" lon="11.118868288572784"><ele>36.0</ele><time>2026-04-19T18:01:01Z</time></trkpt><trkpt lat="43.76969379268193" lon="11.119061971430307"><ele>36.0</ele><time>2026-04-19T18:01:02Z</time></trkpt><trkpt lat="43.769689307313435" lon="11.119256083217637"><ele>36.0</ele><time>2026-04-19T18:01:03Z</time></trkpt><trkpt lat="43.76968667962322" lon="11.11944956984037"><ele>36.0</ele><time>2026-04-19T18:01:04Z</time></trkpt><trkpt lat="43.76968475756428" lon="11.119626355372402"><ele>36.0</ele><time>2026-04-19T18:01:05Z</time></trkpt><trkpt lat="43.769682614061274" lon="11.119788938833292"><ele>36.0</ele><time>2026-04-19T18:01:06Z</time></trkpt><trkpt lat="43.769680298859846" lon="11.119942300524615"><ele>36.0</ele><time>2026-04-19T18:01:07Z</time></trkpt><trkpt lat="43.769679309452826" lon="11.120081694716012"><ele>36.0</ele><time>2026-04-19T18:01:08Z</time></trkpt><trkpt lat="43.769677184907835" lon="11.120203385213552"><ele>36.0</ele><time>2026-04-19T18:01:09Z</time></trkpt><trkpt lat="43.769673053711195" lon="11.120308539312374"><ele>36.0</ele><time>2026-04-19T18:01:10Z</time></trkpt><trkpt lat="43.76966319794428" lon="11.120399507563643"><ele>36.0</ele><time>2026-04-19T18:01:11Z</time></trkpt><trkpt lat="43.76961203776615" lon="11.120557093004194"><ele>36.0</ele><time>2026-04-19T18:01:13Z</time></trkpt><trkpt lat="43.76955670631435" lon="11.120622235841752"><ele>36.0</ele><time>2026-04-19T18:01:14Z</time></trkpt><trkpt lat="43.76949940019573" lon="11.12069018343305"><ele>35.833333333333336</ele><time>2026-04-19T18:01:15Z</time></trkpt><trkpt lat="43.769457022640786" lon="11.120782253113893"><ele>35.666666666666664</ele><time>2026-04-19T18:01:16Z</time></trkpt><trkpt lat="43.7694424814011" lon="11.120885638131787"><ele>35.5</ele><time>2026-04-19T18:01:17Z</time></trkpt><trkpt lat="43.76945217613342" lon="11.120997233703882"><ele>35.33333333333333</ele><time>2026-04-19T18:01:18Z</time></trkpt><trkpt lat="43.7694908089766" lon="11.121107548908684"><ele>35.166666666666664</ele><time>2026-04-19T18:01:19Z</time></trkpt><trkpt lat="43.769553849749165" lon="11.121201307432264"><ele>35.0</ele><time>2026-04-19T18:01:20Z</time></trkpt><trkpt lat="43.76962059517287" lon="11.121290131008143"><ele>35.0</ele><time>2026-04-19T18:01:21Z</time></trkpt><trkpt lat="43.769666759812935" lon="11.121395720626783"><ele>35.0</ele><time>2026-04-19T18:01:22Z</time></trkpt><trkpt lat="43.769686465577" lon="11.121525778255656"><ele>35.0</ele><time>2026-04-19T18:01:23Z</time></trkpt><trkpt lat="43.76969218514703" lon="11.121688946110257"><ele>35.0</ele><time>2026-04-19T18:01:24Z</time></trkpt><trkpt lat="43.76969142422114" lon="11.121867580020945"><ele>35.0</ele><time>2026-04-19T18:01:25Z</time></trkpt><trkpt lat="43.76969458005736" lon="11.122068059813364"><ele>35.33333333333333</ele><time>2026-04-19T18:01:26Z</time></trkpt><trkpt lat="43.76969931777877" lon="11.122258391500061"><ele>35.666666666666664</ele><time>2026-04-19T18:01:27Z</time></trkpt><trkpt lat="43.769701776285025" lon="11.12247100436656"><ele>36.0</ele><time>2026-04-19T18:01:28Z</time></trkpt><trkpt lat="43.76970403742001" lon="11.122692703651229"><ele>36.0</ele><time>2026-04-19T18:01:29Z</time></trkpt><trkpt lat="43.76970440030934" lon="11.122919470039687"><ele>36.0</ele><time>2026-04-19T18:01:30Z</time></trkpt><trkpt lat="43.769710762770046" lon="11.12316160910426"><ele>36.0</ele><time>2026-04-19T18:01:31Z</time></trkpt><trkpt lat="43.7697158933558" lon="11.123381700665384"><ele>36.0</ele><time>2026-04-19T18:01:32Z</time></trkpt><trkpt lat="43.769719493672255" lon="11.123594427302487"><ele>36.0</ele><time>2026-04-19T18:01:33Z</time></trkpt><trkpt lat="43.76972088600421" lon="11.123789151379459"><ele>36.0</ele><time>2026-04-19T18:01:34Z</time></trkpt><trkpt lat="43.76972071181659" lon="11.123969985979175"><ele>36.0</ele><time>2026-04-19T18:01:35Z</time></trkpt><trkpt lat="43.76972032717592" lon="11.124147894342524"><ele>35.75</ele><time>2026-04-19T18:01:36Z</time></trkpt><trkpt lat="43.76971442179081" lon="11.124316551818588"><ele>35.5</ele><time>2026-04-19T18:01:37Z</time></trkpt><trkpt lat="43.76969545264821" lon="11.124482589119705"><ele>35.25</ele><time>2026-04-19T18:01:38Z</time></trkpt><trkpt lat="43.76966839041365" lon="11.124629113283847"><ele>35.0</ele><time>2026-04-19T18:01:39Z</time></trkpt><trkpt lat="43.76963848493023" lon="11.124765432748761"><ele>35.0</ele><time>2026-04-19T18:01:40Z</time></trkpt><trkpt lat="43.76961017723605" lon="11.124894951116255"><ele>35.0</ele><time>2026-04-19T18:01:41Z</time></trkpt><trkpt lat="43.76958433010071" lon="11.12501401986661"><ele>35.0</ele><time>2026-04-19T18:01:42Z</time></trkpt><trkpt lat="43.769561237288485" lon="11.125121101580083"><ele>35.0</ele><time>2026-04-19T18:01:43Z</time></trkpt><trkpt lat="43.76954330517361" lon="11.1252128175087"><ele>35.0</ele><time>2026-04-19T18:01:44Z</time></trkpt><trkpt lat="43.769516975708996" lon="11.125336837801592"><ele>35.0</ele><time>2026-04-19T18:01:46Z</time></trkpt><trkpt lat="43.769478790849014" lon="11.125427285980544"><ele>35.4</ele><time>2026-04-19T18:01:48Z</time></trkpt><trkpt lat="43.76946357023461" lon="11.125529258163231"><ele>35.8</ele><time>2026-04-19T18:01:50Z</time></trkpt><trkpt lat="43.7696077146684" lon="11.125613078690712"><ele>36.2</ele><time>2026-04-19T18:01:51Z</time></trkpt><trkpt lat="43.76968556800264" lon="11.125633799733702"><ele>36.6</ele><time>2026-04-19T18:01:52Z</time></trkpt><trkpt lat="43.76976964007266" lon="11.125649330540321"><ele>37.0</ele><time>2026-04-19T18:01:53Z</time></trkpt><trkpt lat="43.76984978968914" lon="11.125681987566368"><ele>37.0</ele><time>2026-04-19T18:01:54Z</time></trkpt><trkpt lat="43.76991975045926" lon="11.125738868366776"><ele>37.0</ele><time>2026-04-19T18:01:55Z</time></trkpt><trkpt lat="43.76997450998374" lon="11.125817105884291"><ele>37.0</ele><time>2026-04-19T18:01:56Z</time></trkpt><trkpt lat="43.77001104882642" lon="11.125913689106927"><ele>37.0</ele><time>2026-04-19T18:01:57Z</time></trkpt><trkpt lat="43.77002939008706" lon="11.12601971382319"><ele>37.0</ele><time>2026-04-19T18:01:58Z</time></trkpt><trkpt lat="43.77002673181178" lon="11.12612965183801"><ele>37.0</ele><time>2026-04-19T18:01:59Z</time></trkpt><trkpt lat="43.770005746341056" lon="11.126234812166869"><ele>37.0</ele><time>2026-04-19T18:02:00Z</time></trkpt><trkpt lat="43.769966739793894" lon="11.126327226071538"><ele>37.0</ele><time>2026-04-19T18:02:01Z</time></trkpt><trkpt lat="43.769905402552055" lon="11.12639878819055"><ele>37.0</ele><time>2026-04-19T18:02:02Z</time></trkpt><trkpt lat="43.769832919902825" lon="11.126449264812525"><ele>37.0</ele><time>2026-04-19T18:02:03Z</time></trkpt><trkpt lat="43.76975320463172" lon="11.126476439278152"><ele>37.0</ele><time>2026-04-19T18:02:04Z</time></trkpt><trkpt lat="43.76967162410153" lon="11.126479320759278"><ele>37.0</ele><time>2026-04-19T18:02:05Z</time></trkpt><trkpt lat="43.76959015934484" lon="11.126473392940635"><ele>37.0</ele><time>2026-04-19T18:02:06Z</time></trkpt><trkpt lat="43.769507708523996" lon="11.126458370050601"><ele>37.0</ele><time>2026-04-19T18:02:07Z</time></trkpt><trkpt lat="43.76940338147376" lon="11.126429923993866"><ele>37.0</ele><time>2026-04-19T18:02:08Z</time></trkpt><trkpt lat="43.769283059614395" lon="11.126396167623504"><ele>37.0</ele><time>2026-04-19T18:02:09Z</time></trkpt><trkpt lat="43.769152664359815" lon="11.126362384664683"><ele>37.0</ele><time>2026-04-19T18:02:10Z</time></trkpt><trkpt lat="43.76899466958639" lon="11.126321825907363"><ele>36.66666666666667</ele><time>2026-04-19T18:02:11Z</time></trkpt><trkpt lat="43.76882960655684" lon="11.126280247599999"><ele>36.333333333333336</ele><time>2026-04-19T18:02:12Z</time></trkpt><trkpt lat="43.76866773526954" lon="11.12623783101621"><ele>36.0</ele><time>2026-04-19T18:02:13Z</time></trkpt><trkpt lat="43.76848663545003" lon="11.126187002590799"><ele>36.0</ele><time>2026-04-19T18:02:14Z</time></trkpt><trkpt lat="43.76829548610524" lon="11.126130616276313"><ele>36.0</ele><time>2026-04-19T18:02:15Z</time></trkpt><trkpt lat="43.76809772127051" lon="11.12607186735253"><ele>36.0</ele><time>2026-04-19T18:02:16Z</time></trkpt><trkpt lat="43.7679094157591" lon="11.126014628993383"><ele>36.0</ele><time>2026-04-19T18:02:17Z</time></trkpt><trkpt lat="43.76771036323649" lon="11.125951568052852"><ele>36.0</ele><time>2026-04-19T18:02:18Z</time></trkpt><trkpt lat="43.76750956331308" lon="11.125891426741484"><ele>36.0</ele><time>2026-04-19T18:02:19Z</time></trkpt><trkpt lat="43.767312648534855" lon="11.125832493233284"><ele>36.333333333333336</ele><time>2026-04-19T18:02:20Z</time></trkpt><trkpt lat="43.76711311076354" lon="11.12577381546212"><ele>36.66666666666667</ele><time>2026-04-19T18:02:21Z</time></trkpt><trkpt lat="43.76691070000486" lon="11.125718363912862"><ele>37.0</ele><time>2026-04-19T18:02:22Z</time></trkpt><trkpt lat="43.76672145436464" lon="11.125674741366872"><ele>38.0</ele><time>2026-04-19T18:02:23Z</time></trkpt><trkpt lat="43.76652923691798" lon="11.125641234774209"><ele>39.0</ele><time>2026-04-19T18:02:24Z</time></trkpt><trkpt lat="43.76633306005675" lon="11.125620803739011"><ele>40.0</ele><time>2026-04-19T18:02:25Z</time></trkpt><trkpt lat="43.766138840081844" lon="11.125605658855182"><ele>39.66666666666667</ele><time>2026-04-19T18:02:26Z</time></trkpt><trkpt lat="43.765944447009645" lon="11.12560001890467"><ele>39.333333333333336</ele><time>2026-04-19T18:02:27Z</time></trkpt><trkpt lat="43.765748293403725" lon="11.12560623125492"><ele>39.0</ele><time>2026-04-19T18:02:28Z</time></trkpt><trkpt lat="43.76555318138958" lon="11.125626475274977"><ele>39.0</ele><time>2026-04-19T18:02:29Z</time></trkpt><trkpt lat="43.765359639797914" lon="11.125656053595938"><ele>39.0</ele><time>2026-04-19T18:02:30Z</time></trkpt><trkpt lat="43.76516816119779" lon="11.125699244215676"><ele>39.0</ele><time>2026-04-19T18:02:31Z</time></trkpt><trkpt lat="43.76497890993276" lon="11.125753786912227"><ele>39.666666666666664</ele><time>2026-04-19T18:02:32Z</time></trkpt><trkpt lat="43.76479130833236" lon="11.125820564298282"><ele>40.33333333333333</ele><time>2026-04-19T18:02:33Z</time></trkpt><trkpt lat="43.7646093144149" lon="11.125893651988223"><ele>41.0</ele><time>2026-04-19T18:02:34Z</time></trkpt><trkpt lat="43.764431690380135" lon="11.125977074891706"><ele>42.33333333333333</ele><time>2026-04-19T18:02:35Z</time></trkpt><trkpt lat="43.764250534777474" lon="11.126068445614338"><ele>43.666666666666664</ele><time>2026-04-19T18:02:36Z</time></trkpt><trkpt lat="43.76406978298546" lon="11.126167303115325"><ele>45.0</ele><time>2026-04-19T18:02:37Z</time></trkpt><trkpt lat="43.7638859356755" lon="11.126274026191409"><ele>45.0</ele><time>2026-04-19T18:02:38Z</time></trkpt><trkpt lat="43.76370338052688" lon="11.126387600328798"><ele>45.0</ele><time>2026-04-19T18:02:39Z</time></trkpt><trkpt lat="43.76351885633203" lon="11.126500006720589"><ele>45.0</ele><time>2026-04-19T18:02:40Z</time></trkpt><trkpt lat="43.763327328367474" lon="11.126614435752598"><ele>46.33333333333333</ele><time>2026-04-19T18:02:41Z</time></trkpt><trkpt lat="43.7631309684739" lon="11.12673005639492"><ele>47.666666666666664</ele><time>2026-04-19T18:02:42Z</time></trkpt><trkpt lat="43.76293327491666" lon="11.126845363741472"><ele>49.0</ele><time>2026-04-19T18:02:43Z</time></trkpt><trkpt lat="43.76273451741904" lon="11.126961669235875"><ele>51.0</ele><time>2026-04-19T18:02:44Z</time></trkpt><trkpt lat="43.76254065137736" lon="11.127076790502912"><ele>53.0</ele><time>2026-04-19T18:02:45Z</time></trkpt><trkpt lat="43.762353419748166" lon="11.127186639655225"><ele>55.0</ele><time>2026-04-19T18:02:46Z</time></trkpt><trkpt lat="43.762165482552504" lon="11.12729279556842"><ele>55.0</ele><time>2026-04-19T18:02:47Z</time></trkpt><trkpt lat="43.761970930932044" lon="11.127391349238923"><ele>55.0</ele><time>2026-04-19T18:02:48Z</time></trkpt><trkpt lat="43.761766388490074" lon="11.12748011815804"><ele>55.0</ele><time>2026-04-19T18:02:49Z</time></trkpt><trkpt lat="43.761562781906306" lon="11.127556306026866"><ele>54.33333333333333</ele><time>2026-04-19T18:02:50Z</time></trkpt><trkpt lat="43.761361182405466" lon="11.127618432443223"><ele>53.66666666666667</ele><time>2026-04-19T18:02:51Z</time></trkpt><trkpt lat="43.761153877730415" lon="11.12767027400984"><ele>53.0</ele><time>2026-04-19T18:02:52Z</time></trkpt><trkpt lat="43.7609444194366" lon="11.12770982822454"><ele>54.66666666666667</ele><time>2026-04-19T18:02:53Z</time></trkpt><trkpt lat="43.760744560332135" lon="11.127732078725144"><ele>56.33333333333333</ele><time>2026-04-19T18:02:54Z</time></trkpt><trkpt lat="43.76054586781198" lon="11.127737415471364"><ele>58.0</ele><time>2026-04-19T18:02:55Z</time></trkpt><trkpt lat="43.76034943222162" lon="11.127731368756198"><ele>60.0</ele><time>2026-04-19T18:02:56Z</time></trkpt><trkpt lat="43.76015403673912" lon="11.127715710645727"><ele>62.0</ele><time>2026-04-19T18:02:57Z</time></trkpt><trkpt lat="43.75995759305471" lon="11.12769162613279"><ele>64.0</ele><time>2026-04-19T18:02:58Z</time></trkpt><trkpt lat="43.75976980386857" lon="11.127657216701632"><ele>64.0</ele><time>2026-04-19T18:02:59Z</time></trkpt><trkpt lat="43.75958015942915" lon="11.127602763059272"><ele>64.0</ele><time>2026-04-19T18:03:00Z</time></trkpt><trkpt lat="43.759380763482554" lon="11.127533410240806"><ele>64.0</ele><time>2026-04-19T18:03:01Z</time></trkpt><trkpt lat="43.75917328261318" lon="11.127454067669678"><ele>68.33333333333333</ele><time>2026-04-19T18:03:02Z</time></trkpt><trkpt lat="43.758961829031676" lon="11.127360778040556"><ele>72.66666666666667</ele><time>2026-04-19T18:03:03Z</time></trkpt><trkpt lat="43.75875938149276" lon="11.127264301703386"><ele>77.0</ele><time>2026-04-19T18:03:04Z</time></trkpt><trkpt lat="43.758558589029285" lon="11.127164284740841"><ele>77.33333333333334</ele><time>2026-04-19T18:03:05Z</time></trkpt><trkpt lat="43.75836759239246" lon="11.12707309553905"><ele>77.66666666666667</ele><time>2026-04-19T18:03:06Z</time></trkpt><trkpt lat="43.75818247801218" lon="11.126986376744247"><ele>78.0</ele><time>2026-04-19T18:03:07Z</time></trkpt><trkpt lat="43.758000591614056" lon="11.126901871084435"><ele>78.0</ele><time>2026-04-19T18:03:08Z</time></trkpt><trkpt lat="43.75781283026778" lon="11.126826363789267"><ele>78.0</ele><time>2026-04-19T18:03:09Z</time></trkpt><trkpt lat="43.75761440610365" lon="11.126760010792887"><ele>78.0</ele><time>2026-04-19T18:03:10Z</time></trkpt><trkpt lat="43.757406326145485" lon="11.126701117317994"><ele>77.33333333333333</ele><time>2026-04-19T18:03:11Z</time></trkpt><trkpt lat="43.75718778997217" lon="11.126654420855179"><ele>76.66666666666666</ele><time>2026-04-19T18:03:12Z</time></trkpt><trkpt lat="43.756962073258855" lon="11.126617017709219"><ele>76.0</ele><time>2026-04-19T18:03:13Z</time></trkpt><trkpt lat="43.756737416664976" lon="11.126585568106481"><ele>80.33333333333333</ele><time>2026-04-19T18:03:14Z</time></trkpt><trkpt lat="43.756529129023" lon="11.126557709764262"><ele>84.66666666666667</ele><time>2026-04-19T18:03:15Z</time></trkpt><trkpt lat="43.7563248457477" lon="11.12653437717253"><ele>89.0</ele><time>2026-04-19T18:03:16Z</time></trkpt><trkpt lat="43.756117844980736" lon="11.126508279368618"><ele>89.66666666666667</ele><time>2026-04-19T18:03:17Z</time></trkpt><trkpt lat="43.75590265270491" lon="11.126480983480198"><ele>90.33333333333333</ele><time>2026-04-19T18:03:18Z</time></trkpt><trkpt lat="43.755684174685776" lon="11.12645553074494"><ele>91.0</ele><time>2026-04-19T18:03:19Z</time></trkpt><trkpt lat="43.75547133200307" lon="11.126434727016246"><ele>91.0</ele><time>2026-04-19T18:03:20Z</time></trkpt><trkpt lat="43.75527145924565" lon="11.126409368155858"><ele>91.0</ele><time>2026-04-19T18:03:21Z</time></trkpt><trkpt lat="43.755076388616345" lon="11.126385302275565"><ele>91.0</ele><time>2026-04-19T18:03:22Z</time></trkpt><trkpt lat="43.75488815424006" lon="11.126363986684547"><ele>91.0</ele><time>2026-04-19T18:03:23Z</time></trkpt><trkpt lat="43.75470251965839" lon="11.126342652668077"><ele>91.0</ele><time>2026-04-19T18:03:24Z</time></trkpt><trkpt lat="43.75451783646465" lon="11.126314680729783"><ele>91.0</ele><time>2026-04-19T18:03:25Z</time></trkpt><trkpt lat="43.75433612314897" lon="11.126284668290328"><ele>92.0</ele><time>2026-04-19T18:03:26Z</time></trkpt><trkpt lat="43.75415092885488" lon="11.126245640506385"><ele>93.0</ele><time>2026-04-19T18:03:27Z</time></trkpt><trkpt lat="43.75396411109328" lon="11.126191764895866"><ele>94.0</ele><time>2026-04-19T18:03:28Z</time></trkpt><trkpt lat="43.75377567985792" lon="11.126125308144337"><ele>94.0</ele><time>2026-04-19T18:03:29Z</time></trkpt><trkpt lat="43.75358630562483" lon="11.126046174208671"><ele>94.0</ele><time>2026-04-19T18:03:30Z</time></trkpt><trkpt lat="43.75340092191138" lon="11.125957137931156"><ele>94.0</ele><time>2026-04-19T18:03:31Z</time></trkpt><trkpt lat="43.75321906980328" lon="11.125853676083388"><ele>93.33333333333333</ele><time>2026-04-19T18:03:32Z</time></trkpt><trkpt lat="43.753040254007225" lon="11.12574321513595"><ele>92.66666666666667</ele><time>2026-04-19T18:03:33Z</time></trkpt><trkpt lat="43.75286372620869" lon="11.125620851901553"><ele>92.0</ele><time>2026-04-19T18:03:34Z</time></trkpt><trkpt lat="43.7526847569004" lon="11.125482201511627"><ele>94.66666666666667</ele><time>2026-04-19T18:03:35Z</time></trkpt><trkpt lat="43.75250628747855" lon="11.125333944636026"><ele>97.33333333333334</ele><time>2026-04-19T18:03:36Z</time></trkpt><trkpt lat="43.75233126210039" lon="11.125188535203892"><ele>100.0</ele><time>2026-04-19T18:03:37Z</time></trkpt><trkpt lat="43.75216335485611" lon="11.125045400464304"><ele>100.0</ele><time>2026-04-19T18:03:38Z</time></trkpt><trkpt lat="43.75200059740274" lon="11.124901906492248"><ele>100.0</ele><time>2026-04-19T18:03:39Z</time></trkpt><trkpt lat="43.75183669282575" lon="11.124756563040876"><ele>100.0</ele><time>2026-04-19T18:03:40Z</time></trkpt><trkpt lat="43.751672971625304" lon="11.124610881172947"><ele>103.33333333333334</ele><time>2026-04-19T18:03:41Z</time></trkpt><trkpt lat="43.75150669622827" lon="11.124463217178171"><ele>106.66666666666666</ele><time>2026-04-19T18:03:42Z</time></trkpt><trkpt lat="43.75133600249724" lon="11.124311434369126"><ele>110.0</ele><time>2026-04-19T18:03:43Z</time></trkpt><trkpt lat="43.75116290877248" lon="11.124157958759948"><ele>110.0</ele><time>2026-04-19T18:03:44Z</time></trkpt><trkpt lat="43.750989546815056" lon="11.124006145505946"><ele>110.0</ele><time>2026-04-19T18:03:45Z</time></trkpt><trkpt lat="43.75082062406857" lon="11.123854120289694"><ele>110.0</ele><time>2026-04-19T18:03:46Z</time></trkpt><trkpt lat="43.75064966871416" lon="11.123699701430452"><ele>110.0</ele><time>2026-04-19T18:03:47Z</time></trkpt><trkpt lat="43.75047910835964" lon="11.123545519421665"><ele>110.0</ele><time>2026-04-19T18:03:48Z</time></trkpt><trkpt lat="43.750307181730044" lon="11.123389218344093"><ele>110.0</ele><time>2026-04-19T18:03:49Z</time></trkpt><trkpt lat="43.75012686558152" lon="11.123230455040124"><ele>111.0</ele><time>2026-04-19T18:03:50Z</time></trkpt><trkpt lat="43.749940617298456" lon="11.123065839525202"><ele>112.0</ele><time>2026-04-19T18:03:51Z</time></trkpt><trkpt lat="43.7497514772921" lon="11.12289747376454"><ele>113.0</ele><time>2026-04-19T18:03:52Z</time></trkpt><trkpt lat="43.74956186881111" lon="11.12272673993882"><ele>112.0</ele><time>2026-04-19T18:03:53Z</time></trkpt><trkpt lat="43.74936991089806" lon="11.122555123350702"><ele>111.0</ele><time>2026-04-19T18:03:54Z</time></trkpt><trkpt lat="43.749179431753696" lon="11.12238507651877"><ele>115.0</ele><time>2026-04-19T18:03:55Z</time></trkpt><trkpt lat="43.749001888589305" lon="11.122227486934854"><ele>119.0</ele><time>2026-04-19T18:03:56Z</time></trkpt><trkpt lat="43.74882789743082" lon="11.122074247591934"><ele>123.0</ele><time>2026-04-19T18:03:57Z</time></trkpt><trkpt lat="43.74866151525172" lon="11.12192709363874"><ele>122.66666666666666</ele><time>2026-04-19T18:03:58Z</time></trkpt><trkpt lat="43.74849423714928" lon="11.121779604157261"><ele>122.33333333333333</ele><time>2026-04-19T18:03:59Z</time></trkpt><trkpt lat="43.74832208477468" lon="11.12163186604694"><ele>122.0</ele><time>2026-04-19T18:04:00Z</time></trkpt><trkpt lat="43.74815001648793" lon="11.121485091878002"><ele>124.33333333333333</ele><time>2026-04-19T18:04:01Z</time></trkpt><trkpt lat="43.747977862586104" lon="11.12134710828732"><ele>126.66666666666666</ele><time>2026-04-19T18:04:02Z</time></trkpt><trkpt lat="43.74780652731798" lon="11.121221916728977"><ele>129.0</ele><time>2026-04-19T18:04:03Z</time></trkpt><trkpt lat="43.74763081399064" lon="11.1211062137136"><ele>129.0</ele><time>2026-04-19T18:04:04Z</time></trkpt><trkpt lat="43.7474498166117" lon="11.120998733454593"><ele>129.0</ele><time>2026-04-19T18:04:05Z</time></trkpt><trkpt lat="43.747264669885304" lon="11.120899131239453"><ele>129.0</ele><time>2026-04-19T18:04:06Z</time></trkpt><trkpt lat="43.747073556747026" lon="11.120805196314924"><ele>127.0</ele><time>2026-04-19T18:04:07Z</time></trkpt><trkpt lat="43.7468772082523" lon="11.12071815459049"><ele>125.0</ele><time>2026-04-19T18:04:08Z</time></trkpt><trkpt lat="43.74667418428906" lon="11.120639129473474"><ele>123.0</ele><time>2026-04-19T18:04:09Z</time></trkpt><trkpt lat="43.74647065640052" lon="11.120560595828891"><ele>123.0</ele><time>2026-04-19T18:04:10Z</time></trkpt><trkpt lat="43.74626975939031" lon="11.120481989365265"><ele>123.0</ele><time>2026-04-19T18:04:11Z</time></trkpt><trkpt lat="43.74607678678966" lon="11.120407856183155"><ele>123.0</ele><time>2026-04-19T18:04:12Z</time></trkpt><trkpt lat="43.745892304915316" lon="11.120334150802517"><ele>122.66666666666666</ele><time>2026-04-19T18:04:13Z</time></trkpt><trkpt lat="43.745707971352054" lon="11.120256752971114"><ele>122.33333333333333</ele><time>2026-04-19T18:04:14Z</time></trkpt><trkpt lat="43.745525242556965" lon="11.120173679290245"><ele>122.0</ele><time>2026-04-19T18:04:15Z</time></trkpt><trkpt lat="43.74534192702252" lon="11.120081536379669"><ele>125.66666666666666</ele><time>2026-04-19T18:04:16Z</time></trkpt><trkpt lat="43.74515997075787" lon="11.119975735139114"><ele>129.33333333333334</ele><time>2026-04-19T18:04:17Z</time></trkpt><trkpt lat="43.744985074133275" lon="11.119866235455603"><ele>133.0</ele><time>2026-04-19T18:04:18Z</time></trkpt><trkpt lat="43.74481037018927" lon="11.119753486592458"><ele>136.0</ele><time>2026-04-19T18:04:19Z</time></trkpt><trkpt lat="43.74463581633609" lon="11.119633383388212"><ele>139.0</ele><time>2026-04-19T18:04:20Z</time></trkpt><trkpt lat="43.74446276460844" lon="11.119501870566896"><ele>142.0</ele><time>2026-04-19T18:04:21Z</time></trkpt><trkpt lat="43.74428979117656" lon="11.119361780353314"><ele>142.0</ele><time>2026-04-19T18:04:22Z</time></trkpt><trkpt lat="43.744119895724644" lon="11.119212709857191"><ele>142.0</ele><time>2026-04-19T18:04:23Z</time></trkpt><trkpt lat="43.74395270665844" lon="11.119051332939925"><ele>142.0</ele><time>2026-04-19T18:04:24Z</time></trkpt><trkpt lat="43.7437835319901" lon="11.118877776850018"><ele>143.66666666666669</ele><time>2026-04-19T18:04:25Z</time></trkpt><trkpt lat="43.74361667673731" lon="11.118697330175028"><ele>145.33333333333334</ele><time>2026-04-19T18:04:26Z</time></trkpt><trkpt lat="43.74344598272969" lon="11.118495148284074"><ele>147.0</ele><time>2026-04-19T18:04:27Z</time></trkpt><trkpt lat="43.74328299191912" lon="11.118295338031276"><ele>149.0</ele><time>2026-04-19T18:04:28Z</time></trkpt><trkpt lat="43.74312931439294" lon="11.118100216508173"><ele>151.0</ele><time>2026-04-19T18:04:29Z</time></trkpt><trkpt lat="43.74297728109566" lon="11.117908393093963"><ele>153.0</ele><time>2026-04-19T18:04:30Z</time></trkpt><trkpt lat="43.74282407224338" lon="11.1177157091797"><ele>152.66666666666666</ele><time>2026-04-19T18:04:31Z</time></trkpt><trkpt lat="43.74266959862473" lon="11.117517160905416"><ele>152.33333333333331</ele><time>2026-04-19T18:04:32Z</time></trkpt><trkpt lat="43.7425156542718" lon="11.117317408299314"><ele>152.0</ele><time>2026-04-19T18:04:33Z</time></trkpt><trkpt lat="43.74236074074506" lon="11.117120522869754"><ele>153.0</ele><time>2026-04-19T18:04:34Z</time></trkpt><trkpt lat="43.74221373109949" lon="11.116934988476697"><ele>154.0</ele><time>2026-04-19T18:04:35Z</time></trkpt><trkpt lat="43.742070117827865" lon="11.11675233642658"><ele>155.0</ele><time>2026-04-19T18:04:36Z</time></trkpt><trkpt lat="43.74192565962024" lon="11.116568483793964"><ele>155.0</ele><time>2026-04-19T18:04:37Z</time></trkpt><trkpt lat="43.74178168638904" lon="11.116382031871549"><ele>155.0</ele><time>2026-04-19T18:04:38Z</time></trkpt><trkpt lat="43.741637403829785" lon="11.116191999238083"><ele>155.0</ele><time>2026-04-19T18:04:39Z</time></trkpt><trkpt lat="43.741489592142614" lon="11.115994803523625"><ele>155.0</ele><time>2026-04-19T18:04:40Z</time></trkpt><trkpt lat="43.741342021254255" lon="11.1157904231481"><ele>155.0</ele><time>2026-04-19T18:04:41Z</time></trkpt><trkpt lat="43.74119585783313" lon="11.115572947090167"><ele>155.0</ele><time>2026-04-19T18:04:42Z</time></trkpt><trkpt lat="43.741056046358935" lon="11.115360194350526"><ele>155.0</ele><time>2026-04-19T18:04:43Z</time></trkpt><trkpt lat="43.740922773674086" lon="11.115146171448016"><ele>155.0</ele><time>2026-04-19T18:04:44Z</time></trkpt><trkpt lat="43.74078842783025" lon="11.114922119422863"><ele>155.0</ele><time>2026-04-19T18:04:45Z</time></trkpt><trkpt lat="43.74065593365659" lon="11.114692177517709"><ele>157.0</ele><time>2026-04-19T18:04:46Z</time></trkpt><trkpt lat="43.740523458971516" lon="11.114459964112728"><ele>159.0</ele><time>2026-04-19T18:04:47Z</time></trkpt><trkpt lat="43.74038883546747" lon="11.114224626873808"><ele>161.0</ele><time>2026-04-19T18:04:48Z</time></trkpt><trkpt lat="43.740249344987696" lon="11.113985208208021"><ele>158.5</ele><time>2026-04-19T18:04:49Z</time></trkpt><trkpt lat="43.74010830180136" lon="11.113738967187988"><ele>156.0</ele><time>2026-04-19T18:04:50Z</time></trkpt><trkpt lat="43.7399691746867" lon="11.11349601265692"><ele>156.0</ele><time>2026-04-19T18:04:51Z</time></trkpt><trkpt lat="43.73983490640132" lon="11.113261210319495"><ele>156.0</ele><time>2026-04-19T18:04:52Z</time></trkpt><trkpt lat="43.73971697256366" lon="11.113051845745177"><ele>156.0</ele><time>2026-04-19T18:04:53Z</time></trkpt><trkpt lat="43.739596133548645" lon="11.112839098906429"><ele>155.33333333333334</ele><time>2026-04-19T18:04:54Z</time></trkpt><trkpt lat="43.739469480793865" lon="11.112617683167619"><ele>154.66666666666669</ele><time>2026-04-19T18:04:55Z</time></trkpt><trkpt lat="43.73934173265308" lon="11.11238886421493"><ele>154.0</ele><time>2026-04-19T18:04:56Z</time></trkpt><trkpt lat="43.73921038061154" lon="11.112155507073615"><ele>154.0</ele><time>2026-04-19T18:04:57Z</time></trkpt><trkpt lat="43.73907963610075" lon="11.11192510076289"><ele>154.0</ele><time>2026-04-19T18:04:58Z</time></trkpt><trkpt lat="43.738948064721846" lon="11.111695573724925"><ele>154.0</ele><time>2026-04-19T18:04:59Z</time></trkpt><trkpt lat="43.73881552950659" lon="11.111462955791154"><ele>155.33333333333334</ele><time>2026-04-19T18:05:00Z</time></trkpt><trkpt lat="43.73868116070526" lon="11.11122920591648"><ele>156.66666666666666</ele><time>2026-04-19T18:05:01Z</time></trkpt><trkpt lat="43.73854702434585" lon="11.110992867583818"><ele>158.0</ele><time>2026-04-19T18:05:02Z</time></trkpt><trkpt lat="43.73841340032231" lon="11.110759308485779"><ele>153.66666666666666</ele><time>2026-04-19T18:05:03Z</time></trkpt><trkpt lat="43.738279533923695" lon="11.110524624501375"><ele>149.33333333333334</ele><time>2026-04-19T18:05:04Z</time></trkpt><trkpt lat="43.73814079475145" lon="11.110282616610743"><ele>145.0</ele><time>2026-04-19T18:05:05Z</time></trkpt><trkpt lat="43.73799725962199" lon="11.11003218847087"><ele>145.0</ele><time>2026-04-19T18:05:06Z</time></trkpt><trkpt lat="43.737857098320234" lon="11.109787024615413"><ele>145.0</ele><time>2026-04-19T18:05:07Z</time></trkpt><trkpt lat="43.73772193354547" lon="11.109551296696813"><ele>145.0</ele><time>2026-04-19T18:05:08Z</time></trkpt><trkpt lat="43.73759291081739" lon="11.109326491956258"><ele>145.0</ele><time>2026-04-19T18:05:09Z</time></trkpt><trkpt lat="43.737468840459556" lon="11.109103954761748"><ele>145.0</ele><time>2026-04-19T18:05:10Z</time></trkpt><trkpt lat="43.73734573761588" lon="11.108883853998597"><ele>145.0</ele><time>2026-04-19T18:05:11Z</time></trkpt><trkpt lat="43.737220929913335" lon="11.108665108772069"><ele>146.33333333333334</ele><time>2026-04-19T18:05:12Z</time></trkpt><trkpt lat="43.73709999125303" lon="11.108451363204534"><ele>147.66666666666666</ele><time>2026-04-19T18:05:13Z</time></trkpt><trkpt lat="43.73698026492976" lon="11.108241438521068"><ele>149.0</ele><time>2026-04-19T18:05:14Z</time></trkpt><trkpt lat="43.73685592665313" lon="11.108036051520113"><ele>150.33333333333331</ele><time>2026-04-19T18:05:15Z</time></trkpt><trkpt lat="43.73671865597309" lon="11.10783429718305"><ele>151.66666666666666</ele><time>2026-04-19T18:05:16Z</time></trkpt><trkpt lat="43.736573164570494" lon="11.10763636759795"><ele>153.0</ele><time>2026-04-19T18:05:17Z</time></trkpt><trkpt lat="43.736420440780755" lon="11.107445553470365"><ele>153.0</ele><time>2026-04-19T18:05:18Z</time></trkpt><trkpt lat="43.73625755364161" lon="11.107259262146021"><ele>153.0</ele><time>2026-04-19T18:05:19Z</time></trkpt><trkpt lat="43.736086203181806" lon="11.107078793174779"><ele>153.0</ele><time>2026-04-19T18:05:20Z</time></trkpt><trkpt lat="43.73590484318502" lon="11.106905394730715"><ele>153.0</ele><time>2026-04-19T18:05:21Z</time></trkpt><trkpt lat="43.73571788825786" lon="11.1067427782898"><ele>153.0</ele><time>2026-04-19T18:05:22Z</time></trkpt><trkpt lat="43.73552798006913" lon="11.106582847246191"><ele>153.0</ele><time>2026-04-19T18:05:23Z</time></trkpt><trkpt lat="43.735339427890004" lon="11.106426076952152"><ele>154.33333333333334</ele><time>2026-04-19T18:05:24Z</time></trkpt><trkpt lat="43.73515474203738" lon="11.106272459522417"><ele>155.66666666666669</ele><time>2026-04-19T18:05:25Z</time></trkpt><trkpt lat="43.734973367847026" lon="11.106124311282025"><ele>157.0</ele><time>2026-04-19T18:05:26Z</time></trkpt><trkpt lat="43.73479722886458" lon="11.10598284732209"><ele>157.0</ele><time>2026-04-19T18:05:27Z</time></trkpt><trkpt lat="43.734626468691964" lon="11.105846451698715"><ele>157.0</ele><time>2026-04-19T18:05:28Z</time></trkpt><trkpt lat="43.73446572335487" lon="11.10571369172433"><ele>157.0</ele><time>2026-04-19T18:05:29Z</time></trkpt><trkpt lat="43.734308418047895" lon="11.105575205080482"><ele>160.33333333333334</ele><time>2026-04-19T18:05:30Z</time></trkpt><trkpt lat="43.734149651456136" lon="11.105428107199002"><ele>163.66666666666666</ele><time>2026-04-19T18:05:31Z</time></trkpt><trkpt lat="43.73399654048944" lon="11.105275672173809"><ele>167.0</ele><time>2026-04-19T18:05:32Z</time></trkpt><trkpt lat="43.73384384266877" lon="11.105112060073091"><ele>167.0</ele><time>2026-04-19T18:05:33Z</time></trkpt><trkpt lat="43.73369672167947" lon="11.104939623810132"><ele>167.0</ele><time>2026-04-19T18:05:34Z</time></trkpt><trkpt lat="43.73355674250454" lon="11.104757398349252"><ele>167.0</ele><time>2026-04-19T18:05:35Z</time></trkpt><trkpt lat="43.733417358403095" lon="11.10456097140662"><ele>166.33333333333331</ele><time>2026-04-19T18:05:36Z</time></trkpt><trkpt lat="43.73327729999517" lon="11.104345869014537"><ele>165.66666666666666</ele><time>2026-04-19T18:05:37Z</time></trkpt><trkpt lat="43.733138527166794" lon="11.104113767625957"><ele>165.0</ele><time>2026-04-19T18:05:38Z</time></trkpt><trkpt lat="43.73299903279238" lon="11.103863811826924"><ele>168.0</ele><time>2026-04-19T18:05:39Z</time></trkpt><trkpt lat="43.732860803954495" lon="11.103604427179238"><ele>171.0</ele><time>2026-04-19T18:05:40Z</time></trkpt><trkpt lat="43.73272937122134" lon="11.103348911128814"><ele>168.0</ele><time>2026-04-19T18:05:41Z</time></trkpt><trkpt lat="43.7326022438344" lon="11.103099573198481"><ele>165.0</ele><time>2026-04-19T18:05:42Z</time></trkpt><trkpt lat="43.73247698246645" lon="11.10285583683222"><ele>162.0</ele><time>2026-04-19T18:05:43Z</time></trkpt><trkpt lat="43.732353115813424" lon="11.102616570961251"><ele>161.66666666666666</ele><time>2026-04-19T18:05:44Z</time></trkpt><trkpt lat="43.732224991508446" lon="11.10237386378171"><ele>161.33333333333331</ele><time>2026-04-19T18:05:45Z</time></trkpt><trkpt lat="43.73209371572413" lon="11.102126145617046"><ele>161.0</ele><time>2026-04-19T18:05:46Z</time></trkpt><trkpt lat="43.73195789864965" lon="11.101871138618543"><ele>157.0</ele><time>2026-04-19T18:05:47Z</time></trkpt><trkpt lat="43.731814363995234" lon="11.101611694504452"><ele>153.0</ele><time>2026-04-19T18:05:48Z</time></trkpt><trkpt lat="43.7316665690729" lon="11.101356794286412"><ele>153.0</ele><time>2026-04-19T18:05:48.999Z</time></trkpt><trkpt lat="43.7315195426707" lon="11.101107267051463"><ele>153.0</ele><time>2026-04-19T18:05:49.999Z</time></trkpt><trkpt lat="43.73137268368831" lon="11.100861732377604"><ele>150.5</ele><time>2026-04-19T18:05:50.999Z</time></trkpt><trkpt lat="43.731219827301054" lon="11.10061883125176"><ele>148.0</ele><time>2026-04-19T18:05:51.999Z</time></trkpt><trkpt lat="43.731064272511446" lon="11.100367700171743"><ele>147.5</ele><time>2026-04-19T18:05:52.999Z</time></trkpt><trkpt lat="43.73090127945973" lon="11.1001040471788"><ele>147.0</ele><time>2026-04-19T18:05:53.999Z</time></trkpt><trkpt lat="43.730743583999825" lon="11.099854313296957"><ele>142.0</ele><time>2026-04-19T18:05:54.999Z</time></trkpt><trkpt lat="43.73058873272206" lon="11.099617518375682"><ele>137.0</ele><time>2026-04-19T18:05:55.999Z</time></trkpt><trkpt lat="43.730436952686695" lon="11.099387116074482"><ele>137.0</ele><time>2026-04-19T18:05:56.999Z</time></trkpt><trkpt lat="43.73028872549067" lon="11.0991614911878"><ele>137.0</ele><time>2026-04-19T18:05:57.999Z</time></trkpt><trkpt lat="43.73014525044511" lon="11.098938807436621"><ele>137.0</ele><time>2026-04-19T18:05:58.999Z</time></trkpt><trkpt lat="43.73000295392078" lon="11.098715978703853"><ele>136.66666666666666</ele><time>2026-04-19T18:06:00Z</time></trkpt><trkpt lat="43.7298565520635" lon="11.098486643002634"><ele>136.33333333333334</ele><time>2026-04-19T18:06:01Z</time></trkpt><trkpt lat="43.72970844470609" lon="11.098255180861958"><ele>136.0</ele><time>2026-04-19T18:06:02Z</time></trkpt><trkpt lat="43.72956622604425" lon="11.098027545526909"><ele>136.0</ele><time>2026-04-19T18:06:03Z</time></trkpt><trkpt lat="43.72942663999576" lon="11.097788974873463"><ele>136.0</ele><time>2026-04-19T18:06:04Z</time></trkpt><trkpt lat="43.7292881223545" lon="11.097537080022889"><ele>138.0</ele><time>2026-04-19T18:06:05Z</time></trkpt><trkpt lat="43.72914913676459" lon="11.097272290351366"><ele>140.0</ele><time>2026-04-19T18:06:06Z</time></trkpt><trkpt lat="43.729010090676205" lon="11.096999572458275"><ele>140.0</ele><time>2026-04-19T18:06:07Z</time></trkpt><trkpt lat="43.72887780987867" lon="11.09672728700569"><ele>140.0</ele><time>2026-04-19T18:06:08Z</time></trkpt><trkpt lat="43.72875215556827" lon="11.096458148550477"><ele>140.0</ele><time>2026-04-19T18:06:09Z</time></trkpt><trkpt lat="43.728631096417125" lon="11.09619246029429"><ele>140.0</ele><time>2026-04-19T18:06:10Z</time></trkpt><trkpt lat="43.72851737906774" lon="11.095939796150065"><ele>140.0</ele><time>2026-04-19T18:06:11Z</time></trkpt><trkpt lat="43.72840608307892" lon="11.095692184942132"><ele>137.66666666666666</ele><time>2026-04-19T18:06:12Z</time></trkpt><trkpt lat="43.72829593532186" lon="11.095442505360513"><ele>135.33333333333334</ele><time>2026-04-19T18:06:13Z</time></trkpt><trkpt lat="43.72818256773981" lon="11.095185431909707"><ele>133.0</ele><time>2026-04-19T18:06:14Z</time></trkpt><trkpt lat="43.72806457055023" lon="11.094922670010824"><ele>133.33333333333334</ele><time>2026-04-19T18:06:15Z</time></trkpt><trkpt lat="43.72794597332272" lon="11.094658518423318"><ele>133.66666666666666</ele><time>2026-04-19T18:06:16Z</time></trkpt><trkpt lat="43.727829300711086" lon="11.094396124661646"><ele>134.0</ele><time>2026-04-19T18:06:17Z</time></trkpt><trkpt lat="43.727711755658994" lon="11.094130396952046"><ele>132.33333333333331</ele><time>2026-04-19T18:06:18Z</time></trkpt><trkpt lat="43.72759573862265" lon="11.09387087190431"><ele>130.66666666666666</ele><time>2026-04-19T18:06:19Z</time></trkpt><trkpt lat="43.72748842876315" lon="11.093628582998425"><ele>129.0</ele><time>2026-04-19T18:06:20Z</time></trkpt><trkpt lat="43.727382118561756" lon="11.09338897735973"><ele>126.66666666666666</ele><time>2026-04-19T18:06:21Z</time></trkpt><trkpt lat="43.727274091491566" lon="11.09314512707757"><ele>124.33333333333333</ele><time>2026-04-19T18:06:22Z</time></trkpt><trkpt lat="43.72716661574822" lon="11.092900692410375"><ele>122.0</ele><time>2026-04-19T18:06:23Z</time></trkpt><trkpt lat="43.727055916058184" lon="11.092655242547258"><ele>120.0</ele><time>2026-04-19T18:06:24Z</time></trkpt><trkpt lat="43.72694221805733" lon="11.092403903034711"><ele>118.0</ele><time>2026-04-19T18:06:25Z</time></trkpt><trkpt lat="43.726826776352986" lon="11.092148303380014"><ele>116.0</ele><time>2026-04-19T18:06:26Z</time></trkpt><trkpt lat="43.72671350278852" lon="11.091893726897684"><ele>116.0</ele><time>2026-04-19T18:06:27Z</time></trkpt><trkpt lat="43.726601514814874" lon="11.091639468674027"><ele>116.0</ele><time>2026-04-19T18:06:28Z</time></trkpt><trkpt lat="43.72648643807263" lon="11.091379917538363"><ele>116.0</ele><time>2026-04-19T18:06:29Z</time></trkpt><trkpt lat="43.72636837788768" lon="11.091113482846595"><ele>114.5</ele><time>2026-04-19T18:06:30Z</time></trkpt><trkpt lat="43.7262460764849" lon="11.090840569294299"><ele>113.0</ele><time>2026-04-19T18:06:31Z</time></trkpt><trkpt lat="43.72612204940028" lon="11.09056318339808"><ele>117.5</ele><time>2026-04-19T18:06:32Z</time></trkpt><trkpt lat="43.72599941784754" lon="11.090285384485062"><ele>122.0</ele><time>2026-04-19T18:06:33Z</time></trkpt><trkpt lat="43.72587619656901" lon="11.090007513465169"><ele>116.5</ele><time>2026-04-19T18:06:34Z</time></trkpt><trkpt lat="43.725753840086114" lon="11.089733644391096"><ele>111.0</ele><time>2026-04-19T18:06:35Z</time></trkpt><trkpt lat="43.72563417113008" lon="11.089466507537802"><ele>111.0</ele><time>2026-04-19T18:06:36Z</time></trkpt><trkpt lat="43.72551412749681" lon="11.089197618278389"><ele>111.0</ele><time>2026-04-19T18:06:37Z</time></trkpt><trkpt lat="43.72539506283757" lon="11.0889276208053"><ele>110.66666666666666</ele><time>2026-04-19T18:06:38Z</time></trkpt><trkpt lat="43.72527713051719" lon="11.088659055094409"><ele>110.33333333333333</ele><time>2026-04-19T18:06:39Z</time></trkpt><trkpt lat="43.72516485092382" lon="11.088409500226076"><ele>110.0</ele><time>2026-04-19T18:06:40Z</time></trkpt><trkpt lat="43.725056524235924" lon="11.08816771482956"><ele>108.66666666666666</ele><time>2026-04-19T18:06:41Z</time></trkpt><trkpt lat="43.724949431363875" lon="11.087929959956332"><ele>107.33333333333334</ele><time>2026-04-19T18:06:42Z</time></trkpt><trkpt lat="43.72484585041583" lon="11.087692906098916"><ele>106.0</ele><time>2026-04-19T18:06:43Z</time></trkpt><trkpt lat="43.724742079258256" lon="11.087456103081879"><ele>106.33333333333334</ele><time>2026-04-19T18:06:44Z</time></trkpt><trkpt lat="43.724640231875405" lon="11.087224325690814"><ele>106.66666666666666</ele><time>2026-04-19T18:06:45Z</time></trkpt><trkpt lat="43.724539836733065" lon="11.086997922431914"><ele>107.0</ele><time>2026-04-19T18:06:46Z</time></trkpt><trkpt lat="43.724439770672966" lon="11.08677539357085"><ele>107.66666666666666</ele><time>2026-04-19T18:06:47Z</time></trkpt><trkpt lat="43.724339029098964" lon="11.086553296713488"><ele>108.33333333333334</ele><time>2026-04-19T18:06:48Z</time></trkpt><trkpt lat="43.724240581455454" lon="11.086331150394647"><ele>109.0</ele><time>2026-04-19T18:06:49Z</time></trkpt><trkpt lat="43.72414097951988" lon="11.086106321018857"><ele>109.0</ele><time>2026-04-19T18:06:50Z</time></trkpt><trkpt lat="43.724037922001486" lon="11.085870442012851"><ele>109.0</ele><time>2026-04-19T18:06:51Z</time></trkpt><trkpt lat="43.72393146189397" lon="11.08562893828253"><ele>109.0</ele><time>2026-04-19T18:06:52Z</time></trkpt><trkpt lat="43.72382203829385" lon="11.085383529159602"><ele>106.66666666666667</ele><time>2026-04-19T18:06:53Z</time></trkpt><trkpt lat="43.72370872717984" lon="11.085131942921754"><ele>104.33333333333334</ele><time>2026-04-19T18:06:54Z</time></trkpt><trkpt lat="43.72359210356593" lon="11.084872206069752"><ele>102.0</ele><time>2026-04-19T18:06:55Z</time></trkpt><trkpt lat="43.72347376747337" lon="11.084608561196635"><ele>102.0</ele><time>2026-04-19T18:06:56Z</time></trkpt><trkpt lat="43.7233534060225" lon="11.08434076980278"><ele>102.0</ele><time>2026-04-19T18:06:57Z</time></trkpt><trkpt lat="43.72323096839332" lon="11.084070189813385"><ele>100.0</ele><time>2026-04-19T18:06:58Z</time></trkpt><trkpt lat="43.723109352393564" lon="11.083794278366026"><ele>98.0</ele><time>2026-04-19T18:06:59Z</time></trkpt><trkpt lat="43.722989971998146" lon="11.083526609459245"><ele>98.0</ele><time>2026-04-19T18:07:00Z</time></trkpt><trkpt lat="43.72287390726675" lon="11.083269806134698"><ele>98.0</ele><time>2026-04-19T18:07:01Z</time></trkpt><trkpt lat="43.72276607334614" lon="11.083029475731838"><ele>98.0</ele><time>2026-04-19T18:07:02Z</time></trkpt><trkpt lat="43.7226598136519" lon="11.082786351565309"><ele>97.0</ele><time>2026-04-19T18:07:03Z</time></trkpt><trkpt lat="43.722550834718795" lon="11.08254191255241"><ele>96.0</ele><time>2026-04-19T18:07:04Z</time></trkpt><trkpt lat="43.72243710047222" lon="11.082291816821193"><ele>95.0</ele><time>2026-04-19T18:07:05Z</time></trkpt><trkpt lat="43.7223217148434" lon="11.082042326895866"><ele>95.0</ele><time>2026-04-19T18:07:06Z</time></trkpt><trkpt lat="43.7222031369177" lon="11.081781940472865"><ele>95.0</ele><time>2026-04-19T18:07:07Z</time></trkpt><trkpt lat="43.72208538011341" lon="11.08151518544382"><ele>95.0</ele><time>2026-04-19T18:07:08Z</time></trkpt><trkpt lat="43.72197434714858" lon="11.081260048238768"><ele>94.33333333333334</ele><time>2026-04-19T18:07:09Z</time></trkpt><trkpt lat="43.72186754987711" lon="11.081010423066433"><ele>93.66666666666667</ele><time>2026-04-19T18:07:10Z</time></trkpt><trkpt lat="43.721757039744546" lon="11.080760097787772"><ele>93.0</ele><time>2026-04-19T18:07:11Z</time></trkpt><trkpt lat="43.72164493953508" lon="11.080505366671304"><ele>93.0</ele><time>2026-04-19T18:07:12Z</time></trkpt><trkpt lat="43.72152991860332" lon="11.080248283673273"><ele>93.0</ele><time>2026-04-19T18:07:13Z</time></trkpt><trkpt lat="43.72142165684194" lon="11.080004159825213"><ele>93.0</ele><time>2026-04-19T18:07:14Z</time></trkpt><trkpt lat="43.721319795516735" lon="11.079774073767313"><ele>91.66666666666667</ele><time>2026-04-19T18:07:15Z</time></trkpt><trkpt lat="43.721221897732306" lon="11.079555296186701"><ele>90.33333333333334</ele><time>2026-04-19T18:07:16Z</time></trkpt><trkpt lat="43.72112702278465" lon="11.07934472837563"><ele>89.0</ele><time>2026-04-19T18:07:17Z</time></trkpt><trkpt lat="43.72103186964995" lon="11.079137176614458"><ele>89.0</ele><time>2026-04-19T18:07:18.001Z</time></trkpt><trkpt lat="43.72094159537644" lon="11.078937749732079"><ele>89.0</ele><time>2026-04-19T18:07:19.001Z</time></trkpt><trkpt lat="43.720848639116326" lon="11.078728141084078"><ele>89.0</ele><time>2026-04-19T18:07:20.001Z</time></trkpt><trkpt lat="43.720750044930746" lon="11.07851147844949"><ele>89.0</ele><time>2026-04-19T18:07:21.001Z</time></trkpt><trkpt lat="43.720644436525156" lon="11.078292590737203"><ele>89.0</ele><time>2026-04-19T18:07:22.001Z</time></trkpt><trkpt lat="43.720528289139324" lon="11.07807152510484"><ele>89.0</ele><time>2026-04-19T18:07:23.001Z</time></trkpt><trkpt lat="43.7204091843129" lon="11.077860283012306"><ele>88.66666666666667</ele><time>2026-04-19T18:07:24.001Z</time></trkpt><trkpt lat="43.72028009775253" lon="11.077653686953335"><ele>88.33333333333333</ele><time>2026-04-19T18:07:25.001Z</time></trkpt><trkpt lat="43.72014190235274" lon="11.077447860640003"><ele>88.0</ele><time>2026-04-19T18:07:26.001Z</time></trkpt><trkpt lat="43.71999599557499" lon="11.077242013800525"><ele>86.33333333333333</ele><time>2026-04-19T18:07:27.001Z</time></trkpt><trkpt lat="43.71984284993643" lon="11.077037297788857"><ele>84.66666666666667</ele><time>2026-04-19T18:07:28.001Z</time></trkpt><trkpt lat="43.71967837783431" lon="11.076836598936364"><ele>83.0</ele><time>2026-04-19T18:07:29.001Z</time></trkpt><trkpt lat="43.719502751584045" lon="11.076640315569986"><ele>81.5</ele><time>2026-04-19T18:07:30.001Z</time></trkpt><trkpt lat="43.71931769142952" lon="11.076447264569921"><ele>80.0</ele><time>2026-04-19T18:07:31.001Z</time></trkpt><trkpt lat="43.71912673212791" lon="11.076258551699729"><ele>80.0</ele><time>2026-04-19T18:07:32.001Z</time></trkpt><trkpt lat="43.71891765932247" lon="11.076058397945928"><ele>80.0</ele><time>2026-04-19T18:07:33.001Z</time></trkpt><trkpt lat="43.718707205247036" lon="11.075856138134952"><ele>79.5</ele><time>2026-04-19T18:07:34.001Z</time></trkpt><trkpt lat="43.71849404207826" lon="11.07565158554865"><ele>79.0</ele><time>2026-04-19T18:07:35.001Z</time></trkpt><trkpt lat="43.71829845739763" lon="11.075462923567134"><ele>79.0</ele><time>2026-04-19T18:07:36.001Z</time></trkpt><trkpt lat="43.71809811826947" lon="11.075267302823256"><ele>79.0</ele><time>2026-04-19T18:07:37.001Z</time></trkpt><trkpt lat="43.71788639057755" lon="11.075059113933214"><ele>77.0</ele><time>2026-04-19T18:07:38.001Z</time></trkpt><trkpt lat="43.71767965187419" lon="11.074859468328977"><ele>75.0</ele><time>2026-04-19T18:07:39.001Z</time></trkpt><trkpt lat="43.71748573455178" lon="11.074675717005034"><ele>75.0</ele><time>2026-04-19T18:07:40.001Z</time></trkpt><trkpt lat="43.71730178166877" lon="11.074493761990569"><ele>75.0</ele><time>2026-04-19T18:07:41.001Z</time></trkpt><trkpt lat="43.71712083103783" lon="11.074314960949744"><ele>75.0</ele><time>2026-04-19T18:07:42.001Z</time></trkpt><trkpt lat="43.71694627204755" lon="11.074144406689335"><ele>73.0</ele><time>2026-04-19T18:07:43.001Z</time></trkpt><trkpt lat="43.71676293892874" lon="11.073965551769417"><ele>71.0</ele><time>2026-04-19T18:07:44.001Z</time></trkpt><trkpt lat="43.71657146143215" lon="11.073784740793316"><ele>71.0</ele><time>2026-04-19T18:07:45.001Z</time></trkpt><trkpt lat="43.71637051311419" lon="11.073589933024149"><ele>71.0</ele><time>2026-04-19T18:07:46.001Z</time></trkpt><trkpt lat="43.71617002597029" lon="11.073397870478718"><ele>72.0</ele><time>2026-04-19T18:07:47.001Z</time></trkpt><trkpt lat="43.71598816853612" lon="11.07322489533727"><ele>73.0</ele><time>2026-04-19T18:07:48Z</time></trkpt><trkpt lat="43.715806982208804" lon="11.073049882400978"><ele>74.0</ele><time>2026-04-19T18:07:49Z</time></trkpt><trkpt lat="43.71562655891737" lon="11.072877175790726"><ele>74.0</ele><time>2026-04-19T18:07:50Z</time></trkpt><trkpt lat="43.71544508835633" lon="11.072703956991276"><ele>74.0</ele><time>2026-04-19T18:07:51Z</time></trkpt><trkpt lat="43.71526471287264" lon="11.072531524201537"><ele>74.0</ele><time>2026-04-19T18:07:52Z</time></trkpt><trkpt lat="43.715090040075886" lon="11.072363044293496"><ele>73.33333333333334</ele><time>2026-04-19T18:07:53Z</time></trkpt><trkpt lat="43.71493178114228" lon="11.072206221228464"><ele>72.66666666666667</ele><time>2026-04-19T18:07:54Z</time></trkpt><trkpt lat="43.714782189576155" lon="11.07205623669335"><ele>72.0</ele><time>2026-04-19T18:07:55Z</time></trkpt><trkpt lat="43.71462986270602" lon="11.071907061460342"><ele>72.0</ele><time>2026-04-19T18:07:56Z</time></trkpt><trkpt lat="43.714473559332845" lon="11.0717597195576"><ele>72.0</ele><time>2026-04-19T18:07:57Z</time></trkpt><trkpt lat="43.714319028286376" lon="11.071614196043374"><ele>72.0</ele><time>2026-04-19T18:07:58Z</time></trkpt><trkpt lat="43.71417130536811" lon="11.071470604098268"><ele>71.0</ele><time>2026-04-19T18:07:59Z</time></trkpt><trkpt lat="43.71402528544025" lon="11.07132608767315"><ele>70.0</ele><time>2026-04-19T18:08:00Z</time></trkpt><trkpt lat="43.713878460117876" lon="11.071183435695673"><ele>69.0</ele><time>2026-04-19T18:08:01Z</time></trkpt><trkpt lat="43.7137353842294" lon="11.07104088466782"><ele>69.0</ele><time>2026-04-19T18:08:02Z</time></trkpt><trkpt lat="43.71358945149419" lon="11.070892254509104"><ele>69.0</ele><time>2026-04-19T18:08:03Z</time></trkpt><trkpt lat="43.71345588593878" lon="11.07074926207419"><ele>69.0</ele><time>2026-04-19T18:08:04Z</time></trkpt><trkpt lat="43.713320055648175" lon="11.070597770190924"><ele>67.33333333333333</ele><time>2026-04-19T18:08:05Z</time></trkpt><trkpt lat="43.713181423020615" lon="11.070435399350835"><ele>65.66666666666666</ele><time>2026-04-19T18:08:06Z</time></trkpt><trkpt lat="43.713041483207355" lon="11.070254089613424"><ele>64.0</ele><time>2026-04-19T18:08:07Z</time></trkpt><trkpt lat="43.712903357986654" lon="11.070056101366646"><ele>63.33333333333333</ele><time>2026-04-19T18:08:08Z</time></trkpt><trkpt lat="43.712773639584796" lon="11.069852834463177"><ele>62.66666666666667</ele><time>2026-04-19T18:08:09Z</time></trkpt><trkpt lat="43.712650630312595" lon="11.069643461500347"><ele>62.0</ele><time>2026-04-19T18:08:10Z</time></trkpt><trkpt lat="43.71254265065884" lon="11.069430722972404"><ele>62.0</ele><time>2026-04-19T18:08:11Z</time></trkpt><trkpt lat="43.71244305958061" lon="11.069210147732857"><ele>62.0</ele><time>2026-04-19T18:08:12Z</time></trkpt><trkpt lat="43.71235346615537" lon="11.068995630289944"><ele>62.0</ele><time>2026-04-19T18:08:13Z</time></trkpt><trkpt lat="43.712269917241656" lon="11.068776529191213"><ele>66.0</ele><time>2026-04-19T18:08:14Z</time></trkpt><trkpt lat="43.71219390271064" lon="11.06856012183721"><ele>70.0</ele><time>2026-04-19T18:08:15Z</time></trkpt><trkpt lat="43.71212811950284" lon="11.06833953725807"><ele>74.0</ele><time>2026-04-19T18:08:16Z</time></trkpt><trkpt lat="43.71207141490049" lon="11.06811668781003"><ele>77.66666666666667</ele><time>2026-04-19T18:08:17Z</time></trkpt><trkpt lat="43.71202131194184" lon="11.06788940144818"><ele>81.33333333333333</ele><time>2026-04-19T18:08:18Z</time></trkpt><trkpt lat="43.71197508795837" lon="11.067656112303"><ele>85.0</ele><time>2026-04-19T18:08:19Z</time></trkpt><trkpt lat="43.71193527354611" lon="11.067423772285181"><ele>79.33333333333333</ele><time>2026-04-19T18:08:20Z</time></trkpt><trkpt lat="43.71190403700623" lon="11.067191460715113"><ele>73.66666666666667</ele><time>2026-04-19T18:08:21Z</time></trkpt><trkpt lat="43.71188380804826" lon="11.066956100989206"><ele>68.0</ele><time>2026-04-19T18:08:22Z</time></trkpt><trkpt lat="43.711868977900004" lon="11.066717452375341"><ele>67.0</ele><time>2026-04-19T18:08:23Z</time></trkpt><trkpt lat="43.71186006547917" lon="11.066475539278354"><ele>66.0</ele><time>2026-04-19T18:08:24Z</time></trkpt><trkpt lat="43.71185806329057" lon="11.066230410981268"><ele>65.0</ele><time>2026-04-19T18:08:25Z</time></trkpt><trkpt lat="43.711864439073814" lon="11.0659813323705"><ele>63.66666666666667</ele><time>2026-04-19T18:08:26Z</time></trkpt><trkpt lat="43.71188012579665" lon="11.065721818378503"><ele>62.33333333333333</ele><time>2026-04-19T18:08:27Z</time></trkpt><trkpt lat="43.71190397218418" lon="11.065463358304507"><ele>61.0</ele><time>2026-04-19T18:08:28Z</time></trkpt><trkpt lat="43.711936067063526" lon="11.065202712758262"><ele>68.0</ele><time>2026-04-19T18:08:29Z</time></trkpt><trkpt lat="43.71197325123864" lon="11.06493704319409"><ele>75.0</ele><time>2026-04-19T18:08:30Z</time></trkpt><trkpt lat="43.71201358863959" lon="11.064668527771593"><ele>82.0</ele><time>2026-04-19T18:08:31Z</time></trkpt><trkpt lat="43.71205530191682" lon="11.064397453604718"><ele>82.0</ele><time>2026-04-19T18:08:32Z</time></trkpt><trkpt lat="43.71209932304458" lon="11.064126125480186"><ele>82.0</ele><time>2026-04-19T18:08:33Z</time></trkpt><trkpt lat="43.712140984108125" lon="11.063858492135068"><ele>82.0</ele><time>2026-04-19T18:08:34Z</time></trkpt><trkpt lat="43.71218149101243" lon="11.063594763632317"><ele>80.0</ele><time>2026-04-19T18:08:35Z</time></trkpt><trkpt lat="43.7122219490311" lon="11.06333501731077"><ele>78.0</ele><time>2026-04-19T18:08:36Z</time></trkpt><trkpt lat="43.71226215276036" lon="11.063067892214844"><ele>76.0</ele><time>2026-04-19T18:08:37Z</time></trkpt><trkpt lat="43.712300656477346" lon="11.062790722784559"><ele>72.66666666666666</ele><time>2026-04-19T18:08:38Z</time></trkpt><trkpt lat="43.712335722960724" lon="11.062513716452358"><ele>69.33333333333333</ele><time>2026-04-19T18:08:39Z</time></trkpt><trkpt lat="43.71236499557964" lon="11.062243120330638"><ele>66.0</ele><time>2026-04-19T18:08:40Z</time></trkpt><trkpt lat="43.71238658231162" lon="11.061973424223423"><ele>62.33333333333333</ele><time>2026-04-19T18:08:41Z</time></trkpt><trkpt lat="43.71240358780927" lon="11.061701070038515"><ele>58.666666666666664</ele><time>2026-04-19T18:08:42Z</time></trkpt><trkpt lat="43.71242013799785" lon="11.061427251636735"><ele>55.0</ele><time>2026-04-19T18:08:43Z</time></trkpt><trkpt lat="43.712434074102546" lon="11.06115681038087"><ele>53.666666666666664</ele><time>2026-04-19T18:08:44Z</time></trkpt><trkpt lat="43.71244254602175" lon="11.060886825586692"><ele>52.33333333333333</ele><time>2026-04-19T18:08:45Z</time></trkpt><trkpt lat="43.712445069385396" lon="11.060621056033726"><ele>51.0</ele><time>2026-04-19T18:08:46Z</time></trkpt><trkpt lat="43.71244402472607" lon="11.060358457030613"><ele>50.66666666666667</ele><time>2026-04-19T18:08:47Z</time></trkpt><trkpt lat="43.712438952270354" lon="11.060104744084938"><ele>50.333333333333336</ele><time>2026-04-19T18:08:48Z</time></trkpt><trkpt lat="43.71243154049783" lon="11.059851343315408"><ele>50.0</ele><time>2026-04-19T18:08:49Z</time></trkpt><trkpt lat="43.71241952880099" lon="11.059593701219216"><ele>49.66666666666667</ele><time>2026-04-19T18:08:50Z</time></trkpt><trkpt lat="43.712403456549616" lon="11.05933562616565"><ele>49.33333333333333</ele><time>2026-04-19T18:08:51Z</time></trkpt><trkpt lat="43.712381874878815" lon="11.059074605453418"><ele>49.0</ele><time>2026-04-19T18:08:52Z</time></trkpt><trkpt lat="43.71235442246658" lon="11.05880480148219"><ele>49.666666666666664</ele><time>2026-04-19T18:08:53Z</time></trkpt><trkpt lat="43.71232102822784" lon="11.058529360446654"><ele>50.33333333333333</ele><time>2026-04-19T18:08:54Z</time></trkpt><trkpt lat="43.712284226623105" lon="11.058246580006735"><ele>51.0</ele><time>2026-04-19T18:08:55Z</time></trkpt><trkpt lat="43.71224621138971" lon="11.057959879148088"><ele>51.0</ele><time>2026-04-19T18:08:56Z</time></trkpt><trkpt lat="43.712204770368025" lon="11.057672507625163"><ele>51.0</ele><time>2026-04-19T18:08:57Z</time></trkpt><trkpt lat="43.71216027586543" lon="11.057386488109609"><ele>51.0</ele><time>2026-04-19T18:08:58Z</time></trkpt><trkpt lat="43.7121124260837" lon="11.05710346132829"><ele>50.33333333333333</ele><time>2026-04-19T18:08:59Z</time></trkpt><trkpt lat="43.71206236426791" lon="11.056804635740518"><ele>49.666666666666664</ele><time>2026-04-19T18:09:00Z</time></trkpt><trkpt lat="43.71201307970997" lon="11.056502997013846"><ele>49.0</ele><time>2026-04-19T18:09:01Z</time></trkpt><trkpt lat="43.71196500047923" lon="11.05620318874262"><ele>49.0</ele><time>2026-04-19T18:09:02Z</time></trkpt><trkpt lat="43.71191735723063" lon="11.055906583005383"><ele>49.0</ele><time>2026-04-19T18:09:03Z</time></trkpt><trkpt lat="43.711868967478196" lon="11.055612168158625"><ele>49.0</ele><time>2026-04-19T18:09:04Z</time></trkpt><trkpt lat="43.71182040587676" lon="11.055323066016062"><ele>48.666666666666664</ele><time>2026-04-19T18:09:05Z</time></trkpt><trkpt lat="43.711772297372235" lon="11.055035019069804"><ele>48.33333333333333</ele><time>2026-04-19T18:09:06Z</time></trkpt><trkpt lat="43.711725759456144" lon="11.054751586716552"><ele>48.0</ele><time>2026-04-19T18:09:07Z</time></trkpt><trkpt lat="43.71168070912888" lon="11.054467239864595"><ele>47.666666666666664</ele><time>2026-04-19T18:09:08Z</time></trkpt><trkpt lat="43.711636990774366" lon="11.054190140117463"><ele>47.33333333333333</ele><time>2026-04-19T18:09:09Z</time></trkpt><trkpt lat="43.711595915509506" lon="11.053925347731637"><ele>47.0</ele><time>2026-04-19T18:09:10Z</time></trkpt><trkpt lat="43.71155815837921" lon="11.053654489008013"><ele>47.0</ele><time>2026-04-19T18:09:11Z</time></trkpt><trkpt lat="43.711526966452546" lon="11.053374196259211"><ele>47.0</ele><time>2026-04-19T18:09:12Z</time></trkpt><trkpt lat="43.71150495401643" lon="11.053086928211725"><ele>47.0</ele><time>2026-04-19T18:09:13Z</time></trkpt><trkpt lat="43.711488716589656" lon="11.052809031635546"><ele>47.0</ele><time>2026-04-19T18:09:14Z</time></trkpt><trkpt lat="43.71147919478969" lon="11.05252089634162"><ele>47.0</ele><time>2026-04-19T18:09:15Z</time></trkpt><trkpt lat="43.7114768529843" lon="11.05222232941072"><ele>47.0</ele><time>2026-04-19T18:09:16Z</time></trkpt><trkpt lat="43.71148114471641" lon="11.051931456879919"><ele>47.33333333333333</ele><time>2026-04-19T18:09:17Z</time></trkpt><trkpt lat="43.71149303749821" lon="11.05164246459377"><ele>47.666666666666664</ele><time>2026-04-19T18:09:18Z</time></trkpt><trkpt lat="43.71151302395863" lon="11.051351837260846"><ele>48.0</ele><time>2026-04-19T18:09:19Z</time></trkpt><trkpt lat="43.711541863312924" lon="11.051041879415925"><ele>47.5</ele><time>2026-04-19T18:09:20Z</time></trkpt><trkpt lat="43.71157903457791" lon="11.050717398265785"><ele>47.0</ele><time>2026-04-19T18:09:21Z</time></trkpt><trkpt lat="43.711626376844244" lon="11.05038258319324"><ele>47.0</ele><time>2026-04-19T18:09:22Z</time></trkpt><trkpt lat="43.711675552985916" lon="11.050050308455257"><ele>47.0</ele><time>2026-04-19T18:09:23Z</time></trkpt><trkpt lat="43.71172080311452" lon="11.049750144198036"><ele>48.33333333333333</ele><time>2026-04-19T18:09:24Z</time></trkpt><trkpt lat="43.71176319975751" lon="11.049457348953519"><ele>49.666666666666664</ele><time>2026-04-19T18:09:25Z</time></trkpt><trkpt lat="43.71180357631236" lon="11.049161289070787"><ele>51.0</ele><time>2026-04-19T18:09:26Z</time></trkpt><trkpt lat="43.71184150445445" lon="11.048879716280053"><ele>51.33333333333333</ele><time>2026-04-19T18:09:27Z</time></trkpt><trkpt lat="43.711883051774244" lon="11.048590420505652"><ele>51.666666666666664</ele><time>2026-04-19T18:09:28Z</time></trkpt><trkpt lat="43.71192476100603" lon="11.04831491932316"><ele>52.0</ele><time>2026-04-19T18:09:29Z</time></trkpt><trkpt lat="43.711969440472295" lon="11.048039094184466"><ele>50.666666666666664</ele><time>2026-04-19T18:09:30Z</time></trkpt><trkpt lat="43.712021846730515" lon="11.047764410273714"><ele>49.33333333333333</ele><time>2026-04-19T18:09:31Z</time></trkpt><trkpt lat="43.71208387178572" lon="11.047491703179421"><ele>48.0</ele><time>2026-04-19T18:09:32Z</time></trkpt><trkpt lat="43.712156617426935" lon="11.047222116126019"><ele>48.0</ele><time>2026-04-19T18:09:33Z</time></trkpt><trkpt lat="43.71223829642546" lon="11.046953371553121"><ele>48.0</ele><time>2026-04-19T18:09:34Z</time></trkpt><trkpt lat="43.712329111451425" lon="11.046686759333918"><ele>48.0</ele><time>2026-04-19T18:09:35Z</time></trkpt><trkpt lat="43.7124373225872" lon="11.046409330888098"><ele>51.5</ele><time>2026-04-19T18:09:36Z</time></trkpt><trkpt lat="43.712558703238344" lon="11.046123988247523"><ele>55.0</ele><time>2026-04-19T18:09:37Z</time></trkpt><trkpt lat="43.712705042798085" lon="11.045820239676456"><ele>50.0</ele><time>2026-04-19T18:09:38Z</time></trkpt><trkpt lat="43.71285702235787" lon="11.045510818927033"><ele>45.0</ele><time>2026-04-19T18:09:39Z</time></trkpt><trkpt lat="43.712998805955195" lon="11.04522196172449"><ele>47.5</ele><time>2026-04-19T18:09:40Z</time></trkpt><trkpt lat="43.71312758133676" lon="11.044954252979485"><ele>50.0</ele><time>2026-04-19T18:09:41Z</time></trkpt><trkpt lat="43.7132517792274" lon="11.044695308595326"><ele>50.0</ele><time>2026-04-19T18:09:42Z</time></trkpt><trkpt lat="43.71338102953097" lon="11.044428842837425"><ele>50.0</ele><time>2026-04-19T18:09:43Z</time></trkpt><trkpt lat="43.7135158829898" lon="11.04415648374171"><ele>48.5</ele><time>2026-04-19T18:09:44Z</time></trkpt><trkpt lat="43.713651823502516" lon="11.043881559352679"><ele>47.0</ele><time>2026-04-19T18:09:45Z</time></trkpt><trkpt lat="43.71378801162493" lon="11.043605235691953"><ele>47.0</ele><time>2026-04-19T18:09:46Z</time></trkpt><trkpt lat="43.713929655241" lon="11.043316691439047"><ele>47.0</ele><time>2026-04-19T18:09:47Z</time></trkpt><trkpt lat="43.71406544465568" lon="11.043034809100732"><ele>46.666666666666664</ele><time>2026-04-19T18:09:48Z</time></trkpt><trkpt lat="43.714191175330036" lon="11.042776627119913"><ele>46.333333333333336</ele><time>2026-04-19T18:09:49Z</time></trkpt><trkpt lat="43.71431569296652" lon="11.042524235038144"><ele>46.0</ele><time>2026-04-19T18:09:50Z</time></trkpt><trkpt lat="43.7144390603178" lon="11.04227209327134"><ele>46.0</ele><time>2026-04-19T18:09:51Z</time></trkpt><trkpt lat="43.71456297558608" lon="11.042017727972429"><ele>46.0</ele><time>2026-04-19T18:09:52Z</time></trkpt><trkpt lat="43.71468807757487" lon="11.041764329330277"><ele>46.0</ele><time>2026-04-19T18:09:53Z</time></trkpt><trkpt lat="43.71480918683275" lon="11.041515731186534"><ele>48.0</ele><time>2026-04-19T18:09:54Z</time></trkpt><trkpt lat="43.71492229030871" lon="11.041284854093764"><ele>50.0</ele><time>2026-04-19T18:09:55Z</time></trkpt><trkpt lat="43.71502777244367" lon="11.041069901320236"><ele>52.0</ele><time>2026-04-19T18:09:56Z</time></trkpt><trkpt lat="43.71512843281001" lon="11.040864404035972"><ele>54.33333333333333</ele><time>2026-04-19T18:09:57Z</time></trkpt><trkpt lat="43.71522803983728" lon="11.040662518321051"><ele>56.66666666666667</ele><time>2026-04-19T18:09:58Z</time></trkpt><trkpt lat="43.715332907661434" lon="11.040450129438623"><ele>59.0</ele><time>2026-04-19T18:09:59Z</time></trkpt><trkpt lat="43.71544224073289" lon="11.040226677833884"><ele>57.0</ele><time>2026-04-19T18:10:00Z</time></trkpt><trkpt lat="43.71555271070456" lon="11.039993100000096"><ele>55.0</ele><time>2026-04-19T18:10:01Z</time></trkpt><trkpt lat="43.71565610969882" lon="11.039765803612866"><ele>53.0</ele><time>2026-04-19T18:10:02Z</time></trkpt><trkpt lat="43.71575790358009" lon="11.039527639185923"><ele>53.0</ele><time>2026-04-19T18:10:03Z</time></trkpt><trkpt lat="43.71585442724863" lon="11.039282622705713"><ele>53.0</ele><time>2026-04-19T18:10:04Z</time></trkpt><trkpt lat="43.71594641646735" lon="11.039035933958141"><ele>53.0</ele><time>2026-04-19T18:10:05Z</time></trkpt><trkpt lat="43.71603249246928" lon="11.038783212585612"><ele>51.0</ele><time>2026-04-19T18:10:06Z</time></trkpt><trkpt lat="43.7161071410851" lon="11.038523981987861"><ele>49.0</ele><time>2026-04-19T18:10:07Z</time></trkpt><trkpt lat="43.71617597018393" lon="11.038245336660797"><ele>47.0</ele><time>2026-04-19T18:10:08Z</time></trkpt><trkpt lat="43.71623545064942" lon="11.037952185548045"><ele>47.0</ele><time>2026-04-19T18:10:09Z</time></trkpt><trkpt lat="43.716286700731004" lon="11.037647054925555"><ele>47.0</ele><time>2026-04-19T18:10:10Z</time></trkpt><trkpt lat="43.71632645818097" lon="11.037367437689229"><ele>47.0</ele><time>2026-04-19T18:10:11Z</time></trkpt><trkpt lat="43.71636490480678" lon="11.037096798895426"><ele>49.666666666666664</ele><time>2026-04-19T18:10:12Z</time></trkpt><trkpt lat="43.716408569123324" lon="11.036806257828701"><ele>52.33333333333333</ele><time>2026-04-19T18:10:13Z</time></trkpt><trkpt lat="43.71645856688279" lon="11.036518158031793"><ele>55.0</ele><time>2026-04-19T18:10:14Z</time></trkpt><trkpt lat="43.716519336759895" lon="11.036232289463642"><ele>57.0</ele><time>2026-04-19T18:10:15Z</time></trkpt><trkpt lat="43.716591189667135" lon="11.035950223638219"><ele>59.0</ele><time>2026-04-19T18:10:16Z</time></trkpt><trkpt lat="43.71667089492311" lon="11.035679394195194"><ele>61.0</ele><time>2026-04-19T18:10:17Z</time></trkpt><trkpt lat="43.71675600654101" lon="11.035420956659056"><ele>61.0</ele><time>2026-04-19T18:10:18Z</time></trkpt><trkpt lat="43.716849348692186" lon="11.035166788274223"><ele>61.0</ele><time>2026-04-19T18:10:19Z</time></trkpt><trkpt lat="43.71694379990719" lon="11.034932287487822"><ele>61.0</ele><time>2026-04-19T18:10:20Z</time></trkpt><trkpt lat="43.71703674700789" lon="11.034714617677368"><ele>55.666666666666664</ele><time>2026-04-19T18:10:21Z</time></trkpt><trkpt lat="43.71713340760085" lon="11.034517243576197"><ele>50.33333333333333</ele><time>2026-04-19T18:10:22Z</time></trkpt><trkpt lat="43.71723278287297" lon="11.034324237973529"><ele>45.0</ele><time>2026-04-19T18:10:23Z</time></trkpt><trkpt lat="43.71733178953902" lon="11.034128533684873"><ele>45.0</ele><time>2026-04-19T18:10:24Z</time></trkpt><trkpt lat="43.71742816615013" lon="11.033931461177755"><ele>45.0</ele><time>2026-04-19T18:10:25Z</time></trkpt><trkpt lat="43.71752516183098" lon="11.033735183250936"><ele>45.0</ele><time>2026-04-19T18:10:26Z</time></trkpt><trkpt lat="43.71761982787286" lon="11.033548620846078"><ele>45.0</ele><time>2026-04-19T18:10:27Z</time></trkpt><trkpt lat="43.71771714447854" lon="11.033360001494108"><ele>45.0</ele><time>2026-04-19T18:10:28Z</time></trkpt><trkpt lat="43.7178129481624" lon="11.033169618993153"><ele>45.0</ele><time>2026-04-19T18:10:29Z</time></trkpt><trkpt lat="43.7179066185996" lon="11.032983585658675"><ele>49.66666666666667</ele><time>2026-04-19T18:10:30Z</time></trkpt><trkpt lat="43.71799811198465" lon="11.032799554466706"><ele>54.333333333333336</ele><time>2026-04-19T18:10:31Z</time></trkpt><trkpt lat="43.71808818860558" lon="11.032619330535672"><ele>59.0</ele><time>2026-04-19T18:10:32Z</time></trkpt><trkpt lat="43.71817672072534" lon="11.03244047344022"><ele>61.66666666666667</ele><time>2026-04-19T18:10:33Z</time></trkpt><trkpt lat="43.71826630312379" lon="11.032262996141128"><ele>64.33333333333333</ele><time>2026-04-19T18:10:34Z</time></trkpt><trkpt lat="43.71835970825811" lon="11.03207747888245"><ele>67.0</ele><time>2026-04-19T18:10:35Z</time></trkpt><trkpt lat="43.71845719463358" lon="11.031883777490775"><ele>67.0</ele><time>2026-04-19T18:10:36Z</time></trkpt><trkpt lat="43.718559213852096" lon="11.031679418384176"><ele>67.0</ele><time>2026-04-19T18:10:37Z</time></trkpt><trkpt lat="43.71866493058168" lon="11.031470776612577"><ele>67.0</ele><time>2026-04-19T18:10:38Z</time></trkpt><trkpt lat="43.71876652477933" lon="11.03127232562192"><ele>67.0</ele><time>2026-04-19T18:10:39Z</time></trkpt><trkpt lat="43.71886600894667" lon="11.031075812589725"><ele>67.0</ele><time>2026-04-19T18:10:40Z</time></trkpt><trkpt lat="43.71896683100371" lon="11.030875444243991"><ele>67.0</ele><time>2026-04-19T18:10:41Z</time></trkpt><trkpt lat="43.71907172118515" lon="11.030664051748824"><ele>67.0</ele><time>2026-04-19T18:10:42Z</time></trkpt><trkpt lat="43.719180761369024" lon="11.03044756563756"><ele>67.0</ele><time>2026-04-19T18:10:43Z</time></trkpt><trkpt lat="43.71929253264197" lon="11.030222113613101"><ele>67.0</ele><time>2026-04-19T18:10:44Z</time></trkpt><trkpt lat="43.719406757547375" lon="11.02999348777688"><ele>66.0</ele><time>2026-04-19T18:10:45Z</time></trkpt><trkpt lat="43.719516331946046" lon="11.029774126528313"><ele>65.0</ele><time>2026-04-19T18:10:46Z</time></trkpt><trkpt lat="43.71962557081072" lon="11.02956170978118"><ele>64.0</ele><time>2026-04-19T18:10:47Z</time></trkpt><trkpt lat="43.719732020046145" lon="11.029354916814121"><ele>64.0</ele><time>2026-04-19T18:10:48Z</time></trkpt><trkpt lat="43.71983657107261" lon="11.029151828563544"><ele>64.0</ele><time>2026-04-19T18:10:49Z</time></trkpt><trkpt lat="43.71993991886268" lon="11.028951724193035"><ele>64.0</ele><time>2026-04-19T18:10:50Z</time></trkpt><trkpt lat="43.72004240580565" lon="11.028749413259778"><ele>65.33333333333333</ele><time>2026-04-19T18:10:51Z</time></trkpt><trkpt lat="43.72015059792081" lon="11.02853045675145"><ele>66.66666666666667</ele><time>2026-04-19T18:10:52Z</time></trkpt><trkpt lat="43.72026310068504" lon="11.028303140446942"><ele>68.0</ele><time>2026-04-19T18:10:53Z</time></trkpt><trkpt lat="43.72037847510961" lon="11.028069683001405"><ele>68.0</ele><time>2026-04-19T18:10:54Z</time></trkpt><trkpt lat="43.72049634974302" lon="11.027835374480375"><ele>68.0</ele><time>2026-04-19T18:10:55Z</time></trkpt><trkpt lat="43.720613646861324" lon="11.027601191418595"><ele>68.0</ele><time>2026-04-19T18:10:56Z</time></trkpt><trkpt lat="43.72073426455968" lon="11.027362144368897"><ele>69.33333333333334</ele><time>2026-04-19T18:10:57Z</time></trkpt><trkpt lat="43.72085255297939" lon="11.027124572279963"><ele>70.66666666666667</ele><time>2026-04-19T18:10:58Z</time></trkpt><trkpt lat="43.72096675594934" lon="11.026896120692692"><ele>72.0</ele><time>2026-04-19T18:10:59Z</time></trkpt><trkpt lat="43.7210788125398" lon="11.026675326753416"><ele>67.66666666666667</ele><time>2026-04-19T18:11:00Z</time></trkpt><trkpt lat="43.721192119668366" lon="11.026451495285928"><ele>63.333333333333336</ele><time>2026-04-19T18:11:01Z</time></trkpt><trkpt lat="43.72130542430219" lon="11.026227640994316"><ele>59.0</ele><time>2026-04-19T18:11:02Z</time></trkpt><trkpt lat="43.72141726149355" lon="11.026005444251208"><ele>61.333333333333336</ele><time>2026-04-19T18:11:03Z</time></trkpt><trkpt lat="43.721527391162184" lon="11.025788228192463"><ele>63.66666666666667</ele><time>2026-04-19T18:11:04Z</time></trkpt><trkpt lat="43.7216376318838" lon="11.025572191499753"><ele>66.0</ele><time>2026-04-19T18:11:05Z</time></trkpt><trkpt lat="43.721749582971945" lon="11.025358813819635"><ele>66.0</ele><time>2026-04-19T18:11:06Z</time></trkpt><trkpt lat="43.721865315095734" lon="11.025148805364886"><ele>66.0</ele><time>2026-04-19T18:11:07Z</time></trkpt><trkpt lat="43.721984767963455" lon="11.024939726022753"><ele>66.0</ele><time>2026-04-19T18:11:08Z</time></trkpt><trkpt lat="43.722110141444944" lon="11.024723042505618"><ele>66.33333333333333</ele><time>2026-04-19T18:11:09Z</time></trkpt><trkpt lat="43.72223674246354" lon="11.024508471330392"><ele>66.66666666666666</ele><time>2026-04-19T18:11:10Z</time></trkpt><trkpt lat="43.72236881848451" lon="11.02429816319077"><ele>67.0</ele><time>2026-04-19T18:11:11Z</time></trkpt><trkpt lat="43.7225057817477" lon="11.024091980512088"><ele>67.0</ele><time>2026-04-19T18:11:12Z</time></trkpt><trkpt lat="43.72264086493541" lon="11.023885950732522"><ele>67.0</ele><time>2026-04-19T18:11:13Z</time></trkpt><trkpt lat="43.72277584804243" lon="11.023683092146888"><ele>67.0</ele><time>2026-04-19T18:11:14Z</time></trkpt><trkpt lat="43.72291351187174" lon="11.023485579295091"><ele>68.33333333333333</ele><time>2026-04-19T18:11:15Z</time></trkpt><trkpt lat="43.72305052945334" lon="11.02329732754684"><ele>69.66666666666667</ele><time>2026-04-19T18:11:16Z</time></trkpt><trkpt lat="43.72318633340847" lon="11.023114286373787"><ele>71.0</ele><time>2026-04-19T18:11:17Z</time></trkpt><trkpt lat="43.72332018060233" lon="11.0229348132846"><ele>71.0</ele><time>2026-04-19T18:11:18Z</time></trkpt><trkpt lat="43.72344925172906" lon="11.02276401952162"><ele>71.0</ele><time>2026-04-19T18:11:19Z</time></trkpt><trkpt lat="43.72357680897194" lon="11.022596789886093"><ele>71.0</ele><time>2026-04-19T18:11:20Z</time></trkpt><trkpt lat="43.72370112076141" lon="11.022434439830674"><ele>69.66666666666667</ele><time>2026-04-19T18:11:21Z</time></trkpt><trkpt lat="43.723820782581015" lon="11.02227369189121"><ele>68.33333333333333</ele><time>2026-04-19T18:11:22Z</time></trkpt><trkpt lat="43.723939839827985" lon="11.022108325597642"><ele>67.0</ele><time>2026-04-19T18:11:23Z</time></trkpt><trkpt lat="43.72405862790893" lon="11.021936618499467"><ele>67.0</ele><time>2026-04-19T18:11:24Z</time></trkpt><trkpt lat="43.724173969393696" lon="11.021757698683166"><ele>67.0</ele><time>2026-04-19T18:11:25Z</time></trkpt><trkpt lat="43.724284337028756" lon="11.021572481127103"><ele>67.0</ele><time>2026-04-19T18:11:26Z</time></trkpt><trkpt lat="43.724388488855666" lon="11.021384944163291"><ele>68.0</ele><time>2026-04-19T18:11:27Z</time></trkpt><trkpt lat="43.724486206977794" lon="11.021195500832842"><ele>69.0</ele><time>2026-04-19T18:11:28Z</time></trkpt><trkpt lat="43.724578106136065" lon="11.021000211849167"><ele>70.0</ele><time>2026-04-19T18:11:29Z</time></trkpt><trkpt lat="43.72466763480636" lon="11.020797066035497"><ele>70.0</ele><time>2026-04-19T18:11:30Z</time></trkpt><trkpt lat="43.724752602509064" lon="11.02059060940682"><ele>70.0</ele><time>2026-04-19T18:11:31Z</time></trkpt><trkpt lat="43.72483144433282" lon="11.020377884506257"><ele>70.0</ele><time>2026-04-19T18:11:32Z</time></trkpt><trkpt lat="43.724900891058866" lon="11.020169838905016"><ele>72.66666666666666</ele><time>2026-04-19T18:11:33Z</time></trkpt><trkpt lat="43.724965101382026" lon="11.019967430324172"><ele>75.33333333333333</ele><time>2026-04-19T18:11:34Z</time></trkpt><trkpt lat="43.72501804560722" lon="11.019774212764508"><ele>78.0</ele><time>2026-04-19T18:11:35Z</time></trkpt><trkpt lat="43.72506605114559" lon="11.019577705097996"><ele>78.0</ele><time>2026-04-19T18:11:36Z</time></trkpt><trkpt lat="43.725113331411116" lon="11.019367940891648"><ele>78.0</ele><time>2026-04-19T18:11:37Z</time></trkpt><trkpt lat="43.725158076705284" lon="11.019149024515894"><ele>78.0</ele><time>2026-04-19T18:11:38Z</time></trkpt><trkpt lat="43.72519287943256" lon="11.018940114811421"><ele>80.0</ele><time>2026-04-19T18:11:39Z</time></trkpt><trkpt lat="43.72522101772419" lon="11.018735359806337"><ele>82.0</ele><time>2026-04-19T18:11:40Z</time></trkpt><trkpt lat="43.72524225639242" lon="11.018532835240444"><ele>84.0</ele><time>2026-04-19T18:11:41Z</time></trkpt><trkpt lat="43.72525569583558" lon="11.018327915995965"><ele>86.0</ele><time>2026-04-19T18:11:42Z</time></trkpt><trkpt lat="43.72526703699124" lon="11.01811879259275"><ele>77.66666666666667</ele><time>2026-04-19T18:11:43Z</time></trkpt><trkpt lat="43.725275076807364" lon="11.01791111039884"><ele>69.33333333333333</ele><time>2026-04-19T18:11:44Z</time></trkpt><trkpt lat="43.72527856067763" lon="11.017694406164797"><ele>61.0</ele><time>2026-04-19T18:11:45Z</time></trkpt><trkpt lat="43.72527522202913" lon="11.01746747604214"><ele>60.0</ele><time>2026-04-19T18:11:46Z</time></trkpt><trkpt lat="43.725266589453035" lon="11.01724223966862"><ele>59.0</ele><time>2026-04-19T18:11:47Z</time></trkpt><trkpt lat="43.72525608208628" lon="11.017024275798438"><ele>58.0</ele><time>2026-04-19T18:11:48Z</time></trkpt><trkpt lat="43.72524235446743" lon="11.016803478990774"><ele>60.0</ele><time>2026-04-19T18:11:49Z</time></trkpt><trkpt lat="43.72521917729827" lon="11.016583613385762"><ele>62.0</ele><time>2026-04-19T18:11:50Z</time></trkpt><trkpt lat="43.725185801327015" lon="11.016363351776784"><ele>64.0</ele><time>2026-04-19T18:11:51Z</time></trkpt><trkpt lat="43.72514387747257" lon="11.016137437615548"><ele>64.0</ele><time>2026-04-19T18:11:52Z</time></trkpt><trkpt lat="43.72509585560881" lon="11.015907266466469"><ele>64.0</ele><time>2026-04-19T18:11:53Z</time></trkpt><trkpt lat="43.72504274539699" lon="11.01567735759921"><ele>64.0</ele><time>2026-04-19T18:11:54Z</time></trkpt><trkpt lat="43.72498596310526" lon="11.015452152113786"><ele>62.33333333333333</ele><time>2026-04-19T18:11:55Z</time></trkpt><trkpt lat="43.72492318975331" lon="11.015236156200109"><ele>60.66666666666667</ele><time>2026-04-19T18:11:56Z</time></trkpt><trkpt lat="43.72485317551688" lon="11.015027445670604"><ele>59.0</ele><time>2026-04-19T18:11:57Z</time></trkpt><trkpt lat="43.72477416670217" lon="11.014818949720409"><ele>57.66666666666667</ele><time>2026-04-19T18:11:58Z</time></trkpt><trkpt lat="43.72468968962298" lon="11.014602167819904"><ele>56.33333333333333</ele><time>2026-04-19T18:11:59Z</time></trkpt><trkpt lat="43.724599043843085" lon="11.014386139479136"><ele>55.0</ele><time>2026-04-19T18:12:00Z</time></trkpt><trkpt lat="43.724499587389786" lon="11.014165211118682"><ele>55.33333333333333</ele><time>2026-04-19T18:12:01Z</time></trkpt><trkpt lat="43.72439531131427" lon="11.01393770875515"><ele>55.66666666666667</ele><time>2026-04-19T18:12:02Z</time></trkpt><trkpt lat="43.7242901229164" lon="11.013716549603542"><ele>56.0</ele><time>2026-04-19T18:12:03Z</time></trkpt><trkpt lat="43.724184949535044" lon="11.013499914450035"><ele>54.66666666666667</ele><time>2026-04-19T18:12:04Z</time></trkpt><trkpt lat="43.72408009361016" lon="11.013283716522123"><ele>53.33333333333333</ele><time>2026-04-19T18:12:05Z</time></trkpt><trkpt lat="43.72397518153966" lon="11.013067782883597"><ele>52.0</ele><time>2026-04-19T18:12:06Z</time></trkpt><trkpt lat="43.72386795333178" lon="11.012847608342897"><ele>52.0</ele><time>2026-04-19T18:12:07Z</time></trkpt><trkpt lat="43.72375916336769" lon="11.012629058128262"><ele>52.0</ele><time>2026-04-19T18:12:08Z</time></trkpt><trkpt lat="43.72365198465694" lon="11.012410521189532"><ele>52.0</ele><time>2026-04-19T18:12:09Z</time></trkpt><trkpt lat="43.72354760424746" lon="11.012194259412064"><ele>52.33333333333333</ele><time>2026-04-19T18:12:10Z</time></trkpt><trkpt lat="43.72344501140426" lon="11.011982136892515"><ele>52.66666666666667</ele><time>2026-04-19T18:12:11Z</time></trkpt><trkpt lat="43.72333907780628" lon="11.011769438673083"><ele>53.0</ele><time>2026-04-19T18:12:12Z</time></trkpt><trkpt lat="43.723233694203344" lon="11.011552969953568"><ele>49.66666666666667</ele><time>2026-04-19T18:12:13Z</time></trkpt><trkpt lat="43.72313278580568" lon="11.01134378781635"><ele>46.333333333333336</ele><time>2026-04-19T18:12:14Z</time></trkpt><trkpt lat="43.72303447896048" lon="11.011137199741565"><ele>43.0</ele><time>2026-04-19T18:12:15Z</time></trkpt><trkpt lat="43.72293864685604" lon="11.01093317070124"><ele>40.333333333333336</ele><time>2026-04-19T18:12:16Z</time></trkpt><trkpt lat="43.72284610476841" lon="11.010729114057073"><ele>37.666666666666664</ele><time>2026-04-19T18:12:17Z</time></trkpt><trkpt lat="43.72275617382816" lon="11.010519003278478"><ele>35.0</ele><time>2026-04-19T18:12:18Z</time></trkpt><trkpt lat="43.72267478900217" lon="11.010314980017146"><ele>35.0</ele><time>2026-04-19T18:12:19Z</time></trkpt><trkpt lat="43.72259888815842" lon="11.010113403413055"><ele>35.0</ele><time>2026-04-19T18:12:20Z</time></trkpt><trkpt lat="43.722531156973425" lon="11.009917467211254"><ele>35.0</ele><time>2026-04-19T18:12:21Z</time></trkpt><trkpt lat="43.72247219443543" lon="11.009727787591146"><ele>33.666666666666664</ele><time>2026-04-19T18:12:22Z</time></trkpt><trkpt lat="43.72241843625426" lon="11.009536847457428"><ele>32.333333333333336</ele><time>2026-04-19T18:12:23Z</time></trkpt><trkpt lat="43.722363743944" lon="11.009335664831438"><ele>31.0</ele><time>2026-04-19T18:12:24Z</time></trkpt><trkpt lat="43.722316537957184" lon="11.009128673822449"><ele>30.333333333333336</ele><time>2026-04-19T18:12:25Z</time></trkpt><trkpt lat="43.72227117220901" lon="11.008923774095619"><ele>29.666666666666664</ele><time>2026-04-19T18:12:26Z</time></trkpt><trkpt lat="43.72223243567155" lon="11.00871622242317"><ele>29.0</ele><time>2026-04-19T18:12:27Z</time></trkpt><trkpt lat="43.72219526735906" lon="11.0084987128299"><ele>28.666666666666664</ele><time>2026-04-19T18:12:28Z</time></trkpt><trkpt lat="43.72216226294199" lon="11.008272575654807"><ele>28.333333333333336</ele><time>2026-04-19T18:12:29Z</time></trkpt><trkpt lat="43.72213402420433" lon="11.008043454152338"><ele>28.0</ele><time>2026-04-19T18:12:30Z</time></trkpt><trkpt lat="43.72210600253071" lon="11.007804398070368"><ele>28.0</ele><time>2026-04-19T18:12:31Z</time></trkpt><trkpt lat="43.72207739305469" lon="11.007559400195435"><ele>28.0</ele><time>2026-04-19T18:12:32Z</time></trkpt><trkpt lat="43.72204886773522" lon="11.007308923229761"><ele>28.0</ele><time>2026-04-19T18:12:33Z</time></trkpt><trkpt lat="43.72201845069425" lon="11.007048253335888"><ele>28.0</ele><time>2026-04-19T18:12:34Z</time></trkpt><trkpt lat="43.721988606783576" lon="11.006781610549137"><ele>28.0</ele><time>2026-04-19T18:12:35Z</time></trkpt><trkpt lat="43.72195805223518" lon="11.006514987439054"><ele>28.0</ele><time>2026-04-19T18:12:36Z</time></trkpt><trkpt lat="43.721929915431446" lon="11.006268540386104"><ele>28.0</ele><time>2026-04-19T18:12:37Z</time></trkpt><trkpt lat="43.72190276476381" lon="11.006019520616617"><ele>28.0</ele><time>2026-04-19T18:12:38Z</time></trkpt><trkpt lat="43.721873044598524" lon="11.005753176630282"><ele>28.0</ele><time>2026-04-19T18:12:39Z</time></trkpt><trkpt lat="43.721840054618816" lon="11.00546764420097"><ele>28.0</ele><time>2026-04-19T18:12:40Z</time></trkpt><trkpt lat="43.72180785687667" lon="11.005191449748754"><ele>28.0</ele><time>2026-04-19T18:12:41Z</time></trkpt><trkpt lat="43.721778910989585" lon="11.0049252891519"><ele>28.0</ele><time>2026-04-19T18:12:42Z</time></trkpt><trkpt lat="43.721751091464824" lon="11.004666807900454"><ele>28.333333333333336</ele><time>2026-04-19T18:12:43Z</time></trkpt><trkpt lat="43.72172249598204" lon="11.004417363590902"><ele>28.666666666666664</ele><time>2026-04-19T18:12:44Z</time></trkpt><trkpt lat="43.72169459046597" lon="11.004164682620718"><ele>29.0</ele><time>2026-04-19T18:12:45Z</time></trkpt><trkpt lat="43.72166699376673" lon="11.003901462564224"><ele>29.666666666666664</ele><time>2026-04-19T18:12:46Z</time></trkpt><trkpt lat="43.72163789349097" lon="11.003624451119652"><ele>30.333333333333336</ele><time>2026-04-19T18:12:47Z</time></trkpt><trkpt lat="43.7216066588601" lon="11.003341746310815"><ele>31.0</ele><time>2026-04-19T18:12:48Z</time></trkpt><trkpt lat="43.72157612239688" lon="11.003065540947803"><ele>31.0</ele><time>2026-04-19T18:12:49Z</time></trkpt><trkpt lat="43.72154701184678" lon="11.002797780001172"><ele>31.0</ele><time>2026-04-19T18:12:50Z</time></trkpt><trkpt lat="43.7215185381612" lon="11.002534245029327"><ele>31.0</ele><time>2026-04-19T18:12:51Z</time></trkpt><trkpt lat="43.72149176719954" lon="11.002278379836081"><ele>31.0</ele><time>2026-04-19T18:12:52Z</time></trkpt><trkpt lat="43.72146504661959" lon="11.002027463347236"><ele>31.0</ele><time>2026-04-19T18:12:53Z</time></trkpt><trkpt lat="43.721437291749226" lon="11.0017838818393"><ele>31.0</ele><time>2026-04-19T18:12:54Z</time></trkpt><trkpt lat="43.721408652770066" lon="11.001538231885911"><ele>30.666666666666668</ele><time>2026-04-19T18:12:55Z</time></trkpt><trkpt lat="43.7213816605223" lon="11.001290398879695"><ele>30.333333333333336</ele><time>2026-04-19T18:12:56Z</time></trkpt><trkpt lat="43.72135373040828" lon="11.00103607763919"><ele>30.0</ele><time>2026-04-19T18:12:57Z</time></trkpt><trkpt lat="43.72132512774951" lon="11.000774447827483"><ele>29.666666666666664</ele><time>2026-04-19T18:12:58Z</time></trkpt><trkpt lat="43.72129467078898" lon="11.000506436392293"><ele>29.333333333333332</ele><time>2026-04-19T18:12:59Z</time></trkpt><trkpt lat="43.721264293154654" lon="11.000234177636289"><ele>29.0</ele><time>2026-04-19T18:13:00Z</time></trkpt><trkpt lat="43.72123367326308" lon="10.99995168412693"><ele>29.0</ele><time>2026-04-19T18:13:01Z</time></trkpt><trkpt lat="43.721201746288095" lon="10.999665021868354"><ele>29.0</ele><time>2026-04-19T18:13:02Z</time></trkpt><trkpt lat="43.72117002967119" lon="10.999376232182026"><ele>29.0</ele><time>2026-04-19T18:13:03Z</time></trkpt><trkpt lat="43.72113926752145" lon="10.999092367952981"><ele>29.0</ele><time>2026-04-19T18:13:04Z</time></trkpt><trkpt lat="43.72110835076863" lon="10.998810625569321"><ele>29.0</ele><time>2026-04-19T18:13:05Z</time></trkpt><trkpt lat="43.72107769861945" lon="10.998535908314928"><ele>29.0</ele><time>2026-04-19T18:13:06Z</time></trkpt><trkpt lat="43.72104745712396" lon="10.998266298722095"><ele>29.333333333333332</ele><time>2026-04-19T18:13:07Z</time></trkpt><trkpt lat="43.72101813029037" lon="10.998001211586429"><ele>29.666666666666664</ele><time>2026-04-19T18:13:08Z</time></trkpt><trkpt lat="43.72098994535148" lon="10.997726140890114"><ele>30.0</ele><time>2026-04-19T18:13:09Z</time></trkpt><trkpt lat="43.72095687134193" lon="10.997434379238346"><ele>29.666666666666664</ele><time>2026-04-19T18:13:10Z</time></trkpt><trkpt lat="43.720923930158655" lon="10.997147569810505"><ele>29.333333333333332</ele><time>2026-04-19T18:13:11Z</time></trkpt><trkpt lat="43.72088980694401" lon="10.996860056574175"><ele>29.0</ele><time>2026-04-19T18:13:12Z</time></trkpt><trkpt lat="43.72084770145656" lon="10.996561175415463"><ele>29.0</ele><time>2026-04-19T18:13:13Z</time></trkpt><trkpt lat="43.720806824510234" lon="10.996254033662865"><ele>29.0</ele><time>2026-04-19T18:13:14Z</time></trkpt><trkpt lat="43.72076797252104" lon="10.9959415344952"><ele>29.0</ele><time>2026-04-19T18:13:15Z</time></trkpt><trkpt lat="43.72072851130901" lon="10.995609847774446"><ele>29.0</ele><time>2026-04-19T18:13:16Z</time></trkpt><trkpt lat="43.72068890891555" lon="10.995264116407892"><ele>28.5</ele><time>2026-04-19T18:13:17Z</time></trkpt><trkpt lat="43.7206503937708" lon="10.994917360001631"><ele>28.0</ele><time>2026-04-19T18:13:18Z</time></trkpt><trkpt lat="43.72061556788829" lon="10.99460196954527"><ele>28.0</ele><time>2026-04-19T18:13:19Z</time></trkpt><trkpt lat="43.7205831238441" lon="10.994307570984457"><ele>28.0</ele><time>2026-04-19T18:13:20Z</time></trkpt><trkpt lat="43.720553914645244" lon="10.99402828790018"><ele>28.0</ele><time>2026-04-19T18:13:21Z</time></trkpt><trkpt lat="43.720525187831946" lon="10.993750223523042"><ele>28.0</ele><time>2026-04-19T18:13:22Z</time></trkpt><trkpt lat="43.720494363560356" lon="10.993477935728114"><ele>28.0</ele><time>2026-04-19T18:13:23Z</time></trkpt><trkpt lat="43.720463046234336" lon="10.993205830794304"><ele>28.0</ele><time>2026-04-19T18:13:24Z</time></trkpt><trkpt lat="43.72043236105411" lon="10.99293158904419"><ele>28.666666666666668</ele><time>2026-04-19T18:13:25Z</time></trkpt><trkpt lat="43.72040275423843" lon="10.992653540982628"><ele>29.333333333333336</ele><time>2026-04-19T18:13:26Z</time></trkpt><trkpt lat="43.720376635519536" lon="10.99238510656283"><ele>30.0</ele><time>2026-04-19T18:13:27Z</time></trkpt><trkpt lat="43.72034991991476" lon="10.992119736084103"><ele>30.0</ele><time>2026-04-19T18:13:28Z</time></trkpt><trkpt lat="43.72032264382019" lon="10.991836414272175"><ele>30.0</ele><time>2026-04-19T18:13:29Z</time></trkpt><trkpt lat="43.7202968378342" lon="10.991549666577125"><ele>30.0</ele><time>2026-04-19T18:13:30Z</time></trkpt><trkpt lat="43.720270941278216" lon="10.991270202133656"><ele>30.0</ele><time>2026-04-19T18:13:31Z</time></trkpt><trkpt lat="43.72024163734023" lon="10.990999897496168"><ele>30.0</ele><time>2026-04-19T18:13:32Z</time></trkpt><trkpt lat="43.72021036968305" lon="10.99073606037719"><ele>30.0</ele><time>2026-04-19T18:13:33Z</time></trkpt><trkpt lat="43.720178383085326" lon="10.990481964812512"><ele>29.333333333333336</ele><time>2026-04-19T18:13:34Z</time></trkpt><trkpt lat="43.72014514426138" lon="10.990233309021432"><ele>28.666666666666668</ele><time>2026-04-19T18:13:35Z</time></trkpt><trkpt lat="43.72010912310234" lon="10.989982854760783"><ele>28.0</ele><time>2026-04-19T18:13:36Z</time></trkpt><trkpt lat="43.72007167269379" lon="10.989724126748817"><ele>27.666666666666668</ele><time>2026-04-19T18:13:37Z</time></trkpt><trkpt lat="43.72003010604423" lon="10.989460008538975"><ele>27.333333333333336</ele><time>2026-04-19T18:13:38Z</time></trkpt><trkpt lat="43.71998767497921" lon="10.98918985809464"><ele>27.0</ele><time>2026-04-19T18:13:39Z</time></trkpt><trkpt lat="43.719941854899965" lon="10.988913661258309"><ele>27.0</ele><time>2026-04-19T18:13:40Z</time></trkpt><trkpt lat="43.71989005287545" lon="10.988629853851949"><ele>27.0</ele><time>2026-04-19T18:13:41Z</time></trkpt><trkpt lat="43.71983309838103" lon="10.988336683390276"><ele>27.0</ele><time>2026-04-19T18:13:42Z</time></trkpt><trkpt lat="43.719773557177135" lon="10.988034857766591"><ele>27.333333333333336</ele><time>2026-04-19T18:13:43Z</time></trkpt><trkpt lat="43.719713027311926" lon="10.987732563430372"><ele>27.666666666666668</ele><time>2026-04-19T18:13:44Z</time></trkpt><trkpt lat="43.71965409757019" lon="10.987440549536656"><ele>28.0</ele><time>2026-04-19T18:13:45Z</time></trkpt><trkpt lat="43.71959671539874" lon="10.98715406695204"><ele>28.0</ele><time>2026-04-19T18:13:46Z</time></trkpt><trkpt lat="43.71953855362228" lon="10.98686913714173"><ele>28.0</ele><time>2026-04-19T18:13:47Z</time></trkpt><trkpt lat="43.719478073930055" lon="10.9865734377535"><ele>28.0</ele><time>2026-04-19T18:13:48Z</time></trkpt><trkpt lat="43.71941866093412" lon="10.98627751592809"><ele>27.666666666666668</ele><time>2026-04-19T18:13:49Z</time></trkpt><trkpt lat="43.71936068554289" lon="10.985982970032243"><ele>27.333333333333336</ele><time>2026-04-19T18:13:50Z</time></trkpt><trkpt lat="43.71930296270291" lon="10.985689308527693"><ele>27.0</ele><time>2026-04-19T18:13:51Z</time></trkpt><trkpt lat="43.719245643209945" lon="10.985401451492072"><ele>27.0</ele><time>2026-04-19T18:13:52Z</time></trkpt><trkpt lat="43.71918891506583" lon="10.985117370662676"><ele>27.0</ele><time>2026-04-19T18:13:53Z</time></trkpt><trkpt lat="43.71912962537318" lon="10.984832040643361"><ele>27.0</ele><time>2026-04-19T18:13:54Z</time></trkpt><trkpt lat="43.719071862931585" lon="10.984546405124078"><ele>27.0</ele><time>2026-04-19T18:13:55Z</time></trkpt><trkpt lat="43.71901487231234" lon="10.984257767908982"><ele>27.0</ele><time>2026-04-19T18:13:56Z</time></trkpt><trkpt lat="43.71895650490131" lon="10.983967040570842"><ele>27.0</ele><time>2026-04-19T18:13:57Z</time></trkpt><trkpt lat="43.71889920358" lon="10.983674248555559"><ele>27.0</ele><time>2026-04-19T18:13:58Z</time></trkpt><trkpt lat="43.718840913353944" lon="10.983386626179092"><ele>27.0</ele><time>2026-04-19T18:13:59Z</time></trkpt><trkpt lat="43.71878183348087" lon="10.98308924500243"><ele>27.0</ele><time>2026-04-19T18:14:00Z</time></trkpt><trkpt lat="43.7187216294514" lon="10.98278599679687"><ele>26.5</ele><time>2026-04-19T18:14:01Z</time></trkpt><trkpt lat="43.718659818654324" lon="10.982478134817626"><ele>26.0</ele><time>2026-04-19T18:14:02Z</time></trkpt><trkpt lat="43.71859874937247" lon="10.982172025928874"><ele>26.0</ele><time>2026-04-19T18:14:03Z</time></trkpt><trkpt lat="43.71853850844595" lon="10.981866324450806"><ele>26.0</ele><time>2026-04-19T18:14:04Z</time></trkpt><trkpt lat="43.71847772424774" lon="10.981560001915863"><ele>26.0</ele><time>2026-04-19T18:14:05Z</time></trkpt><trkpt lat="43.71841835054248" lon="10.981263933066353"><ele>26.0</ele><time>2026-04-19T18:14:06Z</time></trkpt><trkpt lat="43.7183594309567" lon="10.980974519965436"><ele>26.0</ele><time>2026-04-19T18:14:07Z</time></trkpt><trkpt lat="43.71830043151881" lon="10.980674292659863"><ele>26.0</ele><time>2026-04-19T18:14:08Z</time></trkpt><trkpt lat="43.71824289618009" lon="10.980367497994274"><ele>26.0</ele><time>2026-04-19T18:14:09Z</time></trkpt><trkpt lat="43.71818469005764" lon="10.980058569443745"><ele>25.5</ele><time>2026-04-19T18:14:10Z</time></trkpt><trkpt lat="43.71812315831439" lon="10.979745141275172"><ele>25.0</ele><time>2026-04-19T18:14:11Z</time></trkpt><trkpt lat="43.71806016026252" lon="10.979430160086771"><ele>25.0</ele><time>2026-04-19T18:14:12Z</time></trkpt><trkpt lat="43.718001732246435" lon="10.979127248092775"><ele>25.0</ele><time>2026-04-19T18:14:13Z</time></trkpt><trkpt lat="43.717942460354365" lon="10.978834009198335"><ele>25.0</ele><time>2026-04-19T18:14:14Z</time></trkpt><trkpt lat="43.71788566503075" lon="10.978544267404027"><ele>25.0</ele><time>2026-04-19T18:14:15Z</time></trkpt><trkpt lat="43.71782672409174" lon="10.978259661355661"><ele>25.0</ele><time>2026-04-19T18:14:16Z</time></trkpt><trkpt lat="43.717767958262826" lon="10.977990189818598"><ele>25.0</ele><time>2026-04-19T18:14:17Z</time></trkpt><trkpt lat="43.71770957526384" lon="10.977732261829354"><ele>25.0</ele><time>2026-04-19T18:14:18Z</time></trkpt><trkpt lat="43.71764711245695" lon="10.977467506980572"><ele>25.0</ele><time>2026-04-19T18:14:19Z</time></trkpt><trkpt lat="43.717575660543886" lon="10.977195412409774"><ele>25.0</ele><time>2026-04-19T18:14:20Z</time></trkpt><trkpt lat="43.7174926101575" lon="10.976916323569219"><ele>25.0</ele><time>2026-04-19T18:14:21Z</time></trkpt><trkpt lat="43.71739858515548" lon="10.976633055992448"><ele>25.0</ele><time>2026-04-19T18:14:22Z</time></trkpt><trkpt lat="43.71729928200484" lon="10.976359271515316"><ele>25.0</ele><time>2026-04-19T18:14:23Z</time></trkpt><trkpt lat="43.717193841049394" lon="10.97609086156099"><ele>24.5</ele><time>2026-04-19T18:14:24Z</time></trkpt><trkpt lat="43.7170798898971" lon="10.975820782118872"><ele>24.0</ele><time>2026-04-19T18:14:25Z</time></trkpt><trkpt lat="43.71695337268769" lon="10.975546888747553"><ele>24.666666666666664</ele><time>2026-04-19T18:14:26Z</time></trkpt><trkpt lat="43.71682284383747" lon="10.975290023614361"><ele>25.333333333333332</ele><time>2026-04-19T18:14:27Z</time></trkpt><trkpt lat="43.71669056050095" lon="10.97504651909516"><ele>26.0</ele><time>2026-04-19T18:14:28Z</time></trkpt><trkpt lat="43.71655261598169" lon="10.974811335786422"><ele>26.0</ele><time>2026-04-19T18:14:29Z</time></trkpt><trkpt lat="43.71640977599208" lon="10.97458154237241"><ele>26.0</ele><time>2026-04-19T18:14:30Z</time></trkpt><trkpt lat="43.71626594119713" lon="10.974361485543334"><ele>26.0</ele><time>2026-04-19T18:14:31Z</time></trkpt><trkpt lat="43.71611950171798" lon="10.974145128518153"><ele>26.333333333333332</ele><time>2026-04-19T18:14:32Z</time></trkpt><trkpt lat="43.715963157010776" lon="10.97392763377425"><ele>26.666666666666664</ele><time>2026-04-19T18:14:33Z</time></trkpt><trkpt lat="43.71581497146904" lon="10.973724224609862"><ele>27.0</ele><time>2026-04-19T18:14:34Z</time></trkpt><trkpt lat="43.7156731482903" lon="10.973527227325128"><ele>27.0</ele><time>2026-04-19T18:14:35Z</time></trkpt><trkpt lat="43.715533774215615" lon="10.973333412797624"><ele>27.0</ele><time>2026-04-19T18:14:36Z</time></trkpt><trkpt lat="43.71539608163016" lon="10.973141040648809"><ele>27.0</ele><time>2026-04-19T18:14:37Z</time></trkpt><trkpt lat="43.715257811826575" lon="10.972945199878174"><ele>27.0</ele><time>2026-04-19T18:14:38Z</time></trkpt><trkpt lat="43.71511722979525" lon="10.972746862489085"><ele>27.0</ele><time>2026-04-19T18:14:39Z</time></trkpt><trkpt lat="43.71497660583089" lon="10.972550487829709"><ele>27.0</ele><time>2026-04-19T18:14:40Z</time></trkpt><trkpt lat="43.71483290796644" lon="10.972351221117565"><ele>27.0</ele><time>2026-04-19T18:14:41Z</time></trkpt><trkpt lat="43.7146893523632" lon="10.972151873375823"><ele>27.0</ele><time>2026-04-19T18:14:42Z</time></trkpt><trkpt lat="43.7145463327474" lon="10.971950819167072"><ele>27.0</ele><time>2026-04-19T18:14:43Z</time></trkpt><trkpt lat="43.71440455072386" lon="10.971750817340778"><ele>27.666666666666664</ele><time>2026-04-19T18:14:44Z</time></trkpt><trkpt lat="43.71426669257576" lon="10.971559136214697"><ele>28.333333333333332</ele><time>2026-04-19T18:14:45Z</time></trkpt><trkpt lat="43.71412864881316" lon="10.971368008720999"><ele>29.0</ele><time>2026-04-19T18:14:46Z</time></trkpt><trkpt lat="43.71398924601234" lon="10.971174777674042"><ele>29.0</ele><time>2026-04-19T18:14:47Z</time></trkpt><trkpt lat="43.713850720561574" lon="10.97098176014763"><ele>29.0</ele><time>2026-04-19T18:14:48Z</time></trkpt><trkpt lat="43.71371361002445" lon="10.97079006907447"><ele>29.0</ele><time>2026-04-19T18:14:49Z</time></trkpt><trkpt lat="43.713574893292325" lon="10.970594772944391"><ele>29.0</ele><time>2026-04-19T18:14:50Z</time></trkpt><trkpt lat="43.713429931825495" lon="10.970392232526443"><ele>29.0</ele><time>2026-04-19T18:14:51Z</time></trkpt><trkpt lat="43.71328730088518" lon="10.970192288762625"><ele>29.0</ele><time>2026-04-19T18:14:52Z</time></trkpt><trkpt lat="43.713138060950385" lon="10.969979792948312"><ele>29.0</ele><time>2026-04-19T18:14:53Z</time></trkpt><trkpt lat="43.71299116069308" lon="10.969775133371945"><ele>29.0</ele><time>2026-04-19T18:14:54Z</time></trkpt><trkpt lat="43.71285167785462" lon="10.969580880873139"><ele>29.0</ele><time>2026-04-19T18:14:55Z</time></trkpt><trkpt lat="43.71271450763415" lon="10.969388965857576"><ele>29.333333333333332</ele><time>2026-04-19T18:14:56Z</time></trkpt><trkpt lat="43.7125782912156" lon="10.969197440650595"><ele>29.666666666666664</ele><time>2026-04-19T18:14:57Z</time></trkpt><trkpt lat="43.712434915376825" lon="10.96899701168348"><ele>30.0</ele><time>2026-04-19T18:14:58Z</time></trkpt><trkpt lat="43.712286127887246" lon="10.968790359421208"><ele>30.0</ele><time>2026-04-19T18:14:59Z</time></trkpt><trkpt lat="43.71213750694704" lon="10.968582579431194"><ele>30.0</ele><time>2026-04-19T18:15:00Z</time></trkpt><trkpt lat="43.7119846275164" lon="10.968371186975958"><ele>30.0</ele><time>2026-04-19T18:15:01Z</time></trkpt><trkpt lat="43.711837107569174" lon="10.9681669920799"><ele>29.333333333333336</ele><time>2026-04-19T18:15:02Z</time></trkpt><trkpt lat="43.71169084119894" lon="10.967960967313894"><ele>28.666666666666668</ele><time>2026-04-19T18:15:03Z</time></trkpt><trkpt lat="43.71154290302327" lon="10.96775252402079"><ele>28.0</ele><time>2026-04-19T18:15:04Z</time></trkpt><trkpt lat="43.71139914282765" lon="10.96755430116372"><ele>27.666666666666668</ele><time>2026-04-19T18:15:05Z</time></trkpt><trkpt lat="43.71125509403039" lon="10.967355102296642"><ele>27.333333333333336</ele><time>2026-04-19T18:15:06Z</time></trkpt><trkpt lat="43.71110828016968" lon="10.967153242653302"><ele>27.0</ele><time>2026-04-19T18:15:07Z</time></trkpt><trkpt lat="43.71096197978782" lon="10.966951846486234"><ele>27.666666666666664</ele><time>2026-04-19T18:15:08Z</time></trkpt><trkpt lat="43.710828519614175" lon="10.966765861381969"><ele>28.333333333333332</ele><time>2026-04-19T18:15:09Z</time></trkpt><trkpt lat="43.71070072733465" lon="10.966583340839735"><ele>29.0</ele><time>2026-04-19T18:15:10Z</time></trkpt><trkpt lat="43.71057236841119" lon="10.966402415772164"><ele>29.0</ele><time>2026-04-19T18:15:11Z</time></trkpt><trkpt lat="43.710442512163475" lon="10.966220720582447"><ele>29.0</ele><time>2026-04-19T18:15:12Z</time></trkpt><trkpt lat="43.71031117909923" lon="10.966036258083678"><ele>29.0</ele><time>2026-04-19T18:15:13Z</time></trkpt><trkpt lat="43.71018056230616" lon="10.965848031387958"><ele>28.666666666666664</ele><time>2026-04-19T18:15:14Z</time></trkpt><trkpt lat="43.71005374780289" lon="10.965645915696802"><ele>28.333333333333336</ele><time>2026-04-19T18:15:15Z</time></trkpt><trkpt lat="43.70992855223383" lon="10.965434700391503"><ele>28.0</ele><time>2026-04-19T18:15:16Z</time></trkpt><trkpt lat="43.7098096431757" lon="10.965213687430243"><ele>27.666666666666668</ele><time>2026-04-19T18:15:17Z</time></trkpt><trkpt lat="43.70969876616469" lon="10.964983547491576"><ele>27.333333333333336</ele><time>2026-04-19T18:15:18Z</time></trkpt><trkpt lat="43.70959614994068" lon="10.964742599688286"><ele>27.0</ele><time>2026-04-19T18:15:19Z</time></trkpt><trkpt lat="43.70950136163325" lon="10.964490977820626"><ele>27.0</ele><time>2026-04-19T18:15:20Z</time></trkpt><trkpt lat="43.70941656801888" lon="10.964238386986388"><ele>27.0</ele><time>2026-04-19T18:15:21Z</time></trkpt><trkpt lat="43.709337019757406" lon="10.963983822895495"><ele>27.0</ele><time>2026-04-19T18:15:22Z</time></trkpt><trkpt lat="43.70926562947212" lon="10.963722287979468"><ele>27.0</ele><time>2026-04-19T18:15:23Z</time></trkpt><trkpt lat="43.70920487947164" lon="10.963453730942456"><ele>27.0</ele><time>2026-04-19T18:15:24Z</time></trkpt><trkpt lat="43.70915585728913" lon="10.963181340182167"><ele>27.0</ele><time>2026-04-19T18:15:25Z</time></trkpt><trkpt lat="43.70911517793577" lon="10.962904105366082"><ele>27.333333333333336</ele><time>2026-04-19T18:15:26Z</time></trkpt><trkpt lat="43.709082333603064" lon="10.962627774578902"><ele>27.666666666666668</ele><time>2026-04-19T18:15:27Z</time></trkpt><trkpt lat="43.709059219305175" lon="10.962354996724594"><ele>28.0</ele><time>2026-04-19T18:15:28Z</time></trkpt><trkpt lat="43.70904506961566" lon="10.96207298978876"><ele>28.333333333333336</ele><time>2026-04-19T18:15:29Z</time></trkpt><trkpt lat="43.70904128455853" lon="10.961784424128712"><ele>28.666666666666664</ele><time>2026-04-19T18:15:30Z</time></trkpt><trkpt lat="43.70905096657105" lon="10.96149371457884"><ele>29.0</ele><time>2026-04-19T18:15:31Z</time></trkpt><trkpt lat="43.70907020950762" lon="10.961197192217638"><ele>29.0</ele><time>2026-04-19T18:15:32Z</time></trkpt><trkpt lat="43.709093759843014" lon="10.960922311668307"><ele>29.0</ele><time>2026-04-19T18:15:33Z</time></trkpt><trkpt lat="43.709116523468346" lon="10.960657112450676"><ele>29.0</ele><time>2026-04-19T18:15:34Z</time></trkpt><trkpt lat="43.70913787625846" lon="10.96039684265015"><ele>29.0</ele><time>2026-04-19T18:15:35Z</time></trkpt><trkpt lat="43.709158663544756" lon="10.96013520362445"><ele>29.0</ele><time>2026-04-19T18:15:36Z</time></trkpt><trkpt lat="43.70917870481411" lon="10.959867432984648"><ele>29.0</ele><time>2026-04-19T18:15:37Z</time></trkpt><trkpt lat="43.70919837173499" lon="10.95959758025047"><ele>29.333333333333332</ele><time>2026-04-19T18:15:38Z</time></trkpt><trkpt lat="43.70922146106138" lon="10.95932767240699"><ele>29.666666666666664</ele><time>2026-04-19T18:15:39Z</time></trkpt><trkpt lat="43.709245540750395" lon="10.959066003940736"><ele>30.0</ele><time>2026-04-19T18:15:40Z</time></trkpt><trkpt lat="43.709267166268546" lon="10.958800893883216"><ele>30.333333333333336</ele><time>2026-04-19T18:15:41Z</time></trkpt><trkpt lat="43.709290164927474" lon="10.958524482879186"><ele>30.666666666666668</ele><time>2026-04-19T18:15:42Z</time></trkpt><trkpt lat="43.709314228790035" lon="10.958245532020879"><ele>31.0</ele><time>2026-04-19T18:15:43Z</time></trkpt><trkpt lat="43.709339471723396" lon="10.957959951634331"><ele>31.0</ele><time>2026-04-19T18:15:44Z</time></trkpt><trkpt lat="43.70936506279616" lon="10.957676107340939"><ele>31.0</ele><time>2026-04-19T18:15:45Z</time></trkpt><trkpt lat="43.70938909198664" lon="10.957397069690014"><ele>31.0</ele><time>2026-04-19T18:15:46Z</time></trkpt><trkpt lat="43.70941155745107" lon="10.957121283089526"><ele>30.333333333333336</ele><time>2026-04-19T18:15:47Z</time></trkpt><trkpt lat="43.70943427218019" lon="10.95683696242881"><ele>29.666666666666664</ele><time>2026-04-19T18:15:48Z</time></trkpt><trkpt lat="43.709458418182834" lon="10.956544261785087"><ele>29.0</ele><time>2026-04-19T18:15:49Z</time></trkpt><trkpt lat="43.70948201797769" lon="10.956267078667196"><ele>28.666666666666664</ele><time>2026-04-19T18:15:50Z</time></trkpt><trkpt lat="43.709506560201916" lon="10.955995697585838"><ele>28.333333333333336</ele><time>2026-04-19T18:15:51Z</time></trkpt><trkpt lat="43.70953051218644" lon="10.955728254916787"><ele>28.0</ele><time>2026-04-19T18:15:52Z</time></trkpt><trkpt lat="43.7095521033338" lon="10.955458954565477"><ele>28.0</ele><time>2026-04-19T18:15:53Z</time></trkpt><trkpt lat="43.709573776337976" lon="10.955189185978195"><ele>28.0</ele><time>2026-04-19T18:15:54Z</time></trkpt><trkpt lat="43.709598214115054" lon="10.954907430967552"><ele>28.0</ele><time>2026-04-19T18:15:55Z</time></trkpt><trkpt lat="43.709621742411414" lon="10.954623504961598"><ele>28.0</ele><time>2026-04-19T18:15:56Z</time></trkpt><trkpt lat="43.70964448322728" lon="10.954343809775587"><ele>28.0</ele><time>2026-04-19T18:15:57Z</time></trkpt><trkpt lat="43.709664214396724" lon="10.95406526874971"><ele>28.0</ele><time>2026-04-19T18:15:58Z</time></trkpt><trkpt lat="43.7096811579959" lon="10.953786451161951"><ele>27.666666666666668</ele><time>2026-04-19T18:15:59Z</time></trkpt><trkpt lat="43.70969411299018" lon="10.953497280767689"><ele>27.333333333333336</ele><time>2026-04-19T18:16:00Z</time></trkpt><trkpt lat="43.70969943669916" lon="10.953215124716921"><ele>27.0</ele><time>2026-04-19T18:16:01Z</time></trkpt><trkpt lat="43.709698259387245" lon="10.952931611201533"><ele>27.0</ele><time>2026-04-19T18:16:02Z</time></trkpt><trkpt lat="43.70969060060506" lon="10.952646252767636"><ele>27.0</ele><time>2026-04-19T18:16:03Z</time></trkpt><trkpt lat="43.70967722959273" lon="10.952357933546278"><ele>27.0</ele><time>2026-04-19T18:16:04Z</time></trkpt><trkpt lat="43.70966081502872" lon="10.952077884597214"><ele>27.0</ele><time>2026-04-19T18:16:05Z</time></trkpt><trkpt lat="43.70964459112067" lon="10.951799317316343"><ele>27.0</ele><time>2026-04-19T18:16:06Z</time></trkpt><trkpt lat="43.70962864313397" lon="10.951520119999092"><ele>27.0</ele><time>2026-04-19T18:16:07Z</time></trkpt><trkpt lat="43.70961193195066" lon="10.951239190783282"><ele>27.0</ele><time>2026-04-19T18:16:08Z</time></trkpt><trkpt lat="43.7095962819378" lon="10.950962345113709"><ele>27.0</ele><time>2026-04-19T18:16:09Z</time></trkpt><trkpt lat="43.70957919972295" lon="10.950683693287056"><ele>27.0</ele><time>2026-04-19T18:16:10Z</time></trkpt><trkpt lat="43.70956342577345" lon="10.950399473342086"><ele>27.0</ele><time>2026-04-19T18:16:11Z</time></trkpt><trkpt lat="43.70954646823279" lon="10.950118106855102"><ele>27.0</ele><time>2026-04-19T18:16:12Z</time></trkpt><trkpt lat="43.70952820327019" lon="10.94984008363404"><ele>27.0</ele><time>2026-04-19T18:16:13Z</time></trkpt><trkpt lat="43.709510542789374" lon="10.949565941652494"><ele>27.0</ele><time>2026-04-19T18:16:14Z</time></trkpt><trkpt lat="43.70949514220687" lon="10.949288885713441"><ele>27.0</ele><time>2026-04-19T18:16:15Z</time></trkpt><trkpt lat="43.70947906109645" lon="10.949013554315611"><ele>27.0</ele><time>2026-04-19T18:16:16Z</time></trkpt><trkpt lat="43.70946287618956" lon="10.948739327452063"><ele>26.666666666666664</ele><time>2026-04-19T18:16:17Z</time></trkpt><trkpt lat="43.709446834682446" lon="10.948470581547177"><ele>26.333333333333332</ele><time>2026-04-19T18:16:18Z</time></trkpt><trkpt lat="43.709432645010885" lon="10.948213444567092"><ele>26.0</ele><time>2026-04-19T18:16:19Z</time></trkpt><trkpt lat="43.70941931456838" lon="10.947952952549292"><ele>26.333333333333332</ele><time>2026-04-19T18:16:20Z</time></trkpt><trkpt lat="43.70940371252584" lon="10.947695145413064"><ele>26.666666666666664</ele><time>2026-04-19T18:16:21Z</time></trkpt><trkpt lat="43.7093888791547" lon="10.947445558157243"><ele>27.0</ele><time>2026-04-19T18:16:22Z</time></trkpt><trkpt lat="43.70937558573509" lon="10.947204671674443"><ele>27.333333333333336</ele><time>2026-04-19T18:16:23Z</time></trkpt><trkpt lat="43.70936304936661" lon="10.946969036215435"><ele>27.666666666666668</ele><time>2026-04-19T18:16:24Z</time></trkpt><trkpt lat="43.70935080894913" lon="10.94673829522219"><ele>28.0</ele><time>2026-04-19T18:16:25Z</time></trkpt><trkpt lat="43.70933721331735" lon="10.946508191564432"><ele>28.0</ele><time>2026-04-19T18:16:26Z</time></trkpt><trkpt lat="43.70932277037879" lon="10.946266651881109"><ele>28.0</ele><time>2026-04-19T18:16:27Z</time></trkpt><trkpt lat="43.70930814804877" lon="10.94601986385477"><ele>28.0</ele><time>2026-04-19T18:16:28Z</time></trkpt><trkpt lat="43.7092930687067" lon="10.94576455100936"><ele>27.666666666666668</ele><time>2026-04-19T18:16:29Z</time></trkpt><trkpt lat="43.70927757293239" lon="10.945503298999574"><ele>27.333333333333336</ele><time>2026-04-19T18:16:30Z</time></trkpt><trkpt lat="43.70926096946088" lon="10.945226369500428"><ele>27.0</ele><time>2026-04-19T18:16:31Z</time></trkpt><trkpt lat="43.70924629164816" lon="10.944946095257249"><ele>27.0</ele><time>2026-04-19T18:16:32Z</time></trkpt><trkpt lat="43.70923129863922" lon="10.944656068748715"><ele>27.0</ele><time>2026-04-19T18:16:33Z</time></trkpt><trkpt lat="43.70921699013642" lon="10.944357519349154"><ele>27.0</ele><time>2026-04-19T18:16:34Z</time></trkpt><trkpt lat="43.70920216520658" lon="10.944067436071622"><ele>27.0</ele><time>2026-04-19T18:16:35Z</time></trkpt><trkpt lat="43.70919048883966" lon="10.94378909326616"><ele>27.0</ele><time>2026-04-19T18:16:36Z</time></trkpt><trkpt lat="43.70918220894364" lon="10.94351236602964"><ele>27.0</ele><time>2026-04-19T18:16:37Z</time></trkpt><trkpt lat="43.70917518333994" lon="10.943231748716366"><ele>26.333333333333336</ele><time>2026-04-19T18:16:38Z</time></trkpt><trkpt lat="43.709167202963506" lon="10.942943076722797"><ele>25.666666666666668</ele><time>2026-04-19T18:16:39Z</time></trkpt><trkpt lat="43.709156309440104" lon="10.942643009503414"><ele>25.0</ele><time>2026-04-19T18:16:40Z</time></trkpt><trkpt lat="43.70914344826576" lon="10.942342023387113"><ele>24.666666666666668</ele><time>2026-04-19T18:16:41Z</time></trkpt><trkpt lat="43.70913320411448" lon="10.942052056244092"><ele>24.333333333333336</ele><time>2026-04-19T18:16:42Z</time></trkpt><trkpt lat="43.70912482649053" lon="10.941764007319286"><ele>24.0</ele><time>2026-04-19T18:16:43Z</time></trkpt><trkpt lat="43.70911559063575" lon="10.941473774362798"><ele>24.0</ele><time>2026-04-19T18:16:44Z</time></trkpt><trkpt lat="43.70910758430417" lon="10.94117965228731"><ele>24.0</ele><time>2026-04-19T18:16:45Z</time></trkpt><trkpt lat="43.70909777967504" lon="10.940891478223087"><ele>24.0</ele><time>2026-04-19T18:16:46Z</time></trkpt><trkpt lat="43.70908650883648" lon="10.940612151673326"><ele>23.666666666666668</ele><time>2026-04-19T18:16:47Z</time></trkpt><trkpt lat="43.709076386800966" lon="10.940335566833046"><ele>23.333333333333336</ele><time>2026-04-19T18:16:48Z</time></trkpt><trkpt lat="43.70906697721788" lon="10.940055529886457"><ele>23.0</ele><time>2026-04-19T18:16:49Z</time></trkpt><trkpt lat="43.70905703248645" lon="10.939777750262223"><ele>23.666666666666668</ele><time>2026-04-19T18:16:50Z</time></trkpt><trkpt lat="43.7090457616687" lon="10.939491704970548"><ele>24.333333333333336</ele><time>2026-04-19T18:16:51Z</time></trkpt><trkpt lat="43.709035937988126" lon="10.939202537980796"><ele>25.0</ele><time>2026-04-19T18:16:52Z</time></trkpt><trkpt lat="43.709027075512225" lon="10.938898194876844"><ele>25.0</ele><time>2026-04-19T18:16:53Z</time></trkpt><trkpt lat="43.70901749571668" lon="10.93858815086857"><ele>25.0</ele><time>2026-04-19T18:16:54Z</time></trkpt><trkpt lat="43.709008019655386" lon="10.938287407684989"><ele>25.0</ele><time>2026-04-19T18:16:55Z</time></trkpt><trkpt lat="43.70899783932661" lon="10.937986819827715"><ele>25.0</ele><time>2026-04-19T18:16:56Z</time></trkpt><trkpt lat="43.70898853652167" lon="10.93768652174618"><ele>25.0</ele><time>2026-04-19T18:16:57Z</time></trkpt><trkpt lat="43.70897911702745" lon="10.937389212889565"><ele>25.0</ele><time>2026-04-19T18:16:58Z</time></trkpt><trkpt lat="43.708969537653196" lon="10.937100469884028"><ele>25.0</ele><time>2026-04-19T18:16:59Z</time></trkpt><trkpt lat="43.70896007744449" lon="10.936818150369595"><ele>25.0</ele><time>2026-04-19T18:17:00Z</time></trkpt><trkpt lat="43.708950318153484" lon="10.936539185923241"><ele>25.0</ele><time>2026-04-19T18:17:01Z</time></trkpt><trkpt lat="43.70894239082654" lon="10.936259877302248"><ele>25.0</ele><time>2026-04-19T18:17:02Z</time></trkpt><trkpt lat="43.70893238211795" lon="10.935982099506619"><ele>25.0</ele><time>2026-04-19T18:17:03Z</time></trkpt><trkpt lat="43.708923179713416" lon="10.93571480156377"><ele>25.0</ele><time>2026-04-19T18:17:04Z</time></trkpt><trkpt lat="43.708914848129396" lon="10.935455828959272"><ele>25.0</ele><time>2026-04-19T18:17:05Z</time></trkpt><trkpt lat="43.70890875068518" lon="10.935204456228295"><ele>25.0</ele><time>2026-04-19T18:17:06Z</time></trkpt><trkpt lat="43.708901627449606" lon="10.934958889718311"><ele>25.0</ele><time>2026-04-19T18:17:07Z</time></trkpt><trkpt lat="43.70889414674308" lon="10.934714198058778"><ele>24.666666666666668</ele><time>2026-04-19T18:17:08Z</time></trkpt><trkpt lat="43.70888544796099" lon="10.934459616159915"><ele>24.333333333333336</ele><time>2026-04-19T18:17:09Z</time></trkpt><trkpt lat="43.70887618490253" lon="10.934198547184817"><ele>24.0</ele><time>2026-04-19T18:17:10Z</time></trkpt><trkpt lat="43.70886672324783" lon="10.933927194599441"><ele>24.0</ele><time>2026-04-19T18:17:11Z</time></trkpt><trkpt lat="43.708857085625105" lon="10.933650772935085"><ele>24.0</ele><time>2026-04-19T18:17:12Z</time></trkpt><trkpt lat="43.70884864480141" lon="10.933370846968279"><ele>24.0</ele><time>2026-04-19T18:17:13Z</time></trkpt><trkpt lat="43.70883967508275" lon="10.93308694102277"><ele>24.333333333333336</ele><time>2026-04-19T18:17:14Z</time></trkpt><trkpt lat="43.7088298483208" lon="10.932804558704971"><ele>24.666666666666668</ele><time>2026-04-19T18:17:15Z</time></trkpt><trkpt lat="43.708819908345056" lon="10.932524549308173"><ele>25.0</ele><time>2026-04-19T18:17:16Z</time></trkpt><trkpt lat="43.70881100013315" lon="10.93224775052755"><ele>25.0</ele><time>2026-04-19T18:17:17Z</time></trkpt><trkpt lat="43.70880277130654" lon="10.931976689117885"><ele>25.0</ele><time>2026-04-19T18:17:18Z</time></trkpt><trkpt lat="43.70879312555108" lon="10.93170812081411"><ele>25.0</ele><time>2026-04-19T18:17:19Z</time></trkpt><trkpt lat="43.70878299165001" lon="10.931439669848048"><ele>24.666666666666668</ele><time>2026-04-19T18:17:20Z</time></trkpt><trkpt lat="43.70877180707536" lon="10.931163122390624"><ele>24.333333333333336</ele><time>2026-04-19T18:17:21Z</time></trkpt><trkpt lat="43.70876175801582" lon="10.93087925212587"><ele>24.0</ele><time>2026-04-19T18:17:22Z</time></trkpt><trkpt lat="43.70875200310929" lon="10.93059044107453"><ele>24.0</ele><time>2026-04-19T18:17:23Z</time></trkpt><trkpt lat="43.7087424821745" lon="10.930301991469523"><ele>24.0</ele><time>2026-04-19T18:17:24Z</time></trkpt><trkpt lat="43.708733872918096" lon="10.930011934088752"><ele>24.0</ele><time>2026-04-19T18:17:25Z</time></trkpt><trkpt lat="43.708723845109375" lon="10.9297240246725"><ele>23.666666666666668</ele><time>2026-04-19T18:17:26Z</time></trkpt><trkpt lat="43.708713384186446" lon="10.929440291074378"><ele>23.333333333333336</ele><time>2026-04-19T18:17:27Z</time></trkpt><trkpt lat="43.708703909124196" lon="10.929155833944847"><ele>23.0</ele><time>2026-04-19T18:17:28Z</time></trkpt><trkpt lat="43.70869461587081" lon="10.928864932455308"><ele>23.333333333333336</ele><time>2026-04-19T18:17:29Z</time></trkpt><trkpt lat="43.708684576109384" lon="10.928567528029129"><ele>23.666666666666668</ele><time>2026-04-19T18:17:30Z</time></trkpt><trkpt lat="43.70867405848575" lon="10.9282749396459"><ele>24.0</ele><time>2026-04-19T18:17:31Z</time></trkpt><trkpt lat="43.708663576213915" lon="10.927986335697673"><ele>24.0</ele><time>2026-04-19T18:17:32Z</time></trkpt><trkpt lat="43.708654313927944" lon="10.927698896628623"><ele>24.0</ele><time>2026-04-19T18:17:33Z</time></trkpt><trkpt lat="43.70864723103729" lon="10.927413777975167"><ele>24.0</ele><time>2026-04-19T18:17:34Z</time></trkpt><trkpt lat="43.70863972780217" lon="10.927130525131872"><ele>24.0</ele><time>2026-04-19T18:17:35Z</time></trkpt><trkpt lat="43.70863096033399" lon="10.926839915667808"><ele>24.0</ele><time>2026-04-19T18:17:36Z</time></trkpt><trkpt lat="43.708620866900965" lon="10.926540884483053"><ele>24.0</ele><time>2026-04-19T18:17:37Z</time></trkpt><trkpt lat="43.70861078921785" lon="10.926250920889409"><ele>24.0</ele><time>2026-04-19T18:17:38Z</time></trkpt><trkpt lat="43.708600791035344" lon="10.925968507893472"><ele>24.0</ele><time>2026-04-19T18:17:39Z</time></trkpt><trkpt lat="43.7085941599711" lon="10.92568566772589"><ele>24.0</ele><time>2026-04-19T18:17:40Z</time></trkpt><trkpt lat="43.70858603504559" lon="10.925401237584406"><ele>23.666666666666668</ele><time>2026-04-19T18:17:41Z</time></trkpt><trkpt lat="43.708577193724956" lon="10.92510946024662"><ele>23.333333333333336</ele><time>2026-04-19T18:17:42Z</time></trkpt><trkpt lat="43.7085673745382" lon="10.924819438282569"><ele>23.0</ele><time>2026-04-19T18:17:43Z</time></trkpt><trkpt lat="43.708554374666896" lon="10.92452245499237"><ele>23.666666666666668</ele><time>2026-04-19T18:17:44Z</time></trkpt><trkpt lat="43.708538909837706" lon="10.92422422922414"><ele>24.333333333333336</ele><time>2026-04-19T18:17:45Z</time></trkpt><trkpt lat="43.70852129397177" lon="10.923923698645089"><ele>25.0</ele><time>2026-04-19T18:17:46Z</time></trkpt><trkpt lat="43.70850035094043" lon="10.923623427273338"><ele>25.0</ele><time>2026-04-19T18:17:47Z</time></trkpt><trkpt lat="43.70847565929737" lon="10.923323724615022"><ele>25.0</ele><time>2026-04-19T18:17:48Z</time></trkpt><trkpt lat="43.708451107920794" lon="10.923035462594921"><ele>25.0</ele><time>2026-04-19T18:17:49Z</time></trkpt><trkpt lat="43.70842397884062" lon="10.92274953060814"><ele>24.666666666666668</ele><time>2026-04-19T18:17:50Z</time></trkpt><trkpt lat="43.708397186891894" lon="10.922462512582506"><ele>24.333333333333336</ele><time>2026-04-19T18:17:51Z</time></trkpt><trkpt lat="43.70837009349215" lon="10.922178872307619"><ele>24.0</ele><time>2026-04-19T18:17:52Z</time></trkpt><trkpt lat="43.70834287458169" lon="10.921900524202265"><ele>24.333333333333336</ele><time>2026-04-19T18:17:53Z</time></trkpt><trkpt lat="43.70831733512296" lon="10.921630235262464"><ele>24.666666666666668</ele><time>2026-04-19T18:17:54Z</time></trkpt><trkpt lat="43.70829142823446" lon="10.921362102185943"><ele>25.0</ele><time>2026-04-19T18:17:55Z</time></trkpt><trkpt lat="43.70826711351449" lon="10.921091854180137"><ele>24.333333333333336</ele><time>2026-04-19T18:17:56Z</time></trkpt><trkpt lat="43.708242850514225" lon="10.920821007977889"><ele>23.666666666666668</ele><time>2026-04-19T18:17:57Z</time></trkpt><trkpt lat="43.70821874009923" lon="10.920554676056163"><ele>23.0</ele><time>2026-04-19T18:17:58Z</time></trkpt><trkpt lat="43.708193907598464" lon="10.92028189566495"><ele>22.666666666666668</ele><time>2026-04-19T18:17:59Z</time></trkpt><trkpt lat="43.70817188179773" lon="10.920017503090758"><ele>22.333333333333332</ele><time>2026-04-19T18:18:00Z</time></trkpt><trkpt lat="43.708153298258914" lon="10.919756094337481"><ele>22.0</ele><time>2026-04-19T18:18:01Z</time></trkpt><trkpt lat="43.70814343013281" lon="10.91948567620962"><ele>22.666666666666664</ele><time>2026-04-19T18:18:02Z</time></trkpt><trkpt lat="43.708143106981844" lon="10.919214807585773"><ele>23.333333333333332</ele><time>2026-04-19T18:18:03Z</time></trkpt><trkpt lat="43.70814746494586" lon="10.918948878433381"><ele>24.0</ele><time>2026-04-19T18:18:04Z</time></trkpt><trkpt lat="43.70816007421421" lon="10.918681376413975"><ele>24.0</ele><time>2026-04-19T18:18:05Z</time></trkpt><trkpt lat="43.70818499478748" lon="10.91840822630899"><ele>24.0</ele><time>2026-04-19T18:18:06Z</time></trkpt><trkpt lat="43.70822078768678" lon="10.918133804034218"><ele>24.0</ele><time>2026-04-19T18:18:07Z</time></trkpt><trkpt lat="43.708265614824285" lon="10.917859238365978"><ele>24.0</ele><time>2026-04-19T18:18:08Z</time></trkpt><trkpt lat="43.70831637407572" lon="10.91759541630625"><ele>24.0</ele><time>2026-04-19T18:18:09Z</time></trkpt><trkpt lat="43.70837341857208" lon="10.917336150712401"><ele>24.0</ele><time>2026-04-19T18:18:10Z</time></trkpt><trkpt lat="43.708437645476764" lon="10.917083312884413"><ele>24.333333333333336</ele><time>2026-04-19T18:18:11Z</time></trkpt><trkpt lat="43.70850988359828" lon="10.916836834964897"><ele>24.666666666666668</ele><time>2026-04-19T18:18:12Z</time></trkpt><trkpt lat="43.708594317730665" lon="10.916597114204409"><ele>25.0</ele><time>2026-04-19T18:18:13Z</time></trkpt><trkpt lat="43.70868906571685" lon="10.916354338435266"><ele>25.0</ele><time>2026-04-19T18:18:14Z</time></trkpt><trkpt lat="43.70879142634134" lon="10.916109103007175"><ele>25.0</ele><time>2026-04-19T18:18:15Z</time></trkpt><trkpt lat="43.708890916577666" lon="10.915875197306683"><ele>25.0</ele><time>2026-04-19T18:18:16Z</time></trkpt><trkpt lat="43.70899190117415" lon="10.915647168065162"><ele>25.0</ele><time>2026-04-19T18:18:17Z</time></trkpt><trkpt lat="43.70909477322414" lon="10.915417263824478"><ele>25.0</ele><time>2026-04-19T18:18:18Z</time></trkpt><trkpt lat="43.70919829934791" lon="10.91518257429774"><ele>25.0</ele><time>2026-04-19T18:18:19Z</time></trkpt><trkpt lat="43.70930532077792" lon="10.9149415354503"><ele>24.666666666666668</ele><time>2026-04-19T18:18:20Z</time></trkpt><trkpt lat="43.709411086066595" lon="10.91470176491081"><ele>24.333333333333336</ele><time>2026-04-19T18:18:21Z</time></trkpt><trkpt lat="43.709515187191435" lon="10.914467438348717"><ele>24.0</ele><time>2026-04-19T18:18:22Z</time></trkpt><trkpt lat="43.7096154039287" lon="10.914240215566096"><ele>24.0</ele><time>2026-04-19T18:18:23Z</time></trkpt><trkpt lat="43.70971534091254" lon="10.914013467362155"><ele>24.0</ele><time>2026-04-19T18:18:24Z</time></trkpt><trkpt lat="43.7098128740903" lon="10.913787529458562"><ele>24.0</ele><time>2026-04-19T18:18:25Z</time></trkpt><trkpt lat="43.70990766082771" lon="10.913562406190639"><ele>24.666666666666664</ele><time>2026-04-19T18:18:26Z</time></trkpt><trkpt lat="43.710000817321536" lon="10.913326770080195"><ele>25.333333333333332</ele><time>2026-04-19T18:18:27Z</time></trkpt><trkpt lat="43.71008389645926" lon="10.91308484868244"><ele>26.0</ele><time>2026-04-19T18:18:28Z</time></trkpt><trkpt lat="43.71015773701551" lon="10.912833372836525"><ele>26.0</ele><time>2026-04-19T18:18:29Z</time></trkpt><trkpt lat="43.710227569236324" lon="10.912574626964894"><ele>26.0</ele><time>2026-04-19T18:18:30Z</time></trkpt><trkpt lat="43.71029653824592" lon="10.912306275798908"><ele>26.0</ele><time>2026-04-19T18:18:31Z</time></trkpt><trkpt lat="43.71036023382907" lon="10.912033276370167"><ele>25.666666666666664</ele><time>2026-04-19T18:18:32Z</time></trkpt><trkpt lat="43.71041393763864" lon="10.911756887836717"><ele>25.333333333333336</ele><time>2026-04-19T18:18:33Z</time></trkpt><trkpt lat="43.710462222744546" lon="10.911477050827559"><ele>25.0</ele><time>2026-04-19T18:18:34Z</time></trkpt><trkpt lat="43.71050346463976" lon="10.911193504514609"><ele>25.333333333333336</ele><time>2026-04-19T18:18:35Z</time></trkpt><trkpt lat="43.71053564662413" lon="10.910902562539556"><ele>25.666666666666664</ele><time>2026-04-19T18:18:36Z</time></trkpt><trkpt lat="43.71055996617841" lon="10.910614921949643"><ele>26.0</ele><time>2026-04-19T18:18:37Z</time></trkpt><trkpt lat="43.71057445205661" lon="10.910332736167291"><ele>25.666666666666664</ele><time>2026-04-19T18:18:38Z</time></trkpt><trkpt lat="43.710580774231744" lon="10.910050532664414"><ele>25.333333333333336</ele><time>2026-04-19T18:18:39Z</time></trkpt><trkpt lat="43.71057860897545" lon="10.90976570406222"><ele>25.0</ele><time>2026-04-19T18:18:40Z</time></trkpt><trkpt lat="43.71056830730664" lon="10.909481469122365"><ele>24.333333333333336</ele><time>2026-04-19T18:18:41Z</time></trkpt><trkpt lat="43.710550883046096" lon="10.909196902634834"><ele>23.666666666666668</ele><time>2026-04-19T18:18:42Z</time></trkpt><trkpt lat="43.710528543292746" lon="10.908911797724288"><ele>23.0</ele><time>2026-04-19T18:18:43Z</time></trkpt><trkpt lat="43.71050060746921" lon="10.908628740549979"><ele>22.666666666666668</ele><time>2026-04-19T18:18:44Z</time></trkpt><trkpt lat="43.71045912065475" lon="10.90834790771031"><ele>22.333333333333332</ele><time>2026-04-19T18:18:45Z</time></trkpt><trkpt lat="43.710406243466096" lon="10.908055402903996"><ele>22.0</ele><time>2026-04-19T18:18:46Z</time></trkpt><trkpt lat="43.710346259231585" lon="10.907752248273393"><ele>22.0</ele><time>2026-04-19T18:18:47Z</time></trkpt><trkpt lat="43.710282121390826" lon="10.907451832747357"><ele>22.0</ele><time>2026-04-19T18:18:48Z</time></trkpt><trkpt lat="43.71021836121629" lon="10.9071603397146"><ele>22.0</ele><time>2026-04-19T18:18:49Z</time></trkpt><trkpt lat="43.71015419773886" lon="10.906873576597889"><ele>23.0</ele><time>2026-04-19T18:18:50Z</time></trkpt><trkpt lat="43.71008907189557" lon="10.906589592565055"><ele>24.0</ele><time>2026-04-19T18:18:51Z</time></trkpt><trkpt lat="43.710023904516504" lon="10.906307746621673"><ele>25.0</ele><time>2026-04-19T18:18:52Z</time></trkpt><trkpt lat="43.70996088291633" lon="10.906024491104176"><ele>25.0</ele><time>2026-04-19T18:18:53Z</time></trkpt><trkpt lat="43.709898915700684" lon="10.905737778258121"><ele>25.0</ele><time>2026-04-19T18:18:54Z</time></trkpt><trkpt lat="43.70983552545793" lon="10.905448361649979"><ele>25.0</ele><time>2026-04-19T18:18:55Z</time></trkpt><trkpt lat="43.709771011254475" lon="10.905161743425497"><ele>24.333333333333336</ele><time>2026-04-19T18:18:56Z</time></trkpt><trkpt lat="43.70970611158514" lon="10.904870820315802"><ele>23.666666666666668</ele><time>2026-04-19T18:18:57Z</time></trkpt><trkpt lat="43.70964245550093" lon="10.904580873934655"><ele>23.0</ele><time>2026-04-19T18:18:58Z</time></trkpt><trkpt lat="43.70957803867422" lon="10.904287465981364"><ele>23.0</ele><time>2026-04-19T18:18:59Z</time></trkpt><trkpt lat="43.709514121764066" lon="10.903995772037149"><ele>23.0</ele><time>2026-04-19T18:19:00Z</time></trkpt><trkpt lat="43.709450610805" lon="10.903711057024855"><ele>23.0</ele><time>2026-04-19T18:19:01Z</time></trkpt><trkpt lat="43.709386591643494" lon="10.903426900864897"><ele>23.0</ele><time>2026-04-19T18:19:02Z</time></trkpt><trkpt lat="43.70932039596922" lon="10.903138639035774"><ele>23.0</ele><time>2026-04-19T18:19:03Z</time></trkpt><trkpt lat="43.7092556780608" lon="10.902848287428235"><ele>23.0</ele><time>2026-04-19T18:19:04Z</time></trkpt><trkpt lat="43.70919027983702" lon="10.902554298382285"><ele>23.0</ele><time>2026-04-19T18:19:05Z</time></trkpt><trkpt lat="43.70912297296795" lon="10.902249140734042"><ele>23.0</ele><time>2026-04-19T18:19:06Z</time></trkpt><trkpt lat="43.70905573367479" lon="10.90194522653712"><ele>23.5</ele><time>2026-04-19T18:19:07Z</time></trkpt><trkpt lat="43.708987883017045" lon="10.90164193089802"><ele>24.0</ele><time>2026-04-19T18:19:08Z</time></trkpt><trkpt lat="43.70891942394163" lon="10.901341126000153"><ele>24.0</ele><time>2026-04-19T18:19:09Z</time></trkpt><trkpt lat="43.708855661447515" lon="10.901050754432"><ele>24.0</ele><time>2026-04-19T18:19:10Z</time></trkpt><trkpt lat="43.70879355796779" lon="10.900769899636385"><ele>24.0</ele><time>2026-04-19T18:19:11Z</time></trkpt><trkpt lat="43.70873037319046" lon="10.90048879904109"><ele>24.0</ele><time>2026-04-19T18:19:12Z</time></trkpt><trkpt lat="43.70866643946107" lon="10.900199408862852"><ele>24.0</ele><time>2026-04-19T18:19:13Z</time></trkpt><trkpt lat="43.708600879639874" lon="10.899902361702958"><ele>24.0</ele><time>2026-04-19T18:19:14Z</time></trkpt><trkpt lat="43.70853379228139" lon="10.899601426660576"><ele>24.0</ele><time>2026-04-19T18:19:15Z</time></trkpt><trkpt lat="43.70846676961521" lon="10.899297682079183"><ele>24.0</ele><time>2026-04-19T18:19:16Z</time></trkpt><trkpt lat="43.70839945628962" lon="10.89899694240904"><ele>24.0</ele><time>2026-04-19T18:19:17Z</time></trkpt><trkpt lat="43.7083338503885" lon="10.898701995761723"><ele>24.0</ele><time>2026-04-19T18:19:18Z</time></trkpt><trkpt lat="43.708269357651716" lon="10.898408706500787"><ele>24.0</ele><time>2026-04-19T18:19:19Z</time></trkpt><trkpt lat="43.70820471564618" lon="10.898118537280357"><ele>24.0</ele><time>2026-04-19T18:19:20Z</time></trkpt><trkpt lat="43.70814017528855" lon="10.897828889881511"><ele>24.0</ele><time>2026-04-19T18:19:21Z</time></trkpt><trkpt lat="43.70807287386374" lon="10.897526082641113"><ele>24.0</ele><time>2026-04-19T18:19:22Z</time></trkpt><trkpt lat="43.70800727196156" lon="10.8972260530093"><ele>24.0</ele><time>2026-04-19T18:19:23Z</time></trkpt><trkpt lat="43.7079438611154" lon="10.896936097214525"><ele>24.0</ele><time>2026-04-19T18:19:24Z</time></trkpt><trkpt lat="43.70788125024856" lon="10.896656593206515"><ele>24.0</ele><time>2026-04-19T18:19:25Z</time></trkpt><trkpt lat="43.70781854762523" lon="10.896373600427964"><ele>24.0</ele><time>2026-04-19T18:19:26Z</time></trkpt><trkpt lat="43.70775371568565" lon="10.896081272886413"><ele>24.0</ele><time>2026-04-19T18:19:27Z</time></trkpt><trkpt lat="43.70768662475501" lon="10.89577971752409"><ele>24.0</ele><time>2026-04-19T18:19:28Z</time></trkpt><trkpt lat="43.70762070876301" lon="10.895492989469853"><ele>24.0</ele><time>2026-04-19T18:19:29Z</time></trkpt><trkpt lat="43.707553977896985" lon="10.895200430781786"><ele>24.0</ele><time>2026-04-19T18:19:30Z</time></trkpt><trkpt lat="43.70748511795797" lon="10.894910027119433"><ele>24.0</ele><time>2026-04-19T18:19:31Z</time></trkpt><trkpt lat="43.70742266172876" lon="10.894623929830477"><ele>24.666666666666664</ele><time>2026-04-19T18:19:32Z</time></trkpt><trkpt lat="43.70736192186197" lon="10.894338804792143"><ele>25.333333333333332</ele><time>2026-04-19T18:19:33Z</time></trkpt><trkpt lat="43.70729679919384" lon="10.89403924416698"><ele>26.0</ele><time>2026-04-19T18:19:34Z</time></trkpt><trkpt lat="43.70723105281691" lon="10.893740401643829"><ele>26.0</ele><time>2026-04-19T18:19:35Z</time></trkpt><trkpt lat="43.70716556332733" lon="10.893454323703745"><ele>26.0</ele><time>2026-04-19T18:19:36Z</time></trkpt><trkpt lat="43.70710185832452" lon="10.893175913620803"><ele>26.0</ele><time>2026-04-19T18:19:37Z</time></trkpt><trkpt lat="43.70704146488069" lon="10.892904245626129"><ele>26.0</ele><time>2026-04-19T18:19:38Z</time></trkpt><trkpt lat="43.70698336323875" lon="10.892640474455362"><ele>26.0</ele><time>2026-04-19T18:19:39Z</time></trkpt><trkpt lat="43.7069276096004" lon="10.89237934992168"><ele>26.0</ele><time>2026-04-19T18:19:40Z</time></trkpt><trkpt lat="43.70687003480662" lon="10.892116479891202"><ele>26.0</ele><time>2026-04-19T18:19:41Z</time></trkpt><trkpt lat="43.706810698755525" lon="10.89185193938454"><ele>26.0</ele><time>2026-04-19T18:19:42Z</time></trkpt><trkpt lat="43.70675050810729" lon="10.891587062232416"><ele>26.0</ele><time>2026-04-19T18:19:43Z</time></trkpt><trkpt lat="43.706689827045146" lon="10.891321275803785"><ele>25.666666666666664</ele><time>2026-04-19T18:19:44Z</time></trkpt><trkpt lat="43.70663068781548" lon="10.891049323306213"><ele>25.333333333333336</ele><time>2026-04-19T18:19:45Z</time></trkpt><trkpt lat="43.706571125672866" lon="10.890772454353813"><ele>25.0</ele><time>2026-04-19T18:19:46Z</time></trkpt><trkpt lat="43.70650948541763" lon="10.890492608627403"><ele>24.0</ele><time>2026-04-19T18:19:47Z</time></trkpt><trkpt lat="43.706448645685406" lon="10.890219874753356"><ele>23.0</ele><time>2026-04-19T18:19:48Z</time></trkpt><trkpt lat="43.70639180197547" lon="10.889962392256763"><ele>22.0</ele><time>2026-04-19T18:19:49Z</time></trkpt><trkpt lat="43.706334157611465" lon="10.889702995342624"><ele>22.0</ele><time>2026-04-19T18:19:50Z</time></trkpt><trkpt lat="43.70627681212718" lon="10.889445961983547"><ele>22.0</ele><time>2026-04-19T18:19:51Z</time></trkpt><trkpt lat="43.70621820483457" lon="10.88918417163344"><ele>22.0</ele><time>2026-04-19T18:19:52Z</time></trkpt><trkpt lat="43.706155193051785" lon="10.888910010441862"><ele>22.666666666666664</ele><time>2026-04-19T18:19:53Z</time></trkpt><trkpt lat="43.70609022106042" lon="10.88862776607885"><ele>23.333333333333332</ele><time>2026-04-19T18:19:54Z</time></trkpt><trkpt lat="43.70602701790741" lon="10.888339069090506"><ele>24.0</ele><time>2026-04-19T18:19:55Z</time></trkpt><trkpt lat="43.705967908366546" lon="10.888057779995306"><ele>25.0</ele><time>2026-04-19T18:19:56Z</time></trkpt><trkpt lat="43.70590971176911" lon="10.88777900437377"><ele>26.0</ele><time>2026-04-19T18:19:57Z</time></trkpt><trkpt lat="43.7058528982412" lon="10.887506983055106"><ele>27.0</ele><time>2026-04-19T18:19:58Z</time></trkpt><trkpt lat="43.70579963363587" lon="10.887232507907191"><ele>27.333333333333336</ele><time>2026-04-19T18:19:59Z</time></trkpt><trkpt lat="43.705746358995945" lon="10.88695494626737"><ele>27.666666666666668</ele><time>2026-04-19T18:20:00Z</time></trkpt><trkpt lat="43.705692811194425" lon="10.886675603891165"><ele>28.0</ele><time>2026-04-19T18:20:01Z</time></trkpt><trkpt lat="43.705639829277565" lon="10.886391627479028"><ele>28.0</ele><time>2026-04-19T18:20:02Z</time></trkpt><trkpt lat="43.70559063049333" lon="10.886107172990945"><ele>28.0</ele><time>2026-04-19T18:20:03Z</time></trkpt><trkpt lat="43.705544236748" lon="10.885823043510623"><ele>28.0</ele><time>2026-04-19T18:20:04Z</time></trkpt><trkpt lat="43.70550085380562" lon="10.885538546093187"><ele>27.333333333333336</ele><time>2026-04-19T18:20:05Z</time></trkpt><trkpt lat="43.7054615614743" lon="10.885258239026644"><ele>26.666666666666664</ele><time>2026-04-19T18:20:06Z</time></trkpt><trkpt lat="43.705423635754656" lon="10.88497836797289"><ele>26.0</ele><time>2026-04-19T18:20:07Z</time></trkpt><trkpt lat="43.705384324685944" lon="10.884693014847395"><ele>25.666666666666664</ele><time>2026-04-19T18:20:08Z</time></trkpt><trkpt lat="43.70534646077652" lon="10.88440399761293"><ele>25.333333333333336</ele><time>2026-04-19T18:20:09Z</time></trkpt><trkpt lat="43.705307206667754" lon="10.884104269281632"><ele>25.0</ele><time>2026-04-19T18:20:10Z</time></trkpt><trkpt lat="43.7052677277424" lon="10.883799497168553"><ele>25.0</ele><time>2026-04-19T18:20:11Z</time></trkpt><trkpt lat="43.70522847828254" lon="10.883496206733893"><ele>25.0</ele><time>2026-04-19T18:20:12Z</time></trkpt><trkpt lat="43.705187732248426" lon="10.883195692726758"><ele>25.0</ele><time>2026-04-19T18:20:13Z</time></trkpt><trkpt lat="43.70514705883777" lon="10.88289688242834"><ele>24.666666666666668</ele><time>2026-04-19T18:20:14Z</time></trkpt><trkpt lat="43.705106313153074" lon="10.882596365367927"><ele>24.333333333333336</ele><time>2026-04-19T18:20:15Z</time></trkpt><trkpt lat="43.70506748182155" lon="10.88230568158373"><ele>24.0</ele><time>2026-04-19T18:20:16Z</time></trkpt><trkpt lat="43.70503086988679" lon="10.882024186705344"><ele>23.666666666666668</ele><time>2026-04-19T18:20:17Z</time></trkpt><trkpt lat="43.70499580197141" lon="10.881746684584106"><ele>23.333333333333336</ele><time>2026-04-19T18:20:18Z</time></trkpt><trkpt lat="43.70495912537224" lon="10.881466726467231"><ele>23.0</ele><time>2026-04-19T18:20:19Z</time></trkpt><trkpt lat="43.704920070890076" lon="10.8811958710749"><ele>23.666666666666668</ele><time>2026-04-19T18:20:20Z</time></trkpt><trkpt lat="43.70488185151896" lon="10.88092581217621"><ele>24.333333333333336</ele><time>2026-04-19T18:20:21Z</time></trkpt><trkpt lat="43.704843742827684" lon="10.880642600300186"><ele>25.0</ele><time>2026-04-19T18:20:22Z</time></trkpt><trkpt lat="43.70480524967053" lon="10.880338764513585"><ele>24.5</ele><time>2026-04-19T18:20:23Z</time></trkpt><trkpt lat="43.704766087165034" lon="10.88002622981491"><ele>24.0</ele><time>2026-04-19T18:20:24Z</time></trkpt><trkpt lat="43.70472489960961" lon="10.879711113489329"><ele>24.0</ele><time>2026-04-19T18:20:25Z</time></trkpt><trkpt lat="43.704684885593316" lon="10.879412426438867"><ele>24.0</ele><time>2026-04-19T18:20:26Z</time></trkpt><trkpt lat="43.70464673993773" lon="10.879120717133944"><ele>24.0</ele><time>2026-04-19T18:20:27Z</time></trkpt><trkpt lat="43.70460852339508" lon="10.878826869197422"><ele>24.0</ele><time>2026-04-19T18:20:28Z</time></trkpt><trkpt lat="43.70457081962687" lon="10.878531886030482"><ele>24.0</ele><time>2026-04-19T18:20:29Z</time></trkpt><trkpt lat="43.70453250289566" lon="10.878233462288192"><ele>24.0</ele><time>2026-04-19T18:20:30Z</time></trkpt><trkpt lat="43.704492592885494" lon="10.877936256067771"><ele>24.0</ele><time>2026-04-19T18:20:31Z</time></trkpt><trkpt lat="43.704451377823325" lon="10.87764028745848"><ele>24.0</ele><time>2026-04-19T18:20:32Z</time></trkpt><trkpt lat="43.70441299561009" lon="10.877348046984386"><ele>24.0</ele><time>2026-04-19T18:20:33Z</time></trkpt><trkpt lat="43.70437564868963" lon="10.877051020428679"><ele>23.666666666666668</ele><time>2026-04-19T18:20:34Z</time></trkpt><trkpt lat="43.70433729609566" lon="10.876754027607456"><ele>23.333333333333336</ele><time>2026-04-19T18:20:35Z</time></trkpt><trkpt lat="43.70429794811215" lon="10.87645860402678"><ele>23.0</ele><time>2026-04-19T18:20:36Z</time></trkpt><trkpt lat="43.7042576835086" lon="10.87615545457765"><ele>23.333333333333336</ele><time>2026-04-19T18:20:37Z</time></trkpt><trkpt lat="43.70421730932099" lon="10.875851110541955"><ele>23.666666666666668</ele><time>2026-04-19T18:20:38Z</time></trkpt><trkpt lat="43.70417828218486" lon="10.875549706657306"><ele>24.0</ele><time>2026-04-19T18:20:39Z</time></trkpt><trkpt lat="43.704140080512616" lon="10.87525508213053"><ele>23.333333333333332</ele><time>2026-04-19T18:20:40Z</time></trkpt><trkpt lat="43.70410207493144" lon="10.874956796346861"><ele>22.666666666666664</ele><time>2026-04-19T18:20:41Z</time></trkpt><trkpt lat="43.70406197014617" lon="10.87464908057543"><ele>22.0</ele><time>2026-04-19T18:20:42Z</time></trkpt><trkpt lat="43.704022121600666" lon="10.874338424999571"><ele>22.333333333333332</ele><time>2026-04-19T18:20:43Z</time></trkpt><trkpt lat="43.70398347762966" lon="10.874039072792133"><ele>22.666666666666668</ele><time>2026-04-19T18:20:44Z</time></trkpt><trkpt lat="43.703948131211774" lon="10.873751365784953"><ele>23.0</ele><time>2026-04-19T18:20:45Z</time></trkpt><trkpt lat="43.70391254461149" lon="10.873478168330044"><ele>23.666666666666668</ele><time>2026-04-19T18:20:46Z</time></trkpt><trkpt lat="43.70387602695119" lon="10.873206502050577"><ele>24.333333333333336</ele><time>2026-04-19T18:20:47Z</time></trkpt><trkpt lat="43.703840405942" lon="10.872935525678036"><ele>25.0</ele><time>2026-04-19T18:20:48Z</time></trkpt><trkpt lat="43.70380513065631" lon="10.872665608121576"><ele>25.0</ele><time>2026-04-19T18:20:49Z</time></trkpt><trkpt lat="43.70376872223064" lon="10.87240151405053"><ele>25.0</ele><time>2026-04-19T18:20:50Z</time></trkpt><trkpt lat="43.7037338071299" lon="10.872137071692968"><ele>25.0</ele><time>2026-04-19T18:20:51Z</time></trkpt><trkpt lat="43.7036986579866" lon="10.871876736035686"><ele>24.666666666666668</ele><time>2026-04-19T18:20:52Z</time></trkpt><trkpt lat="43.70366441706416" lon="10.871610529777117"><ele>24.333333333333336</ele><time>2026-04-19T18:20:53Z</time></trkpt><trkpt lat="43.70363170663122" lon="10.871343216011079"><ele>24.0</ele><time>2026-04-19T18:20:54Z</time></trkpt><trkpt lat="43.703599102128834" lon="10.871070639404019"><ele>24.666666666666664</ele><time>2026-04-19T18:20:55Z</time></trkpt><trkpt lat="43.70357077225045" lon="10.870813465880229"><ele>25.333333333333332</ele><time>2026-04-19T18:20:56Z</time></trkpt><trkpt lat="43.703548520787535" lon="10.870566430448855"><ele>26.0</ele><time>2026-04-19T18:20:57Z</time></trkpt><trkpt lat="43.703530480924336" lon="10.870322311893815"><ele>25.666666666666664</ele><time>2026-04-19T18:20:58Z</time></trkpt><trkpt lat="43.703516863585385" lon="10.870084524042914"><ele>25.333333333333336</ele><time>2026-04-19T18:20:59Z</time></trkpt><trkpt lat="43.70350659921956" lon="10.869835403121723"><ele>25.0</ele><time>2026-04-19T18:21:00Z</time></trkpt><trkpt lat="43.703502391967696" lon="10.86958361293406"><ele>25.0</ele><time>2026-04-19T18:21:01Z</time></trkpt><trkpt lat="43.703506119065594" lon="10.86932809659992"><ele>25.0</ele><time>2026-04-19T18:21:02Z</time></trkpt><trkpt lat="43.70351578638341" lon="10.869068640477812"><ele>25.0</ele><time>2026-04-19T18:21:03Z</time></trkpt><trkpt lat="43.70353111697349" lon="10.86879898282065"><ele>24.666666666666668</ele><time>2026-04-19T18:21:04Z</time></trkpt><trkpt lat="43.70355410141306" lon="10.868513032335082"><ele>24.333333333333336</ele><time>2026-04-19T18:21:05Z</time></trkpt><trkpt lat="43.70358414561476" lon="10.86822811056678"><ele>24.0</ele><time>2026-04-19T18:21:06Z</time></trkpt><trkpt lat="43.703621553800566" lon="10.867938584335509"><ele>23.666666666666668</ele><time>2026-04-19T18:21:07Z</time></trkpt><trkpt lat="43.70366571866439" lon="10.86764142865574"><ele>23.333333333333336</ele><time>2026-04-19T18:21:08Z</time></trkpt><trkpt lat="43.703711053654956" lon="10.867329872279594"><ele>23.0</ele><time>2026-04-19T18:21:09Z</time></trkpt><trkpt lat="43.70375655057789" lon="10.867027865756402"><ele>23.333333333333336</ele><time>2026-04-19T18:21:10Z</time></trkpt><trkpt lat="43.703802599099326" lon="10.86673140281377"><ele>23.666666666666668</ele><time>2026-04-19T18:21:11Z</time></trkpt><trkpt lat="43.70385012213457" lon="10.866433523812454"><ele>24.0</ele><time>2026-04-19T18:21:12Z</time></trkpt><trkpt lat="43.70390008998569" lon="10.866125639388894"><ele>24.0</ele><time>2026-04-19T18:21:13Z</time></trkpt><trkpt lat="43.70395176653055" lon="10.865803223421276"><ele>24.0</ele><time>2026-04-19T18:21:14Z</time></trkpt><trkpt lat="43.70400177440545" lon="10.865488223997485"><ele>24.0</ele><time>2026-04-19T18:21:15Z</time></trkpt><trkpt lat="43.70405019855889" lon="10.86518250964547"><ele>24.0</ele><time>2026-04-19T18:21:16Z</time></trkpt><trkpt lat="43.7040964560462" lon="10.864880268642558"><ele>23.0</ele><time>2026-04-19T18:21:17Z</time></trkpt><trkpt lat="43.70414110555721" lon="10.864567282394091"><ele>22.0</ele><time>2026-04-19T18:21:18Z</time></trkpt><trkpt lat="43.704182233653825" lon="10.864258772051341"><ele>22.0</ele><time>2026-04-19T18:21:19Z</time></trkpt><trkpt lat="43.70421876492872" lon="10.863958511538963"><ele>22.0</ele><time>2026-04-19T18:21:20Z</time></trkpt><trkpt lat="43.70425190796829" lon="10.863653557791839"><ele>22.0</ele><time>2026-04-19T18:21:21Z</time></trkpt><trkpt lat="43.70428077067609" lon="10.863345743429353"><ele>21.5</ele><time>2026-04-19T18:21:22Z</time></trkpt><trkpt lat="43.704303303620314" lon="10.863029038403498"><ele>21.0</ele><time>2026-04-19T18:21:23Z</time></trkpt><trkpt lat="43.70432174845066" lon="10.862716292590862"><ele>22.0</ele><time>2026-04-19T18:21:24Z</time></trkpt><trkpt lat="43.7043346718534" lon="10.862403507324808"><ele>23.0</ele><time>2026-04-19T18:21:25Z</time></trkpt><trkpt lat="43.70433971903675" lon="10.862091285562597"><ele>22.5</ele><time>2026-04-19T18:21:26Z</time></trkpt><trkpt lat="43.70433843054487" lon="10.861774206930594"><ele>22.0</ele><time>2026-04-19T18:21:27Z</time></trkpt><trkpt lat="43.7043308038281" lon="10.86145998163866"><ele>22.0</ele><time>2026-04-19T18:21:28Z</time></trkpt><trkpt lat="43.70431968684345" lon="10.861148578816913"><ele>22.0</ele><time>2026-04-19T18:21:29Z</time></trkpt><trkpt lat="43.704304392234846" lon="10.86083853301135"><ele>22.0</ele><time>2026-04-19T18:21:30Z</time></trkpt><trkpt lat="43.70428265511752" lon="10.860526861421395"><ele>22.0</ele><time>2026-04-19T18:21:31Z</time></trkpt><trkpt lat="43.7042541956513" lon="10.860202532000876"><ele>21.5</ele><time>2026-04-19T18:21:32Z</time></trkpt><trkpt lat="43.70421888480391" lon="10.859864154744953"><ele>21.0</ele><time>2026-04-19T18:21:33Z</time></trkpt><trkpt lat="43.70418174216465" lon="10.85953355412219"><ele>21.5</ele><time>2026-04-19T18:21:34Z</time></trkpt><trkpt lat="43.70414197392639" lon="10.859203697035337"><ele>22.0</ele><time>2026-04-19T18:21:35Z</time></trkpt><trkpt lat="43.70409932845437" lon="10.858868269500753"><ele>22.0</ele><time>2026-04-19T18:21:36Z</time></trkpt><trkpt lat="43.704056993905176" lon="10.8585307425805"><ele>22.0</ele><time>2026-04-19T18:21:37Z</time></trkpt><trkpt lat="43.70401359321527" lon="10.858194483991719"><ele>22.0</ele><time>2026-04-19T18:21:38Z</time></trkpt><trkpt lat="43.70397120354555" lon="10.857864400443662"><ele>22.0</ele><time>2026-04-19T18:21:39Z</time></trkpt><trkpt lat="43.703930082561286" lon="10.857541739187266"><ele>22.0</ele><time>2026-04-19T18:21:40Z</time></trkpt><trkpt lat="43.70389001722816" lon="10.857224173156512"><ele>22.0</ele><time>2026-04-19T18:21:41Z</time></trkpt><trkpt lat="43.7038491875082" lon="10.856910851599732"><ele>21.666666666666664</ele><time>2026-04-19T18:21:42Z</time></trkpt><trkpt lat="43.70380969227618" lon="10.856603113314954"><ele>21.333333333333332</ele><time>2026-04-19T18:21:43Z</time></trkpt><trkpt lat="43.70377037842359" lon="10.856298815536496"><ele>21.0</ele><time>2026-04-19T18:21:44Z</time></trkpt><trkpt lat="43.703729716126055" lon="10.855993222867985"><ele>21.5</ele><time>2026-04-19T18:21:45Z</time></trkpt><trkpt lat="43.70369061103457" lon="10.855681007240003"><ele>22.0</ele><time>2026-04-19T18:21:46Z</time></trkpt><trkpt lat="43.703649978594086" lon="10.855356161129345"><ele>22.0</ele><time>2026-04-19T18:21:47Z</time></trkpt><trkpt lat="43.70360693957868" lon="10.855018471097683"><ele>22.0</ele><time>2026-04-19T18:21:48Z</time></trkpt><trkpt lat="43.703563620189215" lon="10.85468734002656"><ele>22.0</ele><time>2026-04-19T18:21:49Z</time></trkpt><trkpt lat="43.703521033490425" lon="10.854360622302773"><ele>22.0</ele><time>2026-04-19T18:21:50Z</time></trkpt><trkpt lat="43.70347477209775" lon="10.854020744697591"><ele>22.0</ele><time>2026-04-19T18:21:51Z</time></trkpt><trkpt lat="43.70342927720102" lon="10.85368060051214"><ele>22.0</ele><time>2026-04-19T18:21:52Z</time></trkpt><trkpt lat="43.7033873131813" lon="10.853347399725592"><ele>22.0</ele><time>2026-04-19T18:21:53Z</time></trkpt><trkpt lat="43.70334819423907" lon="10.853023800457118"><ele>22.0</ele><time>2026-04-19T18:21:54Z</time></trkpt><trkpt lat="43.70330974853961" lon="10.852708921817841"><ele>22.0</ele><time>2026-04-19T18:21:55Z</time></trkpt><trkpt lat="43.70327274009795" lon="10.852402063224575"><ele>22.0</ele><time>2026-04-19T18:21:56Z</time></trkpt><trkpt lat="43.70323606119338" lon="10.852098172586214"><ele>22.0</ele><time>2026-04-19T18:21:57Z</time></trkpt><trkpt lat="43.703196962312624" lon="10.851790148800061"><ele>22.5</ele><time>2026-04-19T18:21:58Z</time></trkpt><trkpt lat="43.70315676071831" lon="10.851479452216333"><ele>23.0</ele><time>2026-04-19T18:21:59Z</time></trkpt><trkpt lat="43.70311481354266" lon="10.851166836991862"><ele>22.333333333333336</ele><time>2026-04-19T18:22:00Z</time></trkpt><trkpt lat="43.70307256354862" lon="10.850857994803967"><ele>21.666666666666668</ele><time>2026-04-19T18:22:01Z</time></trkpt><trkpt lat="43.703033827972234" lon="10.850557704892854"><ele>21.0</ele><time>2026-04-19T18:22:02Z</time></trkpt><trkpt lat="43.70299691723334" lon="10.850252536741932"><ele>21.5</ele><time>2026-04-19T18:22:03Z</time></trkpt><trkpt lat="43.70296093124559" lon="10.849942633173432"><ele>22.0</ele><time>2026-04-19T18:22:04Z</time></trkpt><trkpt lat="43.70292321352089" lon="10.84962784756441"><ele>22.0</ele><time>2026-04-19T18:22:05Z</time></trkpt><trkpt lat="43.70288282086149" lon="10.849316585690424"><ele>22.0</ele><time>2026-04-19T18:22:06Z</time></trkpt><trkpt lat="43.702844361259665" lon="10.849012684201366"><ele>22.0</ele><time>2026-04-19T18:22:07Z</time></trkpt><trkpt lat="43.70280876010394" lon="10.84871375540205"><ele>22.0</ele><time>2026-04-19T18:22:08Z</time></trkpt><trkpt lat="43.70277132558612" lon="10.84841411191823"><ele>22.0</ele><time>2026-04-19T18:22:09Z</time></trkpt><trkpt lat="43.70273490391049" lon="10.848120723354999"><ele>22.333333333333332</ele><time>2026-04-19T18:22:10Z</time></trkpt><trkpt lat="43.70269872376811" lon="10.847844058838373"><ele>22.666666666666668</ele><time>2026-04-19T18:22:11Z</time></trkpt><trkpt lat="43.70266254043342" lon="10.84757067343254"><ele>23.0</ele><time>2026-04-19T18:22:12Z</time></trkpt><trkpt lat="43.70262825086313" lon="10.847305252439478"><ele>23.0</ele><time>2026-04-19T18:22:13Z</time></trkpt><trkpt lat="43.7025951972617" lon="10.847043423909787"><ele>23.0</ele><time>2026-04-19T18:22:14Z</time></trkpt><trkpt lat="43.70256421363702" lon="10.846781609171643"><ele>23.0</ele><time>2026-04-19T18:22:15Z</time></trkpt><trkpt lat="43.70253315574875" lon="10.846519825305332"><ele>22.666666666666668</ele><time>2026-04-19T18:22:16Z</time></trkpt><trkpt lat="43.702501826330554" lon="10.846258892515516"><ele>22.333333333333332</ele><time>2026-04-19T18:22:17Z</time></trkpt><trkpt lat="43.70246862912553" lon="10.845994904186991"><ele>22.0</ele><time>2026-04-19T18:22:18Z</time></trkpt><trkpt lat="43.702433809532145" lon="10.845725323658165"><ele>22.0</ele><time>2026-04-19T18:22:19Z</time></trkpt><trkpt lat="43.70239842945377" lon="10.845457000119152"><ele>22.0</ele><time>2026-04-19T18:22:20Z</time></trkpt><trkpt lat="43.702361602931035" lon="10.845194524405915"><ele>22.0</ele><time>2026-04-19T18:22:21Z</time></trkpt><trkpt lat="43.70232540430637" lon="10.844941122774479"><ele>22.0</ele><time>2026-04-19T18:22:22Z</time></trkpt><trkpt lat="43.70228821030605" lon="10.844690254900492"><ele>22.0</ele><time>2026-04-19T18:22:23Z</time></trkpt><trkpt lat="43.70224627426037" lon="10.844436174224873"><ele>22.0</ele><time>2026-04-19T18:22:24Z</time></trkpt><trkpt lat="43.70220110614252" lon="10.844191982644071"><ele>21.666666666666664</ele><time>2026-04-19T18:22:25Z</time></trkpt><trkpt lat="43.702152844927475" lon="10.843948364276475"><ele>21.333333333333332</ele><time>2026-04-19T18:22:26Z</time></trkpt><trkpt lat="43.70209748582602" lon="10.843686210923881"><ele>21.0</ele><time>2026-04-19T18:22:27Z</time></trkpt><trkpt lat="43.70203510796924" lon="10.84341981502803"><ele>21.0</ele><time>2026-04-19T18:22:28Z</time></trkpt><trkpt lat="43.70196777526694" lon="10.843157178621755"><ele>21.0</ele><time>2026-04-19T18:22:29Z</time></trkpt><trkpt lat="43.70189200743822" lon="10.842900041849498"><ele>21.0</ele><time>2026-04-19T18:22:30Z</time></trkpt><trkpt lat="43.70180675156421" lon="10.842646695880475"><ele>21.333333333333332</ele><time>2026-04-19T18:22:31Z</time></trkpt><trkpt lat="43.701716663691386" lon="10.842391987515219"><ele>21.666666666666664</ele><time>2026-04-19T18:22:32Z</time></trkpt><trkpt lat="43.70162388197155" lon="10.84213062728421"><ele>22.0</ele><time>2026-04-19T18:22:33Z</time></trkpt><trkpt lat="43.70152374237638" lon="10.84187143674026"><ele>22.0</ele><time>2026-04-19T18:22:34Z</time></trkpt><trkpt lat="43.701413602737304" lon="10.841615282209027"><ele>22.0</ele><time>2026-04-19T18:22:35Z</time></trkpt><trkpt lat="43.70129624576859" lon="10.84135923696292"><ele>22.0</ele><time>2026-04-19T18:22:36Z</time></trkpt><trkpt lat="43.70117479538198" lon="10.84109951733791"><ele>21.666666666666664</ele><time>2026-04-19T18:22:37Z</time></trkpt><trkpt lat="43.701052161130825" lon="10.840843900656383"><ele>21.333333333333332</ele><time>2026-04-19T18:22:38Z</time></trkpt><trkpt lat="43.70093043289004" lon="10.840595244091146"><ele>21.0</ele><time>2026-04-19T18:22:39Z</time></trkpt><trkpt lat="43.700811663585355" lon="10.8403527618958"><ele>20.666666666666668</ele><time>2026-04-19T18:22:40Z</time></trkpt><trkpt lat="43.700690101486295" lon="10.840105756450216"><ele>20.333333333333336</ele><time>2026-04-19T18:22:41Z</time></trkpt><trkpt lat="43.70056958909801" lon="10.839866421652141"><ele>20.0</ele><time>2026-04-19T18:22:42Z</time></trkpt><trkpt lat="43.70045257181756" lon="10.839632789160866"><ele>20.0</ele><time>2026-04-19T18:22:43Z</time></trkpt><trkpt lat="43.70033616915592" lon="10.839401669157006"><ele>20.0</ele><time>2026-04-19T18:22:44Z</time></trkpt><trkpt lat="43.70021542534453" lon="10.839161443537439"><ele>20.0</ele><time>2026-04-19T18:22:45Z</time></trkpt><trkpt lat="43.700092319822716" lon="10.83891553290164"><ele>21.0</ele><time>2026-04-19T18:22:46Z</time></trkpt><trkpt lat="43.69996572755863" lon="10.838659746730082"><ele>22.0</ele><time>2026-04-19T18:22:47Z</time></trkpt><trkpt lat="43.699831055534524" lon="10.838394692263794"><ele>22.0</ele><time>2026-04-19T18:22:48Z</time></trkpt><trkpt lat="43.69969741675487" lon="10.838127193438941"><ele>22.0</ele><time>2026-04-19T18:22:49Z</time></trkpt><trkpt lat="43.69957058165211" lon="10.837870054417058"><ele>21.333333333333332</ele><time>2026-04-19T18:22:50Z</time></trkpt><trkpt lat="43.69944672503566" lon="10.837619686382652"><ele>20.666666666666668</ele><time>2026-04-19T18:22:51Z</time></trkpt><trkpt lat="43.699322659317886" lon="10.837370201227523"><ele>20.0</ele><time>2026-04-19T18:22:52Z</time></trkpt><trkpt lat="43.699202716662356" lon="10.837124596145438"><ele>20.0</ele><time>2026-04-19T18:22:53Z</time></trkpt><trkpt lat="43.699081273443895" lon="10.836877855310455"><ele>20.0</ele><time>2026-04-19T18:22:54Z</time></trkpt><trkpt lat="43.6989589565405" lon="10.836631401265787"><ele>20.0</ele><time>2026-04-19T18:22:55Z</time></trkpt><trkpt lat="43.698839413541464" lon="10.836392989367015"><ele>20.666666666666668</ele><time>2026-04-19T18:22:56Z</time></trkpt><trkpt lat="43.698721311509175" lon="10.83615718686423"><ele>21.333333333333332</ele><time>2026-04-19T18:22:57Z</time></trkpt><trkpt lat="43.69859965738492" lon="10.835912200854356"><ele>22.0</ele><time>2026-04-19T18:22:58Z</time></trkpt><trkpt lat="43.69848193514729" lon="10.835672805275859"><ele>22.0</ele><time>2026-04-19T18:22:59Z</time></trkpt><trkpt lat="43.69836798134055" lon="10.83544262277198"><ele>22.0</ele><time>2026-04-19T18:23:00Z</time></trkpt><trkpt lat="43.69825913884783" lon="10.835218857213885"><ele>22.0</ele><time>2026-04-19T18:23:01Z</time></trkpt><trkpt lat="43.698146831422285" lon="10.834990958976123"><ele>23.0</ele><time>2026-04-19T18:23:02Z</time></trkpt><trkpt lat="43.69803443344201" lon="10.83476545182558"><ele>24.0</ele><time>2026-04-19T18:23:03Z</time></trkpt><trkpt lat="43.697922494444846" lon="10.834540063860741"><ele>25.0</ele><time>2026-04-19T18:23:04Z</time></trkpt><trkpt lat="43.69781472127573" lon="10.83431227951329"><ele>24.333333333333336</ele><time>2026-04-19T18:23:05Z</time></trkpt><trkpt lat="43.69771137333789" lon="10.834080955575711"><ele>23.666666666666668</ele><time>2026-04-19T18:23:06Z</time></trkpt><trkpt lat="43.697605693296524" lon="10.833834941513436"><ele>23.0</ele><time>2026-04-19T18:23:07Z</time></trkpt><trkpt lat="43.697504308932906" lon="10.83358974871443"><ele>23.0</ele><time>2026-04-19T18:23:08Z</time></trkpt><trkpt lat="43.697409952603294" lon="10.83335454985376"><ele>23.0</ele><time>2026-04-19T18:23:09Z</time></trkpt><trkpt lat="43.697319550939376" lon="10.83310962753595"><ele>23.0</ele><time>2026-04-19T18:23:10Z</time></trkpt><trkpt lat="43.697234197477435" lon="10.832852230330534"><ele>23.0</ele><time>2026-04-19T18:23:11Z</time></trkpt><trkpt lat="43.69715678647836" lon="10.832595714183363"><ele>23.0</ele><time>2026-04-19T18:23:12Z</time></trkpt><trkpt lat="43.69708730277914" lon="10.832340099285462"><ele>23.0</ele><time>2026-04-19T18:23:13Z</time></trkpt><trkpt lat="43.69702426041732" lon="10.832086058697348"><ele>23.0</ele><time>2026-04-19T18:23:14Z</time></trkpt><trkpt lat="43.69696794768752" lon="10.831832231356803"><ele>23.0</ele><time>2026-04-19T18:23:15Z</time></trkpt><trkpt lat="43.6969160870027" lon="10.831569855597579"><ele>23.0</ele><time>2026-04-19T18:23:16Z</time></trkpt><trkpt lat="43.69686709291894" lon="10.831301712125061"><ele>22.333333333333336</ele><time>2026-04-19T18:23:17Z</time></trkpt><trkpt lat="43.696825164932875" lon="10.831025897995808"><ele>21.666666666666668</ele><time>2026-04-19T18:23:18Z</time></trkpt><trkpt lat="43.69679151637239" lon="10.830746274765742"><ele>21.0</ele><time>2026-04-19T18:23:19Z</time></trkpt><trkpt lat="43.6967681747095" lon="10.830464125151074"><ele>21.0</ele><time>2026-04-19T18:23:20Z</time></trkpt><trkpt lat="43.69675316274553" lon="10.830181188078285"><ele>21.0</ele><time>2026-04-19T18:23:21Z</time></trkpt><trkpt lat="43.69673983293228" lon="10.829904932906915"><ele>21.0</ele><time>2026-04-19T18:23:22Z</time></trkpt><trkpt lat="43.69672875218143" lon="10.82961913269273"><ele>21.333333333333332</ele><time>2026-04-19T18:23:23Z</time></trkpt><trkpt lat="43.696722596235205" lon="10.829322192259923"><ele>21.666666666666664</ele><time>2026-04-19T18:23:24Z</time></trkpt><trkpt lat="43.69672431305511" lon="10.829026264464845"><ele>22.0</ele><time>2026-04-19T18:23:25Z</time></trkpt><trkpt lat="43.69673659020118" lon="10.828734932589715"><ele>22.333333333333332</ele><time>2026-04-19T18:23:26Z</time></trkpt><trkpt lat="43.69675771641061" lon="10.828439766575812"><ele>22.666666666666668</ele><time>2026-04-19T18:23:27Z</time></trkpt><trkpt lat="43.69679053494876" lon="10.828125192075515"><ele>23.0</ele><time>2026-04-19T18:23:28Z</time></trkpt><trkpt lat="43.696832464408594" lon="10.827803538807585"><ele>22.666666666666668</ele><time>2026-04-19T18:23:29Z</time></trkpt><trkpt lat="43.69687903707727" lon="10.827492219359154"><ele>22.333333333333332</ele><time>2026-04-19T18:23:30Z</time></trkpt><trkpt lat="43.69692664209522" lon="10.82719864279033"><ele>22.0</ele><time>2026-04-19T18:23:31Z</time></trkpt><trkpt lat="43.69697686006634" lon="10.826911099505283"><ele>21.666666666666664</ele><time>2026-04-19T18:23:32Z</time></trkpt><trkpt lat="43.69703141656685" lon="10.826623282154799"><ele>21.333333333333332</ele><time>2026-04-19T18:23:33Z</time></trkpt><trkpt lat="43.69708872866752" lon="10.826331665959133"><ele>21.0</ele><time>2026-04-19T18:23:34Z</time></trkpt><trkpt lat="43.69714863642411" lon="10.826036359605132"><ele>20.666666666666668</ele><time>2026-04-19T18:23:35Z</time></trkpt><trkpt lat="43.697208846188246" lon="10.825736384191103"><ele>20.333333333333336</ele><time>2026-04-19T18:23:36Z</time></trkpt><trkpt lat="43.69726773121833" lon="10.825437103413236"><ele>20.0</ele><time>2026-04-19T18:23:37Z</time></trkpt><trkpt lat="43.69732632568317" lon="10.825134790163466"><ele>19.666666666666668</ele><time>2026-04-19T18:23:38Z</time></trkpt><trkpt lat="43.697383817129975" lon="10.824837557072138"><ele>19.333333333333332</ele><time>2026-04-19T18:23:39Z</time></trkpt><trkpt lat="43.69744202362896" lon="10.82454167759522"><ele>19.0</ele><time>2026-04-19T18:23:40Z</time></trkpt><trkpt lat="43.697500573183724" lon="10.82424124660574"><ele>19.0</ele><time>2026-04-19T18:23:41Z</time></trkpt><trkpt lat="43.6975615250522" lon="10.823935044286408"><ele>19.0</ele><time>2026-04-19T18:23:42Z</time></trkpt><trkpt lat="43.697622520530125" lon="10.823626574290339"><ele>19.0</ele><time>2026-04-19T18:23:43Z</time></trkpt><trkpt lat="43.69768072142623" lon="10.823325462400003"><ele>19.0</ele><time>2026-04-19T18:23:44Z</time></trkpt><trkpt lat="43.697737459200944" lon="10.823035761648987"><ele>19.0</ele><time>2026-04-19T18:23:45Z</time></trkpt><trkpt lat="43.69779399114747" lon="10.82274950962716"><ele>19.333333333333332</ele><time>2026-04-19T18:23:46Z</time></trkpt><trkpt lat="43.69785081447568" lon="10.822464512500423"><ele>19.666666666666668</ele><time>2026-04-19T18:23:47Z</time></trkpt><trkpt lat="43.69790866549021" lon="10.822175395140192"><ele>20.0</ele><time>2026-04-19T18:23:48Z</time></trkpt><trkpt lat="43.69796734887495" lon="10.821878898835218"><ele>20.0</ele><time>2026-04-19T18:23:49Z</time></trkpt><trkpt lat="43.69802622383692" lon="10.821581354644678"><ele>20.0</ele><time>2026-04-19T18:23:50Z</time></trkpt><trkpt lat="43.698083858437876" lon="10.821285309605916"><ele>20.0</ele><time>2026-04-19T18:23:51Z</time></trkpt><trkpt lat="43.69813907156527" lon="10.821001207409177"><ele>20.0</ele><time>2026-04-19T18:23:52Z</time></trkpt><trkpt lat="43.6981945783265" lon="10.82071865519157"><ele>20.0</ele><time>2026-04-19T18:23:53Z</time></trkpt><trkpt lat="43.6982493007502" lon="10.820433861429597"><ele>20.0</ele><time>2026-04-19T18:23:54Z</time></trkpt><trkpt lat="43.69830589372066" lon="10.82014087380161"><ele>20.0</ele><time>2026-04-19T18:23:55Z</time></trkpt><trkpt lat="43.69836584700371" lon="10.81983666785128"><ele>20.0</ele><time>2026-04-19T18:23:56Z</time></trkpt><trkpt lat="43.698424885014504" lon="10.819529195149087"><ele>20.0</ele><time>2026-04-19T18:23:57Z</time></trkpt><trkpt lat="43.69848045009768" lon="10.819228921921908"><ele>20.0</ele><time>2026-04-19T18:23:58Z</time></trkpt><trkpt lat="43.698530137021436" lon="10.818935389813419"><ele>20.0</ele><time>2026-04-19T18:23:59Z</time></trkpt><trkpt lat="43.69857682456422" lon="10.818644559726858"><ele>20.333333333333336</ele><time>2026-04-19T18:24:00Z</time></trkpt><trkpt lat="43.698619616214245" lon="10.818351858655852"><ele>20.666666666666668</ele><time>2026-04-19T18:24:01Z</time></trkpt><trkpt lat="43.69866020123378" lon="10.818046983998633"><ele>21.0</ele><time>2026-04-19T18:24:02Z</time></trkpt><trkpt lat="43.69869849033834" lon="10.817738853034998"><ele>21.5</ele><time>2026-04-19T18:24:03Z</time></trkpt><trkpt lat="43.698734098496665" lon="10.817432879555803"><ele>22.0</ele><time>2026-04-19T18:24:04Z</time></trkpt><trkpt lat="43.6987670829996" lon="10.817120792484326"><ele>22.0</ele><time>2026-04-19T18:24:05Z</time></trkpt><trkpt lat="43.69879523213202" lon="10.816807664018375"><ele>22.0</ele><time>2026-04-19T18:24:06Z</time></trkpt><trkpt lat="43.69881819648129" lon="10.8165046072842"><ele>22.0</ele><time>2026-04-19T18:24:07Z</time></trkpt><trkpt lat="43.69883575410169" lon="10.816209356877076"><ele>21.666666666666664</ele><time>2026-04-19T18:24:08Z</time></trkpt><trkpt lat="43.69884974328097" lon="10.815918212086098"><ele>21.333333333333332</ele><time>2026-04-19T18:24:09Z</time></trkpt><trkpt lat="43.69886040671156" lon="10.815623249833072"><ele>21.0</ele><time>2026-04-19T18:24:10Z</time></trkpt><trkpt lat="43.69886902627746" lon="10.815312151914117"><ele>20.5</ele><time>2026-04-19T18:24:11Z</time></trkpt><trkpt lat="43.69887325733757" lon="10.814990977418647"><ele>20.0</ele><time>2026-04-19T18:24:12Z</time></trkpt><trkpt lat="43.69887547707589" lon="10.81467313647799"><ele>20.0</ele><time>2026-04-19T18:24:13Z</time></trkpt><trkpt lat="43.69887199940584" lon="10.814365430452037"><ele>20.0</ele><time>2026-04-19T18:24:14Z</time></trkpt><trkpt lat="43.69886405479329" lon="10.81406120179501"><ele>20.0</ele><time>2026-04-19T18:24:15Z</time></trkpt><trkpt lat="43.69885271055963" lon="10.813754710207451"><ele>20.333333333333336</ele><time>2026-04-19T18:24:16Z</time></trkpt><trkpt lat="43.698840475941815" lon="10.813452381920577"><ele>20.666666666666668</ele><time>2026-04-19T18:24:17Z</time></trkpt><trkpt lat="43.69882443442151" lon="10.813155620070107"><ele>21.0</ele><time>2026-04-19T18:24:18Z</time></trkpt><trkpt lat="43.698803709789644" lon="10.812860296371872"><ele>21.333333333333332</ele><time>2026-04-19T18:24:19Z</time></trkpt><trkpt lat="43.69878011987985" lon="10.81255949077876"><ele>21.666666666666664</ele><time>2026-04-19T18:24:20Z</time></trkpt><trkpt lat="43.69875373528909" lon="10.812256501833875"><ele>22.0</ele><time>2026-04-19T18:24:21Z</time></trkpt><trkpt lat="43.69872444198763" lon="10.811952779597338"><ele>22.0</ele><time>2026-04-19T18:24:22Z</time></trkpt><trkpt lat="43.69869093931895" lon="10.811650393137832"><ele>22.0</ele><time>2026-04-19T18:24:23Z</time></trkpt><trkpt lat="43.69865694088272" lon="10.811352303457948"><ele>22.0</ele><time>2026-04-19T18:24:24Z</time></trkpt><trkpt lat="43.69862468101839" lon="10.81107700659557"><ele>22.0</ele><time>2026-04-19T18:24:25Z</time></trkpt><trkpt lat="43.698592195972225" lon="10.810802890407581"><ele>22.0</ele><time>2026-04-19T18:24:26Z</time></trkpt><trkpt lat="43.69855975673951" lon="10.810527863635778"><ele>22.0</ele><time>2026-04-19T18:24:27Z</time></trkpt><trkpt lat="43.69852489115313" lon="10.810251518040763"><ele>22.333333333333332</ele><time>2026-04-19T18:24:28Z</time></trkpt><trkpt lat="43.69848982456526" lon="10.809967726629916"><ele>22.666666666666668</ele><time>2026-04-19T18:24:29Z</time></trkpt><trkpt lat="43.69845362302549" lon="10.809676266474098"><ele>23.0</ele><time>2026-04-19T18:24:30Z</time></trkpt><trkpt lat="43.69841682933313" lon="10.809382403005042"><ele>22.666666666666668</ele><time>2026-04-19T18:24:31Z</time></trkpt><trkpt lat="43.6983818825605" lon="10.80909095379391"><ele>22.333333333333332</ele><time>2026-04-19T18:24:32Z</time></trkpt><trkpt lat="43.698346386068835" lon="10.808800216765915"><ele>22.0</ele><time>2026-04-19T18:24:33Z</time></trkpt><trkpt lat="43.69831206613969" lon="10.808516505835122"><ele>21.666666666666664</ele><time>2026-04-19T18:24:34Z</time></trkpt><trkpt lat="43.69827770067878" lon="10.808237003079913"><ele>21.333333333333332</ele><time>2026-04-19T18:24:35Z</time></trkpt><trkpt lat="43.69824316998031" lon="10.807963174471642"><ele>21.0</ele><time>2026-04-19T18:24:36Z</time></trkpt><trkpt lat="43.69820939284884" lon="10.807691939597687"><ele>21.0</ele><time>2026-04-19T18:24:37Z</time></trkpt><trkpt lat="43.69817544834197" lon="10.807424165875792"><ele>21.0</ele><time>2026-04-19T18:24:38Z</time></trkpt><trkpt lat="43.6981441788579" lon="10.807150764255272"><ele>21.0</ele><time>2026-04-19T18:24:39Z</time></trkpt><trkpt lat="43.69811099981624" lon="10.806873142413515"><ele>21.0</ele><time>2026-04-19T18:24:40Z</time></trkpt><trkpt lat="43.698077162698354" lon="10.806597429408004"><ele>21.0</ele><time>2026-04-19T18:24:41Z</time></trkpt><trkpt lat="43.69804360144074" lon="10.806319279824647"><ele>21.0</ele><time>2026-04-19T18:24:42Z</time></trkpt><trkpt lat="43.69801040194747" lon="10.806031623038626"><ele>21.0</ele><time>2026-04-19T18:24:43Z</time></trkpt><trkpt lat="43.69797491883544" lon="10.805740985041334"><ele>21.0</ele><time>2026-04-19T18:24:44Z</time></trkpt><trkpt lat="43.697940508067006" lon="10.805453516939993"><ele>21.0</ele><time>2026-04-19T18:24:45Z</time></trkpt><trkpt lat="43.6979070385298" lon="10.805166726750747"><ele>21.0</ele><time>2026-04-19T18:24:46Z</time></trkpt><trkpt lat="43.697875003929546" lon="10.804878181522168"><ele>21.0</ele><time>2026-04-19T18:24:47Z</time></trkpt><trkpt lat="43.697839469104856" lon="10.8045905368234"><ele>21.0</ele><time>2026-04-19T18:24:48Z</time></trkpt><trkpt lat="43.6978016207919" lon="10.804304059235038"><ele>21.0</ele><time>2026-04-19T18:24:49Z</time></trkpt><trkpt lat="43.6977654543058" lon="10.804017486808931"><ele>21.0</ele><time>2026-04-19T18:24:50Z</time></trkpt><trkpt lat="43.69773022065367" lon="10.803729160797424"><ele>21.0</ele><time>2026-04-19T18:24:51Z</time></trkpt><trkpt lat="43.697695313747616" lon="10.80344541821502"><ele>21.0</ele><time>2026-04-19T18:24:52Z</time></trkpt><trkpt lat="43.69766162690327" lon="10.80316486725256"><ele>21.0</ele><time>2026-04-19T18:24:53Z</time></trkpt><trkpt lat="43.6976296681182" lon="10.802886497942579"><ele>21.0</ele><time>2026-04-19T18:24:54Z</time></trkpt><trkpt lat="43.69759734445446" lon="10.802606689255983"><ele>21.333333333333332</ele><time>2026-04-19T18:24:55Z</time></trkpt><trkpt lat="43.69756353799251" lon="10.802323654817428"><ele>21.666666666666664</ele><time>2026-04-19T18:24:56Z</time></trkpt><trkpt lat="43.697528901263155" lon="10.80204079937168"><ele>22.0</ele><time>2026-04-19T18:24:57Z</time></trkpt><trkpt lat="43.69749468807137" lon="10.801757149562606"><ele>22.333333333333332</ele><time>2026-04-19T18:24:58Z</time></trkpt><trkpt lat="43.69746022843942" lon="10.801471477931859"><ele>22.666666666666668</ele><time>2026-04-19T18:24:59Z</time></trkpt><trkpt lat="43.697425303734036" lon="10.801186111589418"><ele>23.0</ele><time>2026-04-19T18:25:00Z</time></trkpt><trkpt lat="43.69739183954443" lon="10.800914455591226"><ele>23.0</ele><time>2026-04-19T18:25:01Z</time></trkpt><trkpt lat="43.69736015905481" lon="10.800645513348732"><ele>23.0</ele><time>2026-04-19T18:25:02Z</time></trkpt><trkpt lat="43.69732880188926" lon="10.800376524529943"><ele>23.0</ele><time>2026-04-19T18:25:03Z</time></trkpt><trkpt lat="43.697298219134936" lon="10.800106941278228"><ele>22.333333333333336</ele><time>2026-04-19T18:25:04Z</time></trkpt><trkpt lat="43.69726647715867" lon="10.79983893575031"><ele>21.666666666666668</ele><time>2026-04-19T18:25:05Z</time></trkpt><trkpt lat="43.697233669377574" lon="10.799579277473057"><ele>21.0</ele><time>2026-04-19T18:25:06Z</time></trkpt><trkpt lat="43.697200771558215" lon="10.799323325028933"><ele>21.0</ele><time>2026-04-19T18:25:07Z</time></trkpt><trkpt lat="43.69716958425568" lon="10.79906355589807"><ele>21.0</ele><time>2026-04-19T18:25:08Z</time></trkpt><trkpt lat="43.69713873465255" lon="10.798805269574629"><ele>21.0</ele><time>2026-04-19T18:25:09Z</time></trkpt><trkpt lat="43.69710793587601" lon="10.798549514406185"><ele>21.0</ele><time>2026-04-19T18:25:10Z</time></trkpt><trkpt lat="43.69707762609488" lon="10.798292952378661"><ele>21.0</ele><time>2026-04-19T18:25:11Z</time></trkpt><trkpt lat="43.69704602107328" lon="10.798034145159708"><ele>21.0</ele><time>2026-04-19T18:25:12Z</time></trkpt><trkpt lat="43.697015444041064" lon="10.797772994952481"><ele>21.0</ele><time>2026-04-19T18:25:13Z</time></trkpt><trkpt lat="43.696986229890115" lon="10.7975219472561"><ele>21.0</ele><time>2026-04-19T18:25:14Z</time></trkpt><trkpt lat="43.69695566522236" lon="10.797271512535959"><ele>21.0</ele><time>2026-04-19T18:25:15Z</time></trkpt><trkpt lat="43.69692401170394" lon="10.797017570537275"><ele>21.333333333333332</ele><time>2026-04-19T18:25:16Z</time></trkpt><trkpt lat="43.69689270350964" lon="10.796757002254347"><ele>21.666666666666664</ele><time>2026-04-19T18:25:17Z</time></trkpt><trkpt lat="43.696860134349734" lon="10.796491927061268"><ele>22.0</ele><time>2026-04-19T18:25:18Z</time></trkpt><trkpt lat="43.69682508207565" lon="10.796225633774844"><ele>22.333333333333332</ele><time>2026-04-19T18:25:19Z</time></trkpt><trkpt lat="43.69678689128672" lon="10.795960135015413"><ele>22.666666666666668</ele><time>2026-04-19T18:25:20Z</time></trkpt><trkpt lat="43.69674489030077" lon="10.795693781328584"><ele>23.0</ele><time>2026-04-19T18:25:21Z</time></trkpt><trkpt lat="43.696699832392376" lon="10.795423428222131"><ele>22.333333333333336</ele><time>2026-04-19T18:25:22Z</time></trkpt><trkpt lat="43.69665261248849" lon="10.795149697011993"><ele>21.666666666666668</ele><time>2026-04-19T18:25:23Z</time></trkpt><trkpt lat="43.696599732402134" lon="10.794874895398005"><ele>21.0</ele><time>2026-04-19T18:25:24Z</time></trkpt><trkpt lat="43.69654028745455" lon="10.794601888447295"><ele>20.666666666666668</ele><time>2026-04-19T18:25:25Z</time></trkpt><trkpt lat="43.6964761461306" lon="10.794324483383887"><ele>20.333333333333336</ele><time>2026-04-19T18:25:26Z</time></trkpt><trkpt lat="43.69640864713415" lon="10.794041934603898"><ele>20.0</ele><time>2026-04-19T18:25:27Z</time></trkpt><trkpt lat="43.69634104492631" lon="10.793770001422793"><ele>20.0</ele><time>2026-04-19T18:25:28Z</time></trkpt><trkpt lat="43.69626915652791" lon="10.79350905007695"><ele>20.0</ele><time>2026-04-19T18:25:29Z</time></trkpt><trkpt lat="43.69619984321279" lon="10.793262526910157"><ele>20.0</ele><time>2026-04-19T18:25:30Z</time></trkpt><trkpt lat="43.6961216182441" lon="10.793016964590803"><ele>20.666666666666668</ele><time>2026-04-19T18:25:31Z</time></trkpt><trkpt lat="43.69603074566394" lon="10.792758362546685"><ele>21.333333333333332</ele><time>2026-04-19T18:25:32Z</time></trkpt><trkpt lat="43.69592450330976" lon="10.792484904090008"><ele>22.0</ele><time>2026-04-19T18:25:33Z</time></trkpt><trkpt lat="43.69580943288285" lon="10.79219309917928"><ele>22.0</ele><time>2026-04-19T18:25:34Z</time></trkpt><trkpt lat="43.69568736206398" lon="10.791898273751041"><ele>22.0</ele><time>2026-04-19T18:25:35Z</time></trkpt><trkpt lat="43.69556221825273" lon="10.791615617591999"><ele>21.0</ele><time>2026-04-19T18:25:36Z</time></trkpt><trkpt lat="43.695425449468296" lon="10.791325068184058"><ele>20.0</ele><time>2026-04-19T18:25:37Z</time></trkpt><trkpt lat="43.69527703284523" lon="10.7910231004842"><ele>20.0</ele><time>2026-04-19T18:25:38Z</time></trkpt><trkpt lat="43.69512087542965" lon="10.790716440278274"><ele>20.0</ele><time>2026-04-19T18:25:39Z</time></trkpt><trkpt lat="43.69496122338487" lon="10.79041579533841"><ele>20.5</ele><time>2026-04-19T18:25:40Z</time></trkpt><trkpt lat="43.69480482815326" lon="10.790133356333774"><ele>21.0</ele><time>2026-04-19T18:25:41Z</time></trkpt><trkpt lat="43.69465465088149" lon="10.789879672975935"><ele>21.0</ele><time>2026-04-19T18:25:42Z</time></trkpt><trkpt lat="43.69450385569777" lon="10.789629426050817"><ele>21.0</ele><time>2026-04-19T18:25:43Z</time></trkpt><trkpt lat="43.694353642661696" lon="10.789374442358726"><ele>22.0</ele><time>2026-04-19T18:25:44Z</time></trkpt><trkpt lat="43.694199644384106" lon="10.789119009966594"><ele>23.0</ele><time>2026-04-19T18:25:45Z</time></trkpt><trkpt lat="43.69405066325374" lon="10.788867299474362"><ele>23.0</ele><time>2026-04-19T18:25:46Z</time></trkpt><trkpt lat="43.69390926683292" lon="10.788625290492893"><ele>23.0</ele><time>2026-04-19T18:25:47Z</time></trkpt><trkpt lat="43.6937627602714" lon="10.788387262686188"><ele>23.0</ele><time>2026-04-19T18:25:48Z</time></trkpt><trkpt lat="43.69361022176054" lon="10.788134691020597"><ele>23.0</ele><time>2026-04-19T18:25:49Z</time></trkpt><trkpt lat="43.693452750362745" lon="10.787870446982886"><ele>23.0</ele><time>2026-04-19T18:25:50Z</time></trkpt><trkpt lat="43.69329379468641" lon="10.787603321584713"><ele>23.0</ele><time>2026-04-19T18:25:51Z</time></trkpt><trkpt lat="43.69314255800773" lon="10.787349885555814"><ele>23.0</ele><time>2026-04-19T18:25:52Z</time></trkpt><trkpt lat="43.69298977938216" lon="10.787091101421613"><ele>23.0</ele><time>2026-04-19T18:25:53Z</time></trkpt><trkpt lat="43.69283327206618" lon="10.786823562940473"><ele>22.0</ele><time>2026-04-19T18:25:54Z</time></trkpt><trkpt lat="43.69267730713883" lon="10.786557682253463"><ele>21.0</ele><time>2026-04-19T18:25:55Z</time></trkpt><trkpt lat="43.69252050948683" lon="10.786291373601273"><ele>21.0</ele><time>2026-04-19T18:25:56Z</time></trkpt><trkpt lat="43.69236281406748" lon="10.786028016219419"><ele>21.0</ele><time>2026-04-19T18:25:57Z</time></trkpt><trkpt lat="43.69220449018441" lon="10.785764464231999"><ele>22.0</ele><time>2026-04-19T18:25:58Z</time></trkpt><trkpt lat="43.69203981444723" lon="10.785488306935946"><ele>23.0</ele><time>2026-04-19T18:25:59Z</time></trkpt><trkpt lat="43.69186963874029" lon="10.785203762393465"><ele>22.5</ele><time>2026-04-19T18:26:00Z</time></trkpt><trkpt lat="43.691700831081356" lon="10.784916740683302"><ele>22.0</ele><time>2026-04-19T18:26:01Z</time></trkpt><trkpt lat="43.69153529325043" lon="10.784629610461867"><ele>22.0</ele><time>2026-04-19T18:26:02Z</time></trkpt><trkpt lat="43.69137379113499" lon="10.784352358235441"><ele>22.0</ele><time>2026-04-19T18:26:03Z</time></trkpt><trkpt lat="43.691215689838465" lon="10.784074821552732"><ele>23.0</ele><time>2026-04-19T18:26:04Z</time></trkpt><trkpt lat="43.69105864719995" lon="10.783798501207402"><ele>24.0</ele><time>2026-04-19T18:26:05Z</time></trkpt><trkpt lat="43.6909046647286" lon="10.783530254790445"><ele>23.5</ele><time>2026-04-19T18:26:06Z</time></trkpt><trkpt lat="43.690755488617135" lon="10.783267451038538"><ele>23.0</ele><time>2026-04-19T18:26:07Z</time></trkpt><trkpt lat="43.690611388182106" lon="10.783010469169533"><ele>23.0</ele><time>2026-04-19T18:26:08Z</time></trkpt><trkpt lat="43.690475379676286" lon="10.782763700706912"><ele>23.0</ele><time>2026-04-19T18:26:09Z</time></trkpt><trkpt lat="43.69034452083255" lon="10.782529283567133"><ele>23.0</ele><time>2026-04-19T18:26:10Z</time></trkpt><trkpt lat="43.690210244782264" lon="10.782293348129553"><ele>22.666666666666668</ele><time>2026-04-19T18:26:11Z</time></trkpt><trkpt lat="43.69007665138111" lon="10.782063761116179"><ele>22.333333333333332</ele><time>2026-04-19T18:26:12Z</time></trkpt><trkpt lat="43.68994424115457" lon="10.78184043876933"><ele>22.0</ele><time>2026-04-19T18:26:13Z</time></trkpt><trkpt lat="43.68981033693303" lon="10.781615878553964"><ele>22.0</ele><time>2026-04-19T18:26:14Z</time></trkpt><trkpt lat="43.68967677391305" lon="10.781390009460976"><ele>22.0</ele><time>2026-04-19T18:26:15Z</time></trkpt><trkpt lat="43.68954402518218" lon="10.781164410110836"><ele>22.0</ele><time>2026-04-19T18:26:16Z</time></trkpt><trkpt lat="43.68941434654696" lon="10.78094277088083"><ele>23.0</ele><time>2026-04-19T18:26:17Z</time></trkpt><trkpt lat="43.68928642696936" lon="10.780725726844924"><ele>24.0</ele><time>2026-04-19T18:26:18Z</time></trkpt><trkpt lat="43.689156710384324" lon="10.780506407098192"><ele>25.0</ele><time>2026-04-19T18:26:19Z</time></trkpt><trkpt lat="43.689028830791315" lon="10.780288418187308"><ele>24.666666666666668</ele><time>2026-04-19T18:26:20Z</time></trkpt><trkpt lat="43.68890300338901" lon="10.780072349176988"><ele>24.333333333333336</ele><time>2026-04-19T18:26:21Z</time></trkpt><trkpt lat="43.68877604436631" lon="10.77985597121882"><ele>24.0</ele><time>2026-04-19T18:26:22Z</time></trkpt><trkpt lat="43.688649399392936" lon="10.77963720252242"><ele>26.0</ele><time>2026-04-19T18:26:23Z</time></trkpt><trkpt lat="43.68852600367634" lon="10.77942609630568"><ele>28.0</ele><time>2026-04-19T18:26:24Z</time></trkpt><trkpt lat="43.68840421503295" lon="10.779221178761567"><ele>30.0</ele><time>2026-04-19T18:26:25Z</time></trkpt><trkpt lat="43.68827935631057" lon="10.779013272277737"><ele>30.333333333333336</ele><time>2026-04-19T18:26:26Z</time></trkpt><trkpt lat="43.68815173670217" lon="10.778797740510093"><ele>30.666666666666668</ele><time>2026-04-19T18:26:27Z</time></trkpt><trkpt lat="43.68802660892146" lon="10.778578799684126"><ele>31.0</ele><time>2026-04-19T18:26:28Z</time></trkpt><trkpt lat="43.68789726431068" lon="10.778351740152088"><ele>31.0</ele><time>2026-04-19T18:26:29Z</time></trkpt><trkpt lat="43.687767663531865" lon="10.778130363266104"><ele>31.0</ele><time>2026-04-19T18:26:30Z</time></trkpt><trkpt lat="43.687641687540086" lon="10.777916283227393"><ele>31.0</ele><time>2026-04-19T18:26:31Z</time></trkpt><trkpt lat="43.68752252150849" lon="10.7777109457383"><ele>33.66666666666667</ele><time>2026-04-19T18:26:32Z</time></trkpt><trkpt lat="43.687402399767194" lon="10.77750263931628"><ele>36.333333333333336</ele><time>2026-04-19T18:26:33Z</time></trkpt><trkpt lat="43.68728222156274" lon="10.777293802060274"><ele>39.0</ele><time>2026-04-19T18:26:34Z</time></trkpt><trkpt lat="43.68716519919358" lon="10.777079842983945"><ele>39.0</ele><time>2026-04-19T18:26:35Z</time></trkpt><trkpt lat="43.68705359266254" lon="10.776854828306055"><ele>39.0</ele><time>2026-04-19T18:26:36Z</time></trkpt><trkpt lat="43.68694745142954" lon="10.776630383918587"><ele>39.0</ele><time>2026-04-19T18:26:37Z</time></trkpt><trkpt lat="43.68684440884383" lon="10.776406979582053"><ele>41.0</ele><time>2026-04-19T18:26:38Z</time></trkpt><trkpt lat="43.68674589449618" lon="10.7761743428227"><ele>43.0</ele><time>2026-04-19T18:26:39Z</time></trkpt><trkpt lat="43.686656143254865" lon="10.77594058110816"><ele>45.0</ele><time>2026-04-19T18:26:40Z</time></trkpt><trkpt lat="43.68657129079426" lon="10.775697303021273"><ele>48.0</ele><time>2026-04-19T18:26:41Z</time></trkpt><trkpt lat="43.686488868248155" lon="10.77544630145717"><ele>51.0</ele><time>2026-04-19T18:26:42Z</time></trkpt><trkpt lat="43.68640984049733" lon="10.7751886249886"><ele>54.0</ele><time>2026-04-19T18:26:43Z</time></trkpt><trkpt lat="43.686336075715154" lon="10.774927354090439"><ele>54.0</ele><time>2026-04-19T18:26:44Z</time></trkpt><trkpt lat="43.68626107243951" lon="10.774661336142719"><ele>54.0</ele><time>2026-04-19T18:26:45Z</time></trkpt><trkpt lat="43.6861924454254" lon="10.774407521783258"><ele>54.0</ele><time>2026-04-19T18:26:46Z</time></trkpt><trkpt lat="43.68611551093418" lon="10.774147406358928"><ele>52.66666666666667</ele><time>2026-04-19T18:26:47Z</time></trkpt><trkpt lat="43.686034357655956" lon="10.773886840343001"><ele>51.333333333333336</ele><time>2026-04-19T18:26:48Z</time></trkpt><trkpt lat="43.68594516518905" lon="10.773620328013411"><ele>50.0</ele><time>2026-04-19T18:26:49Z</time></trkpt><trkpt lat="43.685853337220195" lon="10.77335706876292"><ele>49.0</ele><time>2026-04-19T18:26:50Z</time></trkpt><trkpt lat="43.68576055197727" lon="10.773099564933977"><ele>48.0</ele><time>2026-04-19T18:26:51Z</time></trkpt><trkpt lat="43.6856671988295" lon="10.77284836035124"><ele>47.0</ele><time>2026-04-19T18:26:52Z</time></trkpt><trkpt lat="43.68557370117357" lon="10.77259943007571"><ele>46.666666666666664</ele><time>2026-04-19T18:26:53Z</time></trkpt><trkpt lat="43.6854770514622" lon="10.772348641824797"><ele>46.333333333333336</ele><time>2026-04-19T18:26:54Z</time></trkpt><trkpt lat="43.68538150943258" lon="10.772097248401918"><ele>46.0</ele><time>2026-04-19T18:26:55Z</time></trkpt><trkpt lat="43.68528724089875" lon="10.771845117974953"><ele>44.0</ele><time>2026-04-19T18:26:56Z</time></trkpt><trkpt lat="43.68519188503313" lon="10.771594191321618"><ele>42.0</ele><time>2026-04-19T18:26:57Z</time></trkpt><trkpt lat="43.685095420351104" lon="10.771344899414968"><ele>40.0</ele><time>2026-04-19T18:26:58Z</time></trkpt><trkpt lat="43.685001165144385" lon="10.771092877984014"><ele>39.66666666666667</ele><time>2026-04-19T18:26:59Z</time></trkpt><trkpt lat="43.684908504152965" lon="10.770835420549645"><ele>39.333333333333336</ele><time>2026-04-19T18:27:00Z</time></trkpt><trkpt lat="43.68482004469912" lon="10.77057432160688"><ele>39.0</ele><time>2026-04-19T18:27:01Z</time></trkpt><trkpt lat="43.6847367421497" lon="10.770318002397103"><ele>39.0</ele><time>2026-04-19T18:27:02Z</time></trkpt><trkpt lat="43.684657762167454" lon="10.770067290422508"><ele>39.0</ele><time>2026-04-19T18:27:03Z</time></trkpt><trkpt lat="43.6845844231391" lon="10.769819658023142"><ele>39.0</ele><time>2026-04-19T18:27:04Z</time></trkpt><trkpt lat="43.684516723680865" lon="10.769570455816819"><ele>38.666666666666664</ele><time>2026-04-19T18:27:05Z</time></trkpt><trkpt lat="43.6844570671906" lon="10.7693101307199"><ele>38.33333333333333</ele><time>2026-04-19T18:27:06Z</time></trkpt><trkpt lat="43.68439997651719" lon="10.769036989760899"><ele>38.0</ele><time>2026-04-19T18:27:07Z</time></trkpt><trkpt lat="43.68434512872112" lon="10.768760957774857"><ele>37.33333333333333</ele><time>2026-04-19T18:27:08Z</time></trkpt><trkpt lat="43.68429474983299" lon="10.76847364384988"><ele>36.666666666666664</ele><time>2026-04-19T18:27:09Z</time></trkpt><trkpt lat="43.68425337010534" lon="10.768194345112189"><ele>36.0</ele><time>2026-04-19T18:27:10Z</time></trkpt><trkpt lat="43.68421986345057" lon="10.767918028016808"><ele>36.333333333333336</ele><time>2026-04-19T18:27:11Z</time></trkpt><trkpt lat="43.68419040156857" lon="10.767631908892689"><ele>36.66666666666667</ele><time>2026-04-19T18:27:12Z</time></trkpt><trkpt lat="43.68416442300075" lon="10.767334525147426"><ele>37.0</ele><time>2026-04-19T18:27:13Z</time></trkpt><trkpt lat="43.684142874324706" lon="10.767047882491543"><ele>36.0</ele><time>2026-04-19T18:27:14Z</time></trkpt><trkpt lat="43.68412609159603" lon="10.766767882743142"><ele>35.0</ele><time>2026-04-19T18:27:15Z</time></trkpt><trkpt lat="43.6841116293729" lon="10.766489001967376"><ele>34.0</ele><time>2026-04-19T18:27:16Z</time></trkpt><trkpt lat="43.684098613306226" lon="10.766210209276844"><ele>33.66666666666667</ele><time>2026-04-19T18:27:17Z</time></trkpt><trkpt lat="43.68408409148021" lon="10.765929966148674"><ele>33.333333333333336</ele><time>2026-04-19T18:27:18Z</time></trkpt><trkpt lat="43.684067275774616" lon="10.765643123937407"><ele>33.0</ele><time>2026-04-19T18:27:19Z</time></trkpt><trkpt lat="43.68405029476232" lon="10.765349131194247"><ele>33.0</ele><time>2026-04-19T18:27:20Z</time></trkpt><trkpt lat="43.68403359797604" lon="10.765060172928896"><ele>33.0</ele><time>2026-04-19T18:27:21Z</time></trkpt><trkpt lat="43.68401787910732" lon="10.764771592586635"><ele>33.0</ele><time>2026-04-19T18:27:22Z</time></trkpt><trkpt lat="43.684002932045544" lon="10.764475348122804"><ele>32.666666666666664</ele><time>2026-04-19T18:27:23Z</time></trkpt><trkpt lat="43.68398495308068" lon="10.76418001137022"><ele>32.33333333333333</ele><time>2026-04-19T18:27:24Z</time></trkpt><trkpt lat="43.68396116281758" lon="10.763879988168794"><ele>32.0</ele><time>2026-04-19T18:27:25Z</time></trkpt><trkpt lat="43.68393500342635" lon="10.763585059452815"><ele>32.0</ele><time>2026-04-19T18:27:26Z</time></trkpt><trkpt lat="43.68390686617586" lon="10.763299373444099"><ele>32.0</ele><time>2026-04-19T18:27:27Z</time></trkpt><trkpt lat="43.68387481278067" lon="10.763018920932574"><ele>32.0</ele><time>2026-04-19T18:27:28Z</time></trkpt><trkpt lat="43.68383672874385" lon="10.762748395171126"><ele>31.666666666666664</ele><time>2026-04-19T18:27:29Z</time></trkpt><trkpt lat="43.683795126993125" lon="10.762473805893924"><ele>31.333333333333336</ele><time>2026-04-19T18:27:30Z</time></trkpt><trkpt lat="43.68375436894663" lon="10.762213313762185"><ele>31.0</ele><time>2026-04-19T18:27:31Z</time></trkpt><trkpt lat="43.683708449841525" lon="10.76195450410134"><ele>31.333333333333336</ele><time>2026-04-19T18:27:32Z</time></trkpt><trkpt lat="43.68366001087457" lon="10.7616964628992"><ele>31.666666666666664</ele><time>2026-04-19T18:27:33Z</time></trkpt><trkpt lat="43.68360892461594" lon="10.761432311759918"><ele>32.0</ele><time>2026-04-19T18:27:34Z</time></trkpt><trkpt lat="43.683557585743976" lon="10.761172347053805"><ele>33.33333333333333</ele><time>2026-04-19T18:27:35Z</time></trkpt><trkpt lat="43.68350863450031" lon="10.760923101460532"><ele>34.666666666666664</ele><time>2026-04-19T18:27:36Z</time></trkpt><trkpt lat="43.6834618126981" lon="10.760673755012082"><ele>36.0</ele><time>2026-04-19T18:27:37Z</time></trkpt><trkpt lat="43.68341178292554" lon="10.76042001295526"><ele>35.666666666666664</ele><time>2026-04-19T18:27:38Z</time></trkpt><trkpt lat="43.68336067709666" lon="10.760166359708652"><ele>35.33333333333333</ele><time>2026-04-19T18:27:39Z</time></trkpt><trkpt lat="43.683308509777014" lon="10.759908653006077"><ele>35.0</ele><time>2026-04-19T18:27:40Z</time></trkpt><trkpt lat="43.683256771304805" lon="10.759648133406795"><ele>35.0</ele><time>2026-04-19T18:27:41Z</time></trkpt><trkpt lat="43.683205458330605" lon="10.759397520773897"><ele>35.0</ele><time>2026-04-19T18:27:42Z</time></trkpt><trkpt lat="43.6831496554561" lon="10.759152746703839"><ele>35.0</ele><time>2026-04-19T18:27:43Z</time></trkpt><trkpt lat="43.68309224153266" lon="10.758910432383363"><ele>34.33333333333333</ele><time>2026-04-19T18:27:44Z</time></trkpt><trkpt lat="43.683030434829725" lon="10.7586685981808"><ele>33.666666666666664</ele><time>2026-04-19T18:27:45Z</time></trkpt><trkpt lat="43.68296372232327" lon="10.758428898287413"><ele>33.0</ele><time>2026-04-19T18:27:46Z</time></trkpt><trkpt lat="43.682891982485856" lon="10.758191760273936"><ele>33.0</ele><time>2026-04-19T18:27:47Z</time></trkpt><trkpt lat="43.68281568916869" lon="10.757952729266341"><ele>33.0</ele><time>2026-04-19T18:27:48Z</time></trkpt><trkpt lat="43.682735239776264" lon="10.7577129276821"><ele>33.0</ele><time>2026-04-19T18:27:49Z</time></trkpt><trkpt lat="43.68264867096214" lon="10.757473750790053"><ele>32.333333333333336</ele><time>2026-04-19T18:27:50Z</time></trkpt><trkpt lat="43.68255724910689" lon="10.757238316498054"><ele>31.666666666666668</ele><time>2026-04-19T18:27:51Z</time></trkpt><trkpt lat="43.68245940852733" lon="10.757004144185787"><ele>31.0</ele><time>2026-04-19T18:27:52Z</time></trkpt><trkpt lat="43.68235669568114" lon="10.75677251006314"><ele>30.333333333333336</ele><time>2026-04-19T18:27:53Z</time></trkpt><trkpt lat="43.68225172162345" lon="10.75654581201454"><ele>29.666666666666664</ele><time>2026-04-19T18:27:54Z</time></trkpt><trkpt lat="43.68214950079352" lon="10.756336126716738"><ele>29.0</ele><time>2026-04-19T18:27:55Z</time></trkpt><trkpt lat="43.682044190590105" lon="10.756120475048153"><ele>28.666666666666664</ele><time>2026-04-19T18:27:56Z</time></trkpt><trkpt lat="43.68193521467013" lon="10.755903095893359"><ele>28.333333333333336</ele><time>2026-04-19T18:27:57Z</time></trkpt><trkpt lat="43.68182362619232" lon="10.755682720043238"><ele>28.0</ele><time>2026-04-19T18:27:58Z</time></trkpt><trkpt lat="43.68170795601817" lon="10.755457113951138"><ele>29.0</ele><time>2026-04-19T18:27:59Z</time></trkpt><trkpt lat="43.681592857178856" lon="10.755236970442208"><ele>30.0</ele><time>2026-04-19T18:28:00Z</time></trkpt><trkpt lat="43.6814777356064" lon="10.755016068936612"><ele>31.0</ele><time>2026-04-19T18:28:01Z</time></trkpt><trkpt lat="43.681366038273545" lon="10.75479685098166"><ele>31.333333333333336</ele><time>2026-04-19T18:28:02Z</time></trkpt><trkpt lat="43.68125135929873" lon="10.754568717957646"><ele>31.666666666666664</ele><time>2026-04-19T18:28:03Z</time></trkpt><trkpt lat="43.681131020454224" lon="10.754334695943003"><ele>32.0</ele><time>2026-04-19T18:28:04Z</time></trkpt><trkpt lat="43.68099656086098" lon="10.75408870333854"><ele>32.5</ele><time>2026-04-19T18:28:05Z</time></trkpt><trkpt lat="43.680852333533664" lon="10.753828154045957"><ele>33.0</ele><time>2026-04-19T18:28:06Z</time></trkpt><trkpt lat="43.680707229649116" lon="10.75354942605317"><ele>32.0</ele><time>2026-04-19T18:28:07Z</time></trkpt><trkpt lat="43.6805604450718" lon="10.753260491849977"><ele>31.0</ele><time>2026-04-19T18:28:08Z</time></trkpt><trkpt lat="43.680415783980905" lon="10.752970427512977"><ele>31.5</ele><time>2026-04-19T18:28:09Z</time></trkpt><trkpt lat="43.68027859233758" lon="10.752688758154145"><ele>32.0</ele><time>2026-04-19T18:28:10Z</time></trkpt><trkpt lat="43.68015006819558" lon="10.752418167246356"><ele>34.0</ele><time>2026-04-19T18:28:11Z</time></trkpt><trkpt lat="43.68002511536374" lon="10.752163850105015"><ele>36.0</ele><time>2026-04-19T18:28:12Z</time></trkpt><trkpt lat="43.679901667218644" lon="10.75191782370552"><ele>38.0</ele><time>2026-04-19T18:28:13Z</time></trkpt><trkpt lat="43.679780949266124" lon="10.751680012438868"><ele>37.666666666666664</ele><time>2026-04-19T18:28:14Z</time></trkpt><trkpt lat="43.67965797770568" lon="10.751442744536524"><ele>37.333333333333336</ele><time>2026-04-19T18:28:15Z</time></trkpt><trkpt lat="43.679535006941514" lon="10.751202426839106"><ele>37.0</ele><time>2026-04-19T18:28:16Z</time></trkpt><trkpt lat="43.679412489002864" lon="10.75096128516253"><ele>37.0</ele><time>2026-04-19T18:28:17Z</time></trkpt><trkpt lat="43.67929081695481" lon="10.750721555991715"><ele>37.0</ele><time>2026-04-19T18:28:18Z</time></trkpt><trkpt lat="43.67916539590821" lon="10.750473235230379"><ele>37.0</ele><time>2026-04-19T18:28:19Z</time></trkpt><trkpt lat="43.67903832993542" lon="10.750225363718375"><ele>35.66666666666667</ele><time>2026-04-19T18:28:20Z</time></trkpt><trkpt lat="43.67891323172553" lon="10.74998260234858"><ele>34.333333333333336</ele><time>2026-04-19T18:28:21Z</time></trkpt><trkpt lat="43.678796785103465" lon="10.74975945586472"><ele>33.0</ele><time>2026-04-19T18:28:22Z</time></trkpt><trkpt lat="43.6786824379202" lon="10.74953615144534"><ele>36.666666666666664</ele><time>2026-04-19T18:28:23Z</time></trkpt><trkpt lat="43.67856626856829" lon="10.749307571144152"><ele>40.33333333333333</ele><time>2026-04-19T18:28:24Z</time></trkpt><trkpt lat="43.67844820028383" lon="10.749072185907648"><ele>44.0</ele><time>2026-04-19T18:28:25Z</time></trkpt><trkpt lat="43.67832861771216" lon="10.748841042674341"><ele>44.0</ele><time>2026-04-19T18:28:26Z</time></trkpt><trkpt lat="43.678203401734564" lon="10.7486175745024"><ele>44.0</ele><time>2026-04-19T18:28:27Z</time></trkpt><trkpt lat="43.67807401327259" lon="10.748395291458928"><ele>44.0</ele><time>2026-04-19T18:28:28Z</time></trkpt><trkpt lat="43.67793708907247" lon="10.748172104869653"><ele>44.33333333333333</ele><time>2026-04-19T18:28:29Z</time></trkpt><trkpt lat="43.677796514938166" lon="10.747950740200862"><ele>44.666666666666664</ele><time>2026-04-19T18:28:30Z</time></trkpt><trkpt lat="43.67765477661468" lon="10.74773990099825"><ele>45.0</ele><time>2026-04-19T18:28:31Z</time></trkpt><trkpt lat="43.677513362214576" lon="10.747532216506334"><ele>45.0</ele><time>2026-04-19T18:28:32Z</time></trkpt><trkpt lat="43.677367715193846" lon="10.747337894814471"><ele>45.0</ele><time>2026-04-19T18:28:33Z</time></trkpt><trkpt lat="43.67721317364256" lon="10.747150625302462"><ele>45.0</ele><time>2026-04-19T18:28:34Z</time></trkpt><trkpt lat="43.67705455674627" lon="10.746960428791805"><ele>43.0</ele><time>2026-04-19T18:28:35Z</time></trkpt><trkpt lat="43.67689987956752" lon="10.746776829584864"><ele>41.0</ele><time>2026-04-19T18:28:36Z</time></trkpt><trkpt lat="43.676750171954865" lon="10.746601955142237"><ele>39.0</ele><time>2026-04-19T18:28:37Z</time></trkpt><trkpt lat="43.67660532378203" lon="10.746432661914591"><ele>39.0</ele><time>2026-04-19T18:28:38Z</time></trkpt><trkpt lat="43.67646690178471" lon="10.746272501027049"><ele>39.0</ele><time>2026-04-19T18:28:39Z</time></trkpt><trkpt lat="43.67633544745793" lon="10.74612448142743"><ele>39.0</ele><time>2026-04-19T18:28:40Z</time></trkpt><trkpt lat="43.67619822355169" lon="10.745969233203272"><ele>42.0</ele><time>2026-04-19T18:28:41Z</time></trkpt><trkpt lat="43.67605555838163" lon="10.745805791242843"><ele>45.0</ele><time>2026-04-19T18:28:42Z</time></trkpt><trkpt lat="43.67591077511989" lon="10.745639910127586"><ele>48.0</ele><time>2026-04-19T18:28:43Z</time></trkpt><trkpt lat="43.67576431956056" lon="10.745467716317114"><ele>48.0</ele><time>2026-04-19T18:28:44Z</time></trkpt><trkpt lat="43.67561261717249" lon="10.745293809636454"><ele>48.0</ele><time>2026-04-19T18:28:45Z</time></trkpt><trkpt lat="43.67545854336116" lon="10.74512020264927"><ele>48.0</ele><time>2026-04-19T18:28:46Z</time></trkpt><trkpt lat="43.67530211453675" lon="10.744946600350206"><ele>47.333333333333336</ele><time>2026-04-19T18:28:47Z</time></trkpt><trkpt lat="43.675147777746815" lon="10.744771825996573"><ele>46.66666666666667</ele><time>2026-04-19T18:28:48Z</time></trkpt><trkpt lat="43.6749984822958" lon="10.744599145331797"><ele>46.0</ele><time>2026-04-19T18:28:49Z</time></trkpt><trkpt lat="43.674851062942416" lon="10.744432576771683"><ele>46.0</ele><time>2026-04-19T18:28:50Z</time></trkpt><trkpt lat="43.6747036943801" lon="10.744264654725107"><ele>46.0</ele><time>2026-04-19T18:28:51Z</time></trkpt><trkpt lat="43.674552541972055" lon="10.744088241373552"><ele>46.0</ele><time>2026-04-19T18:28:52Z</time></trkpt><trkpt lat="43.674397730543255" lon="10.74391270209198"><ele>45.0</ele><time>2026-04-19T18:28:53Z</time></trkpt><trkpt lat="43.67424145837344" lon="10.74373604372991"><ele>44.0</ele><time>2026-04-19T18:28:54Z</time></trkpt><trkpt lat="43.67409014234667" lon="10.743568741648383"><ele>43.0</ele><time>2026-04-19T18:28:55Z</time></trkpt><trkpt lat="43.67394595672528" lon="10.743411318854713"><ele>42.66666666666667</ele><time>2026-04-19T18:28:56Z</time></trkpt><trkpt lat="43.673806312990045" lon="10.743254123834841"><ele>42.333333333333336</ele><time>2026-04-19T18:28:57Z</time></trkpt><trkpt lat="43.67366697754139" lon="10.743091718043086"><ele>42.0</ele><time>2026-04-19T18:28:58Z</time></trkpt><trkpt lat="43.67351535684275" lon="10.742914668687705"><ele>39.666666666666664</ele><time>2026-04-19T18:28:59Z</time></trkpt><trkpt lat="43.67336135073945" lon="10.742733478293509"><ele>37.33333333333333</ele><time>2026-04-19T18:29:00Z</time></trkpt><trkpt lat="43.673207958993736" lon="10.742547250735065"><ele>35.0</ele><time>2026-04-19T18:29:01Z</time></trkpt><trkpt lat="43.67306124240063" lon="10.742360834768792"><ele>35.0</ele><time>2026-04-19T18:29:02Z</time></trkpt><trkpt lat="43.672916883046305" lon="10.74217521211684"><ele>35.0</ele><time>2026-04-19T18:29:03Z</time></trkpt><trkpt lat="43.67277866593446" lon="10.741984796531595"><ele>35.0</ele><time>2026-04-19T18:29:04Z</time></trkpt><trkpt lat="43.67264542032574" lon="10.741793527076796"><ele>33.666666666666664</ele><time>2026-04-19T18:29:05Z</time></trkpt><trkpt lat="43.67251662328989" lon="10.74159897893981"><ele>32.333333333333336</ele><time>2026-04-19T18:29:06Z</time></trkpt><trkpt lat="43.672391706258736" lon="10.741401844972454"><ele>31.0</ele><time>2026-04-19T18:29:07Z</time></trkpt><trkpt lat="43.67226720214348" lon="10.741196205907222"><ele>31.0</ele><time>2026-04-19T18:29:08Z</time></trkpt><trkpt lat="43.67214506732122" lon="10.740980577225454"><ele>31.0</ele><time>2026-04-19T18:29:09Z</time></trkpt><trkpt lat="43.67202865456988" lon="10.74075287076029"><ele>31.0</ele><time>2026-04-19T18:29:10Z</time></trkpt><trkpt lat="43.671917419523865" lon="10.740516462892376"><ele>31.0</ele><time>2026-04-19T18:29:11Z</time></trkpt><trkpt lat="43.67181123901873" lon="10.740271840214907"><ele>31.0</ele><time>2026-04-19T18:29:12Z</time></trkpt><trkpt lat="43.671710251470664" lon="10.740020268931376"><ele>31.0</ele><time>2026-04-19T18:29:13Z</time></trkpt><trkpt lat="43.67161526311101" lon="10.739766118439084"><ele>30.666666666666668</ele><time>2026-04-19T18:29:14Z</time></trkpt><trkpt lat="43.67153284219912" lon="10.739509953252295"><ele>30.333333333333336</ele><time>2026-04-19T18:29:15Z</time></trkpt><trkpt lat="43.671460959686456" lon="10.739251034960182"><ele>30.0</ele><time>2026-04-19T18:29:16Z</time></trkpt><trkpt lat="43.67139251172443" lon="10.73899544429388"><ele>30.0</ele><time>2026-04-19T18:29:17Z</time></trkpt><trkpt lat="43.67133036973394" lon="10.738741677867614"><ele>30.0</ele><time>2026-04-19T18:29:18Z</time></trkpt><trkpt lat="43.671275831965396" lon="10.738481399678273"><ele>30.0</ele><time>2026-04-19T18:29:19Z</time></trkpt><trkpt lat="43.67122887908233" lon="10.738201455153414"><ele>30.0</ele><time>2026-04-19T18:29:20Z</time></trkpt><trkpt lat="43.671189411532374" lon="10.73793079243446"><ele>30.0</ele><time>2026-04-19T18:29:21Z</time></trkpt><trkpt lat="43.671156609623644" lon="10.737656900864241"><ele>30.0</ele><time>2026-04-19T18:29:22Z</time></trkpt><trkpt lat="43.67113361596288" lon="10.737370082753463"><ele>29.666666666666664</ele><time>2026-04-19T18:29:23Z</time></trkpt><trkpt lat="43.67111792653102" lon="10.737086911557698"><ele>29.333333333333332</ele><time>2026-04-19T18:29:24Z</time></trkpt><trkpt lat="43.67110827195479" lon="10.73680728261121"><ele>29.0</ele><time>2026-04-19T18:29:25Z</time></trkpt><trkpt lat="43.67110302663791" lon="10.736529275738803"><ele>27.666666666666664</ele><time>2026-04-19T18:29:26Z</time></trkpt><trkpt lat="43.67110221207019" lon="10.736258239927366"><ele>26.333333333333336</ele><time>2026-04-19T18:29:27Z</time></trkpt><trkpt lat="43.67111064477445" lon="10.735988533921137"><ele>25.0</ele><time>2026-04-19T18:29:28Z</time></trkpt><trkpt lat="43.671125437712746" lon="10.735727033820053"><ele>25.0</ele><time>2026-04-19T18:29:29Z</time></trkpt><trkpt lat="43.67114037119953" lon="10.735478985775725"><ele>25.0</ele><time>2026-04-19T18:29:30Z</time></trkpt><trkpt lat="43.671154475469805" lon="10.735229105688395"><ele>25.0</ele><time>2026-04-19T18:29:31Z</time></trkpt><trkpt lat="43.67117098164653" lon="10.734974372053172"><ele>25.0</ele><time>2026-04-19T18:29:32Z</time></trkpt><trkpt lat="43.67119073760252" lon="10.734707716535913"><ele>25.0</ele><time>2026-04-19T18:29:33Z</time></trkpt><trkpt lat="43.671214766857275" lon="10.734431167631964"><ele>25.0</ele><time>2026-04-19T18:29:34Z</time></trkpt><trkpt lat="43.67123869670563" lon="10.734148253583337"><ele>25.0</ele><time>2026-04-19T18:29:35Z</time></trkpt><trkpt lat="43.67126136951912" lon="10.733879104237369"><ele>25.0</ele><time>2026-04-19T18:29:36Z</time></trkpt><trkpt lat="43.67128345751757" lon="10.733615611437816"><ele>25.0</ele><time>2026-04-19T18:29:37Z</time></trkpt><trkpt lat="43.671305830381485" lon="10.733345328530266"><ele>25.0</ele><time>2026-04-19T18:29:38Z</time></trkpt><trkpt lat="43.671329175124846" lon="10.733063316919411"><ele>25.0</ele><time>2026-04-19T18:29:39Z</time></trkpt><trkpt lat="43.67135446515801" lon="10.73277249100187"><ele>25.0</ele><time>2026-04-19T18:29:40Z</time></trkpt><trkpt lat="43.67138011068357" lon="10.732489399159006"><ele>24.666666666666668</ele><time>2026-04-19T18:29:41Z</time></trkpt><trkpt lat="43.67140339472578" lon="10.732204806383288"><ele>24.333333333333336</ele><time>2026-04-19T18:29:42Z</time></trkpt><trkpt lat="43.67142716820304" lon="10.731928853031432"><ele>24.0</ele><time>2026-04-19T18:29:43Z</time></trkpt><trkpt lat="43.67145231733271" lon="10.731661043078928"><ele>24.0</ele><time>2026-04-19T18:29:44Z</time></trkpt><trkpt lat="43.67147679274109" lon="10.73139405915978"><ele>24.0</ele><time>2026-04-19T18:29:45Z</time></trkpt><trkpt lat="43.67150116341841" lon="10.731127135355091"><ele>24.0</ele><time>2026-04-19T18:29:46Z</time></trkpt><trkpt lat="43.67152639562324" lon="10.730852183626777"><ele>24.0</ele><time>2026-04-19T18:29:47Z</time></trkpt><trkpt lat="43.67154954201412" lon="10.730578379236952"><ele>24.0</ele><time>2026-04-19T18:29:48Z</time></trkpt><trkpt lat="43.67157109822087" lon="10.73031474551547"><ele>24.0</ele><time>2026-04-19T18:29:49Z</time></trkpt><trkpt lat="43.671595672325665" lon="10.730048752094406"><ele>24.333333333333336</ele><time>2026-04-19T18:29:50Z</time></trkpt><trkpt lat="43.671621232510375" lon="10.729773955051549"><ele>24.666666666666668</ele><time>2026-04-19T18:29:51Z</time></trkpt><trkpt lat="43.67164598552869" lon="10.72950046517591"><ele>25.0</ele><time>2026-04-19T18:29:52Z</time></trkpt><trkpt lat="43.67166931136929" lon="10.729240212865918"><ele>25.0</ele><time>2026-04-19T18:29:53Z</time></trkpt><trkpt lat="43.6716947481843" lon="10.728973074204822"><ele>25.0</ele><time>2026-04-19T18:29:54Z</time></trkpt><trkpt lat="43.671720977683755" lon="10.728702436693114"><ele>25.0</ele><time>2026-04-19T18:29:55Z</time></trkpt><trkpt lat="43.67174361006216" lon="10.72842781764674"><ele>25.333333333333336</ele><time>2026-04-19T18:29:56Z</time></trkpt><trkpt lat="43.67176669938887" lon="10.728158781867112"><ele>25.666666666666664</ele><time>2026-04-19T18:29:57Z</time></trkpt><trkpt lat="43.67179111526961" lon="10.727892832980958"><ele>26.0</ele><time>2026-04-19T18:29:58Z</time></trkpt><trkpt lat="43.67181481034464" lon="10.727622586512114"><ele>26.0</ele><time>2026-04-19T18:29:59Z</time></trkpt><trkpt lat="43.67183882269283" lon="10.72734926771195"><ele>26.0</ele><time>2026-04-19T18:30:00Z</time></trkpt><trkpt lat="43.671861571994334" lon="10.727083757802665"><ele>26.0</ele><time>2026-04-19T18:30:01Z</time></trkpt><trkpt lat="43.671880202398434" lon="10.726820015966712"><ele>24.333333333333332</ele><time>2026-04-19T18:30:02Z</time></trkpt><trkpt lat="43.67189327647829" lon="10.726551558965669"><ele>22.666666666666664</ele><time>2026-04-19T18:30:03Z</time></trkpt><trkpt lat="43.671900978746216" lon="10.726279134088422"><ele>21.0</ele><time>2026-04-19T18:30:04Z</time></trkpt><trkpt lat="43.67190273131147" lon="10.726006001311267"><ele>21.0</ele><time>2026-04-19T18:30:05Z</time></trkpt><trkpt lat="43.67190071597633" lon="10.725737223599083"><ele>21.0</ele><time>2026-04-19T18:30:06Z</time></trkpt><trkpt lat="43.67189480545261" lon="10.72547280012773"><ele>21.0</ele><time>2026-04-19T18:30:07Z</time></trkpt><trkpt lat="43.671882738373355" lon="10.725208247331448"><ele>21.666666666666668</ele><time>2026-04-19T18:30:08Z</time></trkpt><trkpt lat="43.6718633838166" lon="10.724946886921442"><ele>22.333333333333336</ele><time>2026-04-19T18:30:09Z</time></trkpt><trkpt lat="43.67183917043443" lon="10.724684847989977"><ele>23.0</ele><time>2026-04-19T18:30:10Z</time></trkpt><trkpt lat="43.6718118428972" lon="10.72442553144274"><ele>22.666666666666668</ele><time>2026-04-19T18:30:11Z</time></trkpt><trkpt lat="43.67177768252218" lon="10.724164169569184"><ele>22.333333333333332</ele><time>2026-04-19T18:30:12Z</time></trkpt><trkpt lat="43.6717340612181" lon="10.723901839872642"><ele>22.0</ele><time>2026-04-19T18:30:13Z</time></trkpt><trkpt lat="43.67168882805247" lon="10.72363539373061"><ele>21.666666666666664</ele><time>2026-04-19T18:30:14Z</time></trkpt><trkpt lat="43.67163695213839" lon="10.72336590132015"><ele>21.333333333333332</ele><time>2026-04-19T18:30:15Z</time></trkpt><trkpt lat="43.67157952691318" lon="10.723106794009157"><ele>21.0</ele><time>2026-04-19T18:30:16Z</time></trkpt><trkpt lat="43.67151861452745" lon="10.722852533957065"><ele>21.0</ele><time>2026-04-19T18:30:17Z</time></trkpt><trkpt lat="43.67145812646997" lon="10.722591559985853"><ele>21.0</ele><time>2026-04-19T18:30:18Z</time></trkpt><trkpt lat="43.67139317410862" lon="10.722324863320852"><ele>21.0</ele><time>2026-04-19T18:30:19Z</time></trkpt><trkpt lat="43.671327356171034" lon="10.72206494870996"><ele>21.0</ele><time>2026-04-19T18:30:20Z</time></trkpt><trkpt lat="43.67126345837246" lon="10.72180791286836"><ele>21.0</ele><time>2026-04-19T18:30:21Z</time></trkpt><trkpt lat="43.671200187823935" lon="10.721547933071715"><ele>21.0</ele><time>2026-04-19T18:30:22Z</time></trkpt><trkpt lat="43.67113530929199" lon="10.721286638247358"><ele>21.666666666666668</ele><time>2026-04-19T18:30:23Z</time></trkpt><trkpt lat="43.67106828666931" lon="10.721024545852728"><ele>22.333333333333336</ele><time>2026-04-19T18:30:24Z</time></trkpt><trkpt lat="43.67100119368771" lon="10.720762727693103"><ele>23.0</ele><time>2026-04-19T18:30:25Z</time></trkpt><trkpt lat="43.67093561755108" lon="10.720500390278005"><ele>22.666666666666668</ele><time>2026-04-19T18:30:26Z</time></trkpt><trkpt lat="43.67086807604357" lon="10.720224934421594"><ele>22.333333333333332</ele><time>2026-04-19T18:30:27Z</time></trkpt><trkpt lat="43.67080254320051" lon="10.719953886367467"><ele>22.0</ele><time>2026-04-19T18:30:28Z</time></trkpt><trkpt lat="43.67073729640649" lon="10.719690654506058"><ele>22.0</ele><time>2026-04-19T18:30:29Z</time></trkpt><trkpt lat="43.67067488054083" lon="10.719426358352536"><ele>22.0</ele><time>2026-04-19T18:30:30Z</time></trkpt><trkpt lat="43.67061168719026" lon="10.719162591107281"><ele>22.0</ele><time>2026-04-19T18:30:31Z</time></trkpt><trkpt lat="43.67054643776593" lon="10.718894759409185"><ele>21.333333333333332</ele><time>2026-04-19T18:30:32Z</time></trkpt><trkpt lat="43.670480969263046" lon="10.718635251224544"><ele>20.666666666666668</ele><time>2026-04-19T18:30:33Z</time></trkpt><trkpt lat="43.670417151538196" lon="10.718375251938665"><ele>20.0</ele><time>2026-04-19T18:30:34Z</time></trkpt><trkpt lat="43.67035309902291" lon="10.71811748299852"><ele>20.0</ele><time>2026-04-19T18:30:35Z</time></trkpt><trkpt lat="43.670289421006856" lon="10.717859309319563"><ele>20.0</ele><time>2026-04-19T18:30:36Z</time></trkpt><trkpt lat="43.67022651117742" lon="10.717602391951031"><ele>20.0</ele><time>2026-04-19T18:30:37Z</time></trkpt><trkpt lat="43.67016357512921" lon="10.717346151847803"><ele>20.0</ele><time>2026-04-19T18:30:38Z</time></trkpt><trkpt lat="43.67009973413738" lon="10.717087707982321"><ele>20.0</ele><time>2026-04-19T18:30:39Z</time></trkpt><trkpt lat="43.6700346350053" lon="10.716822657686746"><ele>20.0</ele><time>2026-04-19T18:30:40Z</time></trkpt><trkpt lat="43.66996867847571" lon="10.716559431736004"><ele>20.0</ele><time>2026-04-19T18:30:41Z</time></trkpt><trkpt lat="43.66990332387017" lon="10.716298758299951"><ele>20.0</ele><time>2026-04-19T18:30:42Z</time></trkpt><trkpt lat="43.669836237182565" lon="10.716038425843287"><ele>20.0</ele><time>2026-04-19T18:30:43Z</time></trkpt><trkpt lat="43.66976408612575" lon="10.715766512948356"><ele>20.0</ele><time>2026-04-19T18:30:44Z</time></trkpt><trkpt lat="43.66968523638139" lon="10.715494144713261"><ele>20.0</ele><time>2026-04-19T18:30:45Z</time></trkpt><trkpt lat="43.66960375326013" lon="10.715228503366184"><ele>20.0</ele><time>2026-04-19T18:30:46Z</time></trkpt><trkpt lat="43.66951812539364" lon="10.714961763643087"><ele>20.0</ele><time>2026-04-19T18:30:47Z</time></trkpt><trkpt lat="43.66942948196266" lon="10.71470844283117"><ele>20.0</ele><time>2026-04-19T18:30:48Z</time></trkpt><trkpt lat="43.66933500301319" lon="10.71446301273275"><ele>20.0</ele><time>2026-04-19T18:30:49Z</time></trkpt><trkpt lat="43.669232367329606" lon="10.714219667273374"><ele>19.666666666666668</ele><time>2026-04-19T18:30:50Z</time></trkpt><trkpt lat="43.66912774149541" lon="10.713981480179486"><ele>19.333333333333332</ele><time>2026-04-19T18:30:51Z</time></trkpt><trkpt lat="43.669020492967256" lon="10.713746088670012"><ele>19.0</ele><time>2026-04-19T18:30:52Z</time></trkpt><trkpt lat="43.66890568894962" lon="10.713516162198742"><ele>19.0</ele><time>2026-04-19T18:30:53Z</time></trkpt><trkpt lat="43.66878473677206" lon="10.713291507198381"><ele>19.0</ele><time>2026-04-19T18:30:54Z</time></trkpt><trkpt lat="43.668655814094365" lon="10.7130781558712"><ele>19.0</ele><time>2026-04-19T18:30:55Z</time></trkpt><trkpt lat="43.66852121399067" lon="10.712858878784594"><ele>19.666666666666664</ele><time>2026-04-19T18:30:56Z</time></trkpt><trkpt lat="43.66838096660333" lon="10.712647438912686"><ele>20.333333333333332</ele><time>2026-04-19T18:30:57Z</time></trkpt><trkpt lat="43.668239778964306" lon="10.712445328931382"><ele>21.0</ele><time>2026-04-19T18:30:58Z</time></trkpt><trkpt lat="43.66809461288495" lon="10.71225223867371"><ele>21.0</ele><time>2026-04-19T18:30:59Z</time></trkpt><trkpt lat="43.66794550383087" lon="10.712068673927384"><ele>21.0</ele><time>2026-04-19T18:31:00Z</time></trkpt><trkpt lat="43.66779694330581" lon="10.71189915064241"><ele>21.0</ele><time>2026-04-19T18:31:01Z</time></trkpt><trkpt lat="43.66764894723631" lon="10.711738991134519"><ele>20.333333333333332</ele><time>2026-04-19T18:31:02Z</time></trkpt><trkpt lat="43.6674985578713" lon="10.711582925241691"><ele>19.666666666666664</ele><time>2026-04-19T18:31:03Z</time></trkpt><trkpt lat="43.667339802840544" lon="10.711425272696367"><ele>19.0</ele><time>2026-04-19T18:31:04Z</time></trkpt><trkpt lat="43.66717831108435" lon="10.711273016157046"><ele>19.0</ele><time>2026-04-19T18:31:05Z</time></trkpt><trkpt lat="43.66700939328821" lon="10.711120614445232"><ele>19.0</ele><time>2026-04-19T18:31:06Z</time></trkpt><trkpt lat="43.66683106499482" lon="10.710972708810845"><ele>19.0</ele><time>2026-04-19T18:31:07Z</time></trkpt><trkpt lat="43.66665826002563" lon="10.710828722787737"><ele>19.666666666666664</ele><time>2026-04-19T18:31:08Z</time></trkpt><trkpt lat="43.66648445975419" lon="10.710680133504692"><ele>20.333333333333332</ele><time>2026-04-19T18:31:09Z</time></trkpt><trkpt lat="43.6663217221961" lon="10.710547797427225"><ele>21.0</ele><time>2026-04-19T18:31:10Z</time></trkpt><trkpt lat="43.666164631566645" lon="10.71042100420729"><ele>21.0</ele><time>2026-04-19T18:31:11Z</time></trkpt><trkpt lat="43.666006175581515" lon="10.710290702672845"><ele>21.0</ele><time>2026-04-19T18:31:12Z</time></trkpt><trkpt lat="43.66584778545502" lon="10.710156656151941"><ele>21.0</ele><time>2026-04-19T18:31:13Z</time></trkpt><trkpt lat="43.66569008302506" lon="10.710016847643782"><ele>21.0</ele><time>2026-04-19T18:31:14Z</time></trkpt><trkpt lat="43.66552949679944" lon="10.709872136009208"><ele>21.0</ele><time>2026-04-19T18:31:15Z</time></trkpt><trkpt lat="43.665367454934355" lon="10.709720610760051"><ele>21.0</ele><time>2026-04-19T18:31:16Z</time></trkpt><trkpt lat="43.66521214024548" lon="10.709559815823917"><ele>22.0</ele><time>2026-04-19T18:31:17Z</time></trkpt><trkpt lat="43.66506210706746" lon="10.709395209083993"><ele>23.0</ele><time>2026-04-19T18:31:18Z</time></trkpt><trkpt lat="43.664916723183865" lon="10.709225811473466"><ele>24.0</ele><time>2026-04-19T18:31:19Z</time></trkpt><trkpt lat="43.664769247193675" lon="10.70904308715125"><ele>24.0</ele><time>2026-04-19T18:31:20Z</time></trkpt><trkpt lat="43.66463311271171" lon="10.708849857014002"><ele>24.0</ele><time>2026-04-19T18:31:21Z</time></trkpt><trkpt lat="43.66449683097693" lon="10.708648207051034"><ele>24.0</ele><time>2026-04-19T18:31:22Z</time></trkpt><trkpt lat="43.664366122578905" lon="10.708443382016803"><ele>24.333333333333336</ele><time>2026-04-19T18:31:23Z</time></trkpt><trkpt lat="43.66423907487834" lon="10.708225935832173"><ele>24.666666666666668</ele><time>2026-04-19T18:31:24Z</time></trkpt><trkpt lat="43.66411276216931" lon="10.70799862158039"><ele>25.0</ele><time>2026-04-19T18:31:25Z</time></trkpt><trkpt lat="43.6639958128822" lon="10.707768005649024"><ele>25.333333333333336</ele><time>2026-04-19T18:31:26Z</time></trkpt><trkpt lat="43.66388638362801" lon="10.707527959558131"><ele>25.666666666666664</ele><time>2026-04-19T18:31:27Z</time></trkpt><trkpt lat="43.66377693739627" lon="10.70727289143824"><ele>26.0</ele><time>2026-04-19T18:31:28Z</time></trkpt><trkpt lat="43.66366833625315" lon="10.707015397501184"><ele>25.666666666666664</ele><time>2026-04-19T18:31:29Z</time></trkpt><trkpt lat="43.66357064926593" lon="10.706775557178863"><ele>25.333333333333336</ele><time>2026-04-19T18:31:30Z</time></trkpt><trkpt lat="43.66347819563941" lon="10.706536541402572"><ele>25.0</ele><time>2026-04-19T18:31:31Z</time></trkpt><trkpt lat="43.663388617060846" lon="10.706303534108747"><ele>25.333333333333336</ele><time>2026-04-19T18:31:32Z</time></trkpt><trkpt lat="43.66329822443258" lon="10.706075072827913"><ele>25.666666666666664</ele><time>2026-04-19T18:31:33Z</time></trkpt><trkpt lat="43.663206693148716" lon="10.705841375305836"><ele>26.0</ele><time>2026-04-19T18:31:34Z</time></trkpt><trkpt lat="43.66311351634522" lon="10.705598731231788"><ele>26.0</ele><time>2026-04-19T18:31:35Z</time></trkpt><trkpt lat="43.663021256447045" lon="10.70536276276166"><ele>26.0</ele><time>2026-04-19T18:31:36Z</time></trkpt><trkpt lat="43.66292947055723" lon="10.705137716667348"><ele>26.0</ele><time>2026-04-19T18:31:37Z</time></trkpt><trkpt lat="43.66283876685331" lon="10.704910987462846"><ele>27.0</ele><time>2026-04-19T18:31:38Z</time></trkpt><trkpt lat="43.66275251720477" lon="10.70469589110169"><ele>28.0</ele><time>2026-04-19T18:31:39Z</time></trkpt><trkpt lat="43.662664073483164" lon="10.70448256535168"><ele>29.0</ele><time>2026-04-19T18:31:40Z</time></trkpt><trkpt lat="43.66257159143183" lon="10.70427060737877"><ele>29.0</ele><time>2026-04-19T18:31:41Z</time></trkpt><trkpt lat="43.662475652578934" lon="10.704056245020578"><ele>29.0</ele><time>2026-04-19T18:31:42Z</time></trkpt><trkpt lat="43.662377471355605" lon="10.703840066204522"><ele>29.0</ele><time>2026-04-19T18:31:43Z</time></trkpt><trkpt lat="43.6622777291595" lon="10.703624340584959"><ele>29.666666666666664</ele><time>2026-04-19T18:31:44Z</time></trkpt><trkpt lat="43.662178786114566" lon="10.703407586595743"><ele>30.333333333333336</ele><time>2026-04-19T18:31:45Z</time></trkpt><trkpt lat="43.662079398960735" lon="10.703190845037598"><ele>31.0</ele><time>2026-04-19T18:31:46Z</time></trkpt><trkpt lat="43.661978557042815" lon="10.702973743369027"><ele>33.333333333333336</ele><time>2026-04-19T18:31:47Z</time></trkpt><trkpt lat="43.66188016899382" lon="10.702755345398103"><ele>35.666666666666664</ele><time>2026-04-19T18:31:48Z</time></trkpt><trkpt lat="43.6617845546225" lon="10.702539432565638"><ele>38.0</ele><time>2026-04-19T18:31:49Z</time></trkpt><trkpt lat="43.661688536555666" lon="10.702319899057935"><ele>38.0</ele><time>2026-04-19T18:31:50Z</time></trkpt><trkpt lat="43.661587416157985" lon="10.702098625409635"><ele>38.0</ele><time>2026-04-19T18:31:51Z</time></trkpt><trkpt lat="43.66149019640792" lon="10.701888007040987"><ele>38.0</ele><time>2026-04-19T18:31:52Z</time></trkpt><trkpt lat="43.66139964014664" lon="10.701688451184458"><ele>39.666666666666664</ele><time>2026-04-19T18:31:53Z</time></trkpt><trkpt lat="43.661308512379286" lon="10.701485546460457"><ele>41.333333333333336</ele><time>2026-04-19T18:31:54Z</time></trkpt><trkpt lat="43.661216195867986" lon="10.70127853908555"><ele>43.0</ele><time>2026-04-19T18:31:55Z</time></trkpt><trkpt lat="43.661123464750936" lon="10.701057560670423"><ele>43.0</ele><time>2026-04-19T18:31:56Z</time></trkpt><trkpt lat="43.66103181617614" lon="10.700823161072107"><ele>43.0</ele><time>2026-04-19T18:31:57Z</time></trkpt><trkpt lat="43.660942570929535" lon="10.700581907780697"><ele>43.0</ele><time>2026-04-19T18:31:58Z</time></trkpt><trkpt lat="43.66085474098641" lon="10.700309553876776"><ele>41.66666666666667</ele><time>2026-04-19T18:31:59Z</time></trkpt><trkpt lat="43.6607865385593" lon="10.700060370467504"><ele>40.333333333333336</ele><time>2026-04-19T18:32:00Z</time></trkpt><trkpt lat="43.66071861093708" lon="10.699811745729239"><ele>39.0</ele><time>2026-04-19T18:32:01Z</time></trkpt><trkpt lat="43.66065693608447" lon="10.699556639142752"><ele>40.333333333333336</ele><time>2026-04-19T18:32:02Z</time></trkpt><trkpt lat="43.66059636942129" lon="10.699293424735757"><ele>41.66666666666667</ele><time>2026-04-19T18:32:03Z</time></trkpt><trkpt lat="43.660535790183424" lon="10.69904167630528"><ele>43.0</ele><time>2026-04-19T18:32:04Z</time></trkpt><trkpt lat="43.660478969463526" lon="10.698799724616597"><ele>46.0</ele><time>2026-04-19T18:32:05Z</time></trkpt><trkpt lat="43.66042235256072" lon="10.698561598339808"><ele>49.0</ele><time>2026-04-19T18:32:06Z</time></trkpt><trkpt lat="43.660366392117794" lon="10.698324855313645"><ele>52.0</ele><time>2026-04-19T18:32:07Z</time></trkpt><trkpt lat="43.66030975601618" lon="10.698092901345563"><ele>52.0</ele><time>2026-04-19T18:32:08Z</time></trkpt><trkpt lat="43.66025408767651" lon="10.697860339213905"><ele>52.0</ele><time>2026-04-19T18:32:09Z</time></trkpt><trkpt lat="43.660200974827745" lon="10.697629322938717"><ele>52.0</ele><time>2026-04-19T18:32:10Z</time></trkpt><trkpt lat="43.6601477908729" lon="10.697397111028192"><ele>52.0</ele><time>2026-04-19T18:32:11Z</time></trkpt><trkpt lat="43.66009457500542" lon="10.697173269234332"><ele>52.0</ele><time>2026-04-19T18:32:12Z</time></trkpt><trkpt lat="43.66003927130106" lon="10.69693839011037"><ele>52.0</ele><time>2026-04-19T18:32:13Z</time></trkpt><trkpt lat="43.659982570707804" lon="10.696706693872638"><ele>50.33333333333333</ele><time>2026-04-19T18:32:14Z</time></trkpt><trkpt lat="43.65993314978271" lon="10.69647849295394"><ele>48.666666666666664</ele><time>2026-04-19T18:32:15Z</time></trkpt><trkpt lat="43.65988322808895" lon="10.696252421921178"><ele>47.0</ele><time>2026-04-19T18:32:16Z</time></trkpt><trkpt lat="43.65982960081599" lon="10.696024799445759"><ele>45.666666666666664</ele><time>2026-04-19T18:32:17Z</time></trkpt><trkpt lat="43.65977221122135" lon="10.695790069210027"><ele>44.333333333333336</ele><time>2026-04-19T18:32:18Z</time></trkpt><trkpt lat="43.65971537546986" lon="10.695552042499918"><ele>43.0</ele><time>2026-04-19T18:32:19Z</time></trkpt><trkpt lat="43.659660500338" lon="10.695315484955257"><ele>43.66666666666667</ele><time>2026-04-19T18:32:20Z</time></trkpt><trkpt lat="43.65960572665652" lon="10.695076090748245"><ele>44.333333333333336</ele><time>2026-04-19T18:32:21Z</time></trkpt><trkpt lat="43.659551038775106" lon="10.69484506813125"><ele>45.0</ele><time>2026-04-19T18:32:22Z</time></trkpt><trkpt lat="43.659495787944216" lon="10.694616304791904"><ele>43.333333333333336</ele><time>2026-04-19T18:32:23Z</time></trkpt><trkpt lat="43.6594423334487" lon="10.694387851071175"><ele>41.66666666666667</ele><time>2026-04-19T18:32:24Z</time></trkpt><trkpt lat="43.659387642223706" lon="10.694162216144425"><ele>40.0</ele><time>2026-04-19T18:32:25Z</time></trkpt><trkpt lat="43.65933548111682" lon="10.693937637561492"><ele>40.0</ele><time>2026-04-19T18:32:26Z</time></trkpt><trkpt lat="43.65928635804875" lon="10.693716392620093"><ele>40.0</ele><time>2026-04-19T18:32:27Z</time></trkpt><trkpt lat="43.65923670926233" lon="10.693498049658196"><ele>40.0</ele><time>2026-04-19T18:32:28Z</time></trkpt><trkpt lat="43.6591858281273" lon="10.693275100391785"><ele>38.66666666666667</ele><time>2026-04-19T18:32:29Z</time></trkpt><trkpt lat="43.65913283507082" lon="10.693051081821913"><ele>37.333333333333336</ele><time>2026-04-19T18:32:30Z</time></trkpt><trkpt lat="43.65908171884375" lon="10.692829555676987"><ele>36.0</ele><time>2026-04-19T18:32:31Z</time></trkpt><trkpt lat="43.65903181235007" lon="10.692613258214601"><ele>35.333333333333336</ele><time>2026-04-19T18:32:32Z</time></trkpt><trkpt lat="43.658979635152306" lon="10.692392409923292"><ele>34.66666666666667</ele><time>2026-04-19T18:32:33Z</time></trkpt><trkpt lat="43.65892564502733" lon="10.692166233505754"><ele>34.0</ele><time>2026-04-19T18:32:34Z</time></trkpt><trkpt lat="43.658871097096004" lon="10.69194275088312"><ele>31.0</ele><time>2026-04-19T18:32:35Z</time></trkpt><trkpt lat="43.658817891119384" lon="10.691721459345024"><ele>28.0</ele><time>2026-04-19T18:32:36Z</time></trkpt><trkpt lat="43.658764664433846" lon="10.691497800411286"><ele>25.0</ele><time>2026-04-19T18:32:37Z</time></trkpt><trkpt lat="43.65871102665769" lon="10.691269559007143"><ele>23.666666666666668</ele><time>2026-04-19T18:32:38Z</time></trkpt><trkpt lat="43.658660637537544" lon="10.691033413751647"><ele>22.333333333333336</ele><time>2026-04-19T18:32:39Z</time></trkpt><trkpt lat="43.65860675972335" lon="10.690791087156775"><ele>21.0</ele><time>2026-04-19T18:32:40Z</time></trkpt><trkpt lat="43.65854870708016" lon="10.69054423280063"><ele>21.0</ele><time>2026-04-19T18:32:41Z</time></trkpt><trkpt lat="43.658489036293986" lon="10.690292555777303"><ele>21.0</ele><time>2026-04-19T18:32:42Z</time></trkpt><trkpt lat="43.65843233105208" lon="10.690044136804254"><ele>21.0</ele><time>2026-04-19T18:32:43Z</time></trkpt><trkpt lat="43.65837680177771" lon="10.689798946882771"><ele>20.333333333333332</ele><time>2026-04-19T18:32:44Z</time></trkpt><trkpt lat="43.65832019543234" lon="10.689559217346137"><ele>19.666666666666664</ele><time>2026-04-19T18:32:45Z</time></trkpt><trkpt lat="43.65826447375998" lon="10.689320152271936"><ele>19.0</ele><time>2026-04-19T18:32:46Z</time></trkpt><trkpt lat="43.65821001670237" lon="10.68908732482511"><ele>19.0</ele><time>2026-04-19T18:32:47Z</time></trkpt><trkpt lat="43.65815828197813" lon="10.688865177703187"><ele>19.0</ele><time>2026-04-19T18:32:48Z</time></trkpt><trkpt lat="43.6581076401999" lon="10.68864783867585"><ele>19.0</ele><time>2026-04-19T18:32:49Z</time></trkpt><trkpt lat="43.65805907883425" lon="10.688438230553688"><ele>18.333333333333332</ele><time>2026-04-19T18:32:50Z</time></trkpt><trkpt lat="43.65801303277831" lon="10.688231374781072"><ele>17.666666666666668</ele><time>2026-04-19T18:32:51Z</time></trkpt><trkpt lat="43.65796800610291" lon="10.688028671577205"><ele>17.0</ele><time>2026-04-19T18:32:52Z</time></trkpt><trkpt lat="43.65792289465481" lon="10.687829860407202"><ele>17.333333333333336</ele><time>2026-04-19T18:32:53Z</time></trkpt><trkpt lat="43.65787664749668" lon="10.687627309691377"><ele>17.666666666666668</ele><time>2026-04-19T18:32:54Z</time></trkpt><trkpt lat="43.65783100293354" lon="10.687431502046252"><ele>18.0</ele><time>2026-04-19T18:32:55Z</time></trkpt><trkpt lat="43.657784637766035" lon="10.687233135187666"><ele>19.0</ele><time>2026-04-19T18:32:56Z</time></trkpt><trkpt lat="43.65773750525839" lon="10.687030643383965"><ele>20.0</ele><time>2026-04-19T18:32:57Z</time></trkpt><trkpt lat="43.657689658842365" lon="10.686837548057138"><ele>21.0</ele><time>2026-04-19T18:32:58Z</time></trkpt><trkpt lat="43.657641045257236" lon="10.686646274437882"><ele>22.0</ele><time>2026-04-19T18:32:58.999Z</time></trkpt><trkpt lat="43.65758890351129" lon="10.686457979441014"><ele>23.666666666666664</ele><time>2026-04-19T18:32:59.999Z</time></trkpt><trkpt lat="43.65752681089594" lon="10.686265499589464"><ele>25.333333333333332</ele><time>2026-04-19T18:33:00.999Z</time></trkpt><trkpt lat="43.65745208369008" lon="10.686068254129816"><ele>27.0</ele><time>2026-04-19T18:33:02Z</time></trkpt><trkpt lat="43.657363023054245" lon="10.68586244309998"><ele>27.0</ele><time>2026-04-19T18:33:03Z</time></trkpt><trkpt lat="43.6572668124572" lon="10.685662446577023"><ele>27.0</ele><time>2026-04-19T18:33:04Z</time></trkpt><trkpt lat="43.657166670355906" lon="10.68547395750991"><ele>27.0</ele><time>2026-04-19T18:33:05Z</time></trkpt><trkpt lat="43.6570652264123" lon="10.685292744499968"><ele>26.0</ele><time>2026-04-19T18:33:06Z</time></trkpt><trkpt lat="43.656961027454564" lon="10.685117795581737"><ele>25.0</ele><time>2026-04-19T18:33:07Z</time></trkpt><trkpt lat="43.656854219957786" lon="10.684947199121693"><ele>24.0</ele><time>2026-04-19T18:33:08Z</time></trkpt><trkpt lat="43.65674954746963" lon="10.684783026718991"><ele>28.0</ele><time>2026-04-19T18:33:09Z</time></trkpt><trkpt lat="43.6566438148364" lon="10.684618660443846"><ele>32.0</ele><time>2026-04-19T18:33:10Z</time></trkpt><trkpt lat="43.65653403507883" lon="10.684455446768666"><ele>36.0</ele><time>2026-04-19T18:33:11Z</time></trkpt><trkpt lat="43.656422173470254" lon="10.684288652791725"><ele>36.0</ele><time>2026-04-19T18:33:12Z</time></trkpt><trkpt lat="43.656306946767636" lon="10.684119065364735"><ele>36.0</ele><time>2026-04-19T18:33:13Z</time></trkpt><trkpt lat="43.65618889174772" lon="10.683944142590619"><ele>36.0</ele><time>2026-04-19T18:33:14Z</time></trkpt><trkpt lat="43.656073884418866" lon="10.683772622333624"><ele>37.333333333333336</ele><time>2026-04-19T18:33:15Z</time></trkpt><trkpt lat="43.65596092177588" lon="10.683599983935009"><ele>38.66666666666667</ele><time>2026-04-19T18:33:16Z</time></trkpt><trkpt lat="43.65584971658689" lon="10.683430297898232"><ele>40.0</ele><time>2026-04-19T18:33:17Z</time></trkpt><trkpt lat="43.65573903764853" lon="10.683262840606012"><ele>40.0</ele><time>2026-04-19T18:33:18Z</time></trkpt><trkpt lat="43.6556254914514" lon="10.683089000300676"><ele>40.0</ele><time>2026-04-19T18:33:19Z</time></trkpt><trkpt lat="43.65550764708856" lon="10.682911103426036"><ele>40.0</ele><time>2026-04-19T18:33:20Z</time></trkpt><trkpt lat="43.65539057059331" lon="10.682729941111456"><ele>40.333333333333336</ele><time>2026-04-19T18:33:21Z</time></trkpt><trkpt lat="43.65527901660889" lon="10.682544276420069"><ele>40.666666666666664</ele><time>2026-04-19T18:33:22Z</time></trkpt><trkpt lat="43.655170160522324" lon="10.682351908036306"><ele>41.0</ele><time>2026-04-19T18:33:23Z</time></trkpt><trkpt lat="43.65506446817268" lon="10.68215741511205"><ele>41.0</ele><time>2026-04-19T18:33:24Z</time></trkpt><trkpt lat="43.654964320947926" lon="10.68196529736093"><ele>41.0</ele><time>2026-04-19T18:33:25Z</time></trkpt><trkpt lat="43.65486576704462" lon="10.68176055944305"><ele>41.0</ele><time>2026-04-19T18:33:26Z</time></trkpt><trkpt lat="43.654771669428314" lon="10.68156116891065"><ele>41.33333333333333</ele><time>2026-04-19T18:33:27Z</time></trkpt><trkpt lat="43.65468506524081" lon="10.681359399801869"><ele>41.666666666666664</ele><time>2026-04-19T18:33:28Z</time></trkpt><trkpt lat="43.65459987800422" lon="10.681149110323373"><ele>42.0</ele><time>2026-04-19T18:33:29Z</time></trkpt><trkpt lat="43.65451869255785" lon="10.680934704979776"><ele>36.666666666666664</ele><time>2026-04-19T18:33:30Z</time></trkpt><trkpt lat="43.65444149886279" lon="10.680719543353518"><ele>31.333333333333332</ele><time>2026-04-19T18:33:31Z</time></trkpt><trkpt lat="43.65436692275745" lon="10.680490961928452"><ele>26.0</ele><time>2026-04-19T18:33:32Z</time></trkpt><trkpt lat="43.65429613218056" lon="10.68025695447454"><ele>25.333333333333332</ele><time>2026-04-19T18:33:33Z</time></trkpt><trkpt lat="43.654232495913966" lon="10.680022497855516"><ele>24.666666666666664</ele><time>2026-04-19T18:33:34Z</time></trkpt><trkpt lat="43.654172305756575" lon="10.679782549099443"><ele>24.0</ele><time>2026-04-19T18:33:35Z</time></trkpt><trkpt lat="43.65411357143109" lon="10.679530955252448"><ele>23.333333333333332</ele><time>2026-04-19T18:33:36Z</time></trkpt><trkpt lat="43.6540621711915" lon="10.679273009973809"><ele>22.666666666666664</ele><time>2026-04-19T18:33:37Z</time></trkpt><trkpt lat="43.65401652818546" lon="10.679011255781086"><ele>22.0</ele><time>2026-04-19T18:33:38Z</time></trkpt><trkpt lat="43.65397209496148" lon="10.678739635676813"><ele>22.0</ele><time>2026-04-19T18:33:39Z</time></trkpt><trkpt lat="43.653933578267136" lon="10.67846048827832"><ele>22.0</ele><time>2026-04-19T18:33:40Z</time></trkpt><trkpt lat="43.65390684127436" lon="10.678189459894925"><ele>22.0</ele><time>2026-04-19T18:33:41Z</time></trkpt><trkpt lat="43.6538847546028" lon="10.677934143462073"><ele>21.333333333333332</ele><time>2026-04-19T18:33:42Z</time></trkpt><trkpt lat="43.653864784687414" lon="10.677673841199763"><ele>20.666666666666668</ele><time>2026-04-19T18:33:43Z</time></trkpt><trkpt lat="43.65385070797532" lon="10.677392867685128"><ele>20.0</ele><time>2026-04-19T18:33:44Z</time></trkpt><trkpt lat="43.65385012545609" lon="10.677105208967864"><ele>20.0</ele><time>2026-04-19T18:33:45Z</time></trkpt><trkpt lat="43.653855170382755" lon="10.676818935573204"><ele>20.0</ele><time>2026-04-19T18:33:46Z</time></trkpt><trkpt lat="43.65386382558794" lon="10.67653854570195"><ele>20.0</ele><time>2026-04-19T18:33:47Z</time></trkpt><trkpt lat="43.653877994942846" lon="10.67626388788986"><ele>20.0</ele><time>2026-04-19T18:33:48Z</time></trkpt><trkpt lat="43.65389875720754" lon="10.67598830456023"><ele>20.0</ele><time>2026-04-19T18:33:49Z</time></trkpt><trkpt lat="43.65392516736987" lon="10.675715490886954"><ele>20.0</ele><time>2026-04-19T18:33:50Z</time></trkpt><trkpt lat="43.65395365357668" lon="10.67545099031048"><ele>20.0</ele><time>2026-04-19T18:33:51Z</time></trkpt><trkpt lat="43.653986814521424" lon="10.675189737187756"><ele>20.0</ele><time>2026-04-19T18:33:52Z</time></trkpt><trkpt lat="43.65402579769022" lon="10.674927871875802"><ele>20.0</ele><time>2026-04-19T18:33:53Z</time></trkpt><trkpt lat="43.65406980323042" lon="10.67466590675165"><ele>19.666666666666668</ele><time>2026-04-19T18:33:54Z</time></trkpt><trkpt lat="43.654119053161985" lon="10.674405976307549"><ele>19.333333333333332</ele><time>2026-04-19T18:33:55Z</time></trkpt><trkpt lat="43.654170374992795" lon="10.67414838602482"><ele>19.0</ele><time>2026-04-19T18:33:56Z</time></trkpt><trkpt lat="43.654227928743424" lon="10.673879910835984"><ele>19.0</ele><time>2026-04-19T18:33:57Z</time></trkpt><trkpt lat="43.654288059603" lon="10.673608335738642"><ele>19.0</ele><time>2026-04-19T18:33:58Z</time></trkpt><trkpt lat="43.65435063530852" lon="10.673338538728412"><ele>19.0</ele><time>2026-04-19T18:33:59Z</time></trkpt><trkpt lat="43.65441336683763" lon="10.673075150501644"><ele>18.333333333333332</ele><time>2026-04-19T18:34:00Z</time></trkpt><trkpt lat="43.654477701533175" lon="10.672818976177512"><ele>17.666666666666668</ele><time>2026-04-19T18:34:01Z</time></trkpt><trkpt lat="43.654545105438004" lon="10.672570244876058"><ele>17.0</ele><time>2026-04-19T18:34:02Z</time></trkpt><trkpt lat="43.65461317747663" lon="10.672330142698597"><ele>17.0</ele><time>2026-04-19T18:34:03Z</time></trkpt><trkpt lat="43.654680832916526" lon="10.672095661924685"><ele>17.0</ele><time>2026-04-19T18:34:04Z</time></trkpt><trkpt lat="43.654750553240355" lon="10.671850029320444"><ele>17.0</ele><time>2026-04-19T18:34:05Z</time></trkpt><trkpt lat="43.654814606061265" lon="10.671611401572019"><ele>17.666666666666668</ele><time>2026-04-19T18:34:06Z</time></trkpt><trkpt lat="43.65487545652124" lon="10.67135981651059"><ele>18.333333333333332</ele><time>2026-04-19T18:34:07Z</time></trkpt><trkpt lat="43.65493314122018" lon="10.671095638390094"><ele>19.0</ele><time>2026-04-19T18:34:08Z</time></trkpt><trkpt lat="43.654986840056786" lon="10.67083149123"><ele>19.333333333333332</ele><time>2026-04-19T18:34:09Z</time></trkpt><trkpt lat="43.6550401881695" lon="10.670573747930732"><ele>19.666666666666668</ele><time>2026-04-19T18:34:10Z</time></trkpt><trkpt lat="43.65509116830523" lon="10.670313758006571"><ele>20.0</ele><time>2026-04-19T18:34:11Z</time></trkpt><trkpt lat="43.655136087123196" lon="10.670059325821615"><ele>19.333333333333336</ele><time>2026-04-19T18:34:12Z</time></trkpt><trkpt lat="43.655174661163684" lon="10.669798253725924"><ele>18.666666666666668</ele><time>2026-04-19T18:34:13Z</time></trkpt><trkpt lat="43.65520972729249" lon="10.669522384107662"><ele>18.0</ele><time>2026-04-19T18:34:14Z</time></trkpt><trkpt lat="43.655241758516055" lon="10.669224095989021"><ele>17.0</ele><time>2026-04-19T18:34:15Z</time></trkpt><trkpt lat="43.65527377455393" lon="10.668913362140502"><ele>16.0</ele><time>2026-04-19T18:34:16Z</time></trkpt><trkpt lat="43.65530317237035" lon="10.668595532945286"><ele>16.0</ele><time>2026-04-19T18:34:17Z</time></trkpt><trkpt lat="43.65532677744715" lon="10.668273859061006"><ele>16.0</ele><time>2026-04-19T18:34:18Z</time></trkpt><trkpt lat="43.6553450534413" lon="10.667954040675477"><ele>16.5</ele><time>2026-04-19T18:34:19Z</time></trkpt><trkpt lat="43.655358188851466" lon="10.667638407633246"><ele>17.0</ele><time>2026-04-19T18:34:20Z</time></trkpt><trkpt lat="43.6553664642236" lon="10.66731620904645"><ele>17.0</ele><time>2026-04-19T18:34:21Z</time></trkpt><trkpt lat="43.65536864640497" lon="10.666992694849393"><ele>17.0</ele><time>2026-04-19T18:34:22Z</time></trkpt><trkpt lat="43.6553660637084" lon="10.666668123098685"><ele>16.0</ele><time>2026-04-19T18:34:23Z</time></trkpt><trkpt lat="43.655355242911426" lon="10.66634366077592"><ele>15.0</ele><time>2026-04-19T18:34:24Z</time></trkpt><trkpt lat="43.655336052730235" lon="10.66601247153719"><ele>15.0</ele><time>2026-04-19T18:34:25Z</time></trkpt><trkpt lat="43.655310606333856" lon="10.665686996418989"><ele>15.0</ele><time>2026-04-19T18:34:26Z</time></trkpt><trkpt lat="43.65527760229735" lon="10.66536775780684"><ele>14.0</ele><time>2026-04-19T18:34:27Z</time></trkpt><trkpt lat="43.65523850187413" lon="10.665052408226773"><ele>13.0</ele><time>2026-04-19T18:34:28Z</time></trkpt><trkpt lat="43.6551928802138" lon="10.664745297712013"><ele>13.0</ele><time>2026-04-19T18:34:29Z</time></trkpt><trkpt lat="43.6551430263584" lon="10.664443191346969"><ele>13.0</ele><time>2026-04-19T18:34:30Z</time></trkpt><trkpt lat="43.65508683845883" lon="10.664143917414137"><ele>13.0</ele><time>2026-04-19T18:34:31Z</time></trkpt><trkpt lat="43.65502467545617" lon="10.663848326200057"><ele>13.333333333333332</ele><time>2026-04-19T18:34:32Z</time></trkpt><trkpt lat="43.65495745058619" lon="10.663554478351504"><ele>13.666666666666668</ele><time>2026-04-19T18:34:33Z</time></trkpt><trkpt lat="43.654883758654655" lon="10.663266040390427"><ele>14.0</ele><time>2026-04-19T18:34:34Z</time></trkpt><trkpt lat="43.654804304236016" lon="10.662982479073111"><ele>14.333333333333334</ele><time>2026-04-19T18:34:35Z</time></trkpt><trkpt lat="43.65472237203288" lon="10.662708285919148"><ele>14.666666666666668</ele><time>2026-04-19T18:34:36Z</time></trkpt><trkpt lat="43.654636497084056" lon="10.662437598554792"><ele>15.0</ele><time>2026-04-19T18:34:37Z</time></trkpt><trkpt lat="43.65454896859608" lon="10.662170873295771"><ele>15.0</ele><time>2026-04-19T18:34:38Z</time></trkpt><trkpt lat="43.65446016704974" lon="10.661904405796632"><ele>15.0</ele><time>2026-04-19T18:34:39Z</time></trkpt><trkpt lat="43.65436699285462" lon="10.661647648289804"><ele>15.0</ele><time>2026-04-19T18:34:40Z</time></trkpt><trkpt lat="43.654268893758754" lon="10.661401808961253"><ele>15.666666666666668</ele><time>2026-04-19T18:34:41Z</time></trkpt><trkpt lat="43.654166932100985" lon="10.661168048877398"><ele>16.333333333333336</ele><time>2026-04-19T18:34:42Z</time></trkpt><trkpt lat="43.65406465598442" lon="10.660943851721324"><ele>17.0</ele><time>2026-04-19T18:34:43Z</time></trkpt><trkpt lat="43.653958788925436" lon="10.66071720636262"><ele>17.0</ele><time>2026-04-19T18:34:44Z</time></trkpt><trkpt lat="43.65384904796183" lon="10.660494000332026"><ele>17.0</ele><time>2026-04-19T18:34:45Z</time></trkpt><trkpt lat="43.65373888940367" lon="10.660272150207478"><ele>17.0</ele><time>2026-04-19T18:34:46Z</time></trkpt><trkpt lat="43.65362596084466" lon="10.66005329626935"><ele>17.0</ele><time>2026-04-19T18:34:47Z</time></trkpt><trkpt lat="43.65351077980746" lon="10.659836511549441"><ele>17.0</ele><time>2026-04-19T18:34:48Z</time></trkpt><trkpt lat="43.65339358414029" lon="10.659617480894937"><ele>17.0</ele><time>2026-04-19T18:34:49Z</time></trkpt><trkpt lat="43.65327010400763" lon="10.659392262685268"><ele>18.333333333333336</ele><time>2026-04-19T18:34:50Z</time></trkpt><trkpt lat="43.653143327971605" lon="10.65916671864206"><ele>19.666666666666668</ele><time>2026-04-19T18:34:51Z</time></trkpt><trkpt lat="43.65301504961602" lon="10.658936498635107"><ele>21.0</ele><time>2026-04-19T18:34:52Z</time></trkpt><trkpt lat="43.65289134944279" lon="10.658714854173011"><ele>21.666666666666668</ele><time>2026-04-19T18:34:53Z</time></trkpt><trkpt lat="43.65276739337019" lon="10.658498469982787"><ele>22.333333333333336</ele><time>2026-04-19T18:34:54Z</time></trkpt><trkpt lat="43.652644006299795" lon="10.658282977052261"><ele>23.0</ele><time>2026-04-19T18:34:55Z</time></trkpt><trkpt lat="43.6525223283306" lon="10.658070549821304"><ele>23.0</ele><time>2026-04-19T18:34:56.001Z</time></trkpt><trkpt lat="43.65240276426251" lon="10.657862807175508"><ele>23.0</ele><time>2026-04-19T18:34:57.001Z</time></trkpt><trkpt lat="43.65228579460227" lon="10.65765519871549"><ele>23.0</ele><time>2026-04-19T18:34:58.001Z</time></trkpt><trkpt lat="43.65216660697017" lon="10.65745261791058"><ele>23.333333333333336</ele><time>2026-04-19T18:34:59.001Z</time></trkpt><trkpt lat="43.65204543088599" lon="10.657246213090982"><ele>23.666666666666668</ele><time>2026-04-19T18:35:00.001Z</time></trkpt><trkpt lat="43.651925473500235" lon="10.657036416948646"><ele>24.0</ele><time>2026-04-19T18:35:01.001Z</time></trkpt><trkpt lat="43.651803477971846" lon="10.656823512748177"><ele>24.0</ele><time>2026-04-19T18:35:02.001Z</time></trkpt><trkpt lat="43.651681247871764" lon="10.656610685442391"><ele>24.0</ele><time>2026-04-19T18:35:03.001Z</time></trkpt><trkpt lat="43.651559205544736" lon="10.656400945267833"><ele>24.0</ele><time>2026-04-19T18:35:04.001Z</time></trkpt><trkpt lat="43.65144410857967" lon="10.656201266894527"><ele>24.666666666666664</ele><time>2026-04-19T18:35:05Z</time></trkpt><trkpt lat="43.651331947613244" lon="10.656004821583924"><ele>25.333333333333332</ele><time>2026-04-19T18:35:06Z</time></trkpt><trkpt lat="43.65122121798201" lon="10.65580891237343"><ele>26.0</ele><time>2026-04-19T18:35:07Z</time></trkpt><trkpt lat="43.65110921984832" lon="10.65561596148993"><ele>26.666666666666664</ele><time>2026-04-19T18:35:08Z</time></trkpt><trkpt lat="43.65099558959783" lon="10.655416488719535"><ele>27.333333333333336</ele><time>2026-04-19T18:35:09Z</time></trkpt><trkpt lat="43.65088239256641" lon="10.655213267250387"><ele>28.0</ele><time>2026-04-19T18:35:10Z</time></trkpt><trkpt lat="43.650770434964535" lon="10.655017792330394"><ele>26.666666666666668</ele><time>2026-04-19T18:35:11Z</time></trkpt><trkpt lat="43.6506574437053" lon="10.654821918422385"><ele>25.333333333333336</ele><time>2026-04-19T18:35:12Z</time></trkpt><trkpt lat="43.65054191434266" lon="10.65462225219344"><ele>24.0</ele><time>2026-04-19T18:35:13Z</time></trkpt><trkpt lat="43.65042198851009" lon="10.654411982390743"><ele>23.333333333333332</ele><time>2026-04-19T18:35:14Z</time></trkpt><trkpt lat="43.65030084292427" lon="10.654200038207584"><ele>22.666666666666664</ele><time>2026-04-19T18:35:15Z</time></trkpt><trkpt lat="43.65018160300624" lon="10.65399059652959"><ele>22.0</ele><time>2026-04-19T18:35:16Z</time></trkpt><trkpt lat="43.650062728118236" lon="10.653783698768361"><ele>21.666666666666664</ele><time>2026-04-19T18:35:17Z</time></trkpt><trkpt lat="43.649945492234146" lon="10.653578479241984"><ele>21.333333333333332</ele><time>2026-04-19T18:35:18Z</time></trkpt><trkpt lat="43.64983159578637" lon="10.653379445523075"><ele>21.0</ele><time>2026-04-19T18:35:19Z</time></trkpt><trkpt lat="43.64972121963877" lon="10.653184618104111"><ele>21.0</ele><time>2026-04-19T18:35:20Z</time></trkpt><trkpt lat="43.64961526020975" lon="10.653000358725562"><ele>21.0</ele><time>2026-04-19T18:35:21Z</time></trkpt><trkpt lat="43.649508737703385" lon="10.65281069309518"><ele>21.0</ele><time>2026-04-19T18:35:22Z</time></trkpt><trkpt lat="43.649400492867244" lon="10.652621705136637"><ele>20.333333333333332</ele><time>2026-04-19T18:35:23Z</time></trkpt><trkpt lat="43.64929288937565" lon="10.6524344357803"><ele>19.666666666666664</ele><time>2026-04-19T18:35:24Z</time></trkpt><trkpt lat="43.649184517944555" lon="10.652248403834127"><ele>19.0</ele><time>2026-04-19T18:35:25Z</time></trkpt><trkpt lat="43.64907649767921" lon="10.652062323520731"><ele>18.333333333333332</ele><time>2026-04-19T18:35:26Z</time></trkpt><trkpt lat="43.64896624972108" lon="10.651874162309385"><ele>17.666666666666668</ele><time>2026-04-19T18:35:27Z</time></trkpt><trkpt lat="43.64885501194036" lon="10.651682055297263"><ele>17.0</ele><time>2026-04-19T18:35:28Z</time></trkpt><trkpt lat="43.64874851880952" lon="10.651495685345818"><ele>17.0</ele><time>2026-04-19T18:35:29Z</time></trkpt><trkpt lat="43.64864490356729" lon="10.651311605092003"><ele>17.0</ele><time>2026-04-19T18:35:30Z</time></trkpt><trkpt lat="43.64852961601896" lon="10.651110483381593"><ele>17.0</ele><time>2026-04-19T18:35:31Z</time></trkpt><trkpt lat="43.648411427410124" lon="10.650899401415359"><ele>16.333333333333336</ele><time>2026-04-19T18:35:32Z</time></trkpt><trkpt lat="43.648301314153706" lon="10.650698507518644"><ele>15.666666666666668</ele><time>2026-04-19T18:35:33Z</time></trkpt><trkpt lat="43.648189564501685" lon="10.650488888956279"><ele>15.0</ele><time>2026-04-19T18:35:34Z</time></trkpt><trkpt lat="43.64807647352495" lon="10.650274095741667"><ele>14.666666666666668</ele><time>2026-04-19T18:35:35Z</time></trkpt><trkpt lat="43.64796555883631" lon="10.6500546692681"><ele>14.333333333333334</ele><time>2026-04-19T18:35:36Z</time></trkpt><trkpt lat="43.647856266846645" lon="10.649822259365042"><ele>14.0</ele><time>2026-04-19T18:35:37Z</time></trkpt><trkpt lat="43.64775011068317" lon="10.649583167129013"><ele>13.666666666666668</ele><time>2026-04-19T18:35:38Z</time></trkpt><trkpt lat="43.647645424235144" lon="10.649333678898538"><ele>13.333333333333332</ele><time>2026-04-19T18:35:39Z</time></trkpt><trkpt lat="43.647549475617794" lon="10.649081748764866"><ele>13.0</ele><time>2026-04-19T18:35:40Z</time></trkpt><trkpt lat="43.6474677406056" lon="10.648843807618686"><ele>14.333333333333332</ele><time>2026-04-19T18:35:41Z</time></trkpt><trkpt lat="43.64739052815092" lon="10.648599532142919"><ele>15.666666666666668</ele><time>2026-04-19T18:35:42Z</time></trkpt><trkpt lat="43.647316753226015" lon="10.648348340470758"><ele>17.0</ele><time>2026-04-19T18:35:43Z</time></trkpt><trkpt lat="43.647248214745304" lon="10.648093296005518"><ele>17.0</ele><time>2026-04-19T18:35:44Z</time></trkpt><trkpt lat="43.64718712272003" lon="10.6478451351088"><ele>17.0</ele><time>2026-04-19T18:35:45Z</time></trkpt><trkpt lat="43.647132629716864" lon="10.647597699612119"><ele>17.0</ele><time>2026-04-19T18:35:46Z</time></trkpt><trkpt lat="43.64708216579281" lon="10.647341488246745"><ele>18.0</ele><time>2026-04-19T18:35:47Z</time></trkpt><trkpt lat="43.647033127319574" lon="10.64707146105311"><ele>19.0</ele><time>2026-04-19T18:35:48Z</time></trkpt><trkpt lat="43.646988335868386" lon="10.646788349838173"><ele>20.0</ele><time>2026-04-19T18:35:49Z</time></trkpt><trkpt lat="43.6469543297836" lon="10.64652426129478"><ele>20.666666666666668</ele><time>2026-04-19T18:35:50Z</time></trkpt><trkpt lat="43.64692795818047" lon="10.646279048049172"><ele>21.333333333333332</ele><time>2026-04-19T18:35:51Z</time></trkpt><trkpt lat="43.64690304957731" lon="10.646042577042405"><ele>22.0</ele><time>2026-04-19T18:35:52Z</time></trkpt><trkpt lat="43.64688085822185" lon="10.645808931269473"><ele>22.0</ele><time>2026-04-19T18:35:53Z</time></trkpt><trkpt lat="43.64686261191564" lon="10.645549104758027"><ele>22.0</ele><time>2026-04-19T18:35:54.069Z</time></trkpt><trkpt lat="43.64684968094449" lon="10.645292130072855"><ele>22.0</ele><time>2026-04-19T18:35:55.067Z</time></trkpt><trkpt lat="43.64683828628113" lon="10.645033719664978"><ele>22.0</ele><time>2026-04-19T18:35:56.06Z</time></trkpt><trkpt lat="43.64682600123029" lon="10.64478173095618"><ele>22.0</ele><time>2026-04-19T18:35:57.058Z</time></trkpt><trkpt lat="43.64681667418638" lon="10.644521249191717"><ele>22.0</ele><time>2026-04-19T18:35:58.057Z</time></trkpt><trkpt lat="43.646808946323354" lon="10.644271146535598"><ele>22.0</ele><time>2026-04-19T18:35:59.035Z</time></trkpt><trkpt lat="43.64678902688359" lon="10.643964396467403"><ele>22.0</ele><time>2026-04-19T18:36:00.038Z</time></trkpt><trkpt lat="43.646800732968" lon="10.643874774671543"><ele>22.0</ele><time>2026-04-19T18:36:01Z</time></trkpt><trkpt lat="43.64680477435819" lon="10.643634420537731"><ele>21.333333333333332</ele><time>2026-04-19T18:36:02Z</time></trkpt><trkpt lat="43.64686061319196" lon="10.643357761261395"><ele>20.666666666666668</ele><time>2026-04-19T18:36:03Z</time></trkpt><trkpt lat="43.646873429852924" lon="10.643115076498454"><ele>20.0</ele><time>2026-04-19T18:36:04Z</time></trkpt><trkpt lat="43.646875754225455" lon="10.642854430554387"><ele>19.666666666666668</ele><time>2026-04-19T18:36:05Z</time></trkpt><trkpt lat="43.64688581401475" lon="10.642608738570209"><ele>19.333333333333332</ele><time>2026-04-19T18:36:06Z</time></trkpt><trkpt lat="43.646889627084484" lon="10.642355642642219"><ele>19.0</ele><time>2026-04-19T18:36:07Z</time></trkpt><trkpt lat="43.6468967152021" lon="10.64208621843818"><ele>18.666666666666664</ele><time>2026-04-19T18:36:08Z</time></trkpt><trkpt lat="43.64690051561266" lon="10.64181700636131"><ele>18.333333333333332</ele><time>2026-04-19T18:36:09Z</time></trkpt><trkpt lat="43.646900618453614" lon="10.64153617583434"><ele>18.0</ele><time>2026-04-19T18:36:10Z</time></trkpt><trkpt lat="43.64690167324778" lon="10.64122530311503"><ele>17.333333333333332</ele><time>2026-04-19T18:36:11Z</time></trkpt><trkpt lat="43.64690358003038" lon="10.640909826207698"><ele>16.666666666666664</ele><time>2026-04-19T18:36:12Z</time></trkpt><trkpt lat="43.64690673400248" lon="10.640608762412393"><ele>16.0</ele><time>2026-04-19T18:36:13Z</time></trkpt><trkpt lat="43.64691181858052" lon="10.64030957967577"><ele>16.0</ele><time>2026-04-19T18:36:14Z</time></trkpt><trkpt lat="43.6469156561033" lon="10.640012072930219"><ele>16.0</ele><time>2026-04-19T18:36:15Z</time></trkpt><trkpt lat="43.646919473007074" lon="10.639702433733587"><ele>16.0</ele><time>2026-04-19T18:36:16Z</time></trkpt><trkpt lat="43.64692457495007" lon="10.639379939583426"><ele>16.333333333333332</ele><time>2026-04-19T18:36:17Z</time></trkpt><trkpt lat="43.64693089236415" lon="10.639063701858595"><ele>16.666666666666668</ele><time>2026-04-19T18:36:18Z</time></trkpt><trkpt lat="43.6469362003119" lon="10.638770391290041"><ele>17.0</ele><time>2026-04-19T18:36:19Z</time></trkpt><trkpt lat="43.646944489358965" lon="10.638494431207102"><ele>17.0</ele><time>2026-04-19T18:36:20Z</time></trkpt><trkpt lat="43.64695567492326" lon="10.638214442743099"><ele>17.0</ele><time>2026-04-19T18:36:21Z</time></trkpt><trkpt lat="43.64696867118851" lon="10.637930445043716"><ele>17.0</ele><time>2026-04-19T18:36:22Z</time></trkpt><trkpt lat="43.64697955070889" lon="10.637648210241212"><ele>17.0</ele><time>2026-04-19T18:36:23Z</time></trkpt><trkpt lat="43.64698596414094" lon="10.637374728653176"><ele>17.0</ele><time>2026-04-19T18:36:24Z</time></trkpt><trkpt lat="43.64699219810472" lon="10.63710826580919"><ele>17.0</ele><time>2026-04-19T18:36:25Z</time></trkpt><trkpt lat="43.646998897414576" lon="10.636843939387164"><ele>17.0</ele><time>2026-04-19T18:36:26Z</time></trkpt><trkpt lat="43.64700442845089" lon="10.636582592645723"><ele>17.0</ele><time>2026-04-19T18:36:27Z</time></trkpt><trkpt lat="43.6470031842604" lon="10.636322223843404"><ele>17.0</ele><time>2026-04-19T18:36:28Z</time></trkpt><trkpt lat="43.64700433073958" lon="10.636053405852074"><ele>17.0</ele><time>2026-04-19T18:36:29Z</time></trkpt><trkpt lat="43.64701158543057" lon="10.635786164800805"><ele>17.0</ele><time>2026-04-19T18:36:30Z</time></trkpt><trkpt lat="43.64702033369386" lon="10.635519402369745"><ele>17.0</ele><time>2026-04-19T18:36:31Z</time></trkpt><trkpt lat="43.647026478862564" lon="10.635253155917667"><ele>17.0</ele><time>2026-04-19T18:36:32Z</time></trkpt><trkpt lat="43.647029586791184" lon="10.634984196264073"><ele>17.0</ele><time>2026-04-19T18:36:33Z</time></trkpt><trkpt lat="43.64703360183424" lon="10.634711515298424"><ele>17.0</ele><time>2026-04-19T18:36:34Z</time></trkpt><trkpt lat="43.647038426282116" lon="10.634446206870244"><ele>17.0</ele><time>2026-04-19T18:36:35Z</time></trkpt><trkpt lat="43.647045987433174" lon="10.634184482866258"><ele>17.0</ele><time>2026-04-19T18:36:36Z</time></trkpt><trkpt lat="43.64705317715914" lon="10.633922368113597"><ele>17.0</ele><time>2026-04-19T18:36:37Z</time></trkpt><trkpt lat="43.64705538784519" lon="10.633669969131594"><ele>16.0</ele><time>2026-04-19T18:36:38Z</time></trkpt><trkpt lat="43.64705759170179" lon="10.633417951765264"><ele>15.0</ele><time>2026-04-19T18:36:39Z</time></trkpt><trkpt lat="43.64706323435819" lon="10.633149251573705"><ele>14.0</ele><time>2026-04-19T18:36:40Z</time></trkpt><trkpt lat="43.647068070512645" lon="10.632856726332085"><ele>14.333333333333334</ele><time>2026-04-19T18:36:41Z</time></trkpt><trkpt lat="43.64707435497033" lon="10.632571480592816"><ele>14.666666666666668</ele><time>2026-04-19T18:36:42Z</time></trkpt><trkpt lat="43.64708056813935" lon="10.632309882123824"><ele>15.0</ele><time>2026-04-19T18:36:43Z</time></trkpt><trkpt lat="43.64708646792999" lon="10.632042358608677"><ele>16.0</ele><time>2026-04-19T18:36:44Z</time></trkpt><trkpt lat="43.64709166874724" lon="10.631770014657112"><ele>17.0</ele><time>2026-04-19T18:36:45Z</time></trkpt><trkpt lat="43.64709753173093" lon="10.631488868604304"><ele>18.0</ele><time>2026-04-19T18:36:46Z</time></trkpt><trkpt lat="43.647104897187326" lon="10.63120389929919"><ele>18.0</ele><time>2026-04-19T18:36:47Z</time></trkpt><trkpt lat="43.64711102457074" lon="10.630919806516848"><ele>18.0</ele><time>2026-04-19T18:36:48Z</time></trkpt><trkpt lat="43.64711565898346" lon="10.63063711486421"><ele>18.0</ele><time>2026-04-19T18:36:49Z</time></trkpt><trkpt lat="43.64711979473552" lon="10.630359134755492"><ele>17.666666666666668</ele><time>2026-04-19T18:36:50Z</time></trkpt><trkpt lat="43.6471244357913" lon="10.630087915148684"><ele>17.333333333333336</ele><time>2026-04-19T18:36:51Z</time></trkpt><trkpt lat="43.64712905006901" lon="10.629831854455112"><ele>17.0</ele><time>2026-04-19T18:36:52Z</time></trkpt><trkpt lat="43.647133863575846" lon="10.629572687522773"><ele>17.0</ele><time>2026-04-19T18:36:53Z</time></trkpt><trkpt lat="43.64714126791582" lon="10.629302701576085"><ele>17.0</ele><time>2026-04-19T18:36:54Z</time></trkpt><trkpt lat="43.647146986435786" lon="10.629026589392629"><ele>17.0</ele><time>2026-04-19T18:36:55Z</time></trkpt><trkpt lat="43.647150537906114" lon="10.6287485605867"><ele>16.666666666666668</ele><time>2026-04-19T18:36:56Z</time></trkpt><trkpt lat="43.6471516880921" lon="10.628471547733447"><ele>16.333333333333332</ele><time>2026-04-19T18:36:57Z</time></trkpt><trkpt lat="43.64714817531562" lon="10.628194908914708"><ele>16.0</ele><time>2026-04-19T18:36:58Z</time></trkpt><trkpt lat="43.64714185510557" lon="10.627919561936382"><ele>16.0</ele><time>2026-04-19T18:36:59Z</time></trkpt><trkpt lat="43.64713187814488" lon="10.627636432058306"><ele>16.0</ele><time>2026-04-19T18:37:00Z</time></trkpt><trkpt lat="43.64711659605901" lon="10.627357507389227"><ele>16.0</ele><time>2026-04-19T18:37:01Z</time></trkpt><trkpt lat="43.647096032893465" lon="10.627082920606377"><ele>16.333333333333332</ele><time>2026-04-19T18:37:02Z</time></trkpt><trkpt lat="43.647071194958414" lon="10.626811158949634"><ele>16.666666666666668</ele><time>2026-04-19T18:37:03Z</time></trkpt><trkpt lat="43.64704395669064" lon="10.626539472117939"><ele>17.0</ele><time>2026-04-19T18:37:04Z</time></trkpt><trkpt lat="43.64700993297178" lon="10.626265880461693"><ele>16.666666666666668</ele><time>2026-04-19T18:37:05Z</time></trkpt><trkpt lat="43.64696431390872" lon="10.62598900206637"><ele>16.333333333333332</ele><time>2026-04-19T18:37:06Z</time></trkpt><trkpt lat="43.64691059190361" lon="10.625706047219836"><ele>16.0</ele><time>2026-04-19T18:37:07Z</time></trkpt><trkpt lat="43.64685014110489" lon="10.625421437850381"><ele>15.666666666666666</ele><time>2026-04-19T18:37:08Z</time></trkpt><trkpt lat="43.64678289147316" lon="10.625137115868908"><ele>15.333333333333332</ele><time>2026-04-19T18:37:09Z</time></trkpt><trkpt lat="43.64670939750473" lon="10.624863684139925"><ele>15.0</ele><time>2026-04-19T18:37:10Z</time></trkpt><trkpt lat="43.6466305011252" lon="10.624595478258444"><ele>15.666666666666668</ele><time>2026-04-19T18:37:11Z</time></trkpt><trkpt lat="43.646545873121376" lon="10.624327809076114"><ele>16.333333333333336</ele><time>2026-04-19T18:37:12Z</time></trkpt><trkpt lat="43.646454934370404" lon="10.624063854562976"><ele>17.0</ele><time>2026-04-19T18:37:13Z</time></trkpt><trkpt lat="43.64634918963553" lon="10.623793724276885"><ele>16.333333333333336</ele><time>2026-04-19T18:37:14Z</time></trkpt><trkpt lat="43.64623653319664" lon="10.623528392922806"><ele>15.666666666666668</ele><time>2026-04-19T18:37:15Z</time></trkpt><trkpt lat="43.646123293852476" lon="10.623277263208154"><ele>15.0</ele><time>2026-04-19T18:37:16Z</time></trkpt><trkpt lat="43.64600383556716" lon="10.6230305323239"><ele>15.666666666666668</ele><time>2026-04-19T18:37:17Z</time></trkpt><trkpt lat="43.64587692842505" lon="10.622784853766392"><ele>16.333333333333336</ele><time>2026-04-19T18:37:18Z</time></trkpt><trkpt lat="43.6457450969237" lon="10.622543329466058"><ele>17.0</ele><time>2026-04-19T18:37:19Z</time></trkpt><trkpt lat="43.64561308621177" lon="10.622317663864129"><ele>17.0</ele><time>2026-04-19T18:37:20Z</time></trkpt><trkpt lat="43.6454822168257" lon="10.62210592483641"><ele>17.0</ele><time>2026-04-19T18:37:21Z</time></trkpt><trkpt lat="43.645348263252686" lon="10.621901884241426"><ele>17.0</ele><time>2026-04-19T18:37:22Z</time></trkpt><trkpt lat="43.645212665159846" lon="10.621704715460766"><ele>16.666666666666668</ele><time>2026-04-19T18:37:23Z</time></trkpt><trkpt lat="43.64507782362781" lon="10.621511815340266"><ele>16.333333333333332</ele><time>2026-04-19T18:37:24Z</time></trkpt><trkpt lat="43.64494154517487" lon="10.621320279054386"><ele>16.0</ele><time>2026-04-19T18:37:25Z</time></trkpt><trkpt lat="43.644799518676955" lon="10.62112959813883"><ele>15.666666666666666</ele><time>2026-04-19T18:37:26Z</time></trkpt><trkpt lat="43.64465505147478" lon="10.620939694121663"><ele>15.333333333333332</ele><time>2026-04-19T18:37:27Z</time></trkpt><trkpt lat="43.64450314674653" lon="10.620739843990556"><ele>15.0</ele><time>2026-04-19T18:37:28Z</time></trkpt><trkpt lat="43.64434289508229" lon="10.620530202221364"><ele>15.0</ele><time>2026-04-19T18:37:29Z</time></trkpt><trkpt lat="43.64418757057005" lon="10.620326774760649"><ele>15.0</ele><time>2026-04-19T18:37:30Z</time></trkpt><trkpt lat="43.64403623712884" lon="10.620126370983131"><ele>15.0</ele><time>2026-04-19T18:37:31Z</time></trkpt><trkpt lat="43.64388512026679" lon="10.619925813157836"><ele>15.333333333333332</ele><time>2026-04-19T18:37:32Z</time></trkpt><trkpt lat="43.643735593714105" lon="10.619730783523034"><ele>15.666666666666666</ele><time>2026-04-19T18:37:33Z</time></trkpt><trkpt lat="43.643586773131794" lon="10.61953678607203"><ele>16.0</ele><time>2026-04-19T18:37:34Z</time></trkpt><trkpt lat="43.64343973182082" lon="10.619344361043892"><ele>15.333333333333332</ele><time>2026-04-19T18:37:35Z</time></trkpt><trkpt lat="43.643294869251584" lon="10.61915795086996"><ele>14.666666666666668</ele><time>2026-04-19T18:37:36Z</time></trkpt><trkpt lat="43.64314909171186" lon="10.618969891642683"><ele>14.0</ele><time>2026-04-19T18:37:37Z</time></trkpt><trkpt lat="43.64300201850771" lon="10.618776942934048"><ele>13.666666666666668</ele><time>2026-04-19T18:37:38Z</time></trkpt><trkpt lat="43.642854370350186" lon="10.618580076662566"><ele>13.333333333333332</ele><time>2026-04-19T18:37:39Z</time></trkpt><trkpt lat="43.642705899092334" lon="10.618382402701013"><ele>13.0</ele><time>2026-04-19T18:37:40Z</time></trkpt><trkpt lat="43.642550265942425" lon="10.618176477565504"><ele>13.333333333333332</ele><time>2026-04-19T18:37:41Z</time></trkpt><trkpt lat="43.6423967419956" lon="10.617974419575962"><ele>13.666666666666668</ele><time>2026-04-19T18:37:42Z</time></trkpt><trkpt lat="43.64224349217985" lon="10.617773154680865"><ele>14.0</ele><time>2026-04-19T18:37:43Z</time></trkpt><trkpt lat="43.64209168711195" lon="10.61757012775249"><ele>14.333333333333334</ele><time>2026-04-19T18:37:44Z</time></trkpt><trkpt lat="43.64194269057294" lon="10.617371819085859"><ele>14.666666666666668</ele><time>2026-04-19T18:37:45Z</time></trkpt><trkpt lat="43.64179702109164" lon="10.617179693965497"><ele>15.0</ele><time>2026-04-19T18:37:46Z</time></trkpt><trkpt lat="43.6416527633333" lon="10.616986399412475"><ele>15.0</ele><time>2026-04-19T18:37:47Z</time></trkpt><trkpt lat="43.64150779471491" lon="10.61679448303536"><ele>15.0</ele><time>2026-04-19T18:37:48Z</time></trkpt><trkpt lat="43.64136223066077" lon="10.616604296154335"><ele>15.0</ele><time>2026-04-19T18:37:49Z</time></trkpt><trkpt lat="43.641215235735324" lon="10.616412194971332"><ele>15.333333333333332</ele><time>2026-04-19T18:37:50Z</time></trkpt><trkpt lat="43.64106688789348" lon="10.616217911733889"><ele>15.666666666666666</ele><time>2026-04-19T18:37:51Z</time></trkpt><trkpt lat="43.640919470508656" lon="10.616022937906472"><ele>16.0</ele><time>2026-04-19T18:37:52Z</time></trkpt><trkpt lat="43.6407770618596" lon="10.615835870300751"><ele>16.0</ele><time>2026-04-19T18:37:53Z</time></trkpt><trkpt lat="43.64063609652489" lon="10.615649063554581"><ele>16.0</ele><time>2026-04-19T18:37:54Z</time></trkpt><trkpt lat="43.64049112524249" lon="10.615459286454685"><ele>16.0</ele><time>2026-04-19T18:37:55Z</time></trkpt><trkpt lat="43.64034001004734" lon="10.615260441750333"><ele>16.0</ele><time>2026-04-19T18:37:56Z</time></trkpt><trkpt lat="43.64018862935238" lon="10.615062478280436"><ele>16.0</ele><time>2026-04-19T18:37:57Z</time></trkpt><trkpt lat="43.640039712530815" lon="10.614866356970548"><ele>16.0</ele><time>2026-04-19T18:37:58Z</time></trkpt><trkpt lat="43.63988904787212" lon="10.61467001443483"><ele>15.666666666666666</ele><time>2026-04-19T18:37:59Z</time></trkpt><trkpt lat="43.63973822633218" lon="10.614471042948006"><ele>15.333333333333332</ele><time>2026-04-19T18:38:00Z</time></trkpt><trkpt lat="43.63958684488742" lon="10.614271179932173"><ele>15.0</ele><time>2026-04-19T18:38:01Z</time></trkpt><trkpt lat="43.639436712871195" lon="10.614075564972746"><ele>15.0</ele><time>2026-04-19T18:38:02Z</time></trkpt><trkpt lat="43.639290528292314" lon="10.613884658962204"><ele>15.0</ele><time>2026-04-19T18:38:03Z</time></trkpt><trkpt lat="43.63914599981256" lon="10.61369295021159"><ele>15.0</ele><time>2026-04-19T18:38:04Z</time></trkpt><trkpt lat="43.63899947248713" lon="10.613499711867938"><ele>15.0</ele><time>2026-04-19T18:38:05Z</time></trkpt><trkpt lat="43.638851303629615" lon="10.61330738389141"><ele>15.0</ele><time>2026-04-19T18:38:06Z</time></trkpt><trkpt lat="43.63870548798273" lon="10.613117622792196"><ele>15.0</ele><time>2026-04-19T18:38:07Z</time></trkpt><trkpt lat="43.63856677479018" lon="10.612935857933916"><ele>15.333333333333332</ele><time>2026-04-19T18:38:08Z</time></trkpt><trkpt lat="43.6384306376474" lon="10.612755039046421"><ele>15.666666666666666</ele><time>2026-04-19T18:38:09Z</time></trkpt><trkpt lat="43.63829648428444" lon="10.612576655510168"><ele>16.0</ele><time>2026-04-19T18:38:10Z</time></trkpt><trkpt lat="43.63816036571782" lon="10.612396906718113"><ele>16.0</ele><time>2026-04-19T18:38:11Z</time></trkpt><trkpt lat="43.63801729966107" lon="10.61220877072838"><ele>16.0</ele><time>2026-04-19T18:38:12Z</time></trkpt><trkpt lat="43.63786780501181" lon="10.612011982176863"><ele>16.0</ele><time>2026-04-19T18:38:13Z</time></trkpt><trkpt lat="43.63771692399185" lon="10.61181589371589"><ele>16.0</ele><time>2026-04-19T18:38:14Z</time></trkpt><trkpt lat="43.63757311217674" lon="10.611629869892948"><ele>16.0</ele><time>2026-04-19T18:38:15Z</time></trkpt><trkpt lat="43.6374306775976" lon="10.611445050926507"><ele>16.0</ele><time>2026-04-19T18:38:16Z</time></trkpt><trkpt lat="43.637291222225834" lon="10.611264206749455"><ele>15.666666666666666</ele><time>2026-04-19T18:38:17Z</time></trkpt><trkpt lat="43.63715804172359" lon="10.611087503288744"><ele>15.333333333333332</ele><time>2026-04-19T18:38:18Z</time></trkpt><trkpt lat="43.63702762130209" lon="10.610911580379017"><ele>15.0</ele><time>2026-04-19T18:38:19Z</time></trkpt><trkpt lat="43.63689499495411" lon="10.610733004987486"><ele>15.0</ele><time>2026-04-19T18:38:20Z</time></trkpt><trkpt lat="43.63675936149854" lon="10.610554812694602"><ele>15.0</ele><time>2026-04-19T18:38:21Z</time></trkpt><trkpt lat="43.63662062701149" lon="10.610375636098647"><ele>15.0</ele><time>2026-04-19T18:38:22Z</time></trkpt><trkpt lat="43.63647746277994" lon="10.610185782055915"><ele>14.666666666666668</ele><time>2026-04-19T18:38:23Z</time></trkpt><trkpt lat="43.63633716478511" lon="10.609998710492327"><ele>14.333333333333334</ele><time>2026-04-19T18:38:24Z</time></trkpt><trkpt lat="43.636200941310065" lon="10.609814085857495"><ele>14.0</ele><time>2026-04-19T18:38:25Z</time></trkpt><trkpt lat="43.636067424021796" lon="10.609633283653075"><ele>14.333333333333334</ele><time>2026-04-19T18:38:26Z</time></trkpt><trkpt lat="43.63593672456746" lon="10.609453548406627"><ele>14.666666666666668</ele><time>2026-04-19T18:38:27Z</time></trkpt><trkpt lat="43.63580883794711" lon="10.609272641281608"><ele>15.0</ele><time>2026-04-19T18:38:28Z</time></trkpt><trkpt lat="43.635680707733535" lon="10.609089707636818"><ele>15.0</ele><time>2026-04-19T18:38:29Z</time></trkpt><trkpt lat="43.63555901098942" lon="10.608913670867846"><ele>15.0</ele><time>2026-04-19T18:38:30Z</time></trkpt><trkpt lat="43.63543868270621" lon="10.60873631428157"><ele>15.0</ele><time>2026-04-19T18:38:31Z</time></trkpt><trkpt lat="43.635323616797805" lon="10.608561264709376"><ele>14.666666666666668</ele><time>2026-04-19T18:38:32Z</time></trkpt><trkpt lat="43.635212590704064" lon="10.608388672562233"><ele>14.333333333333334</ele><time>2026-04-19T18:38:33Z</time></trkpt><trkpt lat="43.6351070293549" lon="10.60821805346144"><ele>14.0</ele><time>2026-04-19T18:38:34Z</time></trkpt><trkpt lat="43.635011531469736" lon="10.608055516981215"><ele>14.0</ele><time>2026-04-19T18:38:35Z</time></trkpt><trkpt lat="43.63492760209307" lon="10.607897535269787"><ele>14.0</ele><time>2026-04-19T18:38:36Z</time></trkpt><trkpt lat="43.63484851843154" lon="10.607741315260068"><ele>14.0</ele><time>2026-04-19T18:38:37Z</time></trkpt><trkpt lat="43.63477508296684" lon="10.607596798876148"><ele>14.0</ele><time>2026-04-19T18:38:38Z</time></trkpt><trkpt lat="43.63470574713863" lon="10.607460355909316"><ele>14.2</ele><time>2026-04-19T18:38:39Z</time></trkpt><trkpt lat="43.63464017814798" lon="10.607329200750106"><ele>14.399999999999999</ele><time>2026-04-19T18:38:40Z</time></trkpt><trkpt lat="43.6345795275687" lon="10.607195336193138"><ele>14.6</ele><time>2026-04-19T18:38:41Z</time></trkpt><trkpt lat="43.63453125911508" lon="10.607064311187864"><ele>14.8</ele><time>2026-04-19T18:38:42Z</time></trkpt><trkpt lat="43.63449358939531" lon="10.60691934206394"><ele>15.0</ele><time>2026-04-19T18:38:43Z</time></trkpt><trkpt lat="43.63446533943362" lon="10.606762812135617"><ele>15.25</ele><time>2026-04-19T18:38:44Z</time></trkpt><trkpt lat="43.634446689789904" lon="10.606592583493377"><ele>15.5</ele><time>2026-04-19T18:38:45Z</time></trkpt><trkpt lat="43.63443937531612" lon="10.606424303633624"><ele>15.75</ele><time>2026-04-19T18:38:46Z</time></trkpt><trkpt lat="43.63444483310557" lon="10.6062522975029"><ele>16.0</ele><time>2026-04-19T18:38:47Z</time></trkpt><trkpt lat="43.634463166511665" lon="10.606075916150926"><ele>15.5</ele><time>2026-04-19T18:38:48Z</time></trkpt><trkpt lat="43.63449488858135" lon="10.605901114803894"><ele>15.0</ele><time>2026-04-19T18:38:49Z</time></trkpt><trkpt lat="43.63453966258481" lon="10.605729423788548"><ele>14.5</ele><time>2026-04-19T18:38:50Z</time></trkpt><trkpt lat="43.63460241789099" lon="10.605554268426088"><ele>14.0</ele><time>2026-04-19T18:38:51Z</time></trkpt><trkpt lat="43.634688548269885" lon="10.605377142750932"><ele>14.0</ele><time>2026-04-19T18:38:52Z</time></trkpt><trkpt lat="43.63479442747245" lon="10.605199622522274"><ele>14.0</ele><time>2026-04-19T18:38:53Z</time></trkpt><trkpt lat="43.634909893002124" lon="10.605024467540227"><ele>14.0</ele><time>2026-04-19T18:38:54Z</time></trkpt><trkpt lat="43.63501860831956" lon="10.604862710751874"><ele>14.0</ele><time>2026-04-19T18:38:55Z</time></trkpt><trkpt lat="43.63511870469582" lon="10.604705944138075"><ele>14.0</ele><time>2026-04-19T18:38:56Z</time></trkpt><trkpt lat="43.63521489417904" lon="10.604549994490185"><ele>14.0</ele><time>2026-04-19T18:38:57Z</time></trkpt><trkpt lat="43.635300855872536" lon="10.60440913761945"><ele>14.0</ele><time>2026-04-19T18:38:58Z</time></trkpt><trkpt lat="43.635381939073596" lon="10.604274905053352"><ele>13.5</ele><time>2026-04-19T18:38:59Z</time></trkpt><trkpt lat="43.63546474199347" lon="10.604137865584304"><ele>13.0</ele><time>2026-04-19T18:39:00Z</time></trkpt><trkpt lat="43.635560207262635" lon="10.60398160110765"><ele>12.5</ele><time>2026-04-19T18:39:01Z</time></trkpt><trkpt lat="43.6356456497378" lon="10.603797554825292"><ele>12.0</ele><time>2026-04-19T18:39:02Z</time></trkpt><trkpt lat="43.63573697499026" lon="10.60361594930739"><ele>12.0</ele><time>2026-04-19T18:39:03Z</time></trkpt><trkpt lat="43.63588074288979" lon="10.603482169969077"><ele>12.0</ele><time>2026-04-19T18:39:04Z</time></trkpt><trkpt lat="43.63599805807438" lon="10.603294042642831"><ele>12.0</ele><time>2026-04-19T18:39:05Z</time></trkpt><trkpt lat="43.6361142888794" lon="10.603110563384389"><ele>12.0</ele><time>2026-04-19T18:39:06Z</time></trkpt><trkpt lat="43.636225812056836" lon="10.602939728377102"><ele>12.0</ele><time>2026-04-19T18:39:07Z</time></trkpt><trkpt lat="43.636332539298394" lon="10.602774495851314"><ele>12.0</ele><time>2026-04-19T18:39:08Z</time></trkpt><trkpt lat="43.63643293772424" lon="10.602621217262108"><ele>12.0</ele><time>2026-04-19T18:39:09Z</time></trkpt><trkpt lat="43.636523795601015" lon="10.602481269832163"><ele>12.0</ele><time>2026-04-19T18:39:10Z</time></trkpt><trkpt lat="43.63661391772589" lon="10.602338597197233"><ele>12.0</ele><time>2026-04-19T18:39:11Z</time></trkpt><trkpt lat="43.63672468675612" lon="10.602169106437795"><ele>12.0</ele><time>2026-04-19T18:39:12Z</time></trkpt><trkpt lat="43.636835500661206" lon="10.602003587718363"><ele>12.5</ele><time>2026-04-19T18:39:13Z</time></trkpt><trkpt lat="43.63693290043886" lon="10.601865270540475"><ele>13.0</ele><time>2026-04-19T18:39:14Z</time></trkpt><trkpt lat="43.63702723185159" lon="10.601729475560399"><ele>13.5</ele><time>2026-04-19T18:39:15Z</time></trkpt><trkpt lat="43.63712439763142" lon="10.601602092593478"><ele>14.0</ele><time>2026-04-19T18:39:16Z</time></trkpt><trkpt lat="43.637207671047314" lon="10.601504254506413"><ele>14.000000000000002</ele><time>2026-04-19T18:39:17Z</time></trkpt><trkpt lat="43.63726376603099" lon="10.601402214966726"><ele>14.0</ele><time>2026-04-19T18:39:18Z</time></trkpt><trkpt lat="43.637321009145076" lon="10.601335967183939"><ele>14.0</ele><time>2026-04-19T18:39:19Z</time></trkpt><trkpt lat="43.63737291524855" lon="10.601279256885302"><ele>14.0</ele><time>2026-04-19T18:39:20Z</time></trkpt><trkpt lat="43.63742286209209" lon="10.601224687281753"><ele>14.000000000000002</ele><time>2026-04-19T18:39:21Z</time></trkpt><trkpt lat="43.6375318282496" lon="10.60128072451139"><ele>14.0</ele><time>2026-04-19T18:39:22Z</time></trkpt><trkpt lat="43.63761733548277" lon="10.601297499847089"><ele>14.0</ele><time>2026-04-19T18:39:23Z</time></trkpt><trkpt lat="43.63770431704409" lon="10.601300850426775"><ele>13.999999999999998</ele><time>2026-04-19T18:39:24Z</time></trkpt><trkpt lat="43.63779344322981" lon="10.601277745068332"><ele>13.999999999999998</ele><time>2026-04-19T18:39:25Z</time></trkpt><trkpt lat="43.637878491247164" lon="10.601223060733558"><ele>14.0</ele><time>2026-04-19T18:39:26Z</time></trkpt><trkpt lat="43.6379555190354" lon="10.601142196957602"><ele>14.0</ele><time>2026-04-19T18:39:27Z</time></trkpt><trkpt lat="43.63802209015299" lon="10.601043710735974"><ele>13.833333333333334</ele><time>2026-04-19T18:39:28Z</time></trkpt><trkpt lat="43.63807713791519" lon="10.600935523584452"><ele>13.666666666666668</ele><time>2026-04-19T18:39:29Z</time></trkpt><trkpt lat="43.63811495169962" lon="10.600820996436708"><ele>13.5</ele><time>2026-04-19T18:39:30Z</time></trkpt><trkpt lat="43.63813169900005" lon="10.600703689193182"><ele>13.333333333333332</ele><time>2026-04-19T18:39:31Z</time></trkpt><trkpt lat="43.63812750473859" lon="10.600589654743546"><ele>13.166666666666666</ele><time>2026-04-19T18:39:32Z</time></trkpt><trkpt lat="43.638102362122574" lon="10.600479344201103"><ele>13.0</ele><time>2026-04-19T18:39:33Z</time></trkpt><trkpt lat="43.63805679352001" lon="10.600386174392485"><ele>13.0</ele><time>2026-04-19T18:39:34Z</time></trkpt><trkpt lat="43.637992901152074" lon="10.600310324765418"><ele>13.0</ele><time>2026-04-19T18:39:35Z</time></trkpt><trkpt lat="43.63792320933839" lon="10.600240794044407"><ele>13.0</ele><time>2026-04-19T18:39:36Z</time></trkpt><trkpt lat="43.637824225275885" lon="10.600256240085752"><ele>13.0</ele><time>2026-04-19T18:39:37Z</time></trkpt><trkpt lat="43.637723485911515" lon="10.600288828229106"><ele>13.0</ele><time>2026-04-19T18:39:38Z</time></trkpt><trkpt lat="43.63761310562601" lon="10.600351886007603"><ele>13.25</ele><time>2026-04-19T18:39:39Z</time></trkpt><trkpt lat="43.637513133489314" lon="10.600403556849978"><ele>13.5</ele><time>2026-04-19T18:39:40Z</time></trkpt><trkpt lat="43.63746924075523" lon="10.600502547992157"><ele>13.75</ele><time>2026-04-19T18:39:41Z</time></trkpt><trkpt lat="43.63729077743204" lon="10.600415113426042"><ele>14.0</ele><time>2026-04-19T18:39:42Z</time></trkpt><trkpt lat="43.637184227690476" lon="10.600428738900954"><ele>14.0</ele><time>2026-04-19T18:39:43Z</time></trkpt><trkpt lat="43.63708569476982" lon="10.600462984173111"><ele>14.0</ele><time>2026-04-19T18:39:44Z</time></trkpt><trkpt lat="43.63699592774843" lon="10.600542044836725"><ele>14.0</ele><time>2026-04-19T18:39:45Z</time></trkpt><trkpt lat="43.63691008088644" lon="10.600663470416752"><ele>14.0</ele><time>2026-04-19T18:39:46Z</time></trkpt><trkpt lat="43.636820369019226" lon="10.600826017375029"><ele>14.0</ele><time>2026-04-19T18:39:47Z</time></trkpt><trkpt lat="43.63672336008443" lon="10.60101568992964"><ele>14.0</ele><time>2026-04-19T18:39:48Z</time></trkpt><trkpt lat="43.636633369600865" lon="10.601203164883197"><ele>14.0</ele><time>2026-04-19T18:39:49Z</time></trkpt><trkpt lat="43.63653395526774" lon="10.601418828773946"><ele>14.0</ele><time>2026-04-19T18:39:50Z</time></trkpt><trkpt lat="43.636425599947486" lon="10.601664995385166"><ele>14.0</ele><time>2026-04-19T18:39:51Z</time></trkpt><trkpt lat="43.636319462748155" lon="10.601894856471041"><ele>14.0</ele><time>2026-04-19T18:39:52Z</time></trkpt><trkpt lat="43.636225260296776" lon="10.602099146377588"><ele>13.333333333333334</ele><time>2026-04-19T18:39:53Z</time></trkpt><trkpt lat="43.636132864527255" lon="10.602306106014787"><ele>12.666666666666668</ele><time>2026-04-19T18:39:54Z</time></trkpt><trkpt lat="43.636033826724955" lon="10.602518422162088"><ele>12.0</ele><time>2026-04-19T18:39:55Z</time></trkpt><trkpt lat="43.63591901064413" lon="10.602741290969448"><ele>12.0</ele><time>2026-04-19T18:39:56Z</time></trkpt><trkpt lat="43.63581757407015" lon="10.602928902669417"><ele>12.0</ele><time>2026-04-19T18:39:57Z</time></trkpt><trkpt lat="43.635716357957165" lon="10.603104446140032"><ele>12.0</ele><time>2026-04-19T18:39:58Z</time></trkpt><trkpt lat="43.63561607668057" lon="10.60325628867486"><ele>12.0</ele><time>2026-04-19T18:39:59Z</time></trkpt><trkpt lat="43.635494783216856" lon="10.603399522640297"><ele>12.0</ele><time>2026-04-19T18:40:00Z</time></trkpt><trkpt lat="43.6353627261899" lon="10.603531970547175"><ele>12.0</ele><time>2026-04-19T18:40:01Z</time></trkpt><trkpt lat="43.635220914800385" lon="10.603646090168722"><ele>12.666666666666668</ele><time>2026-04-19T18:40:02Z</time></trkpt><trkpt lat="43.63507834382469" lon="10.603748119669556"><ele>13.333333333333334</ele><time>2026-04-19T18:40:03Z</time></trkpt><trkpt lat="43.63494622822772" lon="10.603840185749767"><ele>14.0</ele><time>2026-04-19T18:40:04Z</time></trkpt><trkpt lat="43.634797155356836" lon="10.603926060724213"><ele>14.0</ele><time>2026-04-19T18:40:05Z</time></trkpt><trkpt lat="43.63462231917384" lon="10.603997257911217"><ele>14.0</ele><time>2026-04-19T18:40:06Z</time></trkpt><trkpt lat="43.634447890104944" lon="10.604055712375553"><ele>14.0</ele><time>2026-04-19T18:40:07Z</time></trkpt><trkpt lat="43.63428440943759" lon="10.604108830446195"><ele>14.333333333333334</ele><time>2026-04-19T18:40:08Z</time></trkpt><trkpt lat="43.63413043109969" lon="10.604157305292516"><ele>14.666666666666668</ele><time>2026-04-19T18:40:09Z</time></trkpt><trkpt lat="43.63397808826337" lon="10.604212473341272"><ele>15.0</ele><time>2026-04-19T18:40:10Z</time></trkpt><trkpt lat="43.633828772067766" lon="10.604289138149026"><ele>15.0</ele><time>2026-04-19T18:40:11Z</time></trkpt><trkpt lat="43.63368053689005" lon="10.604380491089506"><ele>15.0</ele><time>2026-04-19T18:40:12Z</time></trkpt><trkpt lat="43.63355015925222" lon="10.604468166249072"><ele>15.0</ele><time>2026-04-19T18:40:13Z</time></trkpt><trkpt lat="43.63342095704888" lon="10.604576609503834"><ele>15.5</ele><time>2026-04-19T18:40:14Z</time></trkpt><trkpt lat="43.633303874979326" lon="10.604683255327219"><ele>16.0</ele><time>2026-04-19T18:40:15Z</time></trkpt><trkpt lat="43.6332050761622" lon="10.604766456826427"><ele>16.5</ele><time>2026-04-19T18:40:16Z</time></trkpt><trkpt lat="43.63310035828082" lon="10.604833428963007"><ele>17.0</ele><time>2026-04-19T18:40:17Z</time></trkpt><trkpt lat="43.63300365367685" lon="10.604886524788093"><ele>17.0</ele><time>2026-04-19T18:40:18Z</time></trkpt><trkpt lat="43.632907873858834" lon="10.604934312184934"><ele>17.0</ele><time>2026-04-19T18:40:19Z</time></trkpt><trkpt lat="43.6328109705324" lon="10.604971263311668"><ele>17.0</ele><time>2026-04-19T18:40:20Z</time></trkpt><trkpt lat="43.63271654732134" lon="10.604998931349572"><ele>17.0</ele><time>2026-04-19T18:40:21Z</time></trkpt><trkpt lat="43.632629205617306" lon="10.605021370836312"><ele>17.0</ele><time>2026-04-19T18:40:22Z</time></trkpt><trkpt lat="43.632553060304986" lon="10.605035858876295"><ele>16.6</ele><time>2026-04-19T18:40:23Z</time></trkpt><trkpt lat="43.632486289210036" lon="10.60504521201887"><ele>16.2</ele><time>2026-04-19T18:40:24Z</time></trkpt><trkpt lat="43.632366594355176" lon="10.604999013408479"><ele>15.8</ele><time>2026-04-19T18:40:26Z</time></trkpt><trkpt lat="43.632296222160235" lon="10.604922614811333"><ele>15.4</ele><time>2026-04-19T18:40:27Z</time></trkpt><trkpt lat="43.6322269965122" lon="10.604857886515958"><ele>15.0</ele><time>2026-04-19T18:40:28Z</time></trkpt><trkpt lat="43.63214517381802" lon="10.604804303456708"><ele>15.0</ele><time>2026-04-19T18:40:29Z</time></trkpt><trkpt lat="43.63204222529727" lon="10.60480787247688"><ele>15.0</ele><time>2026-04-19T18:40:30Z</time></trkpt><trkpt lat="43.63194790430536" lon="10.604894605951946"><ele>15.0</ele><time>2026-04-19T18:40:31Z</time></trkpt><trkpt lat="43.6318755239399" lon="10.604955319620975"><ele>15.0</ele><time>2026-04-19T18:40:32Z</time></trkpt><trkpt lat="43.63182689078485" lon="10.60502227542864"><ele>15.0</ele><time>2026-04-19T18:40:33Z</time></trkpt><trkpt lat="43.63170352919146" lon="10.604999219105363"><ele>15.25</ele><time>2026-04-19T18:40:34Z</time></trkpt><trkpt lat="43.63158547529202" lon="10.604960633894079"><ele>15.5</ele><time>2026-04-19T18:40:35Z</time></trkpt><trkpt lat="43.63144024485775" lon="10.604884157834602"><ele>15.75</ele><time>2026-04-19T18:40:36Z</time></trkpt><trkpt lat="43.63129684327351" lon="10.604797682394919"><ele>16.0</ele><time>2026-04-19T18:40:37Z</time></trkpt><trkpt lat="43.631147643756016" lon="10.604714861949036"><ele>15.666666666666666</ele><time>2026-04-19T18:40:38Z</time></trkpt><trkpt lat="43.63097808445356" lon="10.604624429314192"><ele>15.333333333333332</ele><time>2026-04-19T18:40:39Z</time></trkpt><trkpt lat="43.630792872525724" lon="10.604525282610274"><ele>15.0</ele><time>2026-04-19T18:40:40Z</time></trkpt><trkpt lat="43.63061275994472" lon="10.604425539858491"><ele>15.0</ele><time>2026-04-19T18:40:41Z</time></trkpt><trkpt lat="43.630420646277365" lon="10.604316140598982"><ele>15.0</ele><time>2026-04-19T18:40:42Z</time></trkpt><trkpt lat="43.63021289493573" lon="10.604202025412162"><ele>15.0</ele><time>2026-04-19T18:40:43Z</time></trkpt><trkpt lat="43.629992381966005" lon="10.604084877028313"><ele>14.0</ele><time>2026-04-19T18:40:44Z</time></trkpt><trkpt lat="43.629761785418495" lon="10.603961068439324"><ele>13.0</ele><time>2026-04-19T18:40:45Z</time></trkpt><trkpt lat="43.6295535909272" lon="10.60384798524315"><ele>13.333333333333332</ele><time>2026-04-19T18:40:46Z</time></trkpt><trkpt lat="43.62936143526465" lon="10.603741343434356"><ele>13.666666666666668</ele><time>2026-04-19T18:40:47Z</time></trkpt><trkpt lat="43.629161420694075" lon="10.603630756079562"><ele>14.0</ele><time>2026-04-19T18:40:48Z</time></trkpt><trkpt lat="43.62895961790052" lon="10.603521200260882"><ele>14.0</ele><time>2026-04-19T18:40:49Z</time></trkpt><trkpt lat="43.6287642385326" lon="10.60341392276146"><ele>14.0</ele><time>2026-04-19T18:40:50Z</time></trkpt><trkpt lat="43.62856882450908" lon="10.603304882287752"><ele>14.0</ele><time>2026-04-19T18:40:51Z</time></trkpt><trkpt lat="43.62837103171227" lon="10.603192355884035"><ele>14.666666666666668</ele><time>2026-04-19T18:40:52Z</time></trkpt><trkpt lat="43.62816416424606" lon="10.603077396653498"><ele>15.333333333333332</ele><time>2026-04-19T18:40:53Z</time></trkpt><trkpt lat="43.627974568477285" lon="10.6029764868505"><ele>16.0</ele><time>2026-04-19T18:40:54Z</time></trkpt><trkpt lat="43.62780005838365" lon="10.602881105909358"><ele>16.0</ele><time>2026-04-19T18:40:55Z</time></trkpt><trkpt lat="43.62762375688739" lon="10.602783086559128"><ele>16.0</ele><time>2026-04-19T18:40:56Z</time></trkpt><trkpt lat="43.62743986091622" lon="10.602681589184629"><ele>16.0</ele><time>2026-04-19T18:40:57Z</time></trkpt><trkpt lat="43.62725242015203" lon="10.602588081542049"><ele>16.0</ele><time>2026-04-19T18:40:58Z</time></trkpt><trkpt lat="43.62706367330464" lon="10.602505882370616"><ele>16.0</ele><time>2026-04-19T18:40:59Z</time></trkpt><trkpt lat="43.626870971656786" lon="10.602425811742172"><ele>16.0</ele><time>2026-04-19T18:41:00Z</time></trkpt><trkpt lat="43.62668948582189" lon="10.602362031745848"><ele>15.666666666666666</ele><time>2026-04-19T18:41:01Z</time></trkpt><trkpt lat="43.62651120520079" lon="10.60230421632922"><ele>15.333333333333332</ele><time>2026-04-19T18:41:02Z</time></trkpt><trkpt lat="43.626328277946754" lon="10.602253434042156"><ele>15.0</ele><time>2026-04-19T18:41:03Z</time></trkpt><trkpt lat="43.62613713173378" lon="10.602214938025506"><ele>15.0</ele><time>2026-04-19T18:41:04Z</time></trkpt><trkpt lat="43.62596513728074" lon="10.602187249906434"><ele>15.0</ele><time>2026-04-19T18:41:05Z</time></trkpt><trkpt lat="43.62579883231861" lon="10.602169117521589"><ele>15.0</ele><time>2026-04-19T18:41:06Z</time></trkpt><trkpt lat="43.625629321938064" lon="10.6021650202205"><ele>15.0</ele><time>2026-04-19T18:41:07Z</time></trkpt><trkpt lat="43.62546364816995" lon="10.60216981161411"><ele>15.0</ele><time>2026-04-19T18:41:08Z</time></trkpt><trkpt lat="43.625310283251096" lon="10.602188142059749"><ele>15.0</ele><time>2026-04-19T18:41:09Z</time></trkpt><trkpt lat="43.625168988922894" lon="10.602209284391142"><ele>15.0</ele><time>2026-04-19T18:41:10Z</time></trkpt><trkpt lat="43.625039160477144" lon="10.60223067850052"><ele>15.0</ele><time>2026-04-19T18:41:11Z</time></trkpt><trkpt lat="43.624917852424524" lon="10.60225305994266"><ele>15.0</ele><time>2026-04-19T18:41:12Z</time></trkpt><trkpt lat="43.6248039407689" lon="10.602275878138528"><ele>15.0</ele><time>2026-04-19T18:41:13Z</time></trkpt><trkpt lat="43.62470325093856" lon="10.602303301905657"><ele>15.0</ele><time>2026-04-19T18:41:14Z</time></trkpt><trkpt lat="43.624612530428834" lon="10.602334251818048"><ele>15.0</ele><time>2026-04-19T18:41:15Z</time></trkpt><trkpt lat="43.624533065168144" lon="10.60236677024423"><ele>15.0</ele><time>2026-04-19T18:41:16Z</time></trkpt><trkpt lat="43.62445849281996" lon="10.602400478199623"><ele>15.0</ele><time>2026-04-19T18:41:17Z</time></trkpt><trkpt lat="43.62438682627525" lon="10.602432480318734"><ele>15.0</ele><time>2026-04-19T18:41:18Z</time></trkpt><trkpt lat="43.624293305914534" lon="10.602457634859618"><ele>15.0</ele><time>2026-04-19T18:41:19Z</time></trkpt><trkpt lat="43.62417418278052" lon="10.602481418460297"><ele>15.0</ele><time>2026-04-19T18:41:20Z</time></trkpt><trkpt lat="43.62409701896034" lon="10.602439237565923"><ele>15.0</ele><time>2026-04-19T18:41:21Z</time></trkpt><trkpt lat="43.6240052306676" lon="10.602446096004101"><ele>15.0</ele><time>2026-04-19T18:41:22Z</time></trkpt><trkpt lat="43.62392436603979" lon="10.602457439469422"><ele>15.0</ele><time>2026-04-19T18:41:23Z</time></trkpt><trkpt lat="43.62384391863134" lon="10.602535133062498"><ele>15.0</ele><time>2026-04-19T18:41:24Z</time></trkpt><trkpt lat="43.62379203887309" lon="10.6026818896162"><ele>15.0</ele><time>2026-04-19T18:41:25Z</time></trkpt><trkpt lat="43.623739538301685" lon="10.602826558326777"><ele>15.0</ele><time>2026-04-19T18:41:26Z</time></trkpt><trkpt lat="43.62366831866991" lon="10.602968879706438"><ele>15.0</ele><time>2026-04-19T18:41:27Z</time></trkpt><trkpt lat="43.6235506054181" lon="10.603111417749435"><ele>15.0</ele><time>2026-04-19T18:41:28Z</time></trkpt><trkpt lat="43.6234164071522" lon="10.60325066978686"><ele>15.333333333333332</ele><time>2026-04-19T18:41:29Z</time></trkpt><trkpt lat="43.62328687071898" lon="10.603399190779882"><ele>15.666666666666666</ele><time>2026-04-19T18:41:30Z</time></trkpt><trkpt lat="43.623147199047175" lon="10.603582947425718"><ele>16.0</ele><time>2026-04-19T18:41:31Z</time></trkpt><trkpt lat="43.62302183159839" lon="10.603765361808332"><ele>16.0</ele><time>2026-04-19T18:41:32Z</time></trkpt><trkpt lat="43.62290684362041" lon="10.603940643438513"><ele>16.0</ele><time>2026-04-19T18:41:33Z</time></trkpt><trkpt lat="43.62279470621577" lon="10.604126367373032"><ele>16.0</ele><time>2026-04-19T18:41:34Z</time></trkpt><trkpt lat="43.62268881412645" lon="10.604318442507129"><ele>16.333333333333332</ele><time>2026-04-19T18:41:35Z</time></trkpt><trkpt lat="43.62259161651003" lon="10.604508823961021"><ele>16.666666666666668</ele><time>2026-04-19T18:41:36Z</time></trkpt><trkpt lat="43.622498973552325" lon="10.604707654168255"><ele>17.0</ele><time>2026-04-19T18:41:37Z</time></trkpt><trkpt lat="43.62240695979982" lon="10.604916949769972"><ele>17.0</ele><time>2026-04-19T18:41:38Z</time></trkpt><trkpt lat="43.62231980237519" lon="10.605117956178649"><ele>17.0</ele><time>2026-04-19T18:41:39Z</time></trkpt><trkpt lat="43.62223149824143" lon="10.60531957554354"><ele>17.0</ele><time>2026-04-19T18:41:40Z</time></trkpt><trkpt lat="43.622135805160276" lon="10.605542847684395"><ele>17.0</ele><time>2026-04-19T18:41:41Z</time></trkpt><trkpt lat="43.62203628579845" lon="10.605790079678021"><ele>17.0</ele><time>2026-04-19T18:41:42Z</time></trkpt><trkpt lat="43.6219381377596" lon="10.606047886288735"><ele>17.0</ele><time>2026-04-19T18:41:43Z</time></trkpt><trkpt lat="43.62185148699227" lon="10.606286067233622"><ele>17.0</ele><time>2026-04-19T18:41:44Z</time></trkpt><trkpt lat="43.62174979936776" lon="10.606506327296042"><ele>17.0</ele><time>2026-04-19T18:41:45Z</time></trkpt><trkpt lat="43.62167529273065" lon="10.606745753471229"><ele>17.0</ele><time>2026-04-19T18:41:46Z</time></trkpt><trkpt lat="43.62158646935863" lon="10.606971408221161"><ele>16.333333333333336</ele><time>2026-04-19T18:41:47Z</time></trkpt><trkpt lat="43.62149692711282" lon="10.607207524675578"><ele>15.666666666666668</ele><time>2026-04-19T18:41:48Z</time></trkpt><trkpt lat="43.62140921281105" lon="10.60744206806093"><ele>15.0</ele><time>2026-04-19T18:41:49Z</time></trkpt><trkpt lat="43.62132189287539" lon="10.607662008086718"><ele>15.0</ele><time>2026-04-19T18:41:50Z</time></trkpt><trkpt lat="43.62123502594689" lon="10.6078753406838"><ele>15.0</ele><time>2026-04-19T18:41:51Z</time></trkpt><trkpt lat="43.62116106062896" lon="10.60807011754683"><ele>15.0</ele><time>2026-04-19T18:41:52Z</time></trkpt><trkpt lat="43.62109087010211" lon="10.608251698244024"><ele>15.25</ele><time>2026-04-19T18:41:53Z</time></trkpt><trkpt lat="43.621023359396105" lon="10.608418660791552"><ele>15.5</ele><time>2026-04-19T18:41:54Z</time></trkpt><trkpt lat="43.620953815819135" lon="10.608591157627565"><ele>15.75</ele><time>2026-04-19T18:41:55Z</time></trkpt><trkpt lat="43.62088063606544" lon="10.608786509015411"><ele>16.0</ele><time>2026-04-19T18:41:56Z</time></trkpt><trkpt lat="43.62080497383721" lon="10.60899249390314"><ele>16.0</ele><time>2026-04-19T18:41:57Z</time></trkpt><trkpt lat="43.62072137682955" lon="10.609212444672018"><ele>16.0</ele><time>2026-04-19T18:41:58Z</time></trkpt><trkpt lat="43.62064031561102" lon="10.60942478551685"><ele>16.0</ele><time>2026-04-19T18:41:59Z</time></trkpt><trkpt lat="43.62056259655838" lon="10.609636361689933"><ele>16.0</ele><time>2026-04-19T18:42:00Z</time></trkpt><trkpt lat="43.62048604779768" lon="10.609845292132059"><ele>16.0</ele><time>2026-04-19T18:42:01Z</time></trkpt><trkpt lat="43.62040103920485" lon="10.610065478520305"><ele>16.0</ele><time>2026-04-19T18:42:02Z</time></trkpt><trkpt lat="43.62032243000915" lon="10.610266212793716"><ele>16.333333333333332</ele><time>2026-04-19T18:42:03Z</time></trkpt><trkpt lat="43.62025209363015" lon="10.610452919756543"><ele>16.666666666666668</ele><time>2026-04-19T18:42:04Z</time></trkpt><trkpt lat="43.62018575990533" lon="10.61063593591703"><ele>17.0</ele><time>2026-04-19T18:42:05Z</time></trkpt><trkpt lat="43.62011431393339" lon="10.610818411291596"><ele>17.0</ele><time>2026-04-19T18:42:06Z</time></trkpt><trkpt lat="43.620047202433554" lon="10.610986283611956"><ele>17.0</ele><time>2026-04-19T18:42:07Z</time></trkpt><trkpt lat="43.61998766297247" lon="10.61114278938251"><ele>17.0</ele><time>2026-04-19T18:42:08Z</time></trkpt><trkpt lat="43.619935254472324" lon="10.611290768746892"><ele>17.0</ele><time>2026-04-19T18:42:09Z</time></trkpt><trkpt lat="43.619881743952924" lon="10.61142857805299"><ele>17.0</ele><time>2026-04-19T18:42:10Z</time></trkpt><trkpt lat="43.61982976910167" lon="10.611555650137944"><ele>17.0</ele><time>2026-04-19T18:42:11Z</time></trkpt><trkpt lat="43.61978492587112" lon="10.611658903445113"><ele>17.0</ele><time>2026-04-19T18:42:12Z</time></trkpt><trkpt lat="43.61973967563666" lon="10.611750978890628"><ele>17.0</ele><time>2026-04-19T18:42:13Z</time></trkpt><trkpt lat="43.619685302389286" lon="10.611840744194897"><ele>17.0</ele><time>2026-04-19T18:42:14Z</time></trkpt><trkpt lat="43.61960545897399" lon="10.611931965069932"><ele>17.0</ele><time>2026-04-19T18:42:15Z</time></trkpt><trkpt lat="43.61952172901864" lon="10.612013375518524"><ele>17.0</ele><time>2026-04-19T18:42:16Z</time></trkpt><trkpt lat="43.619447431484296" lon="10.612073110652634"><ele>17.0</ele><time>2026-04-19T18:42:17Z</time></trkpt><trkpt lat="43.61939169049552" lon="10.61218928229752"><ele>17.0</ele><time>2026-04-19T18:42:18Z</time></trkpt><trkpt lat="43.619390982776686" lon="10.612364471073036"><ele>17.0</ele><time>2026-04-19T18:42:19Z</time></trkpt><trkpt lat="43.6193790229592" lon="10.612546321576517"><ele>17.25</ele><time>2026-04-19T18:42:20Z</time></trkpt><trkpt lat="43.61935222301981" lon="10.612719279603839"><ele>17.5</ele><time>2026-04-19T18:42:21Z</time></trkpt><trkpt lat="43.61930638573948" lon="10.612883414361148"><ele>17.75</ele><time>2026-04-19T18:42:22Z</time></trkpt><trkpt lat="43.61925506143668" lon="10.61305543773401"><ele>18.0</ele><time>2026-04-19T18:42:23Z</time></trkpt><trkpt lat="43.61917582428768" lon="10.613228777255248"><ele>18.0</ele><time>2026-04-19T18:42:24Z</time></trkpt><trkpt lat="43.61911929487698" lon="10.613425672103247"><ele>18.0</ele><time>2026-04-19T18:42:25Z</time></trkpt><trkpt lat="43.61904820642381" lon="10.613613785631182"><ele>18.0</ele><time>2026-04-19T18:42:26Z</time></trkpt><trkpt lat="43.61895757610348" lon="10.613802250267481"><ele>18.0</ele><time>2026-04-19T18:42:27Z</time></trkpt><trkpt lat="43.618879138408936" lon="10.613997538714425"><ele>18.0</ele><time>2026-04-19T18:42:28Z</time></trkpt><trkpt lat="43.61880801177486" lon="10.614207631376656"><ele>18.0</ele><time>2026-04-19T18:42:29Z</time></trkpt><trkpt lat="43.61871784830284" lon="10.614412932196693"><ele>18.0</ele><time>2026-04-19T18:42:30Z</time></trkpt><trkpt lat="43.61864073141971" lon="10.614591503718847"><ele>18.0</ele><time>2026-04-19T18:42:31Z</time></trkpt><trkpt lat="43.61855854070597" lon="10.61476593951082"><ele>18.0</ele><time>2026-04-19T18:42:32Z</time></trkpt><trkpt lat="43.61846666555607" lon="10.614946334436118"><ele>18.0</ele><time>2026-04-19T18:42:33Z</time></trkpt><trkpt lat="43.61837366530407" lon="10.615133342630884"><ele>18.0</ele><time>2026-04-19T18:42:34Z</time></trkpt><trkpt lat="43.61827991818339" lon="10.615319982438038"><ele>18.0</ele><time>2026-04-19T18:42:35Z</time></trkpt><trkpt lat="43.618184287494394" lon="10.615500403216867"><ele>18.0</ele><time>2026-04-19T18:42:36Z</time></trkpt><trkpt lat="43.61808601600798" lon="10.615677716445894"><ele>18.0</ele><time>2026-04-19T18:42:37Z</time></trkpt><trkpt lat="43.617988654443806" lon="10.615852374816992"><ele>18.0</ele><time>2026-04-19T18:42:38Z</time></trkpt><trkpt lat="43.61789388718502" lon="10.616020880114212"><ele>18.0</ele><time>2026-04-19T18:42:39Z</time></trkpt><trkpt lat="43.617794259513815" lon="10.616194003708182"><ele>18.0</ele><time>2026-04-19T18:42:40Z</time></trkpt><trkpt lat="43.61768901301653" lon="10.61636488972671"><ele>18.0</ele><time>2026-04-19T18:42:41Z</time></trkpt><trkpt lat="43.617577226315824" lon="10.61653182639816"><ele>18.0</ele><time>2026-04-19T18:42:42Z</time></trkpt><trkpt lat="43.617451852483754" lon="10.616713492240535"><ele>18.0</ele><time>2026-04-19T18:42:43Z</time></trkpt><trkpt lat="43.6173398303272" lon="10.61687335845755"><ele>18.0</ele><time>2026-04-19T18:42:44Z</time></trkpt><trkpt lat="43.61723275280804" lon="10.617026212817251"><ele>18.333333333333332</ele><time>2026-04-19T18:42:45Z</time></trkpt><trkpt lat="43.617124295926494" lon="10.617180317465827"><ele>18.666666666666664</ele><time>2026-04-19T18:42:46Z</time></trkpt><trkpt lat="43.61701086451455" lon="10.617334840818204"><ele>19.0</ele><time>2026-04-19T18:42:47Z</time></trkpt><trkpt lat="43.616885908351804" lon="10.617493294826488"><ele>18.666666666666664</ele><time>2026-04-19T18:42:48Z</time></trkpt><trkpt lat="43.6167742143547" lon="10.617633683103689"><ele>18.333333333333332</ele><time>2026-04-19T18:42:49Z</time></trkpt><trkpt lat="43.61666204080929" lon="10.61777684556417"><ele>18.0</ele><time>2026-04-19T18:42:50Z</time></trkpt><trkpt lat="43.61653832643118" lon="10.617930358857535"><ele>18.0</ele><time>2026-04-19T18:42:51Z</time></trkpt><trkpt lat="43.61640721383208" lon="10.618087007280531"><ele>18.0</ele><time>2026-04-19T18:42:52Z</time></trkpt><trkpt lat="43.616275046277586" lon="10.618231883699615"><ele>18.0</ele><time>2026-04-19T18:42:53Z</time></trkpt><trkpt lat="43.61613574701584" lon="10.618369674420531"><ele>18.0</ele><time>2026-04-19T18:42:54Z</time></trkpt><trkpt lat="43.6159941809256" lon="10.618501085369397"><ele>18.0</ele><time>2026-04-19T18:42:55Z</time></trkpt><trkpt lat="43.61586532388357" lon="10.618622216867271"><ele>18.0</ele><time>2026-04-19T18:42:56Z</time></trkpt><trkpt lat="43.61573668811158" lon="10.618731942656986"><ele>18.333333333333332</ele><time>2026-04-19T18:42:57Z</time></trkpt><trkpt lat="43.61560216849008" lon="10.618846842323471"><ele>18.666666666666664</ele><time>2026-04-19T18:42:58Z</time></trkpt><trkpt lat="43.61547107699099" lon="10.618958449602978"><ele>19.0</ele><time>2026-04-19T18:42:59Z</time></trkpt><trkpt lat="43.615333000866414" lon="10.619074937248175"><ele>18.666666666666664</ele><time>2026-04-19T18:43:00Z</time></trkpt><trkpt lat="43.61519468174498" lon="10.619190855895681"><ele>18.333333333333332</ele><time>2026-04-19T18:43:01Z</time></trkpt><trkpt lat="43.615052671636825" lon="10.619299319117758"><ele>18.0</ele><time>2026-04-19T18:43:02Z</time></trkpt><trkpt lat="43.61490034815053" lon="10.619403021796915"><ele>18.333333333333332</ele><time>2026-04-19T18:43:03Z</time></trkpt><trkpt lat="43.61474375805225" lon="10.619500745195381"><ele>18.666666666666664</ele><time>2026-04-19T18:43:04Z</time></trkpt><trkpt lat="43.61457895785692" lon="10.619592437698719"><ele>19.0</ele><time>2026-04-19T18:43:05Z</time></trkpt><trkpt lat="43.61440199065422" lon="10.619681058075185"><ele>19.333333333333332</ele><time>2026-04-19T18:43:06Z</time></trkpt><trkpt lat="43.614244128040674" lon="10.619755324437714"><ele>19.666666666666668</ele><time>2026-04-19T18:43:07Z</time></trkpt><trkpt lat="43.61409526909648" lon="10.619825621143068"><ele>20.0</ele><time>2026-04-19T18:43:08Z</time></trkpt><trkpt lat="43.61393860211777" lon="10.619898172195523"><ele>20.0</ele><time>2026-04-19T18:43:09Z</time></trkpt><trkpt lat="43.61378174041913" lon="10.619969401126905"><ele>20.0</ele><time>2026-04-19T18:43:10Z</time></trkpt><trkpt lat="43.613632358168275" lon="10.620037524779214"><ele>20.0</ele><time>2026-04-19T18:43:11Z</time></trkpt><trkpt lat="43.61349274803059" lon="10.620105412502609"><ele>20.25</ele><time>2026-04-19T18:43:12Z</time></trkpt><trkpt lat="43.613359090434564" lon="10.62016921398936"><ele>20.5</ele><time>2026-04-19T18:43:13Z</time></trkpt><trkpt lat="43.613238295228925" lon="10.620228876623106"><ele>20.75</ele><time>2026-04-19T18:43:14Z</time></trkpt><trkpt lat="43.61311904710607" lon="10.62028661148731"><ele>21.0</ele><time>2026-04-19T18:43:15Z</time></trkpt><trkpt lat="43.61300383168728" lon="10.620340534073497"><ele>21.25</ele><time>2026-04-19T18:43:16Z</time></trkpt><trkpt lat="43.61287478767789" lon="10.62039846372357"><ele>21.5</ele><time>2026-04-19T18:43:17Z</time></trkpt><trkpt lat="43.61273056854557" lon="10.62045961810114"><ele>21.75</ele><time>2026-04-19T18:43:18Z</time></trkpt><trkpt lat="43.612582673676904" lon="10.62051665359171"><ele>22.0</ele><time>2026-04-19T18:43:19Z</time></trkpt><trkpt lat="43.61243189467409" lon="10.620561156737352"><ele>22.5</ele><time>2026-04-19T18:43:20Z</time></trkpt><trkpt lat="43.61228840043835" lon="10.62059277893004"><ele>23.0</ele><time>2026-04-19T18:43:21Z</time></trkpt><trkpt lat="43.61214064805997" lon="10.620618217057283"><ele>23.5</ele><time>2026-04-19T18:43:22Z</time></trkpt><trkpt lat="43.611996355964926" lon="10.620649096721733"><ele>24.0</ele><time>2026-04-19T18:43:23Z</time></trkpt><trkpt lat="43.611863654496325" lon="10.620690918053242"><ele>24.0</ele><time>2026-04-19T18:43:24Z</time></trkpt><trkpt lat="43.61173937137323" lon="10.620744564964525"><ele>24.0</ele><time>2026-04-19T18:43:25Z</time></trkpt><trkpt lat="43.611622963599984" lon="10.620808682355289"><ele>24.0</ele><time>2026-04-19T18:43:26Z</time></trkpt><trkpt lat="43.61151965609595" lon="10.620882394261036"><ele>24.0</ele><time>2026-04-19T18:43:27Z</time></trkpt><trkpt lat="43.611421030397935" lon="10.620969609250832"><ele>24.0</ele><time>2026-04-19T18:43:28Z</time></trkpt><trkpt lat="43.61133060953665" lon="10.621067671149026"><ele>24.0</ele><time>2026-04-19T18:43:29Z</time></trkpt><trkpt lat="43.61124347447391" lon="10.621211999960256"><ele>24.0</ele><time>2026-04-19T18:43:30Z</time></trkpt><trkpt lat="43.611117324599405" lon="10.621355388615715"><ele>24.0</ele><time>2026-04-19T18:43:31Z</time></trkpt><trkpt lat="43.6109882882142" lon="10.621548440166487"><ele>24.333333333333336</ele><time>2026-04-19T18:43:32Z</time></trkpt><trkpt lat="43.61085042348262" lon="10.621752820650444"><ele>24.666666666666668</ele><time>2026-04-19T18:43:33Z</time></trkpt><trkpt lat="43.61071607286759" lon="10.621952696139532"><ele>25.0</ele><time>2026-04-19T18:43:34Z</time></trkpt><trkpt lat="43.610559128208486" lon="10.622184137947267"><ele>24.333333333333336</ele><time>2026-04-19T18:43:35Z</time></trkpt><trkpt lat="43.61041241631024" lon="10.622398936933536"><ele>23.666666666666668</ele><time>2026-04-19T18:43:36Z</time></trkpt><trkpt lat="43.610276991391444" lon="10.622596405212517"><ele>23.0</ele><time>2026-04-19T18:43:37Z</time></trkpt><trkpt lat="43.61012442489526" lon="10.622811140860508"><ele>24.0</ele><time>2026-04-19T18:43:38Z</time></trkpt><trkpt lat="43.60995183405649" lon="10.623036391740264"><ele>25.0</ele><time>2026-04-19T18:43:39Z</time></trkpt><trkpt lat="43.60976525277547" lon="10.623255181553601"><ele>25.0</ele><time>2026-04-19T18:43:40Z</time></trkpt><trkpt lat="43.60956674595203" lon="10.623470000179992"><ele>25.0</ele><time>2026-04-19T18:43:41Z</time></trkpt><trkpt lat="43.609385444171146" lon="10.62366885703497"><ele>26.0</ele><time>2026-04-19T18:43:42Z</time></trkpt><trkpt lat="43.6092183586478" lon="10.62386049224544"><ele>27.0</ele><time>2026-04-19T18:43:43Z</time></trkpt><trkpt lat="43.609051148420825" lon="10.62404964632419"><ele>28.0</ele><time>2026-04-19T18:43:44Z</time></trkpt><trkpt lat="43.608873437048196" lon="10.62424896350127"><ele>28.0</ele><time>2026-04-19T18:43:45Z</time></trkpt><trkpt lat="43.60869874353122" lon="10.624450813351434"><ele>28.0</ele><time>2026-04-19T18:43:46Z</time></trkpt><trkpt lat="43.60853936343147" lon="10.624640095290431"><ele>28.0</ele><time>2026-04-19T18:43:47Z</time></trkpt><trkpt lat="43.60838792964008" lon="10.624834225358802"><ele>27.333333333333336</ele><time>2026-04-19T18:43:48Z</time></trkpt><trkpt lat="43.608245745459676" lon="10.625024806941374"><ele>26.666666666666664</ele><time>2026-04-19T18:43:49Z</time></trkpt><trkpt lat="43.60810342809723" lon="10.625198658976412"><ele>26.0</ele><time>2026-04-19T18:43:50Z</time></trkpt><trkpt lat="43.607989507254196" lon="10.625413256880078"><ele>25.666666666666664</ele><time>2026-04-19T18:43:51Z</time></trkpt><trkpt lat="43.607852890078526" lon="10.625609350422534"><ele>25.333333333333336</ele><time>2026-04-19T18:43:52Z</time></trkpt><trkpt lat="43.60773231541129" lon="10.62582376756662"><ele>25.0</ele><time>2026-04-19T18:43:53Z</time></trkpt><trkpt lat="43.60762003016321" lon="10.626037181950572"><ele>25.333333333333336</ele><time>2026-04-19T18:43:54Z</time></trkpt><trkpt lat="43.60752663434415" lon="10.626272370340901"><ele>25.666666666666664</ele><time>2026-04-19T18:43:55Z</time></trkpt><trkpt lat="43.60740374282592" lon="10.626500128787557"><ele>26.0</ele><time>2026-04-19T18:43:56Z</time></trkpt><trkpt lat="43.607301814197946" lon="10.626742512968303"><ele>25.0</ele><time>2026-04-19T18:43:57Z</time></trkpt><trkpt lat="43.60721165942395" lon="10.62698539070304"><ele>24.0</ele><time>2026-04-19T18:43:58Z</time></trkpt><trkpt lat="43.60712543380765" lon="10.627242133255342"><ele>23.0</ele><time>2026-04-19T18:43:59Z</time></trkpt><trkpt lat="43.607040121411636" lon="10.627513067468605"><ele>23.666666666666668</ele><time>2026-04-19T18:44:00Z</time></trkpt><trkpt lat="43.60698466448498" lon="10.627773049313909"><ele>24.333333333333336</ele><time>2026-04-19T18:44:01Z</time></trkpt><trkpt lat="43.606923746654864" lon="10.628014308689618"><ele>25.0</ele><time>2026-04-19T18:44:02Z</time></trkpt><trkpt lat="43.60686735699283" lon="10.62825376825938"><ele>25.0</ele><time>2026-04-19T18:44:03Z</time></trkpt><trkpt lat="43.6068203993074" lon="10.628482115825983"><ele>25.0</ele><time>2026-04-19T18:44:04Z</time></trkpt><trkpt lat="43.606779944519765" lon="10.628696193397793"><ele>25.0</ele><time>2026-04-19T18:44:05Z</time></trkpt><trkpt lat="43.60674285903014" lon="10.628892897882952"><ele>24.75</ele><time>2026-04-19T18:44:06Z</time></trkpt><trkpt lat="43.60671545030199" lon="10.629080091091435"><ele>24.5</ele><time>2026-04-19T18:44:07Z</time></trkpt><trkpt lat="43.60667963304976" lon="10.629250548669525"><ele>24.25</ele><time>2026-04-19T18:44:08Z</time></trkpt><trkpt lat="43.6066604868456" lon="10.629413718814696"><ele>24.0</ele><time>2026-04-19T18:44:09Z</time></trkpt><trkpt lat="43.6066458245235" lon="10.629559070604339"><ele>24.0</ele><time>2026-04-19T18:44:10Z</time></trkpt><trkpt lat="43.60663367557186" lon="10.62969896409174"><ele>24.0</ele><time>2026-04-19T18:44:11Z</time></trkpt><trkpt lat="43.60662530816297" lon="10.629840280899723"><ele>24.0</ele><time>2026-04-19T18:44:12Z</time></trkpt><trkpt lat="43.60661865938108" lon="10.629995620541152"><ele>24.0</ele><time>2026-04-19T18:44:13Z</time></trkpt><trkpt lat="43.60661441495976" lon="10.630122891059575"><ele>24.0</ele><time>2026-04-19T18:44:14Z</time></trkpt><trkpt lat="43.606613219657994" lon="10.630235165598302"><ele>24.0</ele><time>2026-04-19T18:44:15Z</time></trkpt><trkpt lat="43.60661216933701" lon="10.630338085900958"><ele>24.0</ele><time>2026-04-19T18:44:16Z</time></trkpt><trkpt lat="43.60661332181749" lon="10.630491135965968"><ele>24.0</ele><time>2026-04-19T18:44:18Z</time></trkpt><trkpt lat="43.60686520831316" lon="10.630496443789168"><ele>24.0</ele><time>2026-04-19T18:44:20Z</time></trkpt><trkpt lat="43.60695562280534" lon="10.630519752515982"><ele>24.0</ele><time>2026-04-19T18:44:21Z</time></trkpt><trkpt lat="43.60704161625856" lon="10.630496312104496"><ele>24.0</ele><time>2026-04-19T18:44:22Z</time></trkpt><trkpt lat="43.60712463078247" lon="10.630508243990093"><ele>24.0</ele><time>2026-04-19T18:44:23Z</time></trkpt><trkpt lat="43.60721023282857" lon="10.630553647925185"><ele>24.0</ele><time>2026-04-19T18:44:24Z</time></trkpt><trkpt lat="43.607287758888766" lon="10.63063340420968"><ele>24.0</ele><time>2026-04-19T18:44:25Z</time></trkpt><trkpt lat="43.60734001583759" lon="10.630731133589254"><ele>24.0</ele><time>2026-04-19T18:44:26Z</time></trkpt><trkpt lat="43.607373184658094" lon="10.630844755055298"><ele>24.0</ele><time>2026-04-19T18:44:27Z</time></trkpt><trkpt lat="43.607383112108685" lon="10.630973810074295"><ele>24.0</ele><time>2026-04-19T18:44:28Z</time></trkpt><trkpt lat="43.60736878036607" lon="10.631134691665844"><ele>24.0</ele><time>2026-04-19T18:44:29Z</time></trkpt><trkpt lat="43.60732984304973" lon="10.631338923124616"><ele>24.0</ele><time>2026-04-19T18:44:30Z</time></trkpt><trkpt lat="43.60728983618064" lon="10.631517185811875"><ele>23.799999999999997</ele><time>2026-04-19T18:44:31Z</time></trkpt><trkpt lat="43.60725746807332" lon="10.631676392753207"><ele>23.599999999999998</ele><time>2026-04-19T18:44:32Z</time></trkpt><trkpt lat="43.607227297776575" lon="10.63183146267298"><ele>23.4</ele><time>2026-04-19T18:44:33Z</time></trkpt><trkpt lat="43.6072023206276" lon="10.631964419492673"><ele>23.2</ele><time>2026-04-19T18:44:34Z</time></trkpt><trkpt lat="43.60717694827134" lon="10.632079438356806"><ele>23.0</ele><time>2026-04-19T18:44:35Z</time></trkpt><trkpt lat="43.607151590263534" lon="10.632179084095538"><ele>22.833333333333336</ele><time>2026-04-19T18:44:36Z</time></trkpt><trkpt lat="43.60712094622375" lon="10.632271985831611"><ele>22.666666666666668</ele><time>2026-04-19T18:44:37Z</time></trkpt><trkpt lat="43.607084973744904" lon="10.632354221283707"><ele>22.5</ele><time>2026-04-19T18:44:38Z</time></trkpt><trkpt lat="43.60703844910358" lon="10.632422644718384"><ele>22.333333333333332</ele><time>2026-04-19T18:44:39Z</time></trkpt><trkpt lat="43.606976327975765" lon="10.632480942253514"><ele>22.166666666666664</ele><time>2026-04-19T18:44:40Z</time></trkpt><trkpt lat="43.60691745098433" lon="10.632565916653792"><ele>22.0</ele><time>2026-04-19T18:44:41Z</time></trkpt><trkpt lat="43.60676155952445" lon="10.632557017224348"><ele>22.666666666666664</ele><time>2026-04-19T18:44:42Z</time></trkpt><trkpt lat="43.60661029454453" lon="10.632580560755136"><ele>23.333333333333332</ele><time>2026-04-19T18:44:43Z</time></trkpt><trkpt lat="43.60646198529874" lon="10.632605144922186"><ele>24.0</ele><time>2026-04-19T18:44:44Z</time></trkpt><trkpt lat="43.606279884827245" lon="10.632630839608177"><ele>23.0</ele><time>2026-04-19T18:44:45Z</time></trkpt><trkpt lat="43.60607078784979" lon="10.63264500374972"><ele>22.0</ele><time>2026-04-19T18:44:46Z</time></trkpt><trkpt lat="43.60585220542226" lon="10.632651492733249"><ele>21.0</ele><time>2026-04-19T18:44:47Z</time></trkpt><trkpt lat="43.60565670637157" lon="10.632658927111958"><ele>21.0</ele><time>2026-04-19T18:44:48Z</time></trkpt><trkpt lat="43.60544496324203" lon="10.63266779551649"><ele>21.0</ele><time>2026-04-19T18:44:49Z</time></trkpt><trkpt lat="43.60521575289366" lon="10.632682626979902"><ele>21.0</ele><time>2026-04-19T18:44:50Z</time></trkpt><trkpt lat="43.60499908944898" lon="10.632699393148906"><ele>22.333333333333336</ele><time>2026-04-19T18:44:51Z</time></trkpt><trkpt lat="43.60479424435588" lon="10.632713092576159"><ele>23.666666666666668</ele><time>2026-04-19T18:44:52Z</time></trkpt><trkpt lat="43.604592756765165" lon="10.632728838983567"><ele>25.0</ele><time>2026-04-19T18:44:53Z</time></trkpt><trkpt lat="43.60440815762653" lon="10.632747668764578"><ele>25.0</ele><time>2026-04-19T18:44:54Z</time></trkpt><trkpt lat="43.6042206732465" lon="10.632761736733201"><ele>25.0</ele><time>2026-04-19T18:44:55Z</time></trkpt><trkpt lat="43.604025720470034" lon="10.632778564171506"><ele>25.0</ele><time>2026-04-19T18:44:56Z</time></trkpt><trkpt lat="43.6038349595005" lon="10.632804539484573"><ele>25.0</ele><time>2026-04-19T18:44:57Z</time></trkpt><trkpt lat="43.603646973819" lon="10.6328376590282"><ele>25.0</ele><time>2026-04-19T18:44:58Z</time></trkpt><trkpt lat="43.603473299631055" lon="10.632872067518452"><ele>25.0</ele><time>2026-04-19T18:44:59Z</time></trkpt><trkpt lat="43.60330717291165" lon="10.63290913376078"><ele>25.0</ele><time>2026-04-19T18:45:00Z</time></trkpt><trkpt lat="43.603149578511086" lon="10.632941649122104"><ele>25.0</ele><time>2026-04-19T18:45:01Z</time></trkpt><trkpt lat="43.60299218634604" lon="10.632965973307437"><ele>25.0</ele><time>2026-04-19T18:45:02Z</time></trkpt><trkpt lat="43.60283559384242" lon="10.63298661408802"><ele>24.0</ele><time>2026-04-19T18:45:03Z</time></trkpt><trkpt lat="43.602674211413955" lon="10.632995299739544"><ele>23.0</ele><time>2026-04-19T18:45:04Z</time></trkpt><trkpt lat="43.60251667579657" lon="10.632991724096673"><ele>22.0</ele><time>2026-04-19T18:45:05Z</time></trkpt><trkpt lat="43.60236346989342" lon="10.632977570863046"><ele>22.0</ele><time>2026-04-19T18:45:06Z</time></trkpt><trkpt lat="43.60220261912518" lon="10.632946963773128"><ele>22.0</ele><time>2026-04-19T18:45:07Z</time></trkpt><trkpt lat="43.602035383004406" lon="10.63289311419234"><ele>22.0</ele><time>2026-04-19T18:45:08Z</time></trkpt><trkpt lat="43.60185878947511" lon="10.632811896971"><ele>23.0</ele><time>2026-04-19T18:45:09Z</time></trkpt><trkpt lat="43.60168959145842" lon="10.632723152551572"><ele>24.0</ele><time>2026-04-19T18:45:10Z</time></trkpt><trkpt lat="43.60154167419946" lon="10.632641992837112"><ele>25.0</ele><time>2026-04-19T18:45:11Z</time></trkpt><trkpt lat="43.60140505050808" lon="10.632564016535602"><ele>25.0</ele><time>2026-04-19T18:45:12Z</time></trkpt><trkpt lat="43.60127022396354" lon="10.63248180733058"><ele>25.0</ele><time>2026-04-19T18:45:13Z</time></trkpt><trkpt lat="43.60113342807028" lon="10.632413557175424"><ele>25.0</ele><time>2026-04-19T18:45:14Z</time></trkpt><trkpt lat="43.600978260933466" lon="10.632371027437742"><ele>25.333333333333336</ele><time>2026-04-19T18:45:15Z</time></trkpt><trkpt lat="43.600801287184304" lon="10.632347640904625"><ele>25.666666666666664</ele><time>2026-04-19T18:45:16Z</time></trkpt><trkpt lat="43.600607042797506" lon="10.632323647363751"><ele>26.0</ele><time>2026-04-19T18:45:17Z</time></trkpt><trkpt lat="43.600400770426624" lon="10.632289613770807"><ele>26.0</ele><time>2026-04-19T18:45:18Z</time></trkpt><trkpt lat="43.60018255211271" lon="10.632263321124018"><ele>26.0</ele><time>2026-04-19T18:45:19Z</time></trkpt><trkpt lat="43.59996612694172" lon="10.63223561263401"><ele>26.0</ele><time>2026-04-19T18:45:20Z</time></trkpt><trkpt lat="43.599760471068" lon="10.632207091011235"><ele>26.0</ele><time>2026-04-19T18:45:21Z</time></trkpt><trkpt lat="43.599550277367136" lon="10.632179691641085"><ele>26.0</ele><time>2026-04-19T18:45:22Z</time></trkpt><trkpt lat="43.59932978528373" lon="10.632155684582733"><ele>26.0</ele><time>2026-04-19T18:45:23Z</time></trkpt><trkpt lat="43.59910664716447" lon="10.632129628435022"><ele>25.5</ele><time>2026-04-19T18:45:24Z</time></trkpt><trkpt lat="43.59887906435113" lon="10.632101121813562"><ele>25.0</ele><time>2026-04-19T18:45:25Z</time></trkpt><trkpt lat="43.59863928812535" lon="10.632070282873624"><ele>26.0</ele><time>2026-04-19T18:45:26Z</time></trkpt><trkpt lat="43.598393769541985" lon="10.632039546059593"><ele>27.0</ele><time>2026-04-19T18:45:27Z</time></trkpt><trkpt lat="43.59813874546042" lon="10.63200727907503"><ele>27.0</ele><time>2026-04-19T18:45:28Z</time></trkpt><trkpt lat="43.59787107179243" lon="10.631973677993184"><ele>27.0</ele><time>2026-04-19T18:45:29Z</time></trkpt><trkpt lat="43.597613312291536" lon="10.631942106098066"><ele>27.0</ele><time>2026-04-19T18:45:30Z</time></trkpt><trkpt lat="43.59736929143188" lon="10.631906951135182"><ele>27.0</ele><time>2026-04-19T18:45:31Z</time></trkpt><trkpt lat="43.597132860707184" lon="10.631875621406381"><ele>27.0</ele><time>2026-04-19T18:45:32Z</time></trkpt><trkpt lat="43.596896604502554" lon="10.631846585018469"><ele>27.0</ele><time>2026-04-19T18:45:33Z</time></trkpt><trkpt lat="43.59665106417008" lon="10.631813900388778"><ele>27.0</ele><time>2026-04-19T18:45:34Z</time></trkpt><trkpt lat="43.59640011465318" lon="10.63178092573596"><ele>27.0</ele><time>2026-04-19T18:45:35Z</time></trkpt><trkpt lat="43.59615703058811" lon="10.631749442524256"><ele>27.0</ele><time>2026-04-19T18:45:36Z</time></trkpt><trkpt lat="43.59591554713169" lon="10.631718018248167"><ele>27.0</ele><time>2026-04-19T18:45:37Z</time></trkpt><trkpt lat="43.59566716454053" lon="10.631688178238266"><ele>27.0</ele><time>2026-04-19T18:45:38Z</time></trkpt><trkpt lat="43.595414638265986" lon="10.631661539068332"><ele>27.0</ele><time>2026-04-19T18:45:39Z</time></trkpt><trkpt lat="43.595161848690715" lon="10.631636920398014"><ele>27.0</ele><time>2026-04-19T18:45:40Z</time></trkpt><trkpt lat="43.59490785304066" lon="10.631611441849174"><ele>27.0</ele><time>2026-04-19T18:45:41Z</time></trkpt><trkpt lat="43.594657452191655" lon="10.631584585190815"><ele>26.0</ele><time>2026-04-19T18:45:42Z</time></trkpt><trkpt lat="43.59441873178686" lon="10.63155963952835"><ele>25.0</ele><time>2026-04-19T18:45:43Z</time></trkpt><trkpt lat="43.594186511501604" lon="10.631536682985205"><ele>25.0</ele><time>2026-04-19T18:45:44Z</time></trkpt><trkpt lat="43.59394458649549" lon="10.631510290342815"><ele>25.0</ele><time>2026-04-19T18:45:45Z</time></trkpt><trkpt lat="43.59370255373882" lon="10.631486020009879"><ele>25.5</ele><time>2026-04-19T18:45:46Z</time></trkpt><trkpt lat="43.59346514713751" lon="10.63146520982194"><ele>26.0</ele><time>2026-04-19T18:45:47Z</time></trkpt><trkpt lat="43.59321972442443" lon="10.631440384371334"><ele>26.0</ele><time>2026-04-19T18:45:48Z</time></trkpt><trkpt lat="43.59295845971205" lon="10.631413541984717"><ele>26.0</ele><time>2026-04-19T18:45:49Z</time></trkpt><trkpt lat="43.592686714315825" lon="10.631385457546882"><ele>26.5</ele><time>2026-04-19T18:45:50Z</time></trkpt><trkpt lat="43.592435221333666" lon="10.631359646597325"><ele>27.0</ele><time>2026-04-19T18:45:51Z</time></trkpt><trkpt lat="43.59220376442694" lon="10.631334955960304"><ele>27.666666666666664</ele><time>2026-04-19T18:45:52Z</time></trkpt><trkpt lat="43.59198807980643" lon="10.631310380491973"><ele>28.333333333333332</ele><time>2026-04-19T18:45:53Z</time></trkpt><trkpt lat="43.59177243576639" lon="10.631286185531891"><ele>29.0</ele><time>2026-04-19T18:45:54Z</time></trkpt><trkpt lat="43.59156177752612" lon="10.6312639778178"><ele>29.0</ele><time>2026-04-19T18:45:55Z</time></trkpt><trkpt lat="43.59136956281932" lon="10.631246021272915"><ele>29.0</ele><time>2026-04-19T18:45:56Z</time></trkpt><trkpt lat="43.59118253728234" lon="10.63122936937635"><ele>29.0</ele><time>2026-04-19T18:45:57Z</time></trkpt><trkpt lat="43.591000695041345" lon="10.631212142922562"><ele>28.666666666666664</ele><time>2026-04-19T18:45:58Z</time></trkpt><trkpt lat="43.59083256426709" lon="10.631193852690767"><ele>28.333333333333336</ele><time>2026-04-19T18:45:59Z</time></trkpt><trkpt lat="43.59067963582454" lon="10.63117688334706"><ele>28.0</ele><time>2026-04-19T18:46:00Z</time></trkpt><trkpt lat="43.59054006941089" lon="10.631162598910032"><ele>28.0</ele><time>2026-04-19T18:46:01Z</time></trkpt><trkpt lat="43.590421354053454" lon="10.631150765297969"><ele>27.999999999999996</ele><time>2026-04-19T18:46:02Z</time></trkpt><trkpt lat="43.590323367477026" lon="10.631139180591914"><ele>27.999999999999996</ele><time>2026-04-19T18:46:03Z</time></trkpt><trkpt lat="43.59023918623277" lon="10.631119038506474"><ele>28.0</ele><time>2026-04-19T18:46:04Z</time></trkpt><trkpt lat="43.59016373192166" lon="10.63106823387581"><ele>28.0</ele><time>2026-04-19T18:46:05Z</time></trkpt><trkpt lat="43.590087457746314" lon="10.631055467087029"><ele>28.5</ele><time>2026-04-19T18:46:06Z</time></trkpt><trkpt lat="43.59001688782663" lon="10.630868258622217"><ele>29.0</ele><time>2026-04-19T18:46:07Z</time></trkpt><trkpt lat="43.589944754100316" lon="10.630740751964156"><ele>29.5</ele><time>2026-04-19T18:46:08Z</time></trkpt><trkpt lat="43.589871748658965" lon="10.63062873188126"><ele>30.0</ele><time>2026-04-19T18:46:09Z</time></trkpt><trkpt lat="43.589793787983915" lon="10.630536046189924"><ele>30.0</ele><time>2026-04-19T18:46:10Z</time></trkpt><trkpt lat="43.58971330034821" lon="10.630414382156188"><ele>30.0</ele><time>2026-04-19T18:46:11Z</time></trkpt><trkpt lat="43.58960480683333" lon="10.630301857348625"><ele>30.0</ele><time>2026-04-19T18:46:12Z</time></trkpt><trkpt lat="43.58949190902963" lon="10.63021560793549"><ele>30.0</ele><time>2026-04-19T18:46:13Z</time></trkpt><trkpt lat="43.58939330779666" lon="10.630160711951389"><ele>30.2</ele><time>2026-04-19T18:46:14Z</time></trkpt><trkpt lat="43.58930107786604" lon="10.630117398070135"><ele>30.4</ele><time>2026-04-19T18:46:15Z</time></trkpt><trkpt lat="43.58921619790603" lon="10.630073652837936"><ele>30.6</ele><time>2026-04-19T18:46:16Z</time></trkpt><trkpt lat="43.58912802933561" lon="10.629962352484576"><ele>30.8</ele><time>2026-04-19T18:46:17Z</time></trkpt><trkpt lat="43.58905539689199" lon="10.629843970923245"><ele>31.0</ele><time>2026-04-19T18:46:18Z</time></trkpt><trkpt lat="43.588981182176006" lon="10.629746125109275"><ele>31.0</ele><time>2026-04-19T18:46:19Z</time></trkpt><trkpt lat="43.58890818700299" lon="10.629648932152623"><ele>31.0</ele><time>2026-04-19T18:46:20Z</time></trkpt><trkpt lat="43.58880500732192" lon="10.629589910670106"><ele>31.0</ele><time>2026-04-19T18:46:21Z</time></trkpt><trkpt lat="43.588684332893" lon="10.629551531651071"><ele>31.0</ele><time>2026-04-19T18:46:22Z</time></trkpt><trkpt lat="43.58855574080043" lon="10.629542201329503"><ele>31.0</ele><time>2026-04-19T18:46:23Z</time></trkpt><trkpt lat="43.58844737273427" lon="10.629537451181642"><ele>31.0</ele><time>2026-04-19T18:46:24Z</time></trkpt><trkpt lat="43.588380330349146" lon="10.62952723176105"><ele>31.0</ele><time>2026-04-19T18:46:25Z</time></trkpt><trkpt lat="43.58826240510124" lon="10.629483144866862"><ele>31.0</ele><time>2026-04-19T18:46:27Z</time></trkpt><trkpt lat="43.588203777548074" lon="10.629386216315256"><ele>31.0</ele><time>2026-04-19T18:46:28Z</time></trkpt><trkpt lat="43.58816559036333" lon="10.629244048760368"><ele>30.833333333333336</ele><time>2026-04-19T18:46:29Z</time></trkpt><trkpt lat="43.58811018792664" lon="10.629114216569"><ele>30.666666666666668</ele><time>2026-04-19T18:46:30Z</time></trkpt><trkpt lat="43.588078128688686" lon="10.629013497729742"><ele>30.5</ele><time>2026-04-19T18:46:31Z</time></trkpt><trkpt lat="43.58803400062377" lon="10.62892032065823"><ele>30.333333333333336</ele><time>2026-04-19T18:46:32Z</time></trkpt><trkpt lat="43.58798501623028" lon="10.628825441421375"><ele>30.166666666666668</ele><time>2026-04-19T18:46:33Z</time></trkpt><trkpt lat="43.58790306895366" lon="10.628759537646548"><ele>30.0</ele><time>2026-04-19T18:46:34Z</time></trkpt><trkpt lat="43.58779558693079" lon="10.62872885036915"><ele>30.0</ele><time>2026-04-19T18:46:35Z</time></trkpt><trkpt lat="43.58766739470583" lon="10.628726495803358"><ele>30.0</ele><time>2026-04-19T18:46:36Z</time></trkpt><trkpt lat="43.58752888837026" lon="10.628729127640444"><ele>30.0</ele><time>2026-04-19T18:46:37Z</time></trkpt><trkpt lat="43.587422861650516" lon="10.628730633811523"><ele>30.0</ele><time>2026-04-19T18:46:38Z</time></trkpt><trkpt lat="43.58732763499496" lon="10.628728482246334"><ele>30.0</ele><time>2026-04-19T18:46:39Z</time></trkpt><trkpt lat="43.58722478705837" lon="10.62873066445854"><ele>30.0</ele><time>2026-04-19T18:46:40Z</time></trkpt><trkpt lat="43.587138522445095" lon="10.628683652544932"><ele>30.0</ele><time>2026-04-19T18:46:41Z</time></trkpt><trkpt lat="43.587072102869286" lon="10.628585704947971"><ele>30.0</ele><time>2026-04-19T18:46:42Z</time></trkpt><trkpt lat="43.58698930105385" lon="10.628466992898469"><ele>30.0</ele><time>2026-04-19T18:46:43Z</time></trkpt><trkpt lat="43.586873011274115" lon="10.628347903501435"><ele>30.0</ele><time>2026-04-19T18:46:44Z</time></trkpt><trkpt lat="43.58676621813983" lon="10.62823654544798"><ele>30.0</ele><time>2026-04-19T18:46:45Z</time></trkpt><trkpt lat="43.586674082449385" lon="10.628139147989168"><ele>30.0</ele><time>2026-04-19T18:46:46Z</time></trkpt><trkpt lat="43.58658389436373" lon="10.628042726184672"><ele>30.0</ele><time>2026-04-19T18:46:47Z</time></trkpt><trkpt lat="43.58651379184707" lon="10.627956250868827"><ele>30.0</ele><time>2026-04-19T18:46:48Z</time></trkpt><trkpt lat="43.58645273729521" lon="10.627891456303855"><ele>30.0</ele><time>2026-04-19T18:46:49Z</time></trkpt><trkpt lat="43.58639587064657" lon="10.627841954292386"><ele>30.0</ele><time>2026-04-19T18:46:50Z</time></trkpt><trkpt lat="43.58633273898785" lon="10.627816962825529"><ele>30.0</ele><time>2026-04-19T18:46:51Z</time></trkpt><trkpt lat="43.58626189050065" lon="10.627793002822422"><ele>30.0</ele><time>2026-04-19T18:46:52Z</time></trkpt><trkpt lat="43.586176638828334" lon="10.627863250708748"><ele>30.0</ele><time>2026-04-19T18:46:53Z</time></trkpt><trkpt lat="43.58609032817799" lon="10.6279114968072"><ele>30.6</ele><time>2026-04-19T18:46:54Z</time></trkpt><trkpt lat="43.58598875544653" lon="10.627971486188555"><ele>31.2</ele><time>2026-04-19T18:46:55Z</time></trkpt><trkpt lat="43.58587512107499" lon="10.628043786103332"><ele>31.799999999999997</ele><time>2026-04-19T18:46:56Z</time></trkpt><trkpt lat="43.58577655418182" lon="10.628113283958912"><ele>32.4</ele><time>2026-04-19T18:46:57Z</time></trkpt><trkpt lat="43.58567810561777" lon="10.628153016938858"><ele>33.0</ele><time>2026-04-19T18:46:58Z</time></trkpt><trkpt lat="43.58556849320324" lon="10.628209937857473"><ele>33.0</ele><time>2026-04-19T18:46:59Z</time></trkpt><trkpt lat="43.58545676757286" lon="10.628269679383177"><ele>33.0</ele><time>2026-04-19T18:47:00Z</time></trkpt><trkpt lat="43.58534016311522" lon="10.628301301847193"><ele>33.0</ele><time>2026-04-19T18:47:01Z</time></trkpt><trkpt lat="43.58522243955905" lon="10.62832192731751"><ele>33.0</ele><time>2026-04-19T18:47:02Z</time></trkpt><trkpt lat="43.58510663592771" lon="10.628335968640503"><ele>33.199999999999996</ele><time>2026-04-19T18:47:03Z</time></trkpt><trkpt lat="43.58499917331185" lon="10.628365794984822"><ele>33.4</ele><time>2026-04-19T18:47:04Z</time></trkpt><trkpt lat="43.58489223776325" lon="10.628402947575617"><ele>33.599999999999994</ele><time>2026-04-19T18:47:05Z</time></trkpt><trkpt lat="43.58478824070752" lon="10.628446277665226"><ele>33.8</ele><time>2026-04-19T18:47:06Z</time></trkpt><trkpt lat="43.58468305090358" lon="10.628489319428502"><ele>34.0</ele><time>2026-04-19T18:47:07Z</time></trkpt><trkpt lat="43.58458242303565" lon="10.628530270398905"><ele>34.0</ele><time>2026-04-19T18:47:08Z</time></trkpt><trkpt lat="43.584484048727546" lon="10.62858034231801"><ele>34.0</ele><time>2026-04-19T18:47:09Z</time></trkpt><trkpt lat="43.5843847537295" lon="10.628611044262227"><ele>34.0</ele><time>2026-04-19T18:47:10Z</time></trkpt><trkpt lat="43.58429342427577" lon="10.628649991677234"><ele>34.0</ele><time>2026-04-19T18:47:11Z</time></trkpt><trkpt lat="43.58419926985149" lon="10.628664572082762"><ele>34.0</ele><time>2026-04-19T18:47:12Z</time></trkpt><trkpt lat="43.58410179325434" lon="10.628664347595432"><ele>34.0</ele><time>2026-04-19T18:47:13Z</time></trkpt><trkpt lat="43.58400331406569" lon="10.628632376830986"><ele>34.0</ele><time>2026-04-19T18:47:14Z</time></trkpt><trkpt lat="43.58389647416707" lon="10.628615161899672"><ele>34.0</ele><time>2026-04-19T18:47:15Z</time></trkpt><trkpt lat="43.583769086157346" lon="10.628593310872839"><ele>34.0</ele><time>2026-04-19T18:47:16Z</time></trkpt><trkpt lat="43.583644959584596" lon="10.628583166437911"><ele>35.0</ele><time>2026-04-19T18:47:17Z</time></trkpt><trkpt lat="43.58352424924468" lon="10.628555094921312"><ele>36.0</ele><time>2026-04-19T18:47:18Z</time></trkpt><trkpt lat="43.58339696020401" lon="10.628521104597775"><ele>37.0</ele><time>2026-04-19T18:47:19Z</time></trkpt><trkpt lat="43.58326359400249" lon="10.628484826466378"><ele>38.0</ele><time>2026-04-19T18:47:20Z</time></trkpt><trkpt lat="43.583112981325975" lon="10.628444248785907"><ele>38.0</ele><time>2026-04-19T18:47:21Z</time></trkpt><trkpt lat="43.5829546293842" lon="10.628407875735562"><ele>38.0</ele><time>2026-04-19T18:47:22Z</time></trkpt><trkpt lat="43.58281097955715" lon="10.628373672341407"><ele>38.0</ele><time>2026-04-19T18:47:23Z</time></trkpt><trkpt lat="43.582683551272964" lon="10.628343093538415"><ele>38.0</ele><time>2026-04-19T18:47:24Z</time></trkpt><trkpt lat="43.582567255529796" lon="10.628313887434516"><ele>37.4</ele><time>2026-04-19T18:47:25Z</time></trkpt><trkpt lat="43.582452935775564" lon="10.628286557974903"><ele>36.8</ele><time>2026-04-19T18:47:26Z</time></trkpt><trkpt lat="43.582345412619304" lon="10.628260337065443"><ele>36.2</ele><time>2026-04-19T18:47:27Z</time></trkpt><trkpt lat="43.582248376366884" lon="10.62823710323618"><ele>35.6</ele><time>2026-04-19T18:47:28Z</time></trkpt><trkpt lat="43.582141497740174" lon="10.62821512096814"><ele>35.0</ele><time>2026-04-19T18:47:29Z</time></trkpt><trkpt lat="43.582022974362914" lon="10.628204272376697"><ele>35.5</ele><time>2026-04-19T18:47:30Z</time></trkpt><trkpt lat="43.58190079541001" lon="10.628205262977115"><ele>36.0</ele><time>2026-04-19T18:47:31Z</time></trkpt><trkpt lat="43.58178197172261" lon="10.628208841307478"><ele>36.5</ele><time>2026-04-19T18:47:32Z</time></trkpt><trkpt lat="43.581669052478475" lon="10.628215966808883"><ele>37.0</ele><time>2026-04-19T18:47:33Z</time></trkpt><trkpt lat="43.581563768295766" lon="10.628227252655174"><ele>37.0</ele><time>2026-04-19T18:47:34Z</time></trkpt><trkpt lat="43.581457242772196" lon="10.628225255678357"><ele>37.0</ele><time>2026-04-19T18:47:35Z</time></trkpt><trkpt lat="43.5813478792945" lon="10.628204779396516"><ele>37.0</ele><time>2026-04-19T18:47:36Z</time></trkpt><trkpt lat="43.58124291508333" lon="10.62817346149264"><ele>37.0</ele><time>2026-04-19T18:47:37Z</time></trkpt><trkpt lat="43.58114520904726" lon="10.628137701750413"><ele>37.0</ele><time>2026-04-19T18:47:38Z</time></trkpt><trkpt lat="43.5810464537278" lon="10.628097916004588"><ele>36.800000000000004</ele><time>2026-04-19T18:47:39Z</time></trkpt><trkpt lat="43.58093774367313" lon="10.628045013782296"><ele>36.6</ele><time>2026-04-19T18:47:40Z</time></trkpt><trkpt lat="43.580839122466585" lon="10.627998958331665"><ele>36.400000000000006</ele><time>2026-04-19T18:47:41Z</time></trkpt><trkpt lat="43.580754831103924" lon="10.627955588204571"><ele>36.2</ele><time>2026-04-19T18:47:42Z</time></trkpt><trkpt lat="43.580669169408694" lon="10.627927212389014"><ele>36.0</ele><time>2026-04-19T18:47:43Z</time></trkpt><trkpt lat="43.58058600010253" lon="10.627888929230231"><ele>36.0</ele><time>2026-04-19T18:47:44Z</time></trkpt><trkpt lat="43.580493036039734" lon="10.62788079500988"><ele>36.0</ele><time>2026-04-19T18:47:45Z</time></trkpt><trkpt lat="43.58039908276103" lon="10.627901601986064"><ele>36.0</ele><time>2026-04-19T18:47:46Z</time></trkpt><trkpt lat="43.58030507776388" lon="10.627937303209062"><ele>36.0</ele><time>2026-04-19T18:47:47Z</time></trkpt><trkpt lat="43.58020278976869" lon="10.627992343584314"><ele>36.0</ele><time>2026-04-19T18:47:48Z</time></trkpt><trkpt lat="43.58010226009099" lon="10.628046656718261"><ele>36.0</ele><time>2026-04-19T18:47:49Z</time></trkpt><trkpt lat="43.57999840526569" lon="10.62810398912011"><ele>36.0</ele><time>2026-04-19T18:47:50Z</time></trkpt><trkpt lat="43.57990835235068" lon="10.628154608719205"><ele>36.0</ele><time>2026-04-19T18:47:51Z</time></trkpt><trkpt lat="43.57981991211319" lon="10.628207113858581"><ele>36.0</ele><time>2026-04-19T18:47:52Z</time></trkpt><trkpt lat="43.57974677171111" lon="10.628250535772148"><ele>36.0</ele><time>2026-04-19T18:47:53Z</time></trkpt><trkpt lat="43.57968564849635" lon="10.628286912886624"><ele>36.0</ele><time>2026-04-19T18:47:54Z</time></trkpt><trkpt lat="43.57961140315127" lon="10.628348905379445"><ele>36.0</ele><time>2026-04-19T18:47:56Z</time></trkpt><trkpt lat="43.57954776202631" lon="10.628338230136894"><ele>36.0</ele><time>2026-04-19T18:47:58Z</time></trkpt><trkpt lat="43.579464885070664" lon="10.628090784112668"><ele>36.0</ele><time>2026-04-19T18:48:01Z</time></trkpt><trkpt lat="43.579415927531166" lon="10.62795114778196"><ele>37.25</ele><time>2026-04-19T18:48:02Z</time></trkpt><trkpt lat="43.57937417938086" lon="10.62779044622978"><ele>38.5</ele><time>2026-04-19T18:48:03Z</time></trkpt><trkpt lat="43.57932388801517" lon="10.627617817107108"><ele>39.75</ele><time>2026-04-19T18:48:04Z</time></trkpt><trkpt lat="43.579274615489624" lon="10.62744751515403"><ele>41.0</ele><time>2026-04-19T18:48:05Z</time></trkpt><trkpt lat="43.57921916948217" lon="10.62725730608859"><ele>41.0</ele><time>2026-04-19T18:48:06Z</time></trkpt><trkpt lat="43.57917132114705" lon="10.62708488695737"><ele>41.0</ele><time>2026-04-19T18:48:07Z</time></trkpt><trkpt lat="43.57912371023812" lon="10.626920639340137"><ele>41.0</ele><time>2026-04-19T18:48:08Z</time></trkpt><trkpt lat="43.579078632002336" lon="10.626779402513257"><ele>41.0</ele><time>2026-04-19T18:48:09Z</time></trkpt><trkpt lat="43.57904372658567" lon="10.626645859588717"><ele>43.0</ele><time>2026-04-19T18:48:10Z</time></trkpt><trkpt lat="43.579030728320475" lon="10.626492142379952"><ele>45.0</ele><time>2026-04-19T18:48:11Z</time></trkpt><trkpt lat="43.57903787187676" lon="10.626320343778335"><ele>47.0</ele><time>2026-04-19T18:48:12Z</time></trkpt><trkpt lat="43.57905641336627" lon="10.626116350017782"><ele>49.0</ele><time>2026-04-19T18:48:13Z</time></trkpt><trkpt lat="43.579063963556656" lon="10.625949375313468"><ele>50.2</ele><time>2026-04-19T18:48:14Z</time></trkpt><trkpt lat="43.57906015962789" lon="10.625797707748434"><ele>51.400000000000006</ele><time>2026-04-19T18:48:15Z</time></trkpt><trkpt lat="43.57905428887684" lon="10.625656559219246"><ele>52.6</ele><time>2026-04-19T18:48:16Z</time></trkpt><trkpt lat="43.57903920855643" lon="10.625522459511735"><ele>53.8</ele><time>2026-04-19T18:48:17Z</time></trkpt><trkpt lat="43.57901214623407" lon="10.62537349709569"><ele>55.0</ele><time>2026-04-19T18:48:18Z</time></trkpt><trkpt lat="43.578970205198466" lon="10.625223364937181"><ele>56.4</ele><time>2026-04-19T18:48:19Z</time></trkpt><trkpt lat="43.57892953712214" lon="10.625090161381538"><ele>57.8</ele><time>2026-04-19T18:48:20Z</time></trkpt><trkpt lat="43.57889960340838" lon="10.624976317730253"><ele>59.2</ele><time>2026-04-19T18:48:21Z</time></trkpt><trkpt lat="43.57887127275611" lon="10.624855820319015"><ele>60.6</ele><time>2026-04-19T18:48:22Z</time></trkpt><trkpt lat="43.57885380035598" lon="10.624720938435624"><ele>62.0</ele><time>2026-04-19T18:48:23Z</time></trkpt><trkpt lat="43.57885628290811" lon="10.624577423672392"><ele>63.400000000000006</ele><time>2026-04-19T18:48:24Z</time></trkpt><trkpt lat="43.578864709204645" lon="10.624439999362105"><ele>64.80000000000001</ele><time>2026-04-19T18:48:25Z</time></trkpt><trkpt lat="43.578883917346225" lon="10.624305044915152"><ele>66.2</ele><time>2026-04-19T18:48:26Z</time></trkpt><trkpt lat="43.57893101860471" lon="10.624143698882849"><ele>67.60000000000001</ele><time>2026-04-19T18:48:27Z</time></trkpt><trkpt lat="43.57898419260069" lon="10.62400140784353"><ele>69.0</ele><time>2026-04-19T18:48:28Z</time></trkpt><trkpt lat="43.579029798840665" lon="10.623855085117592"><ele>69.0</ele><time>2026-04-19T18:48:29Z</time></trkpt><trkpt lat="43.57908102344302" lon="10.623694599283457"><ele>69.0</ele><time>2026-04-19T18:48:30Z</time></trkpt><trkpt lat="43.57913177103423" lon="10.623588458832273"><ele>69.0</ele><time>2026-04-19T18:48:31Z</time></trkpt><trkpt lat="43.579138039104315" lon="10.623480392645241"><ele>69.0</ele><time>2026-04-19T18:48:32Z</time></trkpt><trkpt lat="43.57915010028649" lon="10.623366474002337"><ele>69.0</ele><time>2026-04-19T18:48:34Z</time></trkpt><trkpt lat="43.57925590283989" lon="10.623372457684441"><ele>69.16666666666667</ele><time>2026-04-19T18:48:36Z</time></trkpt><trkpt lat="43.57932175056345" lon="10.623360248099665"><ele>69.33333333333333</ele><time>2026-04-19T18:48:37Z</time></trkpt><trkpt lat="43.579441783317385" lon="10.62338375490594"><ele>69.5</ele><time>2026-04-19T18:48:39Z</time></trkpt><trkpt lat="43.57951164632665" lon="10.623378062867566"><ele>69.66666666666666</ele><time>2026-04-19T18:48:40Z</time></trkpt><trkpt lat="43.57958478001616" lon="10.6233646765582"><ele>69.83333333333333</ele><time>2026-04-19T18:48:41Z</time></trkpt><trkpt lat="43.57965730494071" lon="10.623339427563476"><ele>70.0</ele><time>2026-04-19T18:48:42Z</time></trkpt><trkpt lat="43.57973117099626" lon="10.623309657552435"><ele>70.0</ele><time>2026-04-19T18:48:43Z</time></trkpt><trkpt lat="43.5798494631523" lon="10.623282146451906"><ele>70.0</ele><time>2026-04-19T18:48:45Z</time></trkpt><trkpt lat="43.57995769101487" lon="10.623194910160977"><ele>70.0</ele><time>2026-04-19T18:48:47Z</time></trkpt><trkpt lat="43.58001247438333" lon="10.623136284154457"><ele>70.0</ele><time>2026-04-19T18:48:48Z</time></trkpt><trkpt lat="43.58006615338863" lon="10.623076566921082"><ele>70.0</ele><time>2026-04-19T18:48:49Z</time></trkpt><trkpt lat="43.58011635116945" lon="10.6229922938946"><ele>70.0</ele><time>2026-04-19T18:48:50Z</time></trkpt><trkpt lat="43.58019124364862" lon="10.622926198483965"><ele>70.0</ele><time>2026-04-19T18:48:51Z</time></trkpt><trkpt lat="43.580263117528844" lon="10.622870368237727"><ele>70.0</ele><time>2026-04-19T18:48:52Z</time></trkpt><trkpt lat="43.58032216173741" lon="10.62282842217769"><ele>70.0</ele><time>2026-04-19T18:48:53Z</time></trkpt><trkpt lat="43.58040618289818" lon="10.622772819020499"><ele>70.0</ele><time>2026-04-19T18:48:55Z</time></trkpt><trkpt lat="43.5805114450434" lon="10.622756554699906"><ele>70.0</ele><time>2026-04-19T18:48:57Z</time></trkpt><trkpt lat="43.58061823975562" lon="10.622728786258298"><ele>70.0</ele><time>2026-04-19T18:48:59Z</time></trkpt><trkpt lat="43.580734862932665" lon="10.62275657897504"><ele>70.0</ele><time>2026-04-19T18:49:01Z</time></trkpt><trkpt lat="43.5807987307538" lon="10.622785291471022"><ele>70.0</ele><time>2026-04-19T18:49:02Z</time></trkpt><trkpt lat="43.58088982378149" lon="10.622832852891628"><ele>70.0</ele><time>2026-04-19T18:49:04Z</time></trkpt><trkpt lat="43.58096071281094" lon="10.622872184250378"><ele>70.0</ele><time>2026-04-19T18:49:06Z</time></trkpt><trkpt lat="43.58103172894106" lon="10.622885465896125"><ele>70.0</ele><time>2026-04-19T18:49:08Z</time></trkpt><trkpt lat="43.58112406202214" lon="10.622877682754295"><ele>70.16666666666666</ele><time>2026-04-19T18:49:11Z</time></trkpt><trkpt lat="43.58117054454317" lon="10.622708820930068"><ele>70.33333333333333</ele><time>2026-04-19T18:49:13Z</time></trkpt><trkpt lat="43.581192706301785" lon="10.622602375581423"><ele>70.5</ele><time>2026-04-19T18:49:15Z</time></trkpt><trkpt lat="43.581214269273616" lon="10.622496209888135"><ele>70.66666666666667</ele><time>2026-04-19T18:49:17Z</time></trkpt><trkpt lat="43.581257100046955" lon="10.622414940641306"><ele>70.83333333333334</ele><time>2026-04-19T18:49:21Z</time></trkpt><trkpt lat="43.58129075781312" lon="10.622322845130936"><ele>71.0</ele><time>2026-04-19T18:59:43.033Z</time></trkpt><trkpt lat="43.581220817942864" lon="10.622313110214382"><ele>71.0</ele><time>2026-04-19T19:00:04.027Z</time></trkpt><trkpt lat="43.58126496263598" lon="10.622379733925351"><ele>71.0</ele><time>2026-04-19T19:01:13Z</time></trkpt><trkpt lat="43.58120108552317" lon="10.622420792815523"><ele>71.0</ele><time>2026-04-19T19:01:25Z</time></trkpt><trkpt lat="43.58119091328485" lon="10.622516340460006"><ele>71.0</ele><time>2026-04-19T19:01:30Z</time></trkpt><trkpt lat="43.581187416010835" lon="10.622616073236642"><ele>71.0</ele><time>2026-04-19T19:01:51Z</time></trkpt><trkpt lat="43.58116370587113" lon="10.622712972508722"><ele>71.0</ele><time>2026-04-19T19:01:57Z</time></trkpt><trkpt lat="43.58111394438192" lon="10.622788543584935"><ele>71.0</ele><time>2026-04-19T19:02:02Z</time></trkpt><trkpt lat="43.58104969745123" lon="10.622837325414793"><ele>70.85714285714286</ele><time>2026-04-19T19:02:06Z</time></trkpt><trkpt lat="43.581009554898785" lon="10.62293554197172"><ele>70.71428571428571</ele><time>2026-04-19T19:02:12Z</time></trkpt><trkpt lat="43.58103265143345" lon="10.623022401842444"><ele>70.57142857142857</ele><time>2026-04-19T19:02:16.001Z</time></trkpt><trkpt lat="43.581068971196416" lon="10.623118255766206"><ele>70.42857142857143</ele><time>2026-04-19T19:02:21.001Z</time></trkpt><trkpt lat="43.581106004550534" lon="10.62320678963461"><ele>70.28571428571428</ele><time>2026-04-19T19:02:26.001Z</time></trkpt><trkpt lat="43.58114649367012" lon="10.623286670332538"><ele>70.14285714285714</ele><time>2026-04-19T19:02:31.001Z</time></trkpt><trkpt lat="43.581186862561495" lon="10.623363774882723"><ele>70.0</ele><time>2026-04-19T19:02:36.001Z</time></trkpt><trkpt lat="43.581224505717984" lon="10.623451923518285"><ele>70.0</ele><time>2026-04-19T19:02:41.001Z</time></trkpt><trkpt lat="43.58129209694782" lon="10.623384257652855"><ele>70.0</ele><time>2026-04-19T19:03:15.001Z</time></trkpt><trkpt lat="43.58130312644234" lon="10.623295461937632"><ele>70.0</ele><time>2026-04-19T19:03:21.001Z</time></trkpt><trkpt lat="43.58127996706165" lon="10.623393732131092"><ele>70.0</ele><time>2026-04-19T19:03:35.001Z</time></trkpt><trkpt lat="43.58136385978567" lon="10.623311988132862"><ele>70.0</ele><time>2026-04-19T19:39:09.999Z</time></trkpt><trkpt lat="43.58136004885469" lon="10.623222762201795"><ele>70.0</ele><time>2026-04-19T19:39:18.999Z</time></trkpt><trkpt lat="43.5813095837984" lon="10.623469065604143"><ele>70.0</ele><time>2026-04-19T19:39:23.999Z</time></trkpt><trkpt lat="43.58136353995439" lon="10.62359720547685"><ele>70.0</ele><time>2026-04-19T19:39:33.999Z</time></trkpt><trkpt lat="43.58123739104836" lon="10.623477881708014"><ele>70.0</ele><time>2026-04-19T19:40:38Z</time></trkpt><trkpt lat="43.58119819314669" lon="10.62340414694265"><ele>70.0</ele><time>2026-04-19T19:40:45Z</time></trkpt><trkpt lat="43.581177833287526" lon="10.623319218607952"><ele>70.0</ele><time>2026-04-19T19:40:50Z</time></trkpt><trkpt lat="43.5811427725128" lon="10.62324156971131"><ele>70.0</ele><time>2026-04-19T19:40:55Z</time></trkpt><trkpt lat="43.58110077476214" lon="10.62317529759293"><ele>70.0</ele><time>2026-04-19T19:41:00Z</time></trkpt><trkpt lat="43.58106881994104" lon="10.623095371468425"><ele>70.0</ele><time>2026-04-19T19:41:21Z</time></trkpt><trkpt lat="43.58102211871292" lon="10.623018720431379"><ele>70.0</ele><time>2026-04-19T19:41:28Z</time></trkpt><trkpt lat="43.58100507810621" lon="10.622934053709129"><ele>70.0</ele><time>2026-04-19T19:41:33Z</time></trkpt><trkpt lat="43.581039501040316" lon="10.622859413998457"><ele>70.0</ele><time>2026-04-19T19:41:38Z</time></trkpt><trkpt lat="43.5811107459689" lon="10.622816056568313"><ele>70.0</ele><time>2026-04-19T19:41:45Z</time></trkpt><trkpt lat="43.581153250092456" lon="10.622737515420319"><ele>70.14285714285714</ele><time>2026-04-19T19:41:50Z</time></trkpt><trkpt lat="43.5811800442607" lon="10.62265445358429"><ele>70.28571428571428</ele><time>2026-04-19T19:41:55Z</time></trkpt><trkpt lat="43.58119203918994" lon="10.622550834694731"><ele>70.42857142857143</ele><time>2026-04-19T19:42:01Z</time></trkpt><trkpt lat="43.58120375036542" lon="10.622459160274042"><ele>70.57142857142857</ele><time>2026-04-19T19:42:06Z</time></trkpt><trkpt lat="43.5812178307009" lon="10.622360087116643"><ele>70.71428571428571</ele><time>2026-04-19T19:42:12Z</time></trkpt><trkpt lat="43.58129938093908" lon="10.622360213142995"><ele>70.85714285714286</ele><time>2026-04-19T19:42:22Z</time></trkpt><trkpt lat="43.581251943735275" lon="10.622440225625953"><ele>71.0</ele><time>2026-04-19T19:42:41Z</time></trkpt><trkpt lat="43.58132689900742" lon="10.622440373867395"><ele>71.0</ele><time>2026-04-19T19:42:43Z</time></trkpt><trkpt lat="43.58118761405777" lon="10.622434447302458"><ele>71.0</ele><time>2026-04-19T19:42:53.073Z</time></trkpt><trkpt lat="43.5812185240712" lon="10.622327052989212"><ele>71.0</ele><time>2026-04-19T19:42:56.07Z</time></trkpt><trkpt lat="43.5812020564252" lon="10.622217342965946"><ele>71.0</ele><time>2026-04-19T19:43:07.029Z</time></trkpt><trkpt lat="43.58126102337351" lon="10.62218297247181"><ele>71.0</ele><time>2026-04-19T19:43:29.024Z</time></trkpt></trkseg></trk></gpx>